<?xml version="1.0" encoding="UTF-8" standalone="no" ?>
<gpx xmlns="http://www.topografix.com/GPX/1/1" xmlns:xsi="http://www.w3.org/2001/XMLSchema-instance" xsi:schemaLocation="http://www.topografix.com/GPX/1/1 http://www.topografix.com/GPX/1/1/gpx.xsd" version="1.1" creator="VisuGPX - https://www.visugpx.com">
  <metadata>
    <name>St-Maurin</name>
  </metadata>
  <trk>
    <name><![CDATA[St-Maurin_1]]></name>
    <extensions>
      <line xmlns="http://www.topografix.com/GPX/gpx_style/0/2">
        <color>0000FF</color>
        <width>4</width>
      </line>
    </extensions>
    <trkseg>
      <trkpt lat="44.20792" lon="0.89289">
        <ele>98</ele>
        <time>2022-07-21T06:34:45.000Z</time>
      </trkpt>
      <trkpt lat="44.20792" lon="0.89289">
        <ele>104</ele>
        <time>2022-07-21T06:34:46.000Z</time>
      </trkpt>
      <trkpt lat="44.20792" lon="0.8929">
        <ele>103</ele>
        <time>2022-07-21T06:34:47.000Z</time>
      </trkpt>
      <trkpt lat="44.20792" lon="0.8929">
        <ele>103</ele>
        <time>2022-07-21T06:34:48.000Z</time>
      </trkpt>
      <trkpt lat="44.20791" lon="0.89289">
        <ele>104</ele>
        <time>2022-07-21T06:34:49.000Z</time>
      </trkpt>
      <trkpt lat="44.20791" lon="0.89289">
        <ele>103</ele>
        <time>2022-07-21T06:34:50.000Z</time>
      </trkpt>
      <trkpt lat="44.20791" lon="0.89289">
        <ele>102</ele>
        <time>2022-07-21T06:34:51.000Z</time>
      </trkpt>
      <trkpt lat="44.20791" lon="0.89289">
        <ele>103</ele>
        <time>2022-07-21T06:34:52.000Z</time>
      </trkpt>
      <trkpt lat="44.20791" lon="0.89288">
        <ele>105</ele>
        <time>2022-07-21T06:34:53.000Z</time>
      </trkpt>
      <trkpt lat="44.20792" lon="0.89288">
        <ele>105</ele>
        <time>2022-07-21T06:34:54.000Z</time>
      </trkpt>
      <trkpt lat="44.20792" lon="0.89288">
        <ele>105</ele>
        <time>2022-07-21T06:34:55.000Z</time>
      </trkpt>
      <trkpt lat="44.20793" lon="0.89286">
        <ele>98</ele>
        <time>2022-07-21T06:35:29.062Z</time>
      </trkpt>
      <trkpt lat="44.20793" lon="0.89287">
        <ele>98</ele>
        <time>2022-07-21T06:35:30.062Z</time>
      </trkpt>
      <trkpt lat="44.20794" lon="0.89288">
        <ele>98</ele>
        <time>2022-07-21T06:35:31.062Z</time>
      </trkpt>
      <trkpt lat="44.20794" lon="0.89289">
        <ele>97</ele>
        <time>2022-07-21T06:35:32.062Z</time>
      </trkpt>
      <trkpt lat="44.20795" lon="0.8929">
        <ele>98</ele>
        <time>2022-07-21T06:35:33.062Z</time>
      </trkpt>
      <trkpt lat="44.20796" lon="0.8929">
        <ele>98</ele>
        <time>2022-07-21T06:35:34.062Z</time>
      </trkpt>
      <trkpt lat="44.20797" lon="0.8929">
        <ele>98</ele>
        <time>2022-07-21T06:35:35.062Z</time>
      </trkpt>
      <trkpt lat="44.20797" lon="0.89291">
        <ele>98</ele>
        <time>2022-07-21T06:35:36.062Z</time>
      </trkpt>
      <trkpt lat="44.20797" lon="0.89291">
        <ele>98</ele>
        <time>2022-07-21T06:35:37.062Z</time>
      </trkpt>
      <trkpt lat="44.20796" lon="0.89291">
        <ele>98</ele>
        <time>2022-07-21T06:35:38.062Z</time>
      </trkpt>
      <trkpt lat="44.20795" lon="0.89291">
        <ele>99</ele>
        <time>2022-07-21T06:35:39.062Z</time>
      </trkpt>
      <trkpt lat="44.20795" lon="0.89289">
        <ele>101</ele>
        <time>2022-07-21T06:35:40.062Z</time>
      </trkpt>
      <trkpt lat="44.20794" lon="0.89288">
        <ele>100</ele>
        <time>2022-07-21T06:35:41.062Z</time>
      </trkpt>
      <trkpt lat="44.20794" lon="0.89287">
        <ele>100</ele>
        <time>2022-07-21T06:35:42.062Z</time>
      </trkpt>
      <trkpt lat="44.20793" lon="0.89285">
        <ele>100</ele>
        <time>2022-07-21T06:35:43.062Z</time>
      </trkpt>
      <trkpt lat="44.20793" lon="0.89284">
        <ele>99</ele>
        <time>2022-07-21T06:35:44.062Z</time>
      </trkpt>
      <trkpt lat="44.20794" lon="0.89283">
        <ele>99</ele>
        <time>2022-07-21T06:35:45.062Z</time>
      </trkpt>
      <trkpt lat="44.20794" lon="0.89282">
        <ele>99</ele>
        <time>2022-07-21T06:35:46.062Z</time>
      </trkpt>
      <trkpt lat="44.20794" lon="0.89281">
        <ele>99</ele>
        <time>2022-07-21T06:35:47.062Z</time>
      </trkpt>
      <trkpt lat="44.20794" lon="0.8928">
        <ele>99</ele>
        <time>2022-07-21T06:35:48.062Z</time>
      </trkpt>
      <trkpt lat="44.20794" lon="0.89278">
        <ele>99</ele>
        <time>2022-07-21T06:35:49.062Z</time>
      </trkpt>
      <trkpt lat="44.20795" lon="0.89277">
        <ele>99</ele>
        <time>2022-07-21T06:35:50.062Z</time>
      </trkpt>
      <trkpt lat="44.20795" lon="0.89275">
        <ele>99</ele>
        <time>2022-07-21T06:35:51.062Z</time>
      </trkpt>
      <trkpt lat="44.20794" lon="0.89273">
        <ele>99</ele>
        <time>2022-07-21T06:35:52.062Z</time>
      </trkpt>
      <trkpt lat="44.20794" lon="0.89272">
        <ele>99</ele>
        <time>2022-07-21T06:35:53.062Z</time>
      </trkpt>
      <trkpt lat="44.20794" lon="0.89271">
        <ele>100</ele>
        <time>2022-07-21T06:35:54.062Z</time>
      </trkpt>
      <trkpt lat="44.20793" lon="0.89271">
        <ele>100</ele>
        <time>2022-07-21T06:35:55.062Z</time>
      </trkpt>
      <trkpt lat="44.20792" lon="0.8927">
        <ele>100</ele>
        <time>2022-07-21T06:35:56.062Z</time>
      </trkpt>
      <trkpt lat="44.20791" lon="0.89269">
        <ele>101</ele>
        <time>2022-07-21T06:35:57.062Z</time>
      </trkpt>
      <trkpt lat="44.2079" lon="0.89268">
        <ele>101</ele>
        <time>2022-07-21T06:35:58.062Z</time>
      </trkpt>
      <trkpt lat="44.20789" lon="0.89267">
        <ele>101</ele>
        <time>2022-07-21T06:35:59.062Z</time>
      </trkpt>
      <trkpt lat="44.20788" lon="0.89267">
        <ele>101</ele>
        <time>2022-07-21T06:36:00.062Z</time>
      </trkpt>
      <trkpt lat="44.20787" lon="0.89266">
        <ele>100</ele>
        <time>2022-07-21T06:36:01.062Z</time>
      </trkpt>
      <trkpt lat="44.20786" lon="0.89265">
        <ele>100</ele>
        <time>2022-07-21T06:36:02.062Z</time>
      </trkpt>
      <trkpt lat="44.20786" lon="0.89265">
        <ele>100</ele>
        <time>2022-07-21T06:36:03.062Z</time>
      </trkpt>
      <trkpt lat="44.20786" lon="0.89265">
        <ele>100</ele>
        <time>2022-07-21T06:36:04.062Z</time>
      </trkpt>
      <trkpt lat="44.20786" lon="0.89265">
        <ele>101</ele>
        <time>2022-07-21T06:36:05.062Z</time>
      </trkpt>
      <trkpt lat="44.20785" lon="0.89264">
        <ele>100</ele>
        <time>2022-07-21T06:36:06.062Z</time>
      </trkpt>
      <trkpt lat="44.20785" lon="0.89264">
        <ele>100</ele>
        <time>2022-07-21T06:36:07.062Z</time>
      </trkpt>
      <trkpt lat="44.20784" lon="0.89263">
        <ele>99</ele>
        <time>2022-07-21T06:36:08.062Z</time>
      </trkpt>
      <trkpt lat="44.20784" lon="0.89262">
        <ele>99</ele>
        <time>2022-07-21T06:36:09.062Z</time>
      </trkpt>
      <trkpt lat="44.20783" lon="0.89262">
        <ele>98</ele>
        <time>2022-07-21T06:36:10.062Z</time>
      </trkpt>
      <trkpt lat="44.20782" lon="0.89262">
        <ele>98</ele>
        <time>2022-07-21T06:36:11.062Z</time>
      </trkpt>
      <trkpt lat="44.20782" lon="0.89261">
        <ele>98</ele>
        <time>2022-07-21T06:36:12.062Z</time>
      </trkpt>
      <trkpt lat="44.20782" lon="0.89261">
        <ele>98</ele>
        <time>2022-07-21T06:36:13.062Z</time>
      </trkpt>
      <trkpt lat="44.20781" lon="0.89262">
        <ele>98</ele>
        <time>2022-07-21T06:36:14.062Z</time>
      </trkpt>
      <trkpt lat="44.20781" lon="0.89262">
        <ele>97</ele>
        <time>2022-07-21T06:36:15.062Z</time>
      </trkpt>
      <trkpt lat="44.20781" lon="0.89262">
        <ele>98</ele>
        <time>2022-07-21T06:36:16.062Z</time>
      </trkpt>
      <trkpt lat="44.20781" lon="0.89262">
        <ele>98</ele>
        <time>2022-07-21T06:36:17.062Z</time>
      </trkpt>
      <trkpt lat="44.20781" lon="0.89262">
        <ele>98</ele>
        <time>2022-07-21T06:36:18.062Z</time>
      </trkpt>
      <trkpt lat="44.20781" lon="0.89262">
        <ele>98</ele>
        <time>2022-07-21T06:36:19.062Z</time>
      </trkpt>
      <trkpt lat="44.20783" lon="0.89256">
        <ele>106</ele>
        <time>2022-07-21T06:37:10.078Z</time>
      </trkpt>
      <trkpt lat="44.20783" lon="0.89256">
        <ele>106</ele>
        <time>2022-07-21T06:37:11.078Z</time>
      </trkpt>
      <trkpt lat="44.20783" lon="0.89256">
        <ele>106</ele>
        <time>2022-07-21T06:37:12.078Z</time>
      </trkpt>
      <trkpt lat="44.20783" lon="0.89256">
        <ele>107</ele>
        <time>2022-07-21T06:37:13.078Z</time>
      </trkpt>
      <trkpt lat="44.20784" lon="0.89256">
        <ele>107</ele>
        <time>2022-07-21T06:37:14.078Z</time>
      </trkpt>
      <trkpt lat="44.20784" lon="0.89256">
        <ele>107</ele>
        <time>2022-07-21T06:37:15.078Z</time>
      </trkpt>
      <trkpt lat="44.20784" lon="0.89256">
        <ele>107</ele>
        <time>2022-07-21T06:37:16.078Z</time>
      </trkpt>
      <trkpt lat="44.20784" lon="0.89256">
        <ele>106</ele>
        <time>2022-07-21T06:37:17.078Z</time>
      </trkpt>
      <trkpt lat="44.20785" lon="0.89261">
        <ele>110</ele>
        <time>2022-07-21T06:37:28.094Z</time>
      </trkpt>
      <trkpt lat="44.20785" lon="0.89261">
        <ele>109</ele>
        <time>2022-07-21T06:37:29.094Z</time>
      </trkpt>
      <trkpt lat="44.20784" lon="0.8926">
        <ele>109</ele>
        <time>2022-07-21T06:37:30.094Z</time>
      </trkpt>
      <trkpt lat="44.20784" lon="0.8926">
        <ele>109</ele>
        <time>2022-07-21T06:37:31.094Z</time>
      </trkpt>
      <trkpt lat="44.20784" lon="0.8926">
        <ele>109</ele>
        <time>2022-07-21T06:37:32.094Z</time>
      </trkpt>
      <trkpt lat="44.20784" lon="0.8926">
        <ele>109</ele>
        <time>2022-07-21T06:37:33.094Z</time>
      </trkpt>
      <trkpt lat="44.20784" lon="0.8926">
        <ele>108</ele>
        <time>2022-07-21T06:37:34.094Z</time>
      </trkpt>
      <trkpt lat="44.20787" lon="0.89266">
        <ele>105</ele>
        <time>2022-07-21T06:37:45.110Z</time>
      </trkpt>
      <trkpt lat="44.20787" lon="0.89267">
        <ele>104</ele>
        <time>2022-07-21T06:37:46.110Z</time>
      </trkpt>
      <trkpt lat="44.20788" lon="0.89268">
        <ele>104</ele>
        <time>2022-07-21T06:37:47.110Z</time>
      </trkpt>
      <trkpt lat="44.20789" lon="0.89269">
        <ele>104</ele>
        <time>2022-07-21T06:37:48.110Z</time>
      </trkpt>
      <trkpt lat="44.2079" lon="0.8927">
        <ele>104</ele>
        <time>2022-07-21T06:37:49.110Z</time>
      </trkpt>
      <trkpt lat="44.20791" lon="0.8927">
        <ele>104</ele>
        <time>2022-07-21T06:37:50.110Z</time>
      </trkpt>
      <trkpt lat="44.20792" lon="0.8927">
        <ele>104</ele>
        <time>2022-07-21T06:37:51.110Z</time>
      </trkpt>
      <trkpt lat="44.20793" lon="0.89271">
        <ele>104</ele>
        <time>2022-07-21T06:37:52.110Z</time>
      </trkpt>
      <trkpt lat="44.20794" lon="0.89272">
        <ele>104</ele>
        <time>2022-07-21T06:37:53.110Z</time>
      </trkpt>
      <trkpt lat="44.20795" lon="0.89274">
        <ele>103</ele>
        <time>2022-07-21T06:37:54.110Z</time>
      </trkpt>
      <trkpt lat="44.20795" lon="0.89276">
        <ele>104</ele>
        <time>2022-07-21T06:37:55.110Z</time>
      </trkpt>
      <trkpt lat="44.20795" lon="0.89278">
        <ele>104</ele>
        <time>2022-07-21T06:37:56.110Z</time>
      </trkpt>
      <trkpt lat="44.20795" lon="0.8928">
        <ele>103</ele>
        <time>2022-07-21T06:37:57.110Z</time>
      </trkpt>
      <trkpt lat="44.20795" lon="0.89282">
        <ele>103</ele>
        <time>2022-07-21T06:37:58.110Z</time>
      </trkpt>
      <trkpt lat="44.20795" lon="0.89283">
        <ele>104</ele>
        <time>2022-07-21T06:37:59.110Z</time>
      </trkpt>
      <trkpt lat="44.20795" lon="0.89285">
        <ele>103</ele>
        <time>2022-07-21T06:38:00.110Z</time>
      </trkpt>
      <trkpt lat="44.20795" lon="0.89286">
        <ele>103</ele>
        <time>2022-07-21T06:38:01.110Z</time>
      </trkpt>
      <trkpt lat="44.20794" lon="0.89287">
        <ele>103</ele>
        <time>2022-07-21T06:38:02.110Z</time>
      </trkpt>
      <trkpt lat="44.20794" lon="0.89287">
        <ele>102</ele>
        <time>2022-07-21T06:38:03.110Z</time>
      </trkpt>
      <trkpt lat="44.20794" lon="0.89287">
        <ele>102</ele>
        <time>2022-07-21T06:38:04.110Z</time>
      </trkpt>
      <trkpt lat="44.20794" lon="0.89287">
        <ele>102</ele>
        <time>2022-07-21T06:38:05.110Z</time>
      </trkpt>
      <trkpt lat="44.20794" lon="0.89288">
        <ele>102</ele>
        <time>2022-07-21T06:38:06.110Z</time>
      </trkpt>
      <trkpt lat="44.20794" lon="0.89288">
        <ele>102</ele>
        <time>2022-07-21T06:38:07.110Z</time>
      </trkpt>
      <trkpt lat="44.20794" lon="0.89288">
        <ele>103</ele>
        <time>2022-07-21T06:38:08.110Z</time>
      </trkpt>
      <trkpt lat="44.20794" lon="0.89288">
        <ele>103</ele>
        <time>2022-07-21T06:38:09.110Z</time>
      </trkpt>
      <trkpt lat="44.20794" lon="0.89288">
        <ele>103</ele>
        <time>2022-07-21T06:38:10.110Z</time>
      </trkpt>
      <trkpt lat="44.20794" lon="0.89288">
        <ele>103</ele>
        <time>2022-07-21T06:38:11.110Z</time>
      </trkpt>
      <trkpt lat="44.20794" lon="0.89288">
        <ele>102</ele>
        <time>2022-07-21T06:38:12.110Z</time>
      </trkpt>
      <trkpt lat="44.20794" lon="0.89283">
        <ele>98</ele>
        <time>2022-07-21T06:38:51.114Z</time>
      </trkpt>
      <trkpt lat="44.20794" lon="0.89283">
        <ele>99</ele>
        <time>2022-07-21T06:38:52.114Z</time>
      </trkpt>
      <trkpt lat="44.20794" lon="0.89282">
        <ele>99</ele>
        <time>2022-07-21T06:38:53.114Z</time>
      </trkpt>
      <trkpt lat="44.20795" lon="0.89282">
        <ele>98</ele>
        <time>2022-07-21T06:38:54.114Z</time>
      </trkpt>
      <trkpt lat="44.20795" lon="0.89282">
        <ele>97</ele>
        <time>2022-07-21T06:38:55.114Z</time>
      </trkpt>
      <trkpt lat="44.20795" lon="0.89275">
        <ele>98</ele>
        <time>2022-07-21T06:39:02.134Z</time>
      </trkpt>
      <trkpt lat="44.20795" lon="0.89273">
        <ele>98</ele>
        <time>2022-07-21T06:39:03.134Z</time>
      </trkpt>
      <trkpt lat="44.20795" lon="0.89272">
        <ele>98</ele>
        <time>2022-07-21T06:39:04.134Z</time>
      </trkpt>
      <trkpt lat="44.20794" lon="0.8927">
        <ele>98</ele>
        <time>2022-07-21T06:39:05.134Z</time>
      </trkpt>
      <trkpt lat="44.20794" lon="0.89269">
        <ele>98</ele>
        <time>2022-07-21T06:39:06.134Z</time>
      </trkpt>
      <trkpt lat="44.20794" lon="0.89268">
        <ele>99</ele>
        <time>2022-07-21T06:39:07.134Z</time>
      </trkpt>
      <trkpt lat="44.20794" lon="0.89266">
        <ele>99</ele>
        <time>2022-07-21T06:39:08.134Z</time>
      </trkpt>
      <trkpt lat="44.20794" lon="0.89265">
        <ele>99</ele>
        <time>2022-07-21T06:39:09.134Z</time>
      </trkpt>
      <trkpt lat="44.20794" lon="0.89264">
        <ele>99</ele>
        <time>2022-07-21T06:39:10.134Z</time>
      </trkpt>
      <trkpt lat="44.20794" lon="0.89263">
        <ele>99</ele>
        <time>2022-07-21T06:39:11.134Z</time>
      </trkpt>
      <trkpt lat="44.20794" lon="0.89262">
        <ele>100</ele>
        <time>2022-07-21T06:39:12.134Z</time>
      </trkpt>
      <trkpt lat="44.20794" lon="0.89261">
        <ele>100</ele>
        <time>2022-07-21T06:39:13.134Z</time>
      </trkpt>
      <trkpt lat="44.20793" lon="0.8926">
        <ele>100</ele>
        <time>2022-07-21T06:39:14.134Z</time>
      </trkpt>
      <trkpt lat="44.20793" lon="0.89259">
        <ele>101</ele>
        <time>2022-07-21T06:39:15.134Z</time>
      </trkpt>
      <trkpt lat="44.20793" lon="0.89259">
        <ele>101</ele>
        <time>2022-07-21T06:39:16.134Z</time>
      </trkpt>
      <trkpt lat="44.20793" lon="0.89258">
        <ele>102</ele>
        <time>2022-07-21T06:39:17.134Z</time>
      </trkpt>
      <trkpt lat="44.20793" lon="0.89258">
        <ele>103</ele>
        <time>2022-07-21T06:39:18.134Z</time>
      </trkpt>
      <trkpt lat="44.20793" lon="0.89258">
        <ele>104</ele>
        <time>2022-07-21T06:39:19.134Z</time>
      </trkpt>
      <trkpt lat="44.20793" lon="0.89258">
        <ele>105</ele>
        <time>2022-07-21T06:39:20.134Z</time>
      </trkpt>
      <trkpt lat="44.20792" lon="0.89257">
        <ele>106</ele>
        <time>2022-07-21T06:39:21.134Z</time>
      </trkpt>
      <trkpt lat="44.20792" lon="0.89257">
        <ele>107</ele>
        <time>2022-07-21T06:39:22.134Z</time>
      </trkpt>
      <trkpt lat="44.20792" lon="0.89256">
        <ele>107</ele>
        <time>2022-07-21T06:39:23.134Z</time>
      </trkpt>
      <trkpt lat="44.20791" lon="0.89255">
        <ele>108</ele>
        <time>2022-07-21T06:39:24.134Z</time>
      </trkpt>
      <trkpt lat="44.20791" lon="0.89255">
        <ele>109</ele>
        <time>2022-07-21T06:39:25.134Z</time>
      </trkpt>
      <trkpt lat="44.20791" lon="0.89255">
        <ele>109</ele>
        <time>2022-07-21T06:39:26.134Z</time>
      </trkpt>
      <trkpt lat="44.20791" lon="0.89254">
        <ele>108</ele>
        <time>2022-07-21T06:39:27.134Z</time>
      </trkpt>
      <trkpt lat="44.2079" lon="0.89254">
        <ele>108</ele>
        <time>2022-07-21T06:39:28.134Z</time>
      </trkpt>
      <trkpt lat="44.2079" lon="0.89254">
        <ele>109</ele>
        <time>2022-07-21T06:39:29.134Z</time>
      </trkpt>
      <trkpt lat="44.2079" lon="0.89255">
        <ele>109</ele>
        <time>2022-07-21T06:39:30.134Z</time>
      </trkpt>
      <trkpt lat="44.20789" lon="0.89254">
        <ele>109</ele>
        <time>2022-07-21T06:39:31.134Z</time>
      </trkpt>
      <trkpt lat="44.20793" lon="0.89252">
        <ele>110</ele>
        <time>2022-07-21T06:39:41.150Z</time>
      </trkpt>
      <trkpt lat="44.20793" lon="0.89252">
        <ele>110</ele>
        <time>2022-07-21T06:39:42.150Z</time>
      </trkpt>
      <trkpt lat="44.20794" lon="0.89252">
        <ele>111</ele>
        <time>2022-07-21T06:39:43.150Z</time>
      </trkpt>
      <trkpt lat="44.20793" lon="0.89252">
        <ele>110</ele>
        <time>2022-07-21T06:39:44.150Z</time>
      </trkpt>
      <trkpt lat="44.20793" lon="0.89253">
        <ele>110</ele>
        <time>2022-07-21T06:39:45.150Z</time>
      </trkpt>
      <trkpt lat="44.20793" lon="0.89253">
        <ele>110</ele>
        <time>2022-07-21T06:39:46.150Z</time>
      </trkpt>
      <trkpt lat="44.20793" lon="0.89254">
        <ele>109</ele>
        <time>2022-07-21T06:39:47.150Z</time>
      </trkpt>
      <trkpt lat="44.20788" lon="0.89255">
        <ele>111</ele>
        <time>2022-07-21T06:39:53.162Z</time>
      </trkpt>
      <trkpt lat="44.20786" lon="0.89255">
        <ele>110</ele>
        <time>2022-07-21T06:39:54.162Z</time>
      </trkpt>
      <trkpt lat="44.20785" lon="0.89255">
        <ele>109</ele>
        <time>2022-07-21T06:39:55.162Z</time>
      </trkpt>
      <trkpt lat="44.20783" lon="0.89255">
        <ele>109</ele>
        <time>2022-07-21T06:39:56.162Z</time>
      </trkpt>
      <trkpt lat="44.20782" lon="0.89254">
        <ele>109</ele>
        <time>2022-07-21T06:39:57.162Z</time>
      </trkpt>
      <trkpt lat="44.20781" lon="0.89254">
        <ele>109</ele>
        <time>2022-07-21T06:39:58.162Z</time>
      </trkpt>
      <trkpt lat="44.20781" lon="0.89254">
        <ele>109</ele>
        <time>2022-07-21T06:39:59.162Z</time>
      </trkpt>
      <trkpt lat="44.2078" lon="0.89253">
        <ele>109</ele>
        <time>2022-07-21T06:40:00.162Z</time>
      </trkpt>
      <trkpt lat="44.20779" lon="0.89253">
        <ele>109</ele>
        <time>2022-07-21T06:40:01.162Z</time>
      </trkpt>
      <trkpt lat="44.20779" lon="0.89254">
        <ele>109</ele>
        <time>2022-07-21T06:40:02.162Z</time>
      </trkpt>
      <trkpt lat="44.20779" lon="0.89254">
        <ele>109</ele>
        <time>2022-07-21T06:40:03.162Z</time>
      </trkpt>
      <trkpt lat="44.20778" lon="0.89254">
        <ele>108</ele>
        <time>2022-07-21T06:40:04.162Z</time>
      </trkpt>
      <trkpt lat="44.20778" lon="0.89253">
        <ele>108</ele>
        <time>2022-07-21T06:40:05.162Z</time>
      </trkpt>
      <trkpt lat="44.20778" lon="0.89253">
        <ele>108</ele>
        <time>2022-07-21T06:40:06.162Z</time>
      </trkpt>
      <trkpt lat="44.20777" lon="0.89254">
        <ele>108</ele>
        <time>2022-07-21T06:40:07.162Z</time>
      </trkpt>
      <trkpt lat="44.20776" lon="0.89254">
        <ele>106</ele>
        <time>2022-07-21T06:40:08.162Z</time>
      </trkpt>
      <trkpt lat="44.20776" lon="0.89254">
        <ele>105</ele>
        <time>2022-07-21T06:40:09.162Z</time>
      </trkpt>
      <trkpt lat="44.20775" lon="0.89254">
        <ele>106</ele>
        <time>2022-07-21T06:40:10.162Z</time>
      </trkpt>
      <trkpt lat="44.20774" lon="0.89254">
        <ele>106</ele>
        <time>2022-07-21T06:40:11.162Z</time>
      </trkpt>
      <trkpt lat="44.20772" lon="0.89254">
        <ele>105</ele>
        <time>2022-07-21T06:40:12.162Z</time>
      </trkpt>
      <trkpt lat="44.20771" lon="0.89254">
        <ele>105</ele>
        <time>2022-07-21T06:40:13.162Z</time>
      </trkpt>
      <trkpt lat="44.2077" lon="0.89254">
        <ele>106</ele>
        <time>2022-07-21T06:40:14.162Z</time>
      </trkpt>
      <trkpt lat="44.20769" lon="0.89254">
        <ele>106</ele>
        <time>2022-07-21T06:40:15.162Z</time>
      </trkpt>
      <trkpt lat="44.20768" lon="0.89254">
        <ele>106</ele>
        <time>2022-07-21T06:40:16.162Z</time>
      </trkpt>
      <trkpt lat="44.20767" lon="0.89254">
        <ele>106</ele>
        <time>2022-07-21T06:40:17.162Z</time>
      </trkpt>
      <trkpt lat="44.20766" lon="0.89254">
        <ele>106</ele>
        <time>2022-07-21T06:40:18.162Z</time>
      </trkpt>
      <trkpt lat="44.20765" lon="0.89254">
        <ele>105</ele>
        <time>2022-07-21T06:40:19.162Z</time>
      </trkpt>
      <trkpt lat="44.20763" lon="0.89253">
        <ele>105</ele>
        <time>2022-07-21T06:40:20.162Z</time>
      </trkpt>
      <trkpt lat="44.20762" lon="0.89253">
        <ele>104</ele>
        <time>2022-07-21T06:40:21.162Z</time>
      </trkpt>
      <trkpt lat="44.20761" lon="0.89253">
        <ele>104</ele>
        <time>2022-07-21T06:40:22.162Z</time>
      </trkpt>
      <trkpt lat="44.2076" lon="0.89252">
        <ele>102</ele>
        <time>2022-07-21T06:40:23.162Z</time>
      </trkpt>
      <trkpt lat="44.2076" lon="0.89251">
        <ele>101</ele>
        <time>2022-07-21T06:40:24.162Z</time>
      </trkpt>
      <trkpt lat="44.20759" lon="0.89249">
        <ele>100</ele>
        <time>2022-07-21T06:40:25.162Z</time>
      </trkpt>
      <trkpt lat="44.20759" lon="0.89248">
        <ele>100</ele>
        <time>2022-07-21T06:40:26.162Z</time>
      </trkpt>
      <trkpt lat="44.20758" lon="0.89247">
        <ele>100</ele>
        <time>2022-07-21T06:40:27.162Z</time>
      </trkpt>
      <trkpt lat="44.20759" lon="0.89245">
        <ele>101</ele>
        <time>2022-07-21T06:40:28.162Z</time>
      </trkpt>
      <trkpt lat="44.20759" lon="0.89243">
        <ele>102</ele>
        <time>2022-07-21T06:40:29.162Z</time>
      </trkpt>
      <trkpt lat="44.20759" lon="0.89241">
        <ele>102</ele>
        <time>2022-07-21T06:40:30.162Z</time>
      </trkpt>
      <trkpt lat="44.20759" lon="0.8924">
        <ele>101</ele>
        <time>2022-07-21T06:40:31.162Z</time>
      </trkpt>
      <trkpt lat="44.2076" lon="0.89239">
        <ele>100</ele>
        <time>2022-07-21T06:40:32.162Z</time>
      </trkpt>
      <trkpt lat="44.2076" lon="0.89237">
        <ele>100</ele>
        <time>2022-07-21T06:40:33.162Z</time>
      </trkpt>
      <trkpt lat="44.2076" lon="0.89236">
        <ele>100</ele>
        <time>2022-07-21T06:40:34.162Z</time>
      </trkpt>
      <trkpt lat="44.2076" lon="0.89235">
        <ele>99</ele>
        <time>2022-07-21T06:40:35.162Z</time>
      </trkpt>
      <trkpt lat="44.2076" lon="0.89234">
        <ele>99</ele>
        <time>2022-07-21T06:40:36.162Z</time>
      </trkpt>
      <trkpt lat="44.2076" lon="0.89233">
        <ele>98</ele>
        <time>2022-07-21T06:40:37.162Z</time>
      </trkpt>
      <trkpt lat="44.20761" lon="0.89232">
        <ele>98</ele>
        <time>2022-07-21T06:40:38.162Z</time>
      </trkpt>
      <trkpt lat="44.20762" lon="0.8923">
        <ele>98</ele>
        <time>2022-07-21T06:40:39.162Z</time>
      </trkpt>
      <trkpt lat="44.20763" lon="0.89228">
        <ele>98</ele>
        <time>2022-07-21T06:40:40.162Z</time>
      </trkpt>
      <trkpt lat="44.20763" lon="0.89226">
        <ele>99</ele>
        <time>2022-07-21T06:40:41.162Z</time>
      </trkpt>
      <trkpt lat="44.20763" lon="0.89224">
        <ele>99</ele>
        <time>2022-07-21T06:40:42.162Z</time>
      </trkpt>
      <trkpt lat="44.20764" lon="0.89221">
        <ele>98</ele>
        <time>2022-07-21T06:40:43.162Z</time>
      </trkpt>
      <trkpt lat="44.20764" lon="0.8922">
        <ele>98</ele>
        <time>2022-07-21T06:40:44.162Z</time>
      </trkpt>
      <trkpt lat="44.20764" lon="0.89218">
        <ele>98</ele>
        <time>2022-07-21T06:40:45.162Z</time>
      </trkpt>
      <trkpt lat="44.20764" lon="0.89217">
        <ele>97</ele>
        <time>2022-07-21T06:40:46.162Z</time>
      </trkpt>
      <trkpt lat="44.20764" lon="0.89216">
        <ele>97</ele>
        <time>2022-07-21T06:40:47.162Z</time>
      </trkpt>
      <trkpt lat="44.20763" lon="0.89215">
        <ele>97</ele>
        <time>2022-07-21T06:40:48.162Z</time>
      </trkpt>
      <trkpt lat="44.20762" lon="0.89213">
        <ele>97</ele>
        <time>2022-07-21T06:40:49.162Z</time>
      </trkpt>
      <trkpt lat="44.20761" lon="0.89211">
        <ele>97</ele>
        <time>2022-07-21T06:40:50.162Z</time>
      </trkpt>
      <trkpt lat="44.20761" lon="0.8921">
        <ele>97</ele>
        <time>2022-07-21T06:40:51.162Z</time>
      </trkpt>
      <trkpt lat="44.2076" lon="0.89207">
        <ele>97</ele>
        <time>2022-07-21T06:40:52.162Z</time>
      </trkpt>
      <trkpt lat="44.2076" lon="0.89206">
        <ele>97</ele>
        <time>2022-07-21T06:40:53.162Z</time>
      </trkpt>
      <trkpt lat="44.20759" lon="0.89204">
        <ele>97</ele>
        <time>2022-07-21T06:40:54.162Z</time>
      </trkpt>
      <trkpt lat="44.20759" lon="0.89204">
        <ele>96</ele>
        <time>2022-07-21T06:40:55.162Z</time>
      </trkpt>
      <trkpt lat="44.20758" lon="0.89203">
        <ele>96</ele>
        <time>2022-07-21T06:40:56.162Z</time>
      </trkpt>
      <trkpt lat="44.20757" lon="0.89203">
        <ele>95</ele>
        <time>2022-07-21T06:40:57.162Z</time>
      </trkpt>
      <trkpt lat="44.20755" lon="0.89203">
        <ele>96</ele>
        <time>2022-07-21T06:40:58.162Z</time>
      </trkpt>
      <trkpt lat="44.20754" lon="0.89203">
        <ele>96</ele>
        <time>2022-07-21T06:40:59.162Z</time>
      </trkpt>
      <trkpt lat="44.20753" lon="0.89204">
        <ele>96</ele>
        <time>2022-07-21T06:41:00.162Z</time>
      </trkpt>
      <trkpt lat="44.20752" lon="0.89203">
        <ele>96</ele>
        <time>2022-07-21T06:41:01.162Z</time>
      </trkpt>
      <trkpt lat="44.20751" lon="0.89203">
        <ele>97</ele>
        <time>2022-07-21T06:41:02.162Z</time>
      </trkpt>
      <trkpt lat="44.2075" lon="0.89203">
        <ele>96</ele>
        <time>2022-07-21T06:41:03.162Z</time>
      </trkpt>
      <trkpt lat="44.20749" lon="0.89203">
        <ele>96</ele>
        <time>2022-07-21T06:41:04.162Z</time>
      </trkpt>
      <trkpt lat="44.20748" lon="0.89203">
        <ele>96</ele>
        <time>2022-07-21T06:41:05.162Z</time>
      </trkpt>
      <trkpt lat="44.20747" lon="0.89202">
        <ele>95</ele>
        <time>2022-07-21T06:41:06.162Z</time>
      </trkpt>
      <trkpt lat="44.20746" lon="0.89202">
        <ele>94</ele>
        <time>2022-07-21T06:41:07.162Z</time>
      </trkpt>
      <trkpt lat="44.20745" lon="0.89201">
        <ele>94</ele>
        <time>2022-07-21T06:41:08.162Z</time>
      </trkpt>
      <trkpt lat="44.20744" lon="0.892">
        <ele>93</ele>
        <time>2022-07-21T06:41:09.162Z</time>
      </trkpt>
      <trkpt lat="44.20743" lon="0.892">
        <ele>94</ele>
        <time>2022-07-21T06:41:10.162Z</time>
      </trkpt>
      <trkpt lat="44.20741" lon="0.892">
        <ele>95</ele>
        <time>2022-07-21T06:41:11.162Z</time>
      </trkpt>
      <trkpt lat="44.2074" lon="0.892">
        <ele>95</ele>
        <time>2022-07-21T06:41:12.162Z</time>
      </trkpt>
      <trkpt lat="44.20739" lon="0.89199">
        <ele>94</ele>
        <time>2022-07-21T06:41:13.162Z</time>
      </trkpt>
      <trkpt lat="44.20738" lon="0.89199">
        <ele>95</ele>
        <time>2022-07-21T06:41:14.162Z</time>
      </trkpt>
      <trkpt lat="44.20737" lon="0.89198">
        <ele>96</ele>
        <time>2022-07-21T06:41:15.162Z</time>
      </trkpt>
      <trkpt lat="44.20736" lon="0.89196">
        <ele>98</ele>
        <time>2022-07-21T06:41:16.162Z</time>
      </trkpt>
      <trkpt lat="44.20735" lon="0.89195">
        <ele>100</ele>
        <time>2022-07-21T06:41:17.162Z</time>
      </trkpt>
      <trkpt lat="44.20733" lon="0.89192">
        <ele>102</ele>
        <time>2022-07-21T06:41:18.162Z</time>
      </trkpt>
      <trkpt lat="44.20732" lon="0.89191">
        <ele>104</ele>
        <time>2022-07-21T06:41:19.162Z</time>
      </trkpt>
      <trkpt lat="44.20731" lon="0.8919">
        <ele>104</ele>
        <time>2022-07-21T06:41:20.162Z</time>
      </trkpt>
      <trkpt lat="44.20729" lon="0.89189">
        <ele>104</ele>
        <time>2022-07-21T06:41:21.162Z</time>
      </trkpt>
      <trkpt lat="44.20728" lon="0.89189">
        <ele>105</ele>
        <time>2022-07-21T06:41:22.162Z</time>
      </trkpt>
      <trkpt lat="44.20727" lon="0.89187">
        <ele>106</ele>
        <time>2022-07-21T06:41:23.162Z</time>
      </trkpt>
      <trkpt lat="44.20727" lon="0.89186">
        <ele>104</ele>
        <time>2022-07-21T06:41:24.162Z</time>
      </trkpt>
      <trkpt lat="44.20726" lon="0.89185">
        <ele>105</ele>
        <time>2022-07-21T06:41:25.162Z</time>
      </trkpt>
      <trkpt lat="44.20725" lon="0.89184">
        <ele>105</ele>
        <time>2022-07-21T06:41:26.162Z</time>
      </trkpt>
      <trkpt lat="44.20723" lon="0.89183">
        <ele>106</ele>
        <time>2022-07-21T06:41:27.162Z</time>
      </trkpt>
      <trkpt lat="44.20722" lon="0.89182">
        <ele>106</ele>
        <time>2022-07-21T06:41:28.162Z</time>
      </trkpt>
      <trkpt lat="44.20722" lon="0.89181">
        <ele>106</ele>
        <time>2022-07-21T06:41:29.162Z</time>
      </trkpt>
      <trkpt lat="44.20721" lon="0.89179">
        <ele>106</ele>
        <time>2022-07-21T06:41:30.162Z</time>
      </trkpt>
      <trkpt lat="44.2072" lon="0.89177">
        <ele>106</ele>
        <time>2022-07-21T06:41:31.162Z</time>
      </trkpt>
      <trkpt lat="44.2072" lon="0.89176">
        <ele>106</ele>
        <time>2022-07-21T06:41:32.162Z</time>
      </trkpt>
      <trkpt lat="44.20719" lon="0.89174">
        <ele>106</ele>
        <time>2022-07-21T06:41:33.162Z</time>
      </trkpt>
      <trkpt lat="44.20719" lon="0.89172">
        <ele>106</ele>
        <time>2022-07-21T06:41:34.162Z</time>
      </trkpt>
      <trkpt lat="44.20718" lon="0.89171">
        <ele>105</ele>
        <time>2022-07-21T06:41:35.162Z</time>
      </trkpt>
      <trkpt lat="44.20718" lon="0.89169">
        <ele>106</ele>
        <time>2022-07-21T06:41:36.162Z</time>
      </trkpt>
      <trkpt lat="44.20718" lon="0.89168">
        <ele>105</ele>
        <time>2022-07-21T06:41:37.162Z</time>
      </trkpt>
      <trkpt lat="44.20717" lon="0.89167">
        <ele>105</ele>
        <time>2022-07-21T06:41:38.162Z</time>
      </trkpt>
      <trkpt lat="44.20717" lon="0.89165">
        <ele>105</ele>
        <time>2022-07-21T06:41:39.162Z</time>
      </trkpt>
      <trkpt lat="44.20717" lon="0.89164">
        <ele>105</ele>
        <time>2022-07-21T06:41:40.162Z</time>
      </trkpt>
      <trkpt lat="44.20716" lon="0.89163">
        <ele>106</ele>
        <time>2022-07-21T06:41:41.162Z</time>
      </trkpt>
      <trkpt lat="44.20715" lon="0.89162">
        <ele>107</ele>
        <time>2022-07-21T06:41:42.162Z</time>
      </trkpt>
      <trkpt lat="44.20715" lon="0.89162">
        <ele>107</ele>
        <time>2022-07-21T06:41:43.162Z</time>
      </trkpt>
      <trkpt lat="44.20714" lon="0.89161">
        <ele>107</ele>
        <time>2022-07-21T06:41:44.162Z</time>
      </trkpt>
      <trkpt lat="44.20712" lon="0.89159">
        <ele>107</ele>
        <time>2022-07-21T06:41:45.162Z</time>
      </trkpt>
      <trkpt lat="44.20711" lon="0.89158">
        <ele>107</ele>
        <time>2022-07-21T06:41:46.162Z</time>
      </trkpt>
      <trkpt lat="44.2071" lon="0.89156">
        <ele>108</ele>
        <time>2022-07-21T06:41:47.162Z</time>
      </trkpt>
      <trkpt lat="44.20709" lon="0.89156">
        <ele>108</ele>
        <time>2022-07-21T06:41:48.162Z</time>
      </trkpt>
      <trkpt lat="44.20708" lon="0.89155">
        <ele>109</ele>
        <time>2022-07-21T06:41:49.162Z</time>
      </trkpt>
      <trkpt lat="44.20706" lon="0.89154">
        <ele>109</ele>
        <time>2022-07-21T06:41:50.162Z</time>
      </trkpt>
      <trkpt lat="44.20706" lon="0.89152">
        <ele>110</ele>
        <time>2022-07-21T06:41:51.162Z</time>
      </trkpt>
      <trkpt lat="44.20706" lon="0.8915">
        <ele>110</ele>
        <time>2022-07-21T06:41:52.162Z</time>
      </trkpt>
      <trkpt lat="44.20705" lon="0.89148">
        <ele>111</ele>
        <time>2022-07-21T06:41:53.162Z</time>
      </trkpt>
      <trkpt lat="44.20705" lon="0.89148">
        <ele>109</ele>
        <time>2022-07-21T06:41:54.162Z</time>
      </trkpt>
      <trkpt lat="44.20705" lon="0.89147">
        <ele>108</ele>
        <time>2022-07-21T06:41:55.162Z</time>
      </trkpt>
      <trkpt lat="44.20705" lon="0.89147">
        <ele>107</ele>
        <time>2022-07-21T06:41:56.162Z</time>
      </trkpt>
      <trkpt lat="44.20705" lon="0.89147">
        <ele>107</ele>
        <time>2022-07-21T06:41:57.162Z</time>
      </trkpt>
      <trkpt lat="44.20705" lon="0.89147">
        <ele>106</ele>
        <time>2022-07-21T06:41:58.162Z</time>
      </trkpt>
      <trkpt lat="44.20705" lon="0.89147">
        <ele>106</ele>
        <time>2022-07-21T06:41:59.162Z</time>
      </trkpt>
      <trkpt lat="44.20705" lon="0.89147">
        <ele>106</ele>
        <time>2022-07-21T06:42:00.162Z</time>
      </trkpt>
      <trkpt lat="44.20706" lon="0.89147">
        <ele>105</ele>
        <time>2022-07-21T06:42:01.162Z</time>
      </trkpt>
      <trkpt lat="44.20706" lon="0.89147">
        <ele>104</ele>
        <time>2022-07-21T06:42:02.162Z</time>
      </trkpt>
      <trkpt lat="44.20706" lon="0.89147">
        <ele>104</ele>
        <time>2022-07-21T06:42:03.162Z</time>
      </trkpt>
      <trkpt lat="44.20707" lon="0.8914">
        <ele>107</ele>
        <time>2022-07-21T06:42:21.190Z</time>
      </trkpt>
      <trkpt lat="44.20707" lon="0.89139">
        <ele>108</ele>
        <time>2022-07-21T06:42:22.190Z</time>
      </trkpt>
      <trkpt lat="44.20707" lon="0.89137">
        <ele>108</ele>
        <time>2022-07-21T06:42:23.190Z</time>
      </trkpt>
      <trkpt lat="44.20708" lon="0.89136">
        <ele>108</ele>
        <time>2022-07-21T06:42:24.190Z</time>
      </trkpt>
      <trkpt lat="44.20709" lon="0.89136">
        <ele>108</ele>
        <time>2022-07-21T06:42:25.190Z</time>
      </trkpt>
      <trkpt lat="44.2071" lon="0.89136">
        <ele>108</ele>
        <time>2022-07-21T06:42:26.190Z</time>
      </trkpt>
      <trkpt lat="44.20711" lon="0.89136">
        <ele>108</ele>
        <time>2022-07-21T06:42:27.190Z</time>
      </trkpt>
      <trkpt lat="44.20712" lon="0.89136">
        <ele>108</ele>
        <time>2022-07-21T06:42:28.190Z</time>
      </trkpt>
      <trkpt lat="44.20713" lon="0.89136">
        <ele>108</ele>
        <time>2022-07-21T06:42:29.190Z</time>
      </trkpt>
      <trkpt lat="44.20714" lon="0.89136">
        <ele>108</ele>
        <time>2022-07-21T06:42:30.190Z</time>
      </trkpt>
      <trkpt lat="44.20715" lon="0.89136">
        <ele>109</ele>
        <time>2022-07-21T06:42:31.190Z</time>
      </trkpt>
      <trkpt lat="44.20716" lon="0.89136">
        <ele>109</ele>
        <time>2022-07-21T06:42:32.190Z</time>
      </trkpt>
      <trkpt lat="44.20717" lon="0.89135">
        <ele>109</ele>
        <time>2022-07-21T06:42:33.190Z</time>
      </trkpt>
      <trkpt lat="44.20718" lon="0.89134">
        <ele>109</ele>
        <time>2022-07-21T06:42:34.190Z</time>
      </trkpt>
      <trkpt lat="44.20719" lon="0.89134">
        <ele>109</ele>
        <time>2022-07-21T06:42:35.190Z</time>
      </trkpt>
      <trkpt lat="44.20719" lon="0.89133">
        <ele>109</ele>
        <time>2022-07-21T06:42:36.190Z</time>
      </trkpt>
      <trkpt lat="44.20719" lon="0.89133">
        <ele>109</ele>
        <time>2022-07-21T06:42:37.190Z</time>
      </trkpt>
      <trkpt lat="44.20719" lon="0.89132">
        <ele>109</ele>
        <time>2022-07-21T06:42:38.190Z</time>
      </trkpt>
      <trkpt lat="44.20719" lon="0.89131">
        <ele>109</ele>
        <time>2022-07-21T06:42:39.190Z</time>
      </trkpt>
      <trkpt lat="44.20719" lon="0.8913">
        <ele>108</ele>
        <time>2022-07-21T06:42:40.190Z</time>
      </trkpt>
      <trkpt lat="44.20718" lon="0.89129">
        <ele>109</ele>
        <time>2022-07-21T06:42:41.190Z</time>
      </trkpt>
      <trkpt lat="44.20718" lon="0.89128">
        <ele>109</ele>
        <time>2022-07-21T06:42:42.190Z</time>
      </trkpt>
      <trkpt lat="44.20717" lon="0.89127">
        <ele>110</ele>
        <time>2022-07-21T06:42:43.190Z</time>
      </trkpt>
      <trkpt lat="44.20715" lon="0.89126">
        <ele>110</ele>
        <time>2022-07-21T06:42:44.190Z</time>
      </trkpt>
      <trkpt lat="44.20714" lon="0.89125">
        <ele>110</ele>
        <time>2022-07-21T06:42:45.190Z</time>
      </trkpt>
      <trkpt lat="44.20712" lon="0.89124">
        <ele>110</ele>
        <time>2022-07-21T06:42:46.190Z</time>
      </trkpt>
      <trkpt lat="44.20711" lon="0.89124">
        <ele>110</ele>
        <time>2022-07-21T06:42:47.190Z</time>
      </trkpt>
      <trkpt lat="44.2071" lon="0.89124">
        <ele>110</ele>
        <time>2022-07-21T06:42:48.190Z</time>
      </trkpt>
      <trkpt lat="44.20708" lon="0.89124">
        <ele>110</ele>
        <time>2022-07-21T06:42:49.190Z</time>
      </trkpt>
      <trkpt lat="44.20707" lon="0.89124">
        <ele>111</ele>
        <time>2022-07-21T06:42:50.190Z</time>
      </trkpt>
      <trkpt lat="44.20706" lon="0.89124">
        <ele>111</ele>
        <time>2022-07-21T06:42:51.190Z</time>
      </trkpt>
      <trkpt lat="44.20705" lon="0.89123">
        <ele>112</ele>
        <time>2022-07-21T06:42:52.190Z</time>
      </trkpt>
      <trkpt lat="44.20704" lon="0.89123">
        <ele>112</ele>
        <time>2022-07-21T06:42:53.190Z</time>
      </trkpt>
      <trkpt lat="44.20703" lon="0.89122">
        <ele>113</ele>
        <time>2022-07-21T06:42:54.190Z</time>
      </trkpt>
      <trkpt lat="44.20703" lon="0.89122">
        <ele>113</ele>
        <time>2022-07-21T06:42:55.190Z</time>
      </trkpt>
      <trkpt lat="44.20702" lon="0.89121">
        <ele>112</ele>
        <time>2022-07-21T06:42:56.190Z</time>
      </trkpt>
      <trkpt lat="44.20701" lon="0.8912">
        <ele>112</ele>
        <time>2022-07-21T06:42:57.190Z</time>
      </trkpt>
      <trkpt lat="44.20701" lon="0.89119">
        <ele>112</ele>
        <time>2022-07-21T06:42:58.190Z</time>
      </trkpt>
      <trkpt lat="44.207" lon="0.89119">
        <ele>113</ele>
        <time>2022-07-21T06:42:59.190Z</time>
      </trkpt>
      <trkpt lat="44.20699" lon="0.89118">
        <ele>113</ele>
        <time>2022-07-21T06:43:00.190Z</time>
      </trkpt>
      <trkpt lat="44.20698" lon="0.89118">
        <ele>113</ele>
        <time>2022-07-21T06:43:01.190Z</time>
      </trkpt>
      <trkpt lat="44.20697" lon="0.89117">
        <ele>111</ele>
        <time>2022-07-21T06:43:02.190Z</time>
      </trkpt>
      <trkpt lat="44.20695" lon="0.89117">
        <ele>111</ele>
        <time>2022-07-21T06:43:03.190Z</time>
      </trkpt>
      <trkpt lat="44.20694" lon="0.89117">
        <ele>111</ele>
        <time>2022-07-21T06:43:04.190Z</time>
      </trkpt>
      <trkpt lat="44.20693" lon="0.89116">
        <ele>111</ele>
        <time>2022-07-21T06:43:05.190Z</time>
      </trkpt>
      <trkpt lat="44.20692" lon="0.89116">
        <ele>110</ele>
        <time>2022-07-21T06:43:06.190Z</time>
      </trkpt>
      <trkpt lat="44.20692" lon="0.89115">
        <ele>111</ele>
        <time>2022-07-21T06:43:07.190Z</time>
      </trkpt>
      <trkpt lat="44.20691" lon="0.89115">
        <ele>111</ele>
        <time>2022-07-21T06:43:08.190Z</time>
      </trkpt>
      <trkpt lat="44.2069" lon="0.89114">
        <ele>111</ele>
        <time>2022-07-21T06:43:09.190Z</time>
      </trkpt>
      <trkpt lat="44.20689" lon="0.89114">
        <ele>111</ele>
        <time>2022-07-21T06:43:10.190Z</time>
      </trkpt>
      <trkpt lat="44.20688" lon="0.89113">
        <ele>110</ele>
        <time>2022-07-21T06:43:11.190Z</time>
      </trkpt>
      <trkpt lat="44.20688" lon="0.89112">
        <ele>111</ele>
        <time>2022-07-21T06:43:12.190Z</time>
      </trkpt>
      <trkpt lat="44.20687" lon="0.89111">
        <ele>110</ele>
        <time>2022-07-21T06:43:13.190Z</time>
      </trkpt>
      <trkpt lat="44.20686" lon="0.8911">
        <ele>110</ele>
        <time>2022-07-21T06:43:14.190Z</time>
      </trkpt>
      <trkpt lat="44.20685" lon="0.8911">
        <ele>110</ele>
        <time>2022-07-21T06:43:15.190Z</time>
      </trkpt>
      <trkpt lat="44.20684" lon="0.89109">
        <ele>110</ele>
        <time>2022-07-21T06:43:16.190Z</time>
      </trkpt>
      <trkpt lat="44.20683" lon="0.89108">
        <ele>110</ele>
        <time>2022-07-21T06:43:17.190Z</time>
      </trkpt>
      <trkpt lat="44.20682" lon="0.89108">
        <ele>110</ele>
        <time>2022-07-21T06:43:18.190Z</time>
      </trkpt>
      <trkpt lat="44.20681" lon="0.89107">
        <ele>110</ele>
        <time>2022-07-21T06:43:19.190Z</time>
      </trkpt>
      <trkpt lat="44.2068" lon="0.89106">
        <ele>111</ele>
        <time>2022-07-21T06:43:20.190Z</time>
      </trkpt>
      <trkpt lat="44.20679" lon="0.89106">
        <ele>110</ele>
        <time>2022-07-21T06:43:21.190Z</time>
      </trkpt>
      <trkpt lat="44.20678" lon="0.89105">
        <ele>110</ele>
        <time>2022-07-21T06:43:22.190Z</time>
      </trkpt>
      <trkpt lat="44.20677" lon="0.89104">
        <ele>110</ele>
        <time>2022-07-21T06:43:23.190Z</time>
      </trkpt>
      <trkpt lat="44.20676" lon="0.89104">
        <ele>110</ele>
        <time>2022-07-21T06:43:24.190Z</time>
      </trkpt>
      <trkpt lat="44.20675" lon="0.89103">
        <ele>111</ele>
        <time>2022-07-21T06:43:25.190Z</time>
      </trkpt>
      <trkpt lat="44.20674" lon="0.89102">
        <ele>111</ele>
        <time>2022-07-21T06:43:26.190Z</time>
      </trkpt>
      <trkpt lat="44.20672" lon="0.89101">
        <ele>111</ele>
        <time>2022-07-21T06:43:27.190Z</time>
      </trkpt>
      <trkpt lat="44.20672" lon="0.891">
        <ele>111</ele>
        <time>2022-07-21T06:43:28.190Z</time>
      </trkpt>
      <trkpt lat="44.20671" lon="0.891">
        <ele>111</ele>
        <time>2022-07-21T06:43:29.190Z</time>
      </trkpt>
      <trkpt lat="44.2067" lon="0.89099">
        <ele>111</ele>
        <time>2022-07-21T06:43:30.190Z</time>
      </trkpt>
      <trkpt lat="44.20669" lon="0.89098">
        <ele>111</ele>
        <time>2022-07-21T06:43:31.190Z</time>
      </trkpt>
      <trkpt lat="44.20668" lon="0.89098">
        <ele>111</ele>
        <time>2022-07-21T06:43:32.190Z</time>
      </trkpt>
      <trkpt lat="44.20667" lon="0.89097">
        <ele>110</ele>
        <time>2022-07-21T06:43:33.190Z</time>
      </trkpt>
      <trkpt lat="44.20666" lon="0.89096">
        <ele>111</ele>
        <time>2022-07-21T06:43:34.190Z</time>
      </trkpt>
      <trkpt lat="44.20665" lon="0.89096">
        <ele>111</ele>
        <time>2022-07-21T06:43:35.190Z</time>
      </trkpt>
      <trkpt lat="44.20663" lon="0.89095">
        <ele>111</ele>
        <time>2022-07-21T06:43:36.190Z</time>
      </trkpt>
      <trkpt lat="44.20662" lon="0.89095">
        <ele>111</ele>
        <time>2022-07-21T06:43:37.190Z</time>
      </trkpt>
      <trkpt lat="44.20661" lon="0.89094">
        <ele>111</ele>
        <time>2022-07-21T06:43:38.190Z</time>
      </trkpt>
      <trkpt lat="44.2066" lon="0.89093">
        <ele>111</ele>
        <time>2022-07-21T06:43:39.190Z</time>
      </trkpt>
      <trkpt lat="44.20659" lon="0.89092">
        <ele>112</ele>
        <time>2022-07-21T06:43:40.190Z</time>
      </trkpt>
      <trkpt lat="44.20658" lon="0.89091">
        <ele>111</ele>
        <time>2022-07-21T06:43:41.190Z</time>
      </trkpt>
      <trkpt lat="44.20657" lon="0.8909">
        <ele>111</ele>
        <time>2022-07-21T06:43:42.190Z</time>
      </trkpt>
      <trkpt lat="44.20656" lon="0.89089">
        <ele>111</ele>
        <time>2022-07-21T06:43:43.190Z</time>
      </trkpt>
      <trkpt lat="44.20655" lon="0.89089">
        <ele>111</ele>
        <time>2022-07-21T06:43:44.190Z</time>
      </trkpt>
      <trkpt lat="44.20654" lon="0.89088">
        <ele>111</ele>
        <time>2022-07-21T06:43:45.190Z</time>
      </trkpt>
      <trkpt lat="44.20653" lon="0.89087">
        <ele>111</ele>
        <time>2022-07-21T06:43:46.190Z</time>
      </trkpt>
      <trkpt lat="44.20653" lon="0.89087">
        <ele>111</ele>
        <time>2022-07-21T06:43:47.190Z</time>
      </trkpt>
      <trkpt lat="44.20652" lon="0.89087">
        <ele>111</ele>
        <time>2022-07-21T06:43:48.190Z</time>
      </trkpt>
      <trkpt lat="44.20651" lon="0.89086">
        <ele>111</ele>
        <time>2022-07-21T06:43:49.190Z</time>
      </trkpt>
      <trkpt lat="44.2065" lon="0.89086">
        <ele>112</ele>
        <time>2022-07-21T06:43:50.190Z</time>
      </trkpt>
      <trkpt lat="44.20649" lon="0.89086">
        <ele>112</ele>
        <time>2022-07-21T06:43:51.190Z</time>
      </trkpt>
      <trkpt lat="44.20648" lon="0.89085">
        <ele>111</ele>
        <time>2022-07-21T06:43:52.190Z</time>
      </trkpt>
      <trkpt lat="44.20648" lon="0.89085">
        <ele>111</ele>
        <time>2022-07-21T06:43:53.190Z</time>
      </trkpt>
      <trkpt lat="44.20647" lon="0.89084">
        <ele>111</ele>
        <time>2022-07-21T06:43:54.190Z</time>
      </trkpt>
      <trkpt lat="44.20646" lon="0.89084">
        <ele>111</ele>
        <time>2022-07-21T06:43:55.190Z</time>
      </trkpt>
      <trkpt lat="44.20646" lon="0.89083">
        <ele>112</ele>
        <time>2022-07-21T06:43:56.190Z</time>
      </trkpt>
      <trkpt lat="44.20645" lon="0.89082">
        <ele>112</ele>
        <time>2022-07-21T06:43:57.190Z</time>
      </trkpt>
      <trkpt lat="44.20644" lon="0.89081">
        <ele>112</ele>
        <time>2022-07-21T06:43:58.190Z</time>
      </trkpt>
      <trkpt lat="44.20643" lon="0.89081">
        <ele>112</ele>
        <time>2022-07-21T06:43:59.190Z</time>
      </trkpt>
      <trkpt lat="44.20642" lon="0.8908">
        <ele>113</ele>
        <time>2022-07-21T06:44:00.190Z</time>
      </trkpt>
      <trkpt lat="44.20641" lon="0.89079">
        <ele>113</ele>
        <time>2022-07-21T06:44:01.190Z</time>
      </trkpt>
      <trkpt lat="44.2064" lon="0.89079">
        <ele>113</ele>
        <time>2022-07-21T06:44:02.190Z</time>
      </trkpt>
      <trkpt lat="44.20639" lon="0.89078">
        <ele>113</ele>
        <time>2022-07-21T06:44:03.190Z</time>
      </trkpt>
      <trkpt lat="44.20638" lon="0.89077">
        <ele>113</ele>
        <time>2022-07-21T06:44:04.190Z</time>
      </trkpt>
      <trkpt lat="44.20637" lon="0.89077">
        <ele>114</ele>
        <time>2022-07-21T06:44:05.190Z</time>
      </trkpt>
      <trkpt lat="44.20636" lon="0.89076">
        <ele>114</ele>
        <time>2022-07-21T06:44:06.190Z</time>
      </trkpt>
      <trkpt lat="44.20635" lon="0.89075">
        <ele>114</ele>
        <time>2022-07-21T06:44:07.190Z</time>
      </trkpt>
      <trkpt lat="44.20634" lon="0.89074">
        <ele>114</ele>
        <time>2022-07-21T06:44:08.190Z</time>
      </trkpt>
      <trkpt lat="44.20633" lon="0.89073">
        <ele>114</ele>
        <time>2022-07-21T06:44:09.190Z</time>
      </trkpt>
      <trkpt lat="44.20632" lon="0.89072">
        <ele>114</ele>
        <time>2022-07-21T06:44:10.190Z</time>
      </trkpt>
      <trkpt lat="44.20631" lon="0.89071">
        <ele>114</ele>
        <time>2022-07-21T06:44:11.190Z</time>
      </trkpt>
      <trkpt lat="44.20631" lon="0.8907">
        <ele>114</ele>
        <time>2022-07-21T06:44:12.190Z</time>
      </trkpt>
      <trkpt lat="44.2063" lon="0.89069">
        <ele>114</ele>
        <time>2022-07-21T06:44:13.190Z</time>
      </trkpt>
      <trkpt lat="44.20629" lon="0.89068">
        <ele>114</ele>
        <time>2022-07-21T06:44:14.190Z</time>
      </trkpt>
      <trkpt lat="44.20629" lon="0.89067">
        <ele>114</ele>
        <time>2022-07-21T06:44:15.190Z</time>
      </trkpt>
      <trkpt lat="44.20628" lon="0.89065">
        <ele>113</ele>
        <time>2022-07-21T06:44:16.190Z</time>
      </trkpt>
      <trkpt lat="44.20627" lon="0.89064">
        <ele>113</ele>
        <time>2022-07-21T06:44:17.190Z</time>
      </trkpt>
      <trkpt lat="44.20627" lon="0.89063">
        <ele>113</ele>
        <time>2022-07-21T06:44:18.190Z</time>
      </trkpt>
      <trkpt lat="44.20626" lon="0.89061">
        <ele>113</ele>
        <time>2022-07-21T06:44:19.190Z</time>
      </trkpt>
      <trkpt lat="44.20626" lon="0.8906">
        <ele>113</ele>
        <time>2022-07-21T06:44:20.190Z</time>
      </trkpt>
      <trkpt lat="44.20625" lon="0.89059">
        <ele>112</ele>
        <time>2022-07-21T06:44:21.190Z</time>
      </trkpt>
      <trkpt lat="44.20625" lon="0.89057">
        <ele>112</ele>
        <time>2022-07-21T06:44:22.190Z</time>
      </trkpt>
      <trkpt lat="44.20624" lon="0.89056">
        <ele>112</ele>
        <time>2022-07-21T06:44:23.190Z</time>
      </trkpt>
      <trkpt lat="44.20623" lon="0.89055">
        <ele>113</ele>
        <time>2022-07-21T06:44:24.190Z</time>
      </trkpt>
      <trkpt lat="44.20622" lon="0.89054">
        <ele>113</ele>
        <time>2022-07-21T06:44:25.190Z</time>
      </trkpt>
      <trkpt lat="44.20621" lon="0.89052">
        <ele>114</ele>
        <time>2022-07-21T06:44:26.190Z</time>
      </trkpt>
      <trkpt lat="44.2062" lon="0.8905">
        <ele>114</ele>
        <time>2022-07-21T06:44:27.190Z</time>
      </trkpt>
      <trkpt lat="44.20619" lon="0.89049">
        <ele>114</ele>
        <time>2022-07-21T06:44:28.190Z</time>
      </trkpt>
      <trkpt lat="44.20618" lon="0.89047">
        <ele>114</ele>
        <time>2022-07-21T06:44:29.190Z</time>
      </trkpt>
      <trkpt lat="44.20618" lon="0.89046">
        <ele>114</ele>
        <time>2022-07-21T06:44:30.190Z</time>
      </trkpt>
      <trkpt lat="44.20617" lon="0.89044">
        <ele>115</ele>
        <time>2022-07-21T06:44:31.190Z</time>
      </trkpt>
      <trkpt lat="44.20616" lon="0.89043">
        <ele>115</ele>
        <time>2022-07-21T06:44:32.190Z</time>
      </trkpt>
      <trkpt lat="44.20616" lon="0.89041">
        <ele>116</ele>
        <time>2022-07-21T06:44:33.190Z</time>
      </trkpt>
      <trkpt lat="44.20615" lon="0.8904">
        <ele>116</ele>
        <time>2022-07-21T06:44:34.190Z</time>
      </trkpt>
      <trkpt lat="44.20615" lon="0.89038">
        <ele>116</ele>
        <time>2022-07-21T06:44:35.190Z</time>
      </trkpt>
      <trkpt lat="44.20614" lon="0.89037">
        <ele>116</ele>
        <time>2022-07-21T06:44:36.190Z</time>
      </trkpt>
      <trkpt lat="44.20613" lon="0.89036">
        <ele>115</ele>
        <time>2022-07-21T06:44:37.190Z</time>
      </trkpt>
      <trkpt lat="44.20613" lon="0.89034">
        <ele>116</ele>
        <time>2022-07-21T06:44:38.190Z</time>
      </trkpt>
      <trkpt lat="44.20612" lon="0.89032">
        <ele>116</ele>
        <time>2022-07-21T06:44:39.190Z</time>
      </trkpt>
      <trkpt lat="44.20612" lon="0.8903">
        <ele>116</ele>
        <time>2022-07-21T06:44:40.190Z</time>
      </trkpt>
      <trkpt lat="44.20611" lon="0.89029">
        <ele>116</ele>
        <time>2022-07-21T06:44:41.190Z</time>
      </trkpt>
      <trkpt lat="44.2061" lon="0.89027">
        <ele>116</ele>
        <time>2022-07-21T06:44:42.190Z</time>
      </trkpt>
      <trkpt lat="44.2061" lon="0.89026">
        <ele>116</ele>
        <time>2022-07-21T06:44:43.190Z</time>
      </trkpt>
      <trkpt lat="44.20609" lon="0.89025">
        <ele>116</ele>
        <time>2022-07-21T06:44:44.190Z</time>
      </trkpt>
      <trkpt lat="44.20609" lon="0.89024">
        <ele>116</ele>
        <time>2022-07-21T06:44:45.190Z</time>
      </trkpt>
      <trkpt lat="44.20608" lon="0.89022">
        <ele>116</ele>
        <time>2022-07-21T06:44:46.190Z</time>
      </trkpt>
      <trkpt lat="44.20608" lon="0.89021">
        <ele>116</ele>
        <time>2022-07-21T06:44:47.190Z</time>
      </trkpt>
      <trkpt lat="44.20607" lon="0.8902">
        <ele>116</ele>
        <time>2022-07-21T06:44:48.190Z</time>
      </trkpt>
      <trkpt lat="44.20607" lon="0.89018">
        <ele>115</ele>
        <time>2022-07-21T06:44:49.190Z</time>
      </trkpt>
      <trkpt lat="44.20606" lon="0.89017">
        <ele>116</ele>
        <time>2022-07-21T06:44:50.190Z</time>
      </trkpt>
      <trkpt lat="44.20605" lon="0.89015">
        <ele>116</ele>
        <time>2022-07-21T06:44:51.190Z</time>
      </trkpt>
      <trkpt lat="44.20605" lon="0.89013">
        <ele>116</ele>
        <time>2022-07-21T06:44:52.190Z</time>
      </trkpt>
      <trkpt lat="44.20604" lon="0.89012">
        <ele>116</ele>
        <time>2022-07-21T06:44:53.190Z</time>
      </trkpt>
      <trkpt lat="44.20603" lon="0.8901">
        <ele>116</ele>
        <time>2022-07-21T06:44:54.190Z</time>
      </trkpt>
      <trkpt lat="44.20603" lon="0.89008">
        <ele>115</ele>
        <time>2022-07-21T06:44:55.190Z</time>
      </trkpt>
      <trkpt lat="44.20602" lon="0.89007">
        <ele>115</ele>
        <time>2022-07-21T06:44:56.190Z</time>
      </trkpt>
      <trkpt lat="44.20602" lon="0.89006">
        <ele>115</ele>
        <time>2022-07-21T06:44:57.190Z</time>
      </trkpt>
      <trkpt lat="44.20601" lon="0.89005">
        <ele>115</ele>
        <time>2022-07-21T06:44:58.190Z</time>
      </trkpt>
      <trkpt lat="44.20601" lon="0.89003">
        <ele>115</ele>
        <time>2022-07-21T06:44:59.190Z</time>
      </trkpt>
      <trkpt lat="44.20601" lon="0.89002">
        <ele>116</ele>
        <time>2022-07-21T06:45:00.190Z</time>
      </trkpt>
      <trkpt lat="44.206" lon="0.89">
        <ele>115</ele>
        <time>2022-07-21T06:45:01.190Z</time>
      </trkpt>
      <trkpt lat="44.206" lon="0.88999">
        <ele>115</ele>
        <time>2022-07-21T06:45:02.190Z</time>
      </trkpt>
      <trkpt lat="44.20599" lon="0.88998">
        <ele>115</ele>
        <time>2022-07-21T06:45:03.190Z</time>
      </trkpt>
      <trkpt lat="44.20599" lon="0.88997">
        <ele>115</ele>
        <time>2022-07-21T06:45:04.190Z</time>
      </trkpt>
      <trkpt lat="44.20599" lon="0.88995">
        <ele>115</ele>
        <time>2022-07-21T06:45:05.190Z</time>
      </trkpt>
      <trkpt lat="44.20598" lon="0.88994">
        <ele>115</ele>
        <time>2022-07-21T06:45:06.190Z</time>
      </trkpt>
      <trkpt lat="44.20598" lon="0.88993">
        <ele>115</ele>
        <time>2022-07-21T06:45:07.190Z</time>
      </trkpt>
      <trkpt lat="44.20597" lon="0.88991">
        <ele>115</ele>
        <time>2022-07-21T06:45:08.190Z</time>
      </trkpt>
      <trkpt lat="44.20597" lon="0.8899">
        <ele>115</ele>
        <time>2022-07-21T06:45:09.190Z</time>
      </trkpt>
      <trkpt lat="44.20596" lon="0.88989">
        <ele>115</ele>
        <time>2022-07-21T06:45:10.190Z</time>
      </trkpt>
      <trkpt lat="44.20596" lon="0.88987">
        <ele>115</ele>
        <time>2022-07-21T06:45:11.190Z</time>
      </trkpt>
      <trkpt lat="44.20596" lon="0.88986">
        <ele>115</ele>
        <time>2022-07-21T06:45:12.190Z</time>
      </trkpt>
      <trkpt lat="44.20595" lon="0.88985">
        <ele>114</ele>
        <time>2022-07-21T06:45:13.190Z</time>
      </trkpt>
      <trkpt lat="44.20595" lon="0.88984">
        <ele>115</ele>
        <time>2022-07-21T06:45:14.190Z</time>
      </trkpt>
      <trkpt lat="44.20594" lon="0.88983">
        <ele>115</ele>
        <time>2022-07-21T06:45:15.190Z</time>
      </trkpt>
      <trkpt lat="44.20594" lon="0.88981">
        <ele>116</ele>
        <time>2022-07-21T06:45:16.190Z</time>
      </trkpt>
      <trkpt lat="44.20593" lon="0.8898">
        <ele>115</ele>
        <time>2022-07-21T06:45:17.190Z</time>
      </trkpt>
      <trkpt lat="44.20593" lon="0.88978">
        <ele>115</ele>
        <time>2022-07-21T06:45:18.190Z</time>
      </trkpt>
      <trkpt lat="44.20592" lon="0.88976">
        <ele>115</ele>
        <time>2022-07-21T06:45:19.190Z</time>
      </trkpt>
      <trkpt lat="44.20592" lon="0.88975">
        <ele>115</ele>
        <time>2022-07-21T06:45:20.190Z</time>
      </trkpt>
      <trkpt lat="44.20591" lon="0.88973">
        <ele>115</ele>
        <time>2022-07-21T06:45:21.190Z</time>
      </trkpt>
      <trkpt lat="44.20591" lon="0.88972">
        <ele>115</ele>
        <time>2022-07-21T06:45:22.190Z</time>
      </trkpt>
      <trkpt lat="44.20591" lon="0.8897">
        <ele>116</ele>
        <time>2022-07-21T06:45:23.190Z</time>
      </trkpt>
      <trkpt lat="44.2059" lon="0.88968">
        <ele>117</ele>
        <time>2022-07-21T06:45:24.190Z</time>
      </trkpt>
      <trkpt lat="44.2059" lon="0.88966">
        <ele>117</ele>
        <time>2022-07-21T06:45:25.190Z</time>
      </trkpt>
      <trkpt lat="44.20589" lon="0.88964">
        <ele>117</ele>
        <time>2022-07-21T06:45:26.190Z</time>
      </trkpt>
      <trkpt lat="44.20589" lon="0.88962">
        <ele>117</ele>
        <time>2022-07-21T06:45:27.190Z</time>
      </trkpt>
      <trkpt lat="44.20589" lon="0.8896">
        <ele>117</ele>
        <time>2022-07-21T06:45:28.190Z</time>
      </trkpt>
      <trkpt lat="44.20589" lon="0.88959">
        <ele>117</ele>
        <time>2022-07-21T06:45:29.190Z</time>
      </trkpt>
      <trkpt lat="44.20588" lon="0.88957">
        <ele>117</ele>
        <time>2022-07-21T06:45:30.190Z</time>
      </trkpt>
      <trkpt lat="44.20588" lon="0.88955">
        <ele>117</ele>
        <time>2022-07-21T06:45:31.190Z</time>
      </trkpt>
      <trkpt lat="44.20587" lon="0.88954">
        <ele>117</ele>
        <time>2022-07-21T06:45:32.190Z</time>
      </trkpt>
      <trkpt lat="44.20587" lon="0.88952">
        <ele>117</ele>
        <time>2022-07-21T06:45:33.190Z</time>
      </trkpt>
      <trkpt lat="44.20587" lon="0.88951">
        <ele>117</ele>
        <time>2022-07-21T06:45:34.190Z</time>
      </trkpt>
      <trkpt lat="44.20587" lon="0.88949">
        <ele>117</ele>
        <time>2022-07-21T06:45:35.190Z</time>
      </trkpt>
      <trkpt lat="44.20586" lon="0.88948">
        <ele>118</ele>
        <time>2022-07-21T06:45:36.190Z</time>
      </trkpt>
      <trkpt lat="44.20586" lon="0.88946">
        <ele>118</ele>
        <time>2022-07-21T06:45:37.190Z</time>
      </trkpt>
      <trkpt lat="44.20586" lon="0.88945">
        <ele>118</ele>
        <time>2022-07-21T06:45:38.190Z</time>
      </trkpt>
      <trkpt lat="44.20585" lon="0.88943">
        <ele>118</ele>
        <time>2022-07-21T06:45:39.190Z</time>
      </trkpt>
      <trkpt lat="44.20585" lon="0.88942">
        <ele>118</ele>
        <time>2022-07-21T06:45:40.190Z</time>
      </trkpt>
      <trkpt lat="44.20584" lon="0.8894">
        <ele>118</ele>
        <time>2022-07-21T06:45:41.190Z</time>
      </trkpt>
      <trkpt lat="44.20584" lon="0.88939">
        <ele>119</ele>
        <time>2022-07-21T06:45:42.190Z</time>
      </trkpt>
      <trkpt lat="44.20584" lon="0.88937">
        <ele>119</ele>
        <time>2022-07-21T06:45:43.190Z</time>
      </trkpt>
      <trkpt lat="44.20584" lon="0.88936">
        <ele>119</ele>
        <time>2022-07-21T06:45:44.190Z</time>
      </trkpt>
      <trkpt lat="44.20583" lon="0.88934">
        <ele>119</ele>
        <time>2022-07-21T06:45:45.190Z</time>
      </trkpt>
      <trkpt lat="44.20583" lon="0.88933">
        <ele>119</ele>
        <time>2022-07-21T06:45:46.190Z</time>
      </trkpt>
      <trkpt lat="44.20583" lon="0.88931">
        <ele>119</ele>
        <time>2022-07-21T06:45:47.190Z</time>
      </trkpt>
      <trkpt lat="44.20582" lon="0.88929">
        <ele>119</ele>
        <time>2022-07-21T06:45:48.190Z</time>
      </trkpt>
      <trkpt lat="44.20582" lon="0.88927">
        <ele>119</ele>
        <time>2022-07-21T06:45:49.190Z</time>
      </trkpt>
      <trkpt lat="44.20582" lon="0.88926">
        <ele>119</ele>
        <time>2022-07-21T06:45:50.190Z</time>
      </trkpt>
      <trkpt lat="44.20581" lon="0.88924">
        <ele>119</ele>
        <time>2022-07-21T06:45:51.190Z</time>
      </trkpt>
      <trkpt lat="44.20581" lon="0.88923">
        <ele>118</ele>
        <time>2022-07-21T06:45:52.190Z</time>
      </trkpt>
      <trkpt lat="44.20581" lon="0.88922">
        <ele>118</ele>
        <time>2022-07-21T06:45:53.190Z</time>
      </trkpt>
      <trkpt lat="44.2058" lon="0.8892">
        <ele>119</ele>
        <time>2022-07-21T06:45:54.190Z</time>
      </trkpt>
      <trkpt lat="44.20579" lon="0.88919">
        <ele>118</ele>
        <time>2022-07-21T06:45:55.190Z</time>
      </trkpt>
      <trkpt lat="44.20578" lon="0.88917">
        <ele>118</ele>
        <time>2022-07-21T06:45:56.190Z</time>
      </trkpt>
      <trkpt lat="44.20577" lon="0.88916">
        <ele>116</ele>
        <time>2022-07-21T06:45:57.190Z</time>
      </trkpt>
      <trkpt lat="44.20577" lon="0.88915">
        <ele>116</ele>
        <time>2022-07-21T06:45:58.190Z</time>
      </trkpt>
      <trkpt lat="44.20576" lon="0.88915">
        <ele>116</ele>
        <time>2022-07-21T06:45:59.190Z</time>
      </trkpt>
      <trkpt lat="44.20576" lon="0.88914">
        <ele>116</ele>
        <time>2022-07-21T06:46:00.190Z</time>
      </trkpt>
      <trkpt lat="44.20575" lon="0.88914">
        <ele>116</ele>
        <time>2022-07-21T06:46:01.190Z</time>
      </trkpt>
      <trkpt lat="44.20574" lon="0.88914">
        <ele>117</ele>
        <time>2022-07-21T06:46:02.190Z</time>
      </trkpt>
      <trkpt lat="44.20573" lon="0.88914">
        <ele>118</ele>
        <time>2022-07-21T06:46:03.190Z</time>
      </trkpt>
      <trkpt lat="44.20572" lon="0.88915">
        <ele>118</ele>
        <time>2022-07-21T06:46:04.190Z</time>
      </trkpt>
      <trkpt lat="44.20572" lon="0.88915">
        <ele>118</ele>
        <time>2022-07-21T06:46:05.190Z</time>
      </trkpt>
      <trkpt lat="44.20571" lon="0.88915">
        <ele>118</ele>
        <time>2022-07-21T06:46:06.190Z</time>
      </trkpt>
      <trkpt lat="44.20569" lon="0.88914">
        <ele>117</ele>
        <time>2022-07-21T06:46:07.190Z</time>
      </trkpt>
      <trkpt lat="44.20568" lon="0.88914">
        <ele>118</ele>
        <time>2022-07-21T06:46:08.190Z</time>
      </trkpt>
      <trkpt lat="44.20567" lon="0.88914">
        <ele>118</ele>
        <time>2022-07-21T06:46:09.190Z</time>
      </trkpt>
      <trkpt lat="44.20567" lon="0.88913">
        <ele>118</ele>
        <time>2022-07-21T06:46:10.190Z</time>
      </trkpt>
      <trkpt lat="44.20566" lon="0.88913">
        <ele>117</ele>
        <time>2022-07-21T06:46:11.190Z</time>
      </trkpt>
      <trkpt lat="44.20564" lon="0.88913">
        <ele>118</ele>
        <time>2022-07-21T06:46:12.190Z</time>
      </trkpt>
      <trkpt lat="44.20563" lon="0.88912">
        <ele>118</ele>
        <time>2022-07-21T06:46:13.190Z</time>
      </trkpt>
      <trkpt lat="44.20562" lon="0.88912">
        <ele>118</ele>
        <time>2022-07-21T06:46:14.190Z</time>
      </trkpt>
      <trkpt lat="44.2056" lon="0.88912">
        <ele>118</ele>
        <time>2022-07-21T06:46:15.190Z</time>
      </trkpt>
      <trkpt lat="44.20559" lon="0.88911">
        <ele>118</ele>
        <time>2022-07-21T06:46:16.190Z</time>
      </trkpt>
      <trkpt lat="44.20558" lon="0.8891">
        <ele>117</ele>
        <time>2022-07-21T06:46:17.190Z</time>
      </trkpt>
      <trkpt lat="44.20557" lon="0.8891">
        <ele>117</ele>
        <time>2022-07-21T06:46:18.190Z</time>
      </trkpt>
      <trkpt lat="44.20556" lon="0.88909">
        <ele>117</ele>
        <time>2022-07-21T06:46:19.190Z</time>
      </trkpt>
      <trkpt lat="44.20555" lon="0.88908">
        <ele>118</ele>
        <time>2022-07-21T06:46:20.190Z</time>
      </trkpt>
      <trkpt lat="44.20554" lon="0.88908">
        <ele>118</ele>
        <time>2022-07-21T06:46:21.190Z</time>
      </trkpt>
      <trkpt lat="44.20553" lon="0.88907">
        <ele>118</ele>
        <time>2022-07-21T06:46:22.190Z</time>
      </trkpt>
      <trkpt lat="44.20552" lon="0.88907">
        <ele>117</ele>
        <time>2022-07-21T06:46:23.190Z</time>
      </trkpt>
      <trkpt lat="44.20551" lon="0.88906">
        <ele>117</ele>
        <time>2022-07-21T06:46:24.190Z</time>
      </trkpt>
      <trkpt lat="44.2055" lon="0.88905">
        <ele>118</ele>
        <time>2022-07-21T06:46:25.190Z</time>
      </trkpt>
      <trkpt lat="44.20549" lon="0.88905">
        <ele>117</ele>
        <time>2022-07-21T06:46:26.190Z</time>
      </trkpt>
      <trkpt lat="44.20548" lon="0.88904">
        <ele>117</ele>
        <time>2022-07-21T06:46:27.190Z</time>
      </trkpt>
      <trkpt lat="44.20547" lon="0.88903">
        <ele>117</ele>
        <time>2022-07-21T06:46:28.190Z</time>
      </trkpt>
      <trkpt lat="44.20546" lon="0.88903">
        <ele>117</ele>
        <time>2022-07-21T06:46:29.190Z</time>
      </trkpt>
      <trkpt lat="44.20545" lon="0.88902">
        <ele>117</ele>
        <time>2022-07-21T06:46:30.190Z</time>
      </trkpt>
      <trkpt lat="44.20544" lon="0.88902">
        <ele>117</ele>
        <time>2022-07-21T06:46:31.190Z</time>
      </trkpt>
      <trkpt lat="44.20542" lon="0.88902">
        <ele>118</ele>
        <time>2022-07-21T06:46:32.190Z</time>
      </trkpt>
      <trkpt lat="44.20541" lon="0.88901">
        <ele>117</ele>
        <time>2022-07-21T06:46:33.190Z</time>
      </trkpt>
      <trkpt lat="44.2054" lon="0.889">
        <ele>117</ele>
        <time>2022-07-21T06:46:34.190Z</time>
      </trkpt>
      <trkpt lat="44.20539" lon="0.889">
        <ele>117</ele>
        <time>2022-07-21T06:46:35.190Z</time>
      </trkpt>
      <trkpt lat="44.20538" lon="0.88899">
        <ele>116</ele>
        <time>2022-07-21T06:46:36.190Z</time>
      </trkpt>
      <trkpt lat="44.20537" lon="0.88899">
        <ele>116</ele>
        <time>2022-07-21T06:46:37.190Z</time>
      </trkpt>
      <trkpt lat="44.20537" lon="0.88898">
        <ele>116</ele>
        <time>2022-07-21T06:46:38.190Z</time>
      </trkpt>
      <trkpt lat="44.20536" lon="0.88898">
        <ele>116</ele>
        <time>2022-07-21T06:46:39.190Z</time>
      </trkpt>
      <trkpt lat="44.20535" lon="0.88898">
        <ele>116</ele>
        <time>2022-07-21T06:46:40.190Z</time>
      </trkpt>
      <trkpt lat="44.20534" lon="0.88898">
        <ele>116</ele>
        <time>2022-07-21T06:46:41.190Z</time>
      </trkpt>
      <trkpt lat="44.20533" lon="0.88898">
        <ele>116</ele>
        <time>2022-07-21T06:46:42.190Z</time>
      </trkpt>
      <trkpt lat="44.20532" lon="0.88897">
        <ele>116</ele>
        <time>2022-07-21T06:46:43.190Z</time>
      </trkpt>
      <trkpt lat="44.20531" lon="0.88897">
        <ele>115</ele>
        <time>2022-07-21T06:46:44.190Z</time>
      </trkpt>
      <trkpt lat="44.2053" lon="0.88897">
        <ele>116</ele>
        <time>2022-07-21T06:46:45.190Z</time>
      </trkpt>
      <trkpt lat="44.20529" lon="0.88897">
        <ele>115</ele>
        <time>2022-07-21T06:46:46.190Z</time>
      </trkpt>
      <trkpt lat="44.20528" lon="0.88896">
        <ele>115</ele>
        <time>2022-07-21T06:46:47.190Z</time>
      </trkpt>
      <trkpt lat="44.20527" lon="0.88896">
        <ele>115</ele>
        <time>2022-07-21T06:46:48.190Z</time>
      </trkpt>
      <trkpt lat="44.20526" lon="0.88896">
        <ele>115</ele>
        <time>2022-07-21T06:46:49.190Z</time>
      </trkpt>
      <trkpt lat="44.20525" lon="0.88896">
        <ele>115</ele>
        <time>2022-07-21T06:46:50.190Z</time>
      </trkpt>
      <trkpt lat="44.20524" lon="0.88896">
        <ele>115</ele>
        <time>2022-07-21T06:46:51.190Z</time>
      </trkpt>
      <trkpt lat="44.20523" lon="0.88896">
        <ele>115</ele>
        <time>2022-07-21T06:46:52.190Z</time>
      </trkpt>
      <trkpt lat="44.20521" lon="0.88896">
        <ele>115</ele>
        <time>2022-07-21T06:46:53.190Z</time>
      </trkpt>
      <trkpt lat="44.2052" lon="0.88896">
        <ele>115</ele>
        <time>2022-07-21T06:46:54.190Z</time>
      </trkpt>
      <trkpt lat="44.20519" lon="0.88897">
        <ele>114</ele>
        <time>2022-07-21T06:46:55.190Z</time>
      </trkpt>
      <trkpt lat="44.20518" lon="0.88897">
        <ele>114</ele>
        <time>2022-07-21T06:46:56.190Z</time>
      </trkpt>
      <trkpt lat="44.20517" lon="0.88897">
        <ele>114</ele>
        <time>2022-07-21T06:46:57.190Z</time>
      </trkpt>
      <trkpt lat="44.20516" lon="0.88897">
        <ele>114</ele>
        <time>2022-07-21T06:46:58.190Z</time>
      </trkpt>
      <trkpt lat="44.20515" lon="0.88897">
        <ele>115</ele>
        <time>2022-07-21T06:46:59.190Z</time>
      </trkpt>
      <trkpt lat="44.20513" lon="0.88897">
        <ele>114</ele>
        <time>2022-07-21T06:47:00.190Z</time>
      </trkpt>
      <trkpt lat="44.20512" lon="0.88897">
        <ele>114</ele>
        <time>2022-07-21T06:47:01.190Z</time>
      </trkpt>
      <trkpt lat="44.20511" lon="0.88897">
        <ele>114</ele>
        <time>2022-07-21T06:47:02.190Z</time>
      </trkpt>
      <trkpt lat="44.2051" lon="0.88897">
        <ele>113</ele>
        <time>2022-07-21T06:47:03.190Z</time>
      </trkpt>
      <trkpt lat="44.20509" lon="0.88897">
        <ele>113</ele>
        <time>2022-07-21T06:47:04.190Z</time>
      </trkpt>
      <trkpt lat="44.20508" lon="0.88897">
        <ele>112</ele>
        <time>2022-07-21T06:47:05.190Z</time>
      </trkpt>
      <trkpt lat="44.20506" lon="0.88897">
        <ele>112</ele>
        <time>2022-07-21T06:47:06.190Z</time>
      </trkpt>
      <trkpt lat="44.20505" lon="0.88897">
        <ele>112</ele>
        <time>2022-07-21T06:47:07.190Z</time>
      </trkpt>
      <trkpt lat="44.20505" lon="0.88897">
        <ele>112</ele>
        <time>2022-07-21T06:47:08.190Z</time>
      </trkpt>
      <trkpt lat="44.20504" lon="0.88897">
        <ele>112</ele>
        <time>2022-07-21T06:47:09.190Z</time>
      </trkpt>
      <trkpt lat="44.20503" lon="0.88898">
        <ele>112</ele>
        <time>2022-07-21T06:47:10.190Z</time>
      </trkpt>
      <trkpt lat="44.20502" lon="0.88898">
        <ele>112</ele>
        <time>2022-07-21T06:47:11.190Z</time>
      </trkpt>
      <trkpt lat="44.20501" lon="0.88899">
        <ele>111</ele>
        <time>2022-07-21T06:47:12.190Z</time>
      </trkpt>
      <trkpt lat="44.205" lon="0.88899">
        <ele>111</ele>
        <time>2022-07-21T06:47:13.190Z</time>
      </trkpt>
      <trkpt lat="44.20499" lon="0.88899">
        <ele>111</ele>
        <time>2022-07-21T06:47:14.190Z</time>
      </trkpt>
      <trkpt lat="44.20498" lon="0.889">
        <ele>110</ele>
        <time>2022-07-21T06:47:15.190Z</time>
      </trkpt>
      <trkpt lat="44.20497" lon="0.889">
        <ele>110</ele>
        <time>2022-07-21T06:47:16.190Z</time>
      </trkpt>
      <trkpt lat="44.20496" lon="0.88901">
        <ele>109</ele>
        <time>2022-07-21T06:47:17.190Z</time>
      </trkpt>
      <trkpt lat="44.20495" lon="0.88901">
        <ele>109</ele>
        <time>2022-07-21T06:47:18.190Z</time>
      </trkpt>
      <trkpt lat="44.20494" lon="0.88902">
        <ele>110</ele>
        <time>2022-07-21T06:47:19.190Z</time>
      </trkpt>
      <trkpt lat="44.20493" lon="0.88902">
        <ele>110</ele>
        <time>2022-07-21T06:47:20.190Z</time>
      </trkpt>
      <trkpt lat="44.20492" lon="0.88903">
        <ele>110</ele>
        <time>2022-07-21T06:47:21.190Z</time>
      </trkpt>
      <trkpt lat="44.20491" lon="0.88903">
        <ele>109</ele>
        <time>2022-07-21T06:47:22.190Z</time>
      </trkpt>
      <trkpt lat="44.2049" lon="0.88904">
        <ele>109</ele>
        <time>2022-07-21T06:47:23.190Z</time>
      </trkpt>
      <trkpt lat="44.20488" lon="0.88905">
        <ele>108</ele>
        <time>2022-07-21T06:47:24.190Z</time>
      </trkpt>
      <trkpt lat="44.20487" lon="0.88906">
        <ele>108</ele>
        <time>2022-07-21T06:47:25.190Z</time>
      </trkpt>
      <trkpt lat="44.20486" lon="0.88906">
        <ele>108</ele>
        <time>2022-07-21T06:47:26.190Z</time>
      </trkpt>
      <trkpt lat="44.20485" lon="0.88907">
        <ele>108</ele>
        <time>2022-07-21T06:47:27.190Z</time>
      </trkpt>
      <trkpt lat="44.20484" lon="0.88908">
        <ele>107</ele>
        <time>2022-07-21T06:47:28.190Z</time>
      </trkpt>
      <trkpt lat="44.20483" lon="0.88909">
        <ele>107</ele>
        <time>2022-07-21T06:47:29.190Z</time>
      </trkpt>
      <trkpt lat="44.20482" lon="0.8891">
        <ele>107</ele>
        <time>2022-07-21T06:47:30.190Z</time>
      </trkpt>
      <trkpt lat="44.20481" lon="0.88912">
        <ele>107</ele>
        <time>2022-07-21T06:47:31.190Z</time>
      </trkpt>
      <trkpt lat="44.2048" lon="0.88912">
        <ele>107</ele>
        <time>2022-07-21T06:47:32.190Z</time>
      </trkpt>
      <trkpt lat="44.20479" lon="0.88914">
        <ele>107</ele>
        <time>2022-07-21T06:47:33.190Z</time>
      </trkpt>
      <trkpt lat="44.20478" lon="0.88915">
        <ele>107</ele>
        <time>2022-07-21T06:47:34.190Z</time>
      </trkpt>
      <trkpt lat="44.20477" lon="0.88916">
        <ele>107</ele>
        <time>2022-07-21T06:47:35.190Z</time>
      </trkpt>
      <trkpt lat="44.20476" lon="0.88917">
        <ele>109</ele>
        <time>2022-07-21T06:47:36.190Z</time>
      </trkpt>
      <trkpt lat="44.20475" lon="0.88918">
        <ele>109</ele>
        <time>2022-07-21T06:47:37.190Z</time>
      </trkpt>
      <trkpt lat="44.20474" lon="0.8892">
        <ele>108</ele>
        <time>2022-07-21T06:47:38.190Z</time>
      </trkpt>
      <trkpt lat="44.20473" lon="0.88921">
        <ele>108</ele>
        <time>2022-07-21T06:47:39.190Z</time>
      </trkpt>
      <trkpt lat="44.20473" lon="0.88922">
        <ele>108</ele>
        <time>2022-07-21T06:47:40.190Z</time>
      </trkpt>
      <trkpt lat="44.20472" lon="0.88923">
        <ele>107</ele>
        <time>2022-07-21T06:47:41.190Z</time>
      </trkpt>
      <trkpt lat="44.20471" lon="0.88924">
        <ele>107</ele>
        <time>2022-07-21T06:47:42.190Z</time>
      </trkpt>
      <trkpt lat="44.2047" lon="0.88925">
        <ele>107</ele>
        <time>2022-07-21T06:47:43.190Z</time>
      </trkpt>
      <trkpt lat="44.20469" lon="0.88926">
        <ele>107</ele>
        <time>2022-07-21T06:47:44.190Z</time>
      </trkpt>
      <trkpt lat="44.20469" lon="0.88927">
        <ele>107</ele>
        <time>2022-07-21T06:47:45.190Z</time>
      </trkpt>
      <trkpt lat="44.20468" lon="0.88928">
        <ele>106</ele>
        <time>2022-07-21T06:47:46.190Z</time>
      </trkpt>
      <trkpt lat="44.20467" lon="0.88928">
        <ele>106</ele>
        <time>2022-07-21T06:47:47.190Z</time>
      </trkpt>
      <trkpt lat="44.20467" lon="0.88928">
        <ele>106</ele>
        <time>2022-07-21T06:47:48.190Z</time>
      </trkpt>
      <trkpt lat="44.20467" lon="0.88929">
        <ele>105</ele>
        <time>2022-07-21T06:47:49.190Z</time>
      </trkpt>
      <trkpt lat="44.20466" lon="0.8893">
        <ele>105</ele>
        <time>2022-07-21T06:47:50.190Z</time>
      </trkpt>
      <trkpt lat="44.20466" lon="0.88931">
        <ele>104</ele>
        <time>2022-07-21T06:47:51.190Z</time>
      </trkpt>
      <trkpt lat="44.20466" lon="0.88932">
        <ele>105</ele>
        <time>2022-07-21T06:47:52.190Z</time>
      </trkpt>
      <trkpt lat="44.20465" lon="0.88933">
        <ele>104</ele>
        <time>2022-07-21T06:47:53.190Z</time>
      </trkpt>
      <trkpt lat="44.20464" lon="0.88934">
        <ele>104</ele>
        <time>2022-07-21T06:47:54.190Z</time>
      </trkpt>
      <trkpt lat="44.20463" lon="0.88935">
        <ele>104</ele>
        <time>2022-07-21T06:47:55.190Z</time>
      </trkpt>
      <trkpt lat="44.20462" lon="0.88936">
        <ele>103</ele>
        <time>2022-07-21T06:47:56.190Z</time>
      </trkpt>
      <trkpt lat="44.20462" lon="0.88937">
        <ele>103</ele>
        <time>2022-07-21T06:47:57.190Z</time>
      </trkpt>
      <trkpt lat="44.20461" lon="0.88938">
        <ele>103</ele>
        <time>2022-07-21T06:47:58.190Z</time>
      </trkpt>
      <trkpt lat="44.2046" lon="0.8894">
        <ele>103</ele>
        <time>2022-07-21T06:47:59.190Z</time>
      </trkpt>
      <trkpt lat="44.2046" lon="0.88941">
        <ele>103</ele>
        <time>2022-07-21T06:48:00.190Z</time>
      </trkpt>
      <trkpt lat="44.20459" lon="0.88942">
        <ele>103</ele>
        <time>2022-07-21T06:48:01.190Z</time>
      </trkpt>
      <trkpt lat="44.20458" lon="0.88943">
        <ele>103</ele>
        <time>2022-07-21T06:48:02.190Z</time>
      </trkpt>
      <trkpt lat="44.20457" lon="0.88945">
        <ele>102</ele>
        <time>2022-07-21T06:48:03.190Z</time>
      </trkpt>
      <trkpt lat="44.20457" lon="0.88947">
        <ele>102</ele>
        <time>2022-07-21T06:48:04.190Z</time>
      </trkpt>
      <trkpt lat="44.20456" lon="0.88948">
        <ele>102</ele>
        <time>2022-07-21T06:48:05.190Z</time>
      </trkpt>
      <trkpt lat="44.20455" lon="0.8895">
        <ele>103</ele>
        <time>2022-07-21T06:48:06.190Z</time>
      </trkpt>
      <trkpt lat="44.20454" lon="0.88951">
        <ele>102</ele>
        <time>2022-07-21T06:48:07.190Z</time>
      </trkpt>
      <trkpt lat="44.20454" lon="0.88953">
        <ele>102</ele>
        <time>2022-07-21T06:48:08.190Z</time>
      </trkpt>
      <trkpt lat="44.20453" lon="0.88954">
        <ele>102</ele>
        <time>2022-07-21T06:48:09.190Z</time>
      </trkpt>
      <trkpt lat="44.20453" lon="0.88955">
        <ele>102</ele>
        <time>2022-07-21T06:48:10.190Z</time>
      </trkpt>
      <trkpt lat="44.20452" lon="0.88956">
        <ele>102</ele>
        <time>2022-07-21T06:48:11.190Z</time>
      </trkpt>
      <trkpt lat="44.20451" lon="0.88957">
        <ele>102</ele>
        <time>2022-07-21T06:48:12.190Z</time>
      </trkpt>
      <trkpt lat="44.20451" lon="0.88959">
        <ele>102</ele>
        <time>2022-07-21T06:48:13.190Z</time>
      </trkpt>
      <trkpt lat="44.2045" lon="0.88961">
        <ele>102</ele>
        <time>2022-07-21T06:48:14.190Z</time>
      </trkpt>
      <trkpt lat="44.20449" lon="0.88962">
        <ele>101</ele>
        <time>2022-07-21T06:48:15.190Z</time>
      </trkpt>
      <trkpt lat="44.20449" lon="0.88964">
        <ele>101</ele>
        <time>2022-07-21T06:48:16.190Z</time>
      </trkpt>
      <trkpt lat="44.20448" lon="0.88965">
        <ele>101</ele>
        <time>2022-07-21T06:48:17.190Z</time>
      </trkpt>
      <trkpt lat="44.20448" lon="0.88967">
        <ele>101</ele>
        <time>2022-07-21T06:48:18.190Z</time>
      </trkpt>
      <trkpt lat="44.20448" lon="0.88968">
        <ele>101</ele>
        <time>2022-07-21T06:48:19.190Z</time>
      </trkpt>
      <trkpt lat="44.20447" lon="0.8897">
        <ele>101</ele>
        <time>2022-07-21T06:48:20.190Z</time>
      </trkpt>
      <trkpt lat="44.20447" lon="0.88971">
        <ele>101</ele>
        <time>2022-07-21T06:48:21.190Z</time>
      </trkpt>
      <trkpt lat="44.20446" lon="0.88973">
        <ele>101</ele>
        <time>2022-07-21T06:48:22.190Z</time>
      </trkpt>
      <trkpt lat="44.20446" lon="0.88975">
        <ele>101</ele>
        <time>2022-07-21T06:48:23.190Z</time>
      </trkpt>
      <trkpt lat="44.20445" lon="0.88976">
        <ele>101</ele>
        <time>2022-07-21T06:48:24.190Z</time>
      </trkpt>
      <trkpt lat="44.20445" lon="0.88977">
        <ele>101</ele>
        <time>2022-07-21T06:48:25.190Z</time>
      </trkpt>
      <trkpt lat="44.20445" lon="0.88979">
        <ele>101</ele>
        <time>2022-07-21T06:48:26.190Z</time>
      </trkpt>
      <trkpt lat="44.20444" lon="0.8898">
        <ele>101</ele>
        <time>2022-07-21T06:48:27.190Z</time>
      </trkpt>
      <trkpt lat="44.20444" lon="0.88981">
        <ele>100</ele>
        <time>2022-07-21T06:48:28.190Z</time>
      </trkpt>
      <trkpt lat="44.20444" lon="0.88983">
        <ele>100</ele>
        <time>2022-07-21T06:48:29.190Z</time>
      </trkpt>
      <trkpt lat="44.20443" lon="0.88984">
        <ele>100</ele>
        <time>2022-07-21T06:48:30.190Z</time>
      </trkpt>
      <trkpt lat="44.20443" lon="0.88986">
        <ele>100</ele>
        <time>2022-07-21T06:48:31.190Z</time>
      </trkpt>
      <trkpt lat="44.20443" lon="0.88987">
        <ele>100</ele>
        <time>2022-07-21T06:48:32.190Z</time>
      </trkpt>
      <trkpt lat="44.20442" lon="0.88989">
        <ele>100</ele>
        <time>2022-07-21T06:48:33.190Z</time>
      </trkpt>
      <trkpt lat="44.20442" lon="0.88991">
        <ele>100</ele>
        <time>2022-07-21T06:48:34.190Z</time>
      </trkpt>
      <trkpt lat="44.20442" lon="0.88992">
        <ele>100</ele>
        <time>2022-07-21T06:48:35.190Z</time>
      </trkpt>
      <trkpt lat="44.20441" lon="0.88994">
        <ele>100</ele>
        <time>2022-07-21T06:48:36.190Z</time>
      </trkpt>
      <trkpt lat="44.20441" lon="0.88995">
        <ele>100</ele>
        <time>2022-07-21T06:48:37.190Z</time>
      </trkpt>
      <trkpt lat="44.20441" lon="0.88997">
        <ele>99</ele>
        <time>2022-07-21T06:48:38.190Z</time>
      </trkpt>
      <trkpt lat="44.20441" lon="0.88998">
        <ele>99</ele>
        <time>2022-07-21T06:48:39.190Z</time>
      </trkpt>
      <trkpt lat="44.20441" lon="0.89">
        <ele>99</ele>
        <time>2022-07-21T06:48:40.190Z</time>
      </trkpt>
      <trkpt lat="44.20441" lon="0.89002">
        <ele>98</ele>
        <time>2022-07-21T06:48:41.190Z</time>
      </trkpt>
      <trkpt lat="44.20441" lon="0.89003">
        <ele>98</ele>
        <time>2022-07-21T06:48:42.190Z</time>
      </trkpt>
      <trkpt lat="44.20441" lon="0.89005">
        <ele>99</ele>
        <time>2022-07-21T06:48:43.190Z</time>
      </trkpt>
      <trkpt lat="44.20441" lon="0.89007">
        <ele>99</ele>
        <time>2022-07-21T06:48:44.190Z</time>
      </trkpt>
      <trkpt lat="44.20441" lon="0.89009">
        <ele>98</ele>
        <time>2022-07-21T06:48:45.190Z</time>
      </trkpt>
      <trkpt lat="44.20441" lon="0.89011">
        <ele>98</ele>
        <time>2022-07-21T06:48:46.190Z</time>
      </trkpt>
      <trkpt lat="44.20441" lon="0.89012">
        <ele>98</ele>
        <time>2022-07-21T06:48:47.190Z</time>
      </trkpt>
      <trkpt lat="44.20441" lon="0.89014">
        <ele>99</ele>
        <time>2022-07-21T06:48:48.190Z</time>
      </trkpt>
      <trkpt lat="44.2044" lon="0.89016">
        <ele>99</ele>
        <time>2022-07-21T06:48:49.190Z</time>
      </trkpt>
      <trkpt lat="44.2044" lon="0.89018">
        <ele>98</ele>
        <time>2022-07-21T06:48:50.190Z</time>
      </trkpt>
      <trkpt lat="44.2044" lon="0.89019">
        <ele>98</ele>
        <time>2022-07-21T06:48:51.190Z</time>
      </trkpt>
      <trkpt lat="44.20439" lon="0.89021">
        <ele>98</ele>
        <time>2022-07-21T06:48:52.190Z</time>
      </trkpt>
      <trkpt lat="44.20439" lon="0.89022">
        <ele>98</ele>
        <time>2022-07-21T06:48:53.190Z</time>
      </trkpt>
      <trkpt lat="44.20439" lon="0.89024">
        <ele>98</ele>
        <time>2022-07-21T06:48:54.190Z</time>
      </trkpt>
      <trkpt lat="44.20439" lon="0.89026">
        <ele>98</ele>
        <time>2022-07-21T06:48:55.190Z</time>
      </trkpt>
      <trkpt lat="44.20439" lon="0.89028">
        <ele>98</ele>
        <time>2022-07-21T06:48:56.190Z</time>
      </trkpt>
      <trkpt lat="44.20439" lon="0.89029">
        <ele>98</ele>
        <time>2022-07-21T06:48:57.190Z</time>
      </trkpt>
      <trkpt lat="44.20439" lon="0.89031">
        <ele>97</ele>
        <time>2022-07-21T06:48:58.190Z</time>
      </trkpt>
      <trkpt lat="44.20439" lon="0.89032">
        <ele>98</ele>
        <time>2022-07-21T06:48:59.190Z</time>
      </trkpt>
      <trkpt lat="44.20439" lon="0.89034">
        <ele>98</ele>
        <time>2022-07-21T06:49:00.190Z</time>
      </trkpt>
      <trkpt lat="44.20439" lon="0.89035">
        <ele>98</ele>
        <time>2022-07-21T06:49:01.190Z</time>
      </trkpt>
      <trkpt lat="44.2044" lon="0.89036">
        <ele>98</ele>
        <time>2022-07-21T06:49:02.190Z</time>
      </trkpt>
      <trkpt lat="44.2044" lon="0.89038">
        <ele>97</ele>
        <time>2022-07-21T06:49:03.190Z</time>
      </trkpt>
      <trkpt lat="44.2044" lon="0.89039">
        <ele>98</ele>
        <time>2022-07-21T06:49:04.190Z</time>
      </trkpt>
      <trkpt lat="44.2044" lon="0.89041">
        <ele>98</ele>
        <time>2022-07-21T06:49:05.190Z</time>
      </trkpt>
      <trkpt lat="44.20441" lon="0.89042">
        <ele>98</ele>
        <time>2022-07-21T06:49:06.190Z</time>
      </trkpt>
      <trkpt lat="44.20441" lon="0.89044">
        <ele>98</ele>
        <time>2022-07-21T06:49:07.190Z</time>
      </trkpt>
      <trkpt lat="44.20441" lon="0.89045">
        <ele>99</ele>
        <time>2022-07-21T06:49:08.190Z</time>
      </trkpt>
      <trkpt lat="44.20441" lon="0.89047">
        <ele>99</ele>
        <time>2022-07-21T06:49:09.190Z</time>
      </trkpt>
      <trkpt lat="44.20441" lon="0.89048">
        <ele>99</ele>
        <time>2022-07-21T06:49:10.190Z</time>
      </trkpt>
      <trkpt lat="44.20441" lon="0.89049">
        <ele>98</ele>
        <time>2022-07-21T06:49:11.190Z</time>
      </trkpt>
      <trkpt lat="44.20442" lon="0.8905">
        <ele>99</ele>
        <time>2022-07-21T06:49:12.190Z</time>
      </trkpt>
      <trkpt lat="44.20442" lon="0.89052">
        <ele>99</ele>
        <time>2022-07-21T06:49:13.190Z</time>
      </trkpt>
      <trkpt lat="44.20442" lon="0.89053">
        <ele>99</ele>
        <time>2022-07-21T06:49:14.190Z</time>
      </trkpt>
      <trkpt lat="44.20443" lon="0.89054">
        <ele>99</ele>
        <time>2022-07-21T06:49:15.190Z</time>
      </trkpt>
      <trkpt lat="44.20443" lon="0.89055">
        <ele>100</ele>
        <time>2022-07-21T06:49:16.190Z</time>
      </trkpt>
      <trkpt lat="44.20443" lon="0.89056">
        <ele>100</ele>
        <time>2022-07-21T06:49:17.190Z</time>
      </trkpt>
      <trkpt lat="44.20443" lon="0.89057">
        <ele>100</ele>
        <time>2022-07-21T06:49:18.190Z</time>
      </trkpt>
      <trkpt lat="44.20443" lon="0.89059">
        <ele>100</ele>
        <time>2022-07-21T06:49:19.190Z</time>
      </trkpt>
      <trkpt lat="44.20443" lon="0.89061">
        <ele>100</ele>
        <time>2022-07-21T06:49:20.190Z</time>
      </trkpt>
      <trkpt lat="44.20443" lon="0.89063">
        <ele>100</ele>
        <time>2022-07-21T06:49:21.190Z</time>
      </trkpt>
      <trkpt lat="44.20443" lon="0.89064">
        <ele>101</ele>
        <time>2022-07-21T06:49:22.190Z</time>
      </trkpt>
      <trkpt lat="44.20443" lon="0.89066">
        <ele>101</ele>
        <time>2022-07-21T06:49:23.190Z</time>
      </trkpt>
      <trkpt lat="44.20442" lon="0.89067">
        <ele>101</ele>
        <time>2022-07-21T06:49:24.190Z</time>
      </trkpt>
      <trkpt lat="44.20442" lon="0.89068">
        <ele>102</ele>
        <time>2022-07-21T06:49:25.190Z</time>
      </trkpt>
      <trkpt lat="44.20442" lon="0.8907">
        <ele>102</ele>
        <time>2022-07-21T06:49:26.190Z</time>
      </trkpt>
      <trkpt lat="44.20442" lon="0.89071">
        <ele>102</ele>
        <time>2022-07-21T06:49:27.190Z</time>
      </trkpt>
      <trkpt lat="44.20442" lon="0.89073">
        <ele>102</ele>
        <time>2022-07-21T06:49:28.190Z</time>
      </trkpt>
      <trkpt lat="44.20442" lon="0.89075">
        <ele>102</ele>
        <time>2022-07-21T06:49:29.190Z</time>
      </trkpt>
      <trkpt lat="44.20442" lon="0.89077">
        <ele>101</ele>
        <time>2022-07-21T06:49:30.190Z</time>
      </trkpt>
      <trkpt lat="44.20442" lon="0.89079">
        <ele>101</ele>
        <time>2022-07-21T06:49:31.190Z</time>
      </trkpt>
      <trkpt lat="44.20442" lon="0.89081">
        <ele>101</ele>
        <time>2022-07-21T06:49:32.190Z</time>
      </trkpt>
      <trkpt lat="44.20442" lon="0.89082">
        <ele>100</ele>
        <time>2022-07-21T06:49:33.190Z</time>
      </trkpt>
      <trkpt lat="44.20442" lon="0.89084">
        <ele>100</ele>
        <time>2022-07-21T06:49:34.190Z</time>
      </trkpt>
      <trkpt lat="44.20441" lon="0.89085">
        <ele>100</ele>
        <time>2022-07-21T06:49:35.190Z</time>
      </trkpt>
      <trkpt lat="44.20441" lon="0.89086">
        <ele>100</ele>
        <time>2022-07-21T06:49:36.190Z</time>
      </trkpt>
      <trkpt lat="44.20441" lon="0.89088">
        <ele>100</ele>
        <time>2022-07-21T06:49:37.190Z</time>
      </trkpt>
      <trkpt lat="44.2044" lon="0.8909">
        <ele>99</ele>
        <time>2022-07-21T06:49:38.190Z</time>
      </trkpt>
      <trkpt lat="44.20438" lon="0.89091">
        <ele>99</ele>
        <time>2022-07-21T06:49:39.190Z</time>
      </trkpt>
      <trkpt lat="44.20437" lon="0.89092">
        <ele>98</ele>
        <time>2022-07-21T06:49:40.190Z</time>
      </trkpt>
      <trkpt lat="44.20436" lon="0.89092">
        <ele>98</ele>
        <time>2022-07-21T06:49:41.190Z</time>
      </trkpt>
      <trkpt lat="44.20434" lon="0.89093">
        <ele>98</ele>
        <time>2022-07-21T06:49:42.190Z</time>
      </trkpt>
      <trkpt lat="44.20433" lon="0.89093">
        <ele>98</ele>
        <time>2022-07-21T06:49:43.190Z</time>
      </trkpt>
      <trkpt lat="44.20431" lon="0.89093">
        <ele>98</ele>
        <time>2022-07-21T06:49:44.190Z</time>
      </trkpt>
      <trkpt lat="44.2043" lon="0.89093">
        <ele>98</ele>
        <time>2022-07-21T06:49:45.190Z</time>
      </trkpt>
      <trkpt lat="44.20429" lon="0.89093">
        <ele>98</ele>
        <time>2022-07-21T06:49:46.190Z</time>
      </trkpt>
      <trkpt lat="44.20427" lon="0.89093">
        <ele>98</ele>
        <time>2022-07-21T06:49:47.190Z</time>
      </trkpt>
      <trkpt lat="44.20426" lon="0.89093">
        <ele>99</ele>
        <time>2022-07-21T06:49:48.190Z</time>
      </trkpt>
      <trkpt lat="44.20426" lon="0.89093">
        <ele>99</ele>
        <time>2022-07-21T06:49:49.190Z</time>
      </trkpt>
      <trkpt lat="44.20425" lon="0.89093">
        <ele>99</ele>
        <time>2022-07-21T06:49:50.190Z</time>
      </trkpt>
      <trkpt lat="44.20424" lon="0.89092">
        <ele>99</ele>
        <time>2022-07-21T06:49:51.190Z</time>
      </trkpt>
      <trkpt lat="44.20423" lon="0.89092">
        <ele>100</ele>
        <time>2022-07-21T06:49:52.190Z</time>
      </trkpt>
      <trkpt lat="44.20421" lon="0.89092">
        <ele>100</ele>
        <time>2022-07-21T06:49:53.190Z</time>
      </trkpt>
      <trkpt lat="44.2042" lon="0.89091">
        <ele>100</ele>
        <time>2022-07-21T06:49:54.190Z</time>
      </trkpt>
      <trkpt lat="44.20418" lon="0.8909">
        <ele>100</ele>
        <time>2022-07-21T06:49:55.190Z</time>
      </trkpt>
      <trkpt lat="44.20417" lon="0.8909">
        <ele>100</ele>
        <time>2022-07-21T06:49:56.190Z</time>
      </trkpt>
      <trkpt lat="44.20416" lon="0.89089">
        <ele>100</ele>
        <time>2022-07-21T06:49:57.190Z</time>
      </trkpt>
      <trkpt lat="44.20415" lon="0.89089">
        <ele>100</ele>
        <time>2022-07-21T06:49:58.190Z</time>
      </trkpt>
      <trkpt lat="44.20413" lon="0.89089">
        <ele>100</ele>
        <time>2022-07-21T06:49:59.190Z</time>
      </trkpt>
      <trkpt lat="44.20412" lon="0.89088">
        <ele>100</ele>
        <time>2022-07-21T06:50:00.190Z</time>
      </trkpt>
      <trkpt lat="44.20411" lon="0.89088">
        <ele>99</ele>
        <time>2022-07-21T06:50:01.190Z</time>
      </trkpt>
      <trkpt lat="44.2041" lon="0.89087">
        <ele>98</ele>
        <time>2022-07-21T06:50:02.190Z</time>
      </trkpt>
      <trkpt lat="44.20409" lon="0.89086">
        <ele>98</ele>
        <time>2022-07-21T06:50:03.190Z</time>
      </trkpt>
      <trkpt lat="44.20408" lon="0.89086">
        <ele>98</ele>
        <time>2022-07-21T06:50:04.190Z</time>
      </trkpt>
      <trkpt lat="44.20406" lon="0.89086">
        <ele>98</ele>
        <time>2022-07-21T06:50:05.190Z</time>
      </trkpt>
      <trkpt lat="44.20405" lon="0.89085">
        <ele>99</ele>
        <time>2022-07-21T06:50:06.190Z</time>
      </trkpt>
      <trkpt lat="44.20404" lon="0.89085">
        <ele>99</ele>
        <time>2022-07-21T06:50:07.190Z</time>
      </trkpt>
      <trkpt lat="44.20403" lon="0.89084">
        <ele>99</ele>
        <time>2022-07-21T06:50:08.190Z</time>
      </trkpt>
      <trkpt lat="44.20401" lon="0.89083">
        <ele>99</ele>
        <time>2022-07-21T06:50:09.190Z</time>
      </trkpt>
      <trkpt lat="44.204" lon="0.89083">
        <ele>99</ele>
        <time>2022-07-21T06:50:10.190Z</time>
      </trkpt>
      <trkpt lat="44.20399" lon="0.89082">
        <ele>98</ele>
        <time>2022-07-21T06:50:11.190Z</time>
      </trkpt>
      <trkpt lat="44.20398" lon="0.89082">
        <ele>98</ele>
        <time>2022-07-21T06:50:12.190Z</time>
      </trkpt>
      <trkpt lat="44.20397" lon="0.89081">
        <ele>98</ele>
        <time>2022-07-21T06:50:13.190Z</time>
      </trkpt>
      <trkpt lat="44.20396" lon="0.8908">
        <ele>98</ele>
        <time>2022-07-21T06:50:14.190Z</time>
      </trkpt>
      <trkpt lat="44.20395" lon="0.8908">
        <ele>97</ele>
        <time>2022-07-21T06:50:15.190Z</time>
      </trkpt>
      <trkpt lat="44.20393" lon="0.89079">
        <ele>97</ele>
        <time>2022-07-21T06:50:16.190Z</time>
      </trkpt>
      <trkpt lat="44.20392" lon="0.89078">
        <ele>97</ele>
        <time>2022-07-21T06:50:17.190Z</time>
      </trkpt>
      <trkpt lat="44.20391" lon="0.89077">
        <ele>97</ele>
        <time>2022-07-21T06:50:18.190Z</time>
      </trkpt>
      <trkpt lat="44.2039" lon="0.89076">
        <ele>97</ele>
        <time>2022-07-21T06:50:19.190Z</time>
      </trkpt>
      <trkpt lat="44.20389" lon="0.89075">
        <ele>97</ele>
        <time>2022-07-21T06:50:20.190Z</time>
      </trkpt>
      <trkpt lat="44.20387" lon="0.89074">
        <ele>97</ele>
        <time>2022-07-21T06:50:21.190Z</time>
      </trkpt>
      <trkpt lat="44.20386" lon="0.89074">
        <ele>97</ele>
        <time>2022-07-21T06:50:22.190Z</time>
      </trkpt>
      <trkpt lat="44.20385" lon="0.89073">
        <ele>96</ele>
        <time>2022-07-21T06:50:23.190Z</time>
      </trkpt>
      <trkpt lat="44.20384" lon="0.89072">
        <ele>97</ele>
        <time>2022-07-21T06:50:24.190Z</time>
      </trkpt>
      <trkpt lat="44.20382" lon="0.89072">
        <ele>97</ele>
        <time>2022-07-21T06:50:25.190Z</time>
      </trkpt>
      <trkpt lat="44.20381" lon="0.89071">
        <ele>98</ele>
        <time>2022-07-21T06:50:26.190Z</time>
      </trkpt>
      <trkpt lat="44.2038" lon="0.89071">
        <ele>98</ele>
        <time>2022-07-21T06:50:27.190Z</time>
      </trkpt>
      <trkpt lat="44.20378" lon="0.89071">
        <ele>98</ele>
        <time>2022-07-21T06:50:28.190Z</time>
      </trkpt>
      <trkpt lat="44.20377" lon="0.8907">
        <ele>99</ele>
        <time>2022-07-21T06:50:29.190Z</time>
      </trkpt>
      <trkpt lat="44.20376" lon="0.89069">
        <ele>99</ele>
        <time>2022-07-21T06:50:30.190Z</time>
      </trkpt>
      <trkpt lat="44.20375" lon="0.89069">
        <ele>99</ele>
        <time>2022-07-21T06:50:31.190Z</time>
      </trkpt>
      <trkpt lat="44.20374" lon="0.89068">
        <ele>97</ele>
        <time>2022-07-21T06:50:32.190Z</time>
      </trkpt>
      <trkpt lat="44.20373" lon="0.89067">
        <ele>97</ele>
        <time>2022-07-21T06:50:33.190Z</time>
      </trkpt>
      <trkpt lat="44.20372" lon="0.89066">
        <ele>97</ele>
        <time>2022-07-21T06:50:34.190Z</time>
      </trkpt>
      <trkpt lat="44.20371" lon="0.89066">
        <ele>98</ele>
        <time>2022-07-21T06:50:35.190Z</time>
      </trkpt>
      <trkpt lat="44.2037" lon="0.89066">
        <ele>98</ele>
        <time>2022-07-21T06:50:36.190Z</time>
      </trkpt>
      <trkpt lat="44.20369" lon="0.89065">
        <ele>98</ele>
        <time>2022-07-21T06:50:37.190Z</time>
      </trkpt>
      <trkpt lat="44.20368" lon="0.89064">
        <ele>98</ele>
        <time>2022-07-21T06:50:38.190Z</time>
      </trkpt>
      <trkpt lat="44.20367" lon="0.89064">
        <ele>98</ele>
        <time>2022-07-21T06:50:39.190Z</time>
      </trkpt>
      <trkpt lat="44.20366" lon="0.89063">
        <ele>98</ele>
        <time>2022-07-21T06:50:40.190Z</time>
      </trkpt>
      <trkpt lat="44.20365" lon="0.89062">
        <ele>98</ele>
        <time>2022-07-21T06:50:41.190Z</time>
      </trkpt>
      <trkpt lat="44.20363" lon="0.89062">
        <ele>98</ele>
        <time>2022-07-21T06:50:42.190Z</time>
      </trkpt>
      <trkpt lat="44.20362" lon="0.89061">
        <ele>98</ele>
        <time>2022-07-21T06:50:43.190Z</time>
      </trkpt>
      <trkpt lat="44.20361" lon="0.89061">
        <ele>98</ele>
        <time>2022-07-21T06:50:44.190Z</time>
      </trkpt>
      <trkpt lat="44.2036" lon="0.8906">
        <ele>98</ele>
        <time>2022-07-21T06:50:45.190Z</time>
      </trkpt>
      <trkpt lat="44.20359" lon="0.89059">
        <ele>98</ele>
        <time>2022-07-21T06:50:46.190Z</time>
      </trkpt>
      <trkpt lat="44.20358" lon="0.89059">
        <ele>98</ele>
        <time>2022-07-21T06:50:47.190Z</time>
      </trkpt>
      <trkpt lat="44.20357" lon="0.89058">
        <ele>98</ele>
        <time>2022-07-21T06:50:48.190Z</time>
      </trkpt>
      <trkpt lat="44.20356" lon="0.89058">
        <ele>98</ele>
        <time>2022-07-21T06:50:49.190Z</time>
      </trkpt>
      <trkpt lat="44.20355" lon="0.89057">
        <ele>98</ele>
        <time>2022-07-21T06:50:50.190Z</time>
      </trkpt>
      <trkpt lat="44.20354" lon="0.89057">
        <ele>98</ele>
        <time>2022-07-21T06:50:51.190Z</time>
      </trkpt>
      <trkpt lat="44.20353" lon="0.89056">
        <ele>97</ele>
        <time>2022-07-21T06:50:52.190Z</time>
      </trkpt>
      <trkpt lat="44.20352" lon="0.89055">
        <ele>97</ele>
        <time>2022-07-21T06:50:53.190Z</time>
      </trkpt>
      <trkpt lat="44.20351" lon="0.89055">
        <ele>97</ele>
        <time>2022-07-21T06:50:54.190Z</time>
      </trkpt>
      <trkpt lat="44.2035" lon="0.89053">
        <ele>97</ele>
        <time>2022-07-21T06:50:55.190Z</time>
      </trkpt>
      <trkpt lat="44.20349" lon="0.89052">
        <ele>96</ele>
        <time>2022-07-21T06:50:56.190Z</time>
      </trkpt>
      <trkpt lat="44.20349" lon="0.8905">
        <ele>95</ele>
        <time>2022-07-21T06:50:57.190Z</time>
      </trkpt>
      <trkpt lat="44.20349" lon="0.89048">
        <ele>95</ele>
        <time>2022-07-21T06:50:58.190Z</time>
      </trkpt>
      <trkpt lat="44.2035" lon="0.89046">
        <ele>95</ele>
        <time>2022-07-21T06:50:59.190Z</time>
      </trkpt>
      <trkpt lat="44.2035" lon="0.89044">
        <ele>94</ele>
        <time>2022-07-21T06:51:00.190Z</time>
      </trkpt>
      <trkpt lat="44.2035" lon="0.89042">
        <ele>94</ele>
        <time>2022-07-21T06:51:01.190Z</time>
      </trkpt>
      <trkpt lat="44.20351" lon="0.8904">
        <ele>93</ele>
        <time>2022-07-21T06:51:02.190Z</time>
      </trkpt>
      <trkpt lat="44.20351" lon="0.89039">
        <ele>94</ele>
        <time>2022-07-21T06:51:03.190Z</time>
      </trkpt>
      <trkpt lat="44.20351" lon="0.89037">
        <ele>94</ele>
        <time>2022-07-21T06:51:04.190Z</time>
      </trkpt>
      <trkpt lat="44.20352" lon="0.89035">
        <ele>94</ele>
        <time>2022-07-21T06:51:05.190Z</time>
      </trkpt>
      <trkpt lat="44.20353" lon="0.89034">
        <ele>94</ele>
        <time>2022-07-21T06:51:06.190Z</time>
      </trkpt>
      <trkpt lat="44.20353" lon="0.89032">
        <ele>94</ele>
        <time>2022-07-21T06:51:07.190Z</time>
      </trkpt>
      <trkpt lat="44.20354" lon="0.8903">
        <ele>94</ele>
        <time>2022-07-21T06:51:08.190Z</time>
      </trkpt>
      <trkpt lat="44.20354" lon="0.89028">
        <ele>95</ele>
        <time>2022-07-21T06:51:09.190Z</time>
      </trkpt>
      <trkpt lat="44.20355" lon="0.89027">
        <ele>95</ele>
        <time>2022-07-21T06:51:10.190Z</time>
      </trkpt>
      <trkpt lat="44.20356" lon="0.89025">
        <ele>95</ele>
        <time>2022-07-21T06:51:11.190Z</time>
      </trkpt>
      <trkpt lat="44.20357" lon="0.89023">
        <ele>95</ele>
        <time>2022-07-21T06:51:12.190Z</time>
      </trkpt>
      <trkpt lat="44.20357" lon="0.89022">
        <ele>94</ele>
        <time>2022-07-21T06:51:13.190Z</time>
      </trkpt>
      <trkpt lat="44.20358" lon="0.8902">
        <ele>94</ele>
        <time>2022-07-21T06:51:14.190Z</time>
      </trkpt>
      <trkpt lat="44.20358" lon="0.89019">
        <ele>94</ele>
        <time>2022-07-21T06:51:15.190Z</time>
      </trkpt>
      <trkpt lat="44.20359" lon="0.89017">
        <ele>94</ele>
        <time>2022-07-21T06:51:16.190Z</time>
      </trkpt>
      <trkpt lat="44.2036" lon="0.89015">
        <ele>94</ele>
        <time>2022-07-21T06:51:17.190Z</time>
      </trkpt>
      <trkpt lat="44.2036" lon="0.89014">
        <ele>94</ele>
        <time>2022-07-21T06:51:18.190Z</time>
      </trkpt>
      <trkpt lat="44.20361" lon="0.89012">
        <ele>94</ele>
        <time>2022-07-21T06:51:19.190Z</time>
      </trkpt>
      <trkpt lat="44.20361" lon="0.89011">
        <ele>94</ele>
        <time>2022-07-21T06:51:20.190Z</time>
      </trkpt>
      <trkpt lat="44.20362" lon="0.89009">
        <ele>94</ele>
        <time>2022-07-21T06:51:21.190Z</time>
      </trkpt>
      <trkpt lat="44.20363" lon="0.89008">
        <ele>94</ele>
        <time>2022-07-21T06:51:22.190Z</time>
      </trkpt>
      <trkpt lat="44.20363" lon="0.89007">
        <ele>94</ele>
        <time>2022-07-21T06:51:23.190Z</time>
      </trkpt>
      <trkpt lat="44.20364" lon="0.89005">
        <ele>94</ele>
        <time>2022-07-21T06:51:24.190Z</time>
      </trkpt>
      <trkpt lat="44.20364" lon="0.89004">
        <ele>94</ele>
        <time>2022-07-21T06:51:25.190Z</time>
      </trkpt>
      <trkpt lat="44.20365" lon="0.89002">
        <ele>94</ele>
        <time>2022-07-21T06:51:26.190Z</time>
      </trkpt>
      <trkpt lat="44.20365" lon="0.89001">
        <ele>94</ele>
        <time>2022-07-21T06:51:27.190Z</time>
      </trkpt>
      <trkpt lat="44.20366" lon="0.89">
        <ele>95</ele>
        <time>2022-07-21T06:51:28.190Z</time>
      </trkpt>
      <trkpt lat="44.20367" lon="0.88998">
        <ele>93</ele>
        <time>2022-07-21T06:51:29.190Z</time>
      </trkpt>
      <trkpt lat="44.20367" lon="0.88997">
        <ele>93</ele>
        <time>2022-07-21T06:51:30.190Z</time>
      </trkpt>
      <trkpt lat="44.20368" lon="0.88996">
        <ele>93</ele>
        <time>2022-07-21T06:51:31.190Z</time>
      </trkpt>
      <trkpt lat="44.20368" lon="0.88994">
        <ele>93</ele>
        <time>2022-07-21T06:51:32.190Z</time>
      </trkpt>
      <trkpt lat="44.20368" lon="0.88993">
        <ele>93</ele>
        <time>2022-07-21T06:51:33.190Z</time>
      </trkpt>
      <trkpt lat="44.20369" lon="0.88991">
        <ele>93</ele>
        <time>2022-07-21T06:51:34.190Z</time>
      </trkpt>
      <trkpt lat="44.20369" lon="0.8899">
        <ele>94</ele>
        <time>2022-07-21T06:51:35.190Z</time>
      </trkpt>
      <trkpt lat="44.2037" lon="0.88988">
        <ele>94</ele>
        <time>2022-07-21T06:51:36.190Z</time>
      </trkpt>
      <trkpt lat="44.2037" lon="0.88986">
        <ele>94</ele>
        <time>2022-07-21T06:51:37.190Z</time>
      </trkpt>
      <trkpt lat="44.20371" lon="0.88985">
        <ele>94</ele>
        <time>2022-07-21T06:51:38.190Z</time>
      </trkpt>
      <trkpt lat="44.20372" lon="0.88983">
        <ele>94</ele>
        <time>2022-07-21T06:51:39.190Z</time>
      </trkpt>
      <trkpt lat="44.20373" lon="0.88982">
        <ele>94</ele>
        <time>2022-07-21T06:51:40.190Z</time>
      </trkpt>
      <trkpt lat="44.20373" lon="0.8898">
        <ele>94</ele>
        <time>2022-07-21T06:51:41.190Z</time>
      </trkpt>
      <trkpt lat="44.20374" lon="0.88979">
        <ele>94</ele>
        <time>2022-07-21T06:51:42.190Z</time>
      </trkpt>
      <trkpt lat="44.20374" lon="0.88977">
        <ele>94</ele>
        <time>2022-07-21T06:51:43.190Z</time>
      </trkpt>
      <trkpt lat="44.20375" lon="0.88976">
        <ele>94</ele>
        <time>2022-07-21T06:51:44.190Z</time>
      </trkpt>
      <trkpt lat="44.20376" lon="0.88974">
        <ele>94</ele>
        <time>2022-07-21T06:51:45.190Z</time>
      </trkpt>
      <trkpt lat="44.20376" lon="0.88972">
        <ele>94</ele>
        <time>2022-07-21T06:51:46.190Z</time>
      </trkpt>
      <trkpt lat="44.20377" lon="0.88971">
        <ele>93</ele>
        <time>2022-07-21T06:51:47.190Z</time>
      </trkpt>
      <trkpt lat="44.20377" lon="0.8897">
        <ele>93</ele>
        <time>2022-07-21T06:51:48.190Z</time>
      </trkpt>
      <trkpt lat="44.20378" lon="0.88968">
        <ele>93</ele>
        <time>2022-07-21T06:51:49.190Z</time>
      </trkpt>
      <trkpt lat="44.20378" lon="0.88967">
        <ele>93</ele>
        <time>2022-07-21T06:51:50.190Z</time>
      </trkpt>
      <trkpt lat="44.20379" lon="0.88966">
        <ele>93</ele>
        <time>2022-07-21T06:51:51.190Z</time>
      </trkpt>
      <trkpt lat="44.2038" lon="0.88964">
        <ele>93</ele>
        <time>2022-07-21T06:51:52.190Z</time>
      </trkpt>
      <trkpt lat="44.2038" lon="0.88963">
        <ele>93</ele>
        <time>2022-07-21T06:51:53.190Z</time>
      </trkpt>
      <trkpt lat="44.20381" lon="0.88961">
        <ele>93</ele>
        <time>2022-07-21T06:51:54.190Z</time>
      </trkpt>
      <trkpt lat="44.20381" lon="0.88959">
        <ele>93</ele>
        <time>2022-07-21T06:51:55.190Z</time>
      </trkpt>
      <trkpt lat="44.20382" lon="0.88958">
        <ele>93</ele>
        <time>2022-07-21T06:51:56.190Z</time>
      </trkpt>
      <trkpt lat="44.20382" lon="0.88957">
        <ele>93</ele>
        <time>2022-07-21T06:51:57.190Z</time>
      </trkpt>
      <trkpt lat="44.20383" lon="0.88955">
        <ele>93</ele>
        <time>2022-07-21T06:51:58.190Z</time>
      </trkpt>
      <trkpt lat="44.20383" lon="0.88954">
        <ele>93</ele>
        <time>2022-07-21T06:51:59.190Z</time>
      </trkpt>
      <trkpt lat="44.20384" lon="0.88953">
        <ele>93</ele>
        <time>2022-07-21T06:52:00.190Z</time>
      </trkpt>
      <trkpt lat="44.20385" lon="0.88951">
        <ele>93</ele>
        <time>2022-07-21T06:52:01.190Z</time>
      </trkpt>
      <trkpt lat="44.20385" lon="0.88949">
        <ele>92</ele>
        <time>2022-07-21T06:52:02.190Z</time>
      </trkpt>
      <trkpt lat="44.20386" lon="0.88948">
        <ele>92</ele>
        <time>2022-07-21T06:52:03.190Z</time>
      </trkpt>
      <trkpt lat="44.20386" lon="0.88946">
        <ele>92</ele>
        <time>2022-07-21T06:52:04.190Z</time>
      </trkpt>
      <trkpt lat="44.20387" lon="0.88945">
        <ele>92</ele>
        <time>2022-07-21T06:52:05.190Z</time>
      </trkpt>
      <trkpt lat="44.20387" lon="0.88943">
        <ele>92</ele>
        <time>2022-07-21T06:52:06.190Z</time>
      </trkpt>
      <trkpt lat="44.20388" lon="0.88942">
        <ele>93</ele>
        <time>2022-07-21T06:52:07.190Z</time>
      </trkpt>
      <trkpt lat="44.20388" lon="0.8894">
        <ele>93</ele>
        <time>2022-07-21T06:52:08.190Z</time>
      </trkpt>
      <trkpt lat="44.20389" lon="0.88938">
        <ele>93</ele>
        <time>2022-07-21T06:52:09.190Z</time>
      </trkpt>
      <trkpt lat="44.2039" lon="0.88937">
        <ele>93</ele>
        <time>2022-07-21T06:52:10.190Z</time>
      </trkpt>
      <trkpt lat="44.2039" lon="0.88935">
        <ele>94</ele>
        <time>2022-07-21T06:52:11.190Z</time>
      </trkpt>
      <trkpt lat="44.20391" lon="0.88934">
        <ele>94</ele>
        <time>2022-07-21T06:52:12.190Z</time>
      </trkpt>
      <trkpt lat="44.20392" lon="0.88933">
        <ele>94</ele>
        <time>2022-07-21T06:52:13.190Z</time>
      </trkpt>
      <trkpt lat="44.20392" lon="0.88931">
        <ele>94</ele>
        <time>2022-07-21T06:52:14.190Z</time>
      </trkpt>
      <trkpt lat="44.20393" lon="0.8893">
        <ele>94</ele>
        <time>2022-07-21T06:52:15.190Z</time>
      </trkpt>
      <trkpt lat="44.20393" lon="0.88929">
        <ele>94</ele>
        <time>2022-07-21T06:52:16.190Z</time>
      </trkpt>
      <trkpt lat="44.20394" lon="0.88927">
        <ele>94</ele>
        <time>2022-07-21T06:52:17.190Z</time>
      </trkpt>
      <trkpt lat="44.20394" lon="0.88926">
        <ele>94</ele>
        <time>2022-07-21T06:52:18.190Z</time>
      </trkpt>
      <trkpt lat="44.20395" lon="0.88924">
        <ele>94</ele>
        <time>2022-07-21T06:52:19.190Z</time>
      </trkpt>
      <trkpt lat="44.20396" lon="0.88923">
        <ele>94</ele>
        <time>2022-07-21T06:52:20.190Z</time>
      </trkpt>
      <trkpt lat="44.20396" lon="0.88922">
        <ele>95</ele>
        <time>2022-07-21T06:52:21.190Z</time>
      </trkpt>
      <trkpt lat="44.20397" lon="0.8892">
        <ele>94</ele>
        <time>2022-07-21T06:52:22.190Z</time>
      </trkpt>
      <trkpt lat="44.20398" lon="0.88919">
        <ele>94</ele>
        <time>2022-07-21T06:52:23.190Z</time>
      </trkpt>
      <trkpt lat="44.20398" lon="0.88918">
        <ele>94</ele>
        <time>2022-07-21T06:52:24.190Z</time>
      </trkpt>
      <trkpt lat="44.20399" lon="0.88916">
        <ele>94</ele>
        <time>2022-07-21T06:52:25.190Z</time>
      </trkpt>
      <trkpt lat="44.20399" lon="0.88915">
        <ele>94</ele>
        <time>2022-07-21T06:52:26.190Z</time>
      </trkpt>
      <trkpt lat="44.204" lon="0.88913">
        <ele>94</ele>
        <time>2022-07-21T06:52:27.190Z</time>
      </trkpt>
      <trkpt lat="44.204" lon="0.88912">
        <ele>94</ele>
        <time>2022-07-21T06:52:28.190Z</time>
      </trkpt>
      <trkpt lat="44.204" lon="0.8891">
        <ele>94</ele>
        <time>2022-07-21T06:52:29.190Z</time>
      </trkpt>
      <trkpt lat="44.20399" lon="0.88909">
        <ele>94</ele>
        <time>2022-07-21T06:52:30.190Z</time>
      </trkpt>
      <trkpt lat="44.20399" lon="0.88907">
        <ele>93</ele>
        <time>2022-07-21T06:52:31.190Z</time>
      </trkpt>
      <trkpt lat="44.20399" lon="0.88905">
        <ele>93</ele>
        <time>2022-07-21T06:52:32.190Z</time>
      </trkpt>
      <trkpt lat="44.20399" lon="0.88904">
        <ele>93</ele>
        <time>2022-07-21T06:52:33.190Z</time>
      </trkpt>
      <trkpt lat="44.20399" lon="0.88903">
        <ele>92</ele>
        <time>2022-07-21T06:52:34.190Z</time>
      </trkpt>
      <trkpt lat="44.20399" lon="0.88901">
        <ele>92</ele>
        <time>2022-07-21T06:52:35.190Z</time>
      </trkpt>
      <trkpt lat="44.20399" lon="0.889">
        <ele>92</ele>
        <time>2022-07-21T06:52:36.190Z</time>
      </trkpt>
      <trkpt lat="44.204" lon="0.88898">
        <ele>92</ele>
        <time>2022-07-21T06:52:37.190Z</time>
      </trkpt>
      <trkpt lat="44.204" lon="0.88897">
        <ele>91</ele>
        <time>2022-07-21T06:52:38.190Z</time>
      </trkpt>
      <trkpt lat="44.204" lon="0.88896">
        <ele>91</ele>
        <time>2022-07-21T06:52:39.190Z</time>
      </trkpt>
      <trkpt lat="44.204" lon="0.88894">
        <ele>91</ele>
        <time>2022-07-21T06:52:40.190Z</time>
      </trkpt>
      <trkpt lat="44.204" lon="0.88893">
        <ele>91</ele>
        <time>2022-07-21T06:52:41.190Z</time>
      </trkpt>
      <trkpt lat="44.204" lon="0.88891">
        <ele>91</ele>
        <time>2022-07-21T06:52:42.190Z</time>
      </trkpt>
      <trkpt lat="44.204" lon="0.8889">
        <ele>90</ele>
        <time>2022-07-21T06:52:43.190Z</time>
      </trkpt>
      <trkpt lat="44.204" lon="0.88888">
        <ele>90</ele>
        <time>2022-07-21T06:52:44.190Z</time>
      </trkpt>
      <trkpt lat="44.204" lon="0.88886">
        <ele>90</ele>
        <time>2022-07-21T06:52:45.190Z</time>
      </trkpt>
      <trkpt lat="44.20401" lon="0.88885">
        <ele>90</ele>
        <time>2022-07-21T06:52:46.190Z</time>
      </trkpt>
      <trkpt lat="44.20401" lon="0.88883">
        <ele>90</ele>
        <time>2022-07-21T06:52:47.190Z</time>
      </trkpt>
      <trkpt lat="44.20401" lon="0.88882">
        <ele>89</ele>
        <time>2022-07-21T06:52:48.190Z</time>
      </trkpt>
      <trkpt lat="44.20401" lon="0.8888">
        <ele>89</ele>
        <time>2022-07-21T06:52:49.190Z</time>
      </trkpt>
      <trkpt lat="44.20401" lon="0.88879">
        <ele>90</ele>
        <time>2022-07-21T06:52:50.190Z</time>
      </trkpt>
      <trkpt lat="44.20401" lon="0.88877">
        <ele>90</ele>
        <time>2022-07-21T06:52:51.190Z</time>
      </trkpt>
      <trkpt lat="44.20402" lon="0.88876">
        <ele>90</ele>
        <time>2022-07-21T06:52:52.190Z</time>
      </trkpt>
      <trkpt lat="44.20402" lon="0.88874">
        <ele>89</ele>
        <time>2022-07-21T06:52:53.190Z</time>
      </trkpt>
      <trkpt lat="44.20402" lon="0.88873">
        <ele>90</ele>
        <time>2022-07-21T06:52:54.190Z</time>
      </trkpt>
      <trkpt lat="44.20401" lon="0.88872">
        <ele>90</ele>
        <time>2022-07-21T06:52:55.190Z</time>
      </trkpt>
      <trkpt lat="44.20402" lon="0.8887">
        <ele>90</ele>
        <time>2022-07-21T06:52:56.190Z</time>
      </trkpt>
      <trkpt lat="44.20402" lon="0.88869">
        <ele>90</ele>
        <time>2022-07-21T06:52:57.190Z</time>
      </trkpt>
      <trkpt lat="44.20402" lon="0.88867">
        <ele>90</ele>
        <time>2022-07-21T06:52:58.190Z</time>
      </trkpt>
      <trkpt lat="44.20402" lon="0.88865">
        <ele>90</ele>
        <time>2022-07-21T06:52:59.190Z</time>
      </trkpt>
      <trkpt lat="44.20402" lon="0.88864">
        <ele>90</ele>
        <time>2022-07-21T06:53:00.190Z</time>
      </trkpt>
      <trkpt lat="44.20402" lon="0.88863">
        <ele>91</ele>
        <time>2022-07-21T06:53:01.190Z</time>
      </trkpt>
      <trkpt lat="44.20402" lon="0.88862">
        <ele>91</ele>
        <time>2022-07-21T06:53:02.190Z</time>
      </trkpt>
      <trkpt lat="44.20402" lon="0.8886">
        <ele>91</ele>
        <time>2022-07-21T06:53:03.190Z</time>
      </trkpt>
      <trkpt lat="44.20402" lon="0.88858">
        <ele>91</ele>
        <time>2022-07-21T06:53:04.190Z</time>
      </trkpt>
      <trkpt lat="44.20403" lon="0.88856">
        <ele>90</ele>
        <time>2022-07-21T06:53:05.190Z</time>
      </trkpt>
      <trkpt lat="44.20403" lon="0.88855">
        <ele>91</ele>
        <time>2022-07-21T06:53:06.190Z</time>
      </trkpt>
      <trkpt lat="44.20403" lon="0.88853">
        <ele>91</ele>
        <time>2022-07-21T06:53:07.190Z</time>
      </trkpt>
      <trkpt lat="44.20403" lon="0.88852">
        <ele>91</ele>
        <time>2022-07-21T06:53:08.190Z</time>
      </trkpt>
      <trkpt lat="44.20403" lon="0.8885">
        <ele>91</ele>
        <time>2022-07-21T06:53:09.190Z</time>
      </trkpt>
      <trkpt lat="44.20403" lon="0.88849">
        <ele>91</ele>
        <time>2022-07-21T06:53:10.190Z</time>
      </trkpt>
      <trkpt lat="44.20403" lon="0.88848">
        <ele>91</ele>
        <time>2022-07-21T06:53:11.190Z</time>
      </trkpt>
      <trkpt lat="44.20403" lon="0.88847">
        <ele>91</ele>
        <time>2022-07-21T06:53:12.190Z</time>
      </trkpt>
      <trkpt lat="44.20403" lon="0.88846">
        <ele>91</ele>
        <time>2022-07-21T06:53:13.190Z</time>
      </trkpt>
      <trkpt lat="44.20403" lon="0.88844">
        <ele>91</ele>
        <time>2022-07-21T06:53:14.190Z</time>
      </trkpt>
      <trkpt lat="44.20403" lon="0.88843">
        <ele>91</ele>
        <time>2022-07-21T06:53:15.190Z</time>
      </trkpt>
      <trkpt lat="44.20403" lon="0.88842">
        <ele>90</ele>
        <time>2022-07-21T06:53:16.190Z</time>
      </trkpt>
      <trkpt lat="44.20404" lon="0.8884">
        <ele>90</ele>
        <time>2022-07-21T06:53:17.190Z</time>
      </trkpt>
      <trkpt lat="44.20404" lon="0.88839">
        <ele>89</ele>
        <time>2022-07-21T06:53:18.190Z</time>
      </trkpt>
      <trkpt lat="44.20404" lon="0.88837">
        <ele>89</ele>
        <time>2022-07-21T06:53:19.190Z</time>
      </trkpt>
      <trkpt lat="44.20405" lon="0.88835">
        <ele>89</ele>
        <time>2022-07-21T06:53:20.190Z</time>
      </trkpt>
      <trkpt lat="44.20405" lon="0.88833">
        <ele>88</ele>
        <time>2022-07-21T06:53:21.190Z</time>
      </trkpt>
      <trkpt lat="44.20406" lon="0.88832">
        <ele>88</ele>
        <time>2022-07-21T06:53:22.190Z</time>
      </trkpt>
      <trkpt lat="44.20406" lon="0.8883">
        <ele>88</ele>
        <time>2022-07-21T06:53:23.190Z</time>
      </trkpt>
      <trkpt lat="44.20406" lon="0.88829">
        <ele>88</ele>
        <time>2022-07-21T06:53:24.190Z</time>
      </trkpt>
      <trkpt lat="44.20407" lon="0.88828">
        <ele>88</ele>
        <time>2022-07-21T06:53:25.190Z</time>
      </trkpt>
      <trkpt lat="44.20408" lon="0.88826">
        <ele>89</ele>
        <time>2022-07-21T06:53:26.190Z</time>
      </trkpt>
      <trkpt lat="44.20408" lon="0.88825">
        <ele>88</ele>
        <time>2022-07-21T06:53:27.190Z</time>
      </trkpt>
      <trkpt lat="44.20409" lon="0.88823">
        <ele>88</ele>
        <time>2022-07-21T06:53:28.190Z</time>
      </trkpt>
      <trkpt lat="44.20409" lon="0.88822">
        <ele>88</ele>
        <time>2022-07-21T06:53:29.190Z</time>
      </trkpt>
      <trkpt lat="44.2041" lon="0.88821">
        <ele>88</ele>
        <time>2022-07-21T06:53:30.190Z</time>
      </trkpt>
      <trkpt lat="44.2041" lon="0.8882">
        <ele>88</ele>
        <time>2022-07-21T06:53:31.190Z</time>
      </trkpt>
      <trkpt lat="44.20411" lon="0.88819">
        <ele>88</ele>
        <time>2022-07-21T06:53:32.190Z</time>
      </trkpt>
      <trkpt lat="44.20412" lon="0.88818">
        <ele>88</ele>
        <time>2022-07-21T06:53:33.190Z</time>
      </trkpt>
      <trkpt lat="44.20412" lon="0.88816">
        <ele>88</ele>
        <time>2022-07-21T06:53:34.190Z</time>
      </trkpt>
      <trkpt lat="44.20413" lon="0.88815">
        <ele>89</ele>
        <time>2022-07-21T06:53:35.190Z</time>
      </trkpt>
      <trkpt lat="44.20414" lon="0.88813">
        <ele>88</ele>
        <time>2022-07-21T06:53:36.190Z</time>
      </trkpt>
      <trkpt lat="44.20415" lon="0.88812">
        <ele>87</ele>
        <time>2022-07-21T06:53:37.190Z</time>
      </trkpt>
      <trkpt lat="44.20416" lon="0.8881">
        <ele>87</ele>
        <time>2022-07-21T06:53:38.190Z</time>
      </trkpt>
      <trkpt lat="44.20416" lon="0.88808">
        <ele>87</ele>
        <time>2022-07-21T06:53:39.190Z</time>
      </trkpt>
      <trkpt lat="44.20417" lon="0.88807">
        <ele>87</ele>
        <time>2022-07-21T06:53:40.190Z</time>
      </trkpt>
      <trkpt lat="44.20418" lon="0.88805">
        <ele>88</ele>
        <time>2022-07-21T06:53:41.190Z</time>
      </trkpt>
      <trkpt lat="44.20418" lon="0.88804">
        <ele>88</ele>
        <time>2022-07-21T06:53:42.190Z</time>
      </trkpt>
      <trkpt lat="44.20419" lon="0.88802">
        <ele>89</ele>
        <time>2022-07-21T06:53:43.190Z</time>
      </trkpt>
      <trkpt lat="44.20419" lon="0.88801">
        <ele>89</ele>
        <time>2022-07-21T06:53:44.190Z</time>
      </trkpt>
      <trkpt lat="44.2042" lon="0.88799">
        <ele>89</ele>
        <time>2022-07-21T06:53:45.190Z</time>
      </trkpt>
      <trkpt lat="44.2042" lon="0.88798">
        <ele>90</ele>
        <time>2022-07-21T06:53:46.190Z</time>
      </trkpt>
      <trkpt lat="44.2042" lon="0.88796">
        <ele>90</ele>
        <time>2022-07-21T06:53:47.190Z</time>
      </trkpt>
      <trkpt lat="44.20421" lon="0.88794">
        <ele>91</ele>
        <time>2022-07-21T06:53:48.190Z</time>
      </trkpt>
      <trkpt lat="44.20421" lon="0.88792">
        <ele>92</ele>
        <time>2022-07-21T06:53:49.190Z</time>
      </trkpt>
      <trkpt lat="44.20421" lon="0.88791">
        <ele>92</ele>
        <time>2022-07-21T06:53:50.190Z</time>
      </trkpt>
      <trkpt lat="44.20422" lon="0.88789">
        <ele>93</ele>
        <time>2022-07-21T06:53:51.190Z</time>
      </trkpt>
      <trkpt lat="44.20422" lon="0.88788">
        <ele>94</ele>
        <time>2022-07-21T06:53:52.190Z</time>
      </trkpt>
      <trkpt lat="44.20422" lon="0.88786">
        <ele>94</ele>
        <time>2022-07-21T06:53:53.190Z</time>
      </trkpt>
      <trkpt lat="44.20422" lon="0.88784">
        <ele>95</ele>
        <time>2022-07-21T06:53:54.190Z</time>
      </trkpt>
      <trkpt lat="44.20423" lon="0.88783">
        <ele>95</ele>
        <time>2022-07-21T06:53:55.190Z</time>
      </trkpt>
      <trkpt lat="44.20423" lon="0.88782">
        <ele>95</ele>
        <time>2022-07-21T06:53:56.190Z</time>
      </trkpt>
      <trkpt lat="44.20424" lon="0.88781">
        <ele>95</ele>
        <time>2022-07-21T06:53:57.190Z</time>
      </trkpt>
      <trkpt lat="44.20424" lon="0.8878">
        <ele>95</ele>
        <time>2022-07-21T06:53:58.190Z</time>
      </trkpt>
      <trkpt lat="44.20425" lon="0.88778">
        <ele>95</ele>
        <time>2022-07-21T06:53:59.190Z</time>
      </trkpt>
      <trkpt lat="44.20425" lon="0.88777">
        <ele>95</ele>
        <time>2022-07-21T06:54:00.190Z</time>
      </trkpt>
      <trkpt lat="44.20426" lon="0.88776">
        <ele>94</ele>
        <time>2022-07-21T06:54:01.190Z</time>
      </trkpt>
      <trkpt lat="44.20426" lon="0.88775">
        <ele>94</ele>
        <time>2022-07-21T06:54:02.190Z</time>
      </trkpt>
      <trkpt lat="44.20427" lon="0.88774">
        <ele>93</ele>
        <time>2022-07-21T06:54:03.190Z</time>
      </trkpt>
      <trkpt lat="44.20427" lon="0.88773">
        <ele>95</ele>
        <time>2022-07-21T06:54:04.190Z</time>
      </trkpt>
      <trkpt lat="44.20428" lon="0.88771">
        <ele>95</ele>
        <time>2022-07-21T06:54:05.190Z</time>
      </trkpt>
      <trkpt lat="44.20428" lon="0.88769">
        <ele>96</ele>
        <time>2022-07-21T06:54:06.190Z</time>
      </trkpt>
      <trkpt lat="44.20429" lon="0.88767">
        <ele>96</ele>
        <time>2022-07-21T06:54:07.190Z</time>
      </trkpt>
      <trkpt lat="44.20429" lon="0.88766">
        <ele>95</ele>
        <time>2022-07-21T06:54:08.190Z</time>
      </trkpt>
      <trkpt lat="44.2043" lon="0.88764">
        <ele>95</ele>
        <time>2022-07-21T06:54:09.190Z</time>
      </trkpt>
      <trkpt lat="44.2043" lon="0.88763">
        <ele>96</ele>
        <time>2022-07-21T06:54:10.190Z</time>
      </trkpt>
      <trkpt lat="44.20431" lon="0.88761">
        <ele>95</ele>
        <time>2022-07-21T06:54:11.190Z</time>
      </trkpt>
      <trkpt lat="44.20432" lon="0.8876">
        <ele>95</ele>
        <time>2022-07-21T06:54:12.190Z</time>
      </trkpt>
      <trkpt lat="44.20432" lon="0.88759">
        <ele>95</ele>
        <time>2022-07-21T06:54:13.190Z</time>
      </trkpt>
      <trkpt lat="44.20433" lon="0.88757">
        <ele>95</ele>
        <time>2022-07-21T06:54:14.190Z</time>
      </trkpt>
      <trkpt lat="44.20433" lon="0.88756">
        <ele>95</ele>
        <time>2022-07-21T06:54:15.190Z</time>
      </trkpt>
      <trkpt lat="44.20434" lon="0.88755">
        <ele>95</ele>
        <time>2022-07-21T06:54:16.190Z</time>
      </trkpt>
      <trkpt lat="44.20434" lon="0.88754">
        <ele>96</ele>
        <time>2022-07-21T06:54:17.190Z</time>
      </trkpt>
      <trkpt lat="44.20435" lon="0.88752">
        <ele>96</ele>
        <time>2022-07-21T06:54:18.190Z</time>
      </trkpt>
      <trkpt lat="44.20436" lon="0.88751">
        <ele>97</ele>
        <time>2022-07-21T06:54:19.190Z</time>
      </trkpt>
      <trkpt lat="44.20436" lon="0.8875">
        <ele>97</ele>
        <time>2022-07-21T06:54:20.190Z</time>
      </trkpt>
      <trkpt lat="44.20437" lon="0.88749">
        <ele>97</ele>
        <time>2022-07-21T06:54:21.190Z</time>
      </trkpt>
      <trkpt lat="44.20438" lon="0.88747">
        <ele>98</ele>
        <time>2022-07-21T06:54:22.190Z</time>
      </trkpt>
      <trkpt lat="44.20438" lon="0.88746">
        <ele>98</ele>
        <time>2022-07-21T06:54:23.190Z</time>
      </trkpt>
      <trkpt lat="44.20439" lon="0.88745">
        <ele>98</ele>
        <time>2022-07-21T06:54:24.190Z</time>
      </trkpt>
      <trkpt lat="44.20439" lon="0.88743">
        <ele>98</ele>
        <time>2022-07-21T06:54:25.190Z</time>
      </trkpt>
      <trkpt lat="44.2044" lon="0.88742">
        <ele>98</ele>
        <time>2022-07-21T06:54:26.190Z</time>
      </trkpt>
      <trkpt lat="44.20441" lon="0.8874">
        <ele>97</ele>
        <time>2022-07-21T06:54:27.190Z</time>
      </trkpt>
      <trkpt lat="44.20441" lon="0.88739">
        <ele>97</ele>
        <time>2022-07-21T06:54:28.190Z</time>
      </trkpt>
      <trkpt lat="44.20442" lon="0.88737">
        <ele>97</ele>
        <time>2022-07-21T06:54:29.190Z</time>
      </trkpt>
      <trkpt lat="44.20443" lon="0.88736">
        <ele>97</ele>
        <time>2022-07-21T06:54:30.190Z</time>
      </trkpt>
      <trkpt lat="44.20443" lon="0.88735">
        <ele>96</ele>
        <time>2022-07-21T06:54:31.190Z</time>
      </trkpt>
      <trkpt lat="44.20444" lon="0.88734">
        <ele>96</ele>
        <time>2022-07-21T06:54:32.190Z</time>
      </trkpt>
      <trkpt lat="44.20444" lon="0.88732">
        <ele>96</ele>
        <time>2022-07-21T06:54:33.190Z</time>
      </trkpt>
      <trkpt lat="44.20445" lon="0.88731">
        <ele>97</ele>
        <time>2022-07-21T06:54:34.190Z</time>
      </trkpt>
      <trkpt lat="44.20445" lon="0.8873">
        <ele>97</ele>
        <time>2022-07-21T06:54:35.190Z</time>
      </trkpt>
      <trkpt lat="44.20446" lon="0.88729">
        <ele>97</ele>
        <time>2022-07-21T06:54:36.190Z</time>
      </trkpt>
      <trkpt lat="44.20446" lon="0.88727">
        <ele>97</ele>
        <time>2022-07-21T06:54:37.190Z</time>
      </trkpt>
      <trkpt lat="44.20447" lon="0.88726">
        <ele>96</ele>
        <time>2022-07-21T06:54:38.190Z</time>
      </trkpt>
      <trkpt lat="44.20448" lon="0.88724">
        <ele>96</ele>
        <time>2022-07-21T06:54:39.190Z</time>
      </trkpt>
      <trkpt lat="44.20448" lon="0.88723">
        <ele>96</ele>
        <time>2022-07-21T06:54:40.190Z</time>
      </trkpt>
      <trkpt lat="44.20449" lon="0.88721">
        <ele>95</ele>
        <time>2022-07-21T06:54:41.190Z</time>
      </trkpt>
      <trkpt lat="44.20449" lon="0.8872">
        <ele>95</ele>
        <time>2022-07-21T06:54:42.190Z</time>
      </trkpt>
      <trkpt lat="44.2045" lon="0.88719">
        <ele>96</ele>
        <time>2022-07-21T06:54:43.190Z</time>
      </trkpt>
      <trkpt lat="44.2045" lon="0.88718">
        <ele>96</ele>
        <time>2022-07-21T06:54:44.190Z</time>
      </trkpt>
      <trkpt lat="44.20451" lon="0.88716">
        <ele>96</ele>
        <time>2022-07-21T06:54:45.190Z</time>
      </trkpt>
      <trkpt lat="44.20452" lon="0.88715">
        <ele>96</ele>
        <time>2022-07-21T06:54:46.190Z</time>
      </trkpt>
      <trkpt lat="44.20452" lon="0.88714">
        <ele>96</ele>
        <time>2022-07-21T06:54:47.190Z</time>
      </trkpt>
      <trkpt lat="44.20453" lon="0.88713">
        <ele>97</ele>
        <time>2022-07-21T06:54:48.190Z</time>
      </trkpt>
      <trkpt lat="44.20453" lon="0.88711">
        <ele>96</ele>
        <time>2022-07-21T06:54:49.190Z</time>
      </trkpt>
      <trkpt lat="44.20454" lon="0.8871">
        <ele>97</ele>
        <time>2022-07-21T06:54:50.190Z</time>
      </trkpt>
      <trkpt lat="44.20454" lon="0.88709">
        <ele>97</ele>
        <time>2022-07-21T06:54:51.190Z</time>
      </trkpt>
      <trkpt lat="44.20455" lon="0.88707">
        <ele>97</ele>
        <time>2022-07-21T06:54:52.190Z</time>
      </trkpt>
      <trkpt lat="44.20455" lon="0.88706">
        <ele>97</ele>
        <time>2022-07-21T06:54:53.190Z</time>
      </trkpt>
      <trkpt lat="44.20456" lon="0.88706">
        <ele>97</ele>
        <time>2022-07-21T06:54:54.190Z</time>
      </trkpt>
      <trkpt lat="44.20456" lon="0.88705">
        <ele>97</ele>
        <time>2022-07-21T06:54:55.190Z</time>
      </trkpt>
      <trkpt lat="44.20456" lon="0.88704">
        <ele>97</ele>
        <time>2022-07-21T06:54:56.190Z</time>
      </trkpt>
      <trkpt lat="44.20456" lon="0.88703">
        <ele>97</ele>
        <time>2022-07-21T06:54:57.190Z</time>
      </trkpt>
      <trkpt lat="44.20457" lon="0.88702">
        <ele>97</ele>
        <time>2022-07-21T06:54:58.190Z</time>
      </trkpt>
      <trkpt lat="44.20457" lon="0.88701">
        <ele>97</ele>
        <time>2022-07-21T06:54:59.190Z</time>
      </trkpt>
      <trkpt lat="44.20458" lon="0.887">
        <ele>97</ele>
        <time>2022-07-21T06:55:00.190Z</time>
      </trkpt>
      <trkpt lat="44.20459" lon="0.88698">
        <ele>97</ele>
        <time>2022-07-21T06:55:01.190Z</time>
      </trkpt>
      <trkpt lat="44.20459" lon="0.88697">
        <ele>97</ele>
        <time>2022-07-21T06:55:02.190Z</time>
      </trkpt>
      <trkpt lat="44.2046" lon="0.88696">
        <ele>97</ele>
        <time>2022-07-21T06:55:03.190Z</time>
      </trkpt>
      <trkpt lat="44.20461" lon="0.88695">
        <ele>97</ele>
        <time>2022-07-21T06:55:04.190Z</time>
      </trkpt>
      <trkpt lat="44.20461" lon="0.88694">
        <ele>97</ele>
        <time>2022-07-21T06:55:05.190Z</time>
      </trkpt>
      <trkpt lat="44.20462" lon="0.88692">
        <ele>97</ele>
        <time>2022-07-21T06:55:06.190Z</time>
      </trkpt>
      <trkpt lat="44.20462" lon="0.88691">
        <ele>96</ele>
        <time>2022-07-21T06:55:07.190Z</time>
      </trkpt>
      <trkpt lat="44.20463" lon="0.8869">
        <ele>96</ele>
        <time>2022-07-21T06:55:08.190Z</time>
      </trkpt>
      <trkpt lat="44.20463" lon="0.88689">
        <ele>96</ele>
        <time>2022-07-21T06:55:09.190Z</time>
      </trkpt>
      <trkpt lat="44.20464" lon="0.88688">
        <ele>96</ele>
        <time>2022-07-21T06:55:10.190Z</time>
      </trkpt>
      <trkpt lat="44.20464" lon="0.88686">
        <ele>96</ele>
        <time>2022-07-21T06:55:11.190Z</time>
      </trkpt>
      <trkpt lat="44.20465" lon="0.88685">
        <ele>96</ele>
        <time>2022-07-21T06:55:12.190Z</time>
      </trkpt>
      <trkpt lat="44.20465" lon="0.88684">
        <ele>96</ele>
        <time>2022-07-21T06:55:13.190Z</time>
      </trkpt>
      <trkpt lat="44.20466" lon="0.88682">
        <ele>96</ele>
        <time>2022-07-21T06:55:14.190Z</time>
      </trkpt>
      <trkpt lat="44.20466" lon="0.88681">
        <ele>96</ele>
        <time>2022-07-21T06:55:15.190Z</time>
      </trkpt>
      <trkpt lat="44.20467" lon="0.8868">
        <ele>96</ele>
        <time>2022-07-21T06:55:16.190Z</time>
      </trkpt>
      <trkpt lat="44.20468" lon="0.88678">
        <ele>96</ele>
        <time>2022-07-21T06:55:17.190Z</time>
      </trkpt>
      <trkpt lat="44.20469" lon="0.88677">
        <ele>97</ele>
        <time>2022-07-21T06:55:18.190Z</time>
      </trkpt>
      <trkpt lat="44.20469" lon="0.88676">
        <ele>97</ele>
        <time>2022-07-21T06:55:19.190Z</time>
      </trkpt>
      <trkpt lat="44.2047" lon="0.88674">
        <ele>96</ele>
        <time>2022-07-21T06:55:20.190Z</time>
      </trkpt>
      <trkpt lat="44.2047" lon="0.88673">
        <ele>97</ele>
        <time>2022-07-21T06:55:21.190Z</time>
      </trkpt>
      <trkpt lat="44.20471" lon="0.88671">
        <ele>96</ele>
        <time>2022-07-21T06:55:22.190Z</time>
      </trkpt>
      <trkpt lat="44.20472" lon="0.8867">
        <ele>97</ele>
        <time>2022-07-21T06:55:23.190Z</time>
      </trkpt>
      <trkpt lat="44.20472" lon="0.88668">
        <ele>97</ele>
        <time>2022-07-21T06:55:24.190Z</time>
      </trkpt>
      <trkpt lat="44.20473" lon="0.88667">
        <ele>97</ele>
        <time>2022-07-21T06:55:25.190Z</time>
      </trkpt>
      <trkpt lat="44.20474" lon="0.88666">
        <ele>97</ele>
        <time>2022-07-21T06:55:26.190Z</time>
      </trkpt>
      <trkpt lat="44.20475" lon="0.88664">
        <ele>98</ele>
        <time>2022-07-21T06:55:27.190Z</time>
      </trkpt>
      <trkpt lat="44.20475" lon="0.88663">
        <ele>98</ele>
        <time>2022-07-21T06:55:28.190Z</time>
      </trkpt>
      <trkpt lat="44.20476" lon="0.88662">
        <ele>98</ele>
        <time>2022-07-21T06:55:29.190Z</time>
      </trkpt>
      <trkpt lat="44.20476" lon="0.8866">
        <ele>99</ele>
        <time>2022-07-21T06:55:30.190Z</time>
      </trkpt>
      <trkpt lat="44.20477" lon="0.88659">
        <ele>99</ele>
        <time>2022-07-21T06:55:31.190Z</time>
      </trkpt>
      <trkpt lat="44.20478" lon="0.88657">
        <ele>99</ele>
        <time>2022-07-21T06:55:32.190Z</time>
      </trkpt>
      <trkpt lat="44.20478" lon="0.88656">
        <ele>99</ele>
        <time>2022-07-21T06:55:33.190Z</time>
      </trkpt>
      <trkpt lat="44.20479" lon="0.88655">
        <ele>99</ele>
        <time>2022-07-21T06:55:34.190Z</time>
      </trkpt>
      <trkpt lat="44.2048" lon="0.88654">
        <ele>99</ele>
        <time>2022-07-21T06:55:35.190Z</time>
      </trkpt>
      <trkpt lat="44.2048" lon="0.88653">
        <ele>99</ele>
        <time>2022-07-21T06:55:36.190Z</time>
      </trkpt>
      <trkpt lat="44.20481" lon="0.88651">
        <ele>99</ele>
        <time>2022-07-21T06:55:37.190Z</time>
      </trkpt>
      <trkpt lat="44.20482" lon="0.8865">
        <ele>99</ele>
        <time>2022-07-21T06:55:38.190Z</time>
      </trkpt>
      <trkpt lat="44.20483" lon="0.88649">
        <ele>99</ele>
        <time>2022-07-21T06:55:39.190Z</time>
      </trkpt>
      <trkpt lat="44.20484" lon="0.88648">
        <ele>99</ele>
        <time>2022-07-21T06:55:40.190Z</time>
      </trkpt>
      <trkpt lat="44.20484" lon="0.88646">
        <ele>98</ele>
        <time>2022-07-21T06:55:41.190Z</time>
      </trkpt>
      <trkpt lat="44.20485" lon="0.88645">
        <ele>98</ele>
        <time>2022-07-21T06:55:42.190Z</time>
      </trkpt>
      <trkpt lat="44.20486" lon="0.88644">
        <ele>98</ele>
        <time>2022-07-21T06:55:43.190Z</time>
      </trkpt>
      <trkpt lat="44.20487" lon="0.88642">
        <ele>98</ele>
        <time>2022-07-21T06:55:44.190Z</time>
      </trkpt>
      <trkpt lat="44.20488" lon="0.88641">
        <ele>98</ele>
        <time>2022-07-21T06:55:45.190Z</time>
      </trkpt>
      <trkpt lat="44.20488" lon="0.8864">
        <ele>98</ele>
        <time>2022-07-21T06:55:46.190Z</time>
      </trkpt>
      <trkpt lat="44.20489" lon="0.88639">
        <ele>98</ele>
        <time>2022-07-21T06:55:47.190Z</time>
      </trkpt>
      <trkpt lat="44.2049" lon="0.88637">
        <ele>98</ele>
        <time>2022-07-21T06:55:48.190Z</time>
      </trkpt>
      <trkpt lat="44.20491" lon="0.88636">
        <ele>98</ele>
        <time>2022-07-21T06:55:49.190Z</time>
      </trkpt>
      <trkpt lat="44.20491" lon="0.88635">
        <ele>98</ele>
        <time>2022-07-21T06:55:50.190Z</time>
      </trkpt>
      <trkpt lat="44.20492" lon="0.88634">
        <ele>98</ele>
        <time>2022-07-21T06:55:51.190Z</time>
      </trkpt>
      <trkpt lat="44.20493" lon="0.88633">
        <ele>98</ele>
        <time>2022-07-21T06:55:52.190Z</time>
      </trkpt>
      <trkpt lat="44.20494" lon="0.88631">
        <ele>98</ele>
        <time>2022-07-21T06:55:53.190Z</time>
      </trkpt>
      <trkpt lat="44.20495" lon="0.8863">
        <ele>98</ele>
        <time>2022-07-21T06:55:54.190Z</time>
      </trkpt>
      <trkpt lat="44.20495" lon="0.88629">
        <ele>98</ele>
        <time>2022-07-21T06:55:55.190Z</time>
      </trkpt>
      <trkpt lat="44.20496" lon="0.88628">
        <ele>99</ele>
        <time>2022-07-21T06:55:56.190Z</time>
      </trkpt>
      <trkpt lat="44.20497" lon="0.88626">
        <ele>100</ele>
        <time>2022-07-21T06:55:57.190Z</time>
      </trkpt>
      <trkpt lat="44.20497" lon="0.88625">
        <ele>100</ele>
        <time>2022-07-21T06:55:58.190Z</time>
      </trkpt>
      <trkpt lat="44.20498" lon="0.88623">
        <ele>100</ele>
        <time>2022-07-21T06:55:59.190Z</time>
      </trkpt>
      <trkpt lat="44.20499" lon="0.88622">
        <ele>101</ele>
        <time>2022-07-21T06:56:00.190Z</time>
      </trkpt>
      <trkpt lat="44.205" lon="0.88621">
        <ele>101</ele>
        <time>2022-07-21T06:56:01.190Z</time>
      </trkpt>
      <trkpt lat="44.205" lon="0.88619">
        <ele>101</ele>
        <time>2022-07-21T06:56:02.190Z</time>
      </trkpt>
      <trkpt lat="44.20501" lon="0.88618">
        <ele>101</ele>
        <time>2022-07-21T06:56:03.190Z</time>
      </trkpt>
      <trkpt lat="44.20502" lon="0.88617">
        <ele>101</ele>
        <time>2022-07-21T06:56:04.190Z</time>
      </trkpt>
      <trkpt lat="44.20503" lon="0.88616">
        <ele>101</ele>
        <time>2022-07-21T06:56:05.190Z</time>
      </trkpt>
      <trkpt lat="44.20503" lon="0.88614">
        <ele>102</ele>
        <time>2022-07-21T06:56:06.190Z</time>
      </trkpt>
      <trkpt lat="44.20504" lon="0.88613">
        <ele>102</ele>
        <time>2022-07-21T06:56:07.190Z</time>
      </trkpt>
      <trkpt lat="44.20505" lon="0.88612">
        <ele>102</ele>
        <time>2022-07-21T06:56:08.190Z</time>
      </trkpt>
      <trkpt lat="44.20506" lon="0.88611">
        <ele>102</ele>
        <time>2022-07-21T06:56:09.190Z</time>
      </trkpt>
      <trkpt lat="44.20507" lon="0.8861">
        <ele>101</ele>
        <time>2022-07-21T06:56:10.190Z</time>
      </trkpt>
      <trkpt lat="44.20508" lon="0.88608">
        <ele>101</ele>
        <time>2022-07-21T06:56:11.190Z</time>
      </trkpt>
      <trkpt lat="44.20508" lon="0.88607">
        <ele>101</ele>
        <time>2022-07-21T06:56:12.190Z</time>
      </trkpt>
      <trkpt lat="44.20509" lon="0.88606">
        <ele>100</ele>
        <time>2022-07-21T06:56:13.190Z</time>
      </trkpt>
      <trkpt lat="44.2051" lon="0.88605">
        <ele>100</ele>
        <time>2022-07-21T06:56:14.190Z</time>
      </trkpt>
      <trkpt lat="44.20511" lon="0.88604">
        <ele>101</ele>
        <time>2022-07-21T06:56:15.190Z</time>
      </trkpt>
      <trkpt lat="44.20512" lon="0.88603">
        <ele>100</ele>
        <time>2022-07-21T06:56:16.190Z</time>
      </trkpt>
      <trkpt lat="44.20513" lon="0.88601">
        <ele>100</ele>
        <time>2022-07-21T06:56:17.190Z</time>
      </trkpt>
      <trkpt lat="44.20513" lon="0.886">
        <ele>100</ele>
        <time>2022-07-21T06:56:18.190Z</time>
      </trkpt>
      <trkpt lat="44.20514" lon="0.88599">
        <ele>100</ele>
        <time>2022-07-21T06:56:19.190Z</time>
      </trkpt>
      <trkpt lat="44.20515" lon="0.88598">
        <ele>99</ele>
        <time>2022-07-21T06:56:20.190Z</time>
      </trkpt>
      <trkpt lat="44.20516" lon="0.88597">
        <ele>99</ele>
        <time>2022-07-21T06:56:21.190Z</time>
      </trkpt>
      <trkpt lat="44.20517" lon="0.88596">
        <ele>99</ele>
        <time>2022-07-21T06:56:22.190Z</time>
      </trkpt>
      <trkpt lat="44.20518" lon="0.88595">
        <ele>99</ele>
        <time>2022-07-21T06:56:23.190Z</time>
      </trkpt>
      <trkpt lat="44.20519" lon="0.88594">
        <ele>99</ele>
        <time>2022-07-21T06:56:24.190Z</time>
      </trkpt>
      <trkpt lat="44.20519" lon="0.88593">
        <ele>99</ele>
        <time>2022-07-21T06:56:25.190Z</time>
      </trkpt>
      <trkpt lat="44.2052" lon="0.88592">
        <ele>100</ele>
        <time>2022-07-21T06:56:26.190Z</time>
      </trkpt>
      <trkpt lat="44.20521" lon="0.88591">
        <ele>100</ele>
        <time>2022-07-21T06:56:27.190Z</time>
      </trkpt>
      <trkpt lat="44.20522" lon="0.8859">
        <ele>100</ele>
        <time>2022-07-21T06:56:28.190Z</time>
      </trkpt>
      <trkpt lat="44.20523" lon="0.88589">
        <ele>100</ele>
        <time>2022-07-21T06:56:29.190Z</time>
      </trkpt>
      <trkpt lat="44.20524" lon="0.88588">
        <ele>100</ele>
        <time>2022-07-21T06:56:30.190Z</time>
      </trkpt>
      <trkpt lat="44.20525" lon="0.88587">
        <ele>100</ele>
        <time>2022-07-21T06:56:31.190Z</time>
      </trkpt>
      <trkpt lat="44.20525" lon="0.88585">
        <ele>100</ele>
        <time>2022-07-21T06:56:32.190Z</time>
      </trkpt>
      <trkpt lat="44.20526" lon="0.88584">
        <ele>101</ele>
        <time>2022-07-21T06:56:33.190Z</time>
      </trkpt>
      <trkpt lat="44.20527" lon="0.88583">
        <ele>101</ele>
        <time>2022-07-21T06:56:34.190Z</time>
      </trkpt>
      <trkpt lat="44.20528" lon="0.88582">
        <ele>101</ele>
        <time>2022-07-21T06:56:35.190Z</time>
      </trkpt>
      <trkpt lat="44.20529" lon="0.88581">
        <ele>100</ele>
        <time>2022-07-21T06:56:36.190Z</time>
      </trkpt>
      <trkpt lat="44.2053" lon="0.8858">
        <ele>100</ele>
        <time>2022-07-21T06:56:37.190Z</time>
      </trkpt>
      <trkpt lat="44.2053" lon="0.88579">
        <ele>100</ele>
        <time>2022-07-21T06:56:38.190Z</time>
      </trkpt>
      <trkpt lat="44.20531" lon="0.88578">
        <ele>100</ele>
        <time>2022-07-21T06:56:39.190Z</time>
      </trkpt>
      <trkpt lat="44.20532" lon="0.88576">
        <ele>100</ele>
        <time>2022-07-21T06:56:40.190Z</time>
      </trkpt>
      <trkpt lat="44.20533" lon="0.88575">
        <ele>100</ele>
        <time>2022-07-21T06:56:41.190Z</time>
      </trkpt>
      <trkpt lat="44.20534" lon="0.88574">
        <ele>100</ele>
        <time>2022-07-21T06:56:42.190Z</time>
      </trkpt>
      <trkpt lat="44.20534" lon="0.88573">
        <ele>100</ele>
        <time>2022-07-21T06:56:43.190Z</time>
      </trkpt>
      <trkpt lat="44.20535" lon="0.88571">
        <ele>100</ele>
        <time>2022-07-21T06:56:44.190Z</time>
      </trkpt>
      <trkpt lat="44.20536" lon="0.8857">
        <ele>100</ele>
        <time>2022-07-21T06:56:45.190Z</time>
      </trkpt>
      <trkpt lat="44.20536" lon="0.88569">
        <ele>99</ele>
        <time>2022-07-21T06:56:46.190Z</time>
      </trkpt>
      <trkpt lat="44.20537" lon="0.88568">
        <ele>99</ele>
        <time>2022-07-21T06:56:47.190Z</time>
      </trkpt>
      <trkpt lat="44.20538" lon="0.88566">
        <ele>99</ele>
        <time>2022-07-21T06:56:48.190Z</time>
      </trkpt>
      <trkpt lat="44.20538" lon="0.88565">
        <ele>99</ele>
        <time>2022-07-21T06:56:49.190Z</time>
      </trkpt>
      <trkpt lat="44.20539" lon="0.88564">
        <ele>99</ele>
        <time>2022-07-21T06:56:50.190Z</time>
      </trkpt>
      <trkpt lat="44.20539" lon="0.88563">
        <ele>99</ele>
        <time>2022-07-21T06:56:51.190Z</time>
      </trkpt>
      <trkpt lat="44.2054" lon="0.88562">
        <ele>100</ele>
        <time>2022-07-21T06:56:52.190Z</time>
      </trkpt>
      <trkpt lat="44.2054" lon="0.8856">
        <ele>100</ele>
        <time>2022-07-21T06:56:53.190Z</time>
      </trkpt>
      <trkpt lat="44.20541" lon="0.88559">
        <ele>100</ele>
        <time>2022-07-21T06:56:54.190Z</time>
      </trkpt>
      <trkpt lat="44.20541" lon="0.88558">
        <ele>100</ele>
        <time>2022-07-21T06:56:55.190Z</time>
      </trkpt>
      <trkpt lat="44.20542" lon="0.88556">
        <ele>100</ele>
        <time>2022-07-21T06:56:56.190Z</time>
      </trkpt>
      <trkpt lat="44.20543" lon="0.88555">
        <ele>100</ele>
        <time>2022-07-21T06:56:57.190Z</time>
      </trkpt>
      <trkpt lat="44.20544" lon="0.88554">
        <ele>100</ele>
        <time>2022-07-21T06:56:58.190Z</time>
      </trkpt>
      <trkpt lat="44.20545" lon="0.88552">
        <ele>100</ele>
        <time>2022-07-21T06:56:59.190Z</time>
      </trkpt>
      <trkpt lat="44.20545" lon="0.88551">
        <ele>100</ele>
        <time>2022-07-21T06:57:00.190Z</time>
      </trkpt>
      <trkpt lat="44.20546" lon="0.8855">
        <ele>101</ele>
        <time>2022-07-21T06:57:01.190Z</time>
      </trkpt>
      <trkpt lat="44.20547" lon="0.88549">
        <ele>101</ele>
        <time>2022-07-21T06:57:02.190Z</time>
      </trkpt>
      <trkpt lat="44.20547" lon="0.88547">
        <ele>101</ele>
        <time>2022-07-21T06:57:03.190Z</time>
      </trkpt>
      <trkpt lat="44.20548" lon="0.88546">
        <ele>101</ele>
        <time>2022-07-21T06:57:04.190Z</time>
      </trkpt>
      <trkpt lat="44.20549" lon="0.88544">
        <ele>101</ele>
        <time>2022-07-21T06:57:05.190Z</time>
      </trkpt>
      <trkpt lat="44.2055" lon="0.88543">
        <ele>101</ele>
        <time>2022-07-21T06:57:06.190Z</time>
      </trkpt>
      <trkpt lat="44.20551" lon="0.88542">
        <ele>102</ele>
        <time>2022-07-21T06:57:07.190Z</time>
      </trkpt>
      <trkpt lat="44.20552" lon="0.8854">
        <ele>102</ele>
        <time>2022-07-21T06:57:08.190Z</time>
      </trkpt>
      <trkpt lat="44.20552" lon="0.88539">
        <ele>102</ele>
        <time>2022-07-21T06:57:09.190Z</time>
      </trkpt>
      <trkpt lat="44.20553" lon="0.88538">
        <ele>102</ele>
        <time>2022-07-21T06:57:10.190Z</time>
      </trkpt>
      <trkpt lat="44.20553" lon="0.88536">
        <ele>102</ele>
        <time>2022-07-21T06:57:11.190Z</time>
      </trkpt>
      <trkpt lat="44.20554" lon="0.88535">
        <ele>102</ele>
        <time>2022-07-21T06:57:12.190Z</time>
      </trkpt>
      <trkpt lat="44.20555" lon="0.88534">
        <ele>102</ele>
        <time>2022-07-21T06:57:13.190Z</time>
      </trkpt>
      <trkpt lat="44.20556" lon="0.88532">
        <ele>102</ele>
        <time>2022-07-21T06:57:14.190Z</time>
      </trkpt>
      <trkpt lat="44.20556" lon="0.88531">
        <ele>102</ele>
        <time>2022-07-21T06:57:15.190Z</time>
      </trkpt>
      <trkpt lat="44.20557" lon="0.8853">
        <ele>102</ele>
        <time>2022-07-21T06:57:16.190Z</time>
      </trkpt>
      <trkpt lat="44.20557" lon="0.88529">
        <ele>103</ele>
        <time>2022-07-21T06:57:17.190Z</time>
      </trkpt>
      <trkpt lat="44.20558" lon="0.88528">
        <ele>103</ele>
        <time>2022-07-21T06:57:18.190Z</time>
      </trkpt>
      <trkpt lat="44.20559" lon="0.88526">
        <ele>103</ele>
        <time>2022-07-21T06:57:19.190Z</time>
      </trkpt>
      <trkpt lat="44.20559" lon="0.88525">
        <ele>103</ele>
        <time>2022-07-21T06:57:20.190Z</time>
      </trkpt>
      <trkpt lat="44.2056" lon="0.88524">
        <ele>103</ele>
        <time>2022-07-21T06:57:21.190Z</time>
      </trkpt>
      <trkpt lat="44.2056" lon="0.88523">
        <ele>103</ele>
        <time>2022-07-21T06:57:22.190Z</time>
      </trkpt>
      <trkpt lat="44.20561" lon="0.88522">
        <ele>104</ele>
        <time>2022-07-21T06:57:23.190Z</time>
      </trkpt>
      <trkpt lat="44.20562" lon="0.88521">
        <ele>104</ele>
        <time>2022-07-21T06:57:24.190Z</time>
      </trkpt>
      <trkpt lat="44.20562" lon="0.8852">
        <ele>104</ele>
        <time>2022-07-21T06:57:25.190Z</time>
      </trkpt>
      <trkpt lat="44.20563" lon="0.88519">
        <ele>104</ele>
        <time>2022-07-21T06:57:26.190Z</time>
      </trkpt>
      <trkpt lat="44.20564" lon="0.88518">
        <ele>104</ele>
        <time>2022-07-21T06:57:27.190Z</time>
      </trkpt>
      <trkpt lat="44.20564" lon="0.88517">
        <ele>105</ele>
        <time>2022-07-21T06:57:28.190Z</time>
      </trkpt>
      <trkpt lat="44.20565" lon="0.88516">
        <ele>104</ele>
        <time>2022-07-21T06:57:29.190Z</time>
      </trkpt>
      <trkpt lat="44.20566" lon="0.88515">
        <ele>104</ele>
        <time>2022-07-21T06:57:30.190Z</time>
      </trkpt>
      <trkpt lat="44.20567" lon="0.88514">
        <ele>105</ele>
        <time>2022-07-21T06:57:31.190Z</time>
      </trkpt>
      <trkpt lat="44.20568" lon="0.88513">
        <ele>105</ele>
        <time>2022-07-21T06:57:32.190Z</time>
      </trkpt>
      <trkpt lat="44.20569" lon="0.88511">
        <ele>105</ele>
        <time>2022-07-21T06:57:33.190Z</time>
      </trkpt>
      <trkpt lat="44.2057" lon="0.8851">
        <ele>104</ele>
        <time>2022-07-21T06:57:34.190Z</time>
      </trkpt>
      <trkpt lat="44.2057" lon="0.88509">
        <ele>105</ele>
        <time>2022-07-21T06:57:35.190Z</time>
      </trkpt>
      <trkpt lat="44.20571" lon="0.88508">
        <ele>105</ele>
        <time>2022-07-21T06:57:36.190Z</time>
      </trkpt>
      <trkpt lat="44.20572" lon="0.88506">
        <ele>105</ele>
        <time>2022-07-21T06:57:37.190Z</time>
      </trkpt>
      <trkpt lat="44.20572" lon="0.88505">
        <ele>105</ele>
        <time>2022-07-21T06:57:38.190Z</time>
      </trkpt>
      <trkpt lat="44.20573" lon="0.88503">
        <ele>105</ele>
        <time>2022-07-21T06:57:39.190Z</time>
      </trkpt>
      <trkpt lat="44.20573" lon="0.88502">
        <ele>105</ele>
        <time>2022-07-21T06:57:40.190Z</time>
      </trkpt>
      <trkpt lat="44.20574" lon="0.88501">
        <ele>105</ele>
        <time>2022-07-21T06:57:41.190Z</time>
      </trkpt>
      <trkpt lat="44.20575" lon="0.885">
        <ele>105</ele>
        <time>2022-07-21T06:57:42.190Z</time>
      </trkpt>
      <trkpt lat="44.20575" lon="0.88499">
        <ele>105</ele>
        <time>2022-07-21T06:57:43.190Z</time>
      </trkpt>
      <trkpt lat="44.20576" lon="0.88498">
        <ele>105</ele>
        <time>2022-07-21T06:57:44.190Z</time>
      </trkpt>
      <trkpt lat="44.20577" lon="0.88496">
        <ele>104</ele>
        <time>2022-07-21T06:57:45.190Z</time>
      </trkpt>
      <trkpt lat="44.20578" lon="0.88495">
        <ele>105</ele>
        <time>2022-07-21T06:57:46.190Z</time>
      </trkpt>
      <trkpt lat="44.20579" lon="0.88493">
        <ele>105</ele>
        <time>2022-07-21T06:57:47.190Z</time>
      </trkpt>
      <trkpt lat="44.2058" lon="0.88492">
        <ele>105</ele>
        <time>2022-07-21T06:57:48.190Z</time>
      </trkpt>
      <trkpt lat="44.20581" lon="0.88491">
        <ele>105</ele>
        <time>2022-07-21T06:57:49.190Z</time>
      </trkpt>
      <trkpt lat="44.20581" lon="0.8849">
        <ele>105</ele>
        <time>2022-07-21T06:57:50.190Z</time>
      </trkpt>
      <trkpt lat="44.20582" lon="0.88488">
        <ele>105</ele>
        <time>2022-07-21T06:57:51.190Z</time>
      </trkpt>
      <trkpt lat="44.20582" lon="0.88487">
        <ele>105</ele>
        <time>2022-07-21T06:57:52.190Z</time>
      </trkpt>
      <trkpt lat="44.20583" lon="0.88485">
        <ele>106</ele>
        <time>2022-07-21T06:57:53.190Z</time>
      </trkpt>
      <trkpt lat="44.20583" lon="0.88484">
        <ele>106</ele>
        <time>2022-07-21T06:57:54.190Z</time>
      </trkpt>
      <trkpt lat="44.20584" lon="0.88483">
        <ele>106</ele>
        <time>2022-07-21T06:57:55.190Z</time>
      </trkpt>
      <trkpt lat="44.20585" lon="0.88481">
        <ele>105</ele>
        <time>2022-07-21T06:57:56.190Z</time>
      </trkpt>
      <trkpt lat="44.20586" lon="0.8848">
        <ele>105</ele>
        <time>2022-07-21T06:57:57.190Z</time>
      </trkpt>
      <trkpt lat="44.20586" lon="0.88478">
        <ele>105</ele>
        <time>2022-07-21T06:57:58.190Z</time>
      </trkpt>
      <trkpt lat="44.20587" lon="0.88477">
        <ele>105</ele>
        <time>2022-07-21T06:57:59.190Z</time>
      </trkpt>
      <trkpt lat="44.20588" lon="0.88476">
        <ele>105</ele>
        <time>2022-07-21T06:58:00.190Z</time>
      </trkpt>
      <trkpt lat="44.20588" lon="0.88474">
        <ele>104</ele>
        <time>2022-07-21T06:58:01.190Z</time>
      </trkpt>
      <trkpt lat="44.20589" lon="0.88473">
        <ele>104</ele>
        <time>2022-07-21T06:58:02.190Z</time>
      </trkpt>
      <trkpt lat="44.2059" lon="0.88472">
        <ele>104</ele>
        <time>2022-07-21T06:58:03.190Z</time>
      </trkpt>
      <trkpt lat="44.20591" lon="0.8847">
        <ele>104</ele>
        <time>2022-07-21T06:58:04.190Z</time>
      </trkpt>
      <trkpt lat="44.20592" lon="0.88469">
        <ele>104</ele>
        <time>2022-07-21T06:58:05.190Z</time>
      </trkpt>
      <trkpt lat="44.20592" lon="0.88468">
        <ele>104</ele>
        <time>2022-07-21T06:58:06.190Z</time>
      </trkpt>
      <trkpt lat="44.20593" lon="0.88466">
        <ele>104</ele>
        <time>2022-07-21T06:58:07.190Z</time>
      </trkpt>
      <trkpt lat="44.20594" lon="0.88465">
        <ele>103</ele>
        <time>2022-07-21T06:58:08.190Z</time>
      </trkpt>
      <trkpt lat="44.20595" lon="0.88464">
        <ele>104</ele>
        <time>2022-07-21T06:58:09.190Z</time>
      </trkpt>
      <trkpt lat="44.20595" lon="0.88463">
        <ele>103</ele>
        <time>2022-07-21T06:58:10.190Z</time>
      </trkpt>
      <trkpt lat="44.20596" lon="0.88461">
        <ele>103</ele>
        <time>2022-07-21T06:58:11.190Z</time>
      </trkpt>
      <trkpt lat="44.20597" lon="0.8846">
        <ele>103</ele>
        <time>2022-07-21T06:58:12.190Z</time>
      </trkpt>
      <trkpt lat="44.20598" lon="0.88459">
        <ele>103</ele>
        <time>2022-07-21T06:58:13.190Z</time>
      </trkpt>
      <trkpt lat="44.20599" lon="0.88458">
        <ele>103</ele>
        <time>2022-07-21T06:58:14.190Z</time>
      </trkpt>
      <trkpt lat="44.206" lon="0.88456">
        <ele>103</ele>
        <time>2022-07-21T06:58:15.190Z</time>
      </trkpt>
      <trkpt lat="44.20601" lon="0.88455">
        <ele>103</ele>
        <time>2022-07-21T06:58:16.190Z</time>
      </trkpt>
      <trkpt lat="44.20602" lon="0.88454">
        <ele>103</ele>
        <time>2022-07-21T06:58:17.190Z</time>
      </trkpt>
      <trkpt lat="44.20603" lon="0.88453">
        <ele>102</ele>
        <time>2022-07-21T06:58:18.190Z</time>
      </trkpt>
      <trkpt lat="44.20604" lon="0.88452">
        <ele>102</ele>
        <time>2022-07-21T06:58:19.190Z</time>
      </trkpt>
      <trkpt lat="44.20604" lon="0.88451">
        <ele>102</ele>
        <time>2022-07-21T06:58:20.190Z</time>
      </trkpt>
      <trkpt lat="44.20605" lon="0.8845">
        <ele>102</ele>
        <time>2022-07-21T06:58:21.190Z</time>
      </trkpt>
      <trkpt lat="44.20606" lon="0.88448">
        <ele>102</ele>
        <time>2022-07-21T06:58:22.190Z</time>
      </trkpt>
      <trkpt lat="44.20607" lon="0.88447">
        <ele>102</ele>
        <time>2022-07-21T06:58:23.190Z</time>
      </trkpt>
      <trkpt lat="44.20608" lon="0.88446">
        <ele>101</ele>
        <time>2022-07-21T06:58:24.190Z</time>
      </trkpt>
      <trkpt lat="44.20609" lon="0.88445">
        <ele>101</ele>
        <time>2022-07-21T06:58:25.190Z</time>
      </trkpt>
      <trkpt lat="44.20609" lon="0.88444">
        <ele>101</ele>
        <time>2022-07-21T06:58:26.190Z</time>
      </trkpt>
      <trkpt lat="44.2061" lon="0.88443">
        <ele>100</ele>
        <time>2022-07-21T06:58:27.190Z</time>
      </trkpt>
      <trkpt lat="44.20611" lon="0.88442">
        <ele>100</ele>
        <time>2022-07-21T06:58:28.190Z</time>
      </trkpt>
      <trkpt lat="44.20612" lon="0.88441">
        <ele>100</ele>
        <time>2022-07-21T06:58:29.190Z</time>
      </trkpt>
      <trkpt lat="44.20613" lon="0.8844">
        <ele>100</ele>
        <time>2022-07-21T06:58:30.190Z</time>
      </trkpt>
      <trkpt lat="44.20614" lon="0.88439">
        <ele>100</ele>
        <time>2022-07-21T06:58:31.190Z</time>
      </trkpt>
      <trkpt lat="44.20615" lon="0.88438">
        <ele>101</ele>
        <time>2022-07-21T06:58:32.190Z</time>
      </trkpt>
      <trkpt lat="44.20615" lon="0.88437">
        <ele>100</ele>
        <time>2022-07-21T06:58:33.190Z</time>
      </trkpt>
      <trkpt lat="44.20616" lon="0.88436">
        <ele>100</ele>
        <time>2022-07-21T06:58:34.190Z</time>
      </trkpt>
      <trkpt lat="44.20617" lon="0.88435">
        <ele>100</ele>
        <time>2022-07-21T06:58:35.190Z</time>
      </trkpt>
      <trkpt lat="44.20618" lon="0.88434">
        <ele>101</ele>
        <time>2022-07-21T06:58:36.190Z</time>
      </trkpt>
      <trkpt lat="44.20618" lon="0.88432">
        <ele>101</ele>
        <time>2022-07-21T06:58:37.190Z</time>
      </trkpt>
      <trkpt lat="44.20619" lon="0.88431">
        <ele>101</ele>
        <time>2022-07-21T06:58:38.190Z</time>
      </trkpt>
      <trkpt lat="44.2062" lon="0.8843">
        <ele>101</ele>
        <time>2022-07-21T06:58:39.190Z</time>
      </trkpt>
      <trkpt lat="44.20621" lon="0.88428">
        <ele>102</ele>
        <time>2022-07-21T06:58:40.190Z</time>
      </trkpt>
      <trkpt lat="44.20622" lon="0.88427">
        <ele>102</ele>
        <time>2022-07-21T06:58:41.190Z</time>
      </trkpt>
      <trkpt lat="44.20622" lon="0.88426">
        <ele>102</ele>
        <time>2022-07-21T06:58:42.190Z</time>
      </trkpt>
      <trkpt lat="44.20623" lon="0.88425">
        <ele>103</ele>
        <time>2022-07-21T06:58:43.190Z</time>
      </trkpt>
      <trkpt lat="44.20623" lon="0.88424">
        <ele>103</ele>
        <time>2022-07-21T06:58:44.190Z</time>
      </trkpt>
      <trkpt lat="44.20624" lon="0.88423">
        <ele>103</ele>
        <time>2022-07-21T06:58:45.190Z</time>
      </trkpt>
      <trkpt lat="44.20625" lon="0.88422">
        <ele>103</ele>
        <time>2022-07-21T06:58:46.190Z</time>
      </trkpt>
      <trkpt lat="44.20626" lon="0.88421">
        <ele>103</ele>
        <time>2022-07-21T06:58:47.190Z</time>
      </trkpt>
      <trkpt lat="44.20627" lon="0.8842">
        <ele>103</ele>
        <time>2022-07-21T06:58:48.190Z</time>
      </trkpt>
      <trkpt lat="44.20627" lon="0.88419">
        <ele>104</ele>
        <time>2022-07-21T06:58:49.190Z</time>
      </trkpt>
      <trkpt lat="44.20628" lon="0.88418">
        <ele>104</ele>
        <time>2022-07-21T06:58:50.190Z</time>
      </trkpt>
      <trkpt lat="44.20628" lon="0.88417">
        <ele>105</ele>
        <time>2022-07-21T06:58:51.190Z</time>
      </trkpt>
      <trkpt lat="44.20629" lon="0.88416">
        <ele>104</ele>
        <time>2022-07-21T06:58:52.190Z</time>
      </trkpt>
      <trkpt lat="44.2063" lon="0.88415">
        <ele>104</ele>
        <time>2022-07-21T06:58:53.190Z</time>
      </trkpt>
      <trkpt lat="44.20631" lon="0.88414">
        <ele>105</ele>
        <time>2022-07-21T06:58:54.190Z</time>
      </trkpt>
      <trkpt lat="44.20632" lon="0.88413">
        <ele>105</ele>
        <time>2022-07-21T06:58:55.190Z</time>
      </trkpt>
      <trkpt lat="44.20632" lon="0.88412">
        <ele>105</ele>
        <time>2022-07-21T06:58:56.190Z</time>
      </trkpt>
      <trkpt lat="44.20633" lon="0.88411">
        <ele>105</ele>
        <time>2022-07-21T06:58:57.190Z</time>
      </trkpt>
      <trkpt lat="44.20633" lon="0.8841">
        <ele>104</ele>
        <time>2022-07-21T06:58:58.190Z</time>
      </trkpt>
      <trkpt lat="44.20634" lon="0.88409">
        <ele>104</ele>
        <time>2022-07-21T06:58:59.190Z</time>
      </trkpt>
      <trkpt lat="44.20635" lon="0.88408">
        <ele>104</ele>
        <time>2022-07-21T06:59:00.190Z</time>
      </trkpt>
      <trkpt lat="44.20636" lon="0.88407">
        <ele>105</ele>
        <time>2022-07-21T06:59:01.190Z</time>
      </trkpt>
      <trkpt lat="44.20637" lon="0.88406">
        <ele>105</ele>
        <time>2022-07-21T06:59:02.190Z</time>
      </trkpt>
      <trkpt lat="44.20638" lon="0.88405">
        <ele>105</ele>
        <time>2022-07-21T06:59:03.190Z</time>
      </trkpt>
      <trkpt lat="44.20639" lon="0.88404">
        <ele>105</ele>
        <time>2022-07-21T06:59:04.190Z</time>
      </trkpt>
      <trkpt lat="44.2064" lon="0.88403">
        <ele>105</ele>
        <time>2022-07-21T06:59:05.190Z</time>
      </trkpt>
      <trkpt lat="44.20641" lon="0.88401">
        <ele>104</ele>
        <time>2022-07-21T06:59:06.190Z</time>
      </trkpt>
      <trkpt lat="44.20642" lon="0.884">
        <ele>104</ele>
        <time>2022-07-21T06:59:07.190Z</time>
      </trkpt>
      <trkpt lat="44.20643" lon="0.88399">
        <ele>104</ele>
        <time>2022-07-21T06:59:08.190Z</time>
      </trkpt>
      <trkpt lat="44.20644" lon="0.88398">
        <ele>105</ele>
        <time>2022-07-21T06:59:09.190Z</time>
      </trkpt>
      <trkpt lat="44.20645" lon="0.88397">
        <ele>104</ele>
        <time>2022-07-21T06:59:10.190Z</time>
      </trkpt>
      <trkpt lat="44.20646" lon="0.88396">
        <ele>104</ele>
        <time>2022-07-21T06:59:11.190Z</time>
      </trkpt>
      <trkpt lat="44.20647" lon="0.88395">
        <ele>104</ele>
        <time>2022-07-21T06:59:12.190Z</time>
      </trkpt>
      <trkpt lat="44.20648" lon="0.88393">
        <ele>105</ele>
        <time>2022-07-21T06:59:13.190Z</time>
      </trkpt>
      <trkpt lat="44.20648" lon="0.88393">
        <ele>105</ele>
        <time>2022-07-21T06:59:14.190Z</time>
      </trkpt>
      <trkpt lat="44.20649" lon="0.88392">
        <ele>105</ele>
        <time>2022-07-21T06:59:15.190Z</time>
      </trkpt>
      <trkpt lat="44.20649" lon="0.88391">
        <ele>105</ele>
        <time>2022-07-21T06:59:16.190Z</time>
      </trkpt>
      <trkpt lat="44.2065" lon="0.8839">
        <ele>105</ele>
        <time>2022-07-21T06:59:17.190Z</time>
      </trkpt>
      <trkpt lat="44.20651" lon="0.88389">
        <ele>105</ele>
        <time>2022-07-21T06:59:18.190Z</time>
      </trkpt>
      <trkpt lat="44.20651" lon="0.88388">
        <ele>105</ele>
        <time>2022-07-21T06:59:19.190Z</time>
      </trkpt>
      <trkpt lat="44.20652" lon="0.88388">
        <ele>106</ele>
        <time>2022-07-21T06:59:20.190Z</time>
      </trkpt>
      <trkpt lat="44.20653" lon="0.88387">
        <ele>105</ele>
        <time>2022-07-21T06:59:21.190Z</time>
      </trkpt>
      <trkpt lat="44.20653" lon="0.88387">
        <ele>105</ele>
        <time>2022-07-21T06:59:22.190Z</time>
      </trkpt>
      <trkpt lat="44.20654" lon="0.88386">
        <ele>106</ele>
        <time>2022-07-21T06:59:23.190Z</time>
      </trkpt>
      <trkpt lat="44.20654" lon="0.88385">
        <ele>106</ele>
        <time>2022-07-21T06:59:24.190Z</time>
      </trkpt>
      <trkpt lat="44.20655" lon="0.88384">
        <ele>106</ele>
        <time>2022-07-21T06:59:25.190Z</time>
      </trkpt>
      <trkpt lat="44.20656" lon="0.88383">
        <ele>106</ele>
        <time>2022-07-21T06:59:26.190Z</time>
      </trkpt>
      <trkpt lat="44.20656" lon="0.88382">
        <ele>106</ele>
        <time>2022-07-21T06:59:27.190Z</time>
      </trkpt>
      <trkpt lat="44.20657" lon="0.88381">
        <ele>106</ele>
        <time>2022-07-21T06:59:28.190Z</time>
      </trkpt>
      <trkpt lat="44.20658" lon="0.8838">
        <ele>106</ele>
        <time>2022-07-21T06:59:29.190Z</time>
      </trkpt>
      <trkpt lat="44.20658" lon="0.88379">
        <ele>106</ele>
        <time>2022-07-21T06:59:30.190Z</time>
      </trkpt>
      <trkpt lat="44.20659" lon="0.88379">
        <ele>106</ele>
        <time>2022-07-21T06:59:31.190Z</time>
      </trkpt>
      <trkpt lat="44.20661" lon="0.88378">
        <ele>106</ele>
        <time>2022-07-21T06:59:32.190Z</time>
      </trkpt>
      <trkpt lat="44.20662" lon="0.88377">
        <ele>106</ele>
        <time>2022-07-21T06:59:33.190Z</time>
      </trkpt>
      <trkpt lat="44.20663" lon="0.88376">
        <ele>105</ele>
        <time>2022-07-21T06:59:34.190Z</time>
      </trkpt>
      <trkpt lat="44.20664" lon="0.88375">
        <ele>105</ele>
        <time>2022-07-21T06:59:35.190Z</time>
      </trkpt>
      <trkpt lat="44.20665" lon="0.88374">
        <ele>105</ele>
        <time>2022-07-21T06:59:36.190Z</time>
      </trkpt>
      <trkpt lat="44.20666" lon="0.88374">
        <ele>104</ele>
        <time>2022-07-21T06:59:37.190Z</time>
      </trkpt>
      <trkpt lat="44.20666" lon="0.88373">
        <ele>104</ele>
        <time>2022-07-21T06:59:38.190Z</time>
      </trkpt>
      <trkpt lat="44.20667" lon="0.88372">
        <ele>105</ele>
        <time>2022-07-21T06:59:39.190Z</time>
      </trkpt>
      <trkpt lat="44.20667" lon="0.88372">
        <ele>105</ele>
        <time>2022-07-21T06:59:40.190Z</time>
      </trkpt>
      <trkpt lat="44.20668" lon="0.88371">
        <ele>105</ele>
        <time>2022-07-21T06:59:41.190Z</time>
      </trkpt>
      <trkpt lat="44.20669" lon="0.8837">
        <ele>105</ele>
        <time>2022-07-21T06:59:42.190Z</time>
      </trkpt>
      <trkpt lat="44.2067" lon="0.88369">
        <ele>105</ele>
        <time>2022-07-21T06:59:43.190Z</time>
      </trkpt>
      <trkpt lat="44.20672" lon="0.88367">
        <ele>104</ele>
        <time>2022-07-21T06:59:44.190Z</time>
      </trkpt>
      <trkpt lat="44.20673" lon="0.88366">
        <ele>104</ele>
        <time>2022-07-21T06:59:45.190Z</time>
      </trkpt>
      <trkpt lat="44.20675" lon="0.88365">
        <ele>104</ele>
        <time>2022-07-21T06:59:46.190Z</time>
      </trkpt>
      <trkpt lat="44.20676" lon="0.88364">
        <ele>104</ele>
        <time>2022-07-21T06:59:47.190Z</time>
      </trkpt>
      <trkpt lat="44.20677" lon="0.88363">
        <ele>104</ele>
        <time>2022-07-21T06:59:48.190Z</time>
      </trkpt>
      <trkpt lat="44.20678" lon="0.88362">
        <ele>104</ele>
        <time>2022-07-21T06:59:49.190Z</time>
      </trkpt>
      <trkpt lat="44.20679" lon="0.88361">
        <ele>103</ele>
        <time>2022-07-21T06:59:50.190Z</time>
      </trkpt>
      <trkpt lat="44.20679" lon="0.88361">
        <ele>103</ele>
        <time>2022-07-21T06:59:51.190Z</time>
      </trkpt>
      <trkpt lat="44.2068" lon="0.8836">
        <ele>103</ele>
        <time>2022-07-21T06:59:52.190Z</time>
      </trkpt>
      <trkpt lat="44.20681" lon="0.88359">
        <ele>102</ele>
        <time>2022-07-21T06:59:53.190Z</time>
      </trkpt>
      <trkpt lat="44.20682" lon="0.88359">
        <ele>102</ele>
        <time>2022-07-21T06:59:54.190Z</time>
      </trkpt>
      <trkpt lat="44.20683" lon="0.88358">
        <ele>102</ele>
        <time>2022-07-21T06:59:55.190Z</time>
      </trkpt>
      <trkpt lat="44.20684" lon="0.88358">
        <ele>101</ele>
        <time>2022-07-21T06:59:56.190Z</time>
      </trkpt>
      <trkpt lat="44.20684" lon="0.88357">
        <ele>102</ele>
        <time>2022-07-21T06:59:57.190Z</time>
      </trkpt>
      <trkpt lat="44.20685" lon="0.88356">
        <ele>100</ele>
        <time>2022-07-21T06:59:58.190Z</time>
      </trkpt>
      <trkpt lat="44.20686" lon="0.88356">
        <ele>100</ele>
        <time>2022-07-21T06:59:59.190Z</time>
      </trkpt>
      <trkpt lat="44.20687" lon="0.88355">
        <ele>100</ele>
        <time>2022-07-21T07:00:00.190Z</time>
      </trkpt>
      <trkpt lat="44.20688" lon="0.88353">
        <ele>102</ele>
        <time>2022-07-21T07:00:01.190Z</time>
      </trkpt>
      <trkpt lat="44.20689" lon="0.88352">
        <ele>103</ele>
        <time>2022-07-21T07:00:02.190Z</time>
      </trkpt>
      <trkpt lat="44.2069" lon="0.8835">
        <ele>103</ele>
        <time>2022-07-21T07:00:03.190Z</time>
      </trkpt>
      <trkpt lat="44.20691" lon="0.88349">
        <ele>103</ele>
        <time>2022-07-21T07:00:04.190Z</time>
      </trkpt>
      <trkpt lat="44.20692" lon="0.88348">
        <ele>103</ele>
        <time>2022-07-21T07:00:05.190Z</time>
      </trkpt>
      <trkpt lat="44.20694" lon="0.88347">
        <ele>103</ele>
        <time>2022-07-21T07:00:06.190Z</time>
      </trkpt>
      <trkpt lat="44.20695" lon="0.88346">
        <ele>103</ele>
        <time>2022-07-21T07:00:07.190Z</time>
      </trkpt>
      <trkpt lat="44.20696" lon="0.88345">
        <ele>103</ele>
        <time>2022-07-21T07:00:08.190Z</time>
      </trkpt>
      <trkpt lat="44.20697" lon="0.88345">
        <ele>103</ele>
        <time>2022-07-21T07:00:09.190Z</time>
      </trkpt>
      <trkpt lat="44.20698" lon="0.88344">
        <ele>103</ele>
        <time>2022-07-21T07:00:10.190Z</time>
      </trkpt>
      <trkpt lat="44.207" lon="0.88344">
        <ele>103</ele>
        <time>2022-07-21T07:00:11.190Z</time>
      </trkpt>
      <trkpt lat="44.207" lon="0.88343">
        <ele>103</ele>
        <time>2022-07-21T07:00:12.190Z</time>
      </trkpt>
      <trkpt lat="44.20701" lon="0.88342">
        <ele>103</ele>
        <time>2022-07-21T07:00:13.190Z</time>
      </trkpt>
      <trkpt lat="44.20702" lon="0.88342">
        <ele>103</ele>
        <time>2022-07-21T07:00:14.190Z</time>
      </trkpt>
      <trkpt lat="44.20703" lon="0.88342">
        <ele>103</ele>
        <time>2022-07-21T07:00:15.190Z</time>
      </trkpt>
      <trkpt lat="44.20704" lon="0.88341">
        <ele>103</ele>
        <time>2022-07-21T07:00:16.190Z</time>
      </trkpt>
      <trkpt lat="44.20704" lon="0.88341">
        <ele>102</ele>
        <time>2022-07-21T07:00:17.190Z</time>
      </trkpt>
      <trkpt lat="44.20705" lon="0.8834">
        <ele>102</ele>
        <time>2022-07-21T07:00:18.190Z</time>
      </trkpt>
      <trkpt lat="44.20706" lon="0.8834">
        <ele>102</ele>
        <time>2022-07-21T07:00:19.190Z</time>
      </trkpt>
      <trkpt lat="44.20706" lon="0.8834">
        <ele>102</ele>
        <time>2022-07-21T07:00:20.190Z</time>
      </trkpt>
      <trkpt lat="44.20707" lon="0.88339">
        <ele>102</ele>
        <time>2022-07-21T07:00:21.190Z</time>
      </trkpt>
      <trkpt lat="44.20709" lon="0.88339">
        <ele>102</ele>
        <time>2022-07-21T07:00:22.190Z</time>
      </trkpt>
      <trkpt lat="44.2071" lon="0.88338">
        <ele>102</ele>
        <time>2022-07-21T07:00:23.190Z</time>
      </trkpt>
      <trkpt lat="44.20711" lon="0.88337">
        <ele>103</ele>
        <time>2022-07-21T07:00:24.190Z</time>
      </trkpt>
      <trkpt lat="44.20713" lon="0.88336">
        <ele>103</ele>
        <time>2022-07-21T07:00:25.190Z</time>
      </trkpt>
      <trkpt lat="44.20714" lon="0.88335">
        <ele>101</ele>
        <time>2022-07-21T07:00:26.190Z</time>
      </trkpt>
      <trkpt lat="44.20715" lon="0.88334">
        <ele>102</ele>
        <time>2022-07-21T07:00:27.190Z</time>
      </trkpt>
      <trkpt lat="44.20717" lon="0.88334">
        <ele>102</ele>
        <time>2022-07-21T07:00:28.190Z</time>
      </trkpt>
      <trkpt lat="44.20718" lon="0.88333">
        <ele>102</ele>
        <time>2022-07-21T07:00:29.190Z</time>
      </trkpt>
      <trkpt lat="44.20719" lon="0.88332">
        <ele>101</ele>
        <time>2022-07-21T07:00:30.190Z</time>
      </trkpt>
      <trkpt lat="44.2072" lon="0.88332">
        <ele>101</ele>
        <time>2022-07-21T07:00:31.190Z</time>
      </trkpt>
      <trkpt lat="44.20721" lon="0.88331">
        <ele>102</ele>
        <time>2022-07-21T07:00:32.190Z</time>
      </trkpt>
      <trkpt lat="44.20722" lon="0.88331">
        <ele>102</ele>
        <time>2022-07-21T07:00:33.190Z</time>
      </trkpt>
      <trkpt lat="44.20724" lon="0.8833">
        <ele>102</ele>
        <time>2022-07-21T07:00:34.190Z</time>
      </trkpt>
      <trkpt lat="44.20725" lon="0.88329">
        <ele>102</ele>
        <time>2022-07-21T07:00:35.190Z</time>
      </trkpt>
      <trkpt lat="44.20726" lon="0.88329">
        <ele>101</ele>
        <time>2022-07-21T07:00:36.190Z</time>
      </trkpt>
      <trkpt lat="44.20728" lon="0.88329">
        <ele>102</ele>
        <time>2022-07-21T07:00:37.190Z</time>
      </trkpt>
      <trkpt lat="44.20729" lon="0.88328">
        <ele>102</ele>
        <time>2022-07-21T07:00:38.190Z</time>
      </trkpt>
      <trkpt lat="44.2073" lon="0.88328">
        <ele>102</ele>
        <time>2022-07-21T07:00:39.190Z</time>
      </trkpt>
      <trkpt lat="44.20732" lon="0.88327">
        <ele>102</ele>
        <time>2022-07-21T07:00:40.190Z</time>
      </trkpt>
      <trkpt lat="44.20733" lon="0.88326">
        <ele>103</ele>
        <time>2022-07-21T07:00:41.190Z</time>
      </trkpt>
      <trkpt lat="44.20734" lon="0.88326">
        <ele>103</ele>
        <time>2022-07-21T07:00:42.190Z</time>
      </trkpt>
      <trkpt lat="44.20735" lon="0.88325">
        <ele>103</ele>
        <time>2022-07-21T07:00:43.190Z</time>
      </trkpt>
      <trkpt lat="44.20736" lon="0.88325">
        <ele>103</ele>
        <time>2022-07-21T07:00:44.190Z</time>
      </trkpt>
      <trkpt lat="44.20737" lon="0.88324">
        <ele>103</ele>
        <time>2022-07-21T07:00:45.190Z</time>
      </trkpt>
      <trkpt lat="44.20738" lon="0.88324">
        <ele>104</ele>
        <time>2022-07-21T07:00:46.190Z</time>
      </trkpt>
      <trkpt lat="44.20739" lon="0.88323">
        <ele>104</ele>
        <time>2022-07-21T07:00:47.190Z</time>
      </trkpt>
      <trkpt lat="44.2074" lon="0.88323">
        <ele>104</ele>
        <time>2022-07-21T07:00:48.190Z</time>
      </trkpt>
      <trkpt lat="44.20741" lon="0.88322">
        <ele>105</ele>
        <time>2022-07-21T07:00:49.190Z</time>
      </trkpt>
      <trkpt lat="44.20742" lon="0.88322">
        <ele>105</ele>
        <time>2022-07-21T07:00:50.190Z</time>
      </trkpt>
      <trkpt lat="44.20743" lon="0.88321">
        <ele>105</ele>
        <time>2022-07-21T07:00:51.190Z</time>
      </trkpt>
      <trkpt lat="44.20744" lon="0.8832">
        <ele>106</ele>
        <time>2022-07-21T07:00:52.190Z</time>
      </trkpt>
      <trkpt lat="44.20745" lon="0.8832">
        <ele>106</ele>
        <time>2022-07-21T07:00:53.190Z</time>
      </trkpt>
      <trkpt lat="44.20746" lon="0.88319">
        <ele>106</ele>
        <time>2022-07-21T07:00:54.190Z</time>
      </trkpt>
      <trkpt lat="44.20747" lon="0.88319">
        <ele>106</ele>
        <time>2022-07-21T07:00:55.190Z</time>
      </trkpt>
      <trkpt lat="44.20748" lon="0.88318">
        <ele>105</ele>
        <time>2022-07-21T07:00:56.190Z</time>
      </trkpt>
      <trkpt lat="44.20749" lon="0.88317">
        <ele>106</ele>
        <time>2022-07-21T07:00:57.190Z</time>
      </trkpt>
      <trkpt lat="44.2075" lon="0.88317">
        <ele>106</ele>
        <time>2022-07-21T07:00:58.190Z</time>
      </trkpt>
      <trkpt lat="44.20751" lon="0.88316">
        <ele>106</ele>
        <time>2022-07-21T07:00:59.190Z</time>
      </trkpt>
      <trkpt lat="44.20752" lon="0.88315">
        <ele>106</ele>
        <time>2022-07-21T07:01:00.190Z</time>
      </trkpt>
      <trkpt lat="44.20753" lon="0.88315">
        <ele>106</ele>
        <time>2022-07-21T07:01:01.190Z</time>
      </trkpt>
      <trkpt lat="44.20754" lon="0.88314">
        <ele>106</ele>
        <time>2022-07-21T07:01:02.190Z</time>
      </trkpt>
      <trkpt lat="44.20755" lon="0.88314">
        <ele>105</ele>
        <time>2022-07-21T07:01:03.190Z</time>
      </trkpt>
      <trkpt lat="44.20756" lon="0.88313">
        <ele>105</ele>
        <time>2022-07-21T07:01:04.190Z</time>
      </trkpt>
      <trkpt lat="44.20756" lon="0.88313">
        <ele>105</ele>
        <time>2022-07-21T07:01:05.190Z</time>
      </trkpt>
      <trkpt lat="44.20757" lon="0.88312">
        <ele>105</ele>
        <time>2022-07-21T07:01:06.190Z</time>
      </trkpt>
      <trkpt lat="44.20757" lon="0.88312">
        <ele>105</ele>
        <time>2022-07-21T07:01:07.190Z</time>
      </trkpt>
      <trkpt lat="44.20757" lon="0.88311">
        <ele>105</ele>
        <time>2022-07-21T07:01:08.190Z</time>
      </trkpt>
      <trkpt lat="44.20758" lon="0.8831">
        <ele>105</ele>
        <time>2022-07-21T07:01:09.190Z</time>
      </trkpt>
      <trkpt lat="44.20758" lon="0.8831">
        <ele>105</ele>
        <time>2022-07-21T07:01:10.190Z</time>
      </trkpt>
      <trkpt lat="44.20758" lon="0.8831">
        <ele>105</ele>
        <time>2022-07-21T07:01:11.190Z</time>
      </trkpt>
      <trkpt lat="44.20758" lon="0.8831">
        <ele>105</ele>
        <time>2022-07-21T07:01:12.190Z</time>
      </trkpt>
      <trkpt lat="44.20759" lon="0.88311">
        <ele>104</ele>
        <time>2022-07-21T07:01:13.190Z</time>
      </trkpt>
      <trkpt lat="44.20759" lon="0.88311">
        <ele>104</ele>
        <time>2022-07-21T07:01:14.190Z</time>
      </trkpt>
      <trkpt lat="44.2076" lon="0.88311">
        <ele>104</ele>
        <time>2022-07-21T07:01:15.190Z</time>
      </trkpt>
      <trkpt lat="44.2076" lon="0.88312">
        <ele>104</ele>
        <time>2022-07-21T07:01:16.190Z</time>
      </trkpt>
      <trkpt lat="44.2076" lon="0.88312">
        <ele>104</ele>
        <time>2022-07-21T07:01:17.190Z</time>
      </trkpt>
      <trkpt lat="44.2076" lon="0.88312">
        <ele>104</ele>
        <time>2022-07-21T07:01:18.190Z</time>
      </trkpt>
      <trkpt lat="44.2076" lon="0.88312">
        <ele>104</ele>
        <time>2022-07-21T07:01:19.190Z</time>
      </trkpt>
      <trkpt lat="44.2076" lon="0.88313">
        <ele>104</ele>
        <time>2022-07-21T07:01:20.190Z</time>
      </trkpt>
      <trkpt lat="44.2076" lon="0.88313">
        <ele>104</ele>
        <time>2022-07-21T07:01:21.190Z</time>
      </trkpt>
      <trkpt lat="44.20757" lon="0.88313">
        <ele>106</ele>
        <time>2022-07-21T07:01:39.194Z</time>
      </trkpt>
      <trkpt lat="44.20756" lon="0.88313">
        <ele>107</ele>
        <time>2022-07-21T07:01:40.194Z</time>
      </trkpt>
      <trkpt lat="44.20756" lon="0.88313">
        <ele>107</ele>
        <time>2022-07-21T07:01:41.194Z</time>
      </trkpt>
      <trkpt lat="44.20756" lon="0.88313">
        <ele>107</ele>
        <time>2022-07-21T07:01:42.194Z</time>
      </trkpt>
      <trkpt lat="44.20756" lon="0.88313">
        <ele>107</ele>
        <time>2022-07-21T07:01:43.194Z</time>
      </trkpt>
      <trkpt lat="44.20756" lon="0.88313">
        <ele>107</ele>
        <time>2022-07-21T07:01:44.194Z</time>
      </trkpt>
      <trkpt lat="44.20756" lon="0.88313">
        <ele>106</ele>
        <time>2022-07-21T07:01:45.194Z</time>
      </trkpt>
      <trkpt lat="44.20756" lon="0.88314">
        <ele>106</ele>
        <time>2022-07-21T07:01:46.194Z</time>
      </trkpt>
      <trkpt lat="44.20756" lon="0.88315">
        <ele>106</ele>
        <time>2022-07-21T07:01:47.194Z</time>
      </trkpt>
      <trkpt lat="44.20755" lon="0.88316">
        <ele>106</ele>
        <time>2022-07-21T07:01:48.194Z</time>
      </trkpt>
      <trkpt lat="44.20755" lon="0.88316">
        <ele>106</ele>
        <time>2022-07-21T07:01:49.194Z</time>
      </trkpt>
      <trkpt lat="44.20755" lon="0.88317">
        <ele>106</ele>
        <time>2022-07-21T07:01:50.194Z</time>
      </trkpt>
      <trkpt lat="44.20754" lon="0.88317">
        <ele>106</ele>
        <time>2022-07-21T07:01:51.194Z</time>
      </trkpt>
      <trkpt lat="44.20754" lon="0.88318">
        <ele>106</ele>
        <time>2022-07-21T07:01:52.194Z</time>
      </trkpt>
      <trkpt lat="44.20754" lon="0.88318">
        <ele>106</ele>
        <time>2022-07-21T07:01:53.194Z</time>
      </trkpt>
      <trkpt lat="44.20754" lon="0.88318">
        <ele>106</ele>
        <time>2022-07-21T07:01:54.194Z</time>
      </trkpt>
      <trkpt lat="44.20754" lon="0.88318">
        <ele>106</ele>
        <time>2022-07-21T07:01:55.194Z</time>
      </trkpt>
      <trkpt lat="44.20755" lon="0.88314">
        <ele>108</ele>
        <time>2022-07-21T07:04:47.213Z</time>
      </trkpt>
      <trkpt lat="44.20755" lon="0.88314">
        <ele>108</ele>
        <time>2022-07-21T07:04:48.213Z</time>
      </trkpt>
      <trkpt lat="44.20756" lon="0.88313">
        <ele>108</ele>
        <time>2022-07-21T07:04:49.213Z</time>
      </trkpt>
      <trkpt lat="44.20757" lon="0.88313">
        <ele>108</ele>
        <time>2022-07-21T07:04:50.213Z</time>
      </trkpt>
      <trkpt lat="44.20757" lon="0.88312">
        <ele>107</ele>
        <time>2022-07-21T07:04:51.213Z</time>
      </trkpt>
      <trkpt lat="44.20757" lon="0.88311">
        <ele>108</ele>
        <time>2022-07-21T07:04:52.213Z</time>
      </trkpt>
      <trkpt lat="44.20758" lon="0.8831">
        <ele>108</ele>
        <time>2022-07-21T07:04:53.213Z</time>
      </trkpt>
      <trkpt lat="44.20758" lon="0.88308">
        <ele>108</ele>
        <time>2022-07-21T07:04:54.213Z</time>
      </trkpt>
      <trkpt lat="44.20758" lon="0.88307">
        <ele>107</ele>
        <time>2022-07-21T07:04:55.213Z</time>
      </trkpt>
      <trkpt lat="44.20758" lon="0.88306">
        <ele>107</ele>
        <time>2022-07-21T07:04:56.213Z</time>
      </trkpt>
      <trkpt lat="44.20758" lon="0.88304">
        <ele>107</ele>
        <time>2022-07-21T07:04:57.213Z</time>
      </trkpt>
      <trkpt lat="44.20759" lon="0.88303">
        <ele>107</ele>
        <time>2022-07-21T07:04:58.213Z</time>
      </trkpt>
      <trkpt lat="44.20759" lon="0.88301">
        <ele>107</ele>
        <time>2022-07-21T07:04:59.213Z</time>
      </trkpt>
      <trkpt lat="44.20759" lon="0.883">
        <ele>107</ele>
        <time>2022-07-21T07:05:00.213Z</time>
      </trkpt>
      <trkpt lat="44.2076" lon="0.88299">
        <ele>107</ele>
        <time>2022-07-21T07:05:01.213Z</time>
      </trkpt>
      <trkpt lat="44.2076" lon="0.88298">
        <ele>107</ele>
        <time>2022-07-21T07:05:02.213Z</time>
      </trkpt>
      <trkpt lat="44.2076" lon="0.88297">
        <ele>107</ele>
        <time>2022-07-21T07:05:03.213Z</time>
      </trkpt>
      <trkpt lat="44.2076" lon="0.88296">
        <ele>107</ele>
        <time>2022-07-21T07:05:04.213Z</time>
      </trkpt>
      <trkpt lat="44.2076" lon="0.88294">
        <ele>107</ele>
        <time>2022-07-21T07:05:05.213Z</time>
      </trkpt>
      <trkpt lat="44.20761" lon="0.88293">
        <ele>107</ele>
        <time>2022-07-21T07:05:06.213Z</time>
      </trkpt>
      <trkpt lat="44.20761" lon="0.88291">
        <ele>106</ele>
        <time>2022-07-21T07:05:07.213Z</time>
      </trkpt>
      <trkpt lat="44.20761" lon="0.8829">
        <ele>106</ele>
        <time>2022-07-21T07:05:08.213Z</time>
      </trkpt>
      <trkpt lat="44.20761" lon="0.88289">
        <ele>107</ele>
        <time>2022-07-21T07:05:09.213Z</time>
      </trkpt>
      <trkpt lat="44.20762" lon="0.88287">
        <ele>106</ele>
        <time>2022-07-21T07:05:10.213Z</time>
      </trkpt>
      <trkpt lat="44.20762" lon="0.88286">
        <ele>107</ele>
        <time>2022-07-21T07:05:11.213Z</time>
      </trkpt>
      <trkpt lat="44.20762" lon="0.88285">
        <ele>107</ele>
        <time>2022-07-21T07:05:12.213Z</time>
      </trkpt>
      <trkpt lat="44.20762" lon="0.88283">
        <ele>107</ele>
        <time>2022-07-21T07:05:13.213Z</time>
      </trkpt>
      <trkpt lat="44.20762" lon="0.88282">
        <ele>107</ele>
        <time>2022-07-21T07:05:14.213Z</time>
      </trkpt>
      <trkpt lat="44.20762" lon="0.88281">
        <ele>107</ele>
        <time>2022-07-21T07:05:15.213Z</time>
      </trkpt>
      <trkpt lat="44.20763" lon="0.88279">
        <ele>106</ele>
        <time>2022-07-21T07:05:16.213Z</time>
      </trkpt>
      <trkpt lat="44.20763" lon="0.88278">
        <ele>106</ele>
        <time>2022-07-21T07:05:17.213Z</time>
      </trkpt>
      <trkpt lat="44.20763" lon="0.88276">
        <ele>106</ele>
        <time>2022-07-21T07:05:18.213Z</time>
      </trkpt>
      <trkpt lat="44.20763" lon="0.88275">
        <ele>106</ele>
        <time>2022-07-21T07:05:19.213Z</time>
      </trkpt>
      <trkpt lat="44.20764" lon="0.88273">
        <ele>106</ele>
        <time>2022-07-21T07:05:20.213Z</time>
      </trkpt>
      <trkpt lat="44.20764" lon="0.88272">
        <ele>105</ele>
        <time>2022-07-21T07:05:21.213Z</time>
      </trkpt>
      <trkpt lat="44.20764" lon="0.8827">
        <ele>105</ele>
        <time>2022-07-21T07:05:22.213Z</time>
      </trkpt>
      <trkpt lat="44.20764" lon="0.88269">
        <ele>105</ele>
        <time>2022-07-21T07:05:23.213Z</time>
      </trkpt>
      <trkpt lat="44.20765" lon="0.88267">
        <ele>105</ele>
        <time>2022-07-21T07:05:24.213Z</time>
      </trkpt>
      <trkpt lat="44.20765" lon="0.88266">
        <ele>105</ele>
        <time>2022-07-21T07:05:25.213Z</time>
      </trkpt>
      <trkpt lat="44.20765" lon="0.88264">
        <ele>105</ele>
        <time>2022-07-21T07:05:26.213Z</time>
      </trkpt>
      <trkpt lat="44.20765" lon="0.88262">
        <ele>105</ele>
        <time>2022-07-21T07:05:27.213Z</time>
      </trkpt>
      <trkpt lat="44.20766" lon="0.88261">
        <ele>105</ele>
        <time>2022-07-21T07:05:28.213Z</time>
      </trkpt>
      <trkpt lat="44.20766" lon="0.88259">
        <ele>105</ele>
        <time>2022-07-21T07:05:29.213Z</time>
      </trkpt>
      <trkpt lat="44.20766" lon="0.88257">
        <ele>105</ele>
        <time>2022-07-21T07:05:30.213Z</time>
      </trkpt>
      <trkpt lat="44.20766" lon="0.88256">
        <ele>105</ele>
        <time>2022-07-21T07:05:31.213Z</time>
      </trkpt>
      <trkpt lat="44.20767" lon="0.88254">
        <ele>105</ele>
        <time>2022-07-21T07:05:32.213Z</time>
      </trkpt>
      <trkpt lat="44.20767" lon="0.88253">
        <ele>106</ele>
        <time>2022-07-21T07:05:33.213Z</time>
      </trkpt>
      <trkpt lat="44.20767" lon="0.88252">
        <ele>106</ele>
        <time>2022-07-21T07:05:34.213Z</time>
      </trkpt>
      <trkpt lat="44.20767" lon="0.8825">
        <ele>106</ele>
        <time>2022-07-21T07:05:35.213Z</time>
      </trkpt>
      <trkpt lat="44.20767" lon="0.88249">
        <ele>106</ele>
        <time>2022-07-21T07:05:36.213Z</time>
      </trkpt>
      <trkpt lat="44.20768" lon="0.88248">
        <ele>106</ele>
        <time>2022-07-21T07:05:37.213Z</time>
      </trkpt>
      <trkpt lat="44.20768" lon="0.88246">
        <ele>106</ele>
        <time>2022-07-21T07:05:38.213Z</time>
      </trkpt>
      <trkpt lat="44.20768" lon="0.88245">
        <ele>106</ele>
        <time>2022-07-21T07:05:39.213Z</time>
      </trkpt>
      <trkpt lat="44.20768" lon="0.88243">
        <ele>106</ele>
        <time>2022-07-21T07:05:40.213Z</time>
      </trkpt>
      <trkpt lat="44.20768" lon="0.88242">
        <ele>106</ele>
        <time>2022-07-21T07:05:41.213Z</time>
      </trkpt>
      <trkpt lat="44.20769" lon="0.8824">
        <ele>106</ele>
        <time>2022-07-21T07:05:42.213Z</time>
      </trkpt>
      <trkpt lat="44.20769" lon="0.88239">
        <ele>105</ele>
        <time>2022-07-21T07:05:43.213Z</time>
      </trkpt>
      <trkpt lat="44.20769" lon="0.88237">
        <ele>105</ele>
        <time>2022-07-21T07:05:44.213Z</time>
      </trkpt>
      <trkpt lat="44.20769" lon="0.88235">
        <ele>105</ele>
        <time>2022-07-21T07:05:45.213Z</time>
      </trkpt>
      <trkpt lat="44.20769" lon="0.88234">
        <ele>105</ele>
        <time>2022-07-21T07:05:46.213Z</time>
      </trkpt>
      <trkpt lat="44.20769" lon="0.88232">
        <ele>105</ele>
        <time>2022-07-21T07:05:47.213Z</time>
      </trkpt>
      <trkpt lat="44.2077" lon="0.88231">
        <ele>106</ele>
        <time>2022-07-21T07:05:48.213Z</time>
      </trkpt>
      <trkpt lat="44.2077" lon="0.88229">
        <ele>106</ele>
        <time>2022-07-21T07:05:49.213Z</time>
      </trkpt>
      <trkpt lat="44.2077" lon="0.88228">
        <ele>106</ele>
        <time>2022-07-21T07:05:50.213Z</time>
      </trkpt>
      <trkpt lat="44.20771" lon="0.88226">
        <ele>106</ele>
        <time>2022-07-21T07:05:51.213Z</time>
      </trkpt>
      <trkpt lat="44.20771" lon="0.88225">
        <ele>106</ele>
        <time>2022-07-21T07:05:52.213Z</time>
      </trkpt>
      <trkpt lat="44.20772" lon="0.88223">
        <ele>106</ele>
        <time>2022-07-21T07:05:53.213Z</time>
      </trkpt>
      <trkpt lat="44.20772" lon="0.88222">
        <ele>106</ele>
        <time>2022-07-21T07:05:54.213Z</time>
      </trkpt>
      <trkpt lat="44.20773" lon="0.88221">
        <ele>107</ele>
        <time>2022-07-21T07:05:55.213Z</time>
      </trkpt>
      <trkpt lat="44.20773" lon="0.88219">
        <ele>107</ele>
        <time>2022-07-21T07:05:56.213Z</time>
      </trkpt>
      <trkpt lat="44.20774" lon="0.88218">
        <ele>107</ele>
        <time>2022-07-21T07:05:57.213Z</time>
      </trkpt>
      <trkpt lat="44.20774" lon="0.88217">
        <ele>107</ele>
        <time>2022-07-21T07:05:58.213Z</time>
      </trkpt>
      <trkpt lat="44.20775" lon="0.88215">
        <ele>107</ele>
        <time>2022-07-21T07:05:59.213Z</time>
      </trkpt>
      <trkpt lat="44.20775" lon="0.88214">
        <ele>108</ele>
        <time>2022-07-21T07:06:00.213Z</time>
      </trkpt>
      <trkpt lat="44.20776" lon="0.88212">
        <ele>107</ele>
        <time>2022-07-21T07:06:01.213Z</time>
      </trkpt>
      <trkpt lat="44.20776" lon="0.88211">
        <ele>108</ele>
        <time>2022-07-21T07:06:02.213Z</time>
      </trkpt>
      <trkpt lat="44.20777" lon="0.8821">
        <ele>108</ele>
        <time>2022-07-21T07:06:03.213Z</time>
      </trkpt>
      <trkpt lat="44.20778" lon="0.88208">
        <ele>109</ele>
        <time>2022-07-21T07:06:04.213Z</time>
      </trkpt>
      <trkpt lat="44.20778" lon="0.88207">
        <ele>109</ele>
        <time>2022-07-21T07:06:05.213Z</time>
      </trkpt>
      <trkpt lat="44.20779" lon="0.88206">
        <ele>109</ele>
        <time>2022-07-21T07:06:06.213Z</time>
      </trkpt>
      <trkpt lat="44.20779" lon="0.88204">
        <ele>110</ele>
        <time>2022-07-21T07:06:07.213Z</time>
      </trkpt>
      <trkpt lat="44.2078" lon="0.88203">
        <ele>110</ele>
        <time>2022-07-21T07:06:08.213Z</time>
      </trkpt>
      <trkpt lat="44.20781" lon="0.88202">
        <ele>110</ele>
        <time>2022-07-21T07:06:09.213Z</time>
      </trkpt>
      <trkpt lat="44.20781" lon="0.88201">
        <ele>110</ele>
        <time>2022-07-21T07:06:10.213Z</time>
      </trkpt>
      <trkpt lat="44.20782" lon="0.882">
        <ele>110</ele>
        <time>2022-07-21T07:06:11.213Z</time>
      </trkpt>
      <trkpt lat="44.20783" lon="0.88198">
        <ele>110</ele>
        <time>2022-07-21T07:06:12.213Z</time>
      </trkpt>
      <trkpt lat="44.20783" lon="0.88197">
        <ele>111</ele>
        <time>2022-07-21T07:06:13.213Z</time>
      </trkpt>
      <trkpt lat="44.20784" lon="0.88196">
        <ele>110</ele>
        <time>2022-07-21T07:06:14.213Z</time>
      </trkpt>
      <trkpt lat="44.20785" lon="0.88195">
        <ele>111</ele>
        <time>2022-07-21T07:06:15.213Z</time>
      </trkpt>
      <trkpt lat="44.20785" lon="0.88194">
        <ele>111</ele>
        <time>2022-07-21T07:06:16.213Z</time>
      </trkpt>
      <trkpt lat="44.20786" lon="0.88193">
        <ele>112</ele>
        <time>2022-07-21T07:06:17.213Z</time>
      </trkpt>
      <trkpt lat="44.20787" lon="0.88191">
        <ele>111</ele>
        <time>2022-07-21T07:06:18.213Z</time>
      </trkpt>
      <trkpt lat="44.20788" lon="0.8819">
        <ele>111</ele>
        <time>2022-07-21T07:06:19.213Z</time>
      </trkpt>
      <trkpt lat="44.20788" lon="0.88189">
        <ele>111</ele>
        <time>2022-07-21T07:06:20.213Z</time>
      </trkpt>
      <trkpt lat="44.20789" lon="0.88188">
        <ele>111</ele>
        <time>2022-07-21T07:06:21.213Z</time>
      </trkpt>
      <trkpt lat="44.2079" lon="0.88187">
        <ele>111</ele>
        <time>2022-07-21T07:06:22.213Z</time>
      </trkpt>
      <trkpt lat="44.2079" lon="0.88186">
        <ele>112</ele>
        <time>2022-07-21T07:06:23.213Z</time>
      </trkpt>
      <trkpt lat="44.20791" lon="0.88185">
        <ele>112</ele>
        <time>2022-07-21T07:06:24.213Z</time>
      </trkpt>
      <trkpt lat="44.20791" lon="0.88183">
        <ele>112</ele>
        <time>2022-07-21T07:06:25.213Z</time>
      </trkpt>
      <trkpt lat="44.20792" lon="0.88182">
        <ele>113</ele>
        <time>2022-07-21T07:06:26.213Z</time>
      </trkpt>
      <trkpt lat="44.20793" lon="0.88181">
        <ele>112</ele>
        <time>2022-07-21T07:06:27.213Z</time>
      </trkpt>
      <trkpt lat="44.20794" lon="0.8818">
        <ele>112</ele>
        <time>2022-07-21T07:06:28.213Z</time>
      </trkpt>
      <trkpt lat="44.20795" lon="0.88179">
        <ele>112</ele>
        <time>2022-07-21T07:06:29.213Z</time>
      </trkpt>
      <trkpt lat="44.20795" lon="0.88178">
        <ele>113</ele>
        <time>2022-07-21T07:06:30.213Z</time>
      </trkpt>
      <trkpt lat="44.20796" lon="0.88177">
        <ele>112</ele>
        <time>2022-07-21T07:06:31.213Z</time>
      </trkpt>
      <trkpt lat="44.20797" lon="0.88176">
        <ele>113</ele>
        <time>2022-07-21T07:06:32.213Z</time>
      </trkpt>
      <trkpt lat="44.20798" lon="0.88175">
        <ele>113</ele>
        <time>2022-07-21T07:06:33.213Z</time>
      </trkpt>
      <trkpt lat="44.20798" lon="0.88174">
        <ele>113</ele>
        <time>2022-07-21T07:06:34.213Z</time>
      </trkpt>
      <trkpt lat="44.20799" lon="0.88174">
        <ele>114</ele>
        <time>2022-07-21T07:06:35.213Z</time>
      </trkpt>
      <trkpt lat="44.208" lon="0.88173">
        <ele>114</ele>
        <time>2022-07-21T07:06:36.213Z</time>
      </trkpt>
      <trkpt lat="44.20801" lon="0.88172">
        <ele>114</ele>
        <time>2022-07-21T07:06:37.213Z</time>
      </trkpt>
      <trkpt lat="44.20801" lon="0.88171">
        <ele>114</ele>
        <time>2022-07-21T07:06:38.213Z</time>
      </trkpt>
      <trkpt lat="44.20802" lon="0.8817">
        <ele>114</ele>
        <time>2022-07-21T07:06:39.213Z</time>
      </trkpt>
      <trkpt lat="44.20803" lon="0.88169">
        <ele>114</ele>
        <time>2022-07-21T07:06:40.213Z</time>
      </trkpt>
      <trkpt lat="44.20804" lon="0.88169">
        <ele>114</ele>
        <time>2022-07-21T07:06:41.213Z</time>
      </trkpt>
      <trkpt lat="44.20805" lon="0.88168">
        <ele>114</ele>
        <time>2022-07-21T07:06:42.213Z</time>
      </trkpt>
      <trkpt lat="44.20805" lon="0.88167">
        <ele>114</ele>
        <time>2022-07-21T07:06:43.213Z</time>
      </trkpt>
      <trkpt lat="44.20806" lon="0.88166">
        <ele>114</ele>
        <time>2022-07-21T07:06:44.213Z</time>
      </trkpt>
      <trkpt lat="44.20807" lon="0.88165">
        <ele>113</ele>
        <time>2022-07-21T07:06:45.213Z</time>
      </trkpt>
      <trkpt lat="44.20808" lon="0.88164">
        <ele>113</ele>
        <time>2022-07-21T07:06:46.213Z</time>
      </trkpt>
      <trkpt lat="44.20809" lon="0.88163">
        <ele>114</ele>
        <time>2022-07-21T07:06:47.213Z</time>
      </trkpt>
      <trkpt lat="44.2081" lon="0.88162">
        <ele>114</ele>
        <time>2022-07-21T07:06:48.213Z</time>
      </trkpt>
      <trkpt lat="44.2081" lon="0.88161">
        <ele>114</ele>
        <time>2022-07-21T07:06:49.213Z</time>
      </trkpt>
      <trkpt lat="44.20811" lon="0.8816">
        <ele>114</ele>
        <time>2022-07-21T07:06:50.213Z</time>
      </trkpt>
      <trkpt lat="44.20812" lon="0.88159">
        <ele>114</ele>
        <time>2022-07-21T07:06:51.213Z</time>
      </trkpt>
      <trkpt lat="44.20813" lon="0.88158">
        <ele>114</ele>
        <time>2022-07-21T07:06:52.213Z</time>
      </trkpt>
      <trkpt lat="44.20814" lon="0.88158">
        <ele>114</ele>
        <time>2022-07-21T07:06:53.213Z</time>
      </trkpt>
      <trkpt lat="44.20815" lon="0.88157">
        <ele>114</ele>
        <time>2022-07-21T07:06:54.213Z</time>
      </trkpt>
      <trkpt lat="44.20815" lon="0.88156">
        <ele>115</ele>
        <time>2022-07-21T07:06:55.213Z</time>
      </trkpt>
      <trkpt lat="44.20816" lon="0.88155">
        <ele>115</ele>
        <time>2022-07-21T07:06:56.213Z</time>
      </trkpt>
      <trkpt lat="44.20817" lon="0.88155">
        <ele>115</ele>
        <time>2022-07-21T07:06:57.213Z</time>
      </trkpt>
      <trkpt lat="44.20818" lon="0.88154">
        <ele>115</ele>
        <time>2022-07-21T07:06:58.213Z</time>
      </trkpt>
      <trkpt lat="44.20819" lon="0.88154">
        <ele>114</ele>
        <time>2022-07-21T07:06:59.213Z</time>
      </trkpt>
      <trkpt lat="44.20819" lon="0.88154">
        <ele>115</ele>
        <time>2022-07-21T07:07:00.213Z</time>
      </trkpt>
      <trkpt lat="44.2082" lon="0.88153">
        <ele>115</ele>
        <time>2022-07-21T07:07:01.213Z</time>
      </trkpt>
      <trkpt lat="44.20821" lon="0.88153">
        <ele>115</ele>
        <time>2022-07-21T07:07:02.213Z</time>
      </trkpt>
      <trkpt lat="44.20822" lon="0.88152">
        <ele>115</ele>
        <time>2022-07-21T07:07:03.213Z</time>
      </trkpt>
      <trkpt lat="44.20822" lon="0.88151">
        <ele>116</ele>
        <time>2022-07-21T07:07:04.213Z</time>
      </trkpt>
      <trkpt lat="44.20823" lon="0.88151">
        <ele>116</ele>
        <time>2022-07-21T07:07:05.213Z</time>
      </trkpt>
      <trkpt lat="44.20824" lon="0.8815">
        <ele>116</ele>
        <time>2022-07-21T07:07:06.213Z</time>
      </trkpt>
      <trkpt lat="44.20825" lon="0.88149">
        <ele>116</ele>
        <time>2022-07-21T07:07:07.213Z</time>
      </trkpt>
      <trkpt lat="44.20825" lon="0.88148">
        <ele>117</ele>
        <time>2022-07-21T07:07:08.213Z</time>
      </trkpt>
      <trkpt lat="44.20826" lon="0.88148">
        <ele>116</ele>
        <time>2022-07-21T07:07:09.213Z</time>
      </trkpt>
      <trkpt lat="44.20827" lon="0.88147">
        <ele>116</ele>
        <time>2022-07-21T07:07:10.213Z</time>
      </trkpt>
      <trkpt lat="44.20828" lon="0.88146">
        <ele>116</ele>
        <time>2022-07-21T07:07:11.213Z</time>
      </trkpt>
      <trkpt lat="44.20829" lon="0.88145">
        <ele>117</ele>
        <time>2022-07-21T07:07:12.213Z</time>
      </trkpt>
      <trkpt lat="44.2083" lon="0.88145">
        <ele>116</ele>
        <time>2022-07-21T07:07:13.213Z</time>
      </trkpt>
      <trkpt lat="44.2083" lon="0.88144">
        <ele>115</ele>
        <time>2022-07-21T07:07:14.213Z</time>
      </trkpt>
      <trkpt lat="44.20832" lon="0.88144">
        <ele>115</ele>
        <time>2022-07-21T07:07:15.213Z</time>
      </trkpt>
      <trkpt lat="44.20833" lon="0.88144">
        <ele>113</ele>
        <time>2022-07-21T07:07:16.213Z</time>
      </trkpt>
      <trkpt lat="44.20834" lon="0.88144">
        <ele>115</ele>
        <time>2022-07-21T07:07:17.213Z</time>
      </trkpt>
      <trkpt lat="44.20834" lon="0.88144">
        <ele>116</ele>
        <time>2022-07-21T07:07:18.213Z</time>
      </trkpt>
      <trkpt lat="44.20834" lon="0.88144">
        <ele>116</ele>
        <time>2022-07-21T07:07:19.213Z</time>
      </trkpt>
      <trkpt lat="44.20834" lon="0.88144">
        <ele>117</ele>
        <time>2022-07-21T07:07:20.213Z</time>
      </trkpt>
      <trkpt lat="44.20835" lon="0.88143">
        <ele>118</ele>
        <time>2022-07-21T07:07:21.213Z</time>
      </trkpt>
      <trkpt lat="44.20835" lon="0.88143">
        <ele>118</ele>
        <time>2022-07-21T07:07:22.213Z</time>
      </trkpt>
      <trkpt lat="44.20835" lon="0.88143">
        <ele>118</ele>
        <time>2022-07-21T07:07:23.213Z</time>
      </trkpt>
      <trkpt lat="44.20835" lon="0.88143">
        <ele>118</ele>
        <time>2022-07-21T07:07:24.213Z</time>
      </trkpt>
      <trkpt lat="44.20835" lon="0.88143">
        <ele>119</ele>
        <time>2022-07-21T07:07:25.213Z</time>
      </trkpt>
      <trkpt lat="44.20838" lon="0.88139">
        <ele>118</ele>
        <time>2022-07-21T07:07:40.221Z</time>
      </trkpt>
      <trkpt lat="44.20839" lon="0.88138">
        <ele>119</ele>
        <time>2022-07-21T07:07:41.221Z</time>
      </trkpt>
      <trkpt lat="44.2084" lon="0.88137">
        <ele>119</ele>
        <time>2022-07-21T07:07:42.221Z</time>
      </trkpt>
      <trkpt lat="44.20841" lon="0.88137">
        <ele>119</ele>
        <time>2022-07-21T07:07:43.221Z</time>
      </trkpt>
      <trkpt lat="44.20842" lon="0.88136">
        <ele>118</ele>
        <time>2022-07-21T07:07:44.221Z</time>
      </trkpt>
      <trkpt lat="44.20842" lon="0.88135">
        <ele>119</ele>
        <time>2022-07-21T07:07:45.221Z</time>
      </trkpt>
      <trkpt lat="44.20843" lon="0.88134">
        <ele>119</ele>
        <time>2022-07-21T07:07:46.221Z</time>
      </trkpt>
      <trkpt lat="44.20844" lon="0.88133">
        <ele>118</ele>
        <time>2022-07-21T07:07:47.221Z</time>
      </trkpt>
      <trkpt lat="44.20845" lon="0.88132">
        <ele>119</ele>
        <time>2022-07-21T07:07:48.221Z</time>
      </trkpt>
      <trkpt lat="44.20846" lon="0.88131">
        <ele>118</ele>
        <time>2022-07-21T07:07:49.221Z</time>
      </trkpt>
      <trkpt lat="44.20847" lon="0.88131">
        <ele>118</ele>
        <time>2022-07-21T07:07:50.221Z</time>
      </trkpt>
      <trkpt lat="44.20848" lon="0.8813">
        <ele>118</ele>
        <time>2022-07-21T07:07:51.221Z</time>
      </trkpt>
      <trkpt lat="44.20849" lon="0.8813">
        <ele>118</ele>
        <time>2022-07-21T07:07:52.221Z</time>
      </trkpt>
      <trkpt lat="44.2085" lon="0.88129">
        <ele>118</ele>
        <time>2022-07-21T07:07:53.221Z</time>
      </trkpt>
      <trkpt lat="44.20851" lon="0.88129">
        <ele>118</ele>
        <time>2022-07-21T07:07:54.221Z</time>
      </trkpt>
      <trkpt lat="44.20851" lon="0.88128">
        <ele>118</ele>
        <time>2022-07-21T07:07:55.221Z</time>
      </trkpt>
      <trkpt lat="44.20852" lon="0.88128">
        <ele>118</ele>
        <time>2022-07-21T07:07:56.221Z</time>
      </trkpt>
      <trkpt lat="44.20853" lon="0.88127">
        <ele>118</ele>
        <time>2022-07-21T07:07:57.221Z</time>
      </trkpt>
      <trkpt lat="44.20854" lon="0.88127">
        <ele>118</ele>
        <time>2022-07-21T07:07:58.221Z</time>
      </trkpt>
      <trkpt lat="44.20854" lon="0.88126">
        <ele>118</ele>
        <time>2022-07-21T07:07:59.221Z</time>
      </trkpt>
      <trkpt lat="44.20855" lon="0.88126">
        <ele>118</ele>
        <time>2022-07-21T07:08:00.221Z</time>
      </trkpt>
      <trkpt lat="44.20856" lon="0.88125">
        <ele>118</ele>
        <time>2022-07-21T07:08:01.221Z</time>
      </trkpt>
      <trkpt lat="44.20856" lon="0.88125">
        <ele>118</ele>
        <time>2022-07-21T07:08:02.221Z</time>
      </trkpt>
      <trkpt lat="44.20857" lon="0.88124">
        <ele>118</ele>
        <time>2022-07-21T07:08:03.221Z</time>
      </trkpt>
      <trkpt lat="44.20858" lon="0.88123">
        <ele>118</ele>
        <time>2022-07-21T07:08:04.221Z</time>
      </trkpt>
      <trkpt lat="44.20859" lon="0.88122">
        <ele>119</ele>
        <time>2022-07-21T07:08:05.221Z</time>
      </trkpt>
      <trkpt lat="44.20859" lon="0.88122">
        <ele>119</ele>
        <time>2022-07-21T07:08:06.221Z</time>
      </trkpt>
      <trkpt lat="44.2086" lon="0.88121">
        <ele>119</ele>
        <time>2022-07-21T07:08:07.221Z</time>
      </trkpt>
      <trkpt lat="44.20861" lon="0.8812">
        <ele>119</ele>
        <time>2022-07-21T07:08:08.221Z</time>
      </trkpt>
      <trkpt lat="44.20861" lon="0.88119">
        <ele>119</ele>
        <time>2022-07-21T07:08:09.221Z</time>
      </trkpt>
      <trkpt lat="44.20862" lon="0.88118">
        <ele>119</ele>
        <time>2022-07-21T07:08:10.221Z</time>
      </trkpt>
      <trkpt lat="44.20863" lon="0.88118">
        <ele>119</ele>
        <time>2022-07-21T07:08:11.221Z</time>
      </trkpt>
      <trkpt lat="44.20864" lon="0.88117">
        <ele>119</ele>
        <time>2022-07-21T07:08:12.221Z</time>
      </trkpt>
      <trkpt lat="44.20865" lon="0.88117">
        <ele>119</ele>
        <time>2022-07-21T07:08:13.221Z</time>
      </trkpt>
      <trkpt lat="44.20865" lon="0.88116">
        <ele>119</ele>
        <time>2022-07-21T07:08:14.221Z</time>
      </trkpt>
      <trkpt lat="44.20866" lon="0.88116">
        <ele>119</ele>
        <time>2022-07-21T07:08:15.221Z</time>
      </trkpt>
      <trkpt lat="44.20867" lon="0.88115">
        <ele>119</ele>
        <time>2022-07-21T07:08:16.221Z</time>
      </trkpt>
      <trkpt lat="44.20868" lon="0.88114">
        <ele>119</ele>
        <time>2022-07-21T07:08:17.221Z</time>
      </trkpt>
      <trkpt lat="44.20869" lon="0.88113">
        <ele>119</ele>
        <time>2022-07-21T07:08:18.221Z</time>
      </trkpt>
      <trkpt lat="44.20869" lon="0.88113">
        <ele>119</ele>
        <time>2022-07-21T07:08:19.221Z</time>
      </trkpt>
      <trkpt lat="44.2087" lon="0.88112">
        <ele>119</ele>
        <time>2022-07-21T07:08:20.221Z</time>
      </trkpt>
      <trkpt lat="44.20871" lon="0.88111">
        <ele>119</ele>
        <time>2022-07-21T07:08:21.221Z</time>
      </trkpt>
      <trkpt lat="44.20872" lon="0.8811">
        <ele>119</ele>
        <time>2022-07-21T07:08:22.221Z</time>
      </trkpt>
      <trkpt lat="44.20873" lon="0.8811">
        <ele>119</ele>
        <time>2022-07-21T07:08:23.221Z</time>
      </trkpt>
      <trkpt lat="44.20874" lon="0.88109">
        <ele>119</ele>
        <time>2022-07-21T07:08:24.221Z</time>
      </trkpt>
      <trkpt lat="44.20875" lon="0.88108">
        <ele>120</ele>
        <time>2022-07-21T07:08:25.221Z</time>
      </trkpt>
      <trkpt lat="44.20876" lon="0.88108">
        <ele>120</ele>
        <time>2022-07-21T07:08:26.221Z</time>
      </trkpt>
      <trkpt lat="44.20877" lon="0.88107">
        <ele>121</ele>
        <time>2022-07-21T07:08:27.221Z</time>
      </trkpt>
      <trkpt lat="44.20877" lon="0.88106">
        <ele>121</ele>
        <time>2022-07-21T07:08:28.221Z</time>
      </trkpt>
      <trkpt lat="44.20878" lon="0.88105">
        <ele>121</ele>
        <time>2022-07-21T07:08:29.221Z</time>
      </trkpt>
      <trkpt lat="44.20879" lon="0.88105">
        <ele>121</ele>
        <time>2022-07-21T07:08:30.221Z</time>
      </trkpt>
      <trkpt lat="44.2088" lon="0.88104">
        <ele>122</ele>
        <time>2022-07-21T07:08:31.221Z</time>
      </trkpt>
      <trkpt lat="44.2088" lon="0.88103">
        <ele>122</ele>
        <time>2022-07-21T07:08:32.221Z</time>
      </trkpt>
      <trkpt lat="44.20881" lon="0.88102">
        <ele>123</ele>
        <time>2022-07-21T07:08:33.221Z</time>
      </trkpt>
      <trkpt lat="44.20881" lon="0.88101">
        <ele>123</ele>
        <time>2022-07-21T07:08:34.221Z</time>
      </trkpt>
      <trkpt lat="44.20882" lon="0.881">
        <ele>123</ele>
        <time>2022-07-21T07:08:35.221Z</time>
      </trkpt>
      <trkpt lat="44.20883" lon="0.88099">
        <ele>124</ele>
        <time>2022-07-21T07:08:36.221Z</time>
      </trkpt>
      <trkpt lat="44.20883" lon="0.88098">
        <ele>123</ele>
        <time>2022-07-21T07:08:37.221Z</time>
      </trkpt>
      <trkpt lat="44.20884" lon="0.88097">
        <ele>124</ele>
        <time>2022-07-21T07:08:38.221Z</time>
      </trkpt>
      <trkpt lat="44.20885" lon="0.88097">
        <ele>125</ele>
        <time>2022-07-21T07:08:39.221Z</time>
      </trkpt>
      <trkpt lat="44.20886" lon="0.88096">
        <ele>125</ele>
        <time>2022-07-21T07:08:40.221Z</time>
      </trkpt>
      <trkpt lat="44.20887" lon="0.88095">
        <ele>126</ele>
        <time>2022-07-21T07:08:41.221Z</time>
      </trkpt>
      <trkpt lat="44.20888" lon="0.88094">
        <ele>126</ele>
        <time>2022-07-21T07:08:42.221Z</time>
      </trkpt>
      <trkpt lat="44.20889" lon="0.88093">
        <ele>127</ele>
        <time>2022-07-21T07:08:43.221Z</time>
      </trkpt>
      <trkpt lat="44.2089" lon="0.88092">
        <ele>127</ele>
        <time>2022-07-21T07:08:44.221Z</time>
      </trkpt>
      <trkpt lat="44.2089" lon="0.88092">
        <ele>127</ele>
        <time>2022-07-21T07:08:45.221Z</time>
      </trkpt>
      <trkpt lat="44.20891" lon="0.88091">
        <ele>127</ele>
        <time>2022-07-21T07:08:46.221Z</time>
      </trkpt>
      <trkpt lat="44.20892" lon="0.8809">
        <ele>128</ele>
        <time>2022-07-21T07:08:47.221Z</time>
      </trkpt>
      <trkpt lat="44.20893" lon="0.88089">
        <ele>128</ele>
        <time>2022-07-21T07:08:48.221Z</time>
      </trkpt>
      <trkpt lat="44.20893" lon="0.88088">
        <ele>128</ele>
        <time>2022-07-21T07:08:49.221Z</time>
      </trkpt>
      <trkpt lat="44.20894" lon="0.88088">
        <ele>128</ele>
        <time>2022-07-21T07:08:50.221Z</time>
      </trkpt>
      <trkpt lat="44.20895" lon="0.88087">
        <ele>128</ele>
        <time>2022-07-21T07:08:51.221Z</time>
      </trkpt>
      <trkpt lat="44.20896" lon="0.88087">
        <ele>129</ele>
        <time>2022-07-21T07:08:52.221Z</time>
      </trkpt>
      <trkpt lat="44.20897" lon="0.88086">
        <ele>128</ele>
        <time>2022-07-21T07:08:53.221Z</time>
      </trkpt>
      <trkpt lat="44.20898" lon="0.88085">
        <ele>129</ele>
        <time>2022-07-21T07:08:54.221Z</time>
      </trkpt>
      <trkpt lat="44.20899" lon="0.88083">
        <ele>129</ele>
        <time>2022-07-21T07:08:55.221Z</time>
      </trkpt>
      <trkpt lat="44.209" lon="0.88082">
        <ele>129</ele>
        <time>2022-07-21T07:08:56.221Z</time>
      </trkpt>
      <trkpt lat="44.209" lon="0.88081">
        <ele>130</ele>
        <time>2022-07-21T07:08:57.221Z</time>
      </trkpt>
      <trkpt lat="44.20901" lon="0.8808">
        <ele>130</ele>
        <time>2022-07-21T07:08:58.221Z</time>
      </trkpt>
      <trkpt lat="44.20902" lon="0.88079">
        <ele>130</ele>
        <time>2022-07-21T07:08:59.221Z</time>
      </trkpt>
      <trkpt lat="44.20903" lon="0.88079">
        <ele>130</ele>
        <time>2022-07-21T07:09:00.221Z</time>
      </trkpt>
      <trkpt lat="44.20903" lon="0.88078">
        <ele>130</ele>
        <time>2022-07-21T07:09:01.221Z</time>
      </trkpt>
      <trkpt lat="44.20904" lon="0.88077">
        <ele>130</ele>
        <time>2022-07-21T07:09:02.221Z</time>
      </trkpt>
      <trkpt lat="44.20905" lon="0.88076">
        <ele>130</ele>
        <time>2022-07-21T07:09:03.221Z</time>
      </trkpt>
      <trkpt lat="44.20906" lon="0.88075">
        <ele>131</ele>
        <time>2022-07-21T07:09:04.221Z</time>
      </trkpt>
      <trkpt lat="44.20907" lon="0.88074">
        <ele>131</ele>
        <time>2022-07-21T07:09:05.221Z</time>
      </trkpt>
      <trkpt lat="44.20908" lon="0.88074">
        <ele>131</ele>
        <time>2022-07-21T07:09:06.221Z</time>
      </trkpt>
      <trkpt lat="44.20909" lon="0.88073">
        <ele>132</ele>
        <time>2022-07-21T07:09:07.221Z</time>
      </trkpt>
      <trkpt lat="44.2091" lon="0.88072">
        <ele>132</ele>
        <time>2022-07-21T07:09:08.221Z</time>
      </trkpt>
      <trkpt lat="44.20911" lon="0.88071">
        <ele>132</ele>
        <time>2022-07-21T07:09:09.221Z</time>
      </trkpt>
      <trkpt lat="44.20911" lon="0.8807">
        <ele>132</ele>
        <time>2022-07-21T07:09:10.221Z</time>
      </trkpt>
      <trkpt lat="44.20912" lon="0.88069">
        <ele>132</ele>
        <time>2022-07-21T07:09:11.221Z</time>
      </trkpt>
      <trkpt lat="44.20913" lon="0.88069">
        <ele>132</ele>
        <time>2022-07-21T07:09:12.221Z</time>
      </trkpt>
      <trkpt lat="44.20914" lon="0.88068">
        <ele>132</ele>
        <time>2022-07-21T07:09:13.221Z</time>
      </trkpt>
      <trkpt lat="44.20915" lon="0.88068">
        <ele>132</ele>
        <time>2022-07-21T07:09:14.221Z</time>
      </trkpt>
      <trkpt lat="44.20916" lon="0.88067">
        <ele>133</ele>
        <time>2022-07-21T07:09:15.221Z</time>
      </trkpt>
      <trkpt lat="44.20916" lon="0.88067">
        <ele>133</ele>
        <time>2022-07-21T07:09:16.221Z</time>
      </trkpt>
      <trkpt lat="44.20917" lon="0.88066">
        <ele>133</ele>
        <time>2022-07-21T07:09:17.221Z</time>
      </trkpt>
      <trkpt lat="44.20918" lon="0.88066">
        <ele>134</ele>
        <time>2022-07-21T07:09:18.221Z</time>
      </trkpt>
      <trkpt lat="44.20919" lon="0.88065">
        <ele>134</ele>
        <time>2022-07-21T07:09:19.221Z</time>
      </trkpt>
      <trkpt lat="44.2092" lon="0.88064">
        <ele>133</ele>
        <time>2022-07-21T07:09:20.221Z</time>
      </trkpt>
      <trkpt lat="44.2092" lon="0.88063">
        <ele>133</ele>
        <time>2022-07-21T07:09:21.221Z</time>
      </trkpt>
      <trkpt lat="44.20921" lon="0.88062">
        <ele>133</ele>
        <time>2022-07-21T07:09:22.221Z</time>
      </trkpt>
      <trkpt lat="44.20922" lon="0.88062">
        <ele>134</ele>
        <time>2022-07-21T07:09:23.221Z</time>
      </trkpt>
      <trkpt lat="44.20922" lon="0.88061">
        <ele>135</ele>
        <time>2022-07-21T07:09:24.221Z</time>
      </trkpt>
      <trkpt lat="44.20923" lon="0.8806">
        <ele>135</ele>
        <time>2022-07-21T07:09:25.221Z</time>
      </trkpt>
      <trkpt lat="44.20924" lon="0.88059">
        <ele>135</ele>
        <time>2022-07-21T07:09:26.221Z</time>
      </trkpt>
      <trkpt lat="44.20925" lon="0.88059">
        <ele>135</ele>
        <time>2022-07-21T07:09:27.221Z</time>
      </trkpt>
      <trkpt lat="44.20926" lon="0.88058">
        <ele>136</ele>
        <time>2022-07-21T07:09:28.221Z</time>
      </trkpt>
      <trkpt lat="44.20927" lon="0.88057">
        <ele>136</ele>
        <time>2022-07-21T07:09:29.221Z</time>
      </trkpt>
      <trkpt lat="44.20928" lon="0.88057">
        <ele>136</ele>
        <time>2022-07-21T07:09:30.221Z</time>
      </trkpt>
      <trkpt lat="44.20929" lon="0.88056">
        <ele>136</ele>
        <time>2022-07-21T07:09:31.221Z</time>
      </trkpt>
      <trkpt lat="44.2093" lon="0.88055">
        <ele>136</ele>
        <time>2022-07-21T07:09:32.221Z</time>
      </trkpt>
      <trkpt lat="44.20931" lon="0.88054">
        <ele>136</ele>
        <time>2022-07-21T07:09:33.221Z</time>
      </trkpt>
      <trkpt lat="44.20931" lon="0.88054">
        <ele>137</ele>
        <time>2022-07-21T07:09:34.221Z</time>
      </trkpt>
      <trkpt lat="44.20932" lon="0.88053">
        <ele>137</ele>
        <time>2022-07-21T07:09:35.221Z</time>
      </trkpt>
      <trkpt lat="44.20933" lon="0.88052">
        <ele>137</ele>
        <time>2022-07-21T07:09:36.221Z</time>
      </trkpt>
      <trkpt lat="44.20934" lon="0.88051">
        <ele>137</ele>
        <time>2022-07-21T07:09:37.221Z</time>
      </trkpt>
      <trkpt lat="44.20935" lon="0.8805">
        <ele>137</ele>
        <time>2022-07-21T07:09:38.221Z</time>
      </trkpt>
      <trkpt lat="44.20935" lon="0.88049">
        <ele>138</ele>
        <time>2022-07-21T07:09:39.221Z</time>
      </trkpt>
      <trkpt lat="44.20936" lon="0.88048">
        <ele>139</ele>
        <time>2022-07-21T07:09:40.221Z</time>
      </trkpt>
      <trkpt lat="44.20937" lon="0.88048">
        <ele>139</ele>
        <time>2022-07-21T07:09:41.221Z</time>
      </trkpt>
      <trkpt lat="44.20938" lon="0.88047">
        <ele>139</ele>
        <time>2022-07-21T07:09:42.221Z</time>
      </trkpt>
      <trkpt lat="44.20938" lon="0.88046">
        <ele>139</ele>
        <time>2022-07-21T07:09:43.221Z</time>
      </trkpt>
      <trkpt lat="44.20939" lon="0.88046">
        <ele>140</ele>
        <time>2022-07-21T07:09:44.221Z</time>
      </trkpt>
      <trkpt lat="44.2094" lon="0.88045">
        <ele>140</ele>
        <time>2022-07-21T07:09:45.221Z</time>
      </trkpt>
      <trkpt lat="44.20941" lon="0.88044">
        <ele>140</ele>
        <time>2022-07-21T07:09:46.221Z</time>
      </trkpt>
      <trkpt lat="44.20941" lon="0.88043">
        <ele>140</ele>
        <time>2022-07-21T07:09:47.221Z</time>
      </trkpt>
      <trkpt lat="44.20942" lon="0.88042">
        <ele>140</ele>
        <time>2022-07-21T07:09:48.221Z</time>
      </trkpt>
      <trkpt lat="44.20943" lon="0.88041">
        <ele>140</ele>
        <time>2022-07-21T07:09:49.221Z</time>
      </trkpt>
      <trkpt lat="44.20943" lon="0.8804">
        <ele>140</ele>
        <time>2022-07-21T07:09:50.221Z</time>
      </trkpt>
      <trkpt lat="44.20944" lon="0.88039">
        <ele>141</ele>
        <time>2022-07-21T07:09:51.221Z</time>
      </trkpt>
      <trkpt lat="44.20944" lon="0.88038">
        <ele>141</ele>
        <time>2022-07-21T07:09:52.221Z</time>
      </trkpt>
      <trkpt lat="44.20945" lon="0.88037">
        <ele>141</ele>
        <time>2022-07-21T07:09:53.221Z</time>
      </trkpt>
      <trkpt lat="44.20945" lon="0.88037">
        <ele>141</ele>
        <time>2022-07-21T07:09:54.221Z</time>
      </trkpt>
      <trkpt lat="44.20945" lon="0.88036">
        <ele>141</ele>
        <time>2022-07-21T07:09:55.221Z</time>
      </trkpt>
      <trkpt lat="44.20946" lon="0.88035">
        <ele>141</ele>
        <time>2022-07-21T07:09:56.221Z</time>
      </trkpt>
      <trkpt lat="44.20947" lon="0.88034">
        <ele>141</ele>
        <time>2022-07-21T07:09:57.221Z</time>
      </trkpt>
      <trkpt lat="44.20947" lon="0.88033">
        <ele>140</ele>
        <time>2022-07-21T07:09:58.221Z</time>
      </trkpt>
      <trkpt lat="44.20948" lon="0.88033">
        <ele>140</ele>
        <time>2022-07-21T07:09:59.221Z</time>
      </trkpt>
      <trkpt lat="44.20949" lon="0.88032">
        <ele>140</ele>
        <time>2022-07-21T07:10:00.221Z</time>
      </trkpt>
      <trkpt lat="44.2095" lon="0.88031">
        <ele>139</ele>
        <time>2022-07-21T07:10:01.221Z</time>
      </trkpt>
      <trkpt lat="44.20951" lon="0.8803">
        <ele>139</ele>
        <time>2022-07-21T07:10:02.221Z</time>
      </trkpt>
      <trkpt lat="44.20952" lon="0.88029">
        <ele>140</ele>
        <time>2022-07-21T07:10:03.221Z</time>
      </trkpt>
      <trkpt lat="44.20953" lon="0.88028">
        <ele>140</ele>
        <time>2022-07-21T07:10:04.221Z</time>
      </trkpt>
      <trkpt lat="44.20953" lon="0.88027">
        <ele>140</ele>
        <time>2022-07-21T07:10:05.221Z</time>
      </trkpt>
      <trkpt lat="44.20954" lon="0.88026">
        <ele>140</ele>
        <time>2022-07-21T07:10:06.221Z</time>
      </trkpt>
      <trkpt lat="44.20955" lon="0.88025">
        <ele>141</ele>
        <time>2022-07-21T07:10:07.221Z</time>
      </trkpt>
      <trkpt lat="44.20955" lon="0.88024">
        <ele>140</ele>
        <time>2022-07-21T07:10:08.221Z</time>
      </trkpt>
      <trkpt lat="44.20956" lon="0.88024">
        <ele>140</ele>
        <time>2022-07-21T07:10:09.221Z</time>
      </trkpt>
      <trkpt lat="44.20957" lon="0.88023">
        <ele>140</ele>
        <time>2022-07-21T07:10:10.221Z</time>
      </trkpt>
      <trkpt lat="44.20957" lon="0.88022">
        <ele>140</ele>
        <time>2022-07-21T07:10:11.221Z</time>
      </trkpt>
      <trkpt lat="44.20958" lon="0.88021">
        <ele>140</ele>
        <time>2022-07-21T07:10:12.221Z</time>
      </trkpt>
      <trkpt lat="44.20958" lon="0.8802">
        <ele>141</ele>
        <time>2022-07-21T07:10:13.221Z</time>
      </trkpt>
      <trkpt lat="44.20959" lon="0.88019">
        <ele>141</ele>
        <time>2022-07-21T07:10:14.221Z</time>
      </trkpt>
      <trkpt lat="44.2096" lon="0.88018">
        <ele>141</ele>
        <time>2022-07-21T07:10:15.221Z</time>
      </trkpt>
      <trkpt lat="44.2096" lon="0.88017">
        <ele>141</ele>
        <time>2022-07-21T07:10:16.221Z</time>
      </trkpt>
      <trkpt lat="44.20961" lon="0.88017">
        <ele>142</ele>
        <time>2022-07-21T07:10:17.221Z</time>
      </trkpt>
      <trkpt lat="44.20962" lon="0.88016">
        <ele>142</ele>
        <time>2022-07-21T07:10:18.221Z</time>
      </trkpt>
      <trkpt lat="44.20962" lon="0.88015">
        <ele>142</ele>
        <time>2022-07-21T07:10:19.221Z</time>
      </trkpt>
      <trkpt lat="44.20962" lon="0.88014">
        <ele>142</ele>
        <time>2022-07-21T07:10:20.221Z</time>
      </trkpt>
      <trkpt lat="44.20963" lon="0.88013">
        <ele>142</ele>
        <time>2022-07-21T07:10:21.221Z</time>
      </trkpt>
      <trkpt lat="44.20963" lon="0.88011">
        <ele>142</ele>
        <time>2022-07-21T07:10:22.221Z</time>
      </trkpt>
      <trkpt lat="44.20964" lon="0.8801">
        <ele>142</ele>
        <time>2022-07-21T07:10:23.221Z</time>
      </trkpt>
      <trkpt lat="44.20964" lon="0.88009">
        <ele>142</ele>
        <time>2022-07-21T07:10:24.221Z</time>
      </trkpt>
      <trkpt lat="44.20965" lon="0.88008">
        <ele>143</ele>
        <time>2022-07-21T07:10:25.221Z</time>
      </trkpt>
      <trkpt lat="44.20965" lon="0.88007">
        <ele>144</ele>
        <time>2022-07-21T07:10:26.221Z</time>
      </trkpt>
      <trkpt lat="44.20966" lon="0.88006">
        <ele>144</ele>
        <time>2022-07-21T07:10:27.221Z</time>
      </trkpt>
      <trkpt lat="44.20966" lon="0.88005">
        <ele>144</ele>
        <time>2022-07-21T07:10:28.221Z</time>
      </trkpt>
      <trkpt lat="44.20967" lon="0.88004">
        <ele>144</ele>
        <time>2022-07-21T07:10:29.221Z</time>
      </trkpt>
      <trkpt lat="44.20968" lon="0.88002">
        <ele>143</ele>
        <time>2022-07-21T07:10:30.221Z</time>
      </trkpt>
      <trkpt lat="44.20969" lon="0.88001">
        <ele>143</ele>
        <time>2022-07-21T07:10:31.221Z</time>
      </trkpt>
      <trkpt lat="44.20969" lon="0.88">
        <ele>143</ele>
        <time>2022-07-21T07:10:32.221Z</time>
      </trkpt>
      <trkpt lat="44.2097" lon="0.87999">
        <ele>143</ele>
        <time>2022-07-21T07:10:33.221Z</time>
      </trkpt>
      <trkpt lat="44.20971" lon="0.87998">
        <ele>143</ele>
        <time>2022-07-21T07:10:34.221Z</time>
      </trkpt>
      <trkpt lat="44.20972" lon="0.87997">
        <ele>143</ele>
        <time>2022-07-21T07:10:35.221Z</time>
      </trkpt>
      <trkpt lat="44.20973" lon="0.87996">
        <ele>142</ele>
        <time>2022-07-21T07:10:36.221Z</time>
      </trkpt>
      <trkpt lat="44.20973" lon="0.87995">
        <ele>142</ele>
        <time>2022-07-21T07:10:37.221Z</time>
      </trkpt>
      <trkpt lat="44.20974" lon="0.87994">
        <ele>142</ele>
        <time>2022-07-21T07:10:38.221Z</time>
      </trkpt>
      <trkpt lat="44.20975" lon="0.87993">
        <ele>142</ele>
        <time>2022-07-21T07:10:39.221Z</time>
      </trkpt>
      <trkpt lat="44.20976" lon="0.87992">
        <ele>141</ele>
        <time>2022-07-21T07:10:40.221Z</time>
      </trkpt>
      <trkpt lat="44.20977" lon="0.87991">
        <ele>140</ele>
        <time>2022-07-21T07:10:41.221Z</time>
      </trkpt>
      <trkpt lat="44.20978" lon="0.8799">
        <ele>140</ele>
        <time>2022-07-21T07:10:42.221Z</time>
      </trkpt>
      <trkpt lat="44.20979" lon="0.87989">
        <ele>140</ele>
        <time>2022-07-21T07:10:43.221Z</time>
      </trkpt>
      <trkpt lat="44.2098" lon="0.87989">
        <ele>139</ele>
        <time>2022-07-21T07:10:44.221Z</time>
      </trkpt>
      <trkpt lat="44.20981" lon="0.87988">
        <ele>139</ele>
        <time>2022-07-21T07:10:45.221Z</time>
      </trkpt>
      <trkpt lat="44.20982" lon="0.87987">
        <ele>140</ele>
        <time>2022-07-21T07:10:46.221Z</time>
      </trkpt>
      <trkpt lat="44.20983" lon="0.87986">
        <ele>140</ele>
        <time>2022-07-21T07:10:47.221Z</time>
      </trkpt>
      <trkpt lat="44.20983" lon="0.87985">
        <ele>140</ele>
        <time>2022-07-21T07:10:48.221Z</time>
      </trkpt>
      <trkpt lat="44.20984" lon="0.87984">
        <ele>140</ele>
        <time>2022-07-21T07:10:49.221Z</time>
      </trkpt>
      <trkpt lat="44.20985" lon="0.87983">
        <ele>139</ele>
        <time>2022-07-21T07:10:50.221Z</time>
      </trkpt>
      <trkpt lat="44.20986" lon="0.87983">
        <ele>140</ele>
        <time>2022-07-21T07:10:51.221Z</time>
      </trkpt>
      <trkpt lat="44.20987" lon="0.87982">
        <ele>139</ele>
        <time>2022-07-21T07:10:52.221Z</time>
      </trkpt>
      <trkpt lat="44.20988" lon="0.87981">
        <ele>139</ele>
        <time>2022-07-21T07:10:53.221Z</time>
      </trkpt>
      <trkpt lat="44.20989" lon="0.87981">
        <ele>139</ele>
        <time>2022-07-21T07:10:54.221Z</time>
      </trkpt>
      <trkpt lat="44.2099" lon="0.8798">
        <ele>139</ele>
        <time>2022-07-21T07:10:55.221Z</time>
      </trkpt>
      <trkpt lat="44.20991" lon="0.8798">
        <ele>139</ele>
        <time>2022-07-21T07:10:56.221Z</time>
      </trkpt>
      <trkpt lat="44.20992" lon="0.87979">
        <ele>139</ele>
        <time>2022-07-21T07:10:57.221Z</time>
      </trkpt>
      <trkpt lat="44.20992" lon="0.87978">
        <ele>139</ele>
        <time>2022-07-21T07:10:58.221Z</time>
      </trkpt>
      <trkpt lat="44.20993" lon="0.87977">
        <ele>139</ele>
        <time>2022-07-21T07:10:59.221Z</time>
      </trkpt>
      <trkpt lat="44.20994" lon="0.87976">
        <ele>139</ele>
        <time>2022-07-21T07:11:00.221Z</time>
      </trkpt>
      <trkpt lat="44.20995" lon="0.87975">
        <ele>139</ele>
        <time>2022-07-21T07:11:01.221Z</time>
      </trkpt>
      <trkpt lat="44.20995" lon="0.87974">
        <ele>140</ele>
        <time>2022-07-21T07:11:02.221Z</time>
      </trkpt>
      <trkpt lat="44.20996" lon="0.87973">
        <ele>140</ele>
        <time>2022-07-21T07:11:03.221Z</time>
      </trkpt>
      <trkpt lat="44.20997" lon="0.87972">
        <ele>140</ele>
        <time>2022-07-21T07:11:04.221Z</time>
      </trkpt>
      <trkpt lat="44.20997" lon="0.87971">
        <ele>140</ele>
        <time>2022-07-21T07:11:05.221Z</time>
      </trkpt>
      <trkpt lat="44.20998" lon="0.8797">
        <ele>140</ele>
        <time>2022-07-21T07:11:06.221Z</time>
      </trkpt>
      <trkpt lat="44.20999" lon="0.87969">
        <ele>141</ele>
        <time>2022-07-21T07:11:07.221Z</time>
      </trkpt>
      <trkpt lat="44.21" lon="0.87968">
        <ele>141</ele>
        <time>2022-07-21T07:11:08.221Z</time>
      </trkpt>
      <trkpt lat="44.21001" lon="0.87967">
        <ele>141</ele>
        <time>2022-07-21T07:11:09.221Z</time>
      </trkpt>
      <trkpt lat="44.21001" lon="0.87966">
        <ele>141</ele>
        <time>2022-07-21T07:11:10.221Z</time>
      </trkpt>
      <trkpt lat="44.21002" lon="0.87965">
        <ele>141</ele>
        <time>2022-07-21T07:11:11.221Z</time>
      </trkpt>
      <trkpt lat="44.21003" lon="0.87964">
        <ele>141</ele>
        <time>2022-07-21T07:11:12.221Z</time>
      </trkpt>
      <trkpt lat="44.21004" lon="0.87963">
        <ele>141</ele>
        <time>2022-07-21T07:11:13.221Z</time>
      </trkpt>
      <trkpt lat="44.21005" lon="0.87962">
        <ele>141</ele>
        <time>2022-07-21T07:11:14.221Z</time>
      </trkpt>
      <trkpt lat="44.21005" lon="0.87961">
        <ele>142</ele>
        <time>2022-07-21T07:11:15.221Z</time>
      </trkpt>
      <trkpt lat="44.21006" lon="0.87959">
        <ele>142</ele>
        <time>2022-07-21T07:11:16.221Z</time>
      </trkpt>
      <trkpt lat="44.21006" lon="0.87958">
        <ele>143</ele>
        <time>2022-07-21T07:11:17.221Z</time>
      </trkpt>
      <trkpt lat="44.21007" lon="0.87957">
        <ele>142</ele>
        <time>2022-07-21T07:11:18.221Z</time>
      </trkpt>
      <trkpt lat="44.21007" lon="0.87956">
        <ele>143</ele>
        <time>2022-07-21T07:11:19.221Z</time>
      </trkpt>
      <trkpt lat="44.21008" lon="0.87955">
        <ele>143</ele>
        <time>2022-07-21T07:11:20.221Z</time>
      </trkpt>
      <trkpt lat="44.21009" lon="0.87954">
        <ele>143</ele>
        <time>2022-07-21T07:11:21.221Z</time>
      </trkpt>
      <trkpt lat="44.2101" lon="0.87953">
        <ele>144</ele>
        <time>2022-07-21T07:11:22.221Z</time>
      </trkpt>
      <trkpt lat="44.2101" lon="0.87952">
        <ele>144</ele>
        <time>2022-07-21T07:11:23.221Z</time>
      </trkpt>
      <trkpt lat="44.21011" lon="0.87951">
        <ele>143</ele>
        <time>2022-07-21T07:11:24.221Z</time>
      </trkpt>
      <trkpt lat="44.21012" lon="0.8795">
        <ele>143</ele>
        <time>2022-07-21T07:11:25.221Z</time>
      </trkpt>
      <trkpt lat="44.21013" lon="0.87949">
        <ele>143</ele>
        <time>2022-07-21T07:11:26.221Z</time>
      </trkpt>
      <trkpt lat="44.21013" lon="0.87949">
        <ele>143</ele>
        <time>2022-07-21T07:11:27.221Z</time>
      </trkpt>
      <trkpt lat="44.21014" lon="0.87948">
        <ele>143</ele>
        <time>2022-07-21T07:11:28.221Z</time>
      </trkpt>
      <trkpt lat="44.21014" lon="0.87947">
        <ele>143</ele>
        <time>2022-07-21T07:11:29.221Z</time>
      </trkpt>
      <trkpt lat="44.21015" lon="0.87947">
        <ele>142</ele>
        <time>2022-07-21T07:11:30.221Z</time>
      </trkpt>
      <trkpt lat="44.21016" lon="0.87946">
        <ele>142</ele>
        <time>2022-07-21T07:11:31.221Z</time>
      </trkpt>
      <trkpt lat="44.21017" lon="0.87946">
        <ele>141</ele>
        <time>2022-07-21T07:11:32.221Z</time>
      </trkpt>
      <trkpt lat="44.21017" lon="0.87945">
        <ele>142</ele>
        <time>2022-07-21T07:11:33.221Z</time>
      </trkpt>
      <trkpt lat="44.21018" lon="0.87945">
        <ele>141</ele>
        <time>2022-07-21T07:11:34.221Z</time>
      </trkpt>
      <trkpt lat="44.21019" lon="0.87944">
        <ele>141</ele>
        <time>2022-07-21T07:11:35.221Z</time>
      </trkpt>
      <trkpt lat="44.21019" lon="0.87943">
        <ele>141</ele>
        <time>2022-07-21T07:11:36.221Z</time>
      </trkpt>
      <trkpt lat="44.2102" lon="0.87943">
        <ele>141</ele>
        <time>2022-07-21T07:11:37.221Z</time>
      </trkpt>
      <trkpt lat="44.21021" lon="0.87942">
        <ele>141</ele>
        <time>2022-07-21T07:11:38.221Z</time>
      </trkpt>
      <trkpt lat="44.21021" lon="0.87942">
        <ele>141</ele>
        <time>2022-07-21T07:11:39.221Z</time>
      </trkpt>
      <trkpt lat="44.21022" lon="0.87941">
        <ele>141</ele>
        <time>2022-07-21T07:11:40.221Z</time>
      </trkpt>
      <trkpt lat="44.21022" lon="0.8794">
        <ele>141</ele>
        <time>2022-07-21T07:11:41.221Z</time>
      </trkpt>
      <trkpt lat="44.21023" lon="0.87939">
        <ele>141</ele>
        <time>2022-07-21T07:11:42.221Z</time>
      </trkpt>
      <trkpt lat="44.21023" lon="0.87938">
        <ele>141</ele>
        <time>2022-07-21T07:11:43.221Z</time>
      </trkpt>
      <trkpt lat="44.21024" lon="0.87937">
        <ele>141</ele>
        <time>2022-07-21T07:11:44.221Z</time>
      </trkpt>
      <trkpt lat="44.21025" lon="0.87937">
        <ele>142</ele>
        <time>2022-07-21T07:11:45.221Z</time>
      </trkpt>
      <trkpt lat="44.21025" lon="0.87935">
        <ele>142</ele>
        <time>2022-07-21T07:11:46.221Z</time>
      </trkpt>
      <trkpt lat="44.21026" lon="0.87934">
        <ele>142</ele>
        <time>2022-07-21T07:11:47.221Z</time>
      </trkpt>
      <trkpt lat="44.21027" lon="0.87933">
        <ele>142</ele>
        <time>2022-07-21T07:11:48.221Z</time>
      </trkpt>
      <trkpt lat="44.21027" lon="0.87932">
        <ele>143</ele>
        <time>2022-07-21T07:11:49.221Z</time>
      </trkpt>
      <trkpt lat="44.21028" lon="0.87931">
        <ele>143</ele>
        <time>2022-07-21T07:11:50.221Z</time>
      </trkpt>
      <trkpt lat="44.21029" lon="0.87931">
        <ele>143</ele>
        <time>2022-07-21T07:11:51.221Z</time>
      </trkpt>
      <trkpt lat="44.2103" lon="0.8793">
        <ele>144</ele>
        <time>2022-07-21T07:11:52.221Z</time>
      </trkpt>
      <trkpt lat="44.2103" lon="0.87929">
        <ele>144</ele>
        <time>2022-07-21T07:11:53.221Z</time>
      </trkpt>
      <trkpt lat="44.21031" lon="0.87927">
        <ele>144</ele>
        <time>2022-07-21T07:11:54.221Z</time>
      </trkpt>
      <trkpt lat="44.21031" lon="0.87926">
        <ele>145</ele>
        <time>2022-07-21T07:11:55.221Z</time>
      </trkpt>
      <trkpt lat="44.21032" lon="0.87925">
        <ele>145</ele>
        <time>2022-07-21T07:11:56.221Z</time>
      </trkpt>
      <trkpt lat="44.21032" lon="0.87924">
        <ele>146</ele>
        <time>2022-07-21T07:11:57.221Z</time>
      </trkpt>
      <trkpt lat="44.21032" lon="0.87922">
        <ele>146</ele>
        <time>2022-07-21T07:11:58.221Z</time>
      </trkpt>
      <trkpt lat="44.21033" lon="0.87922">
        <ele>146</ele>
        <time>2022-07-21T07:11:59.221Z</time>
      </trkpt>
      <trkpt lat="44.21033" lon="0.87921">
        <ele>147</ele>
        <time>2022-07-21T07:12:00.221Z</time>
      </trkpt>
      <trkpt lat="44.21034" lon="0.8792">
        <ele>147</ele>
        <time>2022-07-21T07:12:01.221Z</time>
      </trkpt>
      <trkpt lat="44.21034" lon="0.8792">
        <ele>147</ele>
        <time>2022-07-21T07:12:02.221Z</time>
      </trkpt>
      <trkpt lat="44.21035" lon="0.87918">
        <ele>147</ele>
        <time>2022-07-21T07:12:03.221Z</time>
      </trkpt>
      <trkpt lat="44.21035" lon="0.87917">
        <ele>147</ele>
        <time>2022-07-21T07:12:04.221Z</time>
      </trkpt>
      <trkpt lat="44.21035" lon="0.87916">
        <ele>148</ele>
        <time>2022-07-21T07:12:05.221Z</time>
      </trkpt>
      <trkpt lat="44.21035" lon="0.87915">
        <ele>148</ele>
        <time>2022-07-21T07:12:06.221Z</time>
      </trkpt>
      <trkpt lat="44.21035" lon="0.87914">
        <ele>149</ele>
        <time>2022-07-21T07:12:07.221Z</time>
      </trkpt>
      <trkpt lat="44.21036" lon="0.87913">
        <ele>149</ele>
        <time>2022-07-21T07:12:08.221Z</time>
      </trkpt>
      <trkpt lat="44.21036" lon="0.87912">
        <ele>149</ele>
        <time>2022-07-21T07:12:09.221Z</time>
      </trkpt>
      <trkpt lat="44.21036" lon="0.87911">
        <ele>149</ele>
        <time>2022-07-21T07:12:10.221Z</time>
      </trkpt>
      <trkpt lat="44.21037" lon="0.8791">
        <ele>149</ele>
        <time>2022-07-21T07:12:11.221Z</time>
      </trkpt>
      <trkpt lat="44.21037" lon="0.87909">
        <ele>150</ele>
        <time>2022-07-21T07:12:12.221Z</time>
      </trkpt>
      <trkpt lat="44.21038" lon="0.87908">
        <ele>150</ele>
        <time>2022-07-21T07:12:13.221Z</time>
      </trkpt>
      <trkpt lat="44.21038" lon="0.87907">
        <ele>151</ele>
        <time>2022-07-21T07:12:14.221Z</time>
      </trkpt>
      <trkpt lat="44.21039" lon="0.87906">
        <ele>151</ele>
        <time>2022-07-21T07:12:15.221Z</time>
      </trkpt>
      <trkpt lat="44.21039" lon="0.87905">
        <ele>152</ele>
        <time>2022-07-21T07:12:16.221Z</time>
      </trkpt>
      <trkpt lat="44.2104" lon="0.87904">
        <ele>151</ele>
        <time>2022-07-21T07:12:17.221Z</time>
      </trkpt>
      <trkpt lat="44.2104" lon="0.87903">
        <ele>151</ele>
        <time>2022-07-21T07:12:18.221Z</time>
      </trkpt>
      <trkpt lat="44.21041" lon="0.87902">
        <ele>150</ele>
        <time>2022-07-21T07:12:19.221Z</time>
      </trkpt>
      <trkpt lat="44.21042" lon="0.879">
        <ele>150</ele>
        <time>2022-07-21T07:12:20.221Z</time>
      </trkpt>
      <trkpt lat="44.21042" lon="0.87899">
        <ele>150</ele>
        <time>2022-07-21T07:12:21.221Z</time>
      </trkpt>
      <trkpt lat="44.21043" lon="0.87898">
        <ele>150</ele>
        <time>2022-07-21T07:12:22.221Z</time>
      </trkpt>
      <trkpt lat="44.21043" lon="0.87897">
        <ele>150</ele>
        <time>2022-07-21T07:12:23.221Z</time>
      </trkpt>
      <trkpt lat="44.21044" lon="0.87896">
        <ele>150</ele>
        <time>2022-07-21T07:12:24.221Z</time>
      </trkpt>
      <trkpt lat="44.21044" lon="0.87895">
        <ele>150</ele>
        <time>2022-07-21T07:12:25.221Z</time>
      </trkpt>
      <trkpt lat="44.21045" lon="0.87894">
        <ele>150</ele>
        <time>2022-07-21T07:12:26.221Z</time>
      </trkpt>
      <trkpt lat="44.21045" lon="0.87892">
        <ele>150</ele>
        <time>2022-07-21T07:12:27.221Z</time>
      </trkpt>
      <trkpt lat="44.21046" lon="0.87891">
        <ele>149</ele>
        <time>2022-07-21T07:12:28.221Z</time>
      </trkpt>
      <trkpt lat="44.21046" lon="0.8789">
        <ele>149</ele>
        <time>2022-07-21T07:12:29.221Z</time>
      </trkpt>
      <trkpt lat="44.21047" lon="0.87889">
        <ele>149</ele>
        <time>2022-07-21T07:12:30.221Z</time>
      </trkpt>
      <trkpt lat="44.21048" lon="0.87888">
        <ele>149</ele>
        <time>2022-07-21T07:12:31.221Z</time>
      </trkpt>
      <trkpt lat="44.21048" lon="0.87887">
        <ele>149</ele>
        <time>2022-07-21T07:12:32.221Z</time>
      </trkpt>
      <trkpt lat="44.21049" lon="0.87886">
        <ele>149</ele>
        <time>2022-07-21T07:12:33.221Z</time>
      </trkpt>
      <trkpt lat="44.2105" lon="0.87885">
        <ele>149</ele>
        <time>2022-07-21T07:12:34.221Z</time>
      </trkpt>
      <trkpt lat="44.2105" lon="0.87884">
        <ele>150</ele>
        <time>2022-07-21T07:12:35.221Z</time>
      </trkpt>
      <trkpt lat="44.21051" lon="0.87883">
        <ele>150</ele>
        <time>2022-07-21T07:12:36.221Z</time>
      </trkpt>
      <trkpt lat="44.21051" lon="0.87882">
        <ele>150</ele>
        <time>2022-07-21T07:12:37.221Z</time>
      </trkpt>
      <trkpt lat="44.21052" lon="0.87881">
        <ele>151</ele>
        <time>2022-07-21T07:12:38.221Z</time>
      </trkpt>
      <trkpt lat="44.21052" lon="0.8788">
        <ele>150</ele>
        <time>2022-07-21T07:12:39.221Z</time>
      </trkpt>
      <trkpt lat="44.21053" lon="0.8788">
        <ele>150</ele>
        <time>2022-07-21T07:12:40.221Z</time>
      </trkpt>
      <trkpt lat="44.21053" lon="0.87879">
        <ele>151</ele>
        <time>2022-07-21T07:12:41.221Z</time>
      </trkpt>
      <trkpt lat="44.21054" lon="0.87878">
        <ele>150</ele>
        <time>2022-07-21T07:12:42.221Z</time>
      </trkpt>
      <trkpt lat="44.21054" lon="0.87877">
        <ele>150</ele>
        <time>2022-07-21T07:12:43.221Z</time>
      </trkpt>
      <trkpt lat="44.21055" lon="0.87876">
        <ele>150</ele>
        <time>2022-07-21T07:12:44.221Z</time>
      </trkpt>
      <trkpt lat="44.21056" lon="0.87875">
        <ele>150</ele>
        <time>2022-07-21T07:12:45.221Z</time>
      </trkpt>
      <trkpt lat="44.21056" lon="0.87874">
        <ele>151</ele>
        <time>2022-07-21T07:12:46.221Z</time>
      </trkpt>
      <trkpt lat="44.21057" lon="0.87873">
        <ele>150</ele>
        <time>2022-07-21T07:12:47.221Z</time>
      </trkpt>
      <trkpt lat="44.21057" lon="0.87871">
        <ele>150</ele>
        <time>2022-07-21T07:12:48.221Z</time>
      </trkpt>
      <trkpt lat="44.21057" lon="0.87871">
        <ele>150</ele>
        <time>2022-07-21T07:12:49.221Z</time>
      </trkpt>
      <trkpt lat="44.21058" lon="0.8787">
        <ele>150</ele>
        <time>2022-07-21T07:12:50.221Z</time>
      </trkpt>
      <trkpt lat="44.21058" lon="0.87869">
        <ele>150</ele>
        <time>2022-07-21T07:12:51.221Z</time>
      </trkpt>
      <trkpt lat="44.21058" lon="0.87868">
        <ele>150</ele>
        <time>2022-07-21T07:12:52.221Z</time>
      </trkpt>
      <trkpt lat="44.21059" lon="0.87867">
        <ele>150</ele>
        <time>2022-07-21T07:12:53.221Z</time>
      </trkpt>
      <trkpt lat="44.21059" lon="0.87866">
        <ele>151</ele>
        <time>2022-07-21T07:12:54.221Z</time>
      </trkpt>
      <trkpt lat="44.2106" lon="0.87865">
        <ele>151</ele>
        <time>2022-07-21T07:12:55.221Z</time>
      </trkpt>
      <trkpt lat="44.21061" lon="0.87864">
        <ele>151</ele>
        <time>2022-07-21T07:12:56.221Z</time>
      </trkpt>
      <trkpt lat="44.21062" lon="0.87863">
        <ele>151</ele>
        <time>2022-07-21T07:12:57.221Z</time>
      </trkpt>
      <trkpt lat="44.21062" lon="0.87862">
        <ele>151</ele>
        <time>2022-07-21T07:12:58.221Z</time>
      </trkpt>
      <trkpt lat="44.21063" lon="0.87861">
        <ele>152</ele>
        <time>2022-07-21T07:12:59.221Z</time>
      </trkpt>
      <trkpt lat="44.21063" lon="0.87861">
        <ele>152</ele>
        <time>2022-07-21T07:13:00.221Z</time>
      </trkpt>
      <trkpt lat="44.21063" lon="0.8786">
        <ele>153</ele>
        <time>2022-07-21T07:13:01.221Z</time>
      </trkpt>
      <trkpt lat="44.21064" lon="0.87859">
        <ele>152</ele>
        <time>2022-07-21T07:13:02.221Z</time>
      </trkpt>
      <trkpt lat="44.21065" lon="0.87858">
        <ele>153</ele>
        <time>2022-07-21T07:13:03.221Z</time>
      </trkpt>
      <trkpt lat="44.21065" lon="0.87857">
        <ele>153</ele>
        <time>2022-07-21T07:13:04.221Z</time>
      </trkpt>
      <trkpt lat="44.21066" lon="0.87857">
        <ele>154</ele>
        <time>2022-07-21T07:13:05.221Z</time>
      </trkpt>
      <trkpt lat="44.21066" lon="0.87856">
        <ele>154</ele>
        <time>2022-07-21T07:13:06.221Z</time>
      </trkpt>
      <trkpt lat="44.21067" lon="0.87855">
        <ele>154</ele>
        <time>2022-07-21T07:13:07.221Z</time>
      </trkpt>
      <trkpt lat="44.21067" lon="0.87853">
        <ele>155</ele>
        <time>2022-07-21T07:13:08.221Z</time>
      </trkpt>
      <trkpt lat="44.21068" lon="0.87852">
        <ele>155</ele>
        <time>2022-07-21T07:13:09.221Z</time>
      </trkpt>
      <trkpt lat="44.21068" lon="0.87851">
        <ele>156</ele>
        <time>2022-07-21T07:13:10.221Z</time>
      </trkpt>
      <trkpt lat="44.21069" lon="0.8785">
        <ele>156</ele>
        <time>2022-07-21T07:13:11.221Z</time>
      </trkpt>
      <trkpt lat="44.2107" lon="0.8785">
        <ele>155</ele>
        <time>2022-07-21T07:13:12.221Z</time>
      </trkpt>
      <trkpt lat="44.21071" lon="0.87849">
        <ele>155</ele>
        <time>2022-07-21T07:13:13.221Z</time>
      </trkpt>
      <trkpt lat="44.21071" lon="0.87848">
        <ele>155</ele>
        <time>2022-07-21T07:13:14.221Z</time>
      </trkpt>
      <trkpt lat="44.21072" lon="0.87846">
        <ele>156</ele>
        <time>2022-07-21T07:13:15.221Z</time>
      </trkpt>
      <trkpt lat="44.21073" lon="0.87846">
        <ele>156</ele>
        <time>2022-07-21T07:13:16.221Z</time>
      </trkpt>
      <trkpt lat="44.21074" lon="0.87845">
        <ele>156</ele>
        <time>2022-07-21T07:13:17.221Z</time>
      </trkpt>
      <trkpt lat="44.21074" lon="0.87844">
        <ele>156</ele>
        <time>2022-07-21T07:13:18.221Z</time>
      </trkpt>
      <trkpt lat="44.21075" lon="0.87843">
        <ele>156</ele>
        <time>2022-07-21T07:13:19.221Z</time>
      </trkpt>
      <trkpt lat="44.21076" lon="0.87843">
        <ele>156</ele>
        <time>2022-07-21T07:13:20.221Z</time>
      </trkpt>
      <trkpt lat="44.21077" lon="0.87842">
        <ele>156</ele>
        <time>2022-07-21T07:13:21.221Z</time>
      </trkpt>
      <trkpt lat="44.21078" lon="0.87842">
        <ele>156</ele>
        <time>2022-07-21T07:13:22.221Z</time>
      </trkpt>
      <trkpt lat="44.21079" lon="0.87841">
        <ele>155</ele>
        <time>2022-07-21T07:13:23.221Z</time>
      </trkpt>
      <trkpt lat="44.21079" lon="0.8784">
        <ele>155</ele>
        <time>2022-07-21T07:13:24.221Z</time>
      </trkpt>
      <trkpt lat="44.2108" lon="0.87839">
        <ele>155</ele>
        <time>2022-07-21T07:13:25.221Z</time>
      </trkpt>
      <trkpt lat="44.21081" lon="0.87839">
        <ele>155</ele>
        <time>2022-07-21T07:13:26.221Z</time>
      </trkpt>
      <trkpt lat="44.21081" lon="0.87838">
        <ele>156</ele>
        <time>2022-07-21T07:13:27.221Z</time>
      </trkpt>
      <trkpt lat="44.21082" lon="0.87837">
        <ele>156</ele>
        <time>2022-07-21T07:13:28.221Z</time>
      </trkpt>
      <trkpt lat="44.21082" lon="0.87835">
        <ele>156</ele>
        <time>2022-07-21T07:13:29.221Z</time>
      </trkpt>
      <trkpt lat="44.21082" lon="0.87834">
        <ele>156</ele>
        <time>2022-07-21T07:13:30.221Z</time>
      </trkpt>
      <trkpt lat="44.21083" lon="0.87833">
        <ele>157</ele>
        <time>2022-07-21T07:13:31.221Z</time>
      </trkpt>
      <trkpt lat="44.21083" lon="0.87832">
        <ele>157</ele>
        <time>2022-07-21T07:13:32.221Z</time>
      </trkpt>
      <trkpt lat="44.21084" lon="0.87831">
        <ele>157</ele>
        <time>2022-07-21T07:13:33.221Z</time>
      </trkpt>
      <trkpt lat="44.21084" lon="0.8783">
        <ele>158</ele>
        <time>2022-07-21T07:13:34.221Z</time>
      </trkpt>
      <trkpt lat="44.21085" lon="0.87829">
        <ele>159</ele>
        <time>2022-07-21T07:13:35.221Z</time>
      </trkpt>
      <trkpt lat="44.21085" lon="0.87828">
        <ele>159</ele>
        <time>2022-07-21T07:13:36.221Z</time>
      </trkpt>
      <trkpt lat="44.21086" lon="0.87828">
        <ele>159</ele>
        <time>2022-07-21T07:13:37.221Z</time>
      </trkpt>
      <trkpt lat="44.21086" lon="0.87827">
        <ele>159</ele>
        <time>2022-07-21T07:13:38.221Z</time>
      </trkpt>
      <trkpt lat="44.21087" lon="0.87826">
        <ele>159</ele>
        <time>2022-07-21T07:13:39.221Z</time>
      </trkpt>
      <trkpt lat="44.21087" lon="0.87825">
        <ele>160</ele>
        <time>2022-07-21T07:13:40.221Z</time>
      </trkpt>
      <trkpt lat="44.21087" lon="0.87825">
        <ele>160</ele>
        <time>2022-07-21T07:13:41.221Z</time>
      </trkpt>
      <trkpt lat="44.21088" lon="0.87824">
        <ele>160</ele>
        <time>2022-07-21T07:13:42.221Z</time>
      </trkpt>
      <trkpt lat="44.21088" lon="0.87823">
        <ele>161</ele>
        <time>2022-07-21T07:13:43.221Z</time>
      </trkpt>
      <trkpt lat="44.21089" lon="0.87822">
        <ele>161</ele>
        <time>2022-07-21T07:13:44.221Z</time>
      </trkpt>
      <trkpt lat="44.2109" lon="0.87821">
        <ele>160</ele>
        <time>2022-07-21T07:13:45.221Z</time>
      </trkpt>
      <trkpt lat="44.2109" lon="0.87821">
        <ele>161</ele>
        <time>2022-07-21T07:13:46.221Z</time>
      </trkpt>
      <trkpt lat="44.21091" lon="0.8782">
        <ele>161</ele>
        <time>2022-07-21T07:13:47.221Z</time>
      </trkpt>
      <trkpt lat="44.21091" lon="0.87819">
        <ele>161</ele>
        <time>2022-07-21T07:13:48.221Z</time>
      </trkpt>
      <trkpt lat="44.21092" lon="0.87818">
        <ele>161</ele>
        <time>2022-07-21T07:13:49.221Z</time>
      </trkpt>
      <trkpt lat="44.21092" lon="0.87818">
        <ele>162</ele>
        <time>2022-07-21T07:13:50.221Z</time>
      </trkpt>
      <trkpt lat="44.21093" lon="0.87817">
        <ele>162</ele>
        <time>2022-07-21T07:13:51.221Z</time>
      </trkpt>
      <trkpt lat="44.21093" lon="0.87816">
        <ele>163</ele>
        <time>2022-07-21T07:13:52.221Z</time>
      </trkpt>
      <trkpt lat="44.21093" lon="0.87816">
        <ele>164</ele>
        <time>2022-07-21T07:13:53.221Z</time>
      </trkpt>
      <trkpt lat="44.21094" lon="0.87815">
        <ele>164</ele>
        <time>2022-07-21T07:13:54.221Z</time>
      </trkpt>
      <trkpt lat="44.21094" lon="0.87814">
        <ele>163</ele>
        <time>2022-07-21T07:13:55.221Z</time>
      </trkpt>
      <trkpt lat="44.21095" lon="0.87813">
        <ele>163</ele>
        <time>2022-07-21T07:13:56.221Z</time>
      </trkpt>
      <trkpt lat="44.21095" lon="0.87812">
        <ele>163</ele>
        <time>2022-07-21T07:13:57.221Z</time>
      </trkpt>
      <trkpt lat="44.21096" lon="0.87812">
        <ele>163</ele>
        <time>2022-07-21T07:13:58.221Z</time>
      </trkpt>
      <trkpt lat="44.21097" lon="0.87811">
        <ele>163</ele>
        <time>2022-07-21T07:13:59.221Z</time>
      </trkpt>
      <trkpt lat="44.21098" lon="0.8781">
        <ele>163</ele>
        <time>2022-07-21T07:14:00.221Z</time>
      </trkpt>
      <trkpt lat="44.21099" lon="0.87809">
        <ele>163</ele>
        <time>2022-07-21T07:14:01.221Z</time>
      </trkpt>
      <trkpt lat="44.211" lon="0.87808">
        <ele>163</ele>
        <time>2022-07-21T07:14:02.221Z</time>
      </trkpt>
      <trkpt lat="44.21101" lon="0.87807">
        <ele>163</ele>
        <time>2022-07-21T07:14:03.221Z</time>
      </trkpt>
      <trkpt lat="44.21102" lon="0.87807">
        <ele>163</ele>
        <time>2022-07-21T07:14:04.221Z</time>
      </trkpt>
      <trkpt lat="44.21103" lon="0.87806">
        <ele>163</ele>
        <time>2022-07-21T07:14:05.221Z</time>
      </trkpt>
      <trkpt lat="44.21104" lon="0.87805">
        <ele>163</ele>
        <time>2022-07-21T07:14:06.221Z</time>
      </trkpt>
      <trkpt lat="44.21105" lon="0.87804">
        <ele>163</ele>
        <time>2022-07-21T07:14:07.221Z</time>
      </trkpt>
      <trkpt lat="44.21106" lon="0.87804">
        <ele>163</ele>
        <time>2022-07-21T07:14:08.221Z</time>
      </trkpt>
      <trkpt lat="44.21107" lon="0.87804">
        <ele>162</ele>
        <time>2022-07-21T07:14:09.221Z</time>
      </trkpt>
      <trkpt lat="44.21107" lon="0.87805">
        <ele>162</ele>
        <time>2022-07-21T07:14:10.221Z</time>
      </trkpt>
      <trkpt lat="44.21108" lon="0.87805">
        <ele>162</ele>
        <time>2022-07-21T07:14:11.221Z</time>
      </trkpt>
      <trkpt lat="44.21108" lon="0.87806">
        <ele>162</ele>
        <time>2022-07-21T07:14:12.221Z</time>
      </trkpt>
      <trkpt lat="44.21108" lon="0.87806">
        <ele>161</ele>
        <time>2022-07-21T07:14:13.221Z</time>
      </trkpt>
      <trkpt lat="44.21109" lon="0.87806">
        <ele>161</ele>
        <time>2022-07-21T07:14:14.221Z</time>
      </trkpt>
      <trkpt lat="44.21109" lon="0.87806">
        <ele>161</ele>
        <time>2022-07-21T07:14:15.221Z</time>
      </trkpt>
      <trkpt lat="44.21109" lon="0.87807">
        <ele>161</ele>
        <time>2022-07-21T07:14:16.221Z</time>
      </trkpt>
      <trkpt lat="44.21109" lon="0.87807">
        <ele>161</ele>
        <time>2022-07-21T07:14:17.221Z</time>
      </trkpt>
      <trkpt lat="44.21109" lon="0.87807">
        <ele>161</ele>
        <time>2022-07-21T07:14:18.221Z</time>
      </trkpt>
      <trkpt lat="44.21109" lon="0.87807">
        <ele>161</ele>
        <time>2022-07-21T07:14:19.221Z</time>
      </trkpt>
      <trkpt lat="44.21109" lon="0.87809">
        <ele>162</ele>
        <time>2022-07-21T07:16:31.247Z</time>
      </trkpt>
      <trkpt lat="44.21108" lon="0.87809">
        <ele>162</ele>
        <time>2022-07-21T07:16:32.247Z</time>
      </trkpt>
      <trkpt lat="44.21108" lon="0.87808">
        <ele>162</ele>
        <time>2022-07-21T07:16:33.247Z</time>
      </trkpt>
      <trkpt lat="44.21108" lon="0.87808">
        <ele>162</ele>
        <time>2022-07-21T07:16:34.247Z</time>
      </trkpt>
      <trkpt lat="44.21108" lon="0.87808">
        <ele>162</ele>
        <time>2022-07-21T07:16:35.247Z</time>
      </trkpt>
      <trkpt lat="44.21108" lon="0.87808">
        <ele>162</ele>
        <time>2022-07-21T07:16:36.247Z</time>
      </trkpt>
      <trkpt lat="44.2111" lon="0.87806">
        <ele>161</ele>
        <time>2022-07-21T07:16:59.152Z</time>
      </trkpt>
      <trkpt lat="44.21109" lon="0.87807">
        <ele>161</ele>
        <time>2022-07-21T07:17:00.152Z</time>
      </trkpt>
      <trkpt lat="44.21109" lon="0.87807">
        <ele>162</ele>
        <time>2022-07-21T07:17:01.152Z</time>
      </trkpt>
      <trkpt lat="44.21109" lon="0.87807">
        <ele>162</ele>
        <time>2022-07-21T07:17:02.152Z</time>
      </trkpt>
      <trkpt lat="44.21109" lon="0.87807">
        <ele>162</ele>
        <time>2022-07-21T07:17:03.152Z</time>
      </trkpt>
      <trkpt lat="44.21109" lon="0.87807">
        <ele>162</ele>
        <time>2022-07-21T07:17:04.152Z</time>
      </trkpt>
      <trkpt lat="44.21109" lon="0.87807">
        <ele>162</ele>
        <time>2022-07-21T07:17:05.152Z</time>
      </trkpt>
      <trkpt lat="44.21109" lon="0.87808">
        <ele>162</ele>
        <time>2022-07-21T07:17:06.152Z</time>
      </trkpt>
      <trkpt lat="44.2111" lon="0.87802">
        <ele>161</ele>
        <time>2022-07-21T07:20:11.174Z</time>
      </trkpt>
      <trkpt lat="44.2111" lon="0.87801">
        <ele>161</ele>
        <time>2022-07-21T07:20:12.174Z</time>
      </trkpt>
      <trkpt lat="44.21111" lon="0.878">
        <ele>161</ele>
        <time>2022-07-21T07:20:13.174Z</time>
      </trkpt>
      <trkpt lat="44.21111" lon="0.87799">
        <ele>161</ele>
        <time>2022-07-21T07:20:14.174Z</time>
      </trkpt>
      <trkpt lat="44.21112" lon="0.87797">
        <ele>161</ele>
        <time>2022-07-21T07:20:15.174Z</time>
      </trkpt>
      <trkpt lat="44.21112" lon="0.87796">
        <ele>161</ele>
        <time>2022-07-21T07:20:16.174Z</time>
      </trkpt>
      <trkpt lat="44.21113" lon="0.87795">
        <ele>161</ele>
        <time>2022-07-21T07:20:17.174Z</time>
      </trkpt>
      <trkpt lat="44.21113" lon="0.87793">
        <ele>161</ele>
        <time>2022-07-21T07:20:18.174Z</time>
      </trkpt>
      <trkpt lat="44.21114" lon="0.87792">
        <ele>161</ele>
        <time>2022-07-21T07:20:19.174Z</time>
      </trkpt>
      <trkpt lat="44.21114" lon="0.87791">
        <ele>161</ele>
        <time>2022-07-21T07:20:20.174Z</time>
      </trkpt>
      <trkpt lat="44.21115" lon="0.87791">
        <ele>161</ele>
        <time>2022-07-21T07:20:21.174Z</time>
      </trkpt>
      <trkpt lat="44.21115" lon="0.8779">
        <ele>161</ele>
        <time>2022-07-21T07:20:22.174Z</time>
      </trkpt>
      <trkpt lat="44.21116" lon="0.8779">
        <ele>161</ele>
        <time>2022-07-21T07:20:23.174Z</time>
      </trkpt>
      <trkpt lat="44.21116" lon="0.87789">
        <ele>161</ele>
        <time>2022-07-21T07:20:24.174Z</time>
      </trkpt>
      <trkpt lat="44.21116" lon="0.87788">
        <ele>161</ele>
        <time>2022-07-21T07:20:25.174Z</time>
      </trkpt>
      <trkpt lat="44.21116" lon="0.87787">
        <ele>161</ele>
        <time>2022-07-21T07:20:26.174Z</time>
      </trkpt>
      <trkpt lat="44.21117" lon="0.87786">
        <ele>161</ele>
        <time>2022-07-21T07:20:27.174Z</time>
      </trkpt>
      <trkpt lat="44.21117" lon="0.87785">
        <ele>161</ele>
        <time>2022-07-21T07:20:28.174Z</time>
      </trkpt>
      <trkpt lat="44.21118" lon="0.87783">
        <ele>162</ele>
        <time>2022-07-21T07:20:29.174Z</time>
      </trkpt>
      <trkpt lat="44.21119" lon="0.87782">
        <ele>161</ele>
        <time>2022-07-21T07:20:30.174Z</time>
      </trkpt>
      <trkpt lat="44.21119" lon="0.87781">
        <ele>161</ele>
        <time>2022-07-21T07:20:31.174Z</time>
      </trkpt>
      <trkpt lat="44.2112" lon="0.8778">
        <ele>161</ele>
        <time>2022-07-21T07:20:32.174Z</time>
      </trkpt>
      <trkpt lat="44.2112" lon="0.87779">
        <ele>161</ele>
        <time>2022-07-21T07:20:33.174Z</time>
      </trkpt>
      <trkpt lat="44.21121" lon="0.87777">
        <ele>161</ele>
        <time>2022-07-21T07:20:34.174Z</time>
      </trkpt>
      <trkpt lat="44.21121" lon="0.87776">
        <ele>161</ele>
        <time>2022-07-21T07:20:35.174Z</time>
      </trkpt>
      <trkpt lat="44.21122" lon="0.87775">
        <ele>161</ele>
        <time>2022-07-21T07:20:36.174Z</time>
      </trkpt>
      <trkpt lat="44.21123" lon="0.87773">
        <ele>161</ele>
        <time>2022-07-21T07:20:37.174Z</time>
      </trkpt>
      <trkpt lat="44.21123" lon="0.87771">
        <ele>161</ele>
        <time>2022-07-21T07:20:38.174Z</time>
      </trkpt>
      <trkpt lat="44.21124" lon="0.8777">
        <ele>161</ele>
        <time>2022-07-21T07:20:39.174Z</time>
      </trkpt>
      <trkpt lat="44.21124" lon="0.87769">
        <ele>162</ele>
        <time>2022-07-21T07:20:40.174Z</time>
      </trkpt>
      <trkpt lat="44.21125" lon="0.87767">
        <ele>162</ele>
        <time>2022-07-21T07:20:41.174Z</time>
      </trkpt>
      <trkpt lat="44.21126" lon="0.87766">
        <ele>162</ele>
        <time>2022-07-21T07:20:42.174Z</time>
      </trkpt>
      <trkpt lat="44.21127" lon="0.87765">
        <ele>162</ele>
        <time>2022-07-21T07:20:43.174Z</time>
      </trkpt>
      <trkpt lat="44.21128" lon="0.87763">
        <ele>162</ele>
        <time>2022-07-21T07:20:44.174Z</time>
      </trkpt>
      <trkpt lat="44.21129" lon="0.87762">
        <ele>162</ele>
        <time>2022-07-21T07:20:45.174Z</time>
      </trkpt>
      <trkpt lat="44.21129" lon="0.8776">
        <ele>162</ele>
        <time>2022-07-21T07:20:46.174Z</time>
      </trkpt>
      <trkpt lat="44.2113" lon="0.87759">
        <ele>162</ele>
        <time>2022-07-21T07:20:47.174Z</time>
      </trkpt>
      <trkpt lat="44.21131" lon="0.87758">
        <ele>162</ele>
        <time>2022-07-21T07:20:48.174Z</time>
      </trkpt>
      <trkpt lat="44.21131" lon="0.87757">
        <ele>162</ele>
        <time>2022-07-21T07:20:49.174Z</time>
      </trkpt>
      <trkpt lat="44.21132" lon="0.87756">
        <ele>162</ele>
        <time>2022-07-21T07:20:50.174Z</time>
      </trkpt>
      <trkpt lat="44.21132" lon="0.87754">
        <ele>162</ele>
        <time>2022-07-21T07:20:51.174Z</time>
      </trkpt>
      <trkpt lat="44.21133" lon="0.87753">
        <ele>163</ele>
        <time>2022-07-21T07:20:52.174Z</time>
      </trkpt>
      <trkpt lat="44.21134" lon="0.87752">
        <ele>163</ele>
        <time>2022-07-21T07:20:53.174Z</time>
      </trkpt>
      <trkpt lat="44.21134" lon="0.87751">
        <ele>163</ele>
        <time>2022-07-21T07:20:54.174Z</time>
      </trkpt>
      <trkpt lat="44.21135" lon="0.8775">
        <ele>163</ele>
        <time>2022-07-21T07:20:55.174Z</time>
      </trkpt>
      <trkpt lat="44.21135" lon="0.87749">
        <ele>163</ele>
        <time>2022-07-21T07:20:56.174Z</time>
      </trkpt>
      <trkpt lat="44.21136" lon="0.87748">
        <ele>163</ele>
        <time>2022-07-21T07:20:57.174Z</time>
      </trkpt>
      <trkpt lat="44.21137" lon="0.87747">
        <ele>163</ele>
        <time>2022-07-21T07:20:58.174Z</time>
      </trkpt>
      <trkpt lat="44.21137" lon="0.87746">
        <ele>164</ele>
        <time>2022-07-21T07:20:59.174Z</time>
      </trkpt>
      <trkpt lat="44.21138" lon="0.87745">
        <ele>164</ele>
        <time>2022-07-21T07:21:00.174Z</time>
      </trkpt>
      <trkpt lat="44.21139" lon="0.87745">
        <ele>164</ele>
        <time>2022-07-21T07:21:01.174Z</time>
      </trkpt>
      <trkpt lat="44.2114" lon="0.87744">
        <ele>164</ele>
        <time>2022-07-21T07:21:02.174Z</time>
      </trkpt>
      <trkpt lat="44.2114" lon="0.87743">
        <ele>164</ele>
        <time>2022-07-21T07:21:03.174Z</time>
      </trkpt>
      <trkpt lat="44.21141" lon="0.87741">
        <ele>164</ele>
        <time>2022-07-21T07:21:04.174Z</time>
      </trkpt>
      <trkpt lat="44.21142" lon="0.8774">
        <ele>164</ele>
        <time>2022-07-21T07:21:05.174Z</time>
      </trkpt>
      <trkpt lat="44.21142" lon="0.87739">
        <ele>165</ele>
        <time>2022-07-21T07:21:06.174Z</time>
      </trkpt>
      <trkpt lat="44.21144" lon="0.87738">
        <ele>166</ele>
        <time>2022-07-21T07:21:07.174Z</time>
      </trkpt>
      <trkpt lat="44.21144" lon="0.87737">
        <ele>166</ele>
        <time>2022-07-21T07:21:08.174Z</time>
      </trkpt>
      <trkpt lat="44.21146" lon="0.87736">
        <ele>166</ele>
        <time>2022-07-21T07:21:09.174Z</time>
      </trkpt>
      <trkpt lat="44.21147" lon="0.87734">
        <ele>166</ele>
        <time>2022-07-21T07:21:10.174Z</time>
      </trkpt>
      <trkpt lat="44.21148" lon="0.87733">
        <ele>166</ele>
        <time>2022-07-21T07:21:11.174Z</time>
      </trkpt>
      <trkpt lat="44.21149" lon="0.87732">
        <ele>166</ele>
        <time>2022-07-21T07:21:12.174Z</time>
      </trkpt>
      <trkpt lat="44.21149" lon="0.87731">
        <ele>166</ele>
        <time>2022-07-21T07:21:13.174Z</time>
      </trkpt>
      <trkpt lat="44.2115" lon="0.8773">
        <ele>166</ele>
        <time>2022-07-21T07:21:14.174Z</time>
      </trkpt>
      <trkpt lat="44.21151" lon="0.87729">
        <ele>167</ele>
        <time>2022-07-21T07:21:15.174Z</time>
      </trkpt>
      <trkpt lat="44.21152" lon="0.87727">
        <ele>167</ele>
        <time>2022-07-21T07:21:16.174Z</time>
      </trkpt>
      <trkpt lat="44.21153" lon="0.87726">
        <ele>167</ele>
        <time>2022-07-21T07:21:17.174Z</time>
      </trkpt>
      <trkpt lat="44.21154" lon="0.87724">
        <ele>167</ele>
        <time>2022-07-21T07:21:18.174Z</time>
      </trkpt>
      <trkpt lat="44.21154" lon="0.87723">
        <ele>168</ele>
        <time>2022-07-21T07:21:19.174Z</time>
      </trkpt>
      <trkpt lat="44.21155" lon="0.87722">
        <ele>168</ele>
        <time>2022-07-21T07:21:20.174Z</time>
      </trkpt>
      <trkpt lat="44.21156" lon="0.87721">
        <ele>168</ele>
        <time>2022-07-21T07:21:21.174Z</time>
      </trkpt>
      <trkpt lat="44.21157" lon="0.87719">
        <ele>169</ele>
        <time>2022-07-21T07:21:22.174Z</time>
      </trkpt>
      <trkpt lat="44.21158" lon="0.87718">
        <ele>169</ele>
        <time>2022-07-21T07:21:23.174Z</time>
      </trkpt>
      <trkpt lat="44.21159" lon="0.87717">
        <ele>169</ele>
        <time>2022-07-21T07:21:24.174Z</time>
      </trkpt>
      <trkpt lat="44.21159" lon="0.87715">
        <ele>170</ele>
        <time>2022-07-21T07:21:25.174Z</time>
      </trkpt>
      <trkpt lat="44.2116" lon="0.87714">
        <ele>169</ele>
        <time>2022-07-21T07:21:26.174Z</time>
      </trkpt>
      <trkpt lat="44.21161" lon="0.87712">
        <ele>170</ele>
        <time>2022-07-21T07:21:27.174Z</time>
      </trkpt>
      <trkpt lat="44.21161" lon="0.87711">
        <ele>170</ele>
        <time>2022-07-21T07:21:28.174Z</time>
      </trkpt>
      <trkpt lat="44.21162" lon="0.87709">
        <ele>170</ele>
        <time>2022-07-21T07:21:29.174Z</time>
      </trkpt>
      <trkpt lat="44.21162" lon="0.87708">
        <ele>170</ele>
        <time>2022-07-21T07:21:30.174Z</time>
      </trkpt>
      <trkpt lat="44.21163" lon="0.87707">
        <ele>170</ele>
        <time>2022-07-21T07:21:31.174Z</time>
      </trkpt>
      <trkpt lat="44.21164" lon="0.87705">
        <ele>170</ele>
        <time>2022-07-21T07:21:32.174Z</time>
      </trkpt>
      <trkpt lat="44.21164" lon="0.87704">
        <ele>171</ele>
        <time>2022-07-21T07:21:33.174Z</time>
      </trkpt>
      <trkpt lat="44.21165" lon="0.87702">
        <ele>170</ele>
        <time>2022-07-21T07:21:34.174Z</time>
      </trkpt>
      <trkpt lat="44.21165" lon="0.87701">
        <ele>170</ele>
        <time>2022-07-21T07:21:35.174Z</time>
      </trkpt>
      <trkpt lat="44.21166" lon="0.877">
        <ele>171</ele>
        <time>2022-07-21T07:21:36.174Z</time>
      </trkpt>
      <trkpt lat="44.21167" lon="0.87699">
        <ele>171</ele>
        <time>2022-07-21T07:21:37.174Z</time>
      </trkpt>
      <trkpt lat="44.21167" lon="0.87697">
        <ele>171</ele>
        <time>2022-07-21T07:21:38.174Z</time>
      </trkpt>
      <trkpt lat="44.21168" lon="0.87696">
        <ele>170</ele>
        <time>2022-07-21T07:21:39.174Z</time>
      </trkpt>
      <trkpt lat="44.21169" lon="0.87695">
        <ele>170</ele>
        <time>2022-07-21T07:21:40.174Z</time>
      </trkpt>
      <trkpt lat="44.2117" lon="0.87694">
        <ele>170</ele>
        <time>2022-07-21T07:21:41.174Z</time>
      </trkpt>
      <trkpt lat="44.2117" lon="0.87692">
        <ele>170</ele>
        <time>2022-07-21T07:21:42.174Z</time>
      </trkpt>
      <trkpt lat="44.21171" lon="0.87691">
        <ele>170</ele>
        <time>2022-07-21T07:21:43.174Z</time>
      </trkpt>
      <trkpt lat="44.21172" lon="0.8769">
        <ele>170</ele>
        <time>2022-07-21T07:21:44.174Z</time>
      </trkpt>
      <trkpt lat="44.21172" lon="0.87689">
        <ele>171</ele>
        <time>2022-07-21T07:21:45.174Z</time>
      </trkpt>
      <trkpt lat="44.21173" lon="0.87687">
        <ele>171</ele>
        <time>2022-07-21T07:21:46.174Z</time>
      </trkpt>
      <trkpt lat="44.21174" lon="0.87686">
        <ele>171</ele>
        <time>2022-07-21T07:21:47.174Z</time>
      </trkpt>
      <trkpt lat="44.21174" lon="0.87685">
        <ele>171</ele>
        <time>2022-07-21T07:21:48.174Z</time>
      </trkpt>
      <trkpt lat="44.21175" lon="0.87683">
        <ele>171</ele>
        <time>2022-07-21T07:21:49.174Z</time>
      </trkpt>
      <trkpt lat="44.21176" lon="0.87682">
        <ele>171</ele>
        <time>2022-07-21T07:21:50.174Z</time>
      </trkpt>
      <trkpt lat="44.21176" lon="0.87681">
        <ele>171</ele>
        <time>2022-07-21T07:21:51.174Z</time>
      </trkpt>
      <trkpt lat="44.21177" lon="0.87679">
        <ele>171</ele>
        <time>2022-07-21T07:21:52.174Z</time>
      </trkpt>
      <trkpt lat="44.21178" lon="0.87678">
        <ele>172</ele>
        <time>2022-07-21T07:21:53.174Z</time>
      </trkpt>
      <trkpt lat="44.21179" lon="0.87677">
        <ele>172</ele>
        <time>2022-07-21T07:21:54.174Z</time>
      </trkpt>
      <trkpt lat="44.21179" lon="0.87676">
        <ele>172</ele>
        <time>2022-07-21T07:21:55.174Z</time>
      </trkpt>
      <trkpt lat="44.2118" lon="0.87675">
        <ele>172</ele>
        <time>2022-07-21T07:21:56.174Z</time>
      </trkpt>
      <trkpt lat="44.21181" lon="0.87673">
        <ele>172</ele>
        <time>2022-07-21T07:21:57.174Z</time>
      </trkpt>
      <trkpt lat="44.21182" lon="0.87672">
        <ele>172</ele>
        <time>2022-07-21T07:21:58.174Z</time>
      </trkpt>
      <trkpt lat="44.21182" lon="0.87671">
        <ele>171</ele>
        <time>2022-07-21T07:21:59.174Z</time>
      </trkpt>
      <trkpt lat="44.21183" lon="0.8767">
        <ele>171</ele>
        <time>2022-07-21T07:22:00.174Z</time>
      </trkpt>
      <trkpt lat="44.21184" lon="0.87668">
        <ele>171</ele>
        <time>2022-07-21T07:22:01.174Z</time>
      </trkpt>
      <trkpt lat="44.21184" lon="0.87667">
        <ele>171</ele>
        <time>2022-07-21T07:22:02.174Z</time>
      </trkpt>
      <trkpt lat="44.21185" lon="0.87665">
        <ele>171</ele>
        <time>2022-07-21T07:22:03.174Z</time>
      </trkpt>
      <trkpt lat="44.21186" lon="0.87664">
        <ele>171</ele>
        <time>2022-07-21T07:22:04.174Z</time>
      </trkpt>
      <trkpt lat="44.21186" lon="0.87662">
        <ele>171</ele>
        <time>2022-07-21T07:22:05.174Z</time>
      </trkpt>
      <trkpt lat="44.21187" lon="0.8766">
        <ele>171</ele>
        <time>2022-07-21T07:22:06.174Z</time>
      </trkpt>
      <trkpt lat="44.21188" lon="0.87659">
        <ele>171</ele>
        <time>2022-07-21T07:22:07.174Z</time>
      </trkpt>
      <trkpt lat="44.21189" lon="0.87657">
        <ele>171</ele>
        <time>2022-07-21T07:22:08.174Z</time>
      </trkpt>
      <trkpt lat="44.2119" lon="0.87656">
        <ele>171</ele>
        <time>2022-07-21T07:22:09.174Z</time>
      </trkpt>
      <trkpt lat="44.21191" lon="0.87655">
        <ele>171</ele>
        <time>2022-07-21T07:22:10.174Z</time>
      </trkpt>
      <trkpt lat="44.21192" lon="0.87653">
        <ele>171</ele>
        <time>2022-07-21T07:22:11.174Z</time>
      </trkpt>
      <trkpt lat="44.21192" lon="0.87652">
        <ele>170</ele>
        <time>2022-07-21T07:22:12.174Z</time>
      </trkpt>
      <trkpt lat="44.21193" lon="0.87651">
        <ele>171</ele>
        <time>2022-07-21T07:22:13.174Z</time>
      </trkpt>
      <trkpt lat="44.21194" lon="0.87649">
        <ele>171</ele>
        <time>2022-07-21T07:22:14.174Z</time>
      </trkpt>
      <trkpt lat="44.21195" lon="0.87648">
        <ele>170</ele>
        <time>2022-07-21T07:22:15.174Z</time>
      </trkpt>
      <trkpt lat="44.21195" lon="0.87646">
        <ele>170</ele>
        <time>2022-07-21T07:22:16.174Z</time>
      </trkpt>
      <trkpt lat="44.21196" lon="0.87645">
        <ele>170</ele>
        <time>2022-07-21T07:22:17.174Z</time>
      </trkpt>
      <trkpt lat="44.21197" lon="0.87644">
        <ele>170</ele>
        <time>2022-07-21T07:22:18.174Z</time>
      </trkpt>
      <trkpt lat="44.21198" lon="0.87642">
        <ele>170</ele>
        <time>2022-07-21T07:22:19.174Z</time>
      </trkpt>
      <trkpt lat="44.21198" lon="0.87641">
        <ele>171</ele>
        <time>2022-07-21T07:22:20.174Z</time>
      </trkpt>
      <trkpt lat="44.21199" lon="0.87639">
        <ele>171</ele>
        <time>2022-07-21T07:22:21.174Z</time>
      </trkpt>
      <trkpt lat="44.212" lon="0.87638">
        <ele>171</ele>
        <time>2022-07-21T07:22:22.174Z</time>
      </trkpt>
      <trkpt lat="44.21201" lon="0.87637">
        <ele>171</ele>
        <time>2022-07-21T07:22:23.174Z</time>
      </trkpt>
      <trkpt lat="44.21202" lon="0.87635">
        <ele>171</ele>
        <time>2022-07-21T07:22:24.174Z</time>
      </trkpt>
      <trkpt lat="44.21202" lon="0.87634">
        <ele>172</ele>
        <time>2022-07-21T07:22:25.174Z</time>
      </trkpt>
      <trkpt lat="44.21203" lon="0.87633">
        <ele>172</ele>
        <time>2022-07-21T07:22:26.174Z</time>
      </trkpt>
      <trkpt lat="44.21204" lon="0.87631">
        <ele>172</ele>
        <time>2022-07-21T07:22:27.174Z</time>
      </trkpt>
      <trkpt lat="44.21205" lon="0.8763">
        <ele>172</ele>
        <time>2022-07-21T07:22:28.174Z</time>
      </trkpt>
      <trkpt lat="44.21206" lon="0.87628">
        <ele>172</ele>
        <time>2022-07-21T07:22:29.174Z</time>
      </trkpt>
      <trkpt lat="44.21207" lon="0.87627">
        <ele>172</ele>
        <time>2022-07-21T07:22:30.174Z</time>
      </trkpt>
      <trkpt lat="44.21207" lon="0.87626">
        <ele>172</ele>
        <time>2022-07-21T07:22:31.174Z</time>
      </trkpt>
      <trkpt lat="44.21208" lon="0.87624">
        <ele>172</ele>
        <time>2022-07-21T07:22:32.174Z</time>
      </trkpt>
      <trkpt lat="44.21209" lon="0.87623">
        <ele>172</ele>
        <time>2022-07-21T07:22:33.174Z</time>
      </trkpt>
      <trkpt lat="44.2121" lon="0.87621">
        <ele>171</ele>
        <time>2022-07-21T07:22:34.174Z</time>
      </trkpt>
      <trkpt lat="44.21211" lon="0.8762">
        <ele>171</ele>
        <time>2022-07-21T07:22:35.174Z</time>
      </trkpt>
      <trkpt lat="44.21211" lon="0.87618">
        <ele>171</ele>
        <time>2022-07-21T07:22:36.174Z</time>
      </trkpt>
      <trkpt lat="44.21212" lon="0.87617">
        <ele>171</ele>
        <time>2022-07-21T07:22:37.174Z</time>
      </trkpt>
      <trkpt lat="44.21213" lon="0.87616">
        <ele>171</ele>
        <time>2022-07-21T07:22:38.174Z</time>
      </trkpt>
      <trkpt lat="44.21213" lon="0.87614">
        <ele>171</ele>
        <time>2022-07-21T07:22:39.174Z</time>
      </trkpt>
      <trkpt lat="44.21214" lon="0.87613">
        <ele>171</ele>
        <time>2022-07-21T07:22:40.174Z</time>
      </trkpt>
      <trkpt lat="44.21215" lon="0.87612">
        <ele>171</ele>
        <time>2022-07-21T07:22:41.174Z</time>
      </trkpt>
      <trkpt lat="44.21216" lon="0.8761">
        <ele>171</ele>
        <time>2022-07-21T07:22:42.174Z</time>
      </trkpt>
      <trkpt lat="44.21216" lon="0.87609">
        <ele>171</ele>
        <time>2022-07-21T07:22:43.174Z</time>
      </trkpt>
      <trkpt lat="44.21217" lon="0.87607">
        <ele>171</ele>
        <time>2022-07-21T07:22:44.174Z</time>
      </trkpt>
      <trkpt lat="44.21218" lon="0.87606">
        <ele>171</ele>
        <time>2022-07-21T07:22:45.174Z</time>
      </trkpt>
      <trkpt lat="44.21219" lon="0.87604">
        <ele>171</ele>
        <time>2022-07-21T07:22:46.174Z</time>
      </trkpt>
      <trkpt lat="44.2122" lon="0.87603">
        <ele>171</ele>
        <time>2022-07-21T07:22:47.174Z</time>
      </trkpt>
      <trkpt lat="44.2122" lon="0.87602">
        <ele>171</ele>
        <time>2022-07-21T07:22:48.174Z</time>
      </trkpt>
      <trkpt lat="44.21221" lon="0.876">
        <ele>171</ele>
        <time>2022-07-21T07:22:49.174Z</time>
      </trkpt>
      <trkpt lat="44.21222" lon="0.87599">
        <ele>171</ele>
        <time>2022-07-21T07:22:50.174Z</time>
      </trkpt>
      <trkpt lat="44.21223" lon="0.87597">
        <ele>171</ele>
        <time>2022-07-21T07:22:51.174Z</time>
      </trkpt>
      <trkpt lat="44.21223" lon="0.87596">
        <ele>171</ele>
        <time>2022-07-21T07:22:52.174Z</time>
      </trkpt>
      <trkpt lat="44.21224" lon="0.87595">
        <ele>171</ele>
        <time>2022-07-21T07:22:53.174Z</time>
      </trkpt>
      <trkpt lat="44.21225" lon="0.87593">
        <ele>171</ele>
        <time>2022-07-21T07:22:54.174Z</time>
      </trkpt>
      <trkpt lat="44.21226" lon="0.87592">
        <ele>171</ele>
        <time>2022-07-21T07:22:55.174Z</time>
      </trkpt>
      <trkpt lat="44.21226" lon="0.8759">
        <ele>171</ele>
        <time>2022-07-21T07:22:56.174Z</time>
      </trkpt>
      <trkpt lat="44.21227" lon="0.87589">
        <ele>171</ele>
        <time>2022-07-21T07:22:57.174Z</time>
      </trkpt>
      <trkpt lat="44.21228" lon="0.87588">
        <ele>171</ele>
        <time>2022-07-21T07:22:58.174Z</time>
      </trkpt>
      <trkpt lat="44.21228" lon="0.87586">
        <ele>171</ele>
        <time>2022-07-21T07:22:59.174Z</time>
      </trkpt>
      <trkpt lat="44.21229" lon="0.87585">
        <ele>171</ele>
        <time>2022-07-21T07:23:00.174Z</time>
      </trkpt>
      <trkpt lat="44.2123" lon="0.87583">
        <ele>171</ele>
        <time>2022-07-21T07:23:01.174Z</time>
      </trkpt>
      <trkpt lat="44.2123" lon="0.87581">
        <ele>170</ele>
        <time>2022-07-21T07:23:02.174Z</time>
      </trkpt>
      <trkpt lat="44.21231" lon="0.8758">
        <ele>170</ele>
        <time>2022-07-21T07:23:03.174Z</time>
      </trkpt>
      <trkpt lat="44.21232" lon="0.87579">
        <ele>171</ele>
        <time>2022-07-21T07:23:04.174Z</time>
      </trkpt>
      <trkpt lat="44.21232" lon="0.87577">
        <ele>170</ele>
        <time>2022-07-21T07:23:05.174Z</time>
      </trkpt>
      <trkpt lat="44.21233" lon="0.87575">
        <ele>170</ele>
        <time>2022-07-21T07:23:06.174Z</time>
      </trkpt>
      <trkpt lat="44.21234" lon="0.87574">
        <ele>170</ele>
        <time>2022-07-21T07:23:07.174Z</time>
      </trkpt>
      <trkpt lat="44.21235" lon="0.87572">
        <ele>170</ele>
        <time>2022-07-21T07:23:08.174Z</time>
      </trkpt>
      <trkpt lat="44.21235" lon="0.87571">
        <ele>170</ele>
        <time>2022-07-21T07:23:09.174Z</time>
      </trkpt>
      <trkpt lat="44.21236" lon="0.87569">
        <ele>171</ele>
        <time>2022-07-21T07:23:10.174Z</time>
      </trkpt>
      <trkpt lat="44.21237" lon="0.87568">
        <ele>170</ele>
        <time>2022-07-21T07:23:11.174Z</time>
      </trkpt>
      <trkpt lat="44.21237" lon="0.87567">
        <ele>170</ele>
        <time>2022-07-21T07:23:12.174Z</time>
      </trkpt>
      <trkpt lat="44.21238" lon="0.87566">
        <ele>171</ele>
        <time>2022-07-21T07:23:13.174Z</time>
      </trkpt>
      <trkpt lat="44.21239" lon="0.87564">
        <ele>171</ele>
        <time>2022-07-21T07:23:14.174Z</time>
      </trkpt>
      <trkpt lat="44.2124" lon="0.87563">
        <ele>171</ele>
        <time>2022-07-21T07:23:15.174Z</time>
      </trkpt>
      <trkpt lat="44.2124" lon="0.87562">
        <ele>171</ele>
        <time>2022-07-21T07:23:16.174Z</time>
      </trkpt>
      <trkpt lat="44.21241" lon="0.87561">
        <ele>171</ele>
        <time>2022-07-21T07:23:17.174Z</time>
      </trkpt>
      <trkpt lat="44.21241" lon="0.8756">
        <ele>170</ele>
        <time>2022-07-21T07:23:18.174Z</time>
      </trkpt>
      <trkpt lat="44.21242" lon="0.87559">
        <ele>171</ele>
        <time>2022-07-21T07:23:19.174Z</time>
      </trkpt>
      <trkpt lat="44.21243" lon="0.87558">
        <ele>171</ele>
        <time>2022-07-21T07:23:20.174Z</time>
      </trkpt>
      <trkpt lat="44.21244" lon="0.87557">
        <ele>171</ele>
        <time>2022-07-21T07:23:21.174Z</time>
      </trkpt>
      <trkpt lat="44.21244" lon="0.87555">
        <ele>171</ele>
        <time>2022-07-21T07:23:22.174Z</time>
      </trkpt>
      <trkpt lat="44.21245" lon="0.87554">
        <ele>171</ele>
        <time>2022-07-21T07:23:23.174Z</time>
      </trkpt>
      <trkpt lat="44.21246" lon="0.87553">
        <ele>171</ele>
        <time>2022-07-21T07:23:24.174Z</time>
      </trkpt>
      <trkpt lat="44.21246" lon="0.87552">
        <ele>172</ele>
        <time>2022-07-21T07:23:25.174Z</time>
      </trkpt>
      <trkpt lat="44.21247" lon="0.87551">
        <ele>172</ele>
        <time>2022-07-21T07:23:26.174Z</time>
      </trkpt>
      <trkpt lat="44.21248" lon="0.8755">
        <ele>172</ele>
        <time>2022-07-21T07:23:27.174Z</time>
      </trkpt>
      <trkpt lat="44.21248" lon="0.87548">
        <ele>172</ele>
        <time>2022-07-21T07:23:28.174Z</time>
      </trkpt>
      <trkpt lat="44.21249" lon="0.87547">
        <ele>172</ele>
        <time>2022-07-21T07:23:29.174Z</time>
      </trkpt>
      <trkpt lat="44.21249" lon="0.87546">
        <ele>171</ele>
        <time>2022-07-21T07:23:30.174Z</time>
      </trkpt>
      <trkpt lat="44.2125" lon="0.87544">
        <ele>172</ele>
        <time>2022-07-21T07:23:31.174Z</time>
      </trkpt>
      <trkpt lat="44.2125" lon="0.87543">
        <ele>171</ele>
        <time>2022-07-21T07:23:32.174Z</time>
      </trkpt>
      <trkpt lat="44.21251" lon="0.87542">
        <ele>172</ele>
        <time>2022-07-21T07:23:33.174Z</time>
      </trkpt>
      <trkpt lat="44.21252" lon="0.8754">
        <ele>172</ele>
        <time>2022-07-21T07:23:34.174Z</time>
      </trkpt>
      <trkpt lat="44.21253" lon="0.87539">
        <ele>172</ele>
        <time>2022-07-21T07:23:35.174Z</time>
      </trkpt>
      <trkpt lat="44.21253" lon="0.87537">
        <ele>172</ele>
        <time>2022-07-21T07:23:36.174Z</time>
      </trkpt>
      <trkpt lat="44.21254" lon="0.87536">
        <ele>172</ele>
        <time>2022-07-21T07:23:37.174Z</time>
      </trkpt>
      <trkpt lat="44.21254" lon="0.87534">
        <ele>172</ele>
        <time>2022-07-21T07:23:38.174Z</time>
      </trkpt>
      <trkpt lat="44.21255" lon="0.87533">
        <ele>173</ele>
        <time>2022-07-21T07:23:39.174Z</time>
      </trkpt>
      <trkpt lat="44.21256" lon="0.87532">
        <ele>173</ele>
        <time>2022-07-21T07:23:40.174Z</time>
      </trkpt>
      <trkpt lat="44.21256" lon="0.8753">
        <ele>173</ele>
        <time>2022-07-21T07:23:41.174Z</time>
      </trkpt>
      <trkpt lat="44.21257" lon="0.87529">
        <ele>173</ele>
        <time>2022-07-21T07:23:42.174Z</time>
      </trkpt>
      <trkpt lat="44.21257" lon="0.87528">
        <ele>173</ele>
        <time>2022-07-21T07:23:43.174Z</time>
      </trkpt>
      <trkpt lat="44.21258" lon="0.87526">
        <ele>173</ele>
        <time>2022-07-21T07:23:44.174Z</time>
      </trkpt>
      <trkpt lat="44.21258" lon="0.87525">
        <ele>173</ele>
        <time>2022-07-21T07:23:45.174Z</time>
      </trkpt>
      <trkpt lat="44.21258" lon="0.87523">
        <ele>173</ele>
        <time>2022-07-21T07:23:46.174Z</time>
      </trkpt>
      <trkpt lat="44.21259" lon="0.87522">
        <ele>172</ele>
        <time>2022-07-21T07:23:47.174Z</time>
      </trkpt>
      <trkpt lat="44.21259" lon="0.87521">
        <ele>172</ele>
        <time>2022-07-21T07:23:48.174Z</time>
      </trkpt>
      <trkpt lat="44.2126" lon="0.87519">
        <ele>172</ele>
        <time>2022-07-21T07:23:49.174Z</time>
      </trkpt>
      <trkpt lat="44.2126" lon="0.87518">
        <ele>172</ele>
        <time>2022-07-21T07:23:50.174Z</time>
      </trkpt>
      <trkpt lat="44.2126" lon="0.87517">
        <ele>172</ele>
        <time>2022-07-21T07:23:51.174Z</time>
      </trkpt>
      <trkpt lat="44.2126" lon="0.87516">
        <ele>172</ele>
        <time>2022-07-21T07:23:52.174Z</time>
      </trkpt>
      <trkpt lat="44.2126" lon="0.87514">
        <ele>172</ele>
        <time>2022-07-21T07:23:53.174Z</time>
      </trkpt>
      <trkpt lat="44.2126" lon="0.87513">
        <ele>173</ele>
        <time>2022-07-21T07:23:54.174Z</time>
      </trkpt>
      <trkpt lat="44.2126" lon="0.87512">
        <ele>173</ele>
        <time>2022-07-21T07:23:55.174Z</time>
      </trkpt>
      <trkpt lat="44.21259" lon="0.87511">
        <ele>173</ele>
        <time>2022-07-21T07:23:56.174Z</time>
      </trkpt>
      <trkpt lat="44.21258" lon="0.8751">
        <ele>173</ele>
        <time>2022-07-21T07:23:57.174Z</time>
      </trkpt>
      <trkpt lat="44.21257" lon="0.87509">
        <ele>172</ele>
        <time>2022-07-21T07:23:58.174Z</time>
      </trkpt>
      <trkpt lat="44.21257" lon="0.87508">
        <ele>172</ele>
        <time>2022-07-21T07:23:59.174Z</time>
      </trkpt>
      <trkpt lat="44.21256" lon="0.87508">
        <ele>172</ele>
        <time>2022-07-21T07:24:00.174Z</time>
      </trkpt>
      <trkpt lat="44.21255" lon="0.87507">
        <ele>172</ele>
        <time>2022-07-21T07:24:01.174Z</time>
      </trkpt>
      <trkpt lat="44.21254" lon="0.87507">
        <ele>172</ele>
        <time>2022-07-21T07:24:02.174Z</time>
      </trkpt>
      <trkpt lat="44.21252" lon="0.87506">
        <ele>172</ele>
        <time>2022-07-21T07:24:03.174Z</time>
      </trkpt>
      <trkpt lat="44.21251" lon="0.87505">
        <ele>172</ele>
        <time>2022-07-21T07:24:04.174Z</time>
      </trkpt>
      <trkpt lat="44.2125" lon="0.87504">
        <ele>171</ele>
        <time>2022-07-21T07:24:05.174Z</time>
      </trkpt>
      <trkpt lat="44.21249" lon="0.87504">
        <ele>171</ele>
        <time>2022-07-21T07:24:06.174Z</time>
      </trkpt>
      <trkpt lat="44.21248" lon="0.87503">
        <ele>171</ele>
        <time>2022-07-21T07:24:07.174Z</time>
      </trkpt>
      <trkpt lat="44.21247" lon="0.87503">
        <ele>171</ele>
        <time>2022-07-21T07:24:08.174Z</time>
      </trkpt>
      <trkpt lat="44.21246" lon="0.87502">
        <ele>171</ele>
        <time>2022-07-21T07:24:09.174Z</time>
      </trkpt>
      <trkpt lat="44.21244" lon="0.87502">
        <ele>171</ele>
        <time>2022-07-21T07:24:10.174Z</time>
      </trkpt>
      <trkpt lat="44.21243" lon="0.87501">
        <ele>171</ele>
        <time>2022-07-21T07:24:11.174Z</time>
      </trkpt>
      <trkpt lat="44.21242" lon="0.87501">
        <ele>172</ele>
        <time>2022-07-21T07:24:12.174Z</time>
      </trkpt>
      <trkpt lat="44.21241" lon="0.87501">
        <ele>172</ele>
        <time>2022-07-21T07:24:13.174Z</time>
      </trkpt>
      <trkpt lat="44.2124" lon="0.875">
        <ele>171</ele>
        <time>2022-07-21T07:24:14.174Z</time>
      </trkpt>
      <trkpt lat="44.21238" lon="0.875">
        <ele>171</ele>
        <time>2022-07-21T07:24:15.174Z</time>
      </trkpt>
      <trkpt lat="44.21237" lon="0.87499">
        <ele>172</ele>
        <time>2022-07-21T07:24:16.174Z</time>
      </trkpt>
      <trkpt lat="44.21236" lon="0.87499">
        <ele>171</ele>
        <time>2022-07-21T07:24:17.174Z</time>
      </trkpt>
      <trkpt lat="44.21235" lon="0.87498">
        <ele>171</ele>
        <time>2022-07-21T07:24:18.174Z</time>
      </trkpt>
      <trkpt lat="44.21234" lon="0.87498">
        <ele>170</ele>
        <time>2022-07-21T07:24:19.174Z</time>
      </trkpt>
      <trkpt lat="44.21233" lon="0.87497">
        <ele>170</ele>
        <time>2022-07-21T07:24:20.174Z</time>
      </trkpt>
      <trkpt lat="44.21232" lon="0.87496">
        <ele>171</ele>
        <time>2022-07-21T07:24:21.174Z</time>
      </trkpt>
      <trkpt lat="44.21232" lon="0.87496">
        <ele>170</ele>
        <time>2022-07-21T07:24:22.174Z</time>
      </trkpt>
      <trkpt lat="44.21231" lon="0.87496">
        <ele>171</ele>
        <time>2022-07-21T07:24:23.174Z</time>
      </trkpt>
      <trkpt lat="44.2123" lon="0.87495">
        <ele>171</ele>
        <time>2022-07-21T07:24:24.174Z</time>
      </trkpt>
      <trkpt lat="44.21229" lon="0.87495">
        <ele>171</ele>
        <time>2022-07-21T07:24:25.174Z</time>
      </trkpt>
      <trkpt lat="44.21227" lon="0.87494">
        <ele>171</ele>
        <time>2022-07-21T07:24:26.174Z</time>
      </trkpt>
      <trkpt lat="44.21226" lon="0.87494">
        <ele>172</ele>
        <time>2022-07-21T07:24:27.174Z</time>
      </trkpt>
      <trkpt lat="44.21225" lon="0.87494">
        <ele>172</ele>
        <time>2022-07-21T07:24:28.174Z</time>
      </trkpt>
      <trkpt lat="44.21224" lon="0.87493">
        <ele>172</ele>
        <time>2022-07-21T07:24:29.174Z</time>
      </trkpt>
      <trkpt lat="44.21223" lon="0.87493">
        <ele>172</ele>
        <time>2022-07-21T07:24:30.174Z</time>
      </trkpt>
      <trkpt lat="44.21222" lon="0.87493">
        <ele>172</ele>
        <time>2022-07-21T07:24:31.174Z</time>
      </trkpt>
      <trkpt lat="44.2122" lon="0.87493">
        <ele>171</ele>
        <time>2022-07-21T07:24:32.174Z</time>
      </trkpt>
      <trkpt lat="44.2122" lon="0.87493">
        <ele>171</ele>
        <time>2022-07-21T07:24:33.174Z</time>
      </trkpt>
      <trkpt lat="44.21219" lon="0.87493">
        <ele>171</ele>
        <time>2022-07-21T07:24:34.174Z</time>
      </trkpt>
      <trkpt lat="44.21217" lon="0.87492">
        <ele>171</ele>
        <time>2022-07-21T07:24:35.174Z</time>
      </trkpt>
      <trkpt lat="44.21216" lon="0.87492">
        <ele>172</ele>
        <time>2022-07-21T07:24:36.174Z</time>
      </trkpt>
      <trkpt lat="44.21215" lon="0.87491">
        <ele>171</ele>
        <time>2022-07-21T07:24:37.174Z</time>
      </trkpt>
      <trkpt lat="44.21214" lon="0.87491">
        <ele>172</ele>
        <time>2022-07-21T07:24:38.174Z</time>
      </trkpt>
      <trkpt lat="44.21213" lon="0.8749">
        <ele>172</ele>
        <time>2022-07-21T07:24:39.174Z</time>
      </trkpt>
      <trkpt lat="44.21212" lon="0.8749">
        <ele>172</ele>
        <time>2022-07-21T07:24:40.174Z</time>
      </trkpt>
      <trkpt lat="44.21212" lon="0.8749">
        <ele>172</ele>
        <time>2022-07-21T07:24:41.174Z</time>
      </trkpt>
      <trkpt lat="44.2121" lon="0.8749">
        <ele>172</ele>
        <time>2022-07-21T07:24:42.174Z</time>
      </trkpt>
      <trkpt lat="44.21209" lon="0.87491">
        <ele>172</ele>
        <time>2022-07-21T07:24:43.174Z</time>
      </trkpt>
      <trkpt lat="44.21208" lon="0.8749">
        <ele>172</ele>
        <time>2022-07-21T07:24:44.174Z</time>
      </trkpt>
      <trkpt lat="44.21207" lon="0.8749">
        <ele>171</ele>
        <time>2022-07-21T07:24:45.174Z</time>
      </trkpt>
      <trkpt lat="44.21206" lon="0.87489">
        <ele>171</ele>
        <time>2022-07-21T07:24:46.174Z</time>
      </trkpt>
      <trkpt lat="44.21205" lon="0.87489">
        <ele>171</ele>
        <time>2022-07-21T07:24:47.174Z</time>
      </trkpt>
      <trkpt lat="44.21203" lon="0.87488">
        <ele>171</ele>
        <time>2022-07-21T07:24:48.174Z</time>
      </trkpt>
      <trkpt lat="44.21202" lon="0.87488">
        <ele>171</ele>
        <time>2022-07-21T07:24:49.174Z</time>
      </trkpt>
      <trkpt lat="44.21201" lon="0.87487">
        <ele>171</ele>
        <time>2022-07-21T07:24:50.174Z</time>
      </trkpt>
      <trkpt lat="44.212" lon="0.87487">
        <ele>171</ele>
        <time>2022-07-21T07:24:51.174Z</time>
      </trkpt>
      <trkpt lat="44.21199" lon="0.87486">
        <ele>171</ele>
        <time>2022-07-21T07:24:52.174Z</time>
      </trkpt>
      <trkpt lat="44.21197" lon="0.87486">
        <ele>171</ele>
        <time>2022-07-21T07:24:53.174Z</time>
      </trkpt>
      <trkpt lat="44.21196" lon="0.87486">
        <ele>171</ele>
        <time>2022-07-21T07:24:54.174Z</time>
      </trkpt>
      <trkpt lat="44.21195" lon="0.87485">
        <ele>170</ele>
        <time>2022-07-21T07:24:55.174Z</time>
      </trkpt>
      <trkpt lat="44.21194" lon="0.87485">
        <ele>170</ele>
        <time>2022-07-21T07:24:56.174Z</time>
      </trkpt>
      <trkpt lat="44.21193" lon="0.87484">
        <ele>170</ele>
        <time>2022-07-21T07:24:57.174Z</time>
      </trkpt>
      <trkpt lat="44.21191" lon="0.87483">
        <ele>170</ele>
        <time>2022-07-21T07:24:58.174Z</time>
      </trkpt>
      <trkpt lat="44.2119" lon="0.87483">
        <ele>170</ele>
        <time>2022-07-21T07:24:59.174Z</time>
      </trkpt>
      <trkpt lat="44.21189" lon="0.87482">
        <ele>170</ele>
        <time>2022-07-21T07:25:00.174Z</time>
      </trkpt>
      <trkpt lat="44.21188" lon="0.87481">
        <ele>170</ele>
        <time>2022-07-21T07:25:01.174Z</time>
      </trkpt>
      <trkpt lat="44.21187" lon="0.87481">
        <ele>170</ele>
        <time>2022-07-21T07:25:02.174Z</time>
      </trkpt>
      <trkpt lat="44.21186" lon="0.87481">
        <ele>170</ele>
        <time>2022-07-21T07:25:03.174Z</time>
      </trkpt>
      <trkpt lat="44.21184" lon="0.8748">
        <ele>170</ele>
        <time>2022-07-21T07:25:04.174Z</time>
      </trkpt>
      <trkpt lat="44.21183" lon="0.8748">
        <ele>171</ele>
        <time>2022-07-21T07:25:05.174Z</time>
      </trkpt>
      <trkpt lat="44.21182" lon="0.87479">
        <ele>171</ele>
        <time>2022-07-21T07:25:06.174Z</time>
      </trkpt>
      <trkpt lat="44.2118" lon="0.87479">
        <ele>171</ele>
        <time>2022-07-21T07:25:07.174Z</time>
      </trkpt>
      <trkpt lat="44.21179" lon="0.87478">
        <ele>171</ele>
        <time>2022-07-21T07:25:08.174Z</time>
      </trkpt>
      <trkpt lat="44.21178" lon="0.87478">
        <ele>171</ele>
        <time>2022-07-21T07:25:09.174Z</time>
      </trkpt>
      <trkpt lat="44.21177" lon="0.87477">
        <ele>171</ele>
        <time>2022-07-21T07:25:10.174Z</time>
      </trkpt>
      <trkpt lat="44.21175" lon="0.87477">
        <ele>171</ele>
        <time>2022-07-21T07:25:11.174Z</time>
      </trkpt>
      <trkpt lat="44.21174" lon="0.87476">
        <ele>171</ele>
        <time>2022-07-21T07:25:12.174Z</time>
      </trkpt>
      <trkpt lat="44.21173" lon="0.87476">
        <ele>171</ele>
        <time>2022-07-21T07:25:13.174Z</time>
      </trkpt>
      <trkpt lat="44.21172" lon="0.87475">
        <ele>171</ele>
        <time>2022-07-21T07:25:14.174Z</time>
      </trkpt>
      <trkpt lat="44.21171" lon="0.87475">
        <ele>171</ele>
        <time>2022-07-21T07:25:15.174Z</time>
      </trkpt>
      <trkpt lat="44.2117" lon="0.87474">
        <ele>171</ele>
        <time>2022-07-21T07:25:16.174Z</time>
      </trkpt>
      <trkpt lat="44.21169" lon="0.87474">
        <ele>171</ele>
        <time>2022-07-21T07:25:17.174Z</time>
      </trkpt>
      <trkpt lat="44.21168" lon="0.87474">
        <ele>171</ele>
        <time>2022-07-21T07:25:18.174Z</time>
      </trkpt>
      <trkpt lat="44.21166" lon="0.87473">
        <ele>171</ele>
        <time>2022-07-21T07:25:19.174Z</time>
      </trkpt>
      <trkpt lat="44.21165" lon="0.87473">
        <ele>171</ele>
        <time>2022-07-21T07:25:20.174Z</time>
      </trkpt>
      <trkpt lat="44.21164" lon="0.87472">
        <ele>171</ele>
        <time>2022-07-21T07:25:21.174Z</time>
      </trkpt>
      <trkpt lat="44.21163" lon="0.87472">
        <ele>171</ele>
        <time>2022-07-21T07:25:22.174Z</time>
      </trkpt>
      <trkpt lat="44.21162" lon="0.87471">
        <ele>171</ele>
        <time>2022-07-21T07:25:23.174Z</time>
      </trkpt>
      <trkpt lat="44.21161" lon="0.87471">
        <ele>171</ele>
        <time>2022-07-21T07:25:24.174Z</time>
      </trkpt>
      <trkpt lat="44.2116" lon="0.8747">
        <ele>171</ele>
        <time>2022-07-21T07:25:25.174Z</time>
      </trkpt>
      <trkpt lat="44.21159" lon="0.8747">
        <ele>170</ele>
        <time>2022-07-21T07:25:26.174Z</time>
      </trkpt>
      <trkpt lat="44.21157" lon="0.87469">
        <ele>171</ele>
        <time>2022-07-21T07:25:27.174Z</time>
      </trkpt>
      <trkpt lat="44.21156" lon="0.87469">
        <ele>171</ele>
        <time>2022-07-21T07:25:28.174Z</time>
      </trkpt>
      <trkpt lat="44.21155" lon="0.87469">
        <ele>171</ele>
        <time>2022-07-21T07:25:29.174Z</time>
      </trkpt>
      <trkpt lat="44.21154" lon="0.87468">
        <ele>171</ele>
        <time>2022-07-21T07:25:30.174Z</time>
      </trkpt>
      <trkpt lat="44.21153" lon="0.87468">
        <ele>171</ele>
        <time>2022-07-21T07:25:31.174Z</time>
      </trkpt>
      <trkpt lat="44.21152" lon="0.87467">
        <ele>171</ele>
        <time>2022-07-21T07:25:32.174Z</time>
      </trkpt>
      <trkpt lat="44.2115" lon="0.87467">
        <ele>171</ele>
        <time>2022-07-21T07:25:33.174Z</time>
      </trkpt>
      <trkpt lat="44.21149" lon="0.87466">
        <ele>171</ele>
        <time>2022-07-21T07:25:34.174Z</time>
      </trkpt>
      <trkpt lat="44.21148" lon="0.87466">
        <ele>171</ele>
        <time>2022-07-21T07:25:35.174Z</time>
      </trkpt>
      <trkpt lat="44.21147" lon="0.87466">
        <ele>173</ele>
        <time>2022-07-21T07:25:36.174Z</time>
      </trkpt>
      <trkpt lat="44.21146" lon="0.87466">
        <ele>172</ele>
        <time>2022-07-21T07:25:37.174Z</time>
      </trkpt>
      <trkpt lat="44.21144" lon="0.87465">
        <ele>172</ele>
        <time>2022-07-21T07:25:38.174Z</time>
      </trkpt>
      <trkpt lat="44.21143" lon="0.87465">
        <ele>172</ele>
        <time>2022-07-21T07:25:39.174Z</time>
      </trkpt>
      <trkpt lat="44.21142" lon="0.87464">
        <ele>172</ele>
        <time>2022-07-21T07:25:40.174Z</time>
      </trkpt>
      <trkpt lat="44.21141" lon="0.87463">
        <ele>172</ele>
        <time>2022-07-21T07:25:41.174Z</time>
      </trkpt>
      <trkpt lat="44.2114" lon="0.87463">
        <ele>172</ele>
        <time>2022-07-21T07:25:42.174Z</time>
      </trkpt>
      <trkpt lat="44.21139" lon="0.87462">
        <ele>172</ele>
        <time>2022-07-21T07:25:43.174Z</time>
      </trkpt>
      <trkpt lat="44.21138" lon="0.87462">
        <ele>172</ele>
        <time>2022-07-21T07:25:44.174Z</time>
      </trkpt>
      <trkpt lat="44.21137" lon="0.87462">
        <ele>172</ele>
        <time>2022-07-21T07:25:45.174Z</time>
      </trkpt>
      <trkpt lat="44.21135" lon="0.87461">
        <ele>172</ele>
        <time>2022-07-21T07:25:46.174Z</time>
      </trkpt>
      <trkpt lat="44.21134" lon="0.87461">
        <ele>173</ele>
        <time>2022-07-21T07:25:47.174Z</time>
      </trkpt>
      <trkpt lat="44.21133" lon="0.8746">
        <ele>173</ele>
        <time>2022-07-21T07:25:48.174Z</time>
      </trkpt>
      <trkpt lat="44.21131" lon="0.8746">
        <ele>173</ele>
        <time>2022-07-21T07:25:49.174Z</time>
      </trkpt>
      <trkpt lat="44.2113" lon="0.87459">
        <ele>173</ele>
        <time>2022-07-21T07:25:50.174Z</time>
      </trkpt>
      <trkpt lat="44.21129" lon="0.87458">
        <ele>173</ele>
        <time>2022-07-21T07:25:51.174Z</time>
      </trkpt>
      <trkpt lat="44.21128" lon="0.87458">
        <ele>172</ele>
        <time>2022-07-21T07:25:52.174Z</time>
      </trkpt>
      <trkpt lat="44.21127" lon="0.87457">
        <ele>172</ele>
        <time>2022-07-21T07:25:53.174Z</time>
      </trkpt>
      <trkpt lat="44.21126" lon="0.87457">
        <ele>172</ele>
        <time>2022-07-21T07:25:54.174Z</time>
      </trkpt>
      <trkpt lat="44.21125" lon="0.87456">
        <ele>172</ele>
        <time>2022-07-21T07:25:55.174Z</time>
      </trkpt>
      <trkpt lat="44.21124" lon="0.87456">
        <ele>172</ele>
        <time>2022-07-21T07:25:56.174Z</time>
      </trkpt>
      <trkpt lat="44.21123" lon="0.87456">
        <ele>172</ele>
        <time>2022-07-21T07:25:57.174Z</time>
      </trkpt>
      <trkpt lat="44.21122" lon="0.87456">
        <ele>172</ele>
        <time>2022-07-21T07:25:58.174Z</time>
      </trkpt>
      <trkpt lat="44.21121" lon="0.87455">
        <ele>172</ele>
        <time>2022-07-21T07:25:59.174Z</time>
      </trkpt>
      <trkpt lat="44.2112" lon="0.87455">
        <ele>172</ele>
        <time>2022-07-21T07:26:00.174Z</time>
      </trkpt>
      <trkpt lat="44.21118" lon="0.87455">
        <ele>172</ele>
        <time>2022-07-21T07:26:01.174Z</time>
      </trkpt>
      <trkpt lat="44.21117" lon="0.87454">
        <ele>172</ele>
        <time>2022-07-21T07:26:02.174Z</time>
      </trkpt>
      <trkpt lat="44.21116" lon="0.87454">
        <ele>172</ele>
        <time>2022-07-21T07:26:03.174Z</time>
      </trkpt>
      <trkpt lat="44.21115" lon="0.87453">
        <ele>172</ele>
        <time>2022-07-21T07:26:04.174Z</time>
      </trkpt>
      <trkpt lat="44.21114" lon="0.87453">
        <ele>172</ele>
        <time>2022-07-21T07:26:05.174Z</time>
      </trkpt>
      <trkpt lat="44.21113" lon="0.87453">
        <ele>172</ele>
        <time>2022-07-21T07:26:06.174Z</time>
      </trkpt>
      <trkpt lat="44.21112" lon="0.87452">
        <ele>172</ele>
        <time>2022-07-21T07:26:07.174Z</time>
      </trkpt>
      <trkpt lat="44.21111" lon="0.87452">
        <ele>173</ele>
        <time>2022-07-21T07:26:08.174Z</time>
      </trkpt>
      <trkpt lat="44.2111" lon="0.87451">
        <ele>173</ele>
        <time>2022-07-21T07:26:09.174Z</time>
      </trkpt>
      <trkpt lat="44.21109" lon="0.8745">
        <ele>172</ele>
        <time>2022-07-21T07:26:10.174Z</time>
      </trkpt>
      <trkpt lat="44.21108" lon="0.8745">
        <ele>172</ele>
        <time>2022-07-21T07:26:11.174Z</time>
      </trkpt>
      <trkpt lat="44.21107" lon="0.87449">
        <ele>172</ele>
        <time>2022-07-21T07:26:12.174Z</time>
      </trkpt>
      <trkpt lat="44.21106" lon="0.87449">
        <ele>172</ele>
        <time>2022-07-21T07:26:13.174Z</time>
      </trkpt>
      <trkpt lat="44.21105" lon="0.87448">
        <ele>172</ele>
        <time>2022-07-21T07:26:14.174Z</time>
      </trkpt>
      <trkpt lat="44.21103" lon="0.87448">
        <ele>172</ele>
        <time>2022-07-21T07:26:15.174Z</time>
      </trkpt>
      <trkpt lat="44.21102" lon="0.87448">
        <ele>172</ele>
        <time>2022-07-21T07:26:16.174Z</time>
      </trkpt>
      <trkpt lat="44.21101" lon="0.87447">
        <ele>172</ele>
        <time>2022-07-21T07:26:17.174Z</time>
      </trkpt>
      <trkpt lat="44.211" lon="0.87447">
        <ele>172</ele>
        <time>2022-07-21T07:26:18.174Z</time>
      </trkpt>
      <trkpt lat="44.21099" lon="0.87446">
        <ele>172</ele>
        <time>2022-07-21T07:26:19.174Z</time>
      </trkpt>
      <trkpt lat="44.21098" lon="0.87446">
        <ele>172</ele>
        <time>2022-07-21T07:26:20.174Z</time>
      </trkpt>
      <trkpt lat="44.21097" lon="0.87445">
        <ele>172</ele>
        <time>2022-07-21T07:26:21.174Z</time>
      </trkpt>
      <trkpt lat="44.21096" lon="0.87445">
        <ele>172</ele>
        <time>2022-07-21T07:26:22.174Z</time>
      </trkpt>
      <trkpt lat="44.21095" lon="0.87445">
        <ele>172</ele>
        <time>2022-07-21T07:26:23.174Z</time>
      </trkpt>
      <trkpt lat="44.21094" lon="0.87444">
        <ele>172</ele>
        <time>2022-07-21T07:26:24.174Z</time>
      </trkpt>
      <trkpt lat="44.21093" lon="0.87444">
        <ele>172</ele>
        <time>2022-07-21T07:26:25.174Z</time>
      </trkpt>
      <trkpt lat="44.21092" lon="0.87443">
        <ele>173</ele>
        <time>2022-07-21T07:26:26.174Z</time>
      </trkpt>
      <trkpt lat="44.21091" lon="0.87442">
        <ele>173</ele>
        <time>2022-07-21T07:26:27.174Z</time>
      </trkpt>
      <trkpt lat="44.2109" lon="0.87442">
        <ele>172</ele>
        <time>2022-07-21T07:26:28.174Z</time>
      </trkpt>
      <trkpt lat="44.21089" lon="0.87442">
        <ele>172</ele>
        <time>2022-07-21T07:26:29.174Z</time>
      </trkpt>
      <trkpt lat="44.21088" lon="0.87441">
        <ele>172</ele>
        <time>2022-07-21T07:26:30.174Z</time>
      </trkpt>
      <trkpt lat="44.21087" lon="0.87441">
        <ele>172</ele>
        <time>2022-07-21T07:26:31.174Z</time>
      </trkpt>
      <trkpt lat="44.21086" lon="0.8744">
        <ele>172</ele>
        <time>2022-07-21T07:26:32.174Z</time>
      </trkpt>
      <trkpt lat="44.21085" lon="0.8744">
        <ele>173</ele>
        <time>2022-07-21T07:26:33.174Z</time>
      </trkpt>
      <trkpt lat="44.21084" lon="0.87439">
        <ele>172</ele>
        <time>2022-07-21T07:26:34.174Z</time>
      </trkpt>
      <trkpt lat="44.21083" lon="0.87439">
        <ele>172</ele>
        <time>2022-07-21T07:26:35.174Z</time>
      </trkpt>
      <trkpt lat="44.21082" lon="0.87438">
        <ele>172</ele>
        <time>2022-07-21T07:26:36.174Z</time>
      </trkpt>
      <trkpt lat="44.21081" lon="0.87438">
        <ele>172</ele>
        <time>2022-07-21T07:26:37.174Z</time>
      </trkpt>
      <trkpt lat="44.2108" lon="0.87437">
        <ele>172</ele>
        <time>2022-07-21T07:26:38.174Z</time>
      </trkpt>
      <trkpt lat="44.21079" lon="0.87437">
        <ele>172</ele>
        <time>2022-07-21T07:26:39.174Z</time>
      </trkpt>
      <trkpt lat="44.21078" lon="0.87436">
        <ele>172</ele>
        <time>2022-07-21T07:26:40.174Z</time>
      </trkpt>
      <trkpt lat="44.21077" lon="0.87436">
        <ele>173</ele>
        <time>2022-07-21T07:26:41.174Z</time>
      </trkpt>
      <trkpt lat="44.21076" lon="0.87436">
        <ele>173</ele>
        <time>2022-07-21T07:26:42.174Z</time>
      </trkpt>
      <trkpt lat="44.21075" lon="0.87435">
        <ele>173</ele>
        <time>2022-07-21T07:26:43.174Z</time>
      </trkpt>
      <trkpt lat="44.21073" lon="0.87434">
        <ele>174</ele>
        <time>2022-07-21T07:26:44.174Z</time>
      </trkpt>
      <trkpt lat="44.21072" lon="0.87434">
        <ele>174</ele>
        <time>2022-07-21T07:26:45.174Z</time>
      </trkpt>
      <trkpt lat="44.21071" lon="0.87433">
        <ele>173</ele>
        <time>2022-07-21T07:26:46.174Z</time>
      </trkpt>
      <trkpt lat="44.2107" lon="0.87433">
        <ele>173</ele>
        <time>2022-07-21T07:26:47.174Z</time>
      </trkpt>
      <trkpt lat="44.21069" lon="0.87432">
        <ele>173</ele>
        <time>2022-07-21T07:26:48.174Z</time>
      </trkpt>
      <trkpt lat="44.21068" lon="0.87432">
        <ele>173</ele>
        <time>2022-07-21T07:26:49.174Z</time>
      </trkpt>
      <trkpt lat="44.21067" lon="0.87431">
        <ele>174</ele>
        <time>2022-07-21T07:26:50.174Z</time>
      </trkpt>
      <trkpt lat="44.21065" lon="0.87431">
        <ele>174</ele>
        <time>2022-07-21T07:26:51.174Z</time>
      </trkpt>
      <trkpt lat="44.21064" lon="0.8743">
        <ele>174</ele>
        <time>2022-07-21T07:26:52.174Z</time>
      </trkpt>
      <trkpt lat="44.21063" lon="0.8743">
        <ele>174</ele>
        <time>2022-07-21T07:26:53.174Z</time>
      </trkpt>
      <trkpt lat="44.21062" lon="0.87429">
        <ele>174</ele>
        <time>2022-07-21T07:26:54.174Z</time>
      </trkpt>
      <trkpt lat="44.21061" lon="0.87429">
        <ele>174</ele>
        <time>2022-07-21T07:26:55.174Z</time>
      </trkpt>
      <trkpt lat="44.2106" lon="0.87428">
        <ele>174</ele>
        <time>2022-07-21T07:26:56.174Z</time>
      </trkpt>
      <trkpt lat="44.21059" lon="0.87428">
        <ele>174</ele>
        <time>2022-07-21T07:26:57.174Z</time>
      </trkpt>
      <trkpt lat="44.21057" lon="0.87427">
        <ele>174</ele>
        <time>2022-07-21T07:26:58.174Z</time>
      </trkpt>
      <trkpt lat="44.21056" lon="0.87427">
        <ele>174</ele>
        <time>2022-07-21T07:26:59.174Z</time>
      </trkpt>
      <trkpt lat="44.21055" lon="0.87426">
        <ele>174</ele>
        <time>2022-07-21T07:27:00.174Z</time>
      </trkpt>
      <trkpt lat="44.21054" lon="0.87426">
        <ele>175</ele>
        <time>2022-07-21T07:27:01.174Z</time>
      </trkpt>
      <trkpt lat="44.21053" lon="0.87425">
        <ele>174</ele>
        <time>2022-07-21T07:27:02.174Z</time>
      </trkpt>
      <trkpt lat="44.21051" lon="0.87425">
        <ele>175</ele>
        <time>2022-07-21T07:27:03.174Z</time>
      </trkpt>
      <trkpt lat="44.2105" lon="0.87424">
        <ele>175</ele>
        <time>2022-07-21T07:27:04.174Z</time>
      </trkpt>
      <trkpt lat="44.21049" lon="0.87424">
        <ele>176</ele>
        <time>2022-07-21T07:27:05.174Z</time>
      </trkpt>
      <trkpt lat="44.21048" lon="0.87423">
        <ele>176</ele>
        <time>2022-07-21T07:27:06.174Z</time>
      </trkpt>
      <trkpt lat="44.21046" lon="0.87422">
        <ele>176</ele>
        <time>2022-07-21T07:27:07.174Z</time>
      </trkpt>
      <trkpt lat="44.21045" lon="0.87422">
        <ele>176</ele>
        <time>2022-07-21T07:27:08.174Z</time>
      </trkpt>
      <trkpt lat="44.21044" lon="0.87421">
        <ele>176</ele>
        <time>2022-07-21T07:27:09.174Z</time>
      </trkpt>
      <trkpt lat="44.21043" lon="0.87421">
        <ele>176</ele>
        <time>2022-07-21T07:27:10.174Z</time>
      </trkpt>
      <trkpt lat="44.21042" lon="0.8742">
        <ele>176</ele>
        <time>2022-07-21T07:27:11.174Z</time>
      </trkpt>
      <trkpt lat="44.21041" lon="0.87419">
        <ele>176</ele>
        <time>2022-07-21T07:27:12.174Z</time>
      </trkpt>
      <trkpt lat="44.2104" lon="0.87419">
        <ele>176</ele>
        <time>2022-07-21T07:27:13.174Z</time>
      </trkpt>
      <trkpt lat="44.21039" lon="0.87418">
        <ele>176</ele>
        <time>2022-07-21T07:27:14.174Z</time>
      </trkpt>
      <trkpt lat="44.21037" lon="0.87417">
        <ele>176</ele>
        <time>2022-07-21T07:27:15.174Z</time>
      </trkpt>
      <trkpt lat="44.21036" lon="0.87417">
        <ele>176</ele>
        <time>2022-07-21T07:27:16.174Z</time>
      </trkpt>
      <trkpt lat="44.21035" lon="0.87416">
        <ele>176</ele>
        <time>2022-07-21T07:27:17.174Z</time>
      </trkpt>
      <trkpt lat="44.21034" lon="0.87416">
        <ele>176</ele>
        <time>2022-07-21T07:27:18.174Z</time>
      </trkpt>
      <trkpt lat="44.21033" lon="0.87415">
        <ele>176</ele>
        <time>2022-07-21T07:27:19.174Z</time>
      </trkpt>
      <trkpt lat="44.21032" lon="0.87414">
        <ele>175</ele>
        <time>2022-07-21T07:27:20.174Z</time>
      </trkpt>
      <trkpt lat="44.21031" lon="0.87414">
        <ele>175</ele>
        <time>2022-07-21T07:27:21.174Z</time>
      </trkpt>
      <trkpt lat="44.2103" lon="0.87413">
        <ele>175</ele>
        <time>2022-07-21T07:27:22.174Z</time>
      </trkpt>
      <trkpt lat="44.21028" lon="0.87412">
        <ele>176</ele>
        <time>2022-07-21T07:27:23.174Z</time>
      </trkpt>
      <trkpt lat="44.21027" lon="0.87412">
        <ele>176</ele>
        <time>2022-07-21T07:27:24.174Z</time>
      </trkpt>
      <trkpt lat="44.21026" lon="0.87411">
        <ele>176</ele>
        <time>2022-07-21T07:27:25.174Z</time>
      </trkpt>
      <trkpt lat="44.21025" lon="0.87411">
        <ele>177</ele>
        <time>2022-07-21T07:27:26.174Z</time>
      </trkpt>
      <trkpt lat="44.21024" lon="0.8741">
        <ele>176</ele>
        <time>2022-07-21T07:27:27.174Z</time>
      </trkpt>
      <trkpt lat="44.21023" lon="0.87409">
        <ele>176</ele>
        <time>2022-07-21T07:27:28.174Z</time>
      </trkpt>
      <trkpt lat="44.21022" lon="0.87408">
        <ele>176</ele>
        <time>2022-07-21T07:27:29.174Z</time>
      </trkpt>
      <trkpt lat="44.21021" lon="0.87408">
        <ele>176</ele>
        <time>2022-07-21T07:27:30.174Z</time>
      </trkpt>
      <trkpt lat="44.2102" lon="0.87407">
        <ele>176</ele>
        <time>2022-07-21T07:27:31.174Z</time>
      </trkpt>
      <trkpt lat="44.21018" lon="0.87407">
        <ele>176</ele>
        <time>2022-07-21T07:27:32.174Z</time>
      </trkpt>
      <trkpt lat="44.21017" lon="0.87406">
        <ele>176</ele>
        <time>2022-07-21T07:27:33.174Z</time>
      </trkpt>
      <trkpt lat="44.21016" lon="0.87406">
        <ele>176</ele>
        <time>2022-07-21T07:27:34.174Z</time>
      </trkpt>
      <trkpt lat="44.21015" lon="0.87405">
        <ele>176</ele>
        <time>2022-07-21T07:27:35.174Z</time>
      </trkpt>
      <trkpt lat="44.21014" lon="0.87404">
        <ele>176</ele>
        <time>2022-07-21T07:27:36.174Z</time>
      </trkpt>
      <trkpt lat="44.21013" lon="0.87404">
        <ele>176</ele>
        <time>2022-07-21T07:27:37.174Z</time>
      </trkpt>
      <trkpt lat="44.21012" lon="0.87403">
        <ele>176</ele>
        <time>2022-07-21T07:27:38.174Z</time>
      </trkpt>
      <trkpt lat="44.21011" lon="0.87403">
        <ele>176</ele>
        <time>2022-07-21T07:27:39.174Z</time>
      </trkpt>
      <trkpt lat="44.2101" lon="0.87402">
        <ele>175</ele>
        <time>2022-07-21T07:27:40.174Z</time>
      </trkpt>
      <trkpt lat="44.21009" lon="0.87401">
        <ele>175</ele>
        <time>2022-07-21T07:27:41.174Z</time>
      </trkpt>
      <trkpt lat="44.21008" lon="0.87401">
        <ele>175</ele>
        <time>2022-07-21T07:27:42.174Z</time>
      </trkpt>
      <trkpt lat="44.21007" lon="0.874">
        <ele>175</ele>
        <time>2022-07-21T07:27:43.174Z</time>
      </trkpt>
      <trkpt lat="44.21006" lon="0.87399">
        <ele>175</ele>
        <time>2022-07-21T07:27:44.174Z</time>
      </trkpt>
      <trkpt lat="44.21006" lon="0.87398">
        <ele>175</ele>
        <time>2022-07-21T07:27:45.174Z</time>
      </trkpt>
      <trkpt lat="44.21005" lon="0.87397">
        <ele>175</ele>
        <time>2022-07-21T07:27:46.174Z</time>
      </trkpt>
      <trkpt lat="44.21005" lon="0.87396">
        <ele>175</ele>
        <time>2022-07-21T07:27:47.174Z</time>
      </trkpt>
      <trkpt lat="44.21004" lon="0.87396">
        <ele>175</ele>
        <time>2022-07-21T07:27:48.174Z</time>
      </trkpt>
      <trkpt lat="44.21003" lon="0.87395">
        <ele>175</ele>
        <time>2022-07-21T07:27:49.174Z</time>
      </trkpt>
      <trkpt lat="44.21002" lon="0.87395">
        <ele>175</ele>
        <time>2022-07-21T07:27:50.174Z</time>
      </trkpt>
      <trkpt lat="44.21001" lon="0.87395">
        <ele>174</ele>
        <time>2022-07-21T07:27:51.174Z</time>
      </trkpt>
      <trkpt lat="44.21" lon="0.87394">
        <ele>174</ele>
        <time>2022-07-21T07:27:52.174Z</time>
      </trkpt>
      <trkpt lat="44.20998" lon="0.87393">
        <ele>175</ele>
        <time>2022-07-21T07:27:53.174Z</time>
      </trkpt>
      <trkpt lat="44.20998" lon="0.87393">
        <ele>175</ele>
        <time>2022-07-21T07:27:54.174Z</time>
      </trkpt>
      <trkpt lat="44.20997" lon="0.87392">
        <ele>175</ele>
        <time>2022-07-21T07:27:55.174Z</time>
      </trkpt>
      <trkpt lat="44.20995" lon="0.87391">
        <ele>175</ele>
        <time>2022-07-21T07:27:56.174Z</time>
      </trkpt>
      <trkpt lat="44.20994" lon="0.87391">
        <ele>175</ele>
        <time>2022-07-21T07:27:57.174Z</time>
      </trkpt>
      <trkpt lat="44.20993" lon="0.8739">
        <ele>175</ele>
        <time>2022-07-21T07:27:58.174Z</time>
      </trkpt>
      <trkpt lat="44.20992" lon="0.87389">
        <ele>175</ele>
        <time>2022-07-21T07:27:59.174Z</time>
      </trkpt>
      <trkpt lat="44.20991" lon="0.87388">
        <ele>175</ele>
        <time>2022-07-21T07:28:00.174Z</time>
      </trkpt>
      <trkpt lat="44.2099" lon="0.87388">
        <ele>175</ele>
        <time>2022-07-21T07:28:01.174Z</time>
      </trkpt>
      <trkpt lat="44.20989" lon="0.87387">
        <ele>175</ele>
        <time>2022-07-21T07:28:02.174Z</time>
      </trkpt>
      <trkpt lat="44.20988" lon="0.87387">
        <ele>175</ele>
        <time>2022-07-21T07:28:03.174Z</time>
      </trkpt>
      <trkpt lat="44.20986" lon="0.87386">
        <ele>176</ele>
        <time>2022-07-21T07:28:04.174Z</time>
      </trkpt>
      <trkpt lat="44.20985" lon="0.87385">
        <ele>176</ele>
        <time>2022-07-21T07:28:05.174Z</time>
      </trkpt>
      <trkpt lat="44.20984" lon="0.87384">
        <ele>176</ele>
        <time>2022-07-21T07:28:06.174Z</time>
      </trkpt>
      <trkpt lat="44.20983" lon="0.87383">
        <ele>175</ele>
        <time>2022-07-21T07:28:07.174Z</time>
      </trkpt>
      <trkpt lat="44.20982" lon="0.87382">
        <ele>175</ele>
        <time>2022-07-21T07:28:08.174Z</time>
      </trkpt>
      <trkpt lat="44.20981" lon="0.87381">
        <ele>176</ele>
        <time>2022-07-21T07:28:09.174Z</time>
      </trkpt>
      <trkpt lat="44.2098" lon="0.8738">
        <ele>176</ele>
        <time>2022-07-21T07:28:10.174Z</time>
      </trkpt>
      <trkpt lat="44.20979" lon="0.8738">
        <ele>176</ele>
        <time>2022-07-21T07:28:11.174Z</time>
      </trkpt>
      <trkpt lat="44.20978" lon="0.87379">
        <ele>176</ele>
        <time>2022-07-21T07:28:12.174Z</time>
      </trkpt>
      <trkpt lat="44.20977" lon="0.87378">
        <ele>177</ele>
        <time>2022-07-21T07:28:13.174Z</time>
      </trkpt>
      <trkpt lat="44.20976" lon="0.87377">
        <ele>177</ele>
        <time>2022-07-21T07:28:14.174Z</time>
      </trkpt>
      <trkpt lat="44.20975" lon="0.87376">
        <ele>177</ele>
        <time>2022-07-21T07:28:15.174Z</time>
      </trkpt>
      <trkpt lat="44.20974" lon="0.87375">
        <ele>177</ele>
        <time>2022-07-21T07:28:16.174Z</time>
      </trkpt>
      <trkpt lat="44.20973" lon="0.87375">
        <ele>177</ele>
        <time>2022-07-21T07:28:17.174Z</time>
      </trkpt>
      <trkpt lat="44.20972" lon="0.87374">
        <ele>177</ele>
        <time>2022-07-21T07:28:18.174Z</time>
      </trkpt>
      <trkpt lat="44.20971" lon="0.87373">
        <ele>178</ele>
        <time>2022-07-21T07:28:19.174Z</time>
      </trkpt>
      <trkpt lat="44.2097" lon="0.87372">
        <ele>178</ele>
        <time>2022-07-21T07:28:20.174Z</time>
      </trkpt>
      <trkpt lat="44.20969" lon="0.87371">
        <ele>177</ele>
        <time>2022-07-21T07:28:21.174Z</time>
      </trkpt>
      <trkpt lat="44.20969" lon="0.8737">
        <ele>177</ele>
        <time>2022-07-21T07:28:22.174Z</time>
      </trkpt>
      <trkpt lat="44.20968" lon="0.87369">
        <ele>177</ele>
        <time>2022-07-21T07:28:23.174Z</time>
      </trkpt>
      <trkpt lat="44.20967" lon="0.87368">
        <ele>177</ele>
        <time>2022-07-21T07:28:24.174Z</time>
      </trkpt>
      <trkpt lat="44.20966" lon="0.87367">
        <ele>177</ele>
        <time>2022-07-21T07:28:25.174Z</time>
      </trkpt>
      <trkpt lat="44.20965" lon="0.87367">
        <ele>177</ele>
        <time>2022-07-21T07:28:26.174Z</time>
      </trkpt>
      <trkpt lat="44.20964" lon="0.87366">
        <ele>177</ele>
        <time>2022-07-21T07:28:27.174Z</time>
      </trkpt>
      <trkpt lat="44.20963" lon="0.87365">
        <ele>177</ele>
        <time>2022-07-21T07:28:28.174Z</time>
      </trkpt>
      <trkpt lat="44.20962" lon="0.87364">
        <ele>177</ele>
        <time>2022-07-21T07:28:29.174Z</time>
      </trkpt>
      <trkpt lat="44.20961" lon="0.87363">
        <ele>178</ele>
        <time>2022-07-21T07:28:30.174Z</time>
      </trkpt>
      <trkpt lat="44.2096" lon="0.87362">
        <ele>178</ele>
        <time>2022-07-21T07:28:31.174Z</time>
      </trkpt>
      <trkpt lat="44.20959" lon="0.87361">
        <ele>178</ele>
        <time>2022-07-21T07:28:32.174Z</time>
      </trkpt>
      <trkpt lat="44.20958" lon="0.8736">
        <ele>178</ele>
        <time>2022-07-21T07:28:33.174Z</time>
      </trkpt>
      <trkpt lat="44.20957" lon="0.87359">
        <ele>178</ele>
        <time>2022-07-21T07:28:34.174Z</time>
      </trkpt>
      <trkpt lat="44.20955" lon="0.87358">
        <ele>179</ele>
        <time>2022-07-21T07:28:35.174Z</time>
      </trkpt>
      <trkpt lat="44.20954" lon="0.87357">
        <ele>180</ele>
        <time>2022-07-21T07:28:36.174Z</time>
      </trkpt>
      <trkpt lat="44.20953" lon="0.87357">
        <ele>179</ele>
        <time>2022-07-21T07:28:37.174Z</time>
      </trkpt>
      <trkpt lat="44.20952" lon="0.87356">
        <ele>180</ele>
        <time>2022-07-21T07:28:38.174Z</time>
      </trkpt>
      <trkpt lat="44.20951" lon="0.87355">
        <ele>179</ele>
        <time>2022-07-21T07:28:39.174Z</time>
      </trkpt>
      <trkpt lat="44.2095" lon="0.87355">
        <ele>179</ele>
        <time>2022-07-21T07:28:40.174Z</time>
      </trkpt>
      <trkpt lat="44.20949" lon="0.87354">
        <ele>179</ele>
        <time>2022-07-21T07:28:41.174Z</time>
      </trkpt>
      <trkpt lat="44.20948" lon="0.87353">
        <ele>179</ele>
        <time>2022-07-21T07:28:42.174Z</time>
      </trkpt>
      <trkpt lat="44.20947" lon="0.87352">
        <ele>179</ele>
        <time>2022-07-21T07:28:43.174Z</time>
      </trkpt>
      <trkpt lat="44.20946" lon="0.87351">
        <ele>179</ele>
        <time>2022-07-21T07:28:44.174Z</time>
      </trkpt>
      <trkpt lat="44.20945" lon="0.8735">
        <ele>179</ele>
        <time>2022-07-21T07:28:45.174Z</time>
      </trkpt>
      <trkpt lat="44.20944" lon="0.87349">
        <ele>179</ele>
        <time>2022-07-21T07:28:46.174Z</time>
      </trkpt>
      <trkpt lat="44.20943" lon="0.87349">
        <ele>179</ele>
        <time>2022-07-21T07:28:47.174Z</time>
      </trkpt>
      <trkpt lat="44.20942" lon="0.87348">
        <ele>179</ele>
        <time>2022-07-21T07:28:48.174Z</time>
      </trkpt>
      <trkpt lat="44.20941" lon="0.87347">
        <ele>179</ele>
        <time>2022-07-21T07:28:49.174Z</time>
      </trkpt>
      <trkpt lat="44.2094" lon="0.87346">
        <ele>178</ele>
        <time>2022-07-21T07:28:50.174Z</time>
      </trkpt>
      <trkpt lat="44.20939" lon="0.87345">
        <ele>178</ele>
        <time>2022-07-21T07:28:51.174Z</time>
      </trkpt>
      <trkpt lat="44.20938" lon="0.87344">
        <ele>178</ele>
        <time>2022-07-21T07:28:52.174Z</time>
      </trkpt>
      <trkpt lat="44.20937" lon="0.87343">
        <ele>178</ele>
        <time>2022-07-21T07:28:53.174Z</time>
      </trkpt>
      <trkpt lat="44.20936" lon="0.87342">
        <ele>178</ele>
        <time>2022-07-21T07:28:54.174Z</time>
      </trkpt>
      <trkpt lat="44.20935" lon="0.87341">
        <ele>178</ele>
        <time>2022-07-21T07:28:55.174Z</time>
      </trkpt>
      <trkpt lat="44.20934" lon="0.8734">
        <ele>178</ele>
        <time>2022-07-21T07:28:56.174Z</time>
      </trkpt>
      <trkpt lat="44.20933" lon="0.87339">
        <ele>178</ele>
        <time>2022-07-21T07:28:57.174Z</time>
      </trkpt>
      <trkpt lat="44.20932" lon="0.87339">
        <ele>177</ele>
        <time>2022-07-21T07:28:58.174Z</time>
      </trkpt>
      <trkpt lat="44.20931" lon="0.87338">
        <ele>177</ele>
        <time>2022-07-21T07:28:59.174Z</time>
      </trkpt>
      <trkpt lat="44.2093" lon="0.87337">
        <ele>176</ele>
        <time>2022-07-21T07:29:00.174Z</time>
      </trkpt>
      <trkpt lat="44.20929" lon="0.87337">
        <ele>177</ele>
        <time>2022-07-21T07:29:01.174Z</time>
      </trkpt>
      <trkpt lat="44.20928" lon="0.87336">
        <ele>176</ele>
        <time>2022-07-21T07:29:02.174Z</time>
      </trkpt>
      <trkpt lat="44.20927" lon="0.87335">
        <ele>176</ele>
        <time>2022-07-21T07:29:03.174Z</time>
      </trkpt>
      <trkpt lat="44.20926" lon="0.87334">
        <ele>176</ele>
        <time>2022-07-21T07:29:04.174Z</time>
      </trkpt>
      <trkpt lat="44.20925" lon="0.87333">
        <ele>176</ele>
        <time>2022-07-21T07:29:05.174Z</time>
      </trkpt>
      <trkpt lat="44.20924" lon="0.87332">
        <ele>176</ele>
        <time>2022-07-21T07:29:06.174Z</time>
      </trkpt>
      <trkpt lat="44.20923" lon="0.87332">
        <ele>176</ele>
        <time>2022-07-21T07:29:07.174Z</time>
      </trkpt>
      <trkpt lat="44.20922" lon="0.87331">
        <ele>176</ele>
        <time>2022-07-21T07:29:08.174Z</time>
      </trkpt>
      <trkpt lat="44.20921" lon="0.87331">
        <ele>177</ele>
        <time>2022-07-21T07:29:09.174Z</time>
      </trkpt>
      <trkpt lat="44.2092" lon="0.8733">
        <ele>177</ele>
        <time>2022-07-21T07:29:10.174Z</time>
      </trkpt>
      <trkpt lat="44.20919" lon="0.87329">
        <ele>177</ele>
        <time>2022-07-21T07:29:11.174Z</time>
      </trkpt>
      <trkpt lat="44.20917" lon="0.87328">
        <ele>177</ele>
        <time>2022-07-21T07:29:12.174Z</time>
      </trkpt>
      <trkpt lat="44.20916" lon="0.87327">
        <ele>177</ele>
        <time>2022-07-21T07:29:13.174Z</time>
      </trkpt>
      <trkpt lat="44.20915" lon="0.87327">
        <ele>177</ele>
        <time>2022-07-21T07:29:14.174Z</time>
      </trkpt>
      <trkpt lat="44.20914" lon="0.87326">
        <ele>177</ele>
        <time>2022-07-21T07:29:15.174Z</time>
      </trkpt>
      <trkpt lat="44.20913" lon="0.87325">
        <ele>177</ele>
        <time>2022-07-21T07:29:16.174Z</time>
      </trkpt>
      <trkpt lat="44.20912" lon="0.87324">
        <ele>177</ele>
        <time>2022-07-21T07:29:17.174Z</time>
      </trkpt>
      <trkpt lat="44.20911" lon="0.87324">
        <ele>177</ele>
        <time>2022-07-21T07:29:18.174Z</time>
      </trkpt>
      <trkpt lat="44.2091" lon="0.87323">
        <ele>178</ele>
        <time>2022-07-21T07:29:19.174Z</time>
      </trkpt>
      <trkpt lat="44.20909" lon="0.87322">
        <ele>177</ele>
        <time>2022-07-21T07:29:20.174Z</time>
      </trkpt>
      <trkpt lat="44.20908" lon="0.87322">
        <ele>177</ele>
        <time>2022-07-21T07:29:21.174Z</time>
      </trkpt>
      <trkpt lat="44.20907" lon="0.87321">
        <ele>177</ele>
        <time>2022-07-21T07:29:22.174Z</time>
      </trkpt>
      <trkpt lat="44.20906" lon="0.87321">
        <ele>177</ele>
        <time>2022-07-21T07:29:23.174Z</time>
      </trkpt>
      <trkpt lat="44.20905" lon="0.8732">
        <ele>177</ele>
        <time>2022-07-21T07:29:24.174Z</time>
      </trkpt>
      <trkpt lat="44.20904" lon="0.87319">
        <ele>177</ele>
        <time>2022-07-21T07:29:25.174Z</time>
      </trkpt>
      <trkpt lat="44.20904" lon="0.87319">
        <ele>177</ele>
        <time>2022-07-21T07:29:26.174Z</time>
      </trkpt>
      <trkpt lat="44.20903" lon="0.87318">
        <ele>176</ele>
        <time>2022-07-21T07:29:27.174Z</time>
      </trkpt>
      <trkpt lat="44.20902" lon="0.87317">
        <ele>176</ele>
        <time>2022-07-21T07:29:28.174Z</time>
      </trkpt>
      <trkpt lat="44.20901" lon="0.87316">
        <ele>176</ele>
        <time>2022-07-21T07:29:29.174Z</time>
      </trkpt>
      <trkpt lat="44.209" lon="0.87315">
        <ele>176</ele>
        <time>2022-07-21T07:29:30.174Z</time>
      </trkpt>
      <trkpt lat="44.20899" lon="0.87314">
        <ele>176</ele>
        <time>2022-07-21T07:29:31.174Z</time>
      </trkpt>
      <trkpt lat="44.20898" lon="0.87314">
        <ele>176</ele>
        <time>2022-07-21T07:29:32.174Z</time>
      </trkpt>
      <trkpt lat="44.20897" lon="0.87313">
        <ele>176</ele>
        <time>2022-07-21T07:29:33.174Z</time>
      </trkpt>
      <trkpt lat="44.20896" lon="0.87312">
        <ele>177</ele>
        <time>2022-07-21T07:29:34.174Z</time>
      </trkpt>
      <trkpt lat="44.20895" lon="0.87312">
        <ele>177</ele>
        <time>2022-07-21T07:29:35.174Z</time>
      </trkpt>
      <trkpt lat="44.20894" lon="0.87311">
        <ele>176</ele>
        <time>2022-07-21T07:29:36.174Z</time>
      </trkpt>
      <trkpt lat="44.20893" lon="0.8731">
        <ele>176</ele>
        <time>2022-07-21T07:29:37.174Z</time>
      </trkpt>
      <trkpt lat="44.20892" lon="0.87309">
        <ele>176</ele>
        <time>2022-07-21T07:29:38.174Z</time>
      </trkpt>
      <trkpt lat="44.20891" lon="0.87309">
        <ele>176</ele>
        <time>2022-07-21T07:29:39.174Z</time>
      </trkpt>
      <trkpt lat="44.2089" lon="0.87308">
        <ele>175</ele>
        <time>2022-07-21T07:29:40.174Z</time>
      </trkpt>
      <trkpt lat="44.20889" lon="0.87307">
        <ele>175</ele>
        <time>2022-07-21T07:29:41.174Z</time>
      </trkpt>
      <trkpt lat="44.20888" lon="0.87306">
        <ele>175</ele>
        <time>2022-07-21T07:29:42.174Z</time>
      </trkpt>
      <trkpt lat="44.20887" lon="0.87306">
        <ele>175</ele>
        <time>2022-07-21T07:29:43.174Z</time>
      </trkpt>
      <trkpt lat="44.20886" lon="0.87305">
        <ele>176</ele>
        <time>2022-07-21T07:29:44.174Z</time>
      </trkpt>
      <trkpt lat="44.20885" lon="0.87305">
        <ele>176</ele>
        <time>2022-07-21T07:29:45.174Z</time>
      </trkpt>
      <trkpt lat="44.20884" lon="0.87304">
        <ele>175</ele>
        <time>2022-07-21T07:29:46.174Z</time>
      </trkpt>
      <trkpt lat="44.20883" lon="0.87303">
        <ele>176</ele>
        <time>2022-07-21T07:29:47.174Z</time>
      </trkpt>
      <trkpt lat="44.20882" lon="0.87302">
        <ele>175</ele>
        <time>2022-07-21T07:29:48.174Z</time>
      </trkpt>
      <trkpt lat="44.20881" lon="0.87302">
        <ele>175</ele>
        <time>2022-07-21T07:29:49.174Z</time>
      </trkpt>
      <trkpt lat="44.2088" lon="0.87301">
        <ele>175</ele>
        <time>2022-07-21T07:29:50.174Z</time>
      </trkpt>
      <trkpt lat="44.2088" lon="0.873">
        <ele>175</ele>
        <time>2022-07-21T07:29:51.174Z</time>
      </trkpt>
      <trkpt lat="44.20879" lon="0.87299">
        <ele>175</ele>
        <time>2022-07-21T07:29:52.174Z</time>
      </trkpt>
      <trkpt lat="44.20877" lon="0.87298">
        <ele>175</ele>
        <time>2022-07-21T07:29:53.174Z</time>
      </trkpt>
      <trkpt lat="44.20876" lon="0.87298">
        <ele>175</ele>
        <time>2022-07-21T07:29:54.174Z</time>
      </trkpt>
      <trkpt lat="44.20875" lon="0.87297">
        <ele>175</ele>
        <time>2022-07-21T07:29:55.174Z</time>
      </trkpt>
      <trkpt lat="44.20874" lon="0.87296">
        <ele>175</ele>
        <time>2022-07-21T07:29:56.174Z</time>
      </trkpt>
      <trkpt lat="44.20873" lon="0.87295">
        <ele>175</ele>
        <time>2022-07-21T07:29:57.174Z</time>
      </trkpt>
      <trkpt lat="44.20872" lon="0.87294">
        <ele>175</ele>
        <time>2022-07-21T07:29:58.174Z</time>
      </trkpt>
      <trkpt lat="44.20871" lon="0.87294">
        <ele>175</ele>
        <time>2022-07-21T07:29:59.174Z</time>
      </trkpt>
      <trkpt lat="44.2087" lon="0.87293">
        <ele>174</ele>
        <time>2022-07-21T07:30:00.174Z</time>
      </trkpt>
      <trkpt lat="44.20869" lon="0.87292">
        <ele>174</ele>
        <time>2022-07-21T07:30:01.174Z</time>
      </trkpt>
      <trkpt lat="44.20868" lon="0.87291">
        <ele>174</ele>
        <time>2022-07-21T07:30:02.174Z</time>
      </trkpt>
      <trkpt lat="44.20867" lon="0.87291">
        <ele>174</ele>
        <time>2022-07-21T07:30:03.174Z</time>
      </trkpt>
      <trkpt lat="44.20866" lon="0.8729">
        <ele>174</ele>
        <time>2022-07-21T07:30:04.174Z</time>
      </trkpt>
      <trkpt lat="44.20865" lon="0.87289">
        <ele>174</ele>
        <time>2022-07-21T07:30:05.174Z</time>
      </trkpt>
      <trkpt lat="44.20864" lon="0.87288">
        <ele>174</ele>
        <time>2022-07-21T07:30:06.174Z</time>
      </trkpt>
      <trkpt lat="44.20863" lon="0.87288">
        <ele>174</ele>
        <time>2022-07-21T07:30:07.174Z</time>
      </trkpt>
      <trkpt lat="44.20862" lon="0.87287">
        <ele>174</ele>
        <time>2022-07-21T07:30:08.174Z</time>
      </trkpt>
      <trkpt lat="44.20861" lon="0.87287">
        <ele>174</ele>
        <time>2022-07-21T07:30:09.174Z</time>
      </trkpt>
      <trkpt lat="44.2086" lon="0.87286">
        <ele>174</ele>
        <time>2022-07-21T07:30:10.174Z</time>
      </trkpt>
      <trkpt lat="44.20859" lon="0.87285">
        <ele>174</ele>
        <time>2022-07-21T07:30:11.174Z</time>
      </trkpt>
      <trkpt lat="44.20858" lon="0.87284">
        <ele>174</ele>
        <time>2022-07-21T07:30:12.174Z</time>
      </trkpt>
      <trkpt lat="44.20857" lon="0.87283">
        <ele>174</ele>
        <time>2022-07-21T07:30:13.174Z</time>
      </trkpt>
      <trkpt lat="44.20856" lon="0.87283">
        <ele>174</ele>
        <time>2022-07-21T07:30:14.174Z</time>
      </trkpt>
      <trkpt lat="44.20855" lon="0.87282">
        <ele>174</ele>
        <time>2022-07-21T07:30:15.174Z</time>
      </trkpt>
      <trkpt lat="44.20854" lon="0.87281">
        <ele>174</ele>
        <time>2022-07-21T07:30:16.174Z</time>
      </trkpt>
      <trkpt lat="44.20853" lon="0.8728">
        <ele>174</ele>
        <time>2022-07-21T07:30:17.174Z</time>
      </trkpt>
      <trkpt lat="44.20852" lon="0.8728">
        <ele>175</ele>
        <time>2022-07-21T07:30:18.174Z</time>
      </trkpt>
      <trkpt lat="44.20852" lon="0.8728">
        <ele>175</ele>
        <time>2022-07-21T07:30:19.174Z</time>
      </trkpt>
      <trkpt lat="44.20852" lon="0.8728">
        <ele>175</ele>
        <time>2022-07-21T07:30:20.174Z</time>
      </trkpt>
      <trkpt lat="44.20851" lon="0.8728">
        <ele>175</ele>
        <time>2022-07-21T07:30:21.174Z</time>
      </trkpt>
      <trkpt lat="44.20851" lon="0.8728">
        <ele>175</ele>
        <time>2022-07-21T07:30:22.174Z</time>
      </trkpt>
      <trkpt lat="44.20851" lon="0.8728">
        <ele>175</ele>
        <time>2022-07-21T07:30:23.174Z</time>
      </trkpt>
      <trkpt lat="44.20851" lon="0.8728">
        <ele>176</ele>
        <time>2022-07-21T07:30:24.174Z</time>
      </trkpt>
      <trkpt lat="44.2085" lon="0.87279">
        <ele>176</ele>
        <time>2022-07-21T07:30:25.174Z</time>
      </trkpt>
      <trkpt lat="44.2085" lon="0.87279">
        <ele>176</ele>
        <time>2022-07-21T07:30:26.174Z</time>
      </trkpt>
      <trkpt lat="44.20849" lon="0.87278">
        <ele>176</ele>
        <time>2022-07-21T07:30:27.174Z</time>
      </trkpt>
      <trkpt lat="44.20848" lon="0.87277">
        <ele>175</ele>
        <time>2022-07-21T07:30:28.174Z</time>
      </trkpt>
      <trkpt lat="44.20847" lon="0.87276">
        <ele>175</ele>
        <time>2022-07-21T07:30:29.174Z</time>
      </trkpt>
      <trkpt lat="44.20845" lon="0.87276">
        <ele>176</ele>
        <time>2022-07-21T07:30:30.174Z</time>
      </trkpt>
      <trkpt lat="44.20844" lon="0.87275">
        <ele>176</ele>
        <time>2022-07-21T07:30:31.174Z</time>
      </trkpt>
      <trkpt lat="44.20843" lon="0.87274">
        <ele>175</ele>
        <time>2022-07-21T07:30:32.174Z</time>
      </trkpt>
      <trkpt lat="44.20842" lon="0.87273">
        <ele>175</ele>
        <time>2022-07-21T07:30:33.174Z</time>
      </trkpt>
      <trkpt lat="44.20841" lon="0.87272">
        <ele>175</ele>
        <time>2022-07-21T07:30:34.174Z</time>
      </trkpt>
      <trkpt lat="44.2084" lon="0.87271">
        <ele>175</ele>
        <time>2022-07-21T07:30:35.174Z</time>
      </trkpt>
      <trkpt lat="44.20839" lon="0.87271">
        <ele>174</ele>
        <time>2022-07-21T07:30:36.174Z</time>
      </trkpt>
      <trkpt lat="44.20838" lon="0.8727">
        <ele>174</ele>
        <time>2022-07-21T07:30:37.174Z</time>
      </trkpt>
      <trkpt lat="44.20837" lon="0.87268">
        <ele>173</ele>
        <time>2022-07-21T07:30:38.174Z</time>
      </trkpt>
      <trkpt lat="44.20836" lon="0.87267">
        <ele>173</ele>
        <time>2022-07-21T07:30:39.174Z</time>
      </trkpt>
      <trkpt lat="44.20835" lon="0.87266">
        <ele>173</ele>
        <time>2022-07-21T07:30:40.174Z</time>
      </trkpt>
      <trkpt lat="44.20834" lon="0.87265">
        <ele>173</ele>
        <time>2022-07-21T07:30:41.174Z</time>
      </trkpt>
      <trkpt lat="44.20833" lon="0.87264">
        <ele>172</ele>
        <time>2022-07-21T07:30:42.174Z</time>
      </trkpt>
      <trkpt lat="44.20831" lon="0.87263">
        <ele>172</ele>
        <time>2022-07-21T07:30:43.174Z</time>
      </trkpt>
      <trkpt lat="44.2083" lon="0.87262">
        <ele>173</ele>
        <time>2022-07-21T07:30:44.174Z</time>
      </trkpt>
      <trkpt lat="44.20829" lon="0.87261">
        <ele>172</ele>
        <time>2022-07-21T07:30:45.174Z</time>
      </trkpt>
      <trkpt lat="44.20828" lon="0.8726">
        <ele>171</ele>
        <time>2022-07-21T07:30:46.174Z</time>
      </trkpt>
      <trkpt lat="44.20827" lon="0.8726">
        <ele>171</ele>
        <time>2022-07-21T07:30:47.174Z</time>
      </trkpt>
      <trkpt lat="44.20826" lon="0.87259">
        <ele>171</ele>
        <time>2022-07-21T07:30:48.174Z</time>
      </trkpt>
      <trkpt lat="44.20825" lon="0.87258">
        <ele>171</ele>
        <time>2022-07-21T07:30:49.174Z</time>
      </trkpt>
      <trkpt lat="44.20824" lon="0.87257">
        <ele>171</ele>
        <time>2022-07-21T07:30:50.174Z</time>
      </trkpt>
      <trkpt lat="44.20823" lon="0.87256">
        <ele>171</ele>
        <time>2022-07-21T07:30:51.174Z</time>
      </trkpt>
      <trkpt lat="44.20822" lon="0.87255">
        <ele>171</ele>
        <time>2022-07-21T07:30:52.174Z</time>
      </trkpt>
      <trkpt lat="44.20821" lon="0.87254">
        <ele>170</ele>
        <time>2022-07-21T07:30:53.174Z</time>
      </trkpt>
      <trkpt lat="44.2082" lon="0.87253">
        <ele>170</ele>
        <time>2022-07-21T07:30:54.174Z</time>
      </trkpt>
      <trkpt lat="44.20819" lon="0.87252">
        <ele>170</ele>
        <time>2022-07-21T07:30:55.174Z</time>
      </trkpt>
      <trkpt lat="44.20818" lon="0.87251">
        <ele>170</ele>
        <time>2022-07-21T07:30:56.174Z</time>
      </trkpt>
      <trkpt lat="44.20816" lon="0.8725">
        <ele>170</ele>
        <time>2022-07-21T07:30:57.174Z</time>
      </trkpt>
      <trkpt lat="44.20816" lon="0.87249">
        <ele>170</ele>
        <time>2022-07-21T07:30:58.174Z</time>
      </trkpt>
      <trkpt lat="44.20815" lon="0.87248">
        <ele>169</ele>
        <time>2022-07-21T07:30:59.174Z</time>
      </trkpt>
      <trkpt lat="44.20814" lon="0.87247">
        <ele>169</ele>
        <time>2022-07-21T07:31:00.174Z</time>
      </trkpt>
      <trkpt lat="44.20813" lon="0.87246">
        <ele>169</ele>
        <time>2022-07-21T07:31:01.174Z</time>
      </trkpt>
      <trkpt lat="44.20812" lon="0.87245">
        <ele>169</ele>
        <time>2022-07-21T07:31:02.174Z</time>
      </trkpt>
      <trkpt lat="44.20811" lon="0.87244">
        <ele>170</ele>
        <time>2022-07-21T07:31:03.174Z</time>
      </trkpt>
      <trkpt lat="44.2081" lon="0.87244">
        <ele>170</ele>
        <time>2022-07-21T07:31:04.174Z</time>
      </trkpt>
      <trkpt lat="44.20808" lon="0.87243">
        <ele>170</ele>
        <time>2022-07-21T07:31:05.174Z</time>
      </trkpt>
      <trkpt lat="44.20807" lon="0.87242">
        <ele>170</ele>
        <time>2022-07-21T07:31:06.174Z</time>
      </trkpt>
      <trkpt lat="44.20806" lon="0.87241">
        <ele>169</ele>
        <time>2022-07-21T07:31:07.174Z</time>
      </trkpt>
      <trkpt lat="44.20805" lon="0.8724">
        <ele>169</ele>
        <time>2022-07-21T07:31:08.174Z</time>
      </trkpt>
      <trkpt lat="44.20804" lon="0.87239">
        <ele>169</ele>
        <time>2022-07-21T07:31:09.174Z</time>
      </trkpt>
      <trkpt lat="44.20803" lon="0.87238">
        <ele>169</ele>
        <time>2022-07-21T07:31:10.174Z</time>
      </trkpt>
      <trkpt lat="44.20802" lon="0.87237">
        <ele>169</ele>
        <time>2022-07-21T07:31:11.174Z</time>
      </trkpt>
      <trkpt lat="44.20801" lon="0.87237">
        <ele>169</ele>
        <time>2022-07-21T07:31:12.174Z</time>
      </trkpt>
      <trkpt lat="44.208" lon="0.87236">
        <ele>169</ele>
        <time>2022-07-21T07:31:13.174Z</time>
      </trkpt>
      <trkpt lat="44.20799" lon="0.87235">
        <ele>169</ele>
        <time>2022-07-21T07:31:14.174Z</time>
      </trkpt>
      <trkpt lat="44.20798" lon="0.87234">
        <ele>169</ele>
        <time>2022-07-21T07:31:15.174Z</time>
      </trkpt>
      <trkpt lat="44.20797" lon="0.87233">
        <ele>169</ele>
        <time>2022-07-21T07:31:16.174Z</time>
      </trkpt>
      <trkpt lat="44.20796" lon="0.87232">
        <ele>169</ele>
        <time>2022-07-21T07:31:17.174Z</time>
      </trkpt>
      <trkpt lat="44.20795" lon="0.87231">
        <ele>169</ele>
        <time>2022-07-21T07:31:18.174Z</time>
      </trkpt>
      <trkpt lat="44.20794" lon="0.87231">
        <ele>169</ele>
        <time>2022-07-21T07:31:19.174Z</time>
      </trkpt>
      <trkpt lat="44.20793" lon="0.8723">
        <ele>169</ele>
        <time>2022-07-21T07:31:20.174Z</time>
      </trkpt>
      <trkpt lat="44.20792" lon="0.87229">
        <ele>169</ele>
        <time>2022-07-21T07:31:21.174Z</time>
      </trkpt>
      <trkpt lat="44.20791" lon="0.87228">
        <ele>169</ele>
        <time>2022-07-21T07:31:22.174Z</time>
      </trkpt>
      <trkpt lat="44.2079" lon="0.87227">
        <ele>169</ele>
        <time>2022-07-21T07:31:23.174Z</time>
      </trkpt>
      <trkpt lat="44.20788" lon="0.87226">
        <ele>170</ele>
        <time>2022-07-21T07:31:24.174Z</time>
      </trkpt>
      <trkpt lat="44.20787" lon="0.87226">
        <ele>169</ele>
        <time>2022-07-21T07:31:25.174Z</time>
      </trkpt>
      <trkpt lat="44.20786" lon="0.87225">
        <ele>170</ele>
        <time>2022-07-21T07:31:26.174Z</time>
      </trkpt>
      <trkpt lat="44.20785" lon="0.87224">
        <ele>170</ele>
        <time>2022-07-21T07:31:27.174Z</time>
      </trkpt>
      <trkpt lat="44.20784" lon="0.87223">
        <ele>170</ele>
        <time>2022-07-21T07:31:28.174Z</time>
      </trkpt>
      <trkpt lat="44.20783" lon="0.87223">
        <ele>170</ele>
        <time>2022-07-21T07:31:29.174Z</time>
      </trkpt>
      <trkpt lat="44.20782" lon="0.87222">
        <ele>170</ele>
        <time>2022-07-21T07:31:30.174Z</time>
      </trkpt>
      <trkpt lat="44.20781" lon="0.87221">
        <ele>170</ele>
        <time>2022-07-21T07:31:31.174Z</time>
      </trkpt>
      <trkpt lat="44.2078" lon="0.8722">
        <ele>170</ele>
        <time>2022-07-21T07:31:32.174Z</time>
      </trkpt>
      <trkpt lat="44.20779" lon="0.87219">
        <ele>170</ele>
        <time>2022-07-21T07:31:33.174Z</time>
      </trkpt>
      <trkpt lat="44.20778" lon="0.87218">
        <ele>170</ele>
        <time>2022-07-21T07:31:34.174Z</time>
      </trkpt>
      <trkpt lat="44.20777" lon="0.87217">
        <ele>169</ele>
        <time>2022-07-21T07:31:35.174Z</time>
      </trkpt>
      <trkpt lat="44.20776" lon="0.87216">
        <ele>170</ele>
        <time>2022-07-21T07:31:36.174Z</time>
      </trkpt>
      <trkpt lat="44.20775" lon="0.87215">
        <ele>170</ele>
        <time>2022-07-21T07:31:37.174Z</time>
      </trkpt>
      <trkpt lat="44.20774" lon="0.87214">
        <ele>170</ele>
        <time>2022-07-21T07:31:38.174Z</time>
      </trkpt>
      <trkpt lat="44.20773" lon="0.87213">
        <ele>169</ele>
        <time>2022-07-21T07:31:39.174Z</time>
      </trkpt>
      <trkpt lat="44.20772" lon="0.87212">
        <ele>169</ele>
        <time>2022-07-21T07:31:40.174Z</time>
      </trkpt>
      <trkpt lat="44.20771" lon="0.87211">
        <ele>169</ele>
        <time>2022-07-21T07:31:41.174Z</time>
      </trkpt>
      <trkpt lat="44.2077" lon="0.8721">
        <ele>169</ele>
        <time>2022-07-21T07:31:42.174Z</time>
      </trkpt>
      <trkpt lat="44.20769" lon="0.87209">
        <ele>169</ele>
        <time>2022-07-21T07:31:43.174Z</time>
      </trkpt>
      <trkpt lat="44.20768" lon="0.87209">
        <ele>169</ele>
        <time>2022-07-21T07:31:44.174Z</time>
      </trkpt>
      <trkpt lat="44.20767" lon="0.87208">
        <ele>169</ele>
        <time>2022-07-21T07:31:45.174Z</time>
      </trkpt>
      <trkpt lat="44.20766" lon="0.87207">
        <ele>168</ele>
        <time>2022-07-21T07:31:46.174Z</time>
      </trkpt>
      <trkpt lat="44.20765" lon="0.87206">
        <ele>168</ele>
        <time>2022-07-21T07:31:47.174Z</time>
      </trkpt>
      <trkpt lat="44.20764" lon="0.87205">
        <ele>168</ele>
        <time>2022-07-21T07:31:48.174Z</time>
      </trkpt>
      <trkpt lat="44.20763" lon="0.87204">
        <ele>168</ele>
        <time>2022-07-21T07:31:49.174Z</time>
      </trkpt>
      <trkpt lat="44.20762" lon="0.87202">
        <ele>168</ele>
        <time>2022-07-21T07:31:50.174Z</time>
      </trkpt>
      <trkpt lat="44.20761" lon="0.87202">
        <ele>168</ele>
        <time>2022-07-21T07:31:51.174Z</time>
      </trkpt>
      <trkpt lat="44.2076" lon="0.87201">
        <ele>168</ele>
        <time>2022-07-21T07:31:52.174Z</time>
      </trkpt>
      <trkpt lat="44.20759" lon="0.872">
        <ele>168</ele>
        <time>2022-07-21T07:31:53.174Z</time>
      </trkpt>
      <trkpt lat="44.20759" lon="0.87199">
        <ele>168</ele>
        <time>2022-07-21T07:31:54.174Z</time>
      </trkpt>
      <trkpt lat="44.20757" lon="0.87199">
        <ele>168</ele>
        <time>2022-07-21T07:31:55.174Z</time>
      </trkpt>
      <trkpt lat="44.20756" lon="0.87198">
        <ele>168</ele>
        <time>2022-07-21T07:31:56.174Z</time>
      </trkpt>
      <trkpt lat="44.20755" lon="0.87197">
        <ele>167</ele>
        <time>2022-07-21T07:31:57.174Z</time>
      </trkpt>
      <trkpt lat="44.20754" lon="0.87196">
        <ele>167</ele>
        <time>2022-07-21T07:31:58.174Z</time>
      </trkpt>
      <trkpt lat="44.20753" lon="0.87195">
        <ele>167</ele>
        <time>2022-07-21T07:31:59.174Z</time>
      </trkpt>
      <trkpt lat="44.20752" lon="0.87194">
        <ele>167</ele>
        <time>2022-07-21T07:32:00.174Z</time>
      </trkpt>
      <trkpt lat="44.20751" lon="0.87193">
        <ele>167</ele>
        <time>2022-07-21T07:32:01.174Z</time>
      </trkpt>
      <trkpt lat="44.2075" lon="0.87192">
        <ele>167</ele>
        <time>2022-07-21T07:32:02.174Z</time>
      </trkpt>
      <trkpt lat="44.20748" lon="0.87191">
        <ele>167</ele>
        <time>2022-07-21T07:32:03.174Z</time>
      </trkpt>
      <trkpt lat="44.20747" lon="0.87191">
        <ele>167</ele>
        <time>2022-07-21T07:32:04.174Z</time>
      </trkpt>
      <trkpt lat="44.20746" lon="0.8719">
        <ele>167</ele>
        <time>2022-07-21T07:32:05.174Z</time>
      </trkpt>
      <trkpt lat="44.20745" lon="0.87189">
        <ele>167</ele>
        <time>2022-07-21T07:32:06.174Z</time>
      </trkpt>
      <trkpt lat="44.20744" lon="0.87188">
        <ele>167</ele>
        <time>2022-07-21T07:32:07.174Z</time>
      </trkpt>
      <trkpt lat="44.20743" lon="0.87187">
        <ele>167</ele>
        <time>2022-07-21T07:32:08.174Z</time>
      </trkpt>
      <trkpt lat="44.20742" lon="0.87186">
        <ele>167</ele>
        <time>2022-07-21T07:32:09.174Z</time>
      </trkpt>
      <trkpt lat="44.20741" lon="0.87186">
        <ele>167</ele>
        <time>2022-07-21T07:32:10.174Z</time>
      </trkpt>
      <trkpt lat="44.2074" lon="0.87185">
        <ele>167</ele>
        <time>2022-07-21T07:32:11.174Z</time>
      </trkpt>
      <trkpt lat="44.20739" lon="0.87185">
        <ele>167</ele>
        <time>2022-07-21T07:32:12.174Z</time>
      </trkpt>
      <trkpt lat="44.20738" lon="0.87184">
        <ele>166</ele>
        <time>2022-07-21T07:32:13.174Z</time>
      </trkpt>
      <trkpt lat="44.20737" lon="0.87183">
        <ele>166</ele>
        <time>2022-07-21T07:32:14.174Z</time>
      </trkpt>
      <trkpt lat="44.20736" lon="0.87182">
        <ele>166</ele>
        <time>2022-07-21T07:32:15.174Z</time>
      </trkpt>
      <trkpt lat="44.20734" lon="0.87181">
        <ele>166</ele>
        <time>2022-07-21T07:32:16.174Z</time>
      </trkpt>
      <trkpt lat="44.20733" lon="0.8718">
        <ele>167</ele>
        <time>2022-07-21T07:32:17.174Z</time>
      </trkpt>
      <trkpt lat="44.20732" lon="0.8718">
        <ele>166</ele>
        <time>2022-07-21T07:32:18.174Z</time>
      </trkpt>
      <trkpt lat="44.20731" lon="0.87179">
        <ele>166</ele>
        <time>2022-07-21T07:32:19.174Z</time>
      </trkpt>
      <trkpt lat="44.2073" lon="0.87178">
        <ele>166</ele>
        <time>2022-07-21T07:32:20.174Z</time>
      </trkpt>
      <trkpt lat="44.2073" lon="0.87178">
        <ele>166</ele>
        <time>2022-07-21T07:32:21.174Z</time>
      </trkpt>
      <trkpt lat="44.20729" lon="0.87177">
        <ele>166</ele>
        <time>2022-07-21T07:32:22.174Z</time>
      </trkpt>
      <trkpt lat="44.20727" lon="0.87176">
        <ele>166</ele>
        <time>2022-07-21T07:32:23.174Z</time>
      </trkpt>
      <trkpt lat="44.20726" lon="0.87175">
        <ele>166</ele>
        <time>2022-07-21T07:32:24.174Z</time>
      </trkpt>
      <trkpt lat="44.20725" lon="0.87174">
        <ele>166</ele>
        <time>2022-07-21T07:32:25.174Z</time>
      </trkpt>
      <trkpt lat="44.20723" lon="0.87174">
        <ele>165</ele>
        <time>2022-07-21T07:32:26.174Z</time>
      </trkpt>
      <trkpt lat="44.20722" lon="0.87173">
        <ele>166</ele>
        <time>2022-07-21T07:32:27.174Z</time>
      </trkpt>
      <trkpt lat="44.20721" lon="0.87172">
        <ele>166</ele>
        <time>2022-07-21T07:32:28.174Z</time>
      </trkpt>
      <trkpt lat="44.20719" lon="0.87171">
        <ele>166</ele>
        <time>2022-07-21T07:32:29.174Z</time>
      </trkpt>
      <trkpt lat="44.20718" lon="0.87171">
        <ele>166</ele>
        <time>2022-07-21T07:32:30.174Z</time>
      </trkpt>
      <trkpt lat="44.20717" lon="0.8717">
        <ele>166</ele>
        <time>2022-07-21T07:32:31.174Z</time>
      </trkpt>
      <trkpt lat="44.20716" lon="0.87169">
        <ele>166</ele>
        <time>2022-07-21T07:32:32.174Z</time>
      </trkpt>
      <trkpt lat="44.20715" lon="0.87169">
        <ele>167</ele>
        <time>2022-07-21T07:32:33.174Z</time>
      </trkpt>
      <trkpt lat="44.20714" lon="0.87168">
        <ele>167</ele>
        <time>2022-07-21T07:32:34.174Z</time>
      </trkpt>
      <trkpt lat="44.20713" lon="0.87167">
        <ele>167</ele>
        <time>2022-07-21T07:32:35.174Z</time>
      </trkpt>
      <trkpt lat="44.20711" lon="0.87166">
        <ele>167</ele>
        <time>2022-07-21T07:32:36.174Z</time>
      </trkpt>
      <trkpt lat="44.2071" lon="0.87166">
        <ele>167</ele>
        <time>2022-07-21T07:32:37.174Z</time>
      </trkpt>
      <trkpt lat="44.20709" lon="0.87165">
        <ele>167</ele>
        <time>2022-07-21T07:32:38.174Z</time>
      </trkpt>
      <trkpt lat="44.20708" lon="0.87164">
        <ele>167</ele>
        <time>2022-07-21T07:32:39.174Z</time>
      </trkpt>
      <trkpt lat="44.20707" lon="0.87163">
        <ele>166</ele>
        <time>2022-07-21T07:32:40.174Z</time>
      </trkpt>
      <trkpt lat="44.20706" lon="0.87163">
        <ele>166</ele>
        <time>2022-07-21T07:32:41.174Z</time>
      </trkpt>
      <trkpt lat="44.20705" lon="0.87163">
        <ele>166</ele>
        <time>2022-07-21T07:32:42.174Z</time>
      </trkpt>
      <trkpt lat="44.20704" lon="0.87162">
        <ele>166</ele>
        <time>2022-07-21T07:32:43.174Z</time>
      </trkpt>
      <trkpt lat="44.20703" lon="0.87161">
        <ele>166</ele>
        <time>2022-07-21T07:32:44.174Z</time>
      </trkpt>
      <trkpt lat="44.20702" lon="0.87161">
        <ele>166</ele>
        <time>2022-07-21T07:32:45.174Z</time>
      </trkpt>
      <trkpt lat="44.207" lon="0.8716">
        <ele>166</ele>
        <time>2022-07-21T07:32:46.174Z</time>
      </trkpt>
      <trkpt lat="44.20699" lon="0.87159">
        <ele>166</ele>
        <time>2022-07-21T07:32:47.174Z</time>
      </trkpt>
      <trkpt lat="44.20698" lon="0.87159">
        <ele>167</ele>
        <time>2022-07-21T07:32:48.174Z</time>
      </trkpt>
      <trkpt lat="44.20697" lon="0.87158">
        <ele>167</ele>
        <time>2022-07-21T07:32:49.174Z</time>
      </trkpt>
      <trkpt lat="44.20696" lon="0.87158">
        <ele>167</ele>
        <time>2022-07-21T07:32:50.174Z</time>
      </trkpt>
      <trkpt lat="44.20695" lon="0.87157">
        <ele>167</ele>
        <time>2022-07-21T07:32:51.174Z</time>
      </trkpt>
      <trkpt lat="44.20694" lon="0.87157">
        <ele>167</ele>
        <time>2022-07-21T07:32:52.174Z</time>
      </trkpt>
      <trkpt lat="44.20692" lon="0.87156">
        <ele>167</ele>
        <time>2022-07-21T07:32:53.174Z</time>
      </trkpt>
      <trkpt lat="44.20691" lon="0.87155">
        <ele>167</ele>
        <time>2022-07-21T07:32:54.174Z</time>
      </trkpt>
      <trkpt lat="44.2069" lon="0.87155">
        <ele>167</ele>
        <time>2022-07-21T07:32:55.174Z</time>
      </trkpt>
      <trkpt lat="44.20689" lon="0.87154">
        <ele>167</ele>
        <time>2022-07-21T07:32:56.174Z</time>
      </trkpt>
      <trkpt lat="44.20687" lon="0.87154">
        <ele>168</ele>
        <time>2022-07-21T07:32:57.174Z</time>
      </trkpt>
      <trkpt lat="44.20686" lon="0.87153">
        <ele>167</ele>
        <time>2022-07-21T07:32:58.174Z</time>
      </trkpt>
      <trkpt lat="44.20685" lon="0.87153">
        <ele>167</ele>
        <time>2022-07-21T07:32:59.174Z</time>
      </trkpt>
      <trkpt lat="44.20684" lon="0.87152">
        <ele>167</ele>
        <time>2022-07-21T07:33:00.174Z</time>
      </trkpt>
      <trkpt lat="44.20683" lon="0.87151">
        <ele>167</ele>
        <time>2022-07-21T07:33:01.174Z</time>
      </trkpt>
      <trkpt lat="44.20682" lon="0.8715">
        <ele>167</ele>
        <time>2022-07-21T07:33:02.174Z</time>
      </trkpt>
      <trkpt lat="44.20681" lon="0.8715">
        <ele>167</ele>
        <time>2022-07-21T07:33:03.174Z</time>
      </trkpt>
      <trkpt lat="44.2068" lon="0.87149">
        <ele>167</ele>
        <time>2022-07-21T07:33:04.174Z</time>
      </trkpt>
      <trkpt lat="44.20679" lon="0.87148">
        <ele>167</ele>
        <time>2022-07-21T07:33:05.174Z</time>
      </trkpt>
      <trkpt lat="44.20678" lon="0.87148">
        <ele>167</ele>
        <time>2022-07-21T07:33:06.174Z</time>
      </trkpt>
      <trkpt lat="44.20677" lon="0.87147">
        <ele>167</ele>
        <time>2022-07-21T07:33:07.174Z</time>
      </trkpt>
      <trkpt lat="44.20676" lon="0.87146">
        <ele>167</ele>
        <time>2022-07-21T07:33:08.174Z</time>
      </trkpt>
      <trkpt lat="44.20675" lon="0.87146">
        <ele>167</ele>
        <time>2022-07-21T07:33:09.174Z</time>
      </trkpt>
      <trkpt lat="44.20674" lon="0.87145">
        <ele>167</ele>
        <time>2022-07-21T07:33:10.174Z</time>
      </trkpt>
      <trkpt lat="44.20673" lon="0.87145">
        <ele>167</ele>
        <time>2022-07-21T07:33:11.174Z</time>
      </trkpt>
      <trkpt lat="44.20672" lon="0.87144">
        <ele>167</ele>
        <time>2022-07-21T07:33:12.174Z</time>
      </trkpt>
      <trkpt lat="44.20671" lon="0.87144">
        <ele>166</ele>
        <time>2022-07-21T07:33:13.174Z</time>
      </trkpt>
      <trkpt lat="44.2067" lon="0.87143">
        <ele>166</ele>
        <time>2022-07-21T07:33:14.174Z</time>
      </trkpt>
      <trkpt lat="44.20668" lon="0.87143">
        <ele>166</ele>
        <time>2022-07-21T07:33:15.174Z</time>
      </trkpt>
      <trkpt lat="44.20667" lon="0.87143">
        <ele>166</ele>
        <time>2022-07-21T07:33:16.174Z</time>
      </trkpt>
      <trkpt lat="44.20666" lon="0.87142">
        <ele>166</ele>
        <time>2022-07-21T07:33:17.174Z</time>
      </trkpt>
      <trkpt lat="44.20665" lon="0.87142">
        <ele>166</ele>
        <time>2022-07-21T07:33:18.174Z</time>
      </trkpt>
      <trkpt lat="44.20664" lon="0.87142">
        <ele>166</ele>
        <time>2022-07-21T07:33:19.174Z</time>
      </trkpt>
      <trkpt lat="44.20663" lon="0.87142">
        <ele>166</ele>
        <time>2022-07-21T07:33:20.174Z</time>
      </trkpt>
      <trkpt lat="44.20663" lon="0.87142">
        <ele>166</ele>
        <time>2022-07-21T07:33:21.174Z</time>
      </trkpt>
      <trkpt lat="44.20662" lon="0.87142">
        <ele>166</ele>
        <time>2022-07-21T07:33:22.174Z</time>
      </trkpt>
      <trkpt lat="44.20661" lon="0.87142">
        <ele>166</ele>
        <time>2022-07-21T07:33:23.174Z</time>
      </trkpt>
      <trkpt lat="44.2066" lon="0.87143">
        <ele>166</ele>
        <time>2022-07-21T07:33:24.174Z</time>
      </trkpt>
      <trkpt lat="44.20659" lon="0.87143">
        <ele>166</ele>
        <time>2022-07-21T07:33:25.174Z</time>
      </trkpt>
      <trkpt lat="44.20658" lon="0.87144">
        <ele>166</ele>
        <time>2022-07-21T07:33:26.174Z</time>
      </trkpt>
      <trkpt lat="44.20658" lon="0.87144">
        <ele>166</ele>
        <time>2022-07-21T07:33:27.174Z</time>
      </trkpt>
      <trkpt lat="44.20657" lon="0.87145">
        <ele>165</ele>
        <time>2022-07-21T07:33:28.174Z</time>
      </trkpt>
      <trkpt lat="44.20656" lon="0.87146">
        <ele>165</ele>
        <time>2022-07-21T07:33:29.174Z</time>
      </trkpt>
      <trkpt lat="44.20655" lon="0.87147">
        <ele>165</ele>
        <time>2022-07-21T07:33:30.174Z</time>
      </trkpt>
      <trkpt lat="44.20654" lon="0.87148">
        <ele>165</ele>
        <time>2022-07-21T07:33:31.174Z</time>
      </trkpt>
      <trkpt lat="44.20654" lon="0.8715">
        <ele>165</ele>
        <time>2022-07-21T07:33:32.174Z</time>
      </trkpt>
      <trkpt lat="44.20653" lon="0.87151">
        <ele>165</ele>
        <time>2022-07-21T07:33:33.174Z</time>
      </trkpt>
      <trkpt lat="44.20652" lon="0.87152">
        <ele>165</ele>
        <time>2022-07-21T07:33:34.174Z</time>
      </trkpt>
      <trkpt lat="44.20652" lon="0.87153">
        <ele>165</ele>
        <time>2022-07-21T07:33:35.174Z</time>
      </trkpt>
      <trkpt lat="44.20651" lon="0.87155">
        <ele>165</ele>
        <time>2022-07-21T07:33:36.174Z</time>
      </trkpt>
      <trkpt lat="44.20651" lon="0.87156">
        <ele>165</ele>
        <time>2022-07-21T07:33:37.174Z</time>
      </trkpt>
      <trkpt lat="44.20651" lon="0.87158">
        <ele>165</ele>
        <time>2022-07-21T07:33:38.174Z</time>
      </trkpt>
      <trkpt lat="44.20651" lon="0.8716">
        <ele>165</ele>
        <time>2022-07-21T07:33:39.174Z</time>
      </trkpt>
      <trkpt lat="44.20651" lon="0.87161">
        <ele>164</ele>
        <time>2022-07-21T07:33:40.174Z</time>
      </trkpt>
      <trkpt lat="44.20651" lon="0.87162">
        <ele>165</ele>
        <time>2022-07-21T07:33:41.174Z</time>
      </trkpt>
      <trkpt lat="44.20651" lon="0.87164">
        <ele>165</ele>
        <time>2022-07-21T07:33:42.174Z</time>
      </trkpt>
      <trkpt lat="44.20651" lon="0.87165">
        <ele>165</ele>
        <time>2022-07-21T07:33:43.174Z</time>
      </trkpt>
      <trkpt lat="44.2065" lon="0.87167">
        <ele>165</ele>
        <time>2022-07-21T07:33:44.174Z</time>
      </trkpt>
      <trkpt lat="44.2065" lon="0.87169">
        <ele>165</ele>
        <time>2022-07-21T07:33:45.174Z</time>
      </trkpt>
      <trkpt lat="44.2065" lon="0.8717">
        <ele>165</ele>
        <time>2022-07-21T07:33:46.174Z</time>
      </trkpt>
      <trkpt lat="44.2065" lon="0.87172">
        <ele>165</ele>
        <time>2022-07-21T07:33:47.174Z</time>
      </trkpt>
      <trkpt lat="44.2065" lon="0.87173">
        <ele>165</ele>
        <time>2022-07-21T07:33:48.174Z</time>
      </trkpt>
      <trkpt lat="44.2065" lon="0.87175">
        <ele>165</ele>
        <time>2022-07-21T07:33:49.174Z</time>
      </trkpt>
      <trkpt lat="44.2065" lon="0.87176">
        <ele>165</ele>
        <time>2022-07-21T07:33:50.174Z</time>
      </trkpt>
      <trkpt lat="44.2065" lon="0.87178">
        <ele>165</ele>
        <time>2022-07-21T07:33:51.174Z</time>
      </trkpt>
      <trkpt lat="44.2065" lon="0.87179">
        <ele>165</ele>
        <time>2022-07-21T07:33:52.174Z</time>
      </trkpt>
      <trkpt lat="44.2065" lon="0.87181">
        <ele>165</ele>
        <time>2022-07-21T07:33:53.174Z</time>
      </trkpt>
      <trkpt lat="44.2065" lon="0.87182">
        <ele>165</ele>
        <time>2022-07-21T07:33:54.174Z</time>
      </trkpt>
      <trkpt lat="44.2065" lon="0.87183">
        <ele>164</ele>
        <time>2022-07-21T07:33:55.174Z</time>
      </trkpt>
      <trkpt lat="44.20649" lon="0.87185">
        <ele>164</ele>
        <time>2022-07-21T07:33:56.174Z</time>
      </trkpt>
      <trkpt lat="44.20649" lon="0.87186">
        <ele>164</ele>
        <time>2022-07-21T07:33:57.174Z</time>
      </trkpt>
      <trkpt lat="44.20649" lon="0.87188">
        <ele>164</ele>
        <time>2022-07-21T07:33:58.174Z</time>
      </trkpt>
      <trkpt lat="44.20649" lon="0.8719">
        <ele>165</ele>
        <time>2022-07-21T07:33:59.174Z</time>
      </trkpt>
      <trkpt lat="44.20649" lon="0.87191">
        <ele>165</ele>
        <time>2022-07-21T07:34:00.174Z</time>
      </trkpt>
      <trkpt lat="44.20649" lon="0.87193">
        <ele>164</ele>
        <time>2022-07-21T07:34:01.174Z</time>
      </trkpt>
      <trkpt lat="44.20649" lon="0.87194">
        <ele>164</ele>
        <time>2022-07-21T07:34:02.174Z</time>
      </trkpt>
      <trkpt lat="44.20649" lon="0.87196">
        <ele>164</ele>
        <time>2022-07-21T07:34:03.174Z</time>
      </trkpt>
      <trkpt lat="44.20649" lon="0.87197">
        <ele>164</ele>
        <time>2022-07-21T07:34:04.174Z</time>
      </trkpt>
      <trkpt lat="44.20649" lon="0.87199">
        <ele>164</ele>
        <time>2022-07-21T07:34:05.174Z</time>
      </trkpt>
      <trkpt lat="44.20649" lon="0.872">
        <ele>164</ele>
        <time>2022-07-21T07:34:06.174Z</time>
      </trkpt>
      <trkpt lat="44.20649" lon="0.87202">
        <ele>165</ele>
        <time>2022-07-21T07:34:07.174Z</time>
      </trkpt>
      <trkpt lat="44.20649" lon="0.87203">
        <ele>165</ele>
        <time>2022-07-21T07:34:08.174Z</time>
      </trkpt>
      <trkpt lat="44.20649" lon="0.87204">
        <ele>165</ele>
        <time>2022-07-21T07:34:09.174Z</time>
      </trkpt>
      <trkpt lat="44.20649" lon="0.87206">
        <ele>165</ele>
        <time>2022-07-21T07:34:10.174Z</time>
      </trkpt>
      <trkpt lat="44.20648" lon="0.87208">
        <ele>165</ele>
        <time>2022-07-21T07:34:11.174Z</time>
      </trkpt>
      <trkpt lat="44.20648" lon="0.87209">
        <ele>165</ele>
        <time>2022-07-21T07:34:12.174Z</time>
      </trkpt>
      <trkpt lat="44.20648" lon="0.87211">
        <ele>165</ele>
        <time>2022-07-21T07:34:13.174Z</time>
      </trkpt>
      <trkpt lat="44.20648" lon="0.87212">
        <ele>165</ele>
        <time>2022-07-21T07:34:14.174Z</time>
      </trkpt>
      <trkpt lat="44.20648" lon="0.87213">
        <ele>165</ele>
        <time>2022-07-21T07:34:15.174Z</time>
      </trkpt>
      <trkpt lat="44.20648" lon="0.87215">
        <ele>165</ele>
        <time>2022-07-21T07:34:16.174Z</time>
      </trkpt>
      <trkpt lat="44.20648" lon="0.87216">
        <ele>165</ele>
        <time>2022-07-21T07:34:17.174Z</time>
      </trkpt>
      <trkpt lat="44.20648" lon="0.87218">
        <ele>165</ele>
        <time>2022-07-21T07:34:18.174Z</time>
      </trkpt>
      <trkpt lat="44.20648" lon="0.87219">
        <ele>165</ele>
        <time>2022-07-21T07:34:19.174Z</time>
      </trkpt>
      <trkpt lat="44.20648" lon="0.87221">
        <ele>165</ele>
        <time>2022-07-21T07:34:20.174Z</time>
      </trkpt>
      <trkpt lat="44.20648" lon="0.87222">
        <ele>165</ele>
        <time>2022-07-21T07:34:21.174Z</time>
      </trkpt>
      <trkpt lat="44.20648" lon="0.87223">
        <ele>165</ele>
        <time>2022-07-21T07:34:22.174Z</time>
      </trkpt>
      <trkpt lat="44.20648" lon="0.87225">
        <ele>165</ele>
        <time>2022-07-21T07:34:23.174Z</time>
      </trkpt>
      <trkpt lat="44.20648" lon="0.87226">
        <ele>165</ele>
        <time>2022-07-21T07:34:24.174Z</time>
      </trkpt>
      <trkpt lat="44.20648" lon="0.87228">
        <ele>164</ele>
        <time>2022-07-21T07:34:25.174Z</time>
      </trkpt>
      <trkpt lat="44.20648" lon="0.87229">
        <ele>165</ele>
        <time>2022-07-21T07:34:26.174Z</time>
      </trkpt>
      <trkpt lat="44.20648" lon="0.8723">
        <ele>164</ele>
        <time>2022-07-21T07:34:27.174Z</time>
      </trkpt>
      <trkpt lat="44.20648" lon="0.87232">
        <ele>164</ele>
        <time>2022-07-21T07:34:28.174Z</time>
      </trkpt>
      <trkpt lat="44.20647" lon="0.87233">
        <ele>164</ele>
        <time>2022-07-21T07:34:29.174Z</time>
      </trkpt>
      <trkpt lat="44.20647" lon="0.87235">
        <ele>164</ele>
        <time>2022-07-21T07:34:30.174Z</time>
      </trkpt>
      <trkpt lat="44.20647" lon="0.87236">
        <ele>164</ele>
        <time>2022-07-21T07:34:31.174Z</time>
      </trkpt>
      <trkpt lat="44.20647" lon="0.87238">
        <ele>164</ele>
        <time>2022-07-21T07:34:32.174Z</time>
      </trkpt>
      <trkpt lat="44.20647" lon="0.87239">
        <ele>164</ele>
        <time>2022-07-21T07:34:33.174Z</time>
      </trkpt>
      <trkpt lat="44.20647" lon="0.87241">
        <ele>164</ele>
        <time>2022-07-21T07:34:34.174Z</time>
      </trkpt>
      <trkpt lat="44.20647" lon="0.87242">
        <ele>164</ele>
        <time>2022-07-21T07:34:35.174Z</time>
      </trkpt>
      <trkpt lat="44.20647" lon="0.87244">
        <ele>164</ele>
        <time>2022-07-21T07:34:36.174Z</time>
      </trkpt>
      <trkpt lat="44.20647" lon="0.87246">
        <ele>164</ele>
        <time>2022-07-21T07:34:37.174Z</time>
      </trkpt>
      <trkpt lat="44.20646" lon="0.87248">
        <ele>165</ele>
        <time>2022-07-21T07:34:38.174Z</time>
      </trkpt>
      <trkpt lat="44.20646" lon="0.87249">
        <ele>165</ele>
        <time>2022-07-21T07:34:39.174Z</time>
      </trkpt>
      <trkpt lat="44.20646" lon="0.87251">
        <ele>164</ele>
        <time>2022-07-21T07:34:40.174Z</time>
      </trkpt>
      <trkpt lat="44.20646" lon="0.87253">
        <ele>164</ele>
        <time>2022-07-21T07:34:41.174Z</time>
      </trkpt>
      <trkpt lat="44.20646" lon="0.87254">
        <ele>165</ele>
        <time>2022-07-21T07:34:42.174Z</time>
      </trkpt>
      <trkpt lat="44.20646" lon="0.87256">
        <ele>165</ele>
        <time>2022-07-21T07:34:43.174Z</time>
      </trkpt>
      <trkpt lat="44.20646" lon="0.87258">
        <ele>165</ele>
        <time>2022-07-21T07:34:44.174Z</time>
      </trkpt>
      <trkpt lat="44.20646" lon="0.8726">
        <ele>165</ele>
        <time>2022-07-21T07:34:45.174Z</time>
      </trkpt>
      <trkpt lat="44.20645" lon="0.87261">
        <ele>164</ele>
        <time>2022-07-21T07:34:46.174Z</time>
      </trkpt>
      <trkpt lat="44.20645" lon="0.87263">
        <ele>164</ele>
        <time>2022-07-21T07:34:47.174Z</time>
      </trkpt>
      <trkpt lat="44.20645" lon="0.87265">
        <ele>164</ele>
        <time>2022-07-21T07:34:48.174Z</time>
      </trkpt>
      <trkpt lat="44.20645" lon="0.87266">
        <ele>164</ele>
        <time>2022-07-21T07:34:49.174Z</time>
      </trkpt>
      <trkpt lat="44.20645" lon="0.87268">
        <ele>164</ele>
        <time>2022-07-21T07:34:50.174Z</time>
      </trkpt>
      <trkpt lat="44.20645" lon="0.8727">
        <ele>165</ele>
        <time>2022-07-21T07:34:51.174Z</time>
      </trkpt>
      <trkpt lat="44.20645" lon="0.87271">
        <ele>164</ele>
        <time>2022-07-21T07:34:52.174Z</time>
      </trkpt>
      <trkpt lat="44.20645" lon="0.87273">
        <ele>164</ele>
        <time>2022-07-21T07:34:53.174Z</time>
      </trkpt>
      <trkpt lat="44.20645" lon="0.87275">
        <ele>164</ele>
        <time>2022-07-21T07:34:54.174Z</time>
      </trkpt>
      <trkpt lat="44.20645" lon="0.87277">
        <ele>164</ele>
        <time>2022-07-21T07:34:55.174Z</time>
      </trkpt>
      <trkpt lat="44.20644" lon="0.87278">
        <ele>164</ele>
        <time>2022-07-21T07:34:56.174Z</time>
      </trkpt>
      <trkpt lat="44.20644" lon="0.8728">
        <ele>164</ele>
        <time>2022-07-21T07:34:57.174Z</time>
      </trkpt>
      <trkpt lat="44.20644" lon="0.87282">
        <ele>164</ele>
        <time>2022-07-21T07:34:58.174Z</time>
      </trkpt>
      <trkpt lat="44.20644" lon="0.87283">
        <ele>164</ele>
        <time>2022-07-21T07:34:59.174Z</time>
      </trkpt>
      <trkpt lat="44.20644" lon="0.87285">
        <ele>164</ele>
        <time>2022-07-21T07:35:00.174Z</time>
      </trkpt>
      <trkpt lat="44.20644" lon="0.87287">
        <ele>164</ele>
        <time>2022-07-21T07:35:01.174Z</time>
      </trkpt>
      <trkpt lat="44.20644" lon="0.87289">
        <ele>164</ele>
        <time>2022-07-21T07:35:02.174Z</time>
      </trkpt>
      <trkpt lat="44.20644" lon="0.87291">
        <ele>164</ele>
        <time>2022-07-21T07:35:03.174Z</time>
      </trkpt>
      <trkpt lat="44.20644" lon="0.87293">
        <ele>165</ele>
        <time>2022-07-21T07:35:04.174Z</time>
      </trkpt>
      <trkpt lat="44.20644" lon="0.87294">
        <ele>165</ele>
        <time>2022-07-21T07:35:05.174Z</time>
      </trkpt>
      <trkpt lat="44.20644" lon="0.87296">
        <ele>164</ele>
        <time>2022-07-21T07:35:06.174Z</time>
      </trkpt>
      <trkpt lat="44.20644" lon="0.87298">
        <ele>165</ele>
        <time>2022-07-21T07:35:07.174Z</time>
      </trkpt>
      <trkpt lat="44.20644" lon="0.87299">
        <ele>165</ele>
        <time>2022-07-21T07:35:08.174Z</time>
      </trkpt>
      <trkpt lat="44.20644" lon="0.87301">
        <ele>165</ele>
        <time>2022-07-21T07:35:09.174Z</time>
      </trkpt>
      <trkpt lat="44.20644" lon="0.87303">
        <ele>165</ele>
        <time>2022-07-21T07:35:10.174Z</time>
      </trkpt>
      <trkpt lat="44.20643" lon="0.87305">
        <ele>165</ele>
        <time>2022-07-21T07:35:11.174Z</time>
      </trkpt>
      <trkpt lat="44.20643" lon="0.87307">
        <ele>165</ele>
        <time>2022-07-21T07:35:12.174Z</time>
      </trkpt>
      <trkpt lat="44.20643" lon="0.87308">
        <ele>165</ele>
        <time>2022-07-21T07:35:13.174Z</time>
      </trkpt>
      <trkpt lat="44.20643" lon="0.8731">
        <ele>165</ele>
        <time>2022-07-21T07:35:14.174Z</time>
      </trkpt>
      <trkpt lat="44.20643" lon="0.87311">
        <ele>165</ele>
        <time>2022-07-21T07:35:15.174Z</time>
      </trkpt>
      <trkpt lat="44.20643" lon="0.87313">
        <ele>165</ele>
        <time>2022-07-21T07:35:16.174Z</time>
      </trkpt>
      <trkpt lat="44.20643" lon="0.87315">
        <ele>165</ele>
        <time>2022-07-21T07:35:17.174Z</time>
      </trkpt>
      <trkpt lat="44.20643" lon="0.87317">
        <ele>165</ele>
        <time>2022-07-21T07:35:18.174Z</time>
      </trkpt>
      <trkpt lat="44.20643" lon="0.87319">
        <ele>165</ele>
        <time>2022-07-21T07:35:19.174Z</time>
      </trkpt>
      <trkpt lat="44.20643" lon="0.8732">
        <ele>165</ele>
        <time>2022-07-21T07:35:20.174Z</time>
      </trkpt>
      <trkpt lat="44.20643" lon="0.87322">
        <ele>165</ele>
        <time>2022-07-21T07:35:21.174Z</time>
      </trkpt>
      <trkpt lat="44.20643" lon="0.87323">
        <ele>165</ele>
        <time>2022-07-21T07:35:22.174Z</time>
      </trkpt>
      <trkpt lat="44.20642" lon="0.87325">
        <ele>166</ele>
        <time>2022-07-21T07:35:23.174Z</time>
      </trkpt>
      <trkpt lat="44.20642" lon="0.87327">
        <ele>165</ele>
        <time>2022-07-21T07:35:24.174Z</time>
      </trkpt>
      <trkpt lat="44.20642" lon="0.87328">
        <ele>165</ele>
        <time>2022-07-21T07:35:25.174Z</time>
      </trkpt>
      <trkpt lat="44.20642" lon="0.8733">
        <ele>165</ele>
        <time>2022-07-21T07:35:26.174Z</time>
      </trkpt>
      <trkpt lat="44.20642" lon="0.87332">
        <ele>165</ele>
        <time>2022-07-21T07:35:27.174Z</time>
      </trkpt>
      <trkpt lat="44.20642" lon="0.87333">
        <ele>165</ele>
        <time>2022-07-21T07:35:28.174Z</time>
      </trkpt>
      <trkpt lat="44.20642" lon="0.87335">
        <ele>166</ele>
        <time>2022-07-21T07:35:29.174Z</time>
      </trkpt>
      <trkpt lat="44.20642" lon="0.87336">
        <ele>165</ele>
        <time>2022-07-21T07:35:30.174Z</time>
      </trkpt>
      <trkpt lat="44.20642" lon="0.87338">
        <ele>165</ele>
        <time>2022-07-21T07:35:31.174Z</time>
      </trkpt>
      <trkpt lat="44.20642" lon="0.87339">
        <ele>165</ele>
        <time>2022-07-21T07:35:32.174Z</time>
      </trkpt>
      <trkpt lat="44.20642" lon="0.87341">
        <ele>165</ele>
        <time>2022-07-21T07:35:33.174Z</time>
      </trkpt>
      <trkpt lat="44.20642" lon="0.87343">
        <ele>165</ele>
        <time>2022-07-21T07:35:34.174Z</time>
      </trkpt>
      <trkpt lat="44.20641" lon="0.87345">
        <ele>165</ele>
        <time>2022-07-21T07:35:35.174Z</time>
      </trkpt>
      <trkpt lat="44.20641" lon="0.87347">
        <ele>165</ele>
        <time>2022-07-21T07:35:36.174Z</time>
      </trkpt>
      <trkpt lat="44.20641" lon="0.87348">
        <ele>165</ele>
        <time>2022-07-21T07:35:37.174Z</time>
      </trkpt>
      <trkpt lat="44.20641" lon="0.8735">
        <ele>165</ele>
        <time>2022-07-21T07:35:38.174Z</time>
      </trkpt>
      <trkpt lat="44.20641" lon="0.87352">
        <ele>165</ele>
        <time>2022-07-21T07:35:39.174Z</time>
      </trkpt>
      <trkpt lat="44.20641" lon="0.87353">
        <ele>166</ele>
        <time>2022-07-21T07:35:40.174Z</time>
      </trkpt>
      <trkpt lat="44.20641" lon="0.87355">
        <ele>166</ele>
        <time>2022-07-21T07:35:41.174Z</time>
      </trkpt>
      <trkpt lat="44.2064" lon="0.87357">
        <ele>166</ele>
        <time>2022-07-21T07:35:42.174Z</time>
      </trkpt>
      <trkpt lat="44.2064" lon="0.87359">
        <ele>166</ele>
        <time>2022-07-21T07:35:43.174Z</time>
      </trkpt>
      <trkpt lat="44.2064" lon="0.8736">
        <ele>166</ele>
        <time>2022-07-21T07:35:44.174Z</time>
      </trkpt>
      <trkpt lat="44.2064" lon="0.87362">
        <ele>166</ele>
        <time>2022-07-21T07:35:45.174Z</time>
      </trkpt>
      <trkpt lat="44.2064" lon="0.87364">
        <ele>166</ele>
        <time>2022-07-21T07:35:46.174Z</time>
      </trkpt>
      <trkpt lat="44.2064" lon="0.87365">
        <ele>166</ele>
        <time>2022-07-21T07:35:47.174Z</time>
      </trkpt>
      <trkpt lat="44.2064" lon="0.87367">
        <ele>166</ele>
        <time>2022-07-21T07:35:48.174Z</time>
      </trkpt>
      <trkpt lat="44.20639" lon="0.87369">
        <ele>166</ele>
        <time>2022-07-21T07:35:49.174Z</time>
      </trkpt>
      <trkpt lat="44.20639" lon="0.87371">
        <ele>166</ele>
        <time>2022-07-21T07:35:50.174Z</time>
      </trkpt>
      <trkpt lat="44.20639" lon="0.87372">
        <ele>166</ele>
        <time>2022-07-21T07:35:51.174Z</time>
      </trkpt>
      <trkpt lat="44.20639" lon="0.87374">
        <ele>166</ele>
        <time>2022-07-21T07:35:52.174Z</time>
      </trkpt>
      <trkpt lat="44.20639" lon="0.87375">
        <ele>166</ele>
        <time>2022-07-21T07:35:53.174Z</time>
      </trkpt>
      <trkpt lat="44.20639" lon="0.87377">
        <ele>166</ele>
        <time>2022-07-21T07:35:54.174Z</time>
      </trkpt>
      <trkpt lat="44.20639" lon="0.87379">
        <ele>166</ele>
        <time>2022-07-21T07:35:55.174Z</time>
      </trkpt>
      <trkpt lat="44.20639" lon="0.87381">
        <ele>167</ele>
        <time>2022-07-21T07:35:56.174Z</time>
      </trkpt>
      <trkpt lat="44.20639" lon="0.87382">
        <ele>166</ele>
        <time>2022-07-21T07:35:57.174Z</time>
      </trkpt>
      <trkpt lat="44.20639" lon="0.87384">
        <ele>166</ele>
        <time>2022-07-21T07:35:58.174Z</time>
      </trkpt>
      <trkpt lat="44.20639" lon="0.87385">
        <ele>166</ele>
        <time>2022-07-21T07:35:59.174Z</time>
      </trkpt>
      <trkpt lat="44.20639" lon="0.87387">
        <ele>166</ele>
        <time>2022-07-21T07:36:00.174Z</time>
      </trkpt>
      <trkpt lat="44.20638" lon="0.87389">
        <ele>166</ele>
        <time>2022-07-21T07:36:01.174Z</time>
      </trkpt>
      <trkpt lat="44.20638" lon="0.8739">
        <ele>166</ele>
        <time>2022-07-21T07:36:02.174Z</time>
      </trkpt>
      <trkpt lat="44.20638" lon="0.87392">
        <ele>167</ele>
        <time>2022-07-21T07:36:03.174Z</time>
      </trkpt>
      <trkpt lat="44.20638" lon="0.87394">
        <ele>167</ele>
        <time>2022-07-21T07:36:04.174Z</time>
      </trkpt>
      <trkpt lat="44.20638" lon="0.87396">
        <ele>167</ele>
        <time>2022-07-21T07:36:05.174Z</time>
      </trkpt>
      <trkpt lat="44.20638" lon="0.87397">
        <ele>167</ele>
        <time>2022-07-21T07:36:06.174Z</time>
      </trkpt>
      <trkpt lat="44.20638" lon="0.87399">
        <ele>167</ele>
        <time>2022-07-21T07:36:07.174Z</time>
      </trkpt>
      <trkpt lat="44.20638" lon="0.87401">
        <ele>166</ele>
        <time>2022-07-21T07:36:08.174Z</time>
      </trkpt>
      <trkpt lat="44.20638" lon="0.87402">
        <ele>167</ele>
        <time>2022-07-21T07:36:09.174Z</time>
      </trkpt>
      <trkpt lat="44.20638" lon="0.87404">
        <ele>167</ele>
        <time>2022-07-21T07:36:10.174Z</time>
      </trkpt>
      <trkpt lat="44.20638" lon="0.87406">
        <ele>168</ele>
        <time>2022-07-21T07:36:11.174Z</time>
      </trkpt>
      <trkpt lat="44.20638" lon="0.87408">
        <ele>167</ele>
        <time>2022-07-21T07:36:12.174Z</time>
      </trkpt>
      <trkpt lat="44.20638" lon="0.8741">
        <ele>167</ele>
        <time>2022-07-21T07:36:13.174Z</time>
      </trkpt>
      <trkpt lat="44.20638" lon="0.87411">
        <ele>168</ele>
        <time>2022-07-21T07:36:14.174Z</time>
      </trkpt>
      <trkpt lat="44.20638" lon="0.87413">
        <ele>168</ele>
        <time>2022-07-21T07:36:15.174Z</time>
      </trkpt>
      <trkpt lat="44.20637" lon="0.87414">
        <ele>168</ele>
        <time>2022-07-21T07:36:16.174Z</time>
      </trkpt>
      <trkpt lat="44.20637" lon="0.87416">
        <ele>168</ele>
        <time>2022-07-21T07:36:17.174Z</time>
      </trkpt>
      <trkpt lat="44.20637" lon="0.87418">
        <ele>168</ele>
        <time>2022-07-21T07:36:18.174Z</time>
      </trkpt>
      <trkpt lat="44.20637" lon="0.8742">
        <ele>168</ele>
        <time>2022-07-21T07:36:19.174Z</time>
      </trkpt>
      <trkpt lat="44.20637" lon="0.87421">
        <ele>168</ele>
        <time>2022-07-21T07:36:20.174Z</time>
      </trkpt>
      <trkpt lat="44.20637" lon="0.87423">
        <ele>168</ele>
        <time>2022-07-21T07:36:21.174Z</time>
      </trkpt>
      <trkpt lat="44.20637" lon="0.87424">
        <ele>168</ele>
        <time>2022-07-21T07:36:22.174Z</time>
      </trkpt>
      <trkpt lat="44.20636" lon="0.87426">
        <ele>168</ele>
        <time>2022-07-21T07:36:23.174Z</time>
      </trkpt>
      <trkpt lat="44.20636" lon="0.87427">
        <ele>168</ele>
        <time>2022-07-21T07:36:24.174Z</time>
      </trkpt>
      <trkpt lat="44.20636" lon="0.87429">
        <ele>168</ele>
        <time>2022-07-21T07:36:25.174Z</time>
      </trkpt>
      <trkpt lat="44.20636" lon="0.87431">
        <ele>168</ele>
        <time>2022-07-21T07:36:26.174Z</time>
      </trkpt>
      <trkpt lat="44.20636" lon="0.87432">
        <ele>168</ele>
        <time>2022-07-21T07:36:27.174Z</time>
      </trkpt>
      <trkpt lat="44.20635" lon="0.87434">
        <ele>168</ele>
        <time>2022-07-21T07:36:28.174Z</time>
      </trkpt>
      <trkpt lat="44.20635" lon="0.87435">
        <ele>168</ele>
        <time>2022-07-21T07:36:29.174Z</time>
      </trkpt>
      <trkpt lat="44.20635" lon="0.87437">
        <ele>168</ele>
        <time>2022-07-21T07:36:30.174Z</time>
      </trkpt>
      <trkpt lat="44.20635" lon="0.87439">
        <ele>168</ele>
        <time>2022-07-21T07:36:31.174Z</time>
      </trkpt>
      <trkpt lat="44.20634" lon="0.87441">
        <ele>168</ele>
        <time>2022-07-21T07:36:32.174Z</time>
      </trkpt>
      <trkpt lat="44.20634" lon="0.87442">
        <ele>168</ele>
        <time>2022-07-21T07:36:33.174Z</time>
      </trkpt>
      <trkpt lat="44.20634" lon="0.87444">
        <ele>168</ele>
        <time>2022-07-21T07:36:34.174Z</time>
      </trkpt>
      <trkpt lat="44.20634" lon="0.87445">
        <ele>168</ele>
        <time>2022-07-21T07:36:35.174Z</time>
      </trkpt>
      <trkpt lat="44.20634" lon="0.87447">
        <ele>168</ele>
        <time>2022-07-21T07:36:36.174Z</time>
      </trkpt>
      <trkpt lat="44.20634" lon="0.87449">
        <ele>168</ele>
        <time>2022-07-21T07:36:37.174Z</time>
      </trkpt>
      <trkpt lat="44.20633" lon="0.8745">
        <ele>168</ele>
        <time>2022-07-21T07:36:38.174Z</time>
      </trkpt>
      <trkpt lat="44.20633" lon="0.87452">
        <ele>168</ele>
        <time>2022-07-21T07:36:39.174Z</time>
      </trkpt>
      <trkpt lat="44.20633" lon="0.87454">
        <ele>168</ele>
        <time>2022-07-21T07:36:40.174Z</time>
      </trkpt>
      <trkpt lat="44.20633" lon="0.87456">
        <ele>168</ele>
        <time>2022-07-21T07:36:41.174Z</time>
      </trkpt>
      <trkpt lat="44.20633" lon="0.87457">
        <ele>168</ele>
        <time>2022-07-21T07:36:42.174Z</time>
      </trkpt>
      <trkpt lat="44.20633" lon="0.87459">
        <ele>168</ele>
        <time>2022-07-21T07:36:43.174Z</time>
      </trkpt>
      <trkpt lat="44.20632" lon="0.8746">
        <ele>168</ele>
        <time>2022-07-21T07:36:44.174Z</time>
      </trkpt>
      <trkpt lat="44.20632" lon="0.87462">
        <ele>168</ele>
        <time>2022-07-21T07:36:45.174Z</time>
      </trkpt>
      <trkpt lat="44.20632" lon="0.87464">
        <ele>168</ele>
        <time>2022-07-21T07:36:46.174Z</time>
      </trkpt>
      <trkpt lat="44.20632" lon="0.87466">
        <ele>168</ele>
        <time>2022-07-21T07:36:47.174Z</time>
      </trkpt>
      <trkpt lat="44.20631" lon="0.87467">
        <ele>168</ele>
        <time>2022-07-21T07:36:48.174Z</time>
      </trkpt>
      <trkpt lat="44.20631" lon="0.87469">
        <ele>168</ele>
        <time>2022-07-21T07:36:49.174Z</time>
      </trkpt>
      <trkpt lat="44.20631" lon="0.87471">
        <ele>168</ele>
        <time>2022-07-21T07:36:50.174Z</time>
      </trkpt>
      <trkpt lat="44.20631" lon="0.87472">
        <ele>168</ele>
        <time>2022-07-21T07:36:51.174Z</time>
      </trkpt>
      <trkpt lat="44.20631" lon="0.87474">
        <ele>168</ele>
        <time>2022-07-21T07:36:52.174Z</time>
      </trkpt>
      <trkpt lat="44.2063" lon="0.87475">
        <ele>168</ele>
        <time>2022-07-21T07:36:53.174Z</time>
      </trkpt>
      <trkpt lat="44.2063" lon="0.87477">
        <ele>168</ele>
        <time>2022-07-21T07:36:54.174Z</time>
      </trkpt>
      <trkpt lat="44.2063" lon="0.87479">
        <ele>168</ele>
        <time>2022-07-21T07:36:55.174Z</time>
      </trkpt>
      <trkpt lat="44.2063" lon="0.87481">
        <ele>168</ele>
        <time>2022-07-21T07:36:56.174Z</time>
      </trkpt>
      <trkpt lat="44.2063" lon="0.87483">
        <ele>168</ele>
        <time>2022-07-21T07:36:57.174Z</time>
      </trkpt>
      <trkpt lat="44.2063" lon="0.87484">
        <ele>168</ele>
        <time>2022-07-21T07:36:58.174Z</time>
      </trkpt>
      <trkpt lat="44.20629" lon="0.87486">
        <ele>168</ele>
        <time>2022-07-21T07:36:59.174Z</time>
      </trkpt>
      <trkpt lat="44.20629" lon="0.87488">
        <ele>169</ele>
        <time>2022-07-21T07:37:00.174Z</time>
      </trkpt>
      <trkpt lat="44.20629" lon="0.87489">
        <ele>168</ele>
        <time>2022-07-21T07:37:01.174Z</time>
      </trkpt>
      <trkpt lat="44.20629" lon="0.8749">
        <ele>169</ele>
        <time>2022-07-21T07:37:02.174Z</time>
      </trkpt>
      <trkpt lat="44.20629" lon="0.8749">
        <ele>168</ele>
        <time>2022-07-21T07:37:03.174Z</time>
      </trkpt>
      <trkpt lat="44.20629" lon="0.8749">
        <ele>167</ele>
        <time>2022-07-21T07:37:04.174Z</time>
      </trkpt>
      <trkpt lat="44.20629" lon="0.8749">
        <ele>167</ele>
        <time>2022-07-21T07:37:05.174Z</time>
      </trkpt>
      <trkpt lat="44.20628" lon="0.8749">
        <ele>167</ele>
        <time>2022-07-21T07:37:06.174Z</time>
      </trkpt>
      <trkpt lat="44.20628" lon="0.8749">
        <ele>167</ele>
        <time>2022-07-21T07:37:07.174Z</time>
      </trkpt>
      <trkpt lat="44.20628" lon="0.8749">
        <ele>166</ele>
        <time>2022-07-21T07:37:08.174Z</time>
      </trkpt>
      <trkpt lat="44.20628" lon="0.8749">
        <ele>166</ele>
        <time>2022-07-21T07:37:09.174Z</time>
      </trkpt>
      <trkpt lat="44.20628" lon="0.8749">
        <ele>166</ele>
        <time>2022-07-21T07:37:10.174Z</time>
      </trkpt>
      <trkpt lat="44.2063" lon="0.87494">
        <ele>166</ele>
        <time>2022-07-21T07:37:16.182Z</time>
      </trkpt>
      <trkpt lat="44.2063" lon="0.87495">
        <ele>166</ele>
        <time>2022-07-21T07:37:17.182Z</time>
      </trkpt>
      <trkpt lat="44.2063" lon="0.87496">
        <ele>166</ele>
        <time>2022-07-21T07:37:18.182Z</time>
      </trkpt>
      <trkpt lat="44.2063" lon="0.87497">
        <ele>166</ele>
        <time>2022-07-21T07:37:19.182Z</time>
      </trkpt>
      <trkpt lat="44.2063" lon="0.87498">
        <ele>166</ele>
        <time>2022-07-21T07:37:20.182Z</time>
      </trkpt>
      <trkpt lat="44.20629" lon="0.87499">
        <ele>166</ele>
        <time>2022-07-21T07:37:21.182Z</time>
      </trkpt>
      <trkpt lat="44.20629" lon="0.875">
        <ele>166</ele>
        <time>2022-07-21T07:37:22.182Z</time>
      </trkpt>
      <trkpt lat="44.20629" lon="0.87501">
        <ele>166</ele>
        <time>2022-07-21T07:37:23.182Z</time>
      </trkpt>
      <trkpt lat="44.20628" lon="0.87502">
        <ele>167</ele>
        <time>2022-07-21T07:37:24.182Z</time>
      </trkpt>
      <trkpt lat="44.20628" lon="0.87504">
        <ele>167</ele>
        <time>2022-07-21T07:37:25.182Z</time>
      </trkpt>
      <trkpt lat="44.20628" lon="0.87505">
        <ele>167</ele>
        <time>2022-07-21T07:37:26.182Z</time>
      </trkpt>
      <trkpt lat="44.20627" lon="0.87506">
        <ele>167</ele>
        <time>2022-07-21T07:37:27.182Z</time>
      </trkpt>
      <trkpt lat="44.20627" lon="0.87507">
        <ele>167</ele>
        <time>2022-07-21T07:37:28.182Z</time>
      </trkpt>
      <trkpt lat="44.20627" lon="0.87509">
        <ele>167</ele>
        <time>2022-07-21T07:37:29.182Z</time>
      </trkpt>
      <trkpt lat="44.20627" lon="0.8751">
        <ele>167</ele>
        <time>2022-07-21T07:37:30.182Z</time>
      </trkpt>
      <trkpt lat="44.20626" lon="0.87512">
        <ele>167</ele>
        <time>2022-07-21T07:37:31.182Z</time>
      </trkpt>
      <trkpt lat="44.20626" lon="0.87513">
        <ele>167</ele>
        <time>2022-07-21T07:37:32.182Z</time>
      </trkpt>
      <trkpt lat="44.20626" lon="0.87515">
        <ele>167</ele>
        <time>2022-07-21T07:37:33.182Z</time>
      </trkpt>
      <trkpt lat="44.20626" lon="0.87516">
        <ele>167</ele>
        <time>2022-07-21T07:37:34.182Z</time>
      </trkpt>
      <trkpt lat="44.20626" lon="0.87518">
        <ele>167</ele>
        <time>2022-07-21T07:37:35.182Z</time>
      </trkpt>
      <trkpt lat="44.20626" lon="0.87519">
        <ele>167</ele>
        <time>2022-07-21T07:37:36.182Z</time>
      </trkpt>
      <trkpt lat="44.20625" lon="0.87521">
        <ele>167</ele>
        <time>2022-07-21T07:37:37.182Z</time>
      </trkpt>
      <trkpt lat="44.20625" lon="0.87523">
        <ele>167</ele>
        <time>2022-07-21T07:37:38.182Z</time>
      </trkpt>
      <trkpt lat="44.20625" lon="0.87524">
        <ele>167</ele>
        <time>2022-07-21T07:37:39.182Z</time>
      </trkpt>
      <trkpt lat="44.20625" lon="0.87526">
        <ele>167</ele>
        <time>2022-07-21T07:37:40.182Z</time>
      </trkpt>
      <trkpt lat="44.20624" lon="0.87528">
        <ele>167</ele>
        <time>2022-07-21T07:37:41.182Z</time>
      </trkpt>
      <trkpt lat="44.20624" lon="0.87529">
        <ele>167</ele>
        <time>2022-07-21T07:37:42.182Z</time>
      </trkpt>
      <trkpt lat="44.20624" lon="0.87531">
        <ele>167</ele>
        <time>2022-07-21T07:37:43.182Z</time>
      </trkpt>
      <trkpt lat="44.20624" lon="0.87532">
        <ele>167</ele>
        <time>2022-07-21T07:37:44.182Z</time>
      </trkpt>
      <trkpt lat="44.20624" lon="0.87534">
        <ele>166</ele>
        <time>2022-07-21T07:37:45.182Z</time>
      </trkpt>
      <trkpt lat="44.20623" lon="0.87535">
        <ele>167</ele>
        <time>2022-07-21T07:37:46.182Z</time>
      </trkpt>
      <trkpt lat="44.20623" lon="0.87537">
        <ele>166</ele>
        <time>2022-07-21T07:37:47.182Z</time>
      </trkpt>
      <trkpt lat="44.20623" lon="0.87539">
        <ele>166</ele>
        <time>2022-07-21T07:37:48.182Z</time>
      </trkpt>
      <trkpt lat="44.20622" lon="0.8754">
        <ele>167</ele>
        <time>2022-07-21T07:37:49.182Z</time>
      </trkpt>
      <trkpt lat="44.20622" lon="0.87542">
        <ele>167</ele>
        <time>2022-07-21T07:37:50.182Z</time>
      </trkpt>
      <trkpt lat="44.20622" lon="0.87544">
        <ele>167</ele>
        <time>2022-07-21T07:37:51.182Z</time>
      </trkpt>
      <trkpt lat="44.20622" lon="0.87546">
        <ele>167</ele>
        <time>2022-07-21T07:37:52.182Z</time>
      </trkpt>
      <trkpt lat="44.20622" lon="0.87548">
        <ele>168</ele>
        <time>2022-07-21T07:37:53.182Z</time>
      </trkpt>
      <trkpt lat="44.20621" lon="0.87549">
        <ele>167</ele>
        <time>2022-07-21T07:37:54.182Z</time>
      </trkpt>
      <trkpt lat="44.20621" lon="0.87551">
        <ele>167</ele>
        <time>2022-07-21T07:37:55.182Z</time>
      </trkpt>
      <trkpt lat="44.20621" lon="0.87552">
        <ele>167</ele>
        <time>2022-07-21T07:37:56.182Z</time>
      </trkpt>
      <trkpt lat="44.20621" lon="0.87553">
        <ele>168</ele>
        <time>2022-07-21T07:37:57.182Z</time>
      </trkpt>
      <trkpt lat="44.20621" lon="0.87555">
        <ele>167</ele>
        <time>2022-07-21T07:37:58.182Z</time>
      </trkpt>
      <trkpt lat="44.2062" lon="0.87556">
        <ele>167</ele>
        <time>2022-07-21T07:37:59.182Z</time>
      </trkpt>
      <trkpt lat="44.2062" lon="0.87558">
        <ele>168</ele>
        <time>2022-07-21T07:38:00.182Z</time>
      </trkpt>
      <trkpt lat="44.2062" lon="0.87559">
        <ele>168</ele>
        <time>2022-07-21T07:38:01.182Z</time>
      </trkpt>
      <trkpt lat="44.2062" lon="0.87561">
        <ele>168</ele>
        <time>2022-07-21T07:38:02.182Z</time>
      </trkpt>
      <trkpt lat="44.2062" lon="0.87562">
        <ele>168</ele>
        <time>2022-07-21T07:38:03.182Z</time>
      </trkpt>
      <trkpt lat="44.2062" lon="0.87564">
        <ele>168</ele>
        <time>2022-07-21T07:38:04.182Z</time>
      </trkpt>
      <trkpt lat="44.20619" lon="0.87566">
        <ele>168</ele>
        <time>2022-07-21T07:38:05.182Z</time>
      </trkpt>
      <trkpt lat="44.20619" lon="0.87567">
        <ele>168</ele>
        <time>2022-07-21T07:38:06.182Z</time>
      </trkpt>
      <trkpt lat="44.20619" lon="0.87569">
        <ele>168</ele>
        <time>2022-07-21T07:38:07.182Z</time>
      </trkpt>
      <trkpt lat="44.20619" lon="0.8757">
        <ele>169</ele>
        <time>2022-07-21T07:38:08.182Z</time>
      </trkpt>
      <trkpt lat="44.20619" lon="0.87572">
        <ele>169</ele>
        <time>2022-07-21T07:38:09.182Z</time>
      </trkpt>
      <trkpt lat="44.20619" lon="0.87574">
        <ele>169</ele>
        <time>2022-07-21T07:38:10.182Z</time>
      </trkpt>
      <trkpt lat="44.20618" lon="0.87575">
        <ele>169</ele>
        <time>2022-07-21T07:38:11.182Z</time>
      </trkpt>
      <trkpt lat="44.20618" lon="0.87577">
        <ele>169</ele>
        <time>2022-07-21T07:38:12.182Z</time>
      </trkpt>
      <trkpt lat="44.20618" lon="0.87578">
        <ele>169</ele>
        <time>2022-07-21T07:38:13.182Z</time>
      </trkpt>
      <trkpt lat="44.20618" lon="0.8758">
        <ele>169</ele>
        <time>2022-07-21T07:38:14.182Z</time>
      </trkpt>
      <trkpt lat="44.20617" lon="0.87582">
        <ele>170</ele>
        <time>2022-07-21T07:38:15.182Z</time>
      </trkpt>
      <trkpt lat="44.20617" lon="0.87583">
        <ele>170</ele>
        <time>2022-07-21T07:38:16.182Z</time>
      </trkpt>
      <trkpt lat="44.20617" lon="0.87585">
        <ele>170</ele>
        <time>2022-07-21T07:38:17.182Z</time>
      </trkpt>
      <trkpt lat="44.20617" lon="0.87587">
        <ele>170</ele>
        <time>2022-07-21T07:38:18.182Z</time>
      </trkpt>
      <trkpt lat="44.20616" lon="0.87589">
        <ele>170</ele>
        <time>2022-07-21T07:38:19.182Z</time>
      </trkpt>
      <trkpt lat="44.20616" lon="0.87591">
        <ele>170</ele>
        <time>2022-07-21T07:38:20.182Z</time>
      </trkpt>
      <trkpt lat="44.20616" lon="0.87592">
        <ele>170</ele>
        <time>2022-07-21T07:38:21.182Z</time>
      </trkpt>
      <trkpt lat="44.20616" lon="0.87594">
        <ele>170</ele>
        <time>2022-07-21T07:38:22.182Z</time>
      </trkpt>
      <trkpt lat="44.20615" lon="0.87595">
        <ele>170</ele>
        <time>2022-07-21T07:38:23.182Z</time>
      </trkpt>
      <trkpt lat="44.20615" lon="0.87597">
        <ele>170</ele>
        <time>2022-07-21T07:38:24.182Z</time>
      </trkpt>
      <trkpt lat="44.20615" lon="0.87598">
        <ele>170</ele>
        <time>2022-07-21T07:38:25.182Z</time>
      </trkpt>
      <trkpt lat="44.20615" lon="0.876">
        <ele>169</ele>
        <time>2022-07-21T07:38:26.182Z</time>
      </trkpt>
      <trkpt lat="44.20615" lon="0.87601">
        <ele>169</ele>
        <time>2022-07-21T07:38:27.182Z</time>
      </trkpt>
      <trkpt lat="44.20615" lon="0.87603">
        <ele>169</ele>
        <time>2022-07-21T07:38:28.182Z</time>
      </trkpt>
      <trkpt lat="44.20615" lon="0.87604">
        <ele>169</ele>
        <time>2022-07-21T07:38:29.182Z</time>
      </trkpt>
      <trkpt lat="44.20615" lon="0.87605">
        <ele>170</ele>
        <time>2022-07-21T07:38:30.182Z</time>
      </trkpt>
      <trkpt lat="44.20614" lon="0.87606">
        <ele>170</ele>
        <time>2022-07-21T07:38:31.182Z</time>
      </trkpt>
      <trkpt lat="44.20614" lon="0.87608">
        <ele>170</ele>
        <time>2022-07-21T07:38:32.182Z</time>
      </trkpt>
      <trkpt lat="44.20614" lon="0.8761">
        <ele>170</ele>
        <time>2022-07-21T07:38:33.182Z</time>
      </trkpt>
      <trkpt lat="44.20614" lon="0.87612">
        <ele>171</ele>
        <time>2022-07-21T07:38:34.182Z</time>
      </trkpt>
      <trkpt lat="44.20614" lon="0.87614">
        <ele>170</ele>
        <time>2022-07-21T07:38:35.182Z</time>
      </trkpt>
      <trkpt lat="44.20614" lon="0.87616">
        <ele>171</ele>
        <time>2022-07-21T07:38:36.182Z</time>
      </trkpt>
      <trkpt lat="44.20614" lon="0.87617">
        <ele>171</ele>
        <time>2022-07-21T07:38:37.182Z</time>
      </trkpt>
      <trkpt lat="44.20613" lon="0.87619">
        <ele>171</ele>
        <time>2022-07-21T07:38:38.182Z</time>
      </trkpt>
      <trkpt lat="44.20613" lon="0.87621">
        <ele>171</ele>
        <time>2022-07-21T07:38:39.182Z</time>
      </trkpt>
      <trkpt lat="44.20613" lon="0.87623">
        <ele>172</ele>
        <time>2022-07-21T07:38:40.182Z</time>
      </trkpt>
      <trkpt lat="44.20613" lon="0.87625">
        <ele>172</ele>
        <time>2022-07-21T07:38:41.182Z</time>
      </trkpt>
      <trkpt lat="44.20612" lon="0.87626">
        <ele>172</ele>
        <time>2022-07-21T07:38:42.182Z</time>
      </trkpt>
      <trkpt lat="44.20612" lon="0.87628">
        <ele>172</ele>
        <time>2022-07-21T07:38:43.182Z</time>
      </trkpt>
      <trkpt lat="44.20612" lon="0.87629">
        <ele>172</ele>
        <time>2022-07-21T07:38:44.182Z</time>
      </trkpt>
      <trkpt lat="44.20612" lon="0.8763">
        <ele>172</ele>
        <time>2022-07-21T07:38:45.182Z</time>
      </trkpt>
      <trkpt lat="44.20612" lon="0.87631">
        <ele>172</ele>
        <time>2022-07-21T07:38:46.182Z</time>
      </trkpt>
      <trkpt lat="44.20611" lon="0.87633">
        <ele>172</ele>
        <time>2022-07-21T07:38:47.182Z</time>
      </trkpt>
      <trkpt lat="44.20611" lon="0.87634">
        <ele>172</ele>
        <time>2022-07-21T07:38:48.182Z</time>
      </trkpt>
      <trkpt lat="44.20611" lon="0.87636">
        <ele>172</ele>
        <time>2022-07-21T07:38:49.182Z</time>
      </trkpt>
      <trkpt lat="44.20611" lon="0.87637">
        <ele>172</ele>
        <time>2022-07-21T07:38:50.182Z</time>
      </trkpt>
      <trkpt lat="44.20611" lon="0.87639">
        <ele>172</ele>
        <time>2022-07-21T07:38:51.182Z</time>
      </trkpt>
      <trkpt lat="44.20611" lon="0.8764">
        <ele>172</ele>
        <time>2022-07-21T07:38:52.182Z</time>
      </trkpt>
      <trkpt lat="44.20611" lon="0.87642">
        <ele>172</ele>
        <time>2022-07-21T07:38:53.182Z</time>
      </trkpt>
      <trkpt lat="44.2061" lon="0.87644">
        <ele>172</ele>
        <time>2022-07-21T07:38:54.182Z</time>
      </trkpt>
      <trkpt lat="44.2061" lon="0.87646">
        <ele>172</ele>
        <time>2022-07-21T07:38:55.182Z</time>
      </trkpt>
      <trkpt lat="44.2061" lon="0.87648">
        <ele>172</ele>
        <time>2022-07-21T07:38:56.182Z</time>
      </trkpt>
      <trkpt lat="44.20609" lon="0.8765">
        <ele>172</ele>
        <time>2022-07-21T07:38:57.182Z</time>
      </trkpt>
      <trkpt lat="44.20609" lon="0.87651">
        <ele>172</ele>
        <time>2022-07-21T07:38:58.182Z</time>
      </trkpt>
      <trkpt lat="44.20609" lon="0.87653">
        <ele>172</ele>
        <time>2022-07-21T07:38:59.182Z</time>
      </trkpt>
      <trkpt lat="44.20609" lon="0.87655">
        <ele>172</ele>
        <time>2022-07-21T07:39:00.182Z</time>
      </trkpt>
      <trkpt lat="44.20608" lon="0.87656">
        <ele>172</ele>
        <time>2022-07-21T07:39:01.182Z</time>
      </trkpt>
      <trkpt lat="44.20608" lon="0.87658">
        <ele>172</ele>
        <time>2022-07-21T07:39:02.182Z</time>
      </trkpt>
      <trkpt lat="44.20608" lon="0.8766">
        <ele>172</ele>
        <time>2022-07-21T07:39:03.182Z</time>
      </trkpt>
      <trkpt lat="44.20608" lon="0.87662">
        <ele>172</ele>
        <time>2022-07-21T07:39:04.182Z</time>
      </trkpt>
      <trkpt lat="44.20607" lon="0.87664">
        <ele>172</ele>
        <time>2022-07-21T07:39:05.182Z</time>
      </trkpt>
      <trkpt lat="44.20607" lon="0.87665">
        <ele>172</ele>
        <time>2022-07-21T07:39:06.182Z</time>
      </trkpt>
      <trkpt lat="44.20607" lon="0.87666">
        <ele>172</ele>
        <time>2022-07-21T07:39:07.182Z</time>
      </trkpt>
      <trkpt lat="44.20607" lon="0.87668">
        <ele>173</ele>
        <time>2022-07-21T07:39:08.182Z</time>
      </trkpt>
      <trkpt lat="44.20607" lon="0.87669">
        <ele>172</ele>
        <time>2022-07-21T07:39:09.182Z</time>
      </trkpt>
      <trkpt lat="44.20607" lon="0.87671">
        <ele>172</ele>
        <time>2022-07-21T07:39:10.182Z</time>
      </trkpt>
      <trkpt lat="44.20607" lon="0.87673">
        <ele>172</ele>
        <time>2022-07-21T07:39:11.182Z</time>
      </trkpt>
      <trkpt lat="44.20607" lon="0.87674">
        <ele>172</ele>
        <time>2022-07-21T07:39:12.182Z</time>
      </trkpt>
      <trkpt lat="44.20606" lon="0.87676">
        <ele>172</ele>
        <time>2022-07-21T07:39:13.182Z</time>
      </trkpt>
      <trkpt lat="44.20606" lon="0.87677">
        <ele>172</ele>
        <time>2022-07-21T07:39:14.182Z</time>
      </trkpt>
      <trkpt lat="44.20606" lon="0.87679">
        <ele>173</ele>
        <time>2022-07-21T07:39:15.182Z</time>
      </trkpt>
      <trkpt lat="44.20606" lon="0.87681">
        <ele>173</ele>
        <time>2022-07-21T07:39:16.182Z</time>
      </trkpt>
      <trkpt lat="44.20606" lon="0.87683">
        <ele>173</ele>
        <time>2022-07-21T07:39:17.182Z</time>
      </trkpt>
      <trkpt lat="44.20606" lon="0.87685">
        <ele>173</ele>
        <time>2022-07-21T07:39:18.182Z</time>
      </trkpt>
      <trkpt lat="44.20605" lon="0.87687">
        <ele>173</ele>
        <time>2022-07-21T07:39:19.182Z</time>
      </trkpt>
      <trkpt lat="44.20605" lon="0.87689">
        <ele>173</ele>
        <time>2022-07-21T07:39:20.182Z</time>
      </trkpt>
      <trkpt lat="44.20605" lon="0.8769">
        <ele>173</ele>
        <time>2022-07-21T07:39:21.182Z</time>
      </trkpt>
      <trkpt lat="44.20605" lon="0.87692">
        <ele>173</ele>
        <time>2022-07-21T07:39:22.182Z</time>
      </trkpt>
      <trkpt lat="44.20605" lon="0.87694">
        <ele>173</ele>
        <time>2022-07-21T07:39:23.182Z</time>
      </trkpt>
      <trkpt lat="44.20605" lon="0.87696">
        <ele>173</ele>
        <time>2022-07-21T07:39:24.182Z</time>
      </trkpt>
      <trkpt lat="44.20604" lon="0.87697">
        <ele>173</ele>
        <time>2022-07-21T07:39:25.182Z</time>
      </trkpt>
      <trkpt lat="44.20604" lon="0.87699">
        <ele>173</ele>
        <time>2022-07-21T07:39:26.182Z</time>
      </trkpt>
      <trkpt lat="44.20604" lon="0.87701">
        <ele>173</ele>
        <time>2022-07-21T07:39:27.182Z</time>
      </trkpt>
      <trkpt lat="44.20604" lon="0.87703">
        <ele>173</ele>
        <time>2022-07-21T07:39:28.182Z</time>
      </trkpt>
      <trkpt lat="44.20604" lon="0.87705">
        <ele>173</ele>
        <time>2022-07-21T07:39:29.182Z</time>
      </trkpt>
      <trkpt lat="44.20604" lon="0.87707">
        <ele>173</ele>
        <time>2022-07-21T07:39:30.182Z</time>
      </trkpt>
      <trkpt lat="44.20604" lon="0.8771">
        <ele>173</ele>
        <time>2022-07-21T07:39:31.182Z</time>
      </trkpt>
      <trkpt lat="44.20604" lon="0.87711">
        <ele>173</ele>
        <time>2022-07-21T07:39:32.182Z</time>
      </trkpt>
      <trkpt lat="44.20604" lon="0.87713">
        <ele>173</ele>
        <time>2022-07-21T07:39:33.182Z</time>
      </trkpt>
      <trkpt lat="44.20604" lon="0.87715">
        <ele>173</ele>
        <time>2022-07-21T07:39:34.182Z</time>
      </trkpt>
      <trkpt lat="44.20604" lon="0.87717">
        <ele>172</ele>
        <time>2022-07-21T07:39:35.182Z</time>
      </trkpt>
      <trkpt lat="44.20604" lon="0.87719">
        <ele>173</ele>
        <time>2022-07-21T07:39:36.182Z</time>
      </trkpt>
      <trkpt lat="44.20603" lon="0.87721">
        <ele>173</ele>
        <time>2022-07-21T07:39:37.182Z</time>
      </trkpt>
      <trkpt lat="44.20603" lon="0.87722">
        <ele>173</ele>
        <time>2022-07-21T07:39:38.182Z</time>
      </trkpt>
      <trkpt lat="44.20603" lon="0.87724">
        <ele>173</ele>
        <time>2022-07-21T07:39:39.182Z</time>
      </trkpt>
      <trkpt lat="44.20603" lon="0.87726">
        <ele>173</ele>
        <time>2022-07-21T07:39:40.182Z</time>
      </trkpt>
      <trkpt lat="44.20603" lon="0.87728">
        <ele>173</ele>
        <time>2022-07-21T07:39:41.182Z</time>
      </trkpt>
      <trkpt lat="44.20602" lon="0.8773">
        <ele>173</ele>
        <time>2022-07-21T07:39:42.182Z</time>
      </trkpt>
      <trkpt lat="44.20602" lon="0.87732">
        <ele>172</ele>
        <time>2022-07-21T07:39:43.182Z</time>
      </trkpt>
      <trkpt lat="44.20602" lon="0.87734">
        <ele>173</ele>
        <time>2022-07-21T07:39:44.182Z</time>
      </trkpt>
      <trkpt lat="44.20602" lon="0.87735">
        <ele>173</ele>
        <time>2022-07-21T07:39:45.182Z</time>
      </trkpt>
      <trkpt lat="44.20602" lon="0.87737">
        <ele>173</ele>
        <time>2022-07-21T07:39:46.182Z</time>
      </trkpt>
      <trkpt lat="44.20602" lon="0.87738">
        <ele>174</ele>
        <time>2022-07-21T07:39:47.182Z</time>
      </trkpt>
      <trkpt lat="44.20602" lon="0.8774">
        <ele>173</ele>
        <time>2022-07-21T07:39:48.182Z</time>
      </trkpt>
      <trkpt lat="44.20602" lon="0.87742">
        <ele>174</ele>
        <time>2022-07-21T07:39:49.182Z</time>
      </trkpt>
      <trkpt lat="44.20601" lon="0.87744">
        <ele>174</ele>
        <time>2022-07-21T07:39:50.182Z</time>
      </trkpt>
      <trkpt lat="44.20601" lon="0.87746">
        <ele>174</ele>
        <time>2022-07-21T07:39:51.182Z</time>
      </trkpt>
      <trkpt lat="44.20601" lon="0.87747">
        <ele>174</ele>
        <time>2022-07-21T07:39:52.182Z</time>
      </trkpt>
      <trkpt lat="44.20601" lon="0.87749">
        <ele>174</ele>
        <time>2022-07-21T07:39:53.182Z</time>
      </trkpt>
      <trkpt lat="44.206" lon="0.87751">
        <ele>174</ele>
        <time>2022-07-21T07:39:54.182Z</time>
      </trkpt>
      <trkpt lat="44.206" lon="0.87753">
        <ele>175</ele>
        <time>2022-07-21T07:39:55.182Z</time>
      </trkpt>
      <trkpt lat="44.206" lon="0.87755">
        <ele>175</ele>
        <time>2022-07-21T07:39:56.182Z</time>
      </trkpt>
      <trkpt lat="44.206" lon="0.87757">
        <ele>175</ele>
        <time>2022-07-21T07:39:57.182Z</time>
      </trkpt>
      <trkpt lat="44.206" lon="0.87759">
        <ele>175</ele>
        <time>2022-07-21T07:39:58.182Z</time>
      </trkpt>
      <trkpt lat="44.206" lon="0.87761">
        <ele>175</ele>
        <time>2022-07-21T07:39:59.182Z</time>
      </trkpt>
      <trkpt lat="44.20599" lon="0.87763">
        <ele>175</ele>
        <time>2022-07-21T07:40:00.182Z</time>
      </trkpt>
      <trkpt lat="44.20599" lon="0.87765">
        <ele>175</ele>
        <time>2022-07-21T07:40:01.182Z</time>
      </trkpt>
      <trkpt lat="44.20599" lon="0.87767">
        <ele>175</ele>
        <time>2022-07-21T07:40:02.182Z</time>
      </trkpt>
      <trkpt lat="44.20599" lon="0.87769">
        <ele>175</ele>
        <time>2022-07-21T07:40:03.182Z</time>
      </trkpt>
      <trkpt lat="44.20599" lon="0.87771">
        <ele>175</ele>
        <time>2022-07-21T07:40:04.182Z</time>
      </trkpt>
      <trkpt lat="44.20599" lon="0.87773">
        <ele>175</ele>
        <time>2022-07-21T07:40:05.182Z</time>
      </trkpt>
      <trkpt lat="44.20599" lon="0.87774">
        <ele>176</ele>
        <time>2022-07-21T07:40:06.182Z</time>
      </trkpt>
      <trkpt lat="44.20599" lon="0.87776">
        <ele>176</ele>
        <time>2022-07-21T07:40:07.182Z</time>
      </trkpt>
      <trkpt lat="44.20598" lon="0.87778">
        <ele>176</ele>
        <time>2022-07-21T07:40:08.182Z</time>
      </trkpt>
      <trkpt lat="44.20598" lon="0.87779">
        <ele>176</ele>
        <time>2022-07-21T07:40:09.182Z</time>
      </trkpt>
      <trkpt lat="44.20597" lon="0.8778">
        <ele>176</ele>
        <time>2022-07-21T07:40:10.182Z</time>
      </trkpt>
      <trkpt lat="44.20597" lon="0.87781">
        <ele>177</ele>
        <time>2022-07-21T07:40:11.182Z</time>
      </trkpt>
      <trkpt lat="44.20597" lon="0.87783">
        <ele>177</ele>
        <time>2022-07-21T07:40:12.182Z</time>
      </trkpt>
      <trkpt lat="44.20596" lon="0.87784">
        <ele>177</ele>
        <time>2022-07-21T07:40:13.182Z</time>
      </trkpt>
      <trkpt lat="44.20596" lon="0.87785">
        <ele>178</ele>
        <time>2022-07-21T07:40:14.182Z</time>
      </trkpt>
      <trkpt lat="44.20595" lon="0.87787">
        <ele>178</ele>
        <time>2022-07-21T07:40:15.182Z</time>
      </trkpt>
      <trkpt lat="44.20595" lon="0.87788">
        <ele>178</ele>
        <time>2022-07-21T07:40:16.182Z</time>
      </trkpt>
      <trkpt lat="44.20594" lon="0.87789">
        <ele>178</ele>
        <time>2022-07-21T07:40:17.182Z</time>
      </trkpt>
      <trkpt lat="44.20594" lon="0.87791">
        <ele>178</ele>
        <time>2022-07-21T07:40:18.182Z</time>
      </trkpt>
      <trkpt lat="44.20593" lon="0.87793">
        <ele>178</ele>
        <time>2022-07-21T07:40:19.182Z</time>
      </trkpt>
      <trkpt lat="44.20593" lon="0.87794">
        <ele>178</ele>
        <time>2022-07-21T07:40:20.182Z</time>
      </trkpt>
      <trkpt lat="44.20592" lon="0.87795">
        <ele>178</ele>
        <time>2022-07-21T07:40:21.182Z</time>
      </trkpt>
      <trkpt lat="44.20591" lon="0.87797">
        <ele>177</ele>
        <time>2022-07-21T07:40:22.182Z</time>
      </trkpt>
      <trkpt lat="44.2059" lon="0.87798">
        <ele>178</ele>
        <time>2022-07-21T07:40:23.182Z</time>
      </trkpt>
      <trkpt lat="44.2059" lon="0.87799">
        <ele>178</ele>
        <time>2022-07-21T07:40:24.182Z</time>
      </trkpt>
      <trkpt lat="44.20589" lon="0.87801">
        <ele>178</ele>
        <time>2022-07-21T07:40:25.182Z</time>
      </trkpt>
      <trkpt lat="44.20588" lon="0.87803">
        <ele>177</ele>
        <time>2022-07-21T07:40:26.182Z</time>
      </trkpt>
      <trkpt lat="44.20588" lon="0.87804">
        <ele>177</ele>
        <time>2022-07-21T07:40:27.182Z</time>
      </trkpt>
      <trkpt lat="44.20587" lon="0.87805">
        <ele>177</ele>
        <time>2022-07-21T07:40:28.182Z</time>
      </trkpt>
      <trkpt lat="44.20587" lon="0.87807">
        <ele>177</ele>
        <time>2022-07-21T07:40:29.182Z</time>
      </trkpt>
      <trkpt lat="44.20586" lon="0.87808">
        <ele>177</ele>
        <time>2022-07-21T07:40:30.182Z</time>
      </trkpt>
      <trkpt lat="44.20586" lon="0.8781">
        <ele>176</ele>
        <time>2022-07-21T07:40:31.182Z</time>
      </trkpt>
      <trkpt lat="44.20585" lon="0.87812">
        <ele>176</ele>
        <time>2022-07-21T07:40:32.182Z</time>
      </trkpt>
      <trkpt lat="44.20585" lon="0.87813">
        <ele>176</ele>
        <time>2022-07-21T07:40:33.182Z</time>
      </trkpt>
      <trkpt lat="44.20584" lon="0.87815">
        <ele>175</ele>
        <time>2022-07-21T07:40:34.182Z</time>
      </trkpt>
      <trkpt lat="44.20583" lon="0.87816">
        <ele>175</ele>
        <time>2022-07-21T07:40:35.182Z</time>
      </trkpt>
      <trkpt lat="44.20582" lon="0.87817">
        <ele>175</ele>
        <time>2022-07-21T07:40:36.182Z</time>
      </trkpt>
      <trkpt lat="44.20582" lon="0.87819">
        <ele>174</ele>
        <time>2022-07-21T07:40:37.182Z</time>
      </trkpt>
      <trkpt lat="44.20581" lon="0.8782">
        <ele>174</ele>
        <time>2022-07-21T07:40:38.182Z</time>
      </trkpt>
      <trkpt lat="44.2058" lon="0.87821">
        <ele>174</ele>
        <time>2022-07-21T07:40:39.182Z</time>
      </trkpt>
      <trkpt lat="44.2058" lon="0.87823">
        <ele>174</ele>
        <time>2022-07-21T07:40:40.182Z</time>
      </trkpt>
      <trkpt lat="44.20579" lon="0.87824">
        <ele>174</ele>
        <time>2022-07-21T07:40:41.182Z</time>
      </trkpt>
      <trkpt lat="44.20578" lon="0.87826">
        <ele>174</ele>
        <time>2022-07-21T07:40:42.182Z</time>
      </trkpt>
      <trkpt lat="44.20577" lon="0.87828">
        <ele>174</ele>
        <time>2022-07-21T07:40:43.182Z</time>
      </trkpt>
      <trkpt lat="44.20576" lon="0.87829">
        <ele>174</ele>
        <time>2022-07-21T07:40:44.182Z</time>
      </trkpt>
      <trkpt lat="44.20575" lon="0.87831">
        <ele>174</ele>
        <time>2022-07-21T07:40:45.182Z</time>
      </trkpt>
      <trkpt lat="44.20574" lon="0.87832">
        <ele>174</ele>
        <time>2022-07-21T07:40:46.182Z</time>
      </trkpt>
      <trkpt lat="44.20573" lon="0.87833">
        <ele>174</ele>
        <time>2022-07-21T07:40:47.182Z</time>
      </trkpt>
      <trkpt lat="44.20572" lon="0.87834">
        <ele>174</ele>
        <time>2022-07-21T07:40:48.182Z</time>
      </trkpt>
      <trkpt lat="44.20571" lon="0.87836">
        <ele>174</ele>
        <time>2022-07-21T07:40:49.182Z</time>
      </trkpt>
      <trkpt lat="44.2057" lon="0.87837">
        <ele>174</ele>
        <time>2022-07-21T07:40:50.182Z</time>
      </trkpt>
      <trkpt lat="44.20569" lon="0.87839">
        <ele>175</ele>
        <time>2022-07-21T07:40:51.182Z</time>
      </trkpt>
      <trkpt lat="44.20568" lon="0.8784">
        <ele>174</ele>
        <time>2022-07-21T07:40:52.182Z</time>
      </trkpt>
      <trkpt lat="44.20567" lon="0.87841">
        <ele>174</ele>
        <time>2022-07-21T07:40:53.182Z</time>
      </trkpt>
      <trkpt lat="44.20566" lon="0.87843">
        <ele>174</ele>
        <time>2022-07-21T07:40:54.182Z</time>
      </trkpt>
      <trkpt lat="44.20565" lon="0.87844">
        <ele>174</ele>
        <time>2022-07-21T07:40:55.182Z</time>
      </trkpt>
      <trkpt lat="44.20564" lon="0.87845">
        <ele>174</ele>
        <time>2022-07-21T07:40:56.182Z</time>
      </trkpt>
      <trkpt lat="44.20564" lon="0.87846">
        <ele>174</ele>
        <time>2022-07-21T07:40:57.182Z</time>
      </trkpt>
      <trkpt lat="44.20563" lon="0.87847">
        <ele>174</ele>
        <time>2022-07-21T07:40:58.182Z</time>
      </trkpt>
      <trkpt lat="44.20562" lon="0.87848">
        <ele>174</ele>
        <time>2022-07-21T07:40:59.182Z</time>
      </trkpt>
      <trkpt lat="44.20561" lon="0.8785">
        <ele>174</ele>
        <time>2022-07-21T07:41:00.182Z</time>
      </trkpt>
      <trkpt lat="44.2056" lon="0.87851">
        <ele>174</ele>
        <time>2022-07-21T07:41:01.182Z</time>
      </trkpt>
      <trkpt lat="44.20559" lon="0.87852">
        <ele>174</ele>
        <time>2022-07-21T07:41:02.182Z</time>
      </trkpt>
      <trkpt lat="44.20558" lon="0.87853">
        <ele>174</ele>
        <time>2022-07-21T07:41:03.182Z</time>
      </trkpt>
      <trkpt lat="44.20557" lon="0.87855">
        <ele>174</ele>
        <time>2022-07-21T07:41:04.182Z</time>
      </trkpt>
      <trkpt lat="44.20556" lon="0.87856">
        <ele>174</ele>
        <time>2022-07-21T07:41:05.182Z</time>
      </trkpt>
      <trkpt lat="44.20555" lon="0.87858">
        <ele>174</ele>
        <time>2022-07-21T07:41:06.182Z</time>
      </trkpt>
      <trkpt lat="44.20554" lon="0.87859">
        <ele>174</ele>
        <time>2022-07-21T07:41:07.182Z</time>
      </trkpt>
      <trkpt lat="44.20553" lon="0.8786">
        <ele>174</ele>
        <time>2022-07-21T07:41:08.182Z</time>
      </trkpt>
      <trkpt lat="44.20552" lon="0.87861">
        <ele>175</ele>
        <time>2022-07-21T07:41:09.182Z</time>
      </trkpt>
      <trkpt lat="44.20551" lon="0.87863">
        <ele>174</ele>
        <time>2022-07-21T07:41:10.182Z</time>
      </trkpt>
      <trkpt lat="44.2055" lon="0.87864">
        <ele>174</ele>
        <time>2022-07-21T07:41:11.182Z</time>
      </trkpt>
      <trkpt lat="44.20549" lon="0.87865">
        <ele>173</ele>
        <time>2022-07-21T07:41:12.182Z</time>
      </trkpt>
      <trkpt lat="44.20548" lon="0.87866">
        <ele>173</ele>
        <time>2022-07-21T07:41:13.182Z</time>
      </trkpt>
      <trkpt lat="44.20547" lon="0.87867">
        <ele>173</ele>
        <time>2022-07-21T07:41:14.182Z</time>
      </trkpt>
      <trkpt lat="44.20546" lon="0.87868">
        <ele>174</ele>
        <time>2022-07-21T07:41:15.182Z</time>
      </trkpt>
      <trkpt lat="44.20545" lon="0.87869">
        <ele>174</ele>
        <time>2022-07-21T07:41:16.182Z</time>
      </trkpt>
      <trkpt lat="44.20544" lon="0.8787">
        <ele>173</ele>
        <time>2022-07-21T07:41:17.182Z</time>
      </trkpt>
      <trkpt lat="44.20543" lon="0.87871">
        <ele>173</ele>
        <time>2022-07-21T07:41:18.182Z</time>
      </trkpt>
      <trkpt lat="44.20542" lon="0.87872">
        <ele>173</ele>
        <time>2022-07-21T07:41:19.182Z</time>
      </trkpt>
      <trkpt lat="44.20541" lon="0.87873">
        <ele>173</ele>
        <time>2022-07-21T07:41:20.182Z</time>
      </trkpt>
      <trkpt lat="44.20541" lon="0.87874">
        <ele>173</ele>
        <time>2022-07-21T07:41:21.182Z</time>
      </trkpt>
      <trkpt lat="44.2054" lon="0.87875">
        <ele>173</ele>
        <time>2022-07-21T07:41:22.182Z</time>
      </trkpt>
      <trkpt lat="44.20539" lon="0.87877">
        <ele>174</ele>
        <time>2022-07-21T07:41:23.182Z</time>
      </trkpt>
      <trkpt lat="44.20538" lon="0.87878">
        <ele>173</ele>
        <time>2022-07-21T07:41:24.182Z</time>
      </trkpt>
      <trkpt lat="44.20537" lon="0.87879">
        <ele>173</ele>
        <time>2022-07-21T07:41:25.182Z</time>
      </trkpt>
      <trkpt lat="44.20536" lon="0.8788">
        <ele>173</ele>
        <time>2022-07-21T07:41:26.182Z</time>
      </trkpt>
      <trkpt lat="44.20535" lon="0.87881">
        <ele>173</ele>
        <time>2022-07-21T07:41:27.182Z</time>
      </trkpt>
      <trkpt lat="44.20534" lon="0.87882">
        <ele>173</ele>
        <time>2022-07-21T07:41:28.182Z</time>
      </trkpt>
      <trkpt lat="44.20533" lon="0.87883">
        <ele>173</ele>
        <time>2022-07-21T07:41:29.182Z</time>
      </trkpt>
      <trkpt lat="44.20532" lon="0.87884">
        <ele>173</ele>
        <time>2022-07-21T07:41:30.182Z</time>
      </trkpt>
      <trkpt lat="44.20531" lon="0.87885">
        <ele>172</ele>
        <time>2022-07-21T07:41:31.182Z</time>
      </trkpt>
      <trkpt lat="44.2053" lon="0.87886">
        <ele>172</ele>
        <time>2022-07-21T07:41:32.182Z</time>
      </trkpt>
      <trkpt lat="44.20529" lon="0.87887">
        <ele>172</ele>
        <time>2022-07-21T07:41:33.182Z</time>
      </trkpt>
      <trkpt lat="44.20528" lon="0.87888">
        <ele>172</ele>
        <time>2022-07-21T07:41:34.182Z</time>
      </trkpt>
      <trkpt lat="44.20527" lon="0.87889">
        <ele>171</ele>
        <time>2022-07-21T07:41:35.182Z</time>
      </trkpt>
      <trkpt lat="44.20526" lon="0.8789">
        <ele>171</ele>
        <time>2022-07-21T07:41:36.182Z</time>
      </trkpt>
      <trkpt lat="44.20525" lon="0.87891">
        <ele>171</ele>
        <time>2022-07-21T07:41:37.182Z</time>
      </trkpt>
      <trkpt lat="44.20524" lon="0.87892">
        <ele>171</ele>
        <time>2022-07-21T07:41:38.182Z</time>
      </trkpt>
      <trkpt lat="44.20523" lon="0.87893">
        <ele>171</ele>
        <time>2022-07-21T07:41:39.182Z</time>
      </trkpt>
      <trkpt lat="44.20523" lon="0.87894">
        <ele>171</ele>
        <time>2022-07-21T07:41:40.182Z</time>
      </trkpt>
      <trkpt lat="44.20522" lon="0.87895">
        <ele>172</ele>
        <time>2022-07-21T07:41:41.182Z</time>
      </trkpt>
      <trkpt lat="44.20521" lon="0.87896">
        <ele>171</ele>
        <time>2022-07-21T07:41:42.182Z</time>
      </trkpt>
      <trkpt lat="44.2052" lon="0.87897">
        <ele>171</ele>
        <time>2022-07-21T07:41:43.182Z</time>
      </trkpt>
      <trkpt lat="44.2052" lon="0.87898">
        <ele>172</ele>
        <time>2022-07-21T07:41:44.182Z</time>
      </trkpt>
      <trkpt lat="44.20519" lon="0.879">
        <ele>172</ele>
        <time>2022-07-21T07:41:45.182Z</time>
      </trkpt>
      <trkpt lat="44.20518" lon="0.87901">
        <ele>172</ele>
        <time>2022-07-21T07:41:46.182Z</time>
      </trkpt>
      <trkpt lat="44.20517" lon="0.87902">
        <ele>172</ele>
        <time>2022-07-21T07:41:47.182Z</time>
      </trkpt>
      <trkpt lat="44.20516" lon="0.87903">
        <ele>171</ele>
        <time>2022-07-21T07:41:48.182Z</time>
      </trkpt>
      <trkpt lat="44.20515" lon="0.87904">
        <ele>172</ele>
        <time>2022-07-21T07:41:49.182Z</time>
      </trkpt>
      <trkpt lat="44.20514" lon="0.87905">
        <ele>172</ele>
        <time>2022-07-21T07:41:50.182Z</time>
      </trkpt>
      <trkpt lat="44.20513" lon="0.87906">
        <ele>172</ele>
        <time>2022-07-21T07:41:51.182Z</time>
      </trkpt>
      <trkpt lat="44.20512" lon="0.87907">
        <ele>172</ele>
        <time>2022-07-21T07:41:52.182Z</time>
      </trkpt>
      <trkpt lat="44.20511" lon="0.87908">
        <ele>171</ele>
        <time>2022-07-21T07:41:53.182Z</time>
      </trkpt>
      <trkpt lat="44.2051" lon="0.87909">
        <ele>171</ele>
        <time>2022-07-21T07:41:54.182Z</time>
      </trkpt>
      <trkpt lat="44.20509" lon="0.8791">
        <ele>171</ele>
        <time>2022-07-21T07:41:55.182Z</time>
      </trkpt>
      <trkpt lat="44.20508" lon="0.87911">
        <ele>171</ele>
        <time>2022-07-21T07:41:56.182Z</time>
      </trkpt>
      <trkpt lat="44.20507" lon="0.87912">
        <ele>171</ele>
        <time>2022-07-21T07:41:57.182Z</time>
      </trkpt>
      <trkpt lat="44.20506" lon="0.87914">
        <ele>171</ele>
        <time>2022-07-21T07:41:58.182Z</time>
      </trkpt>
      <trkpt lat="44.20505" lon="0.87915">
        <ele>171</ele>
        <time>2022-07-21T07:41:59.182Z</time>
      </trkpt>
      <trkpt lat="44.20504" lon="0.87916">
        <ele>171</ele>
        <time>2022-07-21T07:42:00.182Z</time>
      </trkpt>
      <trkpt lat="44.20504" lon="0.87917">
        <ele>171</ele>
        <time>2022-07-21T07:42:01.182Z</time>
      </trkpt>
      <trkpt lat="44.20503" lon="0.87918">
        <ele>171</ele>
        <time>2022-07-21T07:42:02.182Z</time>
      </trkpt>
      <trkpt lat="44.20502" lon="0.87919">
        <ele>171</ele>
        <time>2022-07-21T07:42:03.182Z</time>
      </trkpt>
      <trkpt lat="44.20501" lon="0.8792">
        <ele>171</ele>
        <time>2022-07-21T07:42:04.182Z</time>
      </trkpt>
      <trkpt lat="44.205" lon="0.87921">
        <ele>171</ele>
        <time>2022-07-21T07:42:05.182Z</time>
      </trkpt>
      <trkpt lat="44.20499" lon="0.87922">
        <ele>171</ele>
        <time>2022-07-21T07:42:06.182Z</time>
      </trkpt>
      <trkpt lat="44.20498" lon="0.87923">
        <ele>171</ele>
        <time>2022-07-21T07:42:07.182Z</time>
      </trkpt>
      <trkpt lat="44.20497" lon="0.87924">
        <ele>171</ele>
        <time>2022-07-21T07:42:08.182Z</time>
      </trkpt>
      <trkpt lat="44.20496" lon="0.87925">
        <ele>171</ele>
        <time>2022-07-21T07:42:09.182Z</time>
      </trkpt>
      <trkpt lat="44.20495" lon="0.87926">
        <ele>171</ele>
        <time>2022-07-21T07:42:10.182Z</time>
      </trkpt>
      <trkpt lat="44.20494" lon="0.87927">
        <ele>171</ele>
        <time>2022-07-21T07:42:11.182Z</time>
      </trkpt>
      <trkpt lat="44.20493" lon="0.87928">
        <ele>171</ele>
        <time>2022-07-21T07:42:12.182Z</time>
      </trkpt>
      <trkpt lat="44.20492" lon="0.87929">
        <ele>171</ele>
        <time>2022-07-21T07:42:13.182Z</time>
      </trkpt>
      <trkpt lat="44.20491" lon="0.87931">
        <ele>171</ele>
        <time>2022-07-21T07:42:14.182Z</time>
      </trkpt>
      <trkpt lat="44.2049" lon="0.87932">
        <ele>171</ele>
        <time>2022-07-21T07:42:15.182Z</time>
      </trkpt>
      <trkpt lat="44.20489" lon="0.87933">
        <ele>171</ele>
        <time>2022-07-21T07:42:16.182Z</time>
      </trkpt>
      <trkpt lat="44.20488" lon="0.87934">
        <ele>171</ele>
        <time>2022-07-21T07:42:17.182Z</time>
      </trkpt>
      <trkpt lat="44.20487" lon="0.87935">
        <ele>171</ele>
        <time>2022-07-21T07:42:18.182Z</time>
      </trkpt>
      <trkpt lat="44.20486" lon="0.87937">
        <ele>172</ele>
        <time>2022-07-21T07:42:19.182Z</time>
      </trkpt>
      <trkpt lat="44.20486" lon="0.87938">
        <ele>172</ele>
        <time>2022-07-21T07:42:20.182Z</time>
      </trkpt>
      <trkpt lat="44.20485" lon="0.87939">
        <ele>172</ele>
        <time>2022-07-21T07:42:21.182Z</time>
      </trkpt>
      <trkpt lat="44.20483" lon="0.8794">
        <ele>172</ele>
        <time>2022-07-21T07:42:22.182Z</time>
      </trkpt>
      <trkpt lat="44.20482" lon="0.87941">
        <ele>172</ele>
        <time>2022-07-21T07:42:23.182Z</time>
      </trkpt>
      <trkpt lat="44.20481" lon="0.87942">
        <ele>172</ele>
        <time>2022-07-21T07:42:24.182Z</time>
      </trkpt>
      <trkpt lat="44.20481" lon="0.87944">
        <ele>172</ele>
        <time>2022-07-21T07:42:25.182Z</time>
      </trkpt>
      <trkpt lat="44.2048" lon="0.87945">
        <ele>172</ele>
        <time>2022-07-21T07:42:26.182Z</time>
      </trkpt>
      <trkpt lat="44.20479" lon="0.87946">
        <ele>172</ele>
        <time>2022-07-21T07:42:27.182Z</time>
      </trkpt>
      <trkpt lat="44.20478" lon="0.87947">
        <ele>172</ele>
        <time>2022-07-21T07:42:28.182Z</time>
      </trkpt>
      <trkpt lat="44.20478" lon="0.87948">
        <ele>172</ele>
        <time>2022-07-21T07:42:29.182Z</time>
      </trkpt>
      <trkpt lat="44.20477" lon="0.87949">
        <ele>172</ele>
        <time>2022-07-21T07:42:30.182Z</time>
      </trkpt>
      <trkpt lat="44.20476" lon="0.8795">
        <ele>172</ele>
        <time>2022-07-21T07:42:31.182Z</time>
      </trkpt>
      <trkpt lat="44.20475" lon="0.87951">
        <ele>171</ele>
        <time>2022-07-21T07:42:32.182Z</time>
      </trkpt>
      <trkpt lat="44.20475" lon="0.87952">
        <ele>171</ele>
        <time>2022-07-21T07:42:33.182Z</time>
      </trkpt>
      <trkpt lat="44.20474" lon="0.87953">
        <ele>171</ele>
        <time>2022-07-21T07:42:34.182Z</time>
      </trkpt>
      <trkpt lat="44.20473" lon="0.87955">
        <ele>171</ele>
        <time>2022-07-21T07:42:35.182Z</time>
      </trkpt>
      <trkpt lat="44.20473" lon="0.87956">
        <ele>171</ele>
        <time>2022-07-21T07:42:36.182Z</time>
      </trkpt>
      <trkpt lat="44.20472" lon="0.87957">
        <ele>171</ele>
        <time>2022-07-21T07:42:37.182Z</time>
      </trkpt>
      <trkpt lat="44.20471" lon="0.87958">
        <ele>171</ele>
        <time>2022-07-21T07:42:38.182Z</time>
      </trkpt>
      <trkpt lat="44.2047" lon="0.87959">
        <ele>171</ele>
        <time>2022-07-21T07:42:39.182Z</time>
      </trkpt>
      <trkpt lat="44.20469" lon="0.8796">
        <ele>171</ele>
        <time>2022-07-21T07:42:40.182Z</time>
      </trkpt>
      <trkpt lat="44.20468" lon="0.87961">
        <ele>171</ele>
        <time>2022-07-21T07:42:41.182Z</time>
      </trkpt>
      <trkpt lat="44.20468" lon="0.87962">
        <ele>171</ele>
        <time>2022-07-21T07:42:42.182Z</time>
      </trkpt>
      <trkpt lat="44.20467" lon="0.87964">
        <ele>171</ele>
        <time>2022-07-21T07:42:43.182Z</time>
      </trkpt>
      <trkpt lat="44.20466" lon="0.87965">
        <ele>171</ele>
        <time>2022-07-21T07:42:44.182Z</time>
      </trkpt>
      <trkpt lat="44.20465" lon="0.87966">
        <ele>170</ele>
        <time>2022-07-21T07:42:45.182Z</time>
      </trkpt>
      <trkpt lat="44.20465" lon="0.87967">
        <ele>171</ele>
        <time>2022-07-21T07:42:46.182Z</time>
      </trkpt>
      <trkpt lat="44.20464" lon="0.87969">
        <ele>171</ele>
        <time>2022-07-21T07:42:47.182Z</time>
      </trkpt>
      <trkpt lat="44.20463" lon="0.8797">
        <ele>171</ele>
        <time>2022-07-21T07:42:48.182Z</time>
      </trkpt>
      <trkpt lat="44.20462" lon="0.87971">
        <ele>171</ele>
        <time>2022-07-21T07:42:49.182Z</time>
      </trkpt>
      <trkpt lat="44.20462" lon="0.87972">
        <ele>170</ele>
        <time>2022-07-21T07:42:50.182Z</time>
      </trkpt>
      <trkpt lat="44.20461" lon="0.87973">
        <ele>170</ele>
        <time>2022-07-21T07:42:51.182Z</time>
      </trkpt>
      <trkpt lat="44.2046" lon="0.87974">
        <ele>171</ele>
        <time>2022-07-21T07:42:52.182Z</time>
      </trkpt>
      <trkpt lat="44.20459" lon="0.87976">
        <ele>171</ele>
        <time>2022-07-21T07:42:53.182Z</time>
      </trkpt>
      <trkpt lat="44.20459" lon="0.87977">
        <ele>170</ele>
        <time>2022-07-21T07:42:54.182Z</time>
      </trkpt>
      <trkpt lat="44.20458" lon="0.87978">
        <ele>171</ele>
        <time>2022-07-21T07:42:55.182Z</time>
      </trkpt>
      <trkpt lat="44.20457" lon="0.87979">
        <ele>171</ele>
        <time>2022-07-21T07:42:56.182Z</time>
      </trkpt>
      <trkpt lat="44.20457" lon="0.87981">
        <ele>171</ele>
        <time>2022-07-21T07:42:57.182Z</time>
      </trkpt>
      <trkpt lat="44.20456" lon="0.87982">
        <ele>171</ele>
        <time>2022-07-21T07:42:58.182Z</time>
      </trkpt>
      <trkpt lat="44.20455" lon="0.87983">
        <ele>171</ele>
        <time>2022-07-21T07:42:59.182Z</time>
      </trkpt>
      <trkpt lat="44.20455" lon="0.87985">
        <ele>171</ele>
        <time>2022-07-21T07:43:00.182Z</time>
      </trkpt>
      <trkpt lat="44.20454" lon="0.87986">
        <ele>170</ele>
        <time>2022-07-21T07:43:01.182Z</time>
      </trkpt>
      <trkpt lat="44.20453" lon="0.87988">
        <ele>170</ele>
        <time>2022-07-21T07:43:02.182Z</time>
      </trkpt>
      <trkpt lat="44.20453" lon="0.87989">
        <ele>170</ele>
        <time>2022-07-21T07:43:03.182Z</time>
      </trkpt>
      <trkpt lat="44.20452" lon="0.87991">
        <ele>170</ele>
        <time>2022-07-21T07:43:04.182Z</time>
      </trkpt>
      <trkpt lat="44.20451" lon="0.87992">
        <ele>170</ele>
        <time>2022-07-21T07:43:05.182Z</time>
      </trkpt>
      <trkpt lat="44.2045" lon="0.87994">
        <ele>170</ele>
        <time>2022-07-21T07:43:06.182Z</time>
      </trkpt>
      <trkpt lat="44.2045" lon="0.87995">
        <ele>170</ele>
        <time>2022-07-21T07:43:07.182Z</time>
      </trkpt>
      <trkpt lat="44.20449" lon="0.87997">
        <ele>170</ele>
        <time>2022-07-21T07:43:08.182Z</time>
      </trkpt>
      <trkpt lat="44.20448" lon="0.87999">
        <ele>170</ele>
        <time>2022-07-21T07:43:09.182Z</time>
      </trkpt>
      <trkpt lat="44.20447" lon="0.88">
        <ele>170</ele>
        <time>2022-07-21T07:43:10.182Z</time>
      </trkpt>
      <trkpt lat="44.20447" lon="0.88002">
        <ele>170</ele>
        <time>2022-07-21T07:43:11.182Z</time>
      </trkpt>
      <trkpt lat="44.20446" lon="0.88003">
        <ele>170</ele>
        <time>2022-07-21T07:43:12.182Z</time>
      </trkpt>
      <trkpt lat="44.20446" lon="0.88004">
        <ele>169</ele>
        <time>2022-07-21T07:43:13.182Z</time>
      </trkpt>
      <trkpt lat="44.20445" lon="0.88006">
        <ele>169</ele>
        <time>2022-07-21T07:43:14.182Z</time>
      </trkpt>
      <trkpt lat="44.20445" lon="0.88007">
        <ele>169</ele>
        <time>2022-07-21T07:43:15.182Z</time>
      </trkpt>
      <trkpt lat="44.20444" lon="0.88008">
        <ele>169</ele>
        <time>2022-07-21T07:43:16.182Z</time>
      </trkpt>
      <trkpt lat="44.20443" lon="0.8801">
        <ele>169</ele>
        <time>2022-07-21T07:43:17.182Z</time>
      </trkpt>
      <trkpt lat="44.20443" lon="0.88011">
        <ele>169</ele>
        <time>2022-07-21T07:43:18.182Z</time>
      </trkpt>
      <trkpt lat="44.20442" lon="0.88013">
        <ele>169</ele>
        <time>2022-07-21T07:43:19.182Z</time>
      </trkpt>
      <trkpt lat="44.20442" lon="0.88014">
        <ele>169</ele>
        <time>2022-07-21T07:43:20.182Z</time>
      </trkpt>
      <trkpt lat="44.20441" lon="0.88016">
        <ele>169</ele>
        <time>2022-07-21T07:43:21.182Z</time>
      </trkpt>
      <trkpt lat="44.2044" lon="0.88017">
        <ele>169</ele>
        <time>2022-07-21T07:43:22.182Z</time>
      </trkpt>
      <trkpt lat="44.2044" lon="0.88018">
        <ele>169</ele>
        <time>2022-07-21T07:43:23.182Z</time>
      </trkpt>
      <trkpt lat="44.20439" lon="0.8802">
        <ele>169</ele>
        <time>2022-07-21T07:43:24.182Z</time>
      </trkpt>
      <trkpt lat="44.20438" lon="0.88021">
        <ele>169</ele>
        <time>2022-07-21T07:43:25.182Z</time>
      </trkpt>
      <trkpt lat="44.20438" lon="0.88022">
        <ele>169</ele>
        <time>2022-07-21T07:43:26.182Z</time>
      </trkpt>
      <trkpt lat="44.20437" lon="0.88024">
        <ele>170</ele>
        <time>2022-07-21T07:43:27.182Z</time>
      </trkpt>
      <trkpt lat="44.20437" lon="0.88025">
        <ele>169</ele>
        <time>2022-07-21T07:43:28.182Z</time>
      </trkpt>
      <trkpt lat="44.20436" lon="0.88026">
        <ele>170</ele>
        <time>2022-07-21T07:43:29.182Z</time>
      </trkpt>
      <trkpt lat="44.20435" lon="0.88027">
        <ele>170</ele>
        <time>2022-07-21T07:43:30.182Z</time>
      </trkpt>
      <trkpt lat="44.20435" lon="0.88029">
        <ele>170</ele>
        <time>2022-07-21T07:43:31.182Z</time>
      </trkpt>
      <trkpt lat="44.20434" lon="0.8803">
        <ele>169</ele>
        <time>2022-07-21T07:43:32.182Z</time>
      </trkpt>
      <trkpt lat="44.20434" lon="0.88031">
        <ele>169</ele>
        <time>2022-07-21T07:43:33.182Z</time>
      </trkpt>
      <trkpt lat="44.20433" lon="0.88033">
        <ele>169</ele>
        <time>2022-07-21T07:43:34.182Z</time>
      </trkpt>
      <trkpt lat="44.20432" lon="0.88034">
        <ele>169</ele>
        <time>2022-07-21T07:43:35.182Z</time>
      </trkpt>
      <trkpt lat="44.20432" lon="0.88035">
        <ele>169</ele>
        <time>2022-07-21T07:43:36.182Z</time>
      </trkpt>
      <trkpt lat="44.20431" lon="0.88037">
        <ele>170</ele>
        <time>2022-07-21T07:43:37.182Z</time>
      </trkpt>
      <trkpt lat="44.20431" lon="0.88038">
        <ele>170</ele>
        <time>2022-07-21T07:43:38.182Z</time>
      </trkpt>
      <trkpt lat="44.2043" lon="0.8804">
        <ele>171</ele>
        <time>2022-07-21T07:43:39.182Z</time>
      </trkpt>
      <trkpt lat="44.20429" lon="0.88041">
        <ele>171</ele>
        <time>2022-07-21T07:43:40.182Z</time>
      </trkpt>
      <trkpt lat="44.20428" lon="0.88043">
        <ele>170</ele>
        <time>2022-07-21T07:43:41.182Z</time>
      </trkpt>
      <trkpt lat="44.20428" lon="0.88044">
        <ele>170</ele>
        <time>2022-07-21T07:43:42.182Z</time>
      </trkpt>
      <trkpt lat="44.20427" lon="0.88046">
        <ele>170</ele>
        <time>2022-07-21T07:43:43.182Z</time>
      </trkpt>
      <trkpt lat="44.20427" lon="0.88047">
        <ele>170</ele>
        <time>2022-07-21T07:43:44.182Z</time>
      </trkpt>
      <trkpt lat="44.20426" lon="0.88048">
        <ele>170</ele>
        <time>2022-07-21T07:43:45.182Z</time>
      </trkpt>
      <trkpt lat="44.20426" lon="0.8805">
        <ele>170</ele>
        <time>2022-07-21T07:43:46.182Z</time>
      </trkpt>
      <trkpt lat="44.20425" lon="0.88051">
        <ele>170</ele>
        <time>2022-07-21T07:43:47.182Z</time>
      </trkpt>
      <trkpt lat="44.20425" lon="0.88052">
        <ele>169</ele>
        <time>2022-07-21T07:43:48.182Z</time>
      </trkpt>
      <trkpt lat="44.20424" lon="0.88054">
        <ele>169</ele>
        <time>2022-07-21T07:43:49.182Z</time>
      </trkpt>
      <trkpt lat="44.20424" lon="0.88055">
        <ele>170</ele>
        <time>2022-07-21T07:43:50.182Z</time>
      </trkpt>
      <trkpt lat="44.20423" lon="0.88056">
        <ele>170</ele>
        <time>2022-07-21T07:43:51.182Z</time>
      </trkpt>
      <trkpt lat="44.20422" lon="0.88058">
        <ele>170</ele>
        <time>2022-07-21T07:43:52.182Z</time>
      </trkpt>
      <trkpt lat="44.20421" lon="0.8806">
        <ele>171</ele>
        <time>2022-07-21T07:43:53.182Z</time>
      </trkpt>
      <trkpt lat="44.20421" lon="0.88061">
        <ele>171</ele>
        <time>2022-07-21T07:43:54.182Z</time>
      </trkpt>
      <trkpt lat="44.2042" lon="0.88062">
        <ele>172</ele>
        <time>2022-07-21T07:43:55.182Z</time>
      </trkpt>
      <trkpt lat="44.20419" lon="0.88064">
        <ele>172</ele>
        <time>2022-07-21T07:43:56.182Z</time>
      </trkpt>
      <trkpt lat="44.20418" lon="0.88065">
        <ele>172</ele>
        <time>2022-07-21T07:43:57.182Z</time>
      </trkpt>
      <trkpt lat="44.20418" lon="0.88067">
        <ele>172</ele>
        <time>2022-07-21T07:43:58.182Z</time>
      </trkpt>
      <trkpt lat="44.20417" lon="0.88069">
        <ele>173</ele>
        <time>2022-07-21T07:43:59.182Z</time>
      </trkpt>
      <trkpt lat="44.20416" lon="0.8807">
        <ele>173</ele>
        <time>2022-07-21T07:44:00.182Z</time>
      </trkpt>
      <trkpt lat="44.20416" lon="0.88072">
        <ele>174</ele>
        <time>2022-07-21T07:44:01.182Z</time>
      </trkpt>
      <trkpt lat="44.20415" lon="0.88073">
        <ele>173</ele>
        <time>2022-07-21T07:44:02.182Z</time>
      </trkpt>
      <trkpt lat="44.20415" lon="0.88074">
        <ele>173</ele>
        <time>2022-07-21T07:44:03.182Z</time>
      </trkpt>
      <trkpt lat="44.20414" lon="0.88076">
        <ele>173</ele>
        <time>2022-07-21T07:44:04.182Z</time>
      </trkpt>
      <trkpt lat="44.20413" lon="0.88077">
        <ele>173</ele>
        <time>2022-07-21T07:44:05.182Z</time>
      </trkpt>
      <trkpt lat="44.20412" lon="0.88079">
        <ele>173</ele>
        <time>2022-07-21T07:44:06.182Z</time>
      </trkpt>
      <trkpt lat="44.20411" lon="0.8808">
        <ele>173</ele>
        <time>2022-07-21T07:44:07.182Z</time>
      </trkpt>
      <trkpt lat="44.2041" lon="0.88082">
        <ele>173</ele>
        <time>2022-07-21T07:44:08.182Z</time>
      </trkpt>
      <trkpt lat="44.2041" lon="0.88084">
        <ele>173</ele>
        <time>2022-07-21T07:44:09.182Z</time>
      </trkpt>
      <trkpt lat="44.20409" lon="0.88085">
        <ele>173</ele>
        <time>2022-07-21T07:44:10.182Z</time>
      </trkpt>
      <trkpt lat="44.20409" lon="0.88087">
        <ele>174</ele>
        <time>2022-07-21T07:44:11.182Z</time>
      </trkpt>
      <trkpt lat="44.20408" lon="0.88088">
        <ele>173</ele>
        <time>2022-07-21T07:44:12.182Z</time>
      </trkpt>
      <trkpt lat="44.20407" lon="0.8809">
        <ele>172</ele>
        <time>2022-07-21T07:44:13.182Z</time>
      </trkpt>
      <trkpt lat="44.20407" lon="0.88091">
        <ele>173</ele>
        <time>2022-07-21T07:44:14.182Z</time>
      </trkpt>
      <trkpt lat="44.20406" lon="0.88092">
        <ele>173</ele>
        <time>2022-07-21T07:44:15.182Z</time>
      </trkpt>
      <trkpt lat="44.20405" lon="0.88094">
        <ele>173</ele>
        <time>2022-07-21T07:44:16.182Z</time>
      </trkpt>
      <trkpt lat="44.20404" lon="0.88095">
        <ele>173</ele>
        <time>2022-07-21T07:44:17.182Z</time>
      </trkpt>
      <trkpt lat="44.20404" lon="0.88097">
        <ele>173</ele>
        <time>2022-07-21T07:44:18.182Z</time>
      </trkpt>
      <trkpt lat="44.20403" lon="0.88098">
        <ele>173</ele>
        <time>2022-07-21T07:44:19.182Z</time>
      </trkpt>
      <trkpt lat="44.20402" lon="0.88099">
        <ele>172</ele>
        <time>2022-07-21T07:44:20.182Z</time>
      </trkpt>
      <trkpt lat="44.20402" lon="0.88101">
        <ele>173</ele>
        <time>2022-07-21T07:44:21.182Z</time>
      </trkpt>
      <trkpt lat="44.20401" lon="0.88103">
        <ele>173</ele>
        <time>2022-07-21T07:44:22.182Z</time>
      </trkpt>
      <trkpt lat="44.204" lon="0.88104">
        <ele>172</ele>
        <time>2022-07-21T07:44:23.182Z</time>
      </trkpt>
      <trkpt lat="44.204" lon="0.88106">
        <ele>172</ele>
        <time>2022-07-21T07:44:24.182Z</time>
      </trkpt>
      <trkpt lat="44.20399" lon="0.88107">
        <ele>173</ele>
        <time>2022-07-21T07:44:25.182Z</time>
      </trkpt>
      <trkpt lat="44.20398" lon="0.88109">
        <ele>173</ele>
        <time>2022-07-21T07:44:26.182Z</time>
      </trkpt>
      <trkpt lat="44.20397" lon="0.8811">
        <ele>173</ele>
        <time>2022-07-21T07:44:27.182Z</time>
      </trkpt>
      <trkpt lat="44.20396" lon="0.88111">
        <ele>173</ele>
        <time>2022-07-21T07:44:28.182Z</time>
      </trkpt>
      <trkpt lat="44.20395" lon="0.88112">
        <ele>173</ele>
        <time>2022-07-21T07:44:29.182Z</time>
      </trkpt>
      <trkpt lat="44.20394" lon="0.88114">
        <ele>173</ele>
        <time>2022-07-21T07:44:30.182Z</time>
      </trkpt>
      <trkpt lat="44.20394" lon="0.88115">
        <ele>172</ele>
        <time>2022-07-21T07:44:31.182Z</time>
      </trkpt>
      <trkpt lat="44.20393" lon="0.88116">
        <ele>172</ele>
        <time>2022-07-21T07:44:32.182Z</time>
      </trkpt>
      <trkpt lat="44.20393" lon="0.88118">
        <ele>171</ele>
        <time>2022-07-21T07:44:33.182Z</time>
      </trkpt>
      <trkpt lat="44.20392" lon="0.88119">
        <ele>170</ele>
        <time>2022-07-21T07:44:34.182Z</time>
      </trkpt>
      <trkpt lat="44.20392" lon="0.8812">
        <ele>170</ele>
        <time>2022-07-21T07:44:35.182Z</time>
      </trkpt>
      <trkpt lat="44.20391" lon="0.88121">
        <ele>170</ele>
        <time>2022-07-21T07:44:36.182Z</time>
      </trkpt>
      <trkpt lat="44.2039" lon="0.88123">
        <ele>170</ele>
        <time>2022-07-21T07:44:37.182Z</time>
      </trkpt>
      <trkpt lat="44.2039" lon="0.88124">
        <ele>170</ele>
        <time>2022-07-21T07:44:38.182Z</time>
      </trkpt>
      <trkpt lat="44.20389" lon="0.88125">
        <ele>170</ele>
        <time>2022-07-21T07:44:39.182Z</time>
      </trkpt>
      <trkpt lat="44.20388" lon="0.88126">
        <ele>170</ele>
        <time>2022-07-21T07:44:40.182Z</time>
      </trkpt>
      <trkpt lat="44.20387" lon="0.88128">
        <ele>170</ele>
        <time>2022-07-21T07:44:41.182Z</time>
      </trkpt>
      <trkpt lat="44.20387" lon="0.88129">
        <ele>169</ele>
        <time>2022-07-21T07:44:42.182Z</time>
      </trkpt>
      <trkpt lat="44.20386" lon="0.88131">
        <ele>169</ele>
        <time>2022-07-21T07:44:43.182Z</time>
      </trkpt>
      <trkpt lat="44.20386" lon="0.88132">
        <ele>170</ele>
        <time>2022-07-21T07:44:44.182Z</time>
      </trkpt>
      <trkpt lat="44.20385" lon="0.88134">
        <ele>169</ele>
        <time>2022-07-21T07:44:45.182Z</time>
      </trkpt>
      <trkpt lat="44.20385" lon="0.88135">
        <ele>170</ele>
        <time>2022-07-21T07:44:46.182Z</time>
      </trkpt>
      <trkpt lat="44.20384" lon="0.88137">
        <ele>170</ele>
        <time>2022-07-21T07:44:47.182Z</time>
      </trkpt>
      <trkpt lat="44.20383" lon="0.88138">
        <ele>170</ele>
        <time>2022-07-21T07:44:48.182Z</time>
      </trkpt>
      <trkpt lat="44.20382" lon="0.8814">
        <ele>170</ele>
        <time>2022-07-21T07:44:49.182Z</time>
      </trkpt>
      <trkpt lat="44.20382" lon="0.88142">
        <ele>170</ele>
        <time>2022-07-21T07:44:50.182Z</time>
      </trkpt>
      <trkpt lat="44.20381" lon="0.88143">
        <ele>170</ele>
        <time>2022-07-21T07:44:51.182Z</time>
      </trkpt>
      <trkpt lat="44.20381" lon="0.88144">
        <ele>169</ele>
        <time>2022-07-21T07:44:52.182Z</time>
      </trkpt>
      <trkpt lat="44.2038" lon="0.88146">
        <ele>169</ele>
        <time>2022-07-21T07:44:53.182Z</time>
      </trkpt>
      <trkpt lat="44.20379" lon="0.88147">
        <ele>169</ele>
        <time>2022-07-21T07:44:54.182Z</time>
      </trkpt>
      <trkpt lat="44.20379" lon="0.88149">
        <ele>170</ele>
        <time>2022-07-21T07:44:55.182Z</time>
      </trkpt>
      <trkpt lat="44.20378" lon="0.8815">
        <ele>170</ele>
        <time>2022-07-21T07:44:56.182Z</time>
      </trkpt>
      <trkpt lat="44.20377" lon="0.88152">
        <ele>169</ele>
        <time>2022-07-21T07:44:57.182Z</time>
      </trkpt>
      <trkpt lat="44.20377" lon="0.88153">
        <ele>169</ele>
        <time>2022-07-21T07:44:58.182Z</time>
      </trkpt>
      <trkpt lat="44.20376" lon="0.88155">
        <ele>169</ele>
        <time>2022-07-21T07:44:59.182Z</time>
      </trkpt>
      <trkpt lat="44.20376" lon="0.88156">
        <ele>168</ele>
        <time>2022-07-21T07:45:00.182Z</time>
      </trkpt>
      <trkpt lat="44.20375" lon="0.88157">
        <ele>168</ele>
        <time>2022-07-21T07:45:01.182Z</time>
      </trkpt>
      <trkpt lat="44.20375" lon="0.88159">
        <ele>167</ele>
        <time>2022-07-21T07:45:02.182Z</time>
      </trkpt>
      <trkpt lat="44.20374" lon="0.8816">
        <ele>167</ele>
        <time>2022-07-21T07:45:03.182Z</time>
      </trkpt>
      <trkpt lat="44.20374" lon="0.88161">
        <ele>167</ele>
        <time>2022-07-21T07:45:04.182Z</time>
      </trkpt>
      <trkpt lat="44.20373" lon="0.88163">
        <ele>166</ele>
        <time>2022-07-21T07:45:05.182Z</time>
      </trkpt>
      <trkpt lat="44.20372" lon="0.88165">
        <ele>166</ele>
        <time>2022-07-21T07:45:06.182Z</time>
      </trkpt>
      <trkpt lat="44.20372" lon="0.88166">
        <ele>165</ele>
        <time>2022-07-21T07:45:07.182Z</time>
      </trkpt>
      <trkpt lat="44.20371" lon="0.88168">
        <ele>165</ele>
        <time>2022-07-21T07:45:08.182Z</time>
      </trkpt>
      <trkpt lat="44.20371" lon="0.88169">
        <ele>165</ele>
        <time>2022-07-21T07:45:09.182Z</time>
      </trkpt>
      <trkpt lat="44.2037" lon="0.8817">
        <ele>166</ele>
        <time>2022-07-21T07:45:10.182Z</time>
      </trkpt>
      <trkpt lat="44.2037" lon="0.88172">
        <ele>165</ele>
        <time>2022-07-21T07:45:11.182Z</time>
      </trkpt>
      <trkpt lat="44.20369" lon="0.88173">
        <ele>165</ele>
        <time>2022-07-21T07:45:12.182Z</time>
      </trkpt>
      <trkpt lat="44.20369" lon="0.88174">
        <ele>165</ele>
        <time>2022-07-21T07:45:13.182Z</time>
      </trkpt>
      <trkpt lat="44.20368" lon="0.88176">
        <ele>164</ele>
        <time>2022-07-21T07:45:14.182Z</time>
      </trkpt>
      <trkpt lat="44.20367" lon="0.88177">
        <ele>165</ele>
        <time>2022-07-21T07:45:15.182Z</time>
      </trkpt>
      <trkpt lat="44.20366" lon="0.88178">
        <ele>165</ele>
        <time>2022-07-21T07:45:16.182Z</time>
      </trkpt>
      <trkpt lat="44.20366" lon="0.8818">
        <ele>165</ele>
        <time>2022-07-21T07:45:17.182Z</time>
      </trkpt>
      <trkpt lat="44.20365" lon="0.88181">
        <ele>165</ele>
        <time>2022-07-21T07:45:18.182Z</time>
      </trkpt>
      <trkpt lat="44.20365" lon="0.88182">
        <ele>165</ele>
        <time>2022-07-21T07:45:19.182Z</time>
      </trkpt>
      <trkpt lat="44.20364" lon="0.88184">
        <ele>165</ele>
        <time>2022-07-21T07:45:20.182Z</time>
      </trkpt>
      <trkpt lat="44.20363" lon="0.88185">
        <ele>165</ele>
        <time>2022-07-21T07:45:21.182Z</time>
      </trkpt>
      <trkpt lat="44.20363" lon="0.88186">
        <ele>165</ele>
        <time>2022-07-21T07:45:22.182Z</time>
      </trkpt>
      <trkpt lat="44.20362" lon="0.88188">
        <ele>165</ele>
        <time>2022-07-21T07:45:23.182Z</time>
      </trkpt>
      <trkpt lat="44.20361" lon="0.8819">
        <ele>165</ele>
        <time>2022-07-21T07:45:24.182Z</time>
      </trkpt>
      <trkpt lat="44.2036" lon="0.88191">
        <ele>164</ele>
        <time>2022-07-21T07:45:25.182Z</time>
      </trkpt>
      <trkpt lat="44.2036" lon="0.88192">
        <ele>164</ele>
        <time>2022-07-21T07:45:26.182Z</time>
      </trkpt>
      <trkpt lat="44.20359" lon="0.88193">
        <ele>164</ele>
        <time>2022-07-21T07:45:27.182Z</time>
      </trkpt>
      <trkpt lat="44.20358" lon="0.88195">
        <ele>164</ele>
        <time>2022-07-21T07:45:28.182Z</time>
      </trkpt>
      <trkpt lat="44.20358" lon="0.88196">
        <ele>164</ele>
        <time>2022-07-21T07:45:29.182Z</time>
      </trkpt>
      <trkpt lat="44.20357" lon="0.88197">
        <ele>164</ele>
        <time>2022-07-21T07:45:30.182Z</time>
      </trkpt>
      <trkpt lat="44.20356" lon="0.88198">
        <ele>163</ele>
        <time>2022-07-21T07:45:31.182Z</time>
      </trkpt>
      <trkpt lat="44.20356" lon="0.88199">
        <ele>163</ele>
        <time>2022-07-21T07:45:32.182Z</time>
      </trkpt>
      <trkpt lat="44.20355" lon="0.882">
        <ele>163</ele>
        <time>2022-07-21T07:45:33.182Z</time>
      </trkpt>
      <trkpt lat="44.20355" lon="0.882">
        <ele>163</ele>
        <time>2022-07-21T07:45:34.182Z</time>
      </trkpt>
      <trkpt lat="44.20355" lon="0.88201">
        <ele>162</ele>
        <time>2022-07-21T07:45:35.182Z</time>
      </trkpt>
      <trkpt lat="44.20355" lon="0.882">
        <ele>162</ele>
        <time>2022-07-21T07:45:36.182Z</time>
      </trkpt>
      <trkpt lat="44.20355" lon="0.882">
        <ele>162</ele>
        <time>2022-07-21T07:45:37.182Z</time>
      </trkpt>
      <trkpt lat="44.20355" lon="0.882">
        <ele>162</ele>
        <time>2022-07-21T07:45:38.182Z</time>
      </trkpt>
      <trkpt lat="44.20355" lon="0.882">
        <ele>162</ele>
        <time>2022-07-21T07:45:39.182Z</time>
      </trkpt>
      <trkpt lat="44.20355" lon="0.88201">
        <ele>162</ele>
        <time>2022-07-21T07:45:40.182Z</time>
      </trkpt>
      <trkpt lat="44.20355" lon="0.88201">
        <ele>162</ele>
        <time>2022-07-21T07:45:41.182Z</time>
      </trkpt>
      <trkpt lat="44.20354" lon="0.88202">
        <ele>162</ele>
        <time>2022-07-21T07:45:42.182Z</time>
      </trkpt>
      <trkpt lat="44.20354" lon="0.88202">
        <ele>162</ele>
        <time>2022-07-21T07:45:43.182Z</time>
      </trkpt>
      <trkpt lat="44.20353" lon="0.88203">
        <ele>161</ele>
        <time>2022-07-21T07:45:44.182Z</time>
      </trkpt>
      <trkpt lat="44.20353" lon="0.88204">
        <ele>161</ele>
        <time>2022-07-21T07:45:45.182Z</time>
      </trkpt>
      <trkpt lat="44.20352" lon="0.88205">
        <ele>161</ele>
        <time>2022-07-21T07:45:46.182Z</time>
      </trkpt>
      <trkpt lat="44.20352" lon="0.88206">
        <ele>161</ele>
        <time>2022-07-21T07:45:47.182Z</time>
      </trkpt>
      <trkpt lat="44.20351" lon="0.88207">
        <ele>160</ele>
        <time>2022-07-21T07:45:48.182Z</time>
      </trkpt>
      <trkpt lat="44.20351" lon="0.88208">
        <ele>160</ele>
        <time>2022-07-21T07:45:49.182Z</time>
      </trkpt>
      <trkpt lat="44.2035" lon="0.88208">
        <ele>160</ele>
        <time>2022-07-21T07:45:50.182Z</time>
      </trkpt>
      <trkpt lat="44.2035" lon="0.88209">
        <ele>160</ele>
        <time>2022-07-21T07:45:51.182Z</time>
      </trkpt>
      <trkpt lat="44.20349" lon="0.8821">
        <ele>160</ele>
        <time>2022-07-21T07:45:52.182Z</time>
      </trkpt>
      <trkpt lat="44.20349" lon="0.88211">
        <ele>159</ele>
        <time>2022-07-21T07:45:53.182Z</time>
      </trkpt>
      <trkpt lat="44.20348" lon="0.88211">
        <ele>159</ele>
        <time>2022-07-21T07:45:54.182Z</time>
      </trkpt>
      <trkpt lat="44.20348" lon="0.88212">
        <ele>159</ele>
        <time>2022-07-21T07:45:55.182Z</time>
      </trkpt>
      <trkpt lat="44.20348" lon="0.88213">
        <ele>159</ele>
        <time>2022-07-21T07:45:56.182Z</time>
      </trkpt>
      <trkpt lat="44.20347" lon="0.88214">
        <ele>159</ele>
        <time>2022-07-21T07:45:57.182Z</time>
      </trkpt>
      <trkpt lat="44.20347" lon="0.88215">
        <ele>159</ele>
        <time>2022-07-21T07:45:58.182Z</time>
      </trkpt>
      <trkpt lat="44.20346" lon="0.88216">
        <ele>159</ele>
        <time>2022-07-21T07:45:59.182Z</time>
      </trkpt>
      <trkpt lat="44.20346" lon="0.88217">
        <ele>159</ele>
        <time>2022-07-21T07:46:00.182Z</time>
      </trkpt>
      <trkpt lat="44.20345" lon="0.88218">
        <ele>159</ele>
        <time>2022-07-21T07:46:01.182Z</time>
      </trkpt>
      <trkpt lat="44.20345" lon="0.88218">
        <ele>159</ele>
        <time>2022-07-21T07:46:02.182Z</time>
      </trkpt>
      <trkpt lat="44.20344" lon="0.88219">
        <ele>159</ele>
        <time>2022-07-21T07:46:03.182Z</time>
      </trkpt>
      <trkpt lat="44.20344" lon="0.88219">
        <ele>159</ele>
        <time>2022-07-21T07:46:04.182Z</time>
      </trkpt>
      <trkpt lat="44.20344" lon="0.8822">
        <ele>159</ele>
        <time>2022-07-21T07:46:05.182Z</time>
      </trkpt>
      <trkpt lat="44.20344" lon="0.8822">
        <ele>159</ele>
        <time>2022-07-21T07:46:06.182Z</time>
      </trkpt>
      <trkpt lat="44.20344" lon="0.88221">
        <ele>160</ele>
        <time>2022-07-21T07:46:07.182Z</time>
      </trkpt>
      <trkpt lat="44.20343" lon="0.88221">
        <ele>159</ele>
        <time>2022-07-21T07:46:08.182Z</time>
      </trkpt>
      <trkpt lat="44.20343" lon="0.88222">
        <ele>160</ele>
        <time>2022-07-21T07:46:09.182Z</time>
      </trkpt>
      <trkpt lat="44.20342" lon="0.88223">
        <ele>159</ele>
        <time>2022-07-21T07:46:10.182Z</time>
      </trkpt>
      <trkpt lat="44.20342" lon="0.88224">
        <ele>159</ele>
        <time>2022-07-21T07:46:11.182Z</time>
      </trkpt>
      <trkpt lat="44.20342" lon="0.88224">
        <ele>159</ele>
        <time>2022-07-21T07:46:12.182Z</time>
      </trkpt>
      <trkpt lat="44.20342" lon="0.88224">
        <ele>159</ele>
        <time>2022-07-21T07:46:13.182Z</time>
      </trkpt>
      <trkpt lat="44.20342" lon="0.88224">
        <ele>158</ele>
        <time>2022-07-21T07:46:14.182Z</time>
      </trkpt>
      <trkpt lat="44.20342" lon="0.88224">
        <ele>161</ele>
        <time>2022-07-21T07:48:05.198Z</time>
      </trkpt>
      <trkpt lat="44.20342" lon="0.88224">
        <ele>161</ele>
        <time>2022-07-21T07:48:06.198Z</time>
      </trkpt>
      <trkpt lat="44.20342" lon="0.88224">
        <ele>161</ele>
        <time>2022-07-21T07:48:07.198Z</time>
      </trkpt>
      <trkpt lat="44.20342" lon="0.88224">
        <ele>161</ele>
        <time>2022-07-21T07:48:08.198Z</time>
      </trkpt>
      <trkpt lat="44.20342" lon="0.88224">
        <ele>162</ele>
        <time>2022-07-21T07:48:09.198Z</time>
      </trkpt>
      <trkpt lat="44.20342" lon="0.88224">
        <ele>162</ele>
        <time>2022-07-21T07:48:10.198Z</time>
      </trkpt>
      <trkpt lat="44.20343" lon="0.88221">
        <ele>161</ele>
        <time>2022-07-21T07:50:09.226Z</time>
      </trkpt>
      <trkpt lat="44.20343" lon="0.88221">
        <ele>161</ele>
        <time>2022-07-21T07:50:10.226Z</time>
      </trkpt>
      <trkpt lat="44.20343" lon="0.88221">
        <ele>161</ele>
        <time>2022-07-21T07:50:11.226Z</time>
      </trkpt>
      <trkpt lat="44.20343" lon="0.88221">
        <ele>161</ele>
        <time>2022-07-21T07:50:12.226Z</time>
      </trkpt>
      <trkpt lat="44.20343" lon="0.88221">
        <ele>161</ele>
        <time>2022-07-21T07:50:13.226Z</time>
      </trkpt>
      <trkpt lat="44.20343" lon="0.88221">
        <ele>161</ele>
        <time>2022-07-21T07:50:14.226Z</time>
      </trkpt>
      <trkpt lat="44.20341" lon="0.88227">
        <ele>161</ele>
        <time>2022-07-21T07:53:12.242Z</time>
      </trkpt>
      <trkpt lat="44.2034" lon="0.88227">
        <ele>161</ele>
        <time>2022-07-21T07:53:13.242Z</time>
      </trkpt>
      <trkpt lat="44.2034" lon="0.88228">
        <ele>161</ele>
        <time>2022-07-21T07:53:14.242Z</time>
      </trkpt>
      <trkpt lat="44.20339" lon="0.88229">
        <ele>161</ele>
        <time>2022-07-21T07:53:15.242Z</time>
      </trkpt>
      <trkpt lat="44.20338" lon="0.8823">
        <ele>161</ele>
        <time>2022-07-21T07:53:16.242Z</time>
      </trkpt>
      <trkpt lat="44.20337" lon="0.88231">
        <ele>161</ele>
        <time>2022-07-21T07:53:17.242Z</time>
      </trkpt>
      <trkpt lat="44.20337" lon="0.88232">
        <ele>161</ele>
        <time>2022-07-21T07:53:18.242Z</time>
      </trkpt>
      <trkpt lat="44.20336" lon="0.88233">
        <ele>161</ele>
        <time>2022-07-21T07:53:19.242Z</time>
      </trkpt>
      <trkpt lat="44.20335" lon="0.88234">
        <ele>161</ele>
        <time>2022-07-21T07:53:20.242Z</time>
      </trkpt>
      <trkpt lat="44.20335" lon="0.88235">
        <ele>161</ele>
        <time>2022-07-21T07:53:21.242Z</time>
      </trkpt>
      <trkpt lat="44.20334" lon="0.88236">
        <ele>161</ele>
        <time>2022-07-21T07:53:22.242Z</time>
      </trkpt>
      <trkpt lat="44.20333" lon="0.88237">
        <ele>160</ele>
        <time>2022-07-21T07:53:23.242Z</time>
      </trkpt>
      <trkpt lat="44.20332" lon="0.88238">
        <ele>160</ele>
        <time>2022-07-21T07:53:24.242Z</time>
      </trkpt>
      <trkpt lat="44.20332" lon="0.88239">
        <ele>160</ele>
        <time>2022-07-21T07:53:25.242Z</time>
      </trkpt>
      <trkpt lat="44.20331" lon="0.88241">
        <ele>160</ele>
        <time>2022-07-21T07:53:26.242Z</time>
      </trkpt>
      <trkpt lat="44.2033" lon="0.88242">
        <ele>159</ele>
        <time>2022-07-21T07:53:27.242Z</time>
      </trkpt>
      <trkpt lat="44.20329" lon="0.88243">
        <ele>159</ele>
        <time>2022-07-21T07:53:28.242Z</time>
      </trkpt>
      <trkpt lat="44.20328" lon="0.88244">
        <ele>158</ele>
        <time>2022-07-21T07:53:29.242Z</time>
      </trkpt>
      <trkpt lat="44.20328" lon="0.88245">
        <ele>159</ele>
        <time>2022-07-21T07:53:30.242Z</time>
      </trkpt>
      <trkpt lat="44.20327" lon="0.88246">
        <ele>158</ele>
        <time>2022-07-21T07:53:31.242Z</time>
      </trkpt>
      <trkpt lat="44.20326" lon="0.88248">
        <ele>158</ele>
        <time>2022-07-21T07:53:32.242Z</time>
      </trkpt>
      <trkpt lat="44.20325" lon="0.88249">
        <ele>158</ele>
        <time>2022-07-21T07:53:33.242Z</time>
      </trkpt>
      <trkpt lat="44.20324" lon="0.8825">
        <ele>158</ele>
        <time>2022-07-21T07:53:34.242Z</time>
      </trkpt>
      <trkpt lat="44.20323" lon="0.88251">
        <ele>158</ele>
        <time>2022-07-21T07:53:35.242Z</time>
      </trkpt>
      <trkpt lat="44.20322" lon="0.88253">
        <ele>158</ele>
        <time>2022-07-21T07:53:36.242Z</time>
      </trkpt>
      <trkpt lat="44.20321" lon="0.88254">
        <ele>158</ele>
        <time>2022-07-21T07:53:37.242Z</time>
      </trkpt>
      <trkpt lat="44.2032" lon="0.88255">
        <ele>157</ele>
        <time>2022-07-21T07:53:38.242Z</time>
      </trkpt>
      <trkpt lat="44.2032" lon="0.88256">
        <ele>157</ele>
        <time>2022-07-21T07:53:39.242Z</time>
      </trkpt>
      <trkpt lat="44.20319" lon="0.88257">
        <ele>157</ele>
        <time>2022-07-21T07:53:40.242Z</time>
      </trkpt>
      <trkpt lat="44.20318" lon="0.88258">
        <ele>157</ele>
        <time>2022-07-21T07:53:41.242Z</time>
      </trkpt>
      <trkpt lat="44.20317" lon="0.88259">
        <ele>157</ele>
        <time>2022-07-21T07:53:42.242Z</time>
      </trkpt>
      <trkpt lat="44.20316" lon="0.8826">
        <ele>157</ele>
        <time>2022-07-21T07:53:43.242Z</time>
      </trkpt>
      <trkpt lat="44.20315" lon="0.88261">
        <ele>157</ele>
        <time>2022-07-21T07:53:44.242Z</time>
      </trkpt>
      <trkpt lat="44.20314" lon="0.88262">
        <ele>158</ele>
        <time>2022-07-21T07:53:45.242Z</time>
      </trkpt>
      <trkpt lat="44.20314" lon="0.88263">
        <ele>158</ele>
        <time>2022-07-21T07:53:46.242Z</time>
      </trkpt>
      <trkpt lat="44.20313" lon="0.88264">
        <ele>158</ele>
        <time>2022-07-21T07:53:47.242Z</time>
      </trkpt>
      <trkpt lat="44.20312" lon="0.88265">
        <ele>158</ele>
        <time>2022-07-21T07:53:48.242Z</time>
      </trkpt>
      <trkpt lat="44.20311" lon="0.88266">
        <ele>158</ele>
        <time>2022-07-21T07:53:49.242Z</time>
      </trkpt>
      <trkpt lat="44.2031" lon="0.88266">
        <ele>158</ele>
        <time>2022-07-21T07:53:50.242Z</time>
      </trkpt>
      <trkpt lat="44.2031" lon="0.88267">
        <ele>157</ele>
        <time>2022-07-21T07:53:51.242Z</time>
      </trkpt>
      <trkpt lat="44.20309" lon="0.88268">
        <ele>157</ele>
        <time>2022-07-21T07:53:52.242Z</time>
      </trkpt>
      <trkpt lat="44.20309" lon="0.88269">
        <ele>157</ele>
        <time>2022-07-21T07:53:53.242Z</time>
      </trkpt>
      <trkpt lat="44.20308" lon="0.8827">
        <ele>156</ele>
        <time>2022-07-21T07:53:54.242Z</time>
      </trkpt>
      <trkpt lat="44.20308" lon="0.88271">
        <ele>156</ele>
        <time>2022-07-21T07:53:55.242Z</time>
      </trkpt>
      <trkpt lat="44.20307" lon="0.88272">
        <ele>156</ele>
        <time>2022-07-21T07:53:56.242Z</time>
      </trkpt>
      <trkpt lat="44.20306" lon="0.88273">
        <ele>157</ele>
        <time>2022-07-21T07:53:57.242Z</time>
      </trkpt>
      <trkpt lat="44.20305" lon="0.88275">
        <ele>157</ele>
        <time>2022-07-21T07:53:58.242Z</time>
      </trkpt>
      <trkpt lat="44.20305" lon="0.88276">
        <ele>157</ele>
        <time>2022-07-21T07:53:59.242Z</time>
      </trkpt>
      <trkpt lat="44.20304" lon="0.88277">
        <ele>158</ele>
        <time>2022-07-21T07:54:00.242Z</time>
      </trkpt>
      <trkpt lat="44.20303" lon="0.88279">
        <ele>157</ele>
        <time>2022-07-21T07:54:01.242Z</time>
      </trkpt>
      <trkpt lat="44.20303" lon="0.8828">
        <ele>157</ele>
        <time>2022-07-21T07:54:02.242Z</time>
      </trkpt>
      <trkpt lat="44.20302" lon="0.88281">
        <ele>158</ele>
        <time>2022-07-21T07:54:03.242Z</time>
      </trkpt>
      <trkpt lat="44.20301" lon="0.88282">
        <ele>157</ele>
        <time>2022-07-21T07:54:04.242Z</time>
      </trkpt>
      <trkpt lat="44.203" lon="0.88283">
        <ele>157</ele>
        <time>2022-07-21T07:54:05.242Z</time>
      </trkpt>
      <trkpt lat="44.203" lon="0.88285">
        <ele>156</ele>
        <time>2022-07-21T07:54:06.242Z</time>
      </trkpt>
      <trkpt lat="44.20299" lon="0.88286">
        <ele>156</ele>
        <time>2022-07-21T07:54:07.242Z</time>
      </trkpt>
      <trkpt lat="44.20298" lon="0.88287">
        <ele>157</ele>
        <time>2022-07-21T07:54:08.242Z</time>
      </trkpt>
      <trkpt lat="44.20298" lon="0.88289">
        <ele>157</ele>
        <time>2022-07-21T07:54:09.242Z</time>
      </trkpt>
      <trkpt lat="44.20297" lon="0.8829">
        <ele>157</ele>
        <time>2022-07-21T07:54:10.242Z</time>
      </trkpt>
      <trkpt lat="44.20296" lon="0.88291">
        <ele>157</ele>
        <time>2022-07-21T07:54:11.242Z</time>
      </trkpt>
      <trkpt lat="44.20295" lon="0.88293">
        <ele>157</ele>
        <time>2022-07-21T07:54:12.242Z</time>
      </trkpt>
      <trkpt lat="44.20295" lon="0.88294">
        <ele>157</ele>
        <time>2022-07-21T07:54:13.242Z</time>
      </trkpt>
      <trkpt lat="44.20294" lon="0.88295">
        <ele>157</ele>
        <time>2022-07-21T07:54:14.242Z</time>
      </trkpt>
      <trkpt lat="44.20293" lon="0.88296">
        <ele>157</ele>
        <time>2022-07-21T07:54:15.242Z</time>
      </trkpt>
      <trkpt lat="44.20292" lon="0.88297">
        <ele>157</ele>
        <time>2022-07-21T07:54:16.242Z</time>
      </trkpt>
      <trkpt lat="44.20291" lon="0.88298">
        <ele>158</ele>
        <time>2022-07-21T07:54:17.242Z</time>
      </trkpt>
      <trkpt lat="44.20291" lon="0.883">
        <ele>157</ele>
        <time>2022-07-21T07:54:18.242Z</time>
      </trkpt>
      <trkpt lat="44.2029" lon="0.88301">
        <ele>157</ele>
        <time>2022-07-21T07:54:19.242Z</time>
      </trkpt>
      <trkpt lat="44.20289" lon="0.88303">
        <ele>157</ele>
        <time>2022-07-21T07:54:20.242Z</time>
      </trkpt>
      <trkpt lat="44.20288" lon="0.88304">
        <ele>158</ele>
        <time>2022-07-21T07:54:21.242Z</time>
      </trkpt>
      <trkpt lat="44.20287" lon="0.88305">
        <ele>157</ele>
        <time>2022-07-21T07:54:22.242Z</time>
      </trkpt>
      <trkpt lat="44.20286" lon="0.88306">
        <ele>157</ele>
        <time>2022-07-21T07:54:23.242Z</time>
      </trkpt>
      <trkpt lat="44.20285" lon="0.88307">
        <ele>157</ele>
        <time>2022-07-21T07:54:24.242Z</time>
      </trkpt>
      <trkpt lat="44.20284" lon="0.88309">
        <ele>157</ele>
        <time>2022-07-21T07:54:25.242Z</time>
      </trkpt>
      <trkpt lat="44.20284" lon="0.8831">
        <ele>157</ele>
        <time>2022-07-21T07:54:26.242Z</time>
      </trkpt>
      <trkpt lat="44.20283" lon="0.88312">
        <ele>157</ele>
        <time>2022-07-21T07:54:27.242Z</time>
      </trkpt>
      <trkpt lat="44.20282" lon="0.88313">
        <ele>158</ele>
        <time>2022-07-21T07:54:28.242Z</time>
      </trkpt>
      <trkpt lat="44.20281" lon="0.88315">
        <ele>158</ele>
        <time>2022-07-21T07:54:29.242Z</time>
      </trkpt>
      <trkpt lat="44.2028" lon="0.88316">
        <ele>158</ele>
        <time>2022-07-21T07:54:30.242Z</time>
      </trkpt>
      <trkpt lat="44.20279" lon="0.88316">
        <ele>159</ele>
        <time>2022-07-21T07:54:31.242Z</time>
      </trkpt>
      <trkpt lat="44.20279" lon="0.88317">
        <ele>158</ele>
        <time>2022-07-21T07:54:32.242Z</time>
      </trkpt>
      <trkpt lat="44.20279" lon="0.88316">
        <ele>158</ele>
        <time>2022-07-21T07:54:33.242Z</time>
      </trkpt>
      <trkpt lat="44.20279" lon="0.88316">
        <ele>158</ele>
        <time>2022-07-21T07:54:34.242Z</time>
      </trkpt>
      <trkpt lat="44.20279" lon="0.88316">
        <ele>158</ele>
        <time>2022-07-21T07:54:35.242Z</time>
      </trkpt>
      <trkpt lat="44.20279" lon="0.88316">
        <ele>157</ele>
        <time>2022-07-21T07:54:36.242Z</time>
      </trkpt>
      <trkpt lat="44.2028" lon="0.88317">
        <ele>156</ele>
        <time>2022-07-21T07:54:37.242Z</time>
      </trkpt>
      <trkpt lat="44.2028" lon="0.88317">
        <ele>156</ele>
        <time>2022-07-21T07:54:38.242Z</time>
      </trkpt>
      <trkpt lat="44.2028" lon="0.88318">
        <ele>155</ele>
        <time>2022-07-21T07:54:39.242Z</time>
      </trkpt>
      <trkpt lat="44.20279" lon="0.88319">
        <ele>155</ele>
        <time>2022-07-21T07:54:40.242Z</time>
      </trkpt>
      <trkpt lat="44.20279" lon="0.8832">
        <ele>155</ele>
        <time>2022-07-21T07:54:41.242Z</time>
      </trkpt>
      <trkpt lat="44.20278" lon="0.88321">
        <ele>155</ele>
        <time>2022-07-21T07:54:42.242Z</time>
      </trkpt>
      <trkpt lat="44.20277" lon="0.88322">
        <ele>154</ele>
        <time>2022-07-21T07:54:43.242Z</time>
      </trkpt>
      <trkpt lat="44.20276" lon="0.88323">
        <ele>153</ele>
        <time>2022-07-21T07:54:44.242Z</time>
      </trkpt>
      <trkpt lat="44.20275" lon="0.88324">
        <ele>154</ele>
        <time>2022-07-21T07:54:45.242Z</time>
      </trkpt>
      <trkpt lat="44.20273" lon="0.88325">
        <ele>154</ele>
        <time>2022-07-21T07:54:46.242Z</time>
      </trkpt>
      <trkpt lat="44.20272" lon="0.88326">
        <ele>153</ele>
        <time>2022-07-21T07:54:47.242Z</time>
      </trkpt>
      <trkpt lat="44.20271" lon="0.88327">
        <ele>153</ele>
        <time>2022-07-21T07:54:48.242Z</time>
      </trkpt>
      <trkpt lat="44.2027" lon="0.88328">
        <ele>152</ele>
        <time>2022-07-21T07:54:49.242Z</time>
      </trkpt>
      <trkpt lat="44.20269" lon="0.8833">
        <ele>152</ele>
        <time>2022-07-21T07:54:50.242Z</time>
      </trkpt>
      <trkpt lat="44.20268" lon="0.88331">
        <ele>152</ele>
        <time>2022-07-21T07:54:51.242Z</time>
      </trkpt>
      <trkpt lat="44.20267" lon="0.88332">
        <ele>152</ele>
        <time>2022-07-21T07:54:52.242Z</time>
      </trkpt>
      <trkpt lat="44.20266" lon="0.88334">
        <ele>152</ele>
        <time>2022-07-21T07:54:53.242Z</time>
      </trkpt>
      <trkpt lat="44.20265" lon="0.88335">
        <ele>152</ele>
        <time>2022-07-21T07:54:54.242Z</time>
      </trkpt>
      <trkpt lat="44.20264" lon="0.88337">
        <ele>152</ele>
        <time>2022-07-21T07:54:55.242Z</time>
      </trkpt>
      <trkpt lat="44.20263" lon="0.88338">
        <ele>152</ele>
        <time>2022-07-21T07:54:56.242Z</time>
      </trkpt>
      <trkpt lat="44.20262" lon="0.8834">
        <ele>151</ele>
        <time>2022-07-21T07:54:57.242Z</time>
      </trkpt>
      <trkpt lat="44.20261" lon="0.88342">
        <ele>151</ele>
        <time>2022-07-21T07:54:58.242Z</time>
      </trkpt>
      <trkpt lat="44.2026" lon="0.88343">
        <ele>151</ele>
        <time>2022-07-21T07:54:59.242Z</time>
      </trkpt>
      <trkpt lat="44.20259" lon="0.88345">
        <ele>151</ele>
        <time>2022-07-21T07:55:00.242Z</time>
      </trkpt>
      <trkpt lat="44.20258" lon="0.88346">
        <ele>152</ele>
        <time>2022-07-21T07:55:01.242Z</time>
      </trkpt>
      <trkpt lat="44.20258" lon="0.88348">
        <ele>152</ele>
        <time>2022-07-21T07:55:02.242Z</time>
      </trkpt>
      <trkpt lat="44.20257" lon="0.88349">
        <ele>151</ele>
        <time>2022-07-21T07:55:03.242Z</time>
      </trkpt>
      <trkpt lat="44.20256" lon="0.8835">
        <ele>151</ele>
        <time>2022-07-21T07:55:04.242Z</time>
      </trkpt>
      <trkpt lat="44.20255" lon="0.88352">
        <ele>151</ele>
        <time>2022-07-21T07:55:05.242Z</time>
      </trkpt>
      <trkpt lat="44.20254" lon="0.88353">
        <ele>151</ele>
        <time>2022-07-21T07:55:06.242Z</time>
      </trkpt>
      <trkpt lat="44.20253" lon="0.88354">
        <ele>151</ele>
        <time>2022-07-21T07:55:07.242Z</time>
      </trkpt>
      <trkpt lat="44.20252" lon="0.88355">
        <ele>151</ele>
        <time>2022-07-21T07:55:08.242Z</time>
      </trkpt>
      <trkpt lat="44.20251" lon="0.88356">
        <ele>151</ele>
        <time>2022-07-21T07:55:09.242Z</time>
      </trkpt>
      <trkpt lat="44.2025" lon="0.88358">
        <ele>151</ele>
        <time>2022-07-21T07:55:10.242Z</time>
      </trkpt>
      <trkpt lat="44.20249" lon="0.88359">
        <ele>150</ele>
        <time>2022-07-21T07:55:11.242Z</time>
      </trkpt>
      <trkpt lat="44.20248" lon="0.8836">
        <ele>150</ele>
        <time>2022-07-21T07:55:12.242Z</time>
      </trkpt>
      <trkpt lat="44.20247" lon="0.88362">
        <ele>150</ele>
        <time>2022-07-21T07:55:13.242Z</time>
      </trkpt>
      <trkpt lat="44.20246" lon="0.88363">
        <ele>150</ele>
        <time>2022-07-21T07:55:14.242Z</time>
      </trkpt>
      <trkpt lat="44.20246" lon="0.88364">
        <ele>150</ele>
        <time>2022-07-21T07:55:15.242Z</time>
      </trkpt>
      <trkpt lat="44.20245" lon="0.88366">
        <ele>149</ele>
        <time>2022-07-21T07:55:16.242Z</time>
      </trkpt>
      <trkpt lat="44.20244" lon="0.88367">
        <ele>148</ele>
        <time>2022-07-21T07:55:17.242Z</time>
      </trkpt>
      <trkpt lat="44.20243" lon="0.88368">
        <ele>148</ele>
        <time>2022-07-21T07:55:18.242Z</time>
      </trkpt>
      <trkpt lat="44.20242" lon="0.88369">
        <ele>146</ele>
        <time>2022-07-21T07:55:19.242Z</time>
      </trkpt>
      <trkpt lat="44.20241" lon="0.8837">
        <ele>147</ele>
        <time>2022-07-21T07:55:20.242Z</time>
      </trkpt>
      <trkpt lat="44.2024" lon="0.88372">
        <ele>146</ele>
        <time>2022-07-21T07:55:21.242Z</time>
      </trkpt>
      <trkpt lat="44.20239" lon="0.88373">
        <ele>146</ele>
        <time>2022-07-21T07:55:22.242Z</time>
      </trkpt>
      <trkpt lat="44.20238" lon="0.88374">
        <ele>146</ele>
        <time>2022-07-21T07:55:23.242Z</time>
      </trkpt>
      <trkpt lat="44.20237" lon="0.88376">
        <ele>146</ele>
        <time>2022-07-21T07:55:24.242Z</time>
      </trkpt>
      <trkpt lat="44.20236" lon="0.88377">
        <ele>147</ele>
        <time>2022-07-21T07:55:25.242Z</time>
      </trkpt>
      <trkpt lat="44.20235" lon="0.88379">
        <ele>147</ele>
        <time>2022-07-21T07:55:26.242Z</time>
      </trkpt>
      <trkpt lat="44.20234" lon="0.8838">
        <ele>147</ele>
        <time>2022-07-21T07:55:27.242Z</time>
      </trkpt>
      <trkpt lat="44.20233" lon="0.88381">
        <ele>147</ele>
        <time>2022-07-21T07:55:28.242Z</time>
      </trkpt>
      <trkpt lat="44.20232" lon="0.88382">
        <ele>146</ele>
        <time>2022-07-21T07:55:29.242Z</time>
      </trkpt>
      <trkpt lat="44.20231" lon="0.88383">
        <ele>146</ele>
        <time>2022-07-21T07:55:30.242Z</time>
      </trkpt>
      <trkpt lat="44.2023" lon="0.88384">
        <ele>145</ele>
        <time>2022-07-21T07:55:31.242Z</time>
      </trkpt>
      <trkpt lat="44.20229" lon="0.88385">
        <ele>145</ele>
        <time>2022-07-21T07:55:32.242Z</time>
      </trkpt>
      <trkpt lat="44.20228" lon="0.88386">
        <ele>145</ele>
        <time>2022-07-21T07:55:33.242Z</time>
      </trkpt>
      <trkpt lat="44.20228" lon="0.88386">
        <ele>145</ele>
        <time>2022-07-21T07:55:34.242Z</time>
      </trkpt>
      <trkpt lat="44.20227" lon="0.88387">
        <ele>145</ele>
        <time>2022-07-21T07:55:35.242Z</time>
      </trkpt>
      <trkpt lat="44.20226" lon="0.88388">
        <ele>144</ele>
        <time>2022-07-21T07:55:36.242Z</time>
      </trkpt>
      <trkpt lat="44.20225" lon="0.88389">
        <ele>144</ele>
        <time>2022-07-21T07:55:37.242Z</time>
      </trkpt>
      <trkpt lat="44.20225" lon="0.8839">
        <ele>144</ele>
        <time>2022-07-21T07:55:38.242Z</time>
      </trkpt>
      <trkpt lat="44.20224" lon="0.88391">
        <ele>143</ele>
        <time>2022-07-21T07:55:39.242Z</time>
      </trkpt>
      <trkpt lat="44.20223" lon="0.88392">
        <ele>143</ele>
        <time>2022-07-21T07:55:40.242Z</time>
      </trkpt>
      <trkpt lat="44.20223" lon="0.88393">
        <ele>143</ele>
        <time>2022-07-21T07:55:41.242Z</time>
      </trkpt>
      <trkpt lat="44.20222" lon="0.88394">
        <ele>143</ele>
        <time>2022-07-21T07:55:42.242Z</time>
      </trkpt>
      <trkpt lat="44.20221" lon="0.88395">
        <ele>142</ele>
        <time>2022-07-21T07:55:43.242Z</time>
      </trkpt>
      <trkpt lat="44.20221" lon="0.88396">
        <ele>142</ele>
        <time>2022-07-21T07:55:44.242Z</time>
      </trkpt>
      <trkpt lat="44.2022" lon="0.88396">
        <ele>142</ele>
        <time>2022-07-21T07:55:45.242Z</time>
      </trkpt>
      <trkpt lat="44.20219" lon="0.88397">
        <ele>142</ele>
        <time>2022-07-21T07:55:46.242Z</time>
      </trkpt>
      <trkpt lat="44.20218" lon="0.88398">
        <ele>142</ele>
        <time>2022-07-21T07:55:47.242Z</time>
      </trkpt>
      <trkpt lat="44.20218" lon="0.884">
        <ele>141</ele>
        <time>2022-07-21T07:55:48.242Z</time>
      </trkpt>
      <trkpt lat="44.20217" lon="0.88401">
        <ele>141</ele>
        <time>2022-07-21T07:55:49.242Z</time>
      </trkpt>
      <trkpt lat="44.20216" lon="0.88402">
        <ele>141</ele>
        <time>2022-07-21T07:55:50.242Z</time>
      </trkpt>
      <trkpt lat="44.20216" lon="0.88403">
        <ele>141</ele>
        <time>2022-07-21T07:55:51.242Z</time>
      </trkpt>
      <trkpt lat="44.20215" lon="0.88404">
        <ele>141</ele>
        <time>2022-07-21T07:55:52.242Z</time>
      </trkpt>
      <trkpt lat="44.20214" lon="0.88405">
        <ele>141</ele>
        <time>2022-07-21T07:55:53.242Z</time>
      </trkpt>
      <trkpt lat="44.20213" lon="0.88406">
        <ele>141</ele>
        <time>2022-07-21T07:55:54.242Z</time>
      </trkpt>
      <trkpt lat="44.20212" lon="0.88408">
        <ele>141</ele>
        <time>2022-07-21T07:55:55.242Z</time>
      </trkpt>
      <trkpt lat="44.20211" lon="0.88409">
        <ele>141</ele>
        <time>2022-07-21T07:55:56.242Z</time>
      </trkpt>
      <trkpt lat="44.2021" lon="0.8841">
        <ele>141</ele>
        <time>2022-07-21T07:55:57.242Z</time>
      </trkpt>
      <trkpt lat="44.2021" lon="0.88411">
        <ele>140</ele>
        <time>2022-07-21T07:55:58.242Z</time>
      </trkpt>
      <trkpt lat="44.20209" lon="0.88412">
        <ele>140</ele>
        <time>2022-07-21T07:55:59.242Z</time>
      </trkpt>
      <trkpt lat="44.20208" lon="0.88413">
        <ele>140</ele>
        <time>2022-07-21T07:56:00.242Z</time>
      </trkpt>
      <trkpt lat="44.20207" lon="0.88415">
        <ele>141</ele>
        <time>2022-07-21T07:56:01.242Z</time>
      </trkpt>
      <trkpt lat="44.20206" lon="0.88416">
        <ele>141</ele>
        <time>2022-07-21T07:56:02.242Z</time>
      </trkpt>
      <trkpt lat="44.20205" lon="0.88417">
        <ele>140</ele>
        <time>2022-07-21T07:56:03.242Z</time>
      </trkpt>
      <trkpt lat="44.20204" lon="0.88418">
        <ele>141</ele>
        <time>2022-07-21T07:56:04.242Z</time>
      </trkpt>
      <trkpt lat="44.20203" lon="0.88419">
        <ele>141</ele>
        <time>2022-07-21T07:56:05.242Z</time>
      </trkpt>
      <trkpt lat="44.20202" lon="0.88421">
        <ele>140</ele>
        <time>2022-07-21T07:56:06.242Z</time>
      </trkpt>
      <trkpt lat="44.20201" lon="0.88422">
        <ele>140</ele>
        <time>2022-07-21T07:56:07.242Z</time>
      </trkpt>
      <trkpt lat="44.202" lon="0.88423">
        <ele>140</ele>
        <time>2022-07-21T07:56:08.242Z</time>
      </trkpt>
      <trkpt lat="44.20199" lon="0.88424">
        <ele>141</ele>
        <time>2022-07-21T07:56:09.242Z</time>
      </trkpt>
      <trkpt lat="44.20198" lon="0.88426">
        <ele>141</ele>
        <time>2022-07-21T07:56:10.242Z</time>
      </trkpt>
      <trkpt lat="44.20197" lon="0.88427">
        <ele>141</ele>
        <time>2022-07-21T07:56:11.242Z</time>
      </trkpt>
      <trkpt lat="44.20196" lon="0.88428">
        <ele>141</ele>
        <time>2022-07-21T07:56:12.242Z</time>
      </trkpt>
      <trkpt lat="44.20195" lon="0.88429">
        <ele>141</ele>
        <time>2022-07-21T07:56:13.242Z</time>
      </trkpt>
      <trkpt lat="44.20195" lon="0.8843">
        <ele>141</ele>
        <time>2022-07-21T07:56:14.242Z</time>
      </trkpt>
      <trkpt lat="44.20194" lon="0.88431">
        <ele>140</ele>
        <time>2022-07-21T07:56:15.242Z</time>
      </trkpt>
      <trkpt lat="44.20193" lon="0.88432">
        <ele>141</ele>
        <time>2022-07-21T07:56:16.242Z</time>
      </trkpt>
      <trkpt lat="44.20192" lon="0.88433">
        <ele>141</ele>
        <time>2022-07-21T07:56:17.242Z</time>
      </trkpt>
      <trkpt lat="44.20191" lon="0.88434">
        <ele>140</ele>
        <time>2022-07-21T07:56:18.242Z</time>
      </trkpt>
      <trkpt lat="44.2019" lon="0.88436">
        <ele>140</ele>
        <time>2022-07-21T07:56:19.242Z</time>
      </trkpt>
      <trkpt lat="44.2019" lon="0.88437">
        <ele>141</ele>
        <time>2022-07-21T07:56:20.242Z</time>
      </trkpt>
      <trkpt lat="44.20189" lon="0.88438">
        <ele>140</ele>
        <time>2022-07-21T07:56:21.242Z</time>
      </trkpt>
      <trkpt lat="44.20188" lon="0.88439">
        <ele>140</ele>
        <time>2022-07-21T07:56:22.242Z</time>
      </trkpt>
      <trkpt lat="44.20187" lon="0.8844">
        <ele>139</ele>
        <time>2022-07-21T07:56:23.242Z</time>
      </trkpt>
      <trkpt lat="44.20186" lon="0.88441">
        <ele>139</ele>
        <time>2022-07-21T07:56:24.242Z</time>
      </trkpt>
      <trkpt lat="44.20185" lon="0.88442">
        <ele>139</ele>
        <time>2022-07-21T07:56:25.242Z</time>
      </trkpt>
      <trkpt lat="44.20184" lon="0.88443">
        <ele>139</ele>
        <time>2022-07-21T07:56:26.242Z</time>
      </trkpt>
      <trkpt lat="44.20183" lon="0.88444">
        <ele>138</ele>
        <time>2022-07-21T07:56:27.242Z</time>
      </trkpt>
      <trkpt lat="44.20182" lon="0.88446">
        <ele>139</ele>
        <time>2022-07-21T07:56:28.242Z</time>
      </trkpt>
      <trkpt lat="44.20181" lon="0.88446">
        <ele>139</ele>
        <time>2022-07-21T07:56:29.242Z</time>
      </trkpt>
      <trkpt lat="44.20179" lon="0.88447">
        <ele>138</ele>
        <time>2022-07-21T07:56:30.242Z</time>
      </trkpt>
      <trkpt lat="44.20178" lon="0.88448">
        <ele>138</ele>
        <time>2022-07-21T07:56:31.242Z</time>
      </trkpt>
      <trkpt lat="44.20177" lon="0.88449">
        <ele>139</ele>
        <time>2022-07-21T07:56:32.242Z</time>
      </trkpt>
      <trkpt lat="44.20176" lon="0.8845">
        <ele>139</ele>
        <time>2022-07-21T07:56:33.242Z</time>
      </trkpt>
      <trkpt lat="44.20175" lon="0.88451">
        <ele>138</ele>
        <time>2022-07-21T07:56:34.242Z</time>
      </trkpt>
      <trkpt lat="44.20174" lon="0.88452">
        <ele>138</ele>
        <time>2022-07-21T07:56:35.242Z</time>
      </trkpt>
      <trkpt lat="44.20173" lon="0.88453">
        <ele>138</ele>
        <time>2022-07-21T07:56:36.242Z</time>
      </trkpt>
      <trkpt lat="44.20172" lon="0.88453">
        <ele>138</ele>
        <time>2022-07-21T07:56:37.242Z</time>
      </trkpt>
      <trkpt lat="44.20171" lon="0.88454">
        <ele>139</ele>
        <time>2022-07-21T07:56:38.242Z</time>
      </trkpt>
      <trkpt lat="44.2017" lon="0.88455">
        <ele>139</ele>
        <time>2022-07-21T07:56:39.242Z</time>
      </trkpt>
      <trkpt lat="44.2017" lon="0.88456">
        <ele>139</ele>
        <time>2022-07-21T07:56:40.242Z</time>
      </trkpt>
      <trkpt lat="44.20169" lon="0.88457">
        <ele>139</ele>
        <time>2022-07-21T07:56:41.242Z</time>
      </trkpt>
      <trkpt lat="44.20168" lon="0.88458">
        <ele>138</ele>
        <time>2022-07-21T07:56:42.242Z</time>
      </trkpt>
      <trkpt lat="44.20167" lon="0.88458">
        <ele>139</ele>
        <time>2022-07-21T07:56:43.242Z</time>
      </trkpt>
      <trkpt lat="44.20166" lon="0.88459">
        <ele>138</ele>
        <time>2022-07-21T07:56:44.242Z</time>
      </trkpt>
      <trkpt lat="44.20164" lon="0.8846">
        <ele>138</ele>
        <time>2022-07-21T07:56:45.242Z</time>
      </trkpt>
      <trkpt lat="44.20163" lon="0.88461">
        <ele>138</ele>
        <time>2022-07-21T07:56:46.242Z</time>
      </trkpt>
      <trkpt lat="44.20162" lon="0.88461">
        <ele>138</ele>
        <time>2022-07-21T07:56:47.242Z</time>
      </trkpt>
      <trkpt lat="44.20161" lon="0.88462">
        <ele>138</ele>
        <time>2022-07-21T07:56:48.242Z</time>
      </trkpt>
      <trkpt lat="44.2016" lon="0.88463">
        <ele>138</ele>
        <time>2022-07-21T07:56:49.242Z</time>
      </trkpt>
      <trkpt lat="44.20159" lon="0.88463">
        <ele>138</ele>
        <time>2022-07-21T07:56:50.242Z</time>
      </trkpt>
      <trkpt lat="44.20158" lon="0.88464">
        <ele>138</ele>
        <time>2022-07-21T07:56:51.242Z</time>
      </trkpt>
      <trkpt lat="44.20157" lon="0.88464">
        <ele>138</ele>
        <time>2022-07-21T07:56:52.242Z</time>
      </trkpt>
      <trkpt lat="44.20155" lon="0.88465">
        <ele>138</ele>
        <time>2022-07-21T07:56:53.242Z</time>
      </trkpt>
      <trkpt lat="44.20154" lon="0.88466">
        <ele>138</ele>
        <time>2022-07-21T07:56:54.242Z</time>
      </trkpt>
      <trkpt lat="44.20153" lon="0.88467">
        <ele>138</ele>
        <time>2022-07-21T07:56:55.242Z</time>
      </trkpt>
      <trkpt lat="44.20153" lon="0.88468">
        <ele>138</ele>
        <time>2022-07-21T07:56:56.242Z</time>
      </trkpt>
      <trkpt lat="44.20151" lon="0.8847">
        <ele>138</ele>
        <time>2022-07-21T07:56:57.242Z</time>
      </trkpt>
      <trkpt lat="44.2015" lon="0.88471">
        <ele>138</ele>
        <time>2022-07-21T07:56:58.242Z</time>
      </trkpt>
      <trkpt lat="44.20149" lon="0.88472">
        <ele>138</ele>
        <time>2022-07-21T07:56:59.242Z</time>
      </trkpt>
      <trkpt lat="44.20147" lon="0.88473">
        <ele>139</ele>
        <time>2022-07-21T07:57:00.242Z</time>
      </trkpt>
      <trkpt lat="44.20146" lon="0.88474">
        <ele>140</ele>
        <time>2022-07-21T07:57:01.242Z</time>
      </trkpt>
      <trkpt lat="44.20144" lon="0.88475">
        <ele>140</ele>
        <time>2022-07-21T07:57:02.242Z</time>
      </trkpt>
      <trkpt lat="44.20143" lon="0.88476">
        <ele>140</ele>
        <time>2022-07-21T07:57:03.242Z</time>
      </trkpt>
      <trkpt lat="44.20142" lon="0.88477">
        <ele>141</ele>
        <time>2022-07-21T07:57:04.242Z</time>
      </trkpt>
      <trkpt lat="44.20141" lon="0.88478">
        <ele>141</ele>
        <time>2022-07-21T07:57:05.242Z</time>
      </trkpt>
      <trkpt lat="44.2014" lon="0.88479">
        <ele>141</ele>
        <time>2022-07-21T07:57:06.242Z</time>
      </trkpt>
      <trkpt lat="44.20139" lon="0.8848">
        <ele>141</ele>
        <time>2022-07-21T07:57:07.242Z</time>
      </trkpt>
      <trkpt lat="44.20137" lon="0.88481">
        <ele>140</ele>
        <time>2022-07-21T07:57:08.242Z</time>
      </trkpt>
      <trkpt lat="44.20136" lon="0.88482">
        <ele>140</ele>
        <time>2022-07-21T07:57:09.242Z</time>
      </trkpt>
      <trkpt lat="44.20135" lon="0.88482">
        <ele>140</ele>
        <time>2022-07-21T07:57:10.242Z</time>
      </trkpt>
      <trkpt lat="44.20134" lon="0.88483">
        <ele>141</ele>
        <time>2022-07-21T07:57:11.242Z</time>
      </trkpt>
      <trkpt lat="44.20133" lon="0.88484">
        <ele>140</ele>
        <time>2022-07-21T07:57:12.242Z</time>
      </trkpt>
      <trkpt lat="44.20132" lon="0.88485">
        <ele>140</ele>
        <time>2022-07-21T07:57:13.242Z</time>
      </trkpt>
      <trkpt lat="44.20131" lon="0.88486">
        <ele>140</ele>
        <time>2022-07-21T07:57:14.242Z</time>
      </trkpt>
      <trkpt lat="44.2013" lon="0.88486">
        <ele>139</ele>
        <time>2022-07-21T07:57:15.242Z</time>
      </trkpt>
      <trkpt lat="44.20128" lon="0.88487">
        <ele>139</ele>
        <time>2022-07-21T07:57:16.242Z</time>
      </trkpt>
      <trkpt lat="44.20127" lon="0.88488">
        <ele>139</ele>
        <time>2022-07-21T07:57:17.242Z</time>
      </trkpt>
      <trkpt lat="44.20126" lon="0.88489">
        <ele>138</ele>
        <time>2022-07-21T07:57:18.242Z</time>
      </trkpt>
      <trkpt lat="44.20125" lon="0.8849">
        <ele>138</ele>
        <time>2022-07-21T07:57:19.242Z</time>
      </trkpt>
      <trkpt lat="44.20124" lon="0.88491">
        <ele>137</ele>
        <time>2022-07-21T07:57:20.242Z</time>
      </trkpt>
      <trkpt lat="44.20124" lon="0.88492">
        <ele>137</ele>
        <time>2022-07-21T07:57:21.242Z</time>
      </trkpt>
      <trkpt lat="44.20123" lon="0.88492">
        <ele>137</ele>
        <time>2022-07-21T07:57:22.242Z</time>
      </trkpt>
      <trkpt lat="44.20122" lon="0.88493">
        <ele>137</ele>
        <time>2022-07-21T07:57:23.242Z</time>
      </trkpt>
      <trkpt lat="44.2012" lon="0.88494">
        <ele>138</ele>
        <time>2022-07-21T07:57:24.242Z</time>
      </trkpt>
      <trkpt lat="44.20119" lon="0.88495">
        <ele>138</ele>
        <time>2022-07-21T07:57:25.242Z</time>
      </trkpt>
      <trkpt lat="44.20118" lon="0.88496">
        <ele>138</ele>
        <time>2022-07-21T07:57:26.242Z</time>
      </trkpt>
      <trkpt lat="44.20116" lon="0.88496">
        <ele>138</ele>
        <time>2022-07-21T07:57:27.242Z</time>
      </trkpt>
      <trkpt lat="44.20115" lon="0.88497">
        <ele>137</ele>
        <time>2022-07-21T07:57:28.242Z</time>
      </trkpt>
      <trkpt lat="44.20114" lon="0.88497">
        <ele>137</ele>
        <time>2022-07-21T07:57:29.242Z</time>
      </trkpt>
      <trkpt lat="44.20113" lon="0.88499">
        <ele>137</ele>
        <time>2022-07-21T07:57:30.242Z</time>
      </trkpt>
      <trkpt lat="44.20111" lon="0.885">
        <ele>137</ele>
        <time>2022-07-21T07:57:31.242Z</time>
      </trkpt>
      <trkpt lat="44.2011" lon="0.885">
        <ele>137</ele>
        <time>2022-07-21T07:57:32.242Z</time>
      </trkpt>
      <trkpt lat="44.20109" lon="0.88501">
        <ele>137</ele>
        <time>2022-07-21T07:57:33.242Z</time>
      </trkpt>
      <trkpt lat="44.20108" lon="0.88502">
        <ele>136</ele>
        <time>2022-07-21T07:57:34.242Z</time>
      </trkpt>
      <trkpt lat="44.20107" lon="0.88503">
        <ele>136</ele>
        <time>2022-07-21T07:57:35.242Z</time>
      </trkpt>
      <trkpt lat="44.20106" lon="0.88503">
        <ele>136</ele>
        <time>2022-07-21T07:57:36.242Z</time>
      </trkpt>
      <trkpt lat="44.20105" lon="0.88504">
        <ele>135</ele>
        <time>2022-07-21T07:57:37.242Z</time>
      </trkpt>
      <trkpt lat="44.20104" lon="0.88505">
        <ele>135</ele>
        <time>2022-07-21T07:57:38.242Z</time>
      </trkpt>
      <trkpt lat="44.20103" lon="0.88506">
        <ele>134</ele>
        <time>2022-07-21T07:57:39.242Z</time>
      </trkpt>
      <trkpt lat="44.20102" lon="0.88507">
        <ele>134</ele>
        <time>2022-07-21T07:57:40.242Z</time>
      </trkpt>
      <trkpt lat="44.20101" lon="0.88507">
        <ele>134</ele>
        <time>2022-07-21T07:57:41.242Z</time>
      </trkpt>
      <trkpt lat="44.201" lon="0.88508">
        <ele>133</ele>
        <time>2022-07-21T07:57:42.242Z</time>
      </trkpt>
      <trkpt lat="44.201" lon="0.8851">
        <ele>132</ele>
        <time>2022-07-21T07:57:43.242Z</time>
      </trkpt>
      <trkpt lat="44.20099" lon="0.88511">
        <ele>132</ele>
        <time>2022-07-21T07:57:44.242Z</time>
      </trkpt>
      <trkpt lat="44.20098" lon="0.88512">
        <ele>132</ele>
        <time>2022-07-21T07:57:45.242Z</time>
      </trkpt>
      <trkpt lat="44.20097" lon="0.88513">
        <ele>132</ele>
        <time>2022-07-21T07:57:46.242Z</time>
      </trkpt>
      <trkpt lat="44.20096" lon="0.88513">
        <ele>133</ele>
        <time>2022-07-21T07:57:47.242Z</time>
      </trkpt>
      <trkpt lat="44.20094" lon="0.88514">
        <ele>132</ele>
        <time>2022-07-21T07:57:48.242Z</time>
      </trkpt>
      <trkpt lat="44.20093" lon="0.88515">
        <ele>132</ele>
        <time>2022-07-21T07:57:49.242Z</time>
      </trkpt>
      <trkpt lat="44.20092" lon="0.88516">
        <ele>132</ele>
        <time>2022-07-21T07:57:50.242Z</time>
      </trkpt>
      <trkpt lat="44.2009" lon="0.88518">
        <ele>132</ele>
        <time>2022-07-21T07:57:51.242Z</time>
      </trkpt>
      <trkpt lat="44.20089" lon="0.88519">
        <ele>132</ele>
        <time>2022-07-21T07:57:52.242Z</time>
      </trkpt>
      <trkpt lat="44.20088" lon="0.8852">
        <ele>133</ele>
        <time>2022-07-21T07:57:53.242Z</time>
      </trkpt>
      <trkpt lat="44.20087" lon="0.88521">
        <ele>132</ele>
        <time>2022-07-21T07:57:54.242Z</time>
      </trkpt>
      <trkpt lat="44.20087" lon="0.88522">
        <ele>132</ele>
        <time>2022-07-21T07:57:55.242Z</time>
      </trkpt>
      <trkpt lat="44.20086" lon="0.88523">
        <ele>132</ele>
        <time>2022-07-21T07:57:56.242Z</time>
      </trkpt>
      <trkpt lat="44.20085" lon="0.88524">
        <ele>131</ele>
        <time>2022-07-21T07:57:57.242Z</time>
      </trkpt>
      <trkpt lat="44.20084" lon="0.88525">
        <ele>132</ele>
        <time>2022-07-21T07:57:58.242Z</time>
      </trkpt>
      <trkpt lat="44.20082" lon="0.88525">
        <ele>131</ele>
        <time>2022-07-21T07:57:59.242Z</time>
      </trkpt>
      <trkpt lat="44.20081" lon="0.88526">
        <ele>132</ele>
        <time>2022-07-21T07:58:00.242Z</time>
      </trkpt>
      <trkpt lat="44.2008" lon="0.88528">
        <ele>132</ele>
        <time>2022-07-21T07:58:01.242Z</time>
      </trkpt>
      <trkpt lat="44.20079" lon="0.88529">
        <ele>132</ele>
        <time>2022-07-21T07:58:02.242Z</time>
      </trkpt>
      <trkpt lat="44.20078" lon="0.8853">
        <ele>132</ele>
        <time>2022-07-21T07:58:03.242Z</time>
      </trkpt>
      <trkpt lat="44.20077" lon="0.88531">
        <ele>132</ele>
        <time>2022-07-21T07:58:04.242Z</time>
      </trkpt>
      <trkpt lat="44.20076" lon="0.88531">
        <ele>133</ele>
        <time>2022-07-21T07:58:05.242Z</time>
      </trkpt>
      <trkpt lat="44.20076" lon="0.88532">
        <ele>133</ele>
        <time>2022-07-21T07:58:06.242Z</time>
      </trkpt>
      <trkpt lat="44.20074" lon="0.88533">
        <ele>133</ele>
        <time>2022-07-21T07:58:07.242Z</time>
      </trkpt>
      <trkpt lat="44.20074" lon="0.88534">
        <ele>133</ele>
        <time>2022-07-21T07:58:08.242Z</time>
      </trkpt>
      <trkpt lat="44.20073" lon="0.88535">
        <ele>133</ele>
        <time>2022-07-21T07:58:09.242Z</time>
      </trkpt>
      <trkpt lat="44.20072" lon="0.88536">
        <ele>133</ele>
        <time>2022-07-21T07:58:10.242Z</time>
      </trkpt>
      <trkpt lat="44.20071" lon="0.88537">
        <ele>133</ele>
        <time>2022-07-21T07:58:11.242Z</time>
      </trkpt>
      <trkpt lat="44.2007" lon="0.88538">
        <ele>133</ele>
        <time>2022-07-21T07:58:12.242Z</time>
      </trkpt>
      <trkpt lat="44.20069" lon="0.8854">
        <ele>133</ele>
        <time>2022-07-21T07:58:13.242Z</time>
      </trkpt>
      <trkpt lat="44.20069" lon="0.88541">
        <ele>133</ele>
        <time>2022-07-21T07:58:14.242Z</time>
      </trkpt>
      <trkpt lat="44.20068" lon="0.88542">
        <ele>133</ele>
        <time>2022-07-21T07:58:15.242Z</time>
      </trkpt>
      <trkpt lat="44.20067" lon="0.88543">
        <ele>133</ele>
        <time>2022-07-21T07:58:16.242Z</time>
      </trkpt>
      <trkpt lat="44.20066" lon="0.88544">
        <ele>133</ele>
        <time>2022-07-21T07:58:17.242Z</time>
      </trkpt>
      <trkpt lat="44.20065" lon="0.88545">
        <ele>133</ele>
        <time>2022-07-21T07:58:18.242Z</time>
      </trkpt>
      <trkpt lat="44.20064" lon="0.88547">
        <ele>134</ele>
        <time>2022-07-21T07:58:19.242Z</time>
      </trkpt>
      <trkpt lat="44.20063" lon="0.88548">
        <ele>134</ele>
        <time>2022-07-21T07:58:20.242Z</time>
      </trkpt>
      <trkpt lat="44.20062" lon="0.88549">
        <ele>135</ele>
        <time>2022-07-21T07:58:21.242Z</time>
      </trkpt>
      <trkpt lat="44.20061" lon="0.8855">
        <ele>135</ele>
        <time>2022-07-21T07:58:22.242Z</time>
      </trkpt>
      <trkpt lat="44.2006" lon="0.88551">
        <ele>134</ele>
        <time>2022-07-21T07:58:23.242Z</time>
      </trkpt>
      <trkpt lat="44.20059" lon="0.88552">
        <ele>134</ele>
        <time>2022-07-21T07:58:24.242Z</time>
      </trkpt>
      <trkpt lat="44.20058" lon="0.88553">
        <ele>133</ele>
        <time>2022-07-21T07:58:25.242Z</time>
      </trkpt>
      <trkpt lat="44.20057" lon="0.88554">
        <ele>133</ele>
        <time>2022-07-21T07:58:26.242Z</time>
      </trkpt>
      <trkpt lat="44.20056" lon="0.88555">
        <ele>133</ele>
        <time>2022-07-21T07:58:27.242Z</time>
      </trkpt>
      <trkpt lat="44.20055" lon="0.88556">
        <ele>133</ele>
        <time>2022-07-21T07:58:28.242Z</time>
      </trkpt>
      <trkpt lat="44.20054" lon="0.88558">
        <ele>133</ele>
        <time>2022-07-21T07:58:29.242Z</time>
      </trkpt>
      <trkpt lat="44.20054" lon="0.88559">
        <ele>133</ele>
        <time>2022-07-21T07:58:30.242Z</time>
      </trkpt>
      <trkpt lat="44.20053" lon="0.8856">
        <ele>133</ele>
        <time>2022-07-21T07:58:31.242Z</time>
      </trkpt>
      <trkpt lat="44.20052" lon="0.88561">
        <ele>134</ele>
        <time>2022-07-21T07:58:32.242Z</time>
      </trkpt>
      <trkpt lat="44.20051" lon="0.88561">
        <ele>134</ele>
        <time>2022-07-21T07:58:33.242Z</time>
      </trkpt>
      <trkpt lat="44.2005" lon="0.88563">
        <ele>134</ele>
        <time>2022-07-21T07:58:34.242Z</time>
      </trkpt>
      <trkpt lat="44.20049" lon="0.88564">
        <ele>134</ele>
        <time>2022-07-21T07:58:35.242Z</time>
      </trkpt>
      <trkpt lat="44.20048" lon="0.88565">
        <ele>133</ele>
        <time>2022-07-21T07:58:36.242Z</time>
      </trkpt>
      <trkpt lat="44.20047" lon="0.88566">
        <ele>133</ele>
        <time>2022-07-21T07:58:37.242Z</time>
      </trkpt>
      <trkpt lat="44.20046" lon="0.88567">
        <ele>133</ele>
        <time>2022-07-21T07:58:38.242Z</time>
      </trkpt>
      <trkpt lat="44.20045" lon="0.88568">
        <ele>133</ele>
        <time>2022-07-21T07:58:39.242Z</time>
      </trkpt>
      <trkpt lat="44.20044" lon="0.88569">
        <ele>133</ele>
        <time>2022-07-21T07:58:40.242Z</time>
      </trkpt>
      <trkpt lat="44.20043" lon="0.8857">
        <ele>133</ele>
        <time>2022-07-21T07:58:41.242Z</time>
      </trkpt>
      <trkpt lat="44.20042" lon="0.88571">
        <ele>133</ele>
        <time>2022-07-21T07:58:42.242Z</time>
      </trkpt>
      <trkpt lat="44.20041" lon="0.88572">
        <ele>133</ele>
        <time>2022-07-21T07:58:43.242Z</time>
      </trkpt>
      <trkpt lat="44.2004" lon="0.88573">
        <ele>133</ele>
        <time>2022-07-21T07:58:44.242Z</time>
      </trkpt>
      <trkpt lat="44.20038" lon="0.88575">
        <ele>133</ele>
        <time>2022-07-21T07:58:45.242Z</time>
      </trkpt>
      <trkpt lat="44.20038" lon="0.88576">
        <ele>133</ele>
        <time>2022-07-21T07:58:46.242Z</time>
      </trkpt>
      <trkpt lat="44.20037" lon="0.88577">
        <ele>133</ele>
        <time>2022-07-21T07:58:47.242Z</time>
      </trkpt>
      <trkpt lat="44.20036" lon="0.88578">
        <ele>133</ele>
        <time>2022-07-21T07:58:48.242Z</time>
      </trkpt>
      <trkpt lat="44.20035" lon="0.88579">
        <ele>133</ele>
        <time>2022-07-21T07:58:49.242Z</time>
      </trkpt>
      <trkpt lat="44.20034" lon="0.8858">
        <ele>133</ele>
        <time>2022-07-21T07:58:50.242Z</time>
      </trkpt>
      <trkpt lat="44.20033" lon="0.88581">
        <ele>133</ele>
        <time>2022-07-21T07:58:51.242Z</time>
      </trkpt>
      <trkpt lat="44.20032" lon="0.88582">
        <ele>133</ele>
        <time>2022-07-21T07:58:52.242Z</time>
      </trkpt>
      <trkpt lat="44.20032" lon="0.88584">
        <ele>133</ele>
        <time>2022-07-21T07:58:53.242Z</time>
      </trkpt>
      <trkpt lat="44.20031" lon="0.88585">
        <ele>133</ele>
        <time>2022-07-21T07:58:54.242Z</time>
      </trkpt>
      <trkpt lat="44.2003" lon="0.88586">
        <ele>132</ele>
        <time>2022-07-21T07:58:55.242Z</time>
      </trkpt>
      <trkpt lat="44.20029" lon="0.88587">
        <ele>132</ele>
        <time>2022-07-21T07:58:56.242Z</time>
      </trkpt>
      <trkpt lat="44.20028" lon="0.88588">
        <ele>132</ele>
        <time>2022-07-21T07:58:57.242Z</time>
      </trkpt>
      <trkpt lat="44.20027" lon="0.88589">
        <ele>132</ele>
        <time>2022-07-21T07:58:58.242Z</time>
      </trkpt>
      <trkpt lat="44.20026" lon="0.8859">
        <ele>132</ele>
        <time>2022-07-21T07:58:59.242Z</time>
      </trkpt>
      <trkpt lat="44.20025" lon="0.88591">
        <ele>132</ele>
        <time>2022-07-21T07:59:00.242Z</time>
      </trkpt>
      <trkpt lat="44.20024" lon="0.88592">
        <ele>132</ele>
        <time>2022-07-21T07:59:01.242Z</time>
      </trkpt>
      <trkpt lat="44.20023" lon="0.88593">
        <ele>132</ele>
        <time>2022-07-21T07:59:02.242Z</time>
      </trkpt>
      <trkpt lat="44.20022" lon="0.88595">
        <ele>132</ele>
        <time>2022-07-21T07:59:03.242Z</time>
      </trkpt>
      <trkpt lat="44.2002" lon="0.88596">
        <ele>132</ele>
        <time>2022-07-21T07:59:04.242Z</time>
      </trkpt>
      <trkpt lat="44.20019" lon="0.88597">
        <ele>132</ele>
        <time>2022-07-21T07:59:05.242Z</time>
      </trkpt>
      <trkpt lat="44.20018" lon="0.88598">
        <ele>132</ele>
        <time>2022-07-21T07:59:06.242Z</time>
      </trkpt>
      <trkpt lat="44.20018" lon="0.88599">
        <ele>132</ele>
        <time>2022-07-21T07:59:07.242Z</time>
      </trkpt>
      <trkpt lat="44.20017" lon="0.886">
        <ele>132</ele>
        <time>2022-07-21T07:59:08.242Z</time>
      </trkpt>
      <trkpt lat="44.20016" lon="0.886">
        <ele>131</ele>
        <time>2022-07-21T07:59:09.242Z</time>
      </trkpt>
      <trkpt lat="44.20014" lon="0.88601">
        <ele>131</ele>
        <time>2022-07-21T07:59:10.242Z</time>
      </trkpt>
      <trkpt lat="44.20013" lon="0.88602">
        <ele>131</ele>
        <time>2022-07-21T07:59:11.242Z</time>
      </trkpt>
      <trkpt lat="44.20012" lon="0.88603">
        <ele>131</ele>
        <time>2022-07-21T07:59:12.242Z</time>
      </trkpt>
      <trkpt lat="44.20011" lon="0.88604">
        <ele>131</ele>
        <time>2022-07-21T07:59:13.242Z</time>
      </trkpt>
      <trkpt lat="44.2001" lon="0.88605">
        <ele>131</ele>
        <time>2022-07-21T07:59:14.242Z</time>
      </trkpt>
      <trkpt lat="44.20009" lon="0.88606">
        <ele>130</ele>
        <time>2022-07-21T07:59:15.242Z</time>
      </trkpt>
      <trkpt lat="44.20008" lon="0.88607">
        <ele>130</ele>
        <time>2022-07-21T07:59:16.242Z</time>
      </trkpt>
      <trkpt lat="44.20007" lon="0.88608">
        <ele>130</ele>
        <time>2022-07-21T07:59:17.242Z</time>
      </trkpt>
      <trkpt lat="44.20006" lon="0.88609">
        <ele>130</ele>
        <time>2022-07-21T07:59:18.242Z</time>
      </trkpt>
      <trkpt lat="44.20005" lon="0.8861">
        <ele>130</ele>
        <time>2022-07-21T07:59:19.242Z</time>
      </trkpt>
      <trkpt lat="44.20004" lon="0.88611">
        <ele>130</ele>
        <time>2022-07-21T07:59:20.242Z</time>
      </trkpt>
      <trkpt lat="44.20003" lon="0.88611">
        <ele>129</ele>
        <time>2022-07-21T07:59:21.242Z</time>
      </trkpt>
      <trkpt lat="44.20001" lon="0.88612">
        <ele>129</ele>
        <time>2022-07-21T07:59:22.242Z</time>
      </trkpt>
      <trkpt lat="44.2" lon="0.88613">
        <ele>129</ele>
        <time>2022-07-21T07:59:23.242Z</time>
      </trkpt>
      <trkpt lat="44.19999" lon="0.88614">
        <ele>128</ele>
        <time>2022-07-21T07:59:24.242Z</time>
      </trkpt>
      <trkpt lat="44.19998" lon="0.88614">
        <ele>129</ele>
        <time>2022-07-21T07:59:25.242Z</time>
      </trkpt>
      <trkpt lat="44.19997" lon="0.88615">
        <ele>128</ele>
        <time>2022-07-21T07:59:26.242Z</time>
      </trkpt>
      <trkpt lat="44.19996" lon="0.88615">
        <ele>128</ele>
        <time>2022-07-21T07:59:27.242Z</time>
      </trkpt>
      <trkpt lat="44.19995" lon="0.88616">
        <ele>128</ele>
        <time>2022-07-21T07:59:28.242Z</time>
      </trkpt>
      <trkpt lat="44.19993" lon="0.88616">
        <ele>127</ele>
        <time>2022-07-21T07:59:29.242Z</time>
      </trkpt>
      <trkpt lat="44.19992" lon="0.88616">
        <ele>127</ele>
        <time>2022-07-21T07:59:30.242Z</time>
      </trkpt>
      <trkpt lat="44.19991" lon="0.88617">
        <ele>127</ele>
        <time>2022-07-21T07:59:31.242Z</time>
      </trkpt>
      <trkpt lat="44.19989" lon="0.88617">
        <ele>127</ele>
        <time>2022-07-21T07:59:32.242Z</time>
      </trkpt>
      <trkpt lat="44.19988" lon="0.88618">
        <ele>127</ele>
        <time>2022-07-21T07:59:33.242Z</time>
      </trkpt>
      <trkpt lat="44.19987" lon="0.88618">
        <ele>127</ele>
        <time>2022-07-21T07:59:34.242Z</time>
      </trkpt>
      <trkpt lat="44.19986" lon="0.88619">
        <ele>127</ele>
        <time>2022-07-21T07:59:35.242Z</time>
      </trkpt>
      <trkpt lat="44.19985" lon="0.88619">
        <ele>127</ele>
        <time>2022-07-21T07:59:36.242Z</time>
      </trkpt>
      <trkpt lat="44.19983" lon="0.8862">
        <ele>127</ele>
        <time>2022-07-21T07:59:37.242Z</time>
      </trkpt>
      <trkpt lat="44.19982" lon="0.8862">
        <ele>127</ele>
        <time>2022-07-21T07:59:38.242Z</time>
      </trkpt>
      <trkpt lat="44.19981" lon="0.88621">
        <ele>126</ele>
        <time>2022-07-21T07:59:39.242Z</time>
      </trkpt>
      <trkpt lat="44.1998" lon="0.88621">
        <ele>126</ele>
        <time>2022-07-21T07:59:40.242Z</time>
      </trkpt>
      <trkpt lat="44.19978" lon="0.88621">
        <ele>126</ele>
        <time>2022-07-21T07:59:41.242Z</time>
      </trkpt>
      <trkpt lat="44.19977" lon="0.88622">
        <ele>126</ele>
        <time>2022-07-21T07:59:42.242Z</time>
      </trkpt>
      <trkpt lat="44.19976" lon="0.88622">
        <ele>125</ele>
        <time>2022-07-21T07:59:43.242Z</time>
      </trkpt>
      <trkpt lat="44.19975" lon="0.88622">
        <ele>125</ele>
        <time>2022-07-21T07:59:44.242Z</time>
      </trkpt>
      <trkpt lat="44.19974" lon="0.88623">
        <ele>125</ele>
        <time>2022-07-21T07:59:45.242Z</time>
      </trkpt>
      <trkpt lat="44.19973" lon="0.88623">
        <ele>124</ele>
        <time>2022-07-21T07:59:46.242Z</time>
      </trkpt>
      <trkpt lat="44.19972" lon="0.88623">
        <ele>125</ele>
        <time>2022-07-21T07:59:47.242Z</time>
      </trkpt>
      <trkpt lat="44.19971" lon="0.88623">
        <ele>124</ele>
        <time>2022-07-21T07:59:48.242Z</time>
      </trkpt>
      <trkpt lat="44.19969" lon="0.88624">
        <ele>124</ele>
        <time>2022-07-21T07:59:49.242Z</time>
      </trkpt>
      <trkpt lat="44.19968" lon="0.88624">
        <ele>124</ele>
        <time>2022-07-21T07:59:50.242Z</time>
      </trkpt>
      <trkpt lat="44.19967" lon="0.88624">
        <ele>123</ele>
        <time>2022-07-21T07:59:51.242Z</time>
      </trkpt>
      <trkpt lat="44.19966" lon="0.88625">
        <ele>123</ele>
        <time>2022-07-21T07:59:52.242Z</time>
      </trkpt>
      <trkpt lat="44.19964" lon="0.88625">
        <ele>123</ele>
        <time>2022-07-21T07:59:53.242Z</time>
      </trkpt>
      <trkpt lat="44.19963" lon="0.88625">
        <ele>123</ele>
        <time>2022-07-21T07:59:54.242Z</time>
      </trkpt>
      <trkpt lat="44.19962" lon="0.88626">
        <ele>123</ele>
        <time>2022-07-21T07:59:55.242Z</time>
      </trkpt>
      <trkpt lat="44.19961" lon="0.88626">
        <ele>123</ele>
        <time>2022-07-21T07:59:56.242Z</time>
      </trkpt>
      <trkpt lat="44.1996" lon="0.88626">
        <ele>123</ele>
        <time>2022-07-21T07:59:57.242Z</time>
      </trkpt>
      <trkpt lat="44.19959" lon="0.88626">
        <ele>122</ele>
        <time>2022-07-21T07:59:58.242Z</time>
      </trkpt>
      <trkpt lat="44.19957" lon="0.88626">
        <ele>122</ele>
        <time>2022-07-21T07:59:59.242Z</time>
      </trkpt>
      <trkpt lat="44.19956" lon="0.88627">
        <ele>122</ele>
        <time>2022-07-21T08:00:00.242Z</time>
      </trkpt>
      <trkpt lat="44.19955" lon="0.88627">
        <ele>122</ele>
        <time>2022-07-21T08:00:01.242Z</time>
      </trkpt>
      <trkpt lat="44.19953" lon="0.88628">
        <ele>122</ele>
        <time>2022-07-21T08:00:02.242Z</time>
      </trkpt>
      <trkpt lat="44.19952" lon="0.88628">
        <ele>122</ele>
        <time>2022-07-21T08:00:03.242Z</time>
      </trkpt>
      <trkpt lat="44.19951" lon="0.88629">
        <ele>122</ele>
        <time>2022-07-21T08:00:04.242Z</time>
      </trkpt>
      <trkpt lat="44.1995" lon="0.88629">
        <ele>122</ele>
        <time>2022-07-21T08:00:05.242Z</time>
      </trkpt>
      <trkpt lat="44.19948" lon="0.8863">
        <ele>122</ele>
        <time>2022-07-21T08:00:06.242Z</time>
      </trkpt>
      <trkpt lat="44.19947" lon="0.8863">
        <ele>121</ele>
        <time>2022-07-21T08:00:07.242Z</time>
      </trkpt>
      <trkpt lat="44.19946" lon="0.8863">
        <ele>121</ele>
        <time>2022-07-21T08:00:08.242Z</time>
      </trkpt>
      <trkpt lat="44.19944" lon="0.88631">
        <ele>121</ele>
        <time>2022-07-21T08:00:09.242Z</time>
      </trkpt>
      <trkpt lat="44.19943" lon="0.88631">
        <ele>121</ele>
        <time>2022-07-21T08:00:10.242Z</time>
      </trkpt>
      <trkpt lat="44.19942" lon="0.88632">
        <ele>121</ele>
        <time>2022-07-21T08:00:11.242Z</time>
      </trkpt>
      <trkpt lat="44.19941" lon="0.88632">
        <ele>121</ele>
        <time>2022-07-21T08:00:12.242Z</time>
      </trkpt>
      <trkpt lat="44.1994" lon="0.88632">
        <ele>121</ele>
        <time>2022-07-21T08:00:13.242Z</time>
      </trkpt>
      <trkpt lat="44.19939" lon="0.88633">
        <ele>120</ele>
        <time>2022-07-21T08:00:14.242Z</time>
      </trkpt>
      <trkpt lat="44.19937" lon="0.88633">
        <ele>121</ele>
        <time>2022-07-21T08:00:15.242Z</time>
      </trkpt>
      <trkpt lat="44.19936" lon="0.88633">
        <ele>120</ele>
        <time>2022-07-21T08:00:16.242Z</time>
      </trkpt>
      <trkpt lat="44.19935" lon="0.88634">
        <ele>120</ele>
        <time>2022-07-21T08:00:17.242Z</time>
      </trkpt>
      <trkpt lat="44.19934" lon="0.88634">
        <ele>120</ele>
        <time>2022-07-21T08:00:18.242Z</time>
      </trkpt>
      <trkpt lat="44.19933" lon="0.88635">
        <ele>120</ele>
        <time>2022-07-21T08:00:19.242Z</time>
      </trkpt>
      <trkpt lat="44.19931" lon="0.88635">
        <ele>119</ele>
        <time>2022-07-21T08:00:20.242Z</time>
      </trkpt>
      <trkpt lat="44.1993" lon="0.88635">
        <ele>119</ele>
        <time>2022-07-21T08:00:21.242Z</time>
      </trkpt>
      <trkpt lat="44.19929" lon="0.88635">
        <ele>119</ele>
        <time>2022-07-21T08:00:22.242Z</time>
      </trkpt>
      <trkpt lat="44.19928" lon="0.88636">
        <ele>119</ele>
        <time>2022-07-21T08:00:23.242Z</time>
      </trkpt>
      <trkpt lat="44.19927" lon="0.88636">
        <ele>119</ele>
        <time>2022-07-21T08:00:24.242Z</time>
      </trkpt>
      <trkpt lat="44.19926" lon="0.88636">
        <ele>120</ele>
        <time>2022-07-21T08:00:25.242Z</time>
      </trkpt>
      <trkpt lat="44.19925" lon="0.88636">
        <ele>119</ele>
        <time>2022-07-21T08:00:26.242Z</time>
      </trkpt>
      <trkpt lat="44.19923" lon="0.88636">
        <ele>119</ele>
        <time>2022-07-21T08:00:27.242Z</time>
      </trkpt>
      <trkpt lat="44.19922" lon="0.88637">
        <ele>119</ele>
        <time>2022-07-21T08:00:28.242Z</time>
      </trkpt>
      <trkpt lat="44.19921" lon="0.88637">
        <ele>118</ele>
        <time>2022-07-21T08:00:29.242Z</time>
      </trkpt>
      <trkpt lat="44.1992" lon="0.88637">
        <ele>118</ele>
        <time>2022-07-21T08:00:30.242Z</time>
      </trkpt>
      <trkpt lat="44.19919" lon="0.88638">
        <ele>118</ele>
        <time>2022-07-21T08:00:31.242Z</time>
      </trkpt>
      <trkpt lat="44.19918" lon="0.88638">
        <ele>118</ele>
        <time>2022-07-21T08:00:32.242Z</time>
      </trkpt>
      <trkpt lat="44.19917" lon="0.88638">
        <ele>118</ele>
        <time>2022-07-21T08:00:33.242Z</time>
      </trkpt>
      <trkpt lat="44.19915" lon="0.88639">
        <ele>119</ele>
        <time>2022-07-21T08:00:34.242Z</time>
      </trkpt>
      <trkpt lat="44.19914" lon="0.88639">
        <ele>119</ele>
        <time>2022-07-21T08:00:35.242Z</time>
      </trkpt>
      <trkpt lat="44.19913" lon="0.8864">
        <ele>118</ele>
        <time>2022-07-21T08:00:36.242Z</time>
      </trkpt>
      <trkpt lat="44.19912" lon="0.8864">
        <ele>118</ele>
        <time>2022-07-21T08:00:37.242Z</time>
      </trkpt>
      <trkpt lat="44.1991" lon="0.88641">
        <ele>118</ele>
        <time>2022-07-21T08:00:38.242Z</time>
      </trkpt>
      <trkpt lat="44.19909" lon="0.88641">
        <ele>118</ele>
        <time>2022-07-21T08:00:39.242Z</time>
      </trkpt>
      <trkpt lat="44.19908" lon="0.88641">
        <ele>118</ele>
        <time>2022-07-21T08:00:40.242Z</time>
      </trkpt>
      <trkpt lat="44.19906" lon="0.88642">
        <ele>118</ele>
        <time>2022-07-21T08:00:41.242Z</time>
      </trkpt>
      <trkpt lat="44.19905" lon="0.88642">
        <ele>118</ele>
        <time>2022-07-21T08:00:42.242Z</time>
      </trkpt>
      <trkpt lat="44.19904" lon="0.88642">
        <ele>118</ele>
        <time>2022-07-21T08:00:43.242Z</time>
      </trkpt>
      <trkpt lat="44.19903" lon="0.88643">
        <ele>117</ele>
        <time>2022-07-21T08:00:44.242Z</time>
      </trkpt>
      <trkpt lat="44.19902" lon="0.88643">
        <ele>117</ele>
        <time>2022-07-21T08:00:45.242Z</time>
      </trkpt>
      <trkpt lat="44.19901" lon="0.88643">
        <ele>117</ele>
        <time>2022-07-21T08:00:46.242Z</time>
      </trkpt>
      <trkpt lat="44.19899" lon="0.88643">
        <ele>117</ele>
        <time>2022-07-21T08:00:47.242Z</time>
      </trkpt>
      <trkpt lat="44.19898" lon="0.88643">
        <ele>117</ele>
        <time>2022-07-21T08:00:48.242Z</time>
      </trkpt>
      <trkpt lat="44.19897" lon="0.88643">
        <ele>117</ele>
        <time>2022-07-21T08:00:49.242Z</time>
      </trkpt>
      <trkpt lat="44.19895" lon="0.88643">
        <ele>116</ele>
        <time>2022-07-21T08:00:50.242Z</time>
      </trkpt>
      <trkpt lat="44.19894" lon="0.88643">
        <ele>116</ele>
        <time>2022-07-21T08:00:51.242Z</time>
      </trkpt>
      <trkpt lat="44.19893" lon="0.88643">
        <ele>115</ele>
        <time>2022-07-21T08:00:52.242Z</time>
      </trkpt>
      <trkpt lat="44.19892" lon="0.88643">
        <ele>116</ele>
        <time>2022-07-21T08:00:53.242Z</time>
      </trkpt>
      <trkpt lat="44.1989" lon="0.88643">
        <ele>116</ele>
        <time>2022-07-21T08:00:54.242Z</time>
      </trkpt>
      <trkpt lat="44.19889" lon="0.88643">
        <ele>116</ele>
        <time>2022-07-21T08:00:55.242Z</time>
      </trkpt>
      <trkpt lat="44.19888" lon="0.88643">
        <ele>116</ele>
        <time>2022-07-21T08:00:56.242Z</time>
      </trkpt>
      <trkpt lat="44.19887" lon="0.88643">
        <ele>116</ele>
        <time>2022-07-21T08:00:57.242Z</time>
      </trkpt>
      <trkpt lat="44.19885" lon="0.88642">
        <ele>115</ele>
        <time>2022-07-21T08:00:58.242Z</time>
      </trkpt>
      <trkpt lat="44.19884" lon="0.88642">
        <ele>116</ele>
        <time>2022-07-21T08:00:59.242Z</time>
      </trkpt>
      <trkpt lat="44.19883" lon="0.88642">
        <ele>116</ele>
        <time>2022-07-21T08:01:00.242Z</time>
      </trkpt>
      <trkpt lat="44.19882" lon="0.88641">
        <ele>115</ele>
        <time>2022-07-21T08:01:01.242Z</time>
      </trkpt>
      <trkpt lat="44.19881" lon="0.88641">
        <ele>116</ele>
        <time>2022-07-21T08:01:02.242Z</time>
      </trkpt>
      <trkpt lat="44.1988" lon="0.8864">
        <ele>116</ele>
        <time>2022-07-21T08:01:03.242Z</time>
      </trkpt>
      <trkpt lat="44.19879" lon="0.8864">
        <ele>116</ele>
        <time>2022-07-21T08:01:04.242Z</time>
      </trkpt>
      <trkpt lat="44.19878" lon="0.88639">
        <ele>116</ele>
        <time>2022-07-21T08:01:05.242Z</time>
      </trkpt>
      <trkpt lat="44.19876" lon="0.88639">
        <ele>116</ele>
        <time>2022-07-21T08:01:06.242Z</time>
      </trkpt>
      <trkpt lat="44.19875" lon="0.88638">
        <ele>116</ele>
        <time>2022-07-21T08:01:07.242Z</time>
      </trkpt>
      <trkpt lat="44.19874" lon="0.88638">
        <ele>116</ele>
        <time>2022-07-21T08:01:08.242Z</time>
      </trkpt>
      <trkpt lat="44.19873" lon="0.88638">
        <ele>117</ele>
        <time>2022-07-21T08:01:09.242Z</time>
      </trkpt>
      <trkpt lat="44.19872" lon="0.88637">
        <ele>117</ele>
        <time>2022-07-21T08:01:10.242Z</time>
      </trkpt>
      <trkpt lat="44.19871" lon="0.88637">
        <ele>117</ele>
        <time>2022-07-21T08:01:11.242Z</time>
      </trkpt>
      <trkpt lat="44.19869" lon="0.88636">
        <ele>117</ele>
        <time>2022-07-21T08:01:12.242Z</time>
      </trkpt>
      <trkpt lat="44.19868" lon="0.88636">
        <ele>117</ele>
        <time>2022-07-21T08:01:13.242Z</time>
      </trkpt>
      <trkpt lat="44.19867" lon="0.88635">
        <ele>117</ele>
        <time>2022-07-21T08:01:14.242Z</time>
      </trkpt>
      <trkpt lat="44.19866" lon="0.88634">
        <ele>117</ele>
        <time>2022-07-21T08:01:15.242Z</time>
      </trkpt>
      <trkpt lat="44.19865" lon="0.88633">
        <ele>117</ele>
        <time>2022-07-21T08:01:16.242Z</time>
      </trkpt>
      <trkpt lat="44.19864" lon="0.88632">
        <ele>117</ele>
        <time>2022-07-21T08:01:17.242Z</time>
      </trkpt>
      <trkpt lat="44.19863" lon="0.88632">
        <ele>117</ele>
        <time>2022-07-21T08:01:18.242Z</time>
      </trkpt>
      <trkpt lat="44.19862" lon="0.88632">
        <ele>117</ele>
        <time>2022-07-21T08:01:19.242Z</time>
      </trkpt>
      <trkpt lat="44.19861" lon="0.88631">
        <ele>117</ele>
        <time>2022-07-21T08:01:20.242Z</time>
      </trkpt>
      <trkpt lat="44.1986" lon="0.88631">
        <ele>116</ele>
        <time>2022-07-21T08:01:21.242Z</time>
      </trkpt>
      <trkpt lat="44.19859" lon="0.88631">
        <ele>116</ele>
        <time>2022-07-21T08:01:22.242Z</time>
      </trkpt>
      <trkpt lat="44.19858" lon="0.88631">
        <ele>117</ele>
        <time>2022-07-21T08:01:23.242Z</time>
      </trkpt>
      <trkpt lat="44.19856" lon="0.88631">
        <ele>117</ele>
        <time>2022-07-21T08:01:24.242Z</time>
      </trkpt>
      <trkpt lat="44.19855" lon="0.88631">
        <ele>118</ele>
        <time>2022-07-21T08:01:25.242Z</time>
      </trkpt>
      <trkpt lat="44.19854" lon="0.88631">
        <ele>117</ele>
        <time>2022-07-21T08:01:26.242Z</time>
      </trkpt>
      <trkpt lat="44.19852" lon="0.8863">
        <ele>117</ele>
        <time>2022-07-21T08:01:27.242Z</time>
      </trkpt>
      <trkpt lat="44.19851" lon="0.8863">
        <ele>117</ele>
        <time>2022-07-21T08:01:28.242Z</time>
      </trkpt>
      <trkpt lat="44.1985" lon="0.8863">
        <ele>116</ele>
        <time>2022-07-21T08:01:29.242Z</time>
      </trkpt>
      <trkpt lat="44.19849" lon="0.88629">
        <ele>116</ele>
        <time>2022-07-21T08:01:30.242Z</time>
      </trkpt>
      <trkpt lat="44.19848" lon="0.88629">
        <ele>116</ele>
        <time>2022-07-21T08:01:31.242Z</time>
      </trkpt>
      <trkpt lat="44.19847" lon="0.88628">
        <ele>116</ele>
        <time>2022-07-21T08:01:32.242Z</time>
      </trkpt>
      <trkpt lat="44.19845" lon="0.88628">
        <ele>116</ele>
        <time>2022-07-21T08:01:33.242Z</time>
      </trkpt>
      <trkpt lat="44.19844" lon="0.88627">
        <ele>116</ele>
        <time>2022-07-21T08:01:34.242Z</time>
      </trkpt>
      <trkpt lat="44.19843" lon="0.88627">
        <ele>115</ele>
        <time>2022-07-21T08:01:35.242Z</time>
      </trkpt>
      <trkpt lat="44.19841" lon="0.88627">
        <ele>114</ele>
        <time>2022-07-21T08:01:36.242Z</time>
      </trkpt>
      <trkpt lat="44.1984" lon="0.88627">
        <ele>114</ele>
        <time>2022-07-21T08:01:37.242Z</time>
      </trkpt>
      <trkpt lat="44.19839" lon="0.88627">
        <ele>114</ele>
        <time>2022-07-21T08:01:38.242Z</time>
      </trkpt>
      <trkpt lat="44.19838" lon="0.88627">
        <ele>114</ele>
        <time>2022-07-21T08:01:39.242Z</time>
      </trkpt>
      <trkpt lat="44.19836" lon="0.88626">
        <ele>113</ele>
        <time>2022-07-21T08:01:40.242Z</time>
      </trkpt>
      <trkpt lat="44.19835" lon="0.88626">
        <ele>112</ele>
        <time>2022-07-21T08:01:41.242Z</time>
      </trkpt>
      <trkpt lat="44.19834" lon="0.88626">
        <ele>112</ele>
        <time>2022-07-21T08:01:42.242Z</time>
      </trkpt>
      <trkpt lat="44.19833" lon="0.88626">
        <ele>111</ele>
        <time>2022-07-21T08:01:43.242Z</time>
      </trkpt>
      <trkpt lat="44.19832" lon="0.88626">
        <ele>111</ele>
        <time>2022-07-21T08:01:44.242Z</time>
      </trkpt>
      <trkpt lat="44.19831" lon="0.88626">
        <ele>111</ele>
        <time>2022-07-21T08:01:45.242Z</time>
      </trkpt>
      <trkpt lat="44.1983" lon="0.88626">
        <ele>111</ele>
        <time>2022-07-21T08:01:46.242Z</time>
      </trkpt>
      <trkpt lat="44.19829" lon="0.88626">
        <ele>111</ele>
        <time>2022-07-21T08:01:47.242Z</time>
      </trkpt>
      <trkpt lat="44.19828" lon="0.88626">
        <ele>110</ele>
        <time>2022-07-21T08:01:48.242Z</time>
      </trkpt>
      <trkpt lat="44.19827" lon="0.88626">
        <ele>111</ele>
        <time>2022-07-21T08:01:49.242Z</time>
      </trkpt>
      <trkpt lat="44.19826" lon="0.88625">
        <ele>110</ele>
        <time>2022-07-21T08:01:50.242Z</time>
      </trkpt>
      <trkpt lat="44.19825" lon="0.88625">
        <ele>110</ele>
        <time>2022-07-21T08:01:51.242Z</time>
      </trkpt>
      <trkpt lat="44.19824" lon="0.88625">
        <ele>109</ele>
        <time>2022-07-21T08:01:52.242Z</time>
      </trkpt>
      <trkpt lat="44.19823" lon="0.88625">
        <ele>109</ele>
        <time>2022-07-21T08:01:53.242Z</time>
      </trkpt>
      <trkpt lat="44.19821" lon="0.88625">
        <ele>108</ele>
        <time>2022-07-21T08:01:54.242Z</time>
      </trkpt>
      <trkpt lat="44.1982" lon="0.88625">
        <ele>108</ele>
        <time>2022-07-21T08:01:55.242Z</time>
      </trkpt>
      <trkpt lat="44.19819" lon="0.88626">
        <ele>108</ele>
        <time>2022-07-21T08:01:56.242Z</time>
      </trkpt>
      <trkpt lat="44.19818" lon="0.88626">
        <ele>108</ele>
        <time>2022-07-21T08:01:57.242Z</time>
      </trkpt>
      <trkpt lat="44.19817" lon="0.88626">
        <ele>107</ele>
        <time>2022-07-21T08:01:58.242Z</time>
      </trkpt>
      <trkpt lat="44.19816" lon="0.88626">
        <ele>107</ele>
        <time>2022-07-21T08:01:59.242Z</time>
      </trkpt>
      <trkpt lat="44.19815" lon="0.88626">
        <ele>107</ele>
        <time>2022-07-21T08:02:00.242Z</time>
      </trkpt>
      <trkpt lat="44.19813" lon="0.88626">
        <ele>107</ele>
        <time>2022-07-21T08:02:01.242Z</time>
      </trkpt>
      <trkpt lat="44.19812" lon="0.88626">
        <ele>106</ele>
        <time>2022-07-21T08:02:02.242Z</time>
      </trkpt>
      <trkpt lat="44.19811" lon="0.88626">
        <ele>107</ele>
        <time>2022-07-21T08:02:03.242Z</time>
      </trkpt>
      <trkpt lat="44.19809" lon="0.88627">
        <ele>107</ele>
        <time>2022-07-21T08:02:04.242Z</time>
      </trkpt>
      <trkpt lat="44.19808" lon="0.88627">
        <ele>107</ele>
        <time>2022-07-21T08:02:05.242Z</time>
      </trkpt>
      <trkpt lat="44.19807" lon="0.88627">
        <ele>107</ele>
        <time>2022-07-21T08:02:06.242Z</time>
      </trkpt>
      <trkpt lat="44.19806" lon="0.88627">
        <ele>106</ele>
        <time>2022-07-21T08:02:07.242Z</time>
      </trkpt>
      <trkpt lat="44.19805" lon="0.88627">
        <ele>106</ele>
        <time>2022-07-21T08:02:08.242Z</time>
      </trkpt>
      <trkpt lat="44.19804" lon="0.88627">
        <ele>106</ele>
        <time>2022-07-21T08:02:09.242Z</time>
      </trkpt>
      <trkpt lat="44.19803" lon="0.88627">
        <ele>106</ele>
        <time>2022-07-21T08:02:10.242Z</time>
      </trkpt>
      <trkpt lat="44.19802" lon="0.88627">
        <ele>106</ele>
        <time>2022-07-21T08:02:11.242Z</time>
      </trkpt>
      <trkpt lat="44.19801" lon="0.88627">
        <ele>106</ele>
        <time>2022-07-21T08:02:12.242Z</time>
      </trkpt>
      <trkpt lat="44.198" lon="0.88627">
        <ele>106</ele>
        <time>2022-07-21T08:02:13.242Z</time>
      </trkpt>
      <trkpt lat="44.19799" lon="0.88627">
        <ele>106</ele>
        <time>2022-07-21T08:02:14.242Z</time>
      </trkpt>
      <trkpt lat="44.19798" lon="0.88627">
        <ele>105</ele>
        <time>2022-07-21T08:02:15.242Z</time>
      </trkpt>
      <trkpt lat="44.19797" lon="0.88627">
        <ele>105</ele>
        <time>2022-07-21T08:02:16.242Z</time>
      </trkpt>
      <trkpt lat="44.19795" lon="0.88627">
        <ele>105</ele>
        <time>2022-07-21T08:02:17.242Z</time>
      </trkpt>
      <trkpt lat="44.19794" lon="0.88627">
        <ele>105</ele>
        <time>2022-07-21T08:02:18.242Z</time>
      </trkpt>
      <trkpt lat="44.19793" lon="0.88627">
        <ele>105</ele>
        <time>2022-07-21T08:02:19.242Z</time>
      </trkpt>
      <trkpt lat="44.19792" lon="0.88627">
        <ele>105</ele>
        <time>2022-07-21T08:02:20.242Z</time>
      </trkpt>
      <trkpt lat="44.19791" lon="0.88627">
        <ele>105</ele>
        <time>2022-07-21T08:02:21.242Z</time>
      </trkpt>
      <trkpt lat="44.19789" lon="0.88626">
        <ele>105</ele>
        <time>2022-07-21T08:02:22.242Z</time>
      </trkpt>
      <trkpt lat="44.19788" lon="0.88626">
        <ele>105</ele>
        <time>2022-07-21T08:02:23.242Z</time>
      </trkpt>
      <trkpt lat="44.19787" lon="0.88626">
        <ele>104</ele>
        <time>2022-07-21T08:02:24.242Z</time>
      </trkpt>
      <trkpt lat="44.19786" lon="0.88627">
        <ele>104</ele>
        <time>2022-07-21T08:02:25.242Z</time>
      </trkpt>
      <trkpt lat="44.19785" lon="0.88627">
        <ele>104</ele>
        <time>2022-07-21T08:02:26.242Z</time>
      </trkpt>
      <trkpt lat="44.19784" lon="0.88627">
        <ele>104</ele>
        <time>2022-07-21T08:02:27.242Z</time>
      </trkpt>
      <trkpt lat="44.19783" lon="0.88627">
        <ele>104</ele>
        <time>2022-07-21T08:02:28.242Z</time>
      </trkpt>
      <trkpt lat="44.19781" lon="0.88627">
        <ele>104</ele>
        <time>2022-07-21T08:02:29.242Z</time>
      </trkpt>
      <trkpt lat="44.1978" lon="0.88627">
        <ele>103</ele>
        <time>2022-07-21T08:02:30.242Z</time>
      </trkpt>
      <trkpt lat="44.19779" lon="0.88627">
        <ele>103</ele>
        <time>2022-07-21T08:02:31.242Z</time>
      </trkpt>
      <trkpt lat="44.19778" lon="0.88627">
        <ele>103</ele>
        <time>2022-07-21T08:02:32.242Z</time>
      </trkpt>
      <trkpt lat="44.19777" lon="0.88627">
        <ele>103</ele>
        <time>2022-07-21T08:02:33.242Z</time>
      </trkpt>
      <trkpt lat="44.19776" lon="0.88628">
        <ele>103</ele>
        <time>2022-07-21T08:02:34.242Z</time>
      </trkpt>
      <trkpt lat="44.19775" lon="0.88628">
        <ele>103</ele>
        <time>2022-07-21T08:02:35.242Z</time>
      </trkpt>
      <trkpt lat="44.19773" lon="0.88629">
        <ele>103</ele>
        <time>2022-07-21T08:02:36.242Z</time>
      </trkpt>
      <trkpt lat="44.19772" lon="0.88629">
        <ele>102</ele>
        <time>2022-07-21T08:02:37.242Z</time>
      </trkpt>
      <trkpt lat="44.19771" lon="0.88629">
        <ele>102</ele>
        <time>2022-07-21T08:02:38.242Z</time>
      </trkpt>
      <trkpt lat="44.19769" lon="0.8863">
        <ele>103</ele>
        <time>2022-07-21T08:02:39.242Z</time>
      </trkpt>
      <trkpt lat="44.19768" lon="0.8863">
        <ele>103</ele>
        <time>2022-07-21T08:02:40.242Z</time>
      </trkpt>
      <trkpt lat="44.19767" lon="0.8863">
        <ele>102</ele>
        <time>2022-07-21T08:02:41.242Z</time>
      </trkpt>
      <trkpt lat="44.19767" lon="0.8863">
        <ele>102</ele>
        <time>2022-07-21T08:02:42.242Z</time>
      </trkpt>
      <trkpt lat="44.19766" lon="0.88631">
        <ele>102</ele>
        <time>2022-07-21T08:02:43.242Z</time>
      </trkpt>
      <trkpt lat="44.19765" lon="0.88631">
        <ele>102</ele>
        <time>2022-07-21T08:02:44.242Z</time>
      </trkpt>
      <trkpt lat="44.19765" lon="0.88632">
        <ele>102</ele>
        <time>2022-07-21T08:02:45.242Z</time>
      </trkpt>
      <trkpt lat="44.19764" lon="0.88633">
        <ele>102</ele>
        <time>2022-07-21T08:02:46.242Z</time>
      </trkpt>
      <trkpt lat="44.19763" lon="0.88634">
        <ele>103</ele>
        <time>2022-07-21T08:02:47.242Z</time>
      </trkpt>
      <trkpt lat="44.19763" lon="0.88635">
        <ele>103</ele>
        <time>2022-07-21T08:02:48.242Z</time>
      </trkpt>
      <trkpt lat="44.19762" lon="0.88636">
        <ele>103</ele>
        <time>2022-07-21T08:02:49.242Z</time>
      </trkpt>
      <trkpt lat="44.19761" lon="0.88637">
        <ele>103</ele>
        <time>2022-07-21T08:02:50.242Z</time>
      </trkpt>
      <trkpt lat="44.1976" lon="0.88638">
        <ele>103</ele>
        <time>2022-07-21T08:02:51.242Z</time>
      </trkpt>
      <trkpt lat="44.19759" lon="0.88639">
        <ele>103</ele>
        <time>2022-07-21T08:02:52.242Z</time>
      </trkpt>
      <trkpt lat="44.19758" lon="0.8864">
        <ele>104</ele>
        <time>2022-07-21T08:02:53.242Z</time>
      </trkpt>
      <trkpt lat="44.19758" lon="0.88641">
        <ele>104</ele>
        <time>2022-07-21T08:02:54.242Z</time>
      </trkpt>
      <trkpt lat="44.19757" lon="0.88642">
        <ele>103</ele>
        <time>2022-07-21T08:02:55.242Z</time>
      </trkpt>
      <trkpt lat="44.19756" lon="0.88642">
        <ele>104</ele>
        <time>2022-07-21T08:02:56.242Z</time>
      </trkpt>
      <trkpt lat="44.19756" lon="0.88643">
        <ele>104</ele>
        <time>2022-07-21T08:02:57.242Z</time>
      </trkpt>
      <trkpt lat="44.19755" lon="0.88644">
        <ele>104</ele>
        <time>2022-07-21T08:02:58.242Z</time>
      </trkpt>
      <trkpt lat="44.19755" lon="0.88644">
        <ele>104</ele>
        <time>2022-07-21T08:02:59.242Z</time>
      </trkpt>
      <trkpt lat="44.19754" lon="0.88645">
        <ele>103</ele>
        <time>2022-07-21T08:03:00.242Z</time>
      </trkpt>
      <trkpt lat="44.19754" lon="0.88646">
        <ele>104</ele>
        <time>2022-07-21T08:03:01.242Z</time>
      </trkpt>
      <trkpt lat="44.19754" lon="0.88646">
        <ele>104</ele>
        <time>2022-07-21T08:03:02.242Z</time>
      </trkpt>
      <trkpt lat="44.19753" lon="0.88647">
        <ele>104</ele>
        <time>2022-07-21T08:03:03.242Z</time>
      </trkpt>
      <trkpt lat="44.19753" lon="0.88647">
        <ele>104</ele>
        <time>2022-07-21T08:03:04.242Z</time>
      </trkpt>
      <trkpt lat="44.19753" lon="0.88648">
        <ele>104</ele>
        <time>2022-07-21T08:03:05.242Z</time>
      </trkpt>
      <trkpt lat="44.19752" lon="0.88648">
        <ele>104</ele>
        <time>2022-07-21T08:03:06.242Z</time>
      </trkpt>
      <trkpt lat="44.19752" lon="0.88648">
        <ele>104</ele>
        <time>2022-07-21T08:03:07.242Z</time>
      </trkpt>
      <trkpt lat="44.19752" lon="0.88648">
        <ele>103</ele>
        <time>2022-07-21T08:03:08.242Z</time>
      </trkpt>
      <trkpt lat="44.19752" lon="0.88648">
        <ele>103</ele>
        <time>2022-07-21T08:03:09.242Z</time>
      </trkpt>
      <trkpt lat="44.19752" lon="0.88648">
        <ele>103</ele>
        <time>2022-07-21T08:03:10.242Z</time>
      </trkpt>
      <trkpt lat="44.19752" lon="0.88648">
        <ele>103</ele>
        <time>2022-07-21T08:03:11.242Z</time>
      </trkpt>
      <trkpt lat="44.19752" lon="0.88648">
        <ele>103</ele>
        <time>2022-07-21T08:03:12.242Z</time>
      </trkpt>
      <trkpt lat="44.19753" lon="0.88648">
        <ele>103</ele>
        <time>2022-07-21T08:03:13.242Z</time>
      </trkpt>
      <trkpt lat="44.19753" lon="0.88648">
        <ele>103</ele>
        <time>2022-07-21T08:03:14.242Z</time>
      </trkpt>
      <trkpt lat="44.19753" lon="0.88649">
        <ele>102</ele>
        <time>2022-07-21T08:03:55.262Z</time>
      </trkpt>
      <trkpt lat="44.19753" lon="0.88649">
        <ele>102</ele>
        <time>2022-07-21T08:03:56.262Z</time>
      </trkpt>
      <trkpt lat="44.19753" lon="0.8865">
        <ele>101</ele>
        <time>2022-07-21T08:03:57.262Z</time>
      </trkpt>
      <trkpt lat="44.19754" lon="0.88652">
        <ele>102</ele>
        <time>2022-07-21T08:03:58.262Z</time>
      </trkpt>
      <trkpt lat="44.19754" lon="0.88654">
        <ele>102</ele>
        <time>2022-07-21T08:03:59.262Z</time>
      </trkpt>
      <trkpt lat="44.19755" lon="0.88656">
        <ele>101</ele>
        <time>2022-07-21T08:04:00.262Z</time>
      </trkpt>
      <trkpt lat="44.19755" lon="0.88658">
        <ele>101</ele>
        <time>2022-07-21T08:04:01.262Z</time>
      </trkpt>
      <trkpt lat="44.19754" lon="0.88659">
        <ele>101</ele>
        <time>2022-07-21T08:04:02.262Z</time>
      </trkpt>
      <trkpt lat="44.19754" lon="0.88661">
        <ele>102</ele>
        <time>2022-07-21T08:04:03.262Z</time>
      </trkpt>
      <trkpt lat="44.19754" lon="0.88662">
        <ele>101</ele>
        <time>2022-07-21T08:04:04.262Z</time>
      </trkpt>
      <trkpt lat="44.19755" lon="0.88664">
        <ele>102</ele>
        <time>2022-07-21T08:04:05.262Z</time>
      </trkpt>
      <trkpt lat="44.19755" lon="0.88666">
        <ele>102</ele>
        <time>2022-07-21T08:04:06.262Z</time>
      </trkpt>
      <trkpt lat="44.19755" lon="0.88668">
        <ele>102</ele>
        <time>2022-07-21T08:04:07.262Z</time>
      </trkpt>
      <trkpt lat="44.19755" lon="0.88669">
        <ele>102</ele>
        <time>2022-07-21T08:04:08.262Z</time>
      </trkpt>
      <trkpt lat="44.19755" lon="0.88671">
        <ele>102</ele>
        <time>2022-07-21T08:04:09.262Z</time>
      </trkpt>
      <trkpt lat="44.19755" lon="0.88673">
        <ele>103</ele>
        <time>2022-07-21T08:04:10.262Z</time>
      </trkpt>
      <trkpt lat="44.19755" lon="0.88674">
        <ele>101</ele>
        <time>2022-07-21T08:04:11.262Z</time>
      </trkpt>
      <trkpt lat="44.19755" lon="0.88676">
        <ele>101</ele>
        <time>2022-07-21T08:04:12.262Z</time>
      </trkpt>
      <trkpt lat="44.19755" lon="0.88677">
        <ele>101</ele>
        <time>2022-07-21T08:04:13.262Z</time>
      </trkpt>
      <trkpt lat="44.19755" lon="0.88679">
        <ele>100</ele>
        <time>2022-07-21T08:04:14.262Z</time>
      </trkpt>
      <trkpt lat="44.19755" lon="0.8868">
        <ele>100</ele>
        <time>2022-07-21T08:04:15.262Z</time>
      </trkpt>
      <trkpt lat="44.19755" lon="0.88682">
        <ele>99</ele>
        <time>2022-07-21T08:04:16.262Z</time>
      </trkpt>
      <trkpt lat="44.19755" lon="0.88684">
        <ele>99</ele>
        <time>2022-07-21T08:04:17.262Z</time>
      </trkpt>
      <trkpt lat="44.19755" lon="0.88686">
        <ele>98</ele>
        <time>2022-07-21T08:04:18.262Z</time>
      </trkpt>
      <trkpt lat="44.19755" lon="0.88687">
        <ele>98</ele>
        <time>2022-07-21T08:04:19.262Z</time>
      </trkpt>
      <trkpt lat="44.19754" lon="0.88688">
        <ele>99</ele>
        <time>2022-07-21T08:04:20.262Z</time>
      </trkpt>
      <trkpt lat="44.19754" lon="0.88689">
        <ele>99</ele>
        <time>2022-07-21T08:04:21.262Z</time>
      </trkpt>
      <trkpt lat="44.19754" lon="0.8869">
        <ele>99</ele>
        <time>2022-07-21T08:04:22.262Z</time>
      </trkpt>
      <trkpt lat="44.19754" lon="0.8869">
        <ele>99</ele>
        <time>2022-07-21T08:04:23.262Z</time>
      </trkpt>
      <trkpt lat="44.19755" lon="0.88692">
        <ele>99</ele>
        <time>2022-07-21T08:04:24.262Z</time>
      </trkpt>
      <trkpt lat="44.19755" lon="0.88693">
        <ele>99</ele>
        <time>2022-07-21T08:04:25.262Z</time>
      </trkpt>
      <trkpt lat="44.19755" lon="0.88695">
        <ele>99</ele>
        <time>2022-07-21T08:04:26.262Z</time>
      </trkpt>
      <trkpt lat="44.19755" lon="0.88697">
        <ele>99</ele>
        <time>2022-07-21T08:04:27.262Z</time>
      </trkpt>
      <trkpt lat="44.19755" lon="0.88699">
        <ele>99</ele>
        <time>2022-07-21T08:04:28.262Z</time>
      </trkpt>
      <trkpt lat="44.19755" lon="0.887">
        <ele>99</ele>
        <time>2022-07-21T08:04:29.262Z</time>
      </trkpt>
      <trkpt lat="44.19755" lon="0.88702">
        <ele>99</ele>
        <time>2022-07-21T08:04:30.262Z</time>
      </trkpt>
      <trkpt lat="44.19755" lon="0.88704">
        <ele>99</ele>
        <time>2022-07-21T08:04:31.262Z</time>
      </trkpt>
      <trkpt lat="44.19755" lon="0.88705">
        <ele>98</ele>
        <time>2022-07-21T08:04:32.262Z</time>
      </trkpt>
      <trkpt lat="44.19755" lon="0.88706">
        <ele>98</ele>
        <time>2022-07-21T08:04:33.262Z</time>
      </trkpt>
      <trkpt lat="44.19755" lon="0.88708">
        <ele>98</ele>
        <time>2022-07-21T08:04:34.262Z</time>
      </trkpt>
      <trkpt lat="44.19755" lon="0.88709">
        <ele>97</ele>
        <time>2022-07-21T08:04:35.262Z</time>
      </trkpt>
      <trkpt lat="44.19755" lon="0.88711">
        <ele>97</ele>
        <time>2022-07-21T08:04:36.262Z</time>
      </trkpt>
      <trkpt lat="44.19755" lon="0.88713">
        <ele>97</ele>
        <time>2022-07-21T08:04:37.262Z</time>
      </trkpt>
      <trkpt lat="44.19755" lon="0.88715">
        <ele>97</ele>
        <time>2022-07-21T08:04:38.262Z</time>
      </trkpt>
      <trkpt lat="44.19755" lon="0.88717">
        <ele>97</ele>
        <time>2022-07-21T08:04:39.262Z</time>
      </trkpt>
      <trkpt lat="44.19755" lon="0.88719">
        <ele>97</ele>
        <time>2022-07-21T08:04:40.262Z</time>
      </trkpt>
      <trkpt lat="44.19756" lon="0.8872">
        <ele>97</ele>
        <time>2022-07-21T08:04:41.262Z</time>
      </trkpt>
      <trkpt lat="44.19756" lon="0.88722">
        <ele>97</ele>
        <time>2022-07-21T08:04:42.262Z</time>
      </trkpt>
      <trkpt lat="44.19756" lon="0.88723">
        <ele>98</ele>
        <time>2022-07-21T08:04:43.262Z</time>
      </trkpt>
      <trkpt lat="44.19756" lon="0.88725">
        <ele>98</ele>
        <time>2022-07-21T08:04:44.262Z</time>
      </trkpt>
      <trkpt lat="44.19756" lon="0.88727">
        <ele>98</ele>
        <time>2022-07-21T08:04:45.262Z</time>
      </trkpt>
      <trkpt lat="44.19756" lon="0.88728">
        <ele>98</ele>
        <time>2022-07-21T08:04:46.262Z</time>
      </trkpt>
      <trkpt lat="44.19757" lon="0.8873">
        <ele>100</ele>
        <time>2022-07-21T08:04:47.262Z</time>
      </trkpt>
      <trkpt lat="44.19758" lon="0.88732">
        <ele>99</ele>
        <time>2022-07-21T08:04:48.262Z</time>
      </trkpt>
      <trkpt lat="44.19759" lon="0.88733">
        <ele>100</ele>
        <time>2022-07-21T08:04:49.262Z</time>
      </trkpt>
      <trkpt lat="44.19759" lon="0.88735">
        <ele>100</ele>
        <time>2022-07-21T08:04:50.262Z</time>
      </trkpt>
      <trkpt lat="44.19758" lon="0.88736">
        <ele>101</ele>
        <time>2022-07-21T08:04:51.262Z</time>
      </trkpt>
      <trkpt lat="44.19758" lon="0.88738">
        <ele>100</ele>
        <time>2022-07-21T08:04:52.262Z</time>
      </trkpt>
      <trkpt lat="44.19758" lon="0.8874">
        <ele>100</ele>
        <time>2022-07-21T08:04:53.262Z</time>
      </trkpt>
      <trkpt lat="44.19758" lon="0.88741">
        <ele>99</ele>
        <time>2022-07-21T08:04:54.262Z</time>
      </trkpt>
      <trkpt lat="44.19758" lon="0.88743">
        <ele>99</ele>
        <time>2022-07-21T08:04:55.262Z</time>
      </trkpt>
      <trkpt lat="44.19758" lon="0.88744">
        <ele>99</ele>
        <time>2022-07-21T08:04:56.262Z</time>
      </trkpt>
      <trkpt lat="44.19758" lon="0.88745">
        <ele>98</ele>
        <time>2022-07-21T08:04:57.262Z</time>
      </trkpt>
      <trkpt lat="44.19757" lon="0.88747">
        <ele>98</ele>
        <time>2022-07-21T08:04:58.262Z</time>
      </trkpt>
      <trkpt lat="44.19757" lon="0.88748">
        <ele>98</ele>
        <time>2022-07-21T08:04:59.262Z</time>
      </trkpt>
      <trkpt lat="44.19757" lon="0.88749">
        <ele>97</ele>
        <time>2022-07-21T08:05:00.262Z</time>
      </trkpt>
      <trkpt lat="44.19757" lon="0.8875">
        <ele>97</ele>
        <time>2022-07-21T08:05:01.262Z</time>
      </trkpt>
      <trkpt lat="44.19757" lon="0.88751">
        <ele>96</ele>
        <time>2022-07-21T08:05:02.262Z</time>
      </trkpt>
      <trkpt lat="44.19757" lon="0.88752">
        <ele>96</ele>
        <time>2022-07-21T08:05:03.262Z</time>
      </trkpt>
      <trkpt lat="44.19758" lon="0.88754">
        <ele>96</ele>
        <time>2022-07-21T08:05:04.262Z</time>
      </trkpt>
      <trkpt lat="44.19758" lon="0.88755">
        <ele>96</ele>
        <time>2022-07-21T08:05:05.262Z</time>
      </trkpt>
      <trkpt lat="44.19758" lon="0.88755">
        <ele>96</ele>
        <time>2022-07-21T08:05:06.262Z</time>
      </trkpt>
      <trkpt lat="44.19759" lon="0.88756">
        <ele>95</ele>
        <time>2022-07-21T08:05:07.262Z</time>
      </trkpt>
      <trkpt lat="44.1976" lon="0.88756">
        <ele>95</ele>
        <time>2022-07-21T08:05:08.262Z</time>
      </trkpt>
      <trkpt lat="44.19761" lon="0.88757">
        <ele>95</ele>
        <time>2022-07-21T08:05:09.262Z</time>
      </trkpt>
      <trkpt lat="44.19761" lon="0.88758">
        <ele>95</ele>
        <time>2022-07-21T08:05:10.262Z</time>
      </trkpt>
      <trkpt lat="44.19762" lon="0.88758">
        <ele>95</ele>
        <time>2022-07-21T08:05:11.262Z</time>
      </trkpt>
      <trkpt lat="44.19763" lon="0.88759">
        <ele>95</ele>
        <time>2022-07-21T08:05:12.262Z</time>
      </trkpt>
      <trkpt lat="44.19764" lon="0.8876">
        <ele>95</ele>
        <time>2022-07-21T08:05:13.262Z</time>
      </trkpt>
      <trkpt lat="44.19765" lon="0.88761">
        <ele>95</ele>
        <time>2022-07-21T08:05:14.262Z</time>
      </trkpt>
      <trkpt lat="44.19765" lon="0.88762">
        <ele>95</ele>
        <time>2022-07-21T08:05:15.262Z</time>
      </trkpt>
      <trkpt lat="44.19766" lon="0.88763">
        <ele>95</ele>
        <time>2022-07-21T08:05:16.262Z</time>
      </trkpt>
      <trkpt lat="44.19767" lon="0.88763">
        <ele>95</ele>
        <time>2022-07-21T08:05:17.262Z</time>
      </trkpt>
      <trkpt lat="44.19769" lon="0.88764">
        <ele>95</ele>
        <time>2022-07-21T08:05:18.262Z</time>
      </trkpt>
      <trkpt lat="44.19769" lon="0.88764">
        <ele>94</ele>
        <time>2022-07-21T08:05:19.262Z</time>
      </trkpt>
      <trkpt lat="44.1977" lon="0.88765">
        <ele>94</ele>
        <time>2022-07-21T08:05:20.262Z</time>
      </trkpt>
      <trkpt lat="44.19771" lon="0.88765">
        <ele>94</ele>
        <time>2022-07-21T08:05:21.262Z</time>
      </trkpt>
      <trkpt lat="44.19772" lon="0.88766">
        <ele>94</ele>
        <time>2022-07-21T08:05:22.262Z</time>
      </trkpt>
      <trkpt lat="44.19773" lon="0.88766">
        <ele>93</ele>
        <time>2022-07-21T08:05:23.262Z</time>
      </trkpt>
      <trkpt lat="44.19774" lon="0.88767">
        <ele>93</ele>
        <time>2022-07-21T08:05:24.262Z</time>
      </trkpt>
      <trkpt lat="44.19775" lon="0.88767">
        <ele>93</ele>
        <time>2022-07-21T08:05:25.262Z</time>
      </trkpt>
      <trkpt lat="44.19775" lon="0.88768">
        <ele>92</ele>
        <time>2022-07-21T08:05:26.262Z</time>
      </trkpt>
      <trkpt lat="44.19776" lon="0.88769">
        <ele>92</ele>
        <time>2022-07-21T08:05:27.262Z</time>
      </trkpt>
      <trkpt lat="44.19776" lon="0.8877">
        <ele>94</ele>
        <time>2022-07-21T08:05:28.262Z</time>
      </trkpt>
      <trkpt lat="44.19777" lon="0.88771">
        <ele>97</ele>
        <time>2022-07-21T08:05:29.262Z</time>
      </trkpt>
      <trkpt lat="44.19778" lon="0.88773">
        <ele>98</ele>
        <time>2022-07-21T08:05:30.262Z</time>
      </trkpt>
      <trkpt lat="44.19779" lon="0.88775">
        <ele>98</ele>
        <time>2022-07-21T08:05:31.262Z</time>
      </trkpt>
      <trkpt lat="44.1978" lon="0.88776">
        <ele>99</ele>
        <time>2022-07-21T08:05:32.262Z</time>
      </trkpt>
      <trkpt lat="44.19781" lon="0.88777">
        <ele>99</ele>
        <time>2022-07-21T08:05:33.262Z</time>
      </trkpt>
      <trkpt lat="44.19782" lon="0.88778">
        <ele>99</ele>
        <time>2022-07-21T08:05:34.262Z</time>
      </trkpt>
      <trkpt lat="44.19783" lon="0.88779">
        <ele>100</ele>
        <time>2022-07-21T08:05:35.262Z</time>
      </trkpt>
      <trkpt lat="44.19784" lon="0.8878">
        <ele>100</ele>
        <time>2022-07-21T08:05:36.262Z</time>
      </trkpt>
      <trkpt lat="44.19785" lon="0.88781">
        <ele>101</ele>
        <time>2022-07-21T08:05:37.262Z</time>
      </trkpt>
      <trkpt lat="44.19786" lon="0.88782">
        <ele>102</ele>
        <time>2022-07-21T08:05:38.262Z</time>
      </trkpt>
      <trkpt lat="44.19788" lon="0.88783">
        <ele>102</ele>
        <time>2022-07-21T08:05:39.262Z</time>
      </trkpt>
      <trkpt lat="44.19789" lon="0.88784">
        <ele>102</ele>
        <time>2022-07-21T08:05:40.262Z</time>
      </trkpt>
      <trkpt lat="44.1979" lon="0.88785">
        <ele>102</ele>
        <time>2022-07-21T08:05:41.262Z</time>
      </trkpt>
      <trkpt lat="44.19791" lon="0.88786">
        <ele>102</ele>
        <time>2022-07-21T08:05:42.262Z</time>
      </trkpt>
      <trkpt lat="44.19792" lon="0.88786">
        <ele>102</ele>
        <time>2022-07-21T08:05:43.262Z</time>
      </trkpt>
      <trkpt lat="44.19793" lon="0.88786">
        <ele>102</ele>
        <time>2022-07-21T08:05:44.262Z</time>
      </trkpt>
      <trkpt lat="44.19794" lon="0.88787">
        <ele>103</ele>
        <time>2022-07-21T08:05:45.262Z</time>
      </trkpt>
      <trkpt lat="44.19796" lon="0.88788">
        <ele>103</ele>
        <time>2022-07-21T08:05:46.262Z</time>
      </trkpt>
      <trkpt lat="44.19797" lon="0.88788">
        <ele>103</ele>
        <time>2022-07-21T08:05:47.262Z</time>
      </trkpt>
      <trkpt lat="44.19799" lon="0.88789">
        <ele>103</ele>
        <time>2022-07-21T08:05:48.262Z</time>
      </trkpt>
      <trkpt lat="44.198" lon="0.8879">
        <ele>102</ele>
        <time>2022-07-21T08:05:49.262Z</time>
      </trkpt>
      <trkpt lat="44.19801" lon="0.8879">
        <ele>102</ele>
        <time>2022-07-21T08:05:50.262Z</time>
      </trkpt>
      <trkpt lat="44.19802" lon="0.88791">
        <ele>102</ele>
        <time>2022-07-21T08:05:51.262Z</time>
      </trkpt>
      <trkpt lat="44.19803" lon="0.88791">
        <ele>101</ele>
        <time>2022-07-21T08:05:52.262Z</time>
      </trkpt>
      <trkpt lat="44.19804" lon="0.88791">
        <ele>100</ele>
        <time>2022-07-21T08:05:53.262Z</time>
      </trkpt>
      <trkpt lat="44.19805" lon="0.88792">
        <ele>100</ele>
        <time>2022-07-21T08:05:54.262Z</time>
      </trkpt>
      <trkpt lat="44.19806" lon="0.88793">
        <ele>100</ele>
        <time>2022-07-21T08:05:55.262Z</time>
      </trkpt>
      <trkpt lat="44.19807" lon="0.88793">
        <ele>99</ele>
        <time>2022-07-21T08:05:56.262Z</time>
      </trkpt>
      <trkpt lat="44.19807" lon="0.88794">
        <ele>99</ele>
        <time>2022-07-21T08:05:57.262Z</time>
      </trkpt>
      <trkpt lat="44.19808" lon="0.88794">
        <ele>98</ele>
        <time>2022-07-21T08:05:58.262Z</time>
      </trkpt>
      <trkpt lat="44.19809" lon="0.88795">
        <ele>98</ele>
        <time>2022-07-21T08:05:59.262Z</time>
      </trkpt>
      <trkpt lat="44.19809" lon="0.88795">
        <ele>98</ele>
        <time>2022-07-21T08:06:00.262Z</time>
      </trkpt>
      <trkpt lat="44.1981" lon="0.88796">
        <ele>97</ele>
        <time>2022-07-21T08:06:01.262Z</time>
      </trkpt>
      <trkpt lat="44.19811" lon="0.88796">
        <ele>97</ele>
        <time>2022-07-21T08:06:02.262Z</time>
      </trkpt>
      <trkpt lat="44.19812" lon="0.88797">
        <ele>97</ele>
        <time>2022-07-21T08:06:03.262Z</time>
      </trkpt>
      <trkpt lat="44.19813" lon="0.88797">
        <ele>97</ele>
        <time>2022-07-21T08:06:04.262Z</time>
      </trkpt>
      <trkpt lat="44.19814" lon="0.88797">
        <ele>97</ele>
        <time>2022-07-21T08:06:05.262Z</time>
      </trkpt>
      <trkpt lat="44.19815" lon="0.88798">
        <ele>97</ele>
        <time>2022-07-21T08:06:06.262Z</time>
      </trkpt>
      <trkpt lat="44.19817" lon="0.88798">
        <ele>97</ele>
        <time>2022-07-21T08:06:07.262Z</time>
      </trkpt>
      <trkpt lat="44.19818" lon="0.88799">
        <ele>97</ele>
        <time>2022-07-21T08:06:08.262Z</time>
      </trkpt>
      <trkpt lat="44.19819" lon="0.888">
        <ele>97</ele>
        <time>2022-07-21T08:06:09.262Z</time>
      </trkpt>
      <trkpt lat="44.19821" lon="0.888">
        <ele>97</ele>
        <time>2022-07-21T08:06:10.262Z</time>
      </trkpt>
      <trkpt lat="44.19822" lon="0.88801">
        <ele>96</ele>
        <time>2022-07-21T08:06:11.262Z</time>
      </trkpt>
      <trkpt lat="44.19824" lon="0.88802">
        <ele>97</ele>
        <time>2022-07-21T08:06:12.262Z</time>
      </trkpt>
      <trkpt lat="44.19825" lon="0.88802">
        <ele>96</ele>
        <time>2022-07-21T08:06:13.262Z</time>
      </trkpt>
      <trkpt lat="44.19826" lon="0.88802">
        <ele>96</ele>
        <time>2022-07-21T08:06:14.262Z</time>
      </trkpt>
      <trkpt lat="44.19827" lon="0.88803">
        <ele>97</ele>
        <time>2022-07-21T08:06:15.262Z</time>
      </trkpt>
      <trkpt lat="44.19828" lon="0.88803">
        <ele>96</ele>
        <time>2022-07-21T08:06:16.262Z</time>
      </trkpt>
      <trkpt lat="44.19829" lon="0.88803">
        <ele>97</ele>
        <time>2022-07-21T08:06:17.262Z</time>
      </trkpt>
      <trkpt lat="44.1983" lon="0.88804">
        <ele>96</ele>
        <time>2022-07-21T08:06:18.262Z</time>
      </trkpt>
      <trkpt lat="44.19831" lon="0.88804">
        <ele>95</ele>
        <time>2022-07-21T08:06:19.262Z</time>
      </trkpt>
      <trkpt lat="44.19832" lon="0.88805">
        <ele>96</ele>
        <time>2022-07-21T08:06:20.262Z</time>
      </trkpt>
      <trkpt lat="44.19833" lon="0.88806">
        <ele>96</ele>
        <time>2022-07-21T08:06:21.262Z</time>
      </trkpt>
      <trkpt lat="44.19833" lon="0.88806">
        <ele>95</ele>
        <time>2022-07-21T08:06:22.262Z</time>
      </trkpt>
      <trkpt lat="44.19834" lon="0.88806">
        <ele>95</ele>
        <time>2022-07-21T08:06:23.262Z</time>
      </trkpt>
      <trkpt lat="44.19835" lon="0.88807">
        <ele>95</ele>
        <time>2022-07-21T08:06:24.262Z</time>
      </trkpt>
      <trkpt lat="44.19836" lon="0.88807">
        <ele>94</ele>
        <time>2022-07-21T08:06:25.262Z</time>
      </trkpt>
      <trkpt lat="44.19837" lon="0.88807">
        <ele>94</ele>
        <time>2022-07-21T08:06:26.262Z</time>
      </trkpt>
      <trkpt lat="44.19839" lon="0.88808">
        <ele>94</ele>
        <time>2022-07-21T08:06:27.262Z</time>
      </trkpt>
      <trkpt lat="44.19841" lon="0.88808">
        <ele>94</ele>
        <time>2022-07-21T08:06:28.262Z</time>
      </trkpt>
      <trkpt lat="44.19842" lon="0.88809">
        <ele>94</ele>
        <time>2022-07-21T08:06:29.262Z</time>
      </trkpt>
      <trkpt lat="44.19843" lon="0.88809">
        <ele>95</ele>
        <time>2022-07-21T08:06:30.262Z</time>
      </trkpt>
      <trkpt lat="44.19843" lon="0.88809">
        <ele>95</ele>
        <time>2022-07-21T08:06:31.262Z</time>
      </trkpt>
      <trkpt lat="44.19844" lon="0.8881">
        <ele>94</ele>
        <time>2022-07-21T08:06:32.262Z</time>
      </trkpt>
      <trkpt lat="44.19845" lon="0.8881">
        <ele>95</ele>
        <time>2022-07-21T08:06:33.262Z</time>
      </trkpt>
      <trkpt lat="44.19846" lon="0.8881">
        <ele>95</ele>
        <time>2022-07-21T08:06:34.262Z</time>
      </trkpt>
      <trkpt lat="44.19847" lon="0.88811">
        <ele>96</ele>
        <time>2022-07-21T08:06:35.262Z</time>
      </trkpt>
      <trkpt lat="44.19849" lon="0.88812">
        <ele>96</ele>
        <time>2022-07-21T08:06:36.262Z</time>
      </trkpt>
      <trkpt lat="44.1985" lon="0.88813">
        <ele>97</ele>
        <time>2022-07-21T08:06:37.262Z</time>
      </trkpt>
      <trkpt lat="44.19851" lon="0.88814">
        <ele>98</ele>
        <time>2022-07-21T08:06:38.262Z</time>
      </trkpt>
      <trkpt lat="44.19852" lon="0.88815">
        <ele>98</ele>
        <time>2022-07-21T08:06:39.262Z</time>
      </trkpt>
      <trkpt lat="44.19854" lon="0.88816">
        <ele>97</ele>
        <time>2022-07-21T08:06:40.262Z</time>
      </trkpt>
      <trkpt lat="44.19855" lon="0.88817">
        <ele>98</ele>
        <time>2022-07-21T08:06:41.262Z</time>
      </trkpt>
      <trkpt lat="44.19856" lon="0.88818">
        <ele>99</ele>
        <time>2022-07-21T08:06:42.262Z</time>
      </trkpt>
      <trkpt lat="44.19857" lon="0.88819">
        <ele>98</ele>
        <time>2022-07-21T08:06:43.262Z</time>
      </trkpt>
      <trkpt lat="44.19858" lon="0.8882">
        <ele>97</ele>
        <time>2022-07-21T08:06:44.262Z</time>
      </trkpt>
      <trkpt lat="44.19859" lon="0.88821">
        <ele>96</ele>
        <time>2022-07-21T08:06:45.262Z</time>
      </trkpt>
      <trkpt lat="44.1986" lon="0.88822">
        <ele>96</ele>
        <time>2022-07-21T08:06:46.262Z</time>
      </trkpt>
      <trkpt lat="44.19861" lon="0.88823">
        <ele>96</ele>
        <time>2022-07-21T08:06:47.262Z</time>
      </trkpt>
      <trkpt lat="44.19862" lon="0.88824">
        <ele>96</ele>
        <time>2022-07-21T08:06:48.262Z</time>
      </trkpt>
      <trkpt lat="44.19863" lon="0.88826">
        <ele>96</ele>
        <time>2022-07-21T08:06:49.262Z</time>
      </trkpt>
      <trkpt lat="44.19863" lon="0.88827">
        <ele>96</ele>
        <time>2022-07-21T08:06:50.262Z</time>
      </trkpt>
      <trkpt lat="44.19864" lon="0.88828">
        <ele>96</ele>
        <time>2022-07-21T08:06:51.262Z</time>
      </trkpt>
      <trkpt lat="44.19865" lon="0.88829">
        <ele>96</ele>
        <time>2022-07-21T08:06:52.262Z</time>
      </trkpt>
      <trkpt lat="44.19866" lon="0.88831">
        <ele>96</ele>
        <time>2022-07-21T08:06:53.262Z</time>
      </trkpt>
      <trkpt lat="44.19867" lon="0.88832">
        <ele>96</ele>
        <time>2022-07-21T08:06:54.262Z</time>
      </trkpt>
      <trkpt lat="44.19868" lon="0.88833">
        <ele>96</ele>
        <time>2022-07-21T08:06:55.262Z</time>
      </trkpt>
      <trkpt lat="44.19869" lon="0.88835">
        <ele>95</ele>
        <time>2022-07-21T08:06:56.262Z</time>
      </trkpt>
      <trkpt lat="44.1987" lon="0.88837">
        <ele>96</ele>
        <time>2022-07-21T08:06:57.262Z</time>
      </trkpt>
      <trkpt lat="44.1987" lon="0.88838">
        <ele>96</ele>
        <time>2022-07-21T08:06:58.262Z</time>
      </trkpt>
      <trkpt lat="44.19871" lon="0.8884">
        <ele>96</ele>
        <time>2022-07-21T08:06:59.262Z</time>
      </trkpt>
      <trkpt lat="44.19871" lon="0.88841">
        <ele>96</ele>
        <time>2022-07-21T08:07:00.262Z</time>
      </trkpt>
      <trkpt lat="44.19872" lon="0.88842">
        <ele>97</ele>
        <time>2022-07-21T08:07:01.262Z</time>
      </trkpt>
      <trkpt lat="44.19872" lon="0.88844">
        <ele>98</ele>
        <time>2022-07-21T08:07:02.262Z</time>
      </trkpt>
      <trkpt lat="44.19872" lon="0.88846">
        <ele>97</ele>
        <time>2022-07-21T08:07:03.262Z</time>
      </trkpt>
      <trkpt lat="44.19873" lon="0.88848">
        <ele>96</ele>
        <time>2022-07-21T08:07:04.262Z</time>
      </trkpt>
      <trkpt lat="44.19873" lon="0.8885">
        <ele>96</ele>
        <time>2022-07-21T08:07:05.262Z</time>
      </trkpt>
      <trkpt lat="44.19873" lon="0.88851">
        <ele>96</ele>
        <time>2022-07-21T08:07:06.262Z</time>
      </trkpt>
      <trkpt lat="44.19873" lon="0.88853">
        <ele>96</ele>
        <time>2022-07-21T08:07:07.262Z</time>
      </trkpt>
      <trkpt lat="44.19873" lon="0.88855">
        <ele>95</ele>
        <time>2022-07-21T08:07:08.262Z</time>
      </trkpt>
      <trkpt lat="44.19872" lon="0.88857">
        <ele>95</ele>
        <time>2022-07-21T08:07:09.262Z</time>
      </trkpt>
      <trkpt lat="44.19872" lon="0.88858">
        <ele>95</ele>
        <time>2022-07-21T08:07:10.262Z</time>
      </trkpt>
      <trkpt lat="44.19872" lon="0.8886">
        <ele>94</ele>
        <time>2022-07-21T08:07:11.262Z</time>
      </trkpt>
      <trkpt lat="44.19871" lon="0.88861">
        <ele>93</ele>
        <time>2022-07-21T08:07:12.262Z</time>
      </trkpt>
      <trkpt lat="44.19871" lon="0.88863">
        <ele>92</ele>
        <time>2022-07-21T08:07:13.262Z</time>
      </trkpt>
      <trkpt lat="44.1987" lon="0.88864">
        <ele>91</ele>
        <time>2022-07-21T08:07:14.262Z</time>
      </trkpt>
      <trkpt lat="44.19869" lon="0.88866">
        <ele>91</ele>
        <time>2022-07-21T08:07:15.262Z</time>
      </trkpt>
      <trkpt lat="44.19868" lon="0.88867">
        <ele>90</ele>
        <time>2022-07-21T08:07:16.262Z</time>
      </trkpt>
      <trkpt lat="44.19868" lon="0.88868">
        <ele>89</ele>
        <time>2022-07-21T08:07:17.262Z</time>
      </trkpt>
      <trkpt lat="44.19867" lon="0.88869">
        <ele>88</ele>
        <time>2022-07-21T08:07:18.262Z</time>
      </trkpt>
      <trkpt lat="44.19867" lon="0.88871">
        <ele>88</ele>
        <time>2022-07-21T08:07:19.262Z</time>
      </trkpt>
      <trkpt lat="44.19866" lon="0.88872">
        <ele>88</ele>
        <time>2022-07-21T08:07:20.262Z</time>
      </trkpt>
      <trkpt lat="44.19866" lon="0.88873">
        <ele>87</ele>
        <time>2022-07-21T08:07:21.262Z</time>
      </trkpt>
      <trkpt lat="44.19865" lon="0.88875">
        <ele>86</ele>
        <time>2022-07-21T08:07:22.262Z</time>
      </trkpt>
      <trkpt lat="44.19865" lon="0.88876">
        <ele>86</ele>
        <time>2022-07-21T08:07:23.262Z</time>
      </trkpt>
      <trkpt lat="44.19865" lon="0.88877">
        <ele>85</ele>
        <time>2022-07-21T08:07:24.262Z</time>
      </trkpt>
      <trkpt lat="44.19864" lon="0.88878">
        <ele>85</ele>
        <time>2022-07-21T08:07:25.262Z</time>
      </trkpt>
      <trkpt lat="44.19864" lon="0.88879">
        <ele>83</ele>
        <time>2022-07-21T08:07:26.262Z</time>
      </trkpt>
      <trkpt lat="44.19863" lon="0.88881">
        <ele>83</ele>
        <time>2022-07-21T08:07:27.262Z</time>
      </trkpt>
      <trkpt lat="44.19862" lon="0.88882">
        <ele>82</ele>
        <time>2022-07-21T08:07:28.262Z</time>
      </trkpt>
      <trkpt lat="44.19862" lon="0.88883">
        <ele>81</ele>
        <time>2022-07-21T08:07:29.262Z</time>
      </trkpt>
      <trkpt lat="44.19861" lon="0.88884">
        <ele>80</ele>
        <time>2022-07-21T08:07:30.262Z</time>
      </trkpt>
      <trkpt lat="44.1986" lon="0.88886">
        <ele>80</ele>
        <time>2022-07-21T08:07:31.262Z</time>
      </trkpt>
      <trkpt lat="44.1986" lon="0.88887">
        <ele>79</ele>
        <time>2022-07-21T08:07:32.262Z</time>
      </trkpt>
      <trkpt lat="44.19859" lon="0.88889">
        <ele>79</ele>
        <time>2022-07-21T08:07:33.262Z</time>
      </trkpt>
      <trkpt lat="44.19859" lon="0.88891">
        <ele>79</ele>
        <time>2022-07-21T08:07:34.262Z</time>
      </trkpt>
      <trkpt lat="44.19858" lon="0.88892">
        <ele>79</ele>
        <time>2022-07-21T08:07:35.262Z</time>
      </trkpt>
      <trkpt lat="44.19858" lon="0.88894">
        <ele>79</ele>
        <time>2022-07-21T08:07:36.262Z</time>
      </trkpt>
      <trkpt lat="44.19857" lon="0.88896">
        <ele>79</ele>
        <time>2022-07-21T08:07:37.262Z</time>
      </trkpt>
      <trkpt lat="44.19856" lon="0.88897">
        <ele>80</ele>
        <time>2022-07-21T08:07:38.262Z</time>
      </trkpt>
      <trkpt lat="44.19856" lon="0.88898">
        <ele>80</ele>
        <time>2022-07-21T08:07:39.262Z</time>
      </trkpt>
      <trkpt lat="44.19855" lon="0.889">
        <ele>80</ele>
        <time>2022-07-21T08:07:40.262Z</time>
      </trkpt>
      <trkpt lat="44.19855" lon="0.88901">
        <ele>80</ele>
        <time>2022-07-21T08:07:41.262Z</time>
      </trkpt>
      <trkpt lat="44.19854" lon="0.88903">
        <ele>81</ele>
        <time>2022-07-21T08:07:42.262Z</time>
      </trkpt>
      <trkpt lat="44.19853" lon="0.88905">
        <ele>82</ele>
        <time>2022-07-21T08:07:43.262Z</time>
      </trkpt>
      <trkpt lat="44.19853" lon="0.88906">
        <ele>81</ele>
        <time>2022-07-21T08:07:44.262Z</time>
      </trkpt>
      <trkpt lat="44.19852" lon="0.88908">
        <ele>81</ele>
        <time>2022-07-21T08:07:45.262Z</time>
      </trkpt>
      <trkpt lat="44.19852" lon="0.88909">
        <ele>81</ele>
        <time>2022-07-21T08:07:46.262Z</time>
      </trkpt>
      <trkpt lat="44.19851" lon="0.8891">
        <ele>81</ele>
        <time>2022-07-21T08:07:47.262Z</time>
      </trkpt>
      <trkpt lat="44.19851" lon="0.88912">
        <ele>80</ele>
        <time>2022-07-21T08:07:48.262Z</time>
      </trkpt>
      <trkpt lat="44.1985" lon="0.88914">
        <ele>80</ele>
        <time>2022-07-21T08:07:49.262Z</time>
      </trkpt>
      <trkpt lat="44.19849" lon="0.88915">
        <ele>80</ele>
        <time>2022-07-21T08:07:50.262Z</time>
      </trkpt>
      <trkpt lat="44.19848" lon="0.88917">
        <ele>81</ele>
        <time>2022-07-21T08:07:51.262Z</time>
      </trkpt>
      <trkpt lat="44.19848" lon="0.88919">
        <ele>80</ele>
        <time>2022-07-21T08:07:52.262Z</time>
      </trkpt>
      <trkpt lat="44.19847" lon="0.8892">
        <ele>80</ele>
        <time>2022-07-21T08:07:53.262Z</time>
      </trkpt>
      <trkpt lat="44.19847" lon="0.88921">
        <ele>80</ele>
        <time>2022-07-21T08:07:54.262Z</time>
      </trkpt>
      <trkpt lat="44.19846" lon="0.88923">
        <ele>80</ele>
        <time>2022-07-21T08:07:55.262Z</time>
      </trkpt>
      <trkpt lat="44.19846" lon="0.88924">
        <ele>80</ele>
        <time>2022-07-21T08:07:56.262Z</time>
      </trkpt>
      <trkpt lat="44.19845" lon="0.88926">
        <ele>81</ele>
        <time>2022-07-21T08:07:57.262Z</time>
      </trkpt>
      <trkpt lat="44.19844" lon="0.88927">
        <ele>80</ele>
        <time>2022-07-21T08:07:58.262Z</time>
      </trkpt>
      <trkpt lat="44.19844" lon="0.88929">
        <ele>80</ele>
        <time>2022-07-21T08:07:59.262Z</time>
      </trkpt>
      <trkpt lat="44.19843" lon="0.8893">
        <ele>80</ele>
        <time>2022-07-21T08:08:00.262Z</time>
      </trkpt>
      <trkpt lat="44.19843" lon="0.88932">
        <ele>80</ele>
        <time>2022-07-21T08:08:01.262Z</time>
      </trkpt>
      <trkpt lat="44.19842" lon="0.88933">
        <ele>80</ele>
        <time>2022-07-21T08:08:02.262Z</time>
      </trkpt>
      <trkpt lat="44.19842" lon="0.88935">
        <ele>81</ele>
        <time>2022-07-21T08:08:03.262Z</time>
      </trkpt>
      <trkpt lat="44.19841" lon="0.88937">
        <ele>81</ele>
        <time>2022-07-21T08:08:04.262Z</time>
      </trkpt>
      <trkpt lat="44.19841" lon="0.88938">
        <ele>80</ele>
        <time>2022-07-21T08:08:05.262Z</time>
      </trkpt>
      <trkpt lat="44.1984" lon="0.8894">
        <ele>81</ele>
        <time>2022-07-21T08:08:06.262Z</time>
      </trkpt>
      <trkpt lat="44.1984" lon="0.88941">
        <ele>81</ele>
        <time>2022-07-21T08:08:07.262Z</time>
      </trkpt>
      <trkpt lat="44.19839" lon="0.88943">
        <ele>81</ele>
        <time>2022-07-21T08:08:08.262Z</time>
      </trkpt>
      <trkpt lat="44.19839" lon="0.88945">
        <ele>81</ele>
        <time>2022-07-21T08:08:09.262Z</time>
      </trkpt>
      <trkpt lat="44.19838" lon="0.88946">
        <ele>81</ele>
        <time>2022-07-21T08:08:10.262Z</time>
      </trkpt>
      <trkpt lat="44.19838" lon="0.88948">
        <ele>81</ele>
        <time>2022-07-21T08:08:11.262Z</time>
      </trkpt>
      <trkpt lat="44.19838" lon="0.88949">
        <ele>81</ele>
        <time>2022-07-21T08:08:12.262Z</time>
      </trkpt>
      <trkpt lat="44.19837" lon="0.88951">
        <ele>81</ele>
        <time>2022-07-21T08:08:13.262Z</time>
      </trkpt>
      <trkpt lat="44.19837" lon="0.88953">
        <ele>80</ele>
        <time>2022-07-21T08:08:14.262Z</time>
      </trkpt>
      <trkpt lat="44.19837" lon="0.88954">
        <ele>80</ele>
        <time>2022-07-21T08:08:15.262Z</time>
      </trkpt>
      <trkpt lat="44.19836" lon="0.88956">
        <ele>80</ele>
        <time>2022-07-21T08:08:16.262Z</time>
      </trkpt>
      <trkpt lat="44.19836" lon="0.88957">
        <ele>80</ele>
        <time>2022-07-21T08:08:17.262Z</time>
      </trkpt>
      <trkpt lat="44.19835" lon="0.88958">
        <ele>80</ele>
        <time>2022-07-21T08:08:18.262Z</time>
      </trkpt>
      <trkpt lat="44.19835" lon="0.8896">
        <ele>79</ele>
        <time>2022-07-21T08:08:19.262Z</time>
      </trkpt>
      <trkpt lat="44.19834" lon="0.88961">
        <ele>79</ele>
        <time>2022-07-21T08:08:20.262Z</time>
      </trkpt>
      <trkpt lat="44.19834" lon="0.88962">
        <ele>79</ele>
        <time>2022-07-21T08:08:21.262Z</time>
      </trkpt>
      <trkpt lat="44.19834" lon="0.88963">
        <ele>78</ele>
        <time>2022-07-21T08:08:22.262Z</time>
      </trkpt>
      <trkpt lat="44.19833" lon="0.88965">
        <ele>78</ele>
        <time>2022-07-21T08:08:23.262Z</time>
      </trkpt>
      <trkpt lat="44.19833" lon="0.88966">
        <ele>77</ele>
        <time>2022-07-21T08:08:24.262Z</time>
      </trkpt>
      <trkpt lat="44.19832" lon="0.88967">
        <ele>77</ele>
        <time>2022-07-21T08:08:25.262Z</time>
      </trkpt>
      <trkpt lat="44.19832" lon="0.88968">
        <ele>77</ele>
        <time>2022-07-21T08:08:26.262Z</time>
      </trkpt>
      <trkpt lat="44.19831" lon="0.8897">
        <ele>77</ele>
        <time>2022-07-21T08:08:27.262Z</time>
      </trkpt>
      <trkpt lat="44.19831" lon="0.88971">
        <ele>77</ele>
        <time>2022-07-21T08:08:28.262Z</time>
      </trkpt>
      <trkpt lat="44.1983" lon="0.88973">
        <ele>77</ele>
        <time>2022-07-21T08:08:29.262Z</time>
      </trkpt>
      <trkpt lat="44.1983" lon="0.88975">
        <ele>78</ele>
        <time>2022-07-21T08:08:30.262Z</time>
      </trkpt>
      <trkpt lat="44.19829" lon="0.88976">
        <ele>79</ele>
        <time>2022-07-21T08:08:31.262Z</time>
      </trkpt>
      <trkpt lat="44.19829" lon="0.88978">
        <ele>79</ele>
        <time>2022-07-21T08:08:32.262Z</time>
      </trkpt>
      <trkpt lat="44.19828" lon="0.8898">
        <ele>79</ele>
        <time>2022-07-21T08:08:33.262Z</time>
      </trkpt>
      <trkpt lat="44.19828" lon="0.88982">
        <ele>79</ele>
        <time>2022-07-21T08:08:34.262Z</time>
      </trkpt>
      <trkpt lat="44.19827" lon="0.88984">
        <ele>79</ele>
        <time>2022-07-21T08:08:35.262Z</time>
      </trkpt>
      <trkpt lat="44.19827" lon="0.88985">
        <ele>79</ele>
        <time>2022-07-21T08:08:36.262Z</time>
      </trkpt>
      <trkpt lat="44.19826" lon="0.88986">
        <ele>79</ele>
        <time>2022-07-21T08:08:37.262Z</time>
      </trkpt>
      <trkpt lat="44.19826" lon="0.88988">
        <ele>79</ele>
        <time>2022-07-21T08:08:38.262Z</time>
      </trkpt>
      <trkpt lat="44.19826" lon="0.88989">
        <ele>78</ele>
        <time>2022-07-21T08:08:39.262Z</time>
      </trkpt>
      <trkpt lat="44.19825" lon="0.88991">
        <ele>78</ele>
        <time>2022-07-21T08:08:40.262Z</time>
      </trkpt>
      <trkpt lat="44.19824" lon="0.88992">
        <ele>78</ele>
        <time>2022-07-21T08:08:41.262Z</time>
      </trkpt>
      <trkpt lat="44.19824" lon="0.88993">
        <ele>78</ele>
        <time>2022-07-21T08:08:42.262Z</time>
      </trkpt>
      <trkpt lat="44.19824" lon="0.88994">
        <ele>78</ele>
        <time>2022-07-21T08:08:43.262Z</time>
      </trkpt>
      <trkpt lat="44.19823" lon="0.88995">
        <ele>78</ele>
        <time>2022-07-21T08:08:44.262Z</time>
      </trkpt>
      <trkpt lat="44.19823" lon="0.88996">
        <ele>78</ele>
        <time>2022-07-21T08:08:45.262Z</time>
      </trkpt>
      <trkpt lat="44.19822" lon="0.88998">
        <ele>77</ele>
        <time>2022-07-21T08:08:46.262Z</time>
      </trkpt>
      <trkpt lat="44.19821" lon="0.88999">
        <ele>77</ele>
        <time>2022-07-21T08:08:47.262Z</time>
      </trkpt>
      <trkpt lat="44.19821" lon="0.89">
        <ele>78</ele>
        <time>2022-07-21T08:08:48.262Z</time>
      </trkpt>
      <trkpt lat="44.19821" lon="0.89001">
        <ele>77</ele>
        <time>2022-07-21T08:08:49.262Z</time>
      </trkpt>
      <trkpt lat="44.1982" lon="0.89003">
        <ele>77</ele>
        <time>2022-07-21T08:08:50.262Z</time>
      </trkpt>
      <trkpt lat="44.1982" lon="0.89004">
        <ele>78</ele>
        <time>2022-07-21T08:08:51.262Z</time>
      </trkpt>
      <trkpt lat="44.19819" lon="0.89005">
        <ele>77</ele>
        <time>2022-07-21T08:08:52.262Z</time>
      </trkpt>
      <trkpt lat="44.19819" lon="0.89007">
        <ele>77</ele>
        <time>2022-07-21T08:08:53.262Z</time>
      </trkpt>
      <trkpt lat="44.19819" lon="0.89008">
        <ele>77</ele>
        <time>2022-07-21T08:08:54.262Z</time>
      </trkpt>
      <trkpt lat="44.19818" lon="0.8901">
        <ele>77</ele>
        <time>2022-07-21T08:08:55.262Z</time>
      </trkpt>
      <trkpt lat="44.19818" lon="0.89011">
        <ele>77</ele>
        <time>2022-07-21T08:08:56.262Z</time>
      </trkpt>
      <trkpt lat="44.19817" lon="0.89013">
        <ele>76</ele>
        <time>2022-07-21T08:08:57.262Z</time>
      </trkpt>
      <trkpt lat="44.19817" lon="0.89014">
        <ele>76</ele>
        <time>2022-07-21T08:08:58.262Z</time>
      </trkpt>
      <trkpt lat="44.19816" lon="0.89016">
        <ele>76</ele>
        <time>2022-07-21T08:08:59.262Z</time>
      </trkpt>
      <trkpt lat="44.19816" lon="0.89017">
        <ele>76</ele>
        <time>2022-07-21T08:09:00.262Z</time>
      </trkpt>
      <trkpt lat="44.19815" lon="0.89019">
        <ele>76</ele>
        <time>2022-07-21T08:09:01.262Z</time>
      </trkpt>
      <trkpt lat="44.19814" lon="0.8902">
        <ele>76</ele>
        <time>2022-07-21T08:09:02.262Z</time>
      </trkpt>
      <trkpt lat="44.19814" lon="0.89022">
        <ele>76</ele>
        <time>2022-07-21T08:09:03.262Z</time>
      </trkpt>
      <trkpt lat="44.19814" lon="0.89023">
        <ele>77</ele>
        <time>2022-07-21T08:09:04.262Z</time>
      </trkpt>
      <trkpt lat="44.19813" lon="0.89024">
        <ele>77</ele>
        <time>2022-07-21T08:09:05.262Z</time>
      </trkpt>
      <trkpt lat="44.19813" lon="0.89026">
        <ele>76</ele>
        <time>2022-07-21T08:09:06.262Z</time>
      </trkpt>
      <trkpt lat="44.19813" lon="0.89027">
        <ele>76</ele>
        <time>2022-07-21T08:09:07.262Z</time>
      </trkpt>
      <trkpt lat="44.19812" lon="0.89029">
        <ele>76</ele>
        <time>2022-07-21T08:09:08.262Z</time>
      </trkpt>
      <trkpt lat="44.19812" lon="0.8903">
        <ele>76</ele>
        <time>2022-07-21T08:09:09.262Z</time>
      </trkpt>
      <trkpt lat="44.19811" lon="0.89032">
        <ele>76</ele>
        <time>2022-07-21T08:09:10.262Z</time>
      </trkpt>
      <trkpt lat="44.1981" lon="0.89033">
        <ele>76</ele>
        <time>2022-07-21T08:09:11.262Z</time>
      </trkpt>
      <trkpt lat="44.1981" lon="0.89035">
        <ele>76</ele>
        <time>2022-07-21T08:09:12.262Z</time>
      </trkpt>
      <trkpt lat="44.1981" lon="0.89036">
        <ele>76</ele>
        <time>2022-07-21T08:09:13.262Z</time>
      </trkpt>
      <trkpt lat="44.19809" lon="0.89038">
        <ele>76</ele>
        <time>2022-07-21T08:09:14.262Z</time>
      </trkpt>
      <trkpt lat="44.19809" lon="0.8904">
        <ele>76</ele>
        <time>2022-07-21T08:09:15.262Z</time>
      </trkpt>
      <trkpt lat="44.19809" lon="0.89041">
        <ele>76</ele>
        <time>2022-07-21T08:09:16.262Z</time>
      </trkpt>
      <trkpt lat="44.19808" lon="0.89043">
        <ele>76</ele>
        <time>2022-07-21T08:09:17.262Z</time>
      </trkpt>
      <trkpt lat="44.19808" lon="0.89045">
        <ele>76</ele>
        <time>2022-07-21T08:09:18.262Z</time>
      </trkpt>
      <trkpt lat="44.19808" lon="0.89047">
        <ele>76</ele>
        <time>2022-07-21T08:09:19.262Z</time>
      </trkpt>
      <trkpt lat="44.19808" lon="0.89048">
        <ele>76</ele>
        <time>2022-07-21T08:09:20.262Z</time>
      </trkpt>
      <trkpt lat="44.19807" lon="0.8905">
        <ele>77</ele>
        <time>2022-07-21T08:09:21.262Z</time>
      </trkpt>
      <trkpt lat="44.19807" lon="0.89051">
        <ele>77</ele>
        <time>2022-07-21T08:09:22.262Z</time>
      </trkpt>
      <trkpt lat="44.19807" lon="0.89053">
        <ele>77</ele>
        <time>2022-07-21T08:09:23.262Z</time>
      </trkpt>
      <trkpt lat="44.19807" lon="0.89055">
        <ele>77</ele>
        <time>2022-07-21T08:09:24.262Z</time>
      </trkpt>
      <trkpt lat="44.19806" lon="0.89056">
        <ele>77</ele>
        <time>2022-07-21T08:09:25.262Z</time>
      </trkpt>
      <trkpt lat="44.19806" lon="0.89058">
        <ele>77</ele>
        <time>2022-07-21T08:09:26.262Z</time>
      </trkpt>
      <trkpt lat="44.19806" lon="0.8906">
        <ele>77</ele>
        <time>2022-07-21T08:09:27.262Z</time>
      </trkpt>
      <trkpt lat="44.19806" lon="0.89061">
        <ele>77</ele>
        <time>2022-07-21T08:09:28.262Z</time>
      </trkpt>
      <trkpt lat="44.19806" lon="0.89063">
        <ele>77</ele>
        <time>2022-07-21T08:09:29.262Z</time>
      </trkpt>
      <trkpt lat="44.19805" lon="0.89065">
        <ele>77</ele>
        <time>2022-07-21T08:09:30.262Z</time>
      </trkpt>
      <trkpt lat="44.19805" lon="0.89067">
        <ele>77</ele>
        <time>2022-07-21T08:09:31.262Z</time>
      </trkpt>
      <trkpt lat="44.19805" lon="0.89069">
        <ele>78</ele>
        <time>2022-07-21T08:09:32.262Z</time>
      </trkpt>
      <trkpt lat="44.19804" lon="0.8907">
        <ele>77</ele>
        <time>2022-07-21T08:09:33.262Z</time>
      </trkpt>
      <trkpt lat="44.19804" lon="0.89072">
        <ele>78</ele>
        <time>2022-07-21T08:09:34.262Z</time>
      </trkpt>
      <trkpt lat="44.19804" lon="0.89074">
        <ele>77</ele>
        <time>2022-07-21T08:09:35.262Z</time>
      </trkpt>
      <trkpt lat="44.19804" lon="0.89075">
        <ele>77</ele>
        <time>2022-07-21T08:09:36.262Z</time>
      </trkpt>
      <trkpt lat="44.19804" lon="0.89077">
        <ele>77</ele>
        <time>2022-07-21T08:09:37.262Z</time>
      </trkpt>
      <trkpt lat="44.19804" lon="0.89079">
        <ele>76</ele>
        <time>2022-07-21T08:09:38.262Z</time>
      </trkpt>
      <trkpt lat="44.19804" lon="0.8908">
        <ele>76</ele>
        <time>2022-07-21T08:09:39.262Z</time>
      </trkpt>
      <trkpt lat="44.19804" lon="0.89082">
        <ele>75</ele>
        <time>2022-07-21T08:09:40.262Z</time>
      </trkpt>
      <trkpt lat="44.19804" lon="0.89083">
        <ele>74</ele>
        <time>2022-07-21T08:09:41.262Z</time>
      </trkpt>
      <trkpt lat="44.19804" lon="0.89085">
        <ele>74</ele>
        <time>2022-07-21T08:09:42.262Z</time>
      </trkpt>
      <trkpt lat="44.19804" lon="0.89086">
        <ele>73</ele>
        <time>2022-07-21T08:09:43.262Z</time>
      </trkpt>
      <trkpt lat="44.19804" lon="0.89088">
        <ele>73</ele>
        <time>2022-07-21T08:09:44.262Z</time>
      </trkpt>
      <trkpt lat="44.19804" lon="0.8909">
        <ele>73</ele>
        <time>2022-07-21T08:09:45.262Z</time>
      </trkpt>
      <trkpt lat="44.19804" lon="0.89092">
        <ele>73</ele>
        <time>2022-07-21T08:09:46.262Z</time>
      </trkpt>
      <trkpt lat="44.19804" lon="0.89093">
        <ele>73</ele>
        <time>2022-07-21T08:09:47.262Z</time>
      </trkpt>
      <trkpt lat="44.19804" lon="0.89095">
        <ele>72</ele>
        <time>2022-07-21T08:09:48.262Z</time>
      </trkpt>
      <trkpt lat="44.19804" lon="0.89096">
        <ele>72</ele>
        <time>2022-07-21T08:09:49.262Z</time>
      </trkpt>
      <trkpt lat="44.19803" lon="0.89098">
        <ele>72</ele>
        <time>2022-07-21T08:09:50.262Z</time>
      </trkpt>
      <trkpt lat="44.19803" lon="0.891">
        <ele>72</ele>
        <time>2022-07-21T08:09:51.262Z</time>
      </trkpt>
      <trkpt lat="44.19803" lon="0.89101">
        <ele>71</ele>
        <time>2022-07-21T08:09:52.262Z</time>
      </trkpt>
      <trkpt lat="44.19803" lon="0.89103">
        <ele>71</ele>
        <time>2022-07-21T08:09:53.262Z</time>
      </trkpt>
      <trkpt lat="44.19803" lon="0.89105">
        <ele>71</ele>
        <time>2022-07-21T08:09:54.262Z</time>
      </trkpt>
      <trkpt lat="44.19803" lon="0.89107">
        <ele>71</ele>
        <time>2022-07-21T08:09:55.262Z</time>
      </trkpt>
      <trkpt lat="44.19803" lon="0.89108">
        <ele>71</ele>
        <time>2022-07-21T08:09:56.262Z</time>
      </trkpt>
      <trkpt lat="44.19802" lon="0.8911">
        <ele>71</ele>
        <time>2022-07-21T08:09:57.262Z</time>
      </trkpt>
      <trkpt lat="44.19802" lon="0.89111">
        <ele>71</ele>
        <time>2022-07-21T08:09:58.262Z</time>
      </trkpt>
      <trkpt lat="44.19802" lon="0.89113">
        <ele>71</ele>
        <time>2022-07-21T08:09:59.262Z</time>
      </trkpt>
      <trkpt lat="44.19802" lon="0.89115">
        <ele>71</ele>
        <time>2022-07-21T08:10:00.262Z</time>
      </trkpt>
      <trkpt lat="44.19801" lon="0.89117">
        <ele>72</ele>
        <time>2022-07-21T08:10:01.262Z</time>
      </trkpt>
      <trkpt lat="44.19801" lon="0.89118">
        <ele>72</ele>
        <time>2022-07-21T08:10:02.262Z</time>
      </trkpt>
      <trkpt lat="44.198" lon="0.89119">
        <ele>73</ele>
        <time>2022-07-21T08:10:03.262Z</time>
      </trkpt>
      <trkpt lat="44.198" lon="0.8912">
        <ele>73</ele>
        <time>2022-07-21T08:10:04.262Z</time>
      </trkpt>
      <trkpt lat="44.198" lon="0.89121">
        <ele>73</ele>
        <time>2022-07-21T08:10:05.262Z</time>
      </trkpt>
      <trkpt lat="44.198" lon="0.89122">
        <ele>74</ele>
        <time>2022-07-21T08:10:06.262Z</time>
      </trkpt>
      <trkpt lat="44.198" lon="0.89123">
        <ele>74</ele>
        <time>2022-07-21T08:10:07.262Z</time>
      </trkpt>
      <trkpt lat="44.198" lon="0.89124">
        <ele>75</ele>
        <time>2022-07-21T08:10:08.262Z</time>
      </trkpt>
      <trkpt lat="44.19801" lon="0.89124">
        <ele>76</ele>
        <time>2022-07-21T08:10:09.262Z</time>
      </trkpt>
      <trkpt lat="44.19801" lon="0.89124">
        <ele>76</ele>
        <time>2022-07-21T08:10:10.262Z</time>
      </trkpt>
      <trkpt lat="44.19801" lon="0.89125">
        <ele>76</ele>
        <time>2022-07-21T08:10:11.262Z</time>
      </trkpt>
      <trkpt lat="44.19801" lon="0.89125">
        <ele>77</ele>
        <time>2022-07-21T08:10:12.262Z</time>
      </trkpt>
      <trkpt lat="44.19801" lon="0.89125">
        <ele>77</ele>
        <time>2022-07-21T08:10:14.262Z</time>
      </trkpt>
      <trkpt lat="44.19801" lon="0.89125">
        <ele>77</ele>
        <time>2022-07-21T08:10:15.262Z</time>
      </trkpt>
      <trkpt lat="44.19801" lon="0.89125">
        <ele>78</ele>
        <time>2022-07-21T08:10:16.262Z</time>
      </trkpt>
      <trkpt lat="44.19801" lon="0.89125">
        <ele>78</ele>
        <time>2022-07-21T08:10:17.262Z</time>
      </trkpt>
      <trkpt lat="44.19798" lon="0.89129">
        <ele>80</ele>
        <time>2022-07-21T08:10:38.274Z</time>
      </trkpt>
      <trkpt lat="44.19798" lon="0.8913">
        <ele>80</ele>
        <time>2022-07-21T08:10:39.274Z</time>
      </trkpt>
      <trkpt lat="44.19798" lon="0.89132">
        <ele>81</ele>
        <time>2022-07-21T08:10:40.274Z</time>
      </trkpt>
      <trkpt lat="44.19798" lon="0.89133">
        <ele>81</ele>
        <time>2022-07-21T08:10:41.274Z</time>
      </trkpt>
      <trkpt lat="44.19798" lon="0.89135">
        <ele>81</ele>
        <time>2022-07-21T08:10:42.274Z</time>
      </trkpt>
      <trkpt lat="44.19798" lon="0.89137">
        <ele>81</ele>
        <time>2022-07-21T08:10:43.274Z</time>
      </trkpt>
      <trkpt lat="44.19797" lon="0.89138">
        <ele>82</ele>
        <time>2022-07-21T08:10:44.274Z</time>
      </trkpt>
      <trkpt lat="44.19797" lon="0.8914">
        <ele>82</ele>
        <time>2022-07-21T08:10:45.274Z</time>
      </trkpt>
      <trkpt lat="44.19797" lon="0.89142">
        <ele>82</ele>
        <time>2022-07-21T08:10:46.274Z</time>
      </trkpt>
      <trkpt lat="44.19797" lon="0.89143">
        <ele>82</ele>
        <time>2022-07-21T08:10:47.274Z</time>
      </trkpt>
      <trkpt lat="44.19797" lon="0.89145">
        <ele>82</ele>
        <time>2022-07-21T08:10:48.274Z</time>
      </trkpt>
      <trkpt lat="44.19796" lon="0.89147">
        <ele>82</ele>
        <time>2022-07-21T08:10:49.274Z</time>
      </trkpt>
      <trkpt lat="44.19796" lon="0.89148">
        <ele>82</ele>
        <time>2022-07-21T08:10:50.274Z</time>
      </trkpt>
      <trkpt lat="44.19796" lon="0.8915">
        <ele>82</ele>
        <time>2022-07-21T08:10:51.274Z</time>
      </trkpt>
      <trkpt lat="44.19795" lon="0.89152">
        <ele>83</ele>
        <time>2022-07-21T08:10:52.274Z</time>
      </trkpt>
      <trkpt lat="44.19795" lon="0.89154">
        <ele>83</ele>
        <time>2022-07-21T08:10:53.274Z</time>
      </trkpt>
      <trkpt lat="44.19795" lon="0.89155">
        <ele>83</ele>
        <time>2022-07-21T08:10:54.274Z</time>
      </trkpt>
      <trkpt lat="44.19795" lon="0.89157">
        <ele>82</ele>
        <time>2022-07-21T08:10:55.274Z</time>
      </trkpt>
      <trkpt lat="44.19795" lon="0.89159">
        <ele>82</ele>
        <time>2022-07-21T08:10:56.274Z</time>
      </trkpt>
      <trkpt lat="44.19794" lon="0.8916">
        <ele>82</ele>
        <time>2022-07-21T08:10:57.274Z</time>
      </trkpt>
      <trkpt lat="44.19794" lon="0.89162">
        <ele>82</ele>
        <time>2022-07-21T08:10:58.274Z</time>
      </trkpt>
      <trkpt lat="44.19794" lon="0.89164">
        <ele>82</ele>
        <time>2022-07-21T08:10:59.274Z</time>
      </trkpt>
      <trkpt lat="44.19794" lon="0.89165">
        <ele>82</ele>
        <time>2022-07-21T08:11:00.274Z</time>
      </trkpt>
      <trkpt lat="44.19794" lon="0.89167">
        <ele>82</ele>
        <time>2022-07-21T08:11:01.274Z</time>
      </trkpt>
      <trkpt lat="44.19794" lon="0.89169">
        <ele>82</ele>
        <time>2022-07-21T08:11:02.274Z</time>
      </trkpt>
      <trkpt lat="44.19793" lon="0.89171">
        <ele>83</ele>
        <time>2022-07-21T08:11:03.274Z</time>
      </trkpt>
      <trkpt lat="44.19793" lon="0.89173">
        <ele>83</ele>
        <time>2022-07-21T08:11:04.274Z</time>
      </trkpt>
      <trkpt lat="44.19794" lon="0.89174">
        <ele>83</ele>
        <time>2022-07-21T08:11:05.274Z</time>
      </trkpt>
      <trkpt lat="44.19793" lon="0.89176">
        <ele>83</ele>
        <time>2022-07-21T08:11:06.274Z</time>
      </trkpt>
      <trkpt lat="44.19793" lon="0.89178">
        <ele>83</ele>
        <time>2022-07-21T08:11:07.274Z</time>
      </trkpt>
      <trkpt lat="44.19793" lon="0.8918">
        <ele>83</ele>
        <time>2022-07-21T08:11:08.274Z</time>
      </trkpt>
      <trkpt lat="44.19793" lon="0.89182">
        <ele>83</ele>
        <time>2022-07-21T08:11:09.274Z</time>
      </trkpt>
      <trkpt lat="44.19793" lon="0.89184">
        <ele>83</ele>
        <time>2022-07-21T08:11:10.274Z</time>
      </trkpt>
      <trkpt lat="44.19793" lon="0.89185">
        <ele>83</ele>
        <time>2022-07-21T08:11:11.274Z</time>
      </trkpt>
      <trkpt lat="44.19793" lon="0.89187">
        <ele>84</ele>
        <time>2022-07-21T08:11:12.274Z</time>
      </trkpt>
      <trkpt lat="44.19793" lon="0.89189">
        <ele>83</ele>
        <time>2022-07-21T08:11:13.274Z</time>
      </trkpt>
      <trkpt lat="44.19793" lon="0.8919">
        <ele>84</ele>
        <time>2022-07-21T08:11:14.274Z</time>
      </trkpt>
      <trkpt lat="44.19793" lon="0.89192">
        <ele>84</ele>
        <time>2022-07-21T08:11:15.274Z</time>
      </trkpt>
      <trkpt lat="44.19793" lon="0.89194">
        <ele>84</ele>
        <time>2022-07-21T08:11:16.274Z</time>
      </trkpt>
      <trkpt lat="44.19793" lon="0.89196">
        <ele>84</ele>
        <time>2022-07-21T08:11:17.274Z</time>
      </trkpt>
      <trkpt lat="44.19792" lon="0.89197">
        <ele>84</ele>
        <time>2022-07-21T08:11:18.274Z</time>
      </trkpt>
      <trkpt lat="44.19792" lon="0.89199">
        <ele>84</ele>
        <time>2022-07-21T08:11:19.274Z</time>
      </trkpt>
      <trkpt lat="44.19792" lon="0.89201">
        <ele>84</ele>
        <time>2022-07-21T08:11:20.274Z</time>
      </trkpt>
      <trkpt lat="44.19792" lon="0.89202">
        <ele>84</ele>
        <time>2022-07-21T08:11:21.274Z</time>
      </trkpt>
      <trkpt lat="44.19792" lon="0.89204">
        <ele>84</ele>
        <time>2022-07-21T08:11:22.274Z</time>
      </trkpt>
      <trkpt lat="44.19792" lon="0.89206">
        <ele>84</ele>
        <time>2022-07-21T08:11:23.274Z</time>
      </trkpt>
      <trkpt lat="44.19792" lon="0.89208">
        <ele>84</ele>
        <time>2022-07-21T08:11:24.274Z</time>
      </trkpt>
      <trkpt lat="44.19791" lon="0.8921">
        <ele>84</ele>
        <time>2022-07-21T08:11:25.274Z</time>
      </trkpt>
      <trkpt lat="44.19791" lon="0.89212">
        <ele>84</ele>
        <time>2022-07-21T08:11:26.274Z</time>
      </trkpt>
      <trkpt lat="44.19791" lon="0.89213">
        <ele>84</ele>
        <time>2022-07-21T08:11:27.274Z</time>
      </trkpt>
      <trkpt lat="44.19791" lon="0.89215">
        <ele>84</ele>
        <time>2022-07-21T08:11:28.274Z</time>
      </trkpt>
      <trkpt lat="44.19791" lon="0.89217">
        <ele>85</ele>
        <time>2022-07-21T08:11:29.274Z</time>
      </trkpt>
      <trkpt lat="44.19791" lon="0.89218">
        <ele>85</ele>
        <time>2022-07-21T08:11:30.274Z</time>
      </trkpt>
      <trkpt lat="44.1979" lon="0.8922">
        <ele>85</ele>
        <time>2022-07-21T08:11:31.274Z</time>
      </trkpt>
      <trkpt lat="44.1979" lon="0.89222">
        <ele>85</ele>
        <time>2022-07-21T08:11:32.274Z</time>
      </trkpt>
      <trkpt lat="44.1979" lon="0.89224">
        <ele>85</ele>
        <time>2022-07-21T08:11:33.274Z</time>
      </trkpt>
      <trkpt lat="44.1979" lon="0.89226">
        <ele>85</ele>
        <time>2022-07-21T08:11:34.274Z</time>
      </trkpt>
      <trkpt lat="44.19789" lon="0.89227">
        <ele>86</ele>
        <time>2022-07-21T08:11:35.274Z</time>
      </trkpt>
      <trkpt lat="44.19789" lon="0.89229">
        <ele>86</ele>
        <time>2022-07-21T08:11:36.274Z</time>
      </trkpt>
      <trkpt lat="44.19789" lon="0.8923">
        <ele>86</ele>
        <time>2022-07-21T08:11:37.274Z</time>
      </trkpt>
      <trkpt lat="44.19789" lon="0.89232">
        <ele>86</ele>
        <time>2022-07-21T08:11:38.274Z</time>
      </trkpt>
      <trkpt lat="44.19789" lon="0.89234">
        <ele>86</ele>
        <time>2022-07-21T08:11:39.274Z</time>
      </trkpt>
      <trkpt lat="44.19788" lon="0.89236">
        <ele>86</ele>
        <time>2022-07-21T08:11:40.274Z</time>
      </trkpt>
      <trkpt lat="44.19788" lon="0.89238">
        <ele>86</ele>
        <time>2022-07-21T08:11:41.274Z</time>
      </trkpt>
      <trkpt lat="44.19788" lon="0.8924">
        <ele>86</ele>
        <time>2022-07-21T08:11:42.274Z</time>
      </trkpt>
      <trkpt lat="44.19787" lon="0.89241">
        <ele>86</ele>
        <time>2022-07-21T08:11:43.274Z</time>
      </trkpt>
      <trkpt lat="44.19787" lon="0.89243">
        <ele>86</ele>
        <time>2022-07-21T08:11:44.274Z</time>
      </trkpt>
      <trkpt lat="44.19787" lon="0.89245">
        <ele>87</ele>
        <time>2022-07-21T08:11:45.274Z</time>
      </trkpt>
      <trkpt lat="44.19786" lon="0.89246">
        <ele>87</ele>
        <time>2022-07-21T08:11:46.274Z</time>
      </trkpt>
      <trkpt lat="44.19786" lon="0.89248">
        <ele>87</ele>
        <time>2022-07-21T08:11:47.274Z</time>
      </trkpt>
      <trkpt lat="44.19786" lon="0.8925">
        <ele>87</ele>
        <time>2022-07-21T08:11:48.274Z</time>
      </trkpt>
      <trkpt lat="44.19785" lon="0.89252">
        <ele>87</ele>
        <time>2022-07-21T08:11:49.274Z</time>
      </trkpt>
      <trkpt lat="44.19785" lon="0.89253">
        <ele>87</ele>
        <time>2022-07-21T08:11:50.274Z</time>
      </trkpt>
      <trkpt lat="44.19785" lon="0.89255">
        <ele>87</ele>
        <time>2022-07-21T08:11:51.274Z</time>
      </trkpt>
      <trkpt lat="44.19784" lon="0.89256">
        <ele>87</ele>
        <time>2022-07-21T08:11:52.274Z</time>
      </trkpt>
      <trkpt lat="44.19784" lon="0.89258">
        <ele>87</ele>
        <time>2022-07-21T08:11:53.274Z</time>
      </trkpt>
      <trkpt lat="44.19784" lon="0.89259">
        <ele>88</ele>
        <time>2022-07-21T08:11:54.274Z</time>
      </trkpt>
      <trkpt lat="44.19783" lon="0.89261">
        <ele>88</ele>
        <time>2022-07-21T08:11:55.274Z</time>
      </trkpt>
      <trkpt lat="44.19783" lon="0.89262">
        <ele>88</ele>
        <time>2022-07-21T08:11:56.274Z</time>
      </trkpt>
      <trkpt lat="44.19783" lon="0.89263">
        <ele>88</ele>
        <time>2022-07-21T08:11:57.274Z</time>
      </trkpt>
      <trkpt lat="44.19783" lon="0.89264">
        <ele>88</ele>
        <time>2022-07-21T08:11:58.274Z</time>
      </trkpt>
      <trkpt lat="44.19783" lon="0.89264">
        <ele>89</ele>
        <time>2022-07-21T08:11:59.274Z</time>
      </trkpt>
      <trkpt lat="44.19783" lon="0.89264">
        <ele>89</ele>
        <time>2022-07-21T08:12:00.274Z</time>
      </trkpt>
      <trkpt lat="44.19783" lon="0.89264">
        <ele>89</ele>
        <time>2022-07-21T08:12:01.274Z</time>
      </trkpt>
      <trkpt lat="44.19783" lon="0.89264">
        <ele>89</ele>
        <time>2022-07-21T08:12:02.274Z</time>
      </trkpt>
      <trkpt lat="44.19783" lon="0.89264">
        <ele>89</ele>
        <time>2022-07-21T08:12:03.274Z</time>
      </trkpt>
      <trkpt lat="44.19782" lon="0.8927">
        <ele>91</ele>
        <time>2022-07-21T08:12:10.298Z</time>
      </trkpt>
      <trkpt lat="44.19781" lon="0.89272">
        <ele>91</ele>
        <time>2022-07-21T08:12:11.298Z</time>
      </trkpt>
      <trkpt lat="44.19781" lon="0.89273">
        <ele>91</ele>
        <time>2022-07-21T08:12:12.298Z</time>
      </trkpt>
      <trkpt lat="44.19781" lon="0.89274">
        <ele>91</ele>
        <time>2022-07-21T08:12:13.298Z</time>
      </trkpt>
      <trkpt lat="44.1978" lon="0.89276">
        <ele>91</ele>
        <time>2022-07-21T08:12:14.298Z</time>
      </trkpt>
      <trkpt lat="44.1978" lon="0.89277">
        <ele>91</ele>
        <time>2022-07-21T08:12:15.298Z</time>
      </trkpt>
      <trkpt lat="44.1978" lon="0.89278">
        <ele>91</ele>
        <time>2022-07-21T08:12:16.298Z</time>
      </trkpt>
      <trkpt lat="44.19779" lon="0.8928">
        <ele>91</ele>
        <time>2022-07-21T08:12:17.298Z</time>
      </trkpt>
      <trkpt lat="44.19779" lon="0.89281">
        <ele>91</ele>
        <time>2022-07-21T08:12:18.298Z</time>
      </trkpt>
      <trkpt lat="44.19778" lon="0.89283">
        <ele>92</ele>
        <time>2022-07-21T08:12:19.298Z</time>
      </trkpt>
      <trkpt lat="44.19778" lon="0.89284">
        <ele>92</ele>
        <time>2022-07-21T08:12:20.298Z</time>
      </trkpt>
      <trkpt lat="44.19778" lon="0.89285">
        <ele>92</ele>
        <time>2022-07-21T08:12:21.298Z</time>
      </trkpt>
      <trkpt lat="44.19778" lon="0.89287">
        <ele>92</ele>
        <time>2022-07-21T08:12:22.298Z</time>
      </trkpt>
      <trkpt lat="44.19777" lon="0.89288">
        <ele>92</ele>
        <time>2022-07-21T08:12:23.298Z</time>
      </trkpt>
      <trkpt lat="44.19777" lon="0.89289">
        <ele>92</ele>
        <time>2022-07-21T08:12:24.298Z</time>
      </trkpt>
      <trkpt lat="44.19776" lon="0.8929">
        <ele>93</ele>
        <time>2022-07-21T08:12:25.298Z</time>
      </trkpt>
      <trkpt lat="44.19776" lon="0.89292">
        <ele>93</ele>
        <time>2022-07-21T08:12:26.298Z</time>
      </trkpt>
      <trkpt lat="44.19776" lon="0.89293">
        <ele>93</ele>
        <time>2022-07-21T08:12:27.298Z</time>
      </trkpt>
      <trkpt lat="44.19775" lon="0.89294">
        <ele>93</ele>
        <time>2022-07-21T08:12:28.298Z</time>
      </trkpt>
      <trkpt lat="44.19775" lon="0.89295">
        <ele>92</ele>
        <time>2022-07-21T08:12:29.298Z</time>
      </trkpt>
      <trkpt lat="44.19775" lon="0.89296">
        <ele>93</ele>
        <time>2022-07-21T08:12:30.298Z</time>
      </trkpt>
      <trkpt lat="44.19774" lon="0.89296">
        <ele>92</ele>
        <time>2022-07-21T08:12:31.298Z</time>
      </trkpt>
      <trkpt lat="44.19774" lon="0.89297">
        <ele>92</ele>
        <time>2022-07-21T08:12:32.298Z</time>
      </trkpt>
      <trkpt lat="44.19774" lon="0.89298">
        <ele>92</ele>
        <time>2022-07-21T08:12:33.298Z</time>
      </trkpt>
      <trkpt lat="44.19773" lon="0.89299">
        <ele>92</ele>
        <time>2022-07-21T08:12:34.298Z</time>
      </trkpt>
      <trkpt lat="44.19773" lon="0.893">
        <ele>92</ele>
        <time>2022-07-21T08:12:35.298Z</time>
      </trkpt>
      <trkpt lat="44.19772" lon="0.89301">
        <ele>92</ele>
        <time>2022-07-21T08:12:36.298Z</time>
      </trkpt>
      <trkpt lat="44.19772" lon="0.89302">
        <ele>92</ele>
        <time>2022-07-21T08:12:37.298Z</time>
      </trkpt>
      <trkpt lat="44.19772" lon="0.89303">
        <ele>91</ele>
        <time>2022-07-21T08:12:38.298Z</time>
      </trkpt>
      <trkpt lat="44.19771" lon="0.89305">
        <ele>92</ele>
        <time>2022-07-21T08:12:39.298Z</time>
      </trkpt>
      <trkpt lat="44.1977" lon="0.89306">
        <ele>92</ele>
        <time>2022-07-21T08:12:40.298Z</time>
      </trkpt>
      <trkpt lat="44.1977" lon="0.89307">
        <ele>91</ele>
        <time>2022-07-21T08:12:41.298Z</time>
      </trkpt>
      <trkpt lat="44.19769" lon="0.89308">
        <ele>91</ele>
        <time>2022-07-21T08:12:42.298Z</time>
      </trkpt>
      <trkpt lat="44.19769" lon="0.89309">
        <ele>90</ele>
        <time>2022-07-21T08:12:43.298Z</time>
      </trkpt>
      <trkpt lat="44.19768" lon="0.8931">
        <ele>90</ele>
        <time>2022-07-21T08:12:44.298Z</time>
      </trkpt>
      <trkpt lat="44.19767" lon="0.89311">
        <ele>90</ele>
        <time>2022-07-21T08:12:45.298Z</time>
      </trkpt>
      <trkpt lat="44.19767" lon="0.89312">
        <ele>90</ele>
        <time>2022-07-21T08:12:46.298Z</time>
      </trkpt>
      <trkpt lat="44.19766" lon="0.89313">
        <ele>90</ele>
        <time>2022-07-21T08:12:47.298Z</time>
      </trkpt>
      <trkpt lat="44.19766" lon="0.89314">
        <ele>90</ele>
        <time>2022-07-21T08:12:48.298Z</time>
      </trkpt>
      <trkpt lat="44.19766" lon="0.89316">
        <ele>89</ele>
        <time>2022-07-21T08:12:49.298Z</time>
      </trkpt>
      <trkpt lat="44.19766" lon="0.89317">
        <ele>89</ele>
        <time>2022-07-21T08:12:50.298Z</time>
      </trkpt>
      <trkpt lat="44.19766" lon="0.89318">
        <ele>88</ele>
        <time>2022-07-21T08:12:51.298Z</time>
      </trkpt>
      <trkpt lat="44.19766" lon="0.8932">
        <ele>88</ele>
        <time>2022-07-21T08:12:52.298Z</time>
      </trkpt>
      <trkpt lat="44.19766" lon="0.89321">
        <ele>89</ele>
        <time>2022-07-21T08:12:53.298Z</time>
      </trkpt>
      <trkpt lat="44.19766" lon="0.89322">
        <ele>89</ele>
        <time>2022-07-21T08:12:54.298Z</time>
      </trkpt>
      <trkpt lat="44.19766" lon="0.89323">
        <ele>89</ele>
        <time>2022-07-21T08:12:55.298Z</time>
      </trkpt>
      <trkpt lat="44.19766" lon="0.89324">
        <ele>90</ele>
        <time>2022-07-21T08:12:56.298Z</time>
      </trkpt>
      <trkpt lat="44.19766" lon="0.89325">
        <ele>90</ele>
        <time>2022-07-21T08:12:57.298Z</time>
      </trkpt>
      <trkpt lat="44.19766" lon="0.89326">
        <ele>91</ele>
        <time>2022-07-21T08:12:58.298Z</time>
      </trkpt>
      <trkpt lat="44.19766" lon="0.89327">
        <ele>91</ele>
        <time>2022-07-21T08:12:59.298Z</time>
      </trkpt>
      <trkpt lat="44.19766" lon="0.89328">
        <ele>92</ele>
        <time>2022-07-21T08:13:00.298Z</time>
      </trkpt>
      <trkpt lat="44.19766" lon="0.89328">
        <ele>92</ele>
        <time>2022-07-21T08:13:01.298Z</time>
      </trkpt>
      <trkpt lat="44.19767" lon="0.89329">
        <ele>93</ele>
        <time>2022-07-21T08:13:02.298Z</time>
      </trkpt>
      <trkpt lat="44.19767" lon="0.8933">
        <ele>93</ele>
        <time>2022-07-21T08:13:03.298Z</time>
      </trkpt>
      <trkpt lat="44.19767" lon="0.89332">
        <ele>92</ele>
        <time>2022-07-21T08:13:04.298Z</time>
      </trkpt>
      <trkpt lat="44.19767" lon="0.89333">
        <ele>92</ele>
        <time>2022-07-21T08:13:05.298Z</time>
      </trkpt>
      <trkpt lat="44.19767" lon="0.89334">
        <ele>92</ele>
        <time>2022-07-21T08:13:06.298Z</time>
      </trkpt>
      <trkpt lat="44.19768" lon="0.89336">
        <ele>92</ele>
        <time>2022-07-21T08:13:07.298Z</time>
      </trkpt>
      <trkpt lat="44.19768" lon="0.89337">
        <ele>93</ele>
        <time>2022-07-21T08:13:08.298Z</time>
      </trkpt>
      <trkpt lat="44.19769" lon="0.89339">
        <ele>93</ele>
        <time>2022-07-21T08:13:09.298Z</time>
      </trkpt>
      <trkpt lat="44.19769" lon="0.8934">
        <ele>93</ele>
        <time>2022-07-21T08:13:10.298Z</time>
      </trkpt>
      <trkpt lat="44.19769" lon="0.89341">
        <ele>93</ele>
        <time>2022-07-21T08:13:11.298Z</time>
      </trkpt>
      <trkpt lat="44.1977" lon="0.89342">
        <ele>93</ele>
        <time>2022-07-21T08:13:12.298Z</time>
      </trkpt>
      <trkpt lat="44.19771" lon="0.89344">
        <ele>94</ele>
        <time>2022-07-21T08:13:13.298Z</time>
      </trkpt>
      <trkpt lat="44.19771" lon="0.89344">
        <ele>94</ele>
        <time>2022-07-21T08:13:14.298Z</time>
      </trkpt>
      <trkpt lat="44.19771" lon="0.89346">
        <ele>94</ele>
        <time>2022-07-21T08:13:15.298Z</time>
      </trkpt>
      <trkpt lat="44.19772" lon="0.89347">
        <ele>94</ele>
        <time>2022-07-21T08:13:16.298Z</time>
      </trkpt>
      <trkpt lat="44.19772" lon="0.89348">
        <ele>94</ele>
        <time>2022-07-21T08:13:17.298Z</time>
      </trkpt>
      <trkpt lat="44.19772" lon="0.89349">
        <ele>94</ele>
        <time>2022-07-21T08:13:18.298Z</time>
      </trkpt>
      <trkpt lat="44.19772" lon="0.8935">
        <ele>94</ele>
        <time>2022-07-21T08:13:19.298Z</time>
      </trkpt>
      <trkpt lat="44.19772" lon="0.89352">
        <ele>95</ele>
        <time>2022-07-21T08:13:20.298Z</time>
      </trkpt>
      <trkpt lat="44.19773" lon="0.89353">
        <ele>95</ele>
        <time>2022-07-21T08:13:21.298Z</time>
      </trkpt>
      <trkpt lat="44.19773" lon="0.89354">
        <ele>95</ele>
        <time>2022-07-21T08:13:22.298Z</time>
      </trkpt>
      <trkpt lat="44.19773" lon="0.89355">
        <ele>95</ele>
        <time>2022-07-21T08:13:23.298Z</time>
      </trkpt>
      <trkpt lat="44.19773" lon="0.89356">
        <ele>96</ele>
        <time>2022-07-21T08:13:24.298Z</time>
      </trkpt>
      <trkpt lat="44.19774" lon="0.89357">
        <ele>97</ele>
        <time>2022-07-21T08:13:25.298Z</time>
      </trkpt>
      <trkpt lat="44.19774" lon="0.89358">
        <ele>98</ele>
        <time>2022-07-21T08:13:26.298Z</time>
      </trkpt>
      <trkpt lat="44.19774" lon="0.89359">
        <ele>98</ele>
        <time>2022-07-21T08:13:27.298Z</time>
      </trkpt>
      <trkpt lat="44.19774" lon="0.8936">
        <ele>98</ele>
        <time>2022-07-21T08:13:28.298Z</time>
      </trkpt>
      <trkpt lat="44.19774" lon="0.89361">
        <ele>98</ele>
        <time>2022-07-21T08:13:29.298Z</time>
      </trkpt>
      <trkpt lat="44.19774" lon="0.89362">
        <ele>98</ele>
        <time>2022-07-21T08:13:30.298Z</time>
      </trkpt>
      <trkpt lat="44.19774" lon="0.89363">
        <ele>98</ele>
        <time>2022-07-21T08:13:31.298Z</time>
      </trkpt>
      <trkpt lat="44.19775" lon="0.89364">
        <ele>98</ele>
        <time>2022-07-21T08:13:32.298Z</time>
      </trkpt>
      <trkpt lat="44.19775" lon="0.89365">
        <ele>98</ele>
        <time>2022-07-21T08:13:33.298Z</time>
      </trkpt>
      <trkpt lat="44.19775" lon="0.89367">
        <ele>98</ele>
        <time>2022-07-21T08:13:34.298Z</time>
      </trkpt>
      <trkpt lat="44.19775" lon="0.89368">
        <ele>97</ele>
        <time>2022-07-21T08:13:35.298Z</time>
      </trkpt>
      <trkpt lat="44.19775" lon="0.89369">
        <ele>97</ele>
        <time>2022-07-21T08:13:36.298Z</time>
      </trkpt>
      <trkpt lat="44.19775" lon="0.8937">
        <ele>98</ele>
        <time>2022-07-21T08:13:37.298Z</time>
      </trkpt>
      <trkpt lat="44.19776" lon="0.89371">
        <ele>98</ele>
        <time>2022-07-21T08:13:38.298Z</time>
      </trkpt>
      <trkpt lat="44.19776" lon="0.89372">
        <ele>100</ele>
        <time>2022-07-21T08:13:39.298Z</time>
      </trkpt>
      <trkpt lat="44.19776" lon="0.89373">
        <ele>100</ele>
        <time>2022-07-21T08:13:40.298Z</time>
      </trkpt>
      <trkpt lat="44.19776" lon="0.89373">
        <ele>100</ele>
        <time>2022-07-21T08:13:41.298Z</time>
      </trkpt>
      <trkpt lat="44.19776" lon="0.89374">
        <ele>100</ele>
        <time>2022-07-21T08:13:42.298Z</time>
      </trkpt>
      <trkpt lat="44.19776" lon="0.89375">
        <ele>100</ele>
        <time>2022-07-21T08:13:43.298Z</time>
      </trkpt>
      <trkpt lat="44.19776" lon="0.89376">
        <ele>100</ele>
        <time>2022-07-21T08:13:44.298Z</time>
      </trkpt>
      <trkpt lat="44.19777" lon="0.89378">
        <ele>100</ele>
        <time>2022-07-21T08:13:45.298Z</time>
      </trkpt>
      <trkpt lat="44.19777" lon="0.89379">
        <ele>100</ele>
        <time>2022-07-21T08:13:46.298Z</time>
      </trkpt>
      <trkpt lat="44.19778" lon="0.8938">
        <ele>100</ele>
        <time>2022-07-21T08:13:47.298Z</time>
      </trkpt>
      <trkpt lat="44.19778" lon="0.89381">
        <ele>100</ele>
        <time>2022-07-21T08:13:48.298Z</time>
      </trkpt>
      <trkpt lat="44.19779" lon="0.89382">
        <ele>100</ele>
        <time>2022-07-21T08:13:49.298Z</time>
      </trkpt>
      <trkpt lat="44.19779" lon="0.89383">
        <ele>100</ele>
        <time>2022-07-21T08:13:50.298Z</time>
      </trkpt>
      <trkpt lat="44.1978" lon="0.89385">
        <ele>101</ele>
        <time>2022-07-21T08:13:51.298Z</time>
      </trkpt>
      <trkpt lat="44.1978" lon="0.89386">
        <ele>101</ele>
        <time>2022-07-21T08:13:52.298Z</time>
      </trkpt>
      <trkpt lat="44.19781" lon="0.89387">
        <ele>101</ele>
        <time>2022-07-21T08:13:53.298Z</time>
      </trkpt>
      <trkpt lat="44.19781" lon="0.89388">
        <ele>102</ele>
        <time>2022-07-21T08:13:54.298Z</time>
      </trkpt>
      <trkpt lat="44.19781" lon="0.89389">
        <ele>102</ele>
        <time>2022-07-21T08:13:55.298Z</time>
      </trkpt>
      <trkpt lat="44.19781" lon="0.8939">
        <ele>102</ele>
        <time>2022-07-21T08:13:56.298Z</time>
      </trkpt>
      <trkpt lat="44.19781" lon="0.89392">
        <ele>101</ele>
        <time>2022-07-21T08:13:57.298Z</time>
      </trkpt>
      <trkpt lat="44.19781" lon="0.89393">
        <ele>102</ele>
        <time>2022-07-21T08:13:58.298Z</time>
      </trkpt>
      <trkpt lat="44.19781" lon="0.89394">
        <ele>102</ele>
        <time>2022-07-21T08:13:59.298Z</time>
      </trkpt>
      <trkpt lat="44.19782" lon="0.89395">
        <ele>102</ele>
        <time>2022-07-21T08:14:00.298Z</time>
      </trkpt>
      <trkpt lat="44.19782" lon="0.89395">
        <ele>103</ele>
        <time>2022-07-21T08:14:01.298Z</time>
      </trkpt>
      <trkpt lat="44.19782" lon="0.89396">
        <ele>103</ele>
        <time>2022-07-21T08:14:02.298Z</time>
      </trkpt>
      <trkpt lat="44.19782" lon="0.89397">
        <ele>104</ele>
        <time>2022-07-21T08:14:03.298Z</time>
      </trkpt>
      <trkpt lat="44.19782" lon="0.89398">
        <ele>104</ele>
        <time>2022-07-21T08:14:04.298Z</time>
      </trkpt>
      <trkpt lat="44.19782" lon="0.89399">
        <ele>104</ele>
        <time>2022-07-21T08:14:05.298Z</time>
      </trkpt>
      <trkpt lat="44.19782" lon="0.89399">
        <ele>104</ele>
        <time>2022-07-21T08:14:06.298Z</time>
      </trkpt>
      <trkpt lat="44.19782" lon="0.894">
        <ele>104</ele>
        <time>2022-07-21T08:14:07.298Z</time>
      </trkpt>
      <trkpt lat="44.19782" lon="0.894">
        <ele>103</ele>
        <time>2022-07-21T08:14:08.298Z</time>
      </trkpt>
      <trkpt lat="44.19782" lon="0.89401">
        <ele>103</ele>
        <time>2022-07-21T08:14:09.298Z</time>
      </trkpt>
      <trkpt lat="44.19782" lon="0.89401">
        <ele>103</ele>
        <time>2022-07-21T08:14:10.298Z</time>
      </trkpt>
      <trkpt lat="44.19782" lon="0.89401">
        <ele>103</ele>
        <time>2022-07-21T08:14:11.298Z</time>
      </trkpt>
      <trkpt lat="44.19782" lon="0.894">
        <ele>103</ele>
        <time>2022-07-21T08:14:12.298Z</time>
      </trkpt>
      <trkpt lat="44.19782" lon="0.894">
        <ele>103</ele>
        <time>2022-07-21T08:14:13.298Z</time>
      </trkpt>
      <trkpt lat="44.19782" lon="0.894">
        <ele>103</ele>
        <time>2022-07-21T08:14:14.298Z</time>
      </trkpt>
      <trkpt lat="44.19782" lon="0.894">
        <ele>103</ele>
        <time>2022-07-21T08:14:15.298Z</time>
      </trkpt>
      <trkpt lat="44.19782" lon="0.894">
        <ele>103</ele>
        <time>2022-07-21T08:14:16.298Z</time>
      </trkpt>
      <trkpt lat="44.19782" lon="0.89404">
        <ele>103</ele>
        <time>2022-07-21T08:14:49.322Z</time>
      </trkpt>
      <trkpt lat="44.19782" lon="0.89405">
        <ele>103</ele>
        <time>2022-07-21T08:14:50.322Z</time>
      </trkpt>
      <trkpt lat="44.19782" lon="0.89407">
        <ele>103</ele>
        <time>2022-07-21T08:14:51.322Z</time>
      </trkpt>
      <trkpt lat="44.19782" lon="0.89408">
        <ele>103</ele>
        <time>2022-07-21T08:14:52.322Z</time>
      </trkpt>
      <trkpt lat="44.19783" lon="0.89409">
        <ele>103</ele>
        <time>2022-07-21T08:14:53.322Z</time>
      </trkpt>
      <trkpt lat="44.19783" lon="0.8941">
        <ele>103</ele>
        <time>2022-07-21T08:14:54.322Z</time>
      </trkpt>
      <trkpt lat="44.19783" lon="0.89411">
        <ele>103</ele>
        <time>2022-07-21T08:14:55.322Z</time>
      </trkpt>
      <trkpt lat="44.19783" lon="0.89412">
        <ele>103</ele>
        <time>2022-07-21T08:14:56.322Z</time>
      </trkpt>
      <trkpt lat="44.19783" lon="0.89414">
        <ele>104</ele>
        <time>2022-07-21T08:14:57.322Z</time>
      </trkpt>
      <trkpt lat="44.19784" lon="0.89415">
        <ele>103</ele>
        <time>2022-07-21T08:14:58.322Z</time>
      </trkpt>
      <trkpt lat="44.19784" lon="0.89416">
        <ele>103</ele>
        <time>2022-07-21T08:14:59.322Z</time>
      </trkpt>
      <trkpt lat="44.19784" lon="0.89418">
        <ele>103</ele>
        <time>2022-07-21T08:15:00.322Z</time>
      </trkpt>
      <trkpt lat="44.19784" lon="0.89419">
        <ele>103</ele>
        <time>2022-07-21T08:15:01.322Z</time>
      </trkpt>
      <trkpt lat="44.19785" lon="0.8942">
        <ele>103</ele>
        <time>2022-07-21T08:15:02.322Z</time>
      </trkpt>
      <trkpt lat="44.19785" lon="0.89421">
        <ele>103</ele>
        <time>2022-07-21T08:15:03.322Z</time>
      </trkpt>
      <trkpt lat="44.19785" lon="0.89422">
        <ele>102</ele>
        <time>2022-07-21T08:15:04.322Z</time>
      </trkpt>
      <trkpt lat="44.19785" lon="0.89423">
        <ele>103</ele>
        <time>2022-07-21T08:15:05.322Z</time>
      </trkpt>
      <trkpt lat="44.19785" lon="0.89424">
        <ele>103</ele>
        <time>2022-07-21T08:15:06.322Z</time>
      </trkpt>
      <trkpt lat="44.19786" lon="0.89425">
        <ele>103</ele>
        <time>2022-07-21T08:15:07.322Z</time>
      </trkpt>
      <trkpt lat="44.19786" lon="0.89427">
        <ele>103</ele>
        <time>2022-07-21T08:15:08.322Z</time>
      </trkpt>
      <trkpt lat="44.19786" lon="0.89428">
        <ele>103</ele>
        <time>2022-07-21T08:15:09.322Z</time>
      </trkpt>
      <trkpt lat="44.19787" lon="0.8943">
        <ele>104</ele>
        <time>2022-07-21T08:15:10.322Z</time>
      </trkpt>
      <trkpt lat="44.19787" lon="0.89431">
        <ele>104</ele>
        <time>2022-07-21T08:15:11.322Z</time>
      </trkpt>
      <trkpt lat="44.19787" lon="0.89433">
        <ele>104</ele>
        <time>2022-07-21T08:15:12.322Z</time>
      </trkpt>
      <trkpt lat="44.19788" lon="0.89434">
        <ele>104</ele>
        <time>2022-07-21T08:15:13.322Z</time>
      </trkpt>
      <trkpt lat="44.19788" lon="0.89436">
        <ele>104</ele>
        <time>2022-07-21T08:15:14.322Z</time>
      </trkpt>
      <trkpt lat="44.19788" lon="0.89437">
        <ele>104</ele>
        <time>2022-07-21T08:15:15.322Z</time>
      </trkpt>
      <trkpt lat="44.19788" lon="0.89438">
        <ele>104</ele>
        <time>2022-07-21T08:15:16.322Z</time>
      </trkpt>
      <trkpt lat="44.19789" lon="0.8944">
        <ele>104</ele>
        <time>2022-07-21T08:15:17.322Z</time>
      </trkpt>
      <trkpt lat="44.19789" lon="0.89441">
        <ele>104</ele>
        <time>2022-07-21T08:15:18.322Z</time>
      </trkpt>
      <trkpt lat="44.19789" lon="0.89443">
        <ele>105</ele>
        <time>2022-07-21T08:15:19.322Z</time>
      </trkpt>
      <trkpt lat="44.19789" lon="0.89444">
        <ele>105</ele>
        <time>2022-07-21T08:15:20.322Z</time>
      </trkpt>
      <trkpt lat="44.19789" lon="0.89445">
        <ele>105</ele>
        <time>2022-07-21T08:15:21.322Z</time>
      </trkpt>
      <trkpt lat="44.19789" lon="0.89447">
        <ele>105</ele>
        <time>2022-07-21T08:15:22.322Z</time>
      </trkpt>
      <trkpt lat="44.19789" lon="0.89448">
        <ele>106</ele>
        <time>2022-07-21T08:15:23.322Z</time>
      </trkpt>
      <trkpt lat="44.19789" lon="0.89449">
        <ele>107</ele>
        <time>2022-07-21T08:15:24.322Z</time>
      </trkpt>
      <trkpt lat="44.1979" lon="0.8945">
        <ele>106</ele>
        <time>2022-07-21T08:15:25.322Z</time>
      </trkpt>
      <trkpt lat="44.1979" lon="0.89452">
        <ele>107</ele>
        <time>2022-07-21T08:15:26.322Z</time>
      </trkpt>
      <trkpt lat="44.1979" lon="0.89453">
        <ele>107</ele>
        <time>2022-07-21T08:15:27.322Z</time>
      </trkpt>
      <trkpt lat="44.1979" lon="0.89454">
        <ele>107</ele>
        <time>2022-07-21T08:15:28.322Z</time>
      </trkpt>
      <trkpt lat="44.1979" lon="0.89455">
        <ele>107</ele>
        <time>2022-07-21T08:15:29.322Z</time>
      </trkpt>
      <trkpt lat="44.1979" lon="0.89457">
        <ele>107</ele>
        <time>2022-07-21T08:15:30.322Z</time>
      </trkpt>
      <trkpt lat="44.1979" lon="0.89458">
        <ele>107</ele>
        <time>2022-07-21T08:15:31.322Z</time>
      </trkpt>
      <trkpt lat="44.1979" lon="0.89459">
        <ele>107</ele>
        <time>2022-07-21T08:15:32.322Z</time>
      </trkpt>
      <trkpt lat="44.1979" lon="0.89461">
        <ele>107</ele>
        <time>2022-07-21T08:15:33.322Z</time>
      </trkpt>
      <trkpt lat="44.1979" lon="0.89462">
        <ele>107</ele>
        <time>2022-07-21T08:15:34.322Z</time>
      </trkpt>
      <trkpt lat="44.1979" lon="0.89463">
        <ele>108</ele>
        <time>2022-07-21T08:15:35.322Z</time>
      </trkpt>
      <trkpt lat="44.1979" lon="0.89464">
        <ele>107</ele>
        <time>2022-07-21T08:15:36.322Z</time>
      </trkpt>
      <trkpt lat="44.1979" lon="0.89466">
        <ele>108</ele>
        <time>2022-07-21T08:15:37.322Z</time>
      </trkpt>
      <trkpt lat="44.1979" lon="0.89467">
        <ele>107</ele>
        <time>2022-07-21T08:15:38.322Z</time>
      </trkpt>
      <trkpt lat="44.1979" lon="0.89469">
        <ele>107</ele>
        <time>2022-07-21T08:15:39.322Z</time>
      </trkpt>
      <trkpt lat="44.1979" lon="0.89471">
        <ele>107</ele>
        <time>2022-07-21T08:15:40.322Z</time>
      </trkpt>
      <trkpt lat="44.1979" lon="0.89472">
        <ele>107</ele>
        <time>2022-07-21T08:15:41.322Z</time>
      </trkpt>
      <trkpt lat="44.19789" lon="0.89474">
        <ele>107</ele>
        <time>2022-07-21T08:15:42.322Z</time>
      </trkpt>
      <trkpt lat="44.19789" lon="0.89475">
        <ele>107</ele>
        <time>2022-07-21T08:15:43.322Z</time>
      </trkpt>
      <trkpt lat="44.19789" lon="0.89476">
        <ele>106</ele>
        <time>2022-07-21T08:15:44.322Z</time>
      </trkpt>
      <trkpt lat="44.19788" lon="0.89477">
        <ele>106</ele>
        <time>2022-07-21T08:15:45.322Z</time>
      </trkpt>
      <trkpt lat="44.19788" lon="0.89478">
        <ele>106</ele>
        <time>2022-07-21T08:15:46.322Z</time>
      </trkpt>
      <trkpt lat="44.19788" lon="0.89479">
        <ele>106</ele>
        <time>2022-07-21T08:15:47.322Z</time>
      </trkpt>
      <trkpt lat="44.19788" lon="0.89481">
        <ele>106</ele>
        <time>2022-07-21T08:15:48.322Z</time>
      </trkpt>
      <trkpt lat="44.19788" lon="0.89482">
        <ele>106</ele>
        <time>2022-07-21T08:15:49.322Z</time>
      </trkpt>
      <trkpt lat="44.19788" lon="0.89483">
        <ele>106</ele>
        <time>2022-07-21T08:15:50.322Z</time>
      </trkpt>
      <trkpt lat="44.19788" lon="0.89485">
        <ele>106</ele>
        <time>2022-07-21T08:15:51.322Z</time>
      </trkpt>
      <trkpt lat="44.19787" lon="0.89486">
        <ele>106</ele>
        <time>2022-07-21T08:15:52.322Z</time>
      </trkpt>
      <trkpt lat="44.19787" lon="0.89487">
        <ele>107</ele>
        <time>2022-07-21T08:15:53.322Z</time>
      </trkpt>
      <trkpt lat="44.19787" lon="0.89489">
        <ele>107</ele>
        <time>2022-07-21T08:15:54.322Z</time>
      </trkpt>
      <trkpt lat="44.19786" lon="0.8949">
        <ele>106</ele>
        <time>2022-07-21T08:15:55.322Z</time>
      </trkpt>
      <trkpt lat="44.19786" lon="0.89491">
        <ele>106</ele>
        <time>2022-07-21T08:15:56.322Z</time>
      </trkpt>
      <trkpt lat="44.19786" lon="0.89492">
        <ele>106</ele>
        <time>2022-07-21T08:15:57.322Z</time>
      </trkpt>
      <trkpt lat="44.19786" lon="0.89494">
        <ele>106</ele>
        <time>2022-07-21T08:15:58.322Z</time>
      </trkpt>
      <trkpt lat="44.19786" lon="0.89495">
        <ele>106</ele>
        <time>2022-07-21T08:15:59.322Z</time>
      </trkpt>
      <trkpt lat="44.19785" lon="0.89496">
        <ele>106</ele>
        <time>2022-07-21T08:16:00.322Z</time>
      </trkpt>
      <trkpt lat="44.19785" lon="0.89498">
        <ele>106</ele>
        <time>2022-07-21T08:16:01.322Z</time>
      </trkpt>
      <trkpt lat="44.19785" lon="0.89499">
        <ele>106</ele>
        <time>2022-07-21T08:16:02.322Z</time>
      </trkpt>
      <trkpt lat="44.19785" lon="0.895">
        <ele>107</ele>
        <time>2022-07-21T08:16:03.322Z</time>
      </trkpt>
      <trkpt lat="44.19785" lon="0.89501">
        <ele>106</ele>
        <time>2022-07-21T08:16:04.322Z</time>
      </trkpt>
      <trkpt lat="44.19784" lon="0.89503">
        <ele>107</ele>
        <time>2022-07-21T08:16:05.322Z</time>
      </trkpt>
      <trkpt lat="44.19784" lon="0.89504">
        <ele>107</ele>
        <time>2022-07-21T08:16:06.322Z</time>
      </trkpt>
      <trkpt lat="44.19784" lon="0.89504">
        <ele>107</ele>
        <time>2022-07-21T08:16:07.322Z</time>
      </trkpt>
      <trkpt lat="44.19784" lon="0.89504">
        <ele>108</ele>
        <time>2022-07-21T08:16:08.322Z</time>
      </trkpt>
      <trkpt lat="44.19784" lon="0.89505">
        <ele>108</ele>
        <time>2022-07-21T08:16:09.322Z</time>
      </trkpt>
      <trkpt lat="44.19784" lon="0.89505">
        <ele>109</ele>
        <time>2022-07-21T08:16:10.322Z</time>
      </trkpt>
      <trkpt lat="44.19784" lon="0.89506">
        <ele>109</ele>
        <time>2022-07-21T08:16:11.322Z</time>
      </trkpt>
      <trkpt lat="44.19784" lon="0.89506">
        <ele>109</ele>
        <time>2022-07-21T08:16:12.322Z</time>
      </trkpt>
      <trkpt lat="44.19784" lon="0.89506">
        <ele>109</ele>
        <time>2022-07-21T08:16:13.322Z</time>
      </trkpt>
      <trkpt lat="44.19784" lon="0.8951">
        <ele>111</ele>
        <time>2022-07-21T08:16:35.342Z</time>
      </trkpt>
      <trkpt lat="44.19784" lon="0.89512">
        <ele>111</ele>
        <time>2022-07-21T08:16:36.342Z</time>
      </trkpt>
      <trkpt lat="44.19783" lon="0.89513">
        <ele>111</ele>
        <time>2022-07-21T08:16:37.342Z</time>
      </trkpt>
      <trkpt lat="44.19783" lon="0.89514">
        <ele>111</ele>
        <time>2022-07-21T08:16:38.342Z</time>
      </trkpt>
      <trkpt lat="44.19783" lon="0.89515">
        <ele>111</ele>
        <time>2022-07-21T08:16:39.342Z</time>
      </trkpt>
      <trkpt lat="44.19783" lon="0.89516">
        <ele>111</ele>
        <time>2022-07-21T08:16:40.342Z</time>
      </trkpt>
      <trkpt lat="44.19783" lon="0.89518">
        <ele>112</ele>
        <time>2022-07-21T08:16:41.342Z</time>
      </trkpt>
      <trkpt lat="44.19782" lon="0.89519">
        <ele>111</ele>
        <time>2022-07-21T08:16:42.342Z</time>
      </trkpt>
      <trkpt lat="44.19782" lon="0.89521">
        <ele>111</ele>
        <time>2022-07-21T08:16:43.342Z</time>
      </trkpt>
      <trkpt lat="44.19782" lon="0.89522">
        <ele>111</ele>
        <time>2022-07-21T08:16:44.342Z</time>
      </trkpt>
      <trkpt lat="44.19782" lon="0.89524">
        <ele>112</ele>
        <time>2022-07-21T08:16:45.342Z</time>
      </trkpt>
      <trkpt lat="44.19782" lon="0.89525">
        <ele>112</ele>
        <time>2022-07-21T08:16:46.342Z</time>
      </trkpt>
      <trkpt lat="44.19781" lon="0.89528">
        <ele>113</ele>
        <time>2022-07-21T08:16:47.342Z</time>
      </trkpt>
      <trkpt lat="44.19781" lon="0.8953">
        <ele>114</ele>
        <time>2022-07-21T08:16:48.342Z</time>
      </trkpt>
      <trkpt lat="44.19781" lon="0.89532">
        <ele>114</ele>
        <time>2022-07-21T08:16:49.342Z</time>
      </trkpt>
      <trkpt lat="44.19781" lon="0.89534">
        <ele>115</ele>
        <time>2022-07-21T08:16:50.342Z</time>
      </trkpt>
      <trkpt lat="44.19781" lon="0.89535">
        <ele>115</ele>
        <time>2022-07-21T08:16:51.342Z</time>
      </trkpt>
      <trkpt lat="44.19781" lon="0.89536">
        <ele>116</ele>
        <time>2022-07-21T08:16:52.342Z</time>
      </trkpt>
      <trkpt lat="44.19781" lon="0.89538">
        <ele>116</ele>
        <time>2022-07-21T08:16:53.342Z</time>
      </trkpt>
      <trkpt lat="44.19781" lon="0.8954">
        <ele>116</ele>
        <time>2022-07-21T08:16:54.342Z</time>
      </trkpt>
      <trkpt lat="44.19781" lon="0.89542">
        <ele>116</ele>
        <time>2022-07-21T08:16:55.342Z</time>
      </trkpt>
      <trkpt lat="44.1978" lon="0.89544">
        <ele>116</ele>
        <time>2022-07-21T08:16:56.342Z</time>
      </trkpt>
      <trkpt lat="44.1978" lon="0.89546">
        <ele>116</ele>
        <time>2022-07-21T08:16:57.342Z</time>
      </trkpt>
      <trkpt lat="44.1978" lon="0.89548">
        <ele>117</ele>
        <time>2022-07-21T08:16:58.342Z</time>
      </trkpt>
      <trkpt lat="44.1978" lon="0.8955">
        <ele>117</ele>
        <time>2022-07-21T08:16:59.342Z</time>
      </trkpt>
      <trkpt lat="44.1978" lon="0.89551">
        <ele>117</ele>
        <time>2022-07-21T08:17:00.342Z</time>
      </trkpt>
      <trkpt lat="44.1978" lon="0.89552">
        <ele>117</ele>
        <time>2022-07-21T08:17:01.342Z</time>
      </trkpt>
      <trkpt lat="44.19779" lon="0.89553">
        <ele>116</ele>
        <time>2022-07-21T08:17:02.342Z</time>
      </trkpt>
      <trkpt lat="44.19778" lon="0.89553">
        <ele>116</ele>
        <time>2022-07-21T08:17:03.342Z</time>
      </trkpt>
      <trkpt lat="44.19778" lon="0.89554">
        <ele>116</ele>
        <time>2022-07-21T08:17:04.342Z</time>
      </trkpt>
      <trkpt lat="44.19777" lon="0.89555">
        <ele>116</ele>
        <time>2022-07-21T08:17:05.342Z</time>
      </trkpt>
      <trkpt lat="44.19776" lon="0.89555">
        <ele>115</ele>
        <time>2022-07-21T08:17:06.342Z</time>
      </trkpt>
      <trkpt lat="44.19775" lon="0.89556">
        <ele>115</ele>
        <time>2022-07-21T08:17:07.342Z</time>
      </trkpt>
      <trkpt lat="44.19774" lon="0.89556">
        <ele>114</ele>
        <time>2022-07-21T08:17:08.342Z</time>
      </trkpt>
      <trkpt lat="44.19773" lon="0.89557">
        <ele>115</ele>
        <time>2022-07-21T08:17:09.342Z</time>
      </trkpt>
      <trkpt lat="44.19772" lon="0.89559">
        <ele>115</ele>
        <time>2022-07-21T08:17:10.342Z</time>
      </trkpt>
      <trkpt lat="44.19771" lon="0.8956">
        <ele>114</ele>
        <time>2022-07-21T08:17:11.342Z</time>
      </trkpt>
      <trkpt lat="44.1977" lon="0.89561">
        <ele>114</ele>
        <time>2022-07-21T08:17:12.342Z</time>
      </trkpt>
      <trkpt lat="44.1977" lon="0.89562">
        <ele>114</ele>
        <time>2022-07-21T08:17:13.342Z</time>
      </trkpt>
      <trkpt lat="44.19769" lon="0.89563">
        <ele>114</ele>
        <time>2022-07-21T08:17:14.342Z</time>
      </trkpt>
      <trkpt lat="44.1977" lon="0.89565">
        <ele>114</ele>
        <time>2022-07-21T08:17:15.342Z</time>
      </trkpt>
      <trkpt lat="44.1977" lon="0.89566">
        <ele>115</ele>
        <time>2022-07-21T08:17:16.342Z</time>
      </trkpt>
      <trkpt lat="44.19771" lon="0.89568">
        <ele>114</ele>
        <time>2022-07-21T08:17:17.342Z</time>
      </trkpt>
      <trkpt lat="44.19771" lon="0.89569">
        <ele>115</ele>
        <time>2022-07-21T08:17:18.342Z</time>
      </trkpt>
      <trkpt lat="44.19771" lon="0.8957">
        <ele>115</ele>
        <time>2022-07-21T08:17:19.342Z</time>
      </trkpt>
      <trkpt lat="44.19771" lon="0.89571">
        <ele>115</ele>
        <time>2022-07-21T08:17:20.342Z</time>
      </trkpt>
      <trkpt lat="44.19771" lon="0.89572">
        <ele>116</ele>
        <time>2022-07-21T08:17:21.342Z</time>
      </trkpt>
      <trkpt lat="44.19771" lon="0.89573">
        <ele>115</ele>
        <time>2022-07-21T08:17:22.342Z</time>
      </trkpt>
      <trkpt lat="44.19771" lon="0.89574">
        <ele>115</ele>
        <time>2022-07-21T08:17:23.342Z</time>
      </trkpt>
      <trkpt lat="44.19771" lon="0.89575">
        <ele>116</ele>
        <time>2022-07-21T08:17:24.342Z</time>
      </trkpt>
      <trkpt lat="44.19771" lon="0.89575">
        <ele>115</ele>
        <time>2022-07-21T08:17:25.342Z</time>
      </trkpt>
      <trkpt lat="44.19771" lon="0.89576">
        <ele>116</ele>
        <time>2022-07-21T08:17:26.342Z</time>
      </trkpt>
      <trkpt lat="44.19771" lon="0.89577">
        <ele>115</ele>
        <time>2022-07-21T08:17:27.342Z</time>
      </trkpt>
      <trkpt lat="44.19771" lon="0.89577">
        <ele>115</ele>
        <time>2022-07-21T08:17:28.342Z</time>
      </trkpt>
      <trkpt lat="44.19771" lon="0.89577">
        <ele>115</ele>
        <time>2022-07-21T08:17:29.342Z</time>
      </trkpt>
      <trkpt lat="44.19771" lon="0.89578">
        <ele>115</ele>
        <time>2022-07-21T08:17:30.342Z</time>
      </trkpt>
      <trkpt lat="44.19772" lon="0.89578">
        <ele>115</ele>
        <time>2022-07-21T08:17:31.342Z</time>
      </trkpt>
      <trkpt lat="44.19772" lon="0.89579">
        <ele>115</ele>
        <time>2022-07-21T08:17:32.342Z</time>
      </trkpt>
      <trkpt lat="44.19773" lon="0.89579">
        <ele>115</ele>
        <time>2022-07-21T08:17:33.342Z</time>
      </trkpt>
      <trkpt lat="44.19773" lon="0.8958">
        <ele>115</ele>
        <time>2022-07-21T08:17:34.342Z</time>
      </trkpt>
      <trkpt lat="44.19773" lon="0.89581">
        <ele>115</ele>
        <time>2022-07-21T08:17:35.342Z</time>
      </trkpt>
      <trkpt lat="44.19773" lon="0.89581">
        <ele>115</ele>
        <time>2022-07-21T08:17:36.342Z</time>
      </trkpt>
      <trkpt lat="44.19772" lon="0.89582">
        <ele>115</ele>
        <time>2022-07-21T08:17:37.342Z</time>
      </trkpt>
      <trkpt lat="44.19772" lon="0.89582">
        <ele>115</ele>
        <time>2022-07-21T08:17:38.342Z</time>
      </trkpt>
      <trkpt lat="44.19772" lon="0.89582">
        <ele>115</ele>
        <time>2022-07-21T08:17:39.342Z</time>
      </trkpt>
      <trkpt lat="44.19771" lon="0.89582">
        <ele>115</ele>
        <time>2022-07-21T08:17:40.342Z</time>
      </trkpt>
      <trkpt lat="44.19771" lon="0.89582">
        <ele>115</ele>
        <time>2022-07-21T08:17:41.342Z</time>
      </trkpt>
      <trkpt lat="44.19771" lon="0.89582">
        <ele>115</ele>
        <time>2022-07-21T08:17:42.342Z</time>
      </trkpt>
      <trkpt lat="44.19772" lon="0.89588">
        <ele>113</ele>
        <time>2022-07-21T08:18:56.366Z</time>
      </trkpt>
      <trkpt lat="44.19773" lon="0.89588">
        <ele>113</ele>
        <time>2022-07-21T08:18:57.366Z</time>
      </trkpt>
      <trkpt lat="44.19773" lon="0.89589">
        <ele>113</ele>
        <time>2022-07-21T08:18:58.366Z</time>
      </trkpt>
      <trkpt lat="44.19773" lon="0.89589">
        <ele>113</ele>
        <time>2022-07-21T08:18:59.366Z</time>
      </trkpt>
      <trkpt lat="44.19773" lon="0.89589">
        <ele>113</ele>
        <time>2022-07-21T08:19:00.366Z</time>
      </trkpt>
      <trkpt lat="44.19773" lon="0.8959">
        <ele>113</ele>
        <time>2022-07-21T08:19:01.366Z</time>
      </trkpt>
      <trkpt lat="44.19774" lon="0.8959">
        <ele>113</ele>
        <time>2022-07-21T08:19:02.366Z</time>
      </trkpt>
      <trkpt lat="44.19774" lon="0.8959">
        <ele>113</ele>
        <time>2022-07-21T08:19:03.366Z</time>
      </trkpt>
      <trkpt lat="44.19773" lon="0.8959">
        <ele>114</ele>
        <time>2022-07-21T08:19:04.366Z</time>
      </trkpt>
      <trkpt lat="44.19773" lon="0.8959">
        <ele>114</ele>
        <time>2022-07-21T08:19:05.366Z</time>
      </trkpt>
      <trkpt lat="44.19779" lon="0.89593">
        <ele>114</ele>
        <time>2022-07-21T08:19:44.390Z</time>
      </trkpt>
      <trkpt lat="44.1978" lon="0.89594">
        <ele>114</ele>
        <time>2022-07-21T08:19:45.390Z</time>
      </trkpt>
      <trkpt lat="44.1978" lon="0.89595">
        <ele>114</ele>
        <time>2022-07-21T08:19:46.390Z</time>
      </trkpt>
      <trkpt lat="44.19781" lon="0.89596">
        <ele>113</ele>
        <time>2022-07-21T08:19:47.390Z</time>
      </trkpt>
      <trkpt lat="44.19781" lon="0.89596">
        <ele>114</ele>
        <time>2022-07-21T08:19:48.390Z</time>
      </trkpt>
      <trkpt lat="44.19782" lon="0.89597">
        <ele>114</ele>
        <time>2022-07-21T08:19:49.390Z</time>
      </trkpt>
      <trkpt lat="44.19783" lon="0.89597">
        <ele>114</ele>
        <time>2022-07-21T08:19:50.390Z</time>
      </trkpt>
      <trkpt lat="44.19783" lon="0.89598">
        <ele>114</ele>
        <time>2022-07-21T08:19:51.390Z</time>
      </trkpt>
      <trkpt lat="44.19784" lon="0.89599">
        <ele>114</ele>
        <time>2022-07-21T08:19:52.390Z</time>
      </trkpt>
      <trkpt lat="44.19784" lon="0.896">
        <ele>114</ele>
        <time>2022-07-21T08:19:53.390Z</time>
      </trkpt>
      <trkpt lat="44.19785" lon="0.89601">
        <ele>114</ele>
        <time>2022-07-21T08:19:54.390Z</time>
      </trkpt>
      <trkpt lat="44.19786" lon="0.89602">
        <ele>115</ele>
        <time>2022-07-21T08:19:55.390Z</time>
      </trkpt>
      <trkpt lat="44.19786" lon="0.89602">
        <ele>116</ele>
        <time>2022-07-21T08:19:56.390Z</time>
      </trkpt>
      <trkpt lat="44.19787" lon="0.89603">
        <ele>116</ele>
        <time>2022-07-21T08:19:57.390Z</time>
      </trkpt>
      <trkpt lat="44.19788" lon="0.89604">
        <ele>116</ele>
        <time>2022-07-21T08:19:58.390Z</time>
      </trkpt>
      <trkpt lat="44.19789" lon="0.89606">
        <ele>116</ele>
        <time>2022-07-21T08:19:59.390Z</time>
      </trkpt>
      <trkpt lat="44.1979" lon="0.89607">
        <ele>116</ele>
        <time>2022-07-21T08:20:00.390Z</time>
      </trkpt>
      <trkpt lat="44.19791" lon="0.89608">
        <ele>116</ele>
        <time>2022-07-21T08:20:01.390Z</time>
      </trkpt>
      <trkpt lat="44.19791" lon="0.89609">
        <ele>116</ele>
        <time>2022-07-21T08:20:02.390Z</time>
      </trkpt>
      <trkpt lat="44.19792" lon="0.8961">
        <ele>116</ele>
        <time>2022-07-21T08:20:03.390Z</time>
      </trkpt>
      <trkpt lat="44.19793" lon="0.89611">
        <ele>117</ele>
        <time>2022-07-21T08:20:04.390Z</time>
      </trkpt>
      <trkpt lat="44.19794" lon="0.89612">
        <ele>117</ele>
        <time>2022-07-21T08:20:05.390Z</time>
      </trkpt>
      <trkpt lat="44.19794" lon="0.89613">
        <ele>117</ele>
        <time>2022-07-21T08:20:06.390Z</time>
      </trkpt>
      <trkpt lat="44.19795" lon="0.89614">
        <ele>117</ele>
        <time>2022-07-21T08:20:07.390Z</time>
      </trkpt>
      <trkpt lat="44.19795" lon="0.89615">
        <ele>117</ele>
        <time>2022-07-21T08:20:08.390Z</time>
      </trkpt>
      <trkpt lat="44.19796" lon="0.89617">
        <ele>117</ele>
        <time>2022-07-21T08:20:09.390Z</time>
      </trkpt>
      <trkpt lat="44.19797" lon="0.89618">
        <ele>117</ele>
        <time>2022-07-21T08:20:10.390Z</time>
      </trkpt>
      <trkpt lat="44.19797" lon="0.89619">
        <ele>117</ele>
        <time>2022-07-21T08:20:11.390Z</time>
      </trkpt>
      <trkpt lat="44.19798" lon="0.8962">
        <ele>118</ele>
        <time>2022-07-21T08:20:12.390Z</time>
      </trkpt>
      <trkpt lat="44.19799" lon="0.89621">
        <ele>118</ele>
        <time>2022-07-21T08:20:13.390Z</time>
      </trkpt>
      <trkpt lat="44.198" lon="0.89621">
        <ele>118</ele>
        <time>2022-07-21T08:20:14.390Z</time>
      </trkpt>
      <trkpt lat="44.198" lon="0.89622">
        <ele>119</ele>
        <time>2022-07-21T08:20:15.390Z</time>
      </trkpt>
      <trkpt lat="44.19801" lon="0.89623">
        <ele>119</ele>
        <time>2022-07-21T08:20:16.390Z</time>
      </trkpt>
      <trkpt lat="44.19802" lon="0.89624">
        <ele>119</ele>
        <time>2022-07-21T08:20:17.390Z</time>
      </trkpt>
      <trkpt lat="44.19802" lon="0.89625">
        <ele>120</ele>
        <time>2022-07-21T08:20:18.390Z</time>
      </trkpt>
      <trkpt lat="44.19803" lon="0.89625">
        <ele>120</ele>
        <time>2022-07-21T08:20:19.390Z</time>
      </trkpt>
      <trkpt lat="44.19804" lon="0.89626">
        <ele>120</ele>
        <time>2022-07-21T08:20:20.390Z</time>
      </trkpt>
      <trkpt lat="44.19804" lon="0.89627">
        <ele>121</ele>
        <time>2022-07-21T08:20:21.390Z</time>
      </trkpt>
      <trkpt lat="44.19805" lon="0.89627">
        <ele>121</ele>
        <time>2022-07-21T08:20:22.390Z</time>
      </trkpt>
      <trkpt lat="44.19805" lon="0.89628">
        <ele>122</ele>
        <time>2022-07-21T08:20:23.390Z</time>
      </trkpt>
      <trkpt lat="44.19806" lon="0.89629">
        <ele>121</ele>
        <time>2022-07-21T08:20:24.390Z</time>
      </trkpt>
      <trkpt lat="44.19806" lon="0.8963">
        <ele>122</ele>
        <time>2022-07-21T08:20:25.390Z</time>
      </trkpt>
      <trkpt lat="44.19807" lon="0.89631">
        <ele>122</ele>
        <time>2022-07-21T08:20:26.390Z</time>
      </trkpt>
      <trkpt lat="44.19808" lon="0.89632">
        <ele>122</ele>
        <time>2022-07-21T08:20:27.390Z</time>
      </trkpt>
      <trkpt lat="44.19809" lon="0.89633">
        <ele>122</ele>
        <time>2022-07-21T08:20:28.390Z</time>
      </trkpt>
      <trkpt lat="44.1981" lon="0.89634">
        <ele>122</ele>
        <time>2022-07-21T08:20:29.390Z</time>
      </trkpt>
      <trkpt lat="44.19811" lon="0.89635">
        <ele>123</ele>
        <time>2022-07-21T08:20:30.390Z</time>
      </trkpt>
      <trkpt lat="44.19812" lon="0.89636">
        <ele>123</ele>
        <time>2022-07-21T08:20:31.390Z</time>
      </trkpt>
      <trkpt lat="44.19812" lon="0.89638">
        <ele>123</ele>
        <time>2022-07-21T08:20:32.390Z</time>
      </trkpt>
      <trkpt lat="44.19813" lon="0.89639">
        <ele>123</ele>
        <time>2022-07-21T08:20:33.390Z</time>
      </trkpt>
      <trkpt lat="44.19814" lon="0.8964">
        <ele>123</ele>
        <time>2022-07-21T08:20:34.390Z</time>
      </trkpt>
      <trkpt lat="44.19814" lon="0.89641">
        <ele>123</ele>
        <time>2022-07-21T08:20:35.390Z</time>
      </trkpt>
      <trkpt lat="44.19815" lon="0.89642">
        <ele>123</ele>
        <time>2022-07-21T08:20:36.390Z</time>
      </trkpt>
      <trkpt lat="44.19816" lon="0.89643">
        <ele>123</ele>
        <time>2022-07-21T08:20:37.390Z</time>
      </trkpt>
      <trkpt lat="44.19817" lon="0.89644">
        <ele>124</ele>
        <time>2022-07-21T08:20:38.390Z</time>
      </trkpt>
      <trkpt lat="44.19818" lon="0.89645">
        <ele>125</ele>
        <time>2022-07-21T08:20:39.390Z</time>
      </trkpt>
      <trkpt lat="44.19819" lon="0.89646">
        <ele>125</ele>
        <time>2022-07-21T08:20:40.390Z</time>
      </trkpt>
      <trkpt lat="44.19819" lon="0.89646">
        <ele>125</ele>
        <time>2022-07-21T08:20:41.390Z</time>
      </trkpt>
      <trkpt lat="44.1982" lon="0.89648">
        <ele>124</ele>
        <time>2022-07-21T08:20:42.390Z</time>
      </trkpt>
      <trkpt lat="44.19821" lon="0.89648">
        <ele>124</ele>
        <time>2022-07-21T08:20:43.390Z</time>
      </trkpt>
      <trkpt lat="44.19821" lon="0.89649">
        <ele>124</ele>
        <time>2022-07-21T08:20:44.390Z</time>
      </trkpt>
      <trkpt lat="44.19822" lon="0.8965">
        <ele>125</ele>
        <time>2022-07-21T08:20:45.390Z</time>
      </trkpt>
      <trkpt lat="44.19823" lon="0.89651">
        <ele>125</ele>
        <time>2022-07-21T08:20:46.390Z</time>
      </trkpt>
      <trkpt lat="44.19823" lon="0.89651">
        <ele>125</ele>
        <time>2022-07-21T08:20:47.390Z</time>
      </trkpt>
      <trkpt lat="44.19824" lon="0.89652">
        <ele>125</ele>
        <time>2022-07-21T08:20:48.390Z</time>
      </trkpt>
      <trkpt lat="44.19825" lon="0.89653">
        <ele>125</ele>
        <time>2022-07-21T08:20:49.390Z</time>
      </trkpt>
      <trkpt lat="44.19826" lon="0.89653">
        <ele>125</ele>
        <time>2022-07-21T08:20:50.390Z</time>
      </trkpt>
      <trkpt lat="44.19826" lon="0.89654">
        <ele>126</ele>
        <time>2022-07-21T08:20:51.390Z</time>
      </trkpt>
      <trkpt lat="44.19827" lon="0.89655">
        <ele>125</ele>
        <time>2022-07-21T08:20:52.390Z</time>
      </trkpt>
      <trkpt lat="44.19828" lon="0.89656">
        <ele>125</ele>
        <time>2022-07-21T08:20:53.390Z</time>
      </trkpt>
      <trkpt lat="44.19829" lon="0.89657">
        <ele>125</ele>
        <time>2022-07-21T08:20:54.390Z</time>
      </trkpt>
      <trkpt lat="44.19829" lon="0.89658">
        <ele>126</ele>
        <time>2022-07-21T08:20:55.390Z</time>
      </trkpt>
      <trkpt lat="44.1983" lon="0.89658">
        <ele>125</ele>
        <time>2022-07-21T08:20:56.390Z</time>
      </trkpt>
      <trkpt lat="44.19831" lon="0.89659">
        <ele>126</ele>
        <time>2022-07-21T08:20:57.390Z</time>
      </trkpt>
      <trkpt lat="44.19832" lon="0.8966">
        <ele>126</ele>
        <time>2022-07-21T08:20:58.390Z</time>
      </trkpt>
      <trkpt lat="44.19833" lon="0.8966">
        <ele>126</ele>
        <time>2022-07-21T08:20:59.390Z</time>
      </trkpt>
      <trkpt lat="44.19833" lon="0.89661">
        <ele>125</ele>
        <time>2022-07-21T08:21:00.390Z</time>
      </trkpt>
      <trkpt lat="44.19834" lon="0.89661">
        <ele>125</ele>
        <time>2022-07-21T08:21:01.390Z</time>
      </trkpt>
      <trkpt lat="44.19835" lon="0.89661">
        <ele>125</ele>
        <time>2022-07-21T08:21:02.390Z</time>
      </trkpt>
      <trkpt lat="44.19836" lon="0.89662">
        <ele>126</ele>
        <time>2022-07-21T08:21:03.390Z</time>
      </trkpt>
      <trkpt lat="44.19836" lon="0.89662">
        <ele>125</ele>
        <time>2022-07-21T08:21:04.390Z</time>
      </trkpt>
      <trkpt lat="44.19837" lon="0.89663">
        <ele>126</ele>
        <time>2022-07-21T08:21:05.390Z</time>
      </trkpt>
      <trkpt lat="44.19838" lon="0.89664">
        <ele>126</ele>
        <time>2022-07-21T08:21:06.390Z</time>
      </trkpt>
      <trkpt lat="44.19839" lon="0.89664">
        <ele>126</ele>
        <time>2022-07-21T08:21:07.390Z</time>
      </trkpt>
      <trkpt lat="44.19839" lon="0.89665">
        <ele>126</ele>
        <time>2022-07-21T08:21:08.390Z</time>
      </trkpt>
      <trkpt lat="44.1984" lon="0.89666">
        <ele>126</ele>
        <time>2022-07-21T08:21:09.390Z</time>
      </trkpt>
      <trkpt lat="44.19841" lon="0.89666">
        <ele>126</ele>
        <time>2022-07-21T08:21:10.390Z</time>
      </trkpt>
      <trkpt lat="44.19842" lon="0.89667">
        <ele>126</ele>
        <time>2022-07-21T08:21:11.390Z</time>
      </trkpt>
      <trkpt lat="44.19843" lon="0.89667">
        <ele>127</ele>
        <time>2022-07-21T08:21:12.390Z</time>
      </trkpt>
      <trkpt lat="44.19844" lon="0.89667">
        <ele>128</ele>
        <time>2022-07-21T08:21:13.390Z</time>
      </trkpt>
      <trkpt lat="44.19845" lon="0.89668">
        <ele>128</ele>
        <time>2022-07-21T08:21:14.390Z</time>
      </trkpt>
      <trkpt lat="44.19846" lon="0.89668">
        <ele>128</ele>
        <time>2022-07-21T08:21:15.390Z</time>
      </trkpt>
      <trkpt lat="44.19847" lon="0.89669">
        <ele>127</ele>
        <time>2022-07-21T08:21:16.390Z</time>
      </trkpt>
      <trkpt lat="44.19847" lon="0.8967">
        <ele>127</ele>
        <time>2022-07-21T08:21:17.390Z</time>
      </trkpt>
      <trkpt lat="44.19848" lon="0.8967">
        <ele>127</ele>
        <time>2022-07-21T08:21:18.390Z</time>
      </trkpt>
      <trkpt lat="44.19849" lon="0.89671">
        <ele>127</ele>
        <time>2022-07-21T08:21:19.390Z</time>
      </trkpt>
      <trkpt lat="44.1985" lon="0.89672">
        <ele>127</ele>
        <time>2022-07-21T08:21:20.390Z</time>
      </trkpt>
      <trkpt lat="44.1985" lon="0.89672">
        <ele>127</ele>
        <time>2022-07-21T08:21:21.390Z</time>
      </trkpt>
      <trkpt lat="44.19851" lon="0.89673">
        <ele>127</ele>
        <time>2022-07-21T08:21:22.390Z</time>
      </trkpt>
      <trkpt lat="44.19852" lon="0.89674">
        <ele>127</ele>
        <time>2022-07-21T08:21:23.390Z</time>
      </trkpt>
      <trkpt lat="44.19853" lon="0.89675">
        <ele>127</ele>
        <time>2022-07-21T08:21:24.390Z</time>
      </trkpt>
      <trkpt lat="44.19854" lon="0.89676">
        <ele>127</ele>
        <time>2022-07-21T08:21:25.390Z</time>
      </trkpt>
      <trkpt lat="44.19855" lon="0.89677">
        <ele>128</ele>
        <time>2022-07-21T08:21:26.390Z</time>
      </trkpt>
      <trkpt lat="44.19856" lon="0.89678">
        <ele>128</ele>
        <time>2022-07-21T08:21:27.390Z</time>
      </trkpt>
      <trkpt lat="44.19856" lon="0.89679">
        <ele>128</ele>
        <time>2022-07-21T08:21:28.390Z</time>
      </trkpt>
      <trkpt lat="44.19857" lon="0.8968">
        <ele>128</ele>
        <time>2022-07-21T08:21:29.390Z</time>
      </trkpt>
      <trkpt lat="44.19858" lon="0.89682">
        <ele>128</ele>
        <time>2022-07-21T08:21:30.390Z</time>
      </trkpt>
      <trkpt lat="44.19858" lon="0.89683">
        <ele>129</ele>
        <time>2022-07-21T08:21:31.390Z</time>
      </trkpt>
      <trkpt lat="44.19859" lon="0.89684">
        <ele>128</ele>
        <time>2022-07-21T08:21:32.390Z</time>
      </trkpt>
      <trkpt lat="44.19859" lon="0.89686">
        <ele>129</ele>
        <time>2022-07-21T08:21:33.390Z</time>
      </trkpt>
      <trkpt lat="44.1986" lon="0.89687">
        <ele>129</ele>
        <time>2022-07-21T08:21:34.390Z</time>
      </trkpt>
      <trkpt lat="44.1986" lon="0.89689">
        <ele>129</ele>
        <time>2022-07-21T08:21:35.390Z</time>
      </trkpt>
      <trkpt lat="44.19861" lon="0.8969">
        <ele>129</ele>
        <time>2022-07-21T08:21:36.390Z</time>
      </trkpt>
      <trkpt lat="44.19861" lon="0.89691">
        <ele>128</ele>
        <time>2022-07-21T08:21:37.390Z</time>
      </trkpt>
      <trkpt lat="44.19861" lon="0.89693">
        <ele>129</ele>
        <time>2022-07-21T08:21:38.390Z</time>
      </trkpt>
      <trkpt lat="44.19861" lon="0.89694">
        <ele>129</ele>
        <time>2022-07-21T08:21:39.390Z</time>
      </trkpt>
      <trkpt lat="44.19861" lon="0.89696">
        <ele>129</ele>
        <time>2022-07-21T08:21:40.390Z</time>
      </trkpt>
      <trkpt lat="44.19861" lon="0.89697">
        <ele>129</ele>
        <time>2022-07-21T08:21:41.390Z</time>
      </trkpt>
      <trkpt lat="44.1986" lon="0.89698">
        <ele>128</ele>
        <time>2022-07-21T08:21:42.390Z</time>
      </trkpt>
      <trkpt lat="44.1986" lon="0.89699">
        <ele>128</ele>
        <time>2022-07-21T08:21:43.390Z</time>
      </trkpt>
      <trkpt lat="44.19859" lon="0.89701">
        <ele>128</ele>
        <time>2022-07-21T08:21:44.390Z</time>
      </trkpt>
      <trkpt lat="44.19859" lon="0.89702">
        <ele>127</ele>
        <time>2022-07-21T08:21:45.390Z</time>
      </trkpt>
      <trkpt lat="44.19859" lon="0.89703">
        <ele>127</ele>
        <time>2022-07-21T08:21:46.390Z</time>
      </trkpt>
      <trkpt lat="44.19858" lon="0.89704">
        <ele>127</ele>
        <time>2022-07-21T08:21:47.390Z</time>
      </trkpt>
      <trkpt lat="44.19858" lon="0.89705">
        <ele>127</ele>
        <time>2022-07-21T08:21:48.390Z</time>
      </trkpt>
      <trkpt lat="44.19857" lon="0.89706">
        <ele>127</ele>
        <time>2022-07-21T08:21:49.390Z</time>
      </trkpt>
      <trkpt lat="44.19856" lon="0.89708">
        <ele>127</ele>
        <time>2022-07-21T08:21:50.390Z</time>
      </trkpt>
      <trkpt lat="44.19856" lon="0.89709">
        <ele>127</ele>
        <time>2022-07-21T08:21:51.390Z</time>
      </trkpt>
      <trkpt lat="44.19855" lon="0.8971">
        <ele>126</ele>
        <time>2022-07-21T08:21:52.390Z</time>
      </trkpt>
      <trkpt lat="44.19855" lon="0.89711">
        <ele>126</ele>
        <time>2022-07-21T08:21:53.390Z</time>
      </trkpt>
      <trkpt lat="44.19855" lon="0.89712">
        <ele>126</ele>
        <time>2022-07-21T08:21:54.390Z</time>
      </trkpt>
      <trkpt lat="44.19854" lon="0.89713">
        <ele>126</ele>
        <time>2022-07-21T08:21:55.390Z</time>
      </trkpt>
      <trkpt lat="44.19854" lon="0.89714">
        <ele>126</ele>
        <time>2022-07-21T08:21:56.390Z</time>
      </trkpt>
      <trkpt lat="44.19853" lon="0.89715">
        <ele>126</ele>
        <time>2022-07-21T08:21:57.390Z</time>
      </trkpt>
      <trkpt lat="44.19853" lon="0.89716">
        <ele>126</ele>
        <time>2022-07-21T08:21:58.390Z</time>
      </trkpt>
      <trkpt lat="44.19853" lon="0.89718">
        <ele>126</ele>
        <time>2022-07-21T08:21:59.390Z</time>
      </trkpt>
      <trkpt lat="44.19852" lon="0.89719">
        <ele>125</ele>
        <time>2022-07-21T08:22:00.390Z</time>
      </trkpt>
      <trkpt lat="44.19852" lon="0.8972">
        <ele>125</ele>
        <time>2022-07-21T08:22:01.390Z</time>
      </trkpt>
      <trkpt lat="44.19851" lon="0.89721">
        <ele>125</ele>
        <time>2022-07-21T08:22:02.390Z</time>
      </trkpt>
      <trkpt lat="44.19851" lon="0.89723">
        <ele>125</ele>
        <time>2022-07-21T08:22:03.390Z</time>
      </trkpt>
      <trkpt lat="44.19851" lon="0.89724">
        <ele>125</ele>
        <time>2022-07-21T08:22:04.390Z</time>
      </trkpt>
      <trkpt lat="44.1985" lon="0.89725">
        <ele>125</ele>
        <time>2022-07-21T08:22:05.390Z</time>
      </trkpt>
      <trkpt lat="44.1985" lon="0.89727">
        <ele>125</ele>
        <time>2022-07-21T08:22:06.390Z</time>
      </trkpt>
      <trkpt lat="44.1985" lon="0.89728">
        <ele>126</ele>
        <time>2022-07-21T08:22:07.390Z</time>
      </trkpt>
      <trkpt lat="44.1985" lon="0.8973">
        <ele>126</ele>
        <time>2022-07-21T08:22:08.390Z</time>
      </trkpt>
      <trkpt lat="44.1985" lon="0.89731">
        <ele>127</ele>
        <time>2022-07-21T08:22:09.390Z</time>
      </trkpt>
      <trkpt lat="44.1985" lon="0.89733">
        <ele>126</ele>
        <time>2022-07-21T08:22:10.390Z</time>
      </trkpt>
      <trkpt lat="44.1985" lon="0.89734">
        <ele>126</ele>
        <time>2022-07-21T08:22:11.390Z</time>
      </trkpt>
      <trkpt lat="44.1985" lon="0.89736">
        <ele>125</ele>
        <time>2022-07-21T08:22:12.390Z</time>
      </trkpt>
      <trkpt lat="44.1985" lon="0.89737">
        <ele>125</ele>
        <time>2022-07-21T08:22:13.390Z</time>
      </trkpt>
      <trkpt lat="44.1985" lon="0.89739">
        <ele>125</ele>
        <time>2022-07-21T08:22:14.390Z</time>
      </trkpt>
      <trkpt lat="44.19849" lon="0.8974">
        <ele>126</ele>
        <time>2022-07-21T08:22:15.390Z</time>
      </trkpt>
      <trkpt lat="44.19849" lon="0.89742">
        <ele>126</ele>
        <time>2022-07-21T08:22:16.390Z</time>
      </trkpt>
      <trkpt lat="44.19849" lon="0.89743">
        <ele>125</ele>
        <time>2022-07-21T08:22:17.390Z</time>
      </trkpt>
      <trkpt lat="44.19849" lon="0.89745">
        <ele>126</ele>
        <time>2022-07-21T08:22:18.390Z</time>
      </trkpt>
      <trkpt lat="44.19848" lon="0.89746">
        <ele>126</ele>
        <time>2022-07-21T08:22:19.390Z</time>
      </trkpt>
      <trkpt lat="44.19848" lon="0.89748">
        <ele>125</ele>
        <time>2022-07-21T08:22:20.390Z</time>
      </trkpt>
      <trkpt lat="44.19847" lon="0.89749">
        <ele>125</ele>
        <time>2022-07-21T08:22:21.390Z</time>
      </trkpt>
      <trkpt lat="44.19847" lon="0.89751">
        <ele>125</ele>
        <time>2022-07-21T08:22:22.390Z</time>
      </trkpt>
      <trkpt lat="44.19846" lon="0.89752">
        <ele>125</ele>
        <time>2022-07-21T08:22:23.390Z</time>
      </trkpt>
      <trkpt lat="44.19845" lon="0.89753">
        <ele>125</ele>
        <time>2022-07-21T08:22:24.390Z</time>
      </trkpt>
      <trkpt lat="44.19845" lon="0.89754">
        <ele>125</ele>
        <time>2022-07-21T08:22:25.390Z</time>
      </trkpt>
      <trkpt lat="44.19844" lon="0.89755">
        <ele>125</ele>
        <time>2022-07-21T08:22:26.390Z</time>
      </trkpt>
      <trkpt lat="44.19844" lon="0.89756">
        <ele>125</ele>
        <time>2022-07-21T08:22:27.390Z</time>
      </trkpt>
      <trkpt lat="44.19844" lon="0.89756">
        <ele>124</ele>
        <time>2022-07-21T08:22:28.390Z</time>
      </trkpt>
      <trkpt lat="44.19843" lon="0.89757">
        <ele>124</ele>
        <time>2022-07-21T08:22:29.390Z</time>
      </trkpt>
      <trkpt lat="44.19843" lon="0.89758">
        <ele>124</ele>
        <time>2022-07-21T08:22:30.390Z</time>
      </trkpt>
      <trkpt lat="44.19843" lon="0.89759">
        <ele>125</ele>
        <time>2022-07-21T08:22:31.390Z</time>
      </trkpt>
      <trkpt lat="44.19843" lon="0.8976">
        <ele>126</ele>
        <time>2022-07-21T08:22:32.390Z</time>
      </trkpt>
      <trkpt lat="44.19843" lon="0.89761">
        <ele>125</ele>
        <time>2022-07-21T08:22:33.390Z</time>
      </trkpt>
      <trkpt lat="44.19843" lon="0.89762">
        <ele>126</ele>
        <time>2022-07-21T08:22:34.390Z</time>
      </trkpt>
      <trkpt lat="44.19843" lon="0.89762">
        <ele>127</ele>
        <time>2022-07-21T08:22:35.390Z</time>
      </trkpt>
      <trkpt lat="44.19843" lon="0.89762">
        <ele>127</ele>
        <time>2022-07-21T08:22:36.390Z</time>
      </trkpt>
      <trkpt lat="44.19843" lon="0.89762">
        <ele>128</ele>
        <time>2022-07-21T08:22:37.390Z</time>
      </trkpt>
      <trkpt lat="44.19843" lon="0.89762">
        <ele>128</ele>
        <time>2022-07-21T08:22:38.390Z</time>
      </trkpt>
      <trkpt lat="44.19843" lon="0.89763">
        <ele>128</ele>
        <time>2022-07-21T08:22:39.390Z</time>
      </trkpt>
      <trkpt lat="44.19843" lon="0.89763">
        <ele>128</ele>
        <time>2022-07-21T08:22:40.390Z</time>
      </trkpt>
      <trkpt lat="44.19842" lon="0.89764">
        <ele>126</ele>
        <time>2022-07-21T08:23:45.402Z</time>
      </trkpt>
      <trkpt lat="44.19841" lon="0.89766">
        <ele>127</ele>
        <time>2022-07-21T08:23:46.402Z</time>
      </trkpt>
      <trkpt lat="44.19841" lon="0.89768">
        <ele>127</ele>
        <time>2022-07-21T08:23:47.402Z</time>
      </trkpt>
      <trkpt lat="44.19841" lon="0.89769">
        <ele>127</ele>
        <time>2022-07-21T08:23:48.402Z</time>
      </trkpt>
      <trkpt lat="44.19841" lon="0.8977">
        <ele>127</ele>
        <time>2022-07-21T08:23:49.402Z</time>
      </trkpt>
      <trkpt lat="44.1984" lon="0.89771">
        <ele>127</ele>
        <time>2022-07-21T08:23:50.402Z</time>
      </trkpt>
      <trkpt lat="44.1984" lon="0.89773">
        <ele>126</ele>
        <time>2022-07-21T08:23:51.402Z</time>
      </trkpt>
      <trkpt lat="44.19839" lon="0.89774">
        <ele>127</ele>
        <time>2022-07-21T08:23:52.402Z</time>
      </trkpt>
      <trkpt lat="44.19838" lon="0.89775">
        <ele>127</ele>
        <time>2022-07-21T08:23:53.402Z</time>
      </trkpt>
      <trkpt lat="44.19838" lon="0.89776">
        <ele>127</ele>
        <time>2022-07-21T08:23:54.402Z</time>
      </trkpt>
      <trkpt lat="44.19837" lon="0.89777">
        <ele>127</ele>
        <time>2022-07-21T08:23:55.402Z</time>
      </trkpt>
      <trkpt lat="44.19837" lon="0.89778">
        <ele>127</ele>
        <time>2022-07-21T08:23:56.402Z</time>
      </trkpt>
      <trkpt lat="44.19837" lon="0.8978">
        <ele>127</ele>
        <time>2022-07-21T08:23:57.402Z</time>
      </trkpt>
      <trkpt lat="44.19836" lon="0.89782">
        <ele>127</ele>
        <time>2022-07-21T08:23:58.402Z</time>
      </trkpt>
      <trkpt lat="44.19836" lon="0.89783">
        <ele>127</ele>
        <time>2022-07-21T08:23:59.402Z</time>
      </trkpt>
      <trkpt lat="44.19835" lon="0.89784">
        <ele>128</ele>
        <time>2022-07-21T08:24:00.402Z</time>
      </trkpt>
      <trkpt lat="44.19835" lon="0.89785">
        <ele>128</ele>
        <time>2022-07-21T08:24:01.402Z</time>
      </trkpt>
      <trkpt lat="44.19835" lon="0.89787">
        <ele>127</ele>
        <time>2022-07-21T08:24:02.402Z</time>
      </trkpt>
      <trkpt lat="44.19835" lon="0.89788">
        <ele>126</ele>
        <time>2022-07-21T08:24:03.402Z</time>
      </trkpt>
      <trkpt lat="44.19834" lon="0.89789">
        <ele>126</ele>
        <time>2022-07-21T08:24:04.402Z</time>
      </trkpt>
      <trkpt lat="44.19834" lon="0.8979">
        <ele>126</ele>
        <time>2022-07-21T08:24:05.402Z</time>
      </trkpt>
      <trkpt lat="44.19834" lon="0.89792">
        <ele>125</ele>
        <time>2022-07-21T08:24:06.402Z</time>
      </trkpt>
      <trkpt lat="44.19834" lon="0.89793">
        <ele>126</ele>
        <time>2022-07-21T08:24:07.402Z</time>
      </trkpt>
      <trkpt lat="44.19834" lon="0.89795">
        <ele>126</ele>
        <time>2022-07-21T08:24:08.402Z</time>
      </trkpt>
      <trkpt lat="44.19833" lon="0.89796">
        <ele>125</ele>
        <time>2022-07-21T08:24:09.402Z</time>
      </trkpt>
      <trkpt lat="44.19833" lon="0.89798">
        <ele>124</ele>
        <time>2022-07-21T08:24:10.402Z</time>
      </trkpt>
      <trkpt lat="44.19832" lon="0.89799">
        <ele>124</ele>
        <time>2022-07-21T08:24:11.402Z</time>
      </trkpt>
      <trkpt lat="44.19832" lon="0.898">
        <ele>124</ele>
        <time>2022-07-21T08:24:12.402Z</time>
      </trkpt>
      <trkpt lat="44.19832" lon="0.89802">
        <ele>124</ele>
        <time>2022-07-21T08:24:13.402Z</time>
      </trkpt>
      <trkpt lat="44.19831" lon="0.89803">
        <ele>124</ele>
        <time>2022-07-21T08:24:14.402Z</time>
      </trkpt>
      <trkpt lat="44.19831" lon="0.89804">
        <ele>123</ele>
        <time>2022-07-21T08:24:15.402Z</time>
      </trkpt>
      <trkpt lat="44.1983" lon="0.89806">
        <ele>123</ele>
        <time>2022-07-21T08:24:16.402Z</time>
      </trkpt>
      <trkpt lat="44.1983" lon="0.89807">
        <ele>123</ele>
        <time>2022-07-21T08:24:17.402Z</time>
      </trkpt>
      <trkpt lat="44.1983" lon="0.89809">
        <ele>123</ele>
        <time>2022-07-21T08:24:18.402Z</time>
      </trkpt>
      <trkpt lat="44.19829" lon="0.8981">
        <ele>123</ele>
        <time>2022-07-21T08:24:19.402Z</time>
      </trkpt>
      <trkpt lat="44.19829" lon="0.89812">
        <ele>123</ele>
        <time>2022-07-21T08:24:20.402Z</time>
      </trkpt>
      <trkpt lat="44.19828" lon="0.89813">
        <ele>123</ele>
        <time>2022-07-21T08:24:21.402Z</time>
      </trkpt>
      <trkpt lat="44.19828" lon="0.89814">
        <ele>123</ele>
        <time>2022-07-21T08:24:22.402Z</time>
      </trkpt>
      <trkpt lat="44.19828" lon="0.89816">
        <ele>123</ele>
        <time>2022-07-21T08:24:23.402Z</time>
      </trkpt>
      <trkpt lat="44.19827" lon="0.89818">
        <ele>122</ele>
        <time>2022-07-21T08:24:24.402Z</time>
      </trkpt>
      <trkpt lat="44.19827" lon="0.8982">
        <ele>123</ele>
        <time>2022-07-21T08:24:25.402Z</time>
      </trkpt>
      <trkpt lat="44.19827" lon="0.89822">
        <ele>123</ele>
        <time>2022-07-21T08:24:26.402Z</time>
      </trkpt>
      <trkpt lat="44.19827" lon="0.89823">
        <ele>123</ele>
        <time>2022-07-21T08:24:27.402Z</time>
      </trkpt>
      <trkpt lat="44.19826" lon="0.89825">
        <ele>123</ele>
        <time>2022-07-21T08:24:28.402Z</time>
      </trkpt>
      <trkpt lat="44.19826" lon="0.89826">
        <ele>123</ele>
        <time>2022-07-21T08:24:29.402Z</time>
      </trkpt>
      <trkpt lat="44.19826" lon="0.89827">
        <ele>122</ele>
        <time>2022-07-21T08:24:30.402Z</time>
      </trkpt>
      <trkpt lat="44.19825" lon="0.89829">
        <ele>122</ele>
        <time>2022-07-21T08:24:31.402Z</time>
      </trkpt>
      <trkpt lat="44.19825" lon="0.8983">
        <ele>121</ele>
        <time>2022-07-21T08:24:32.402Z</time>
      </trkpt>
      <trkpt lat="44.19825" lon="0.89832">
        <ele>120</ele>
        <time>2022-07-21T08:24:33.402Z</time>
      </trkpt>
      <trkpt lat="44.19825" lon="0.89834">
        <ele>120</ele>
        <time>2022-07-21T08:24:34.402Z</time>
      </trkpt>
      <trkpt lat="44.19824" lon="0.89835">
        <ele>120</ele>
        <time>2022-07-21T08:24:35.402Z</time>
      </trkpt>
      <trkpt lat="44.19824" lon="0.89837">
        <ele>119</ele>
        <time>2022-07-21T08:24:36.402Z</time>
      </trkpt>
      <trkpt lat="44.19824" lon="0.89838">
        <ele>119</ele>
        <time>2022-07-21T08:24:37.402Z</time>
      </trkpt>
      <trkpt lat="44.19823" lon="0.8984">
        <ele>119</ele>
        <time>2022-07-21T08:24:38.402Z</time>
      </trkpt>
      <trkpt lat="44.19823" lon="0.89841">
        <ele>119</ele>
        <time>2022-07-21T08:24:39.402Z</time>
      </trkpt>
      <trkpt lat="44.19822" lon="0.89842">
        <ele>119</ele>
        <time>2022-07-21T08:24:40.402Z</time>
      </trkpt>
      <trkpt lat="44.19822" lon="0.89844">
        <ele>118</ele>
        <time>2022-07-21T08:24:41.402Z</time>
      </trkpt>
      <trkpt lat="44.19822" lon="0.89845">
        <ele>118</ele>
        <time>2022-07-21T08:24:42.402Z</time>
      </trkpt>
      <trkpt lat="44.19821" lon="0.89846">
        <ele>118</ele>
        <time>2022-07-21T08:24:43.402Z</time>
      </trkpt>
      <trkpt lat="44.19821" lon="0.89847">
        <ele>119</ele>
        <time>2022-07-21T08:24:44.402Z</time>
      </trkpt>
      <trkpt lat="44.19821" lon="0.89848">
        <ele>119</ele>
        <time>2022-07-21T08:24:45.402Z</time>
      </trkpt>
      <trkpt lat="44.19821" lon="0.89849">
        <ele>119</ele>
        <time>2022-07-21T08:24:46.402Z</time>
      </trkpt>
      <trkpt lat="44.19821" lon="0.8985">
        <ele>119</ele>
        <time>2022-07-21T08:24:47.402Z</time>
      </trkpt>
      <trkpt lat="44.19821" lon="0.89852">
        <ele>119</ele>
        <time>2022-07-21T08:24:48.402Z</time>
      </trkpt>
      <trkpt lat="44.19821" lon="0.89853">
        <ele>119</ele>
        <time>2022-07-21T08:24:49.402Z</time>
      </trkpt>
      <trkpt lat="44.19821" lon="0.89855">
        <ele>119</ele>
        <time>2022-07-21T08:24:50.402Z</time>
      </trkpt>
      <trkpt lat="44.19821" lon="0.89856">
        <ele>118</ele>
        <time>2022-07-21T08:24:51.402Z</time>
      </trkpt>
      <trkpt lat="44.19821" lon="0.89858">
        <ele>118</ele>
        <time>2022-07-21T08:24:52.402Z</time>
      </trkpt>
      <trkpt lat="44.19821" lon="0.8986">
        <ele>119</ele>
        <time>2022-07-21T08:24:53.402Z</time>
      </trkpt>
      <trkpt lat="44.19821" lon="0.89861">
        <ele>119</ele>
        <time>2022-07-21T08:24:54.402Z</time>
      </trkpt>
      <trkpt lat="44.19821" lon="0.89863">
        <ele>119</ele>
        <time>2022-07-21T08:24:55.402Z</time>
      </trkpt>
      <trkpt lat="44.19821" lon="0.89864">
        <ele>119</ele>
        <time>2022-07-21T08:24:56.402Z</time>
      </trkpt>
      <trkpt lat="44.1982" lon="0.89866">
        <ele>118</ele>
        <time>2022-07-21T08:24:57.402Z</time>
      </trkpt>
      <trkpt lat="44.1982" lon="0.89867">
        <ele>118</ele>
        <time>2022-07-21T08:24:58.402Z</time>
      </trkpt>
      <trkpt lat="44.1982" lon="0.89868">
        <ele>118</ele>
        <time>2022-07-21T08:24:59.402Z</time>
      </trkpt>
      <trkpt lat="44.1982" lon="0.89869">
        <ele>119</ele>
        <time>2022-07-21T08:25:00.402Z</time>
      </trkpt>
      <trkpt lat="44.1982" lon="0.89871">
        <ele>119</ele>
        <time>2022-07-21T08:25:01.402Z</time>
      </trkpt>
      <trkpt lat="44.19819" lon="0.89873">
        <ele>118</ele>
        <time>2022-07-21T08:25:02.402Z</time>
      </trkpt>
      <trkpt lat="44.19819" lon="0.89874">
        <ele>118</ele>
        <time>2022-07-21T08:25:03.402Z</time>
      </trkpt>
      <trkpt lat="44.19819" lon="0.89875">
        <ele>118</ele>
        <time>2022-07-21T08:25:04.402Z</time>
      </trkpt>
      <trkpt lat="44.19819" lon="0.89876">
        <ele>118</ele>
        <time>2022-07-21T08:25:05.402Z</time>
      </trkpt>
      <trkpt lat="44.19818" lon="0.89877">
        <ele>118</ele>
        <time>2022-07-21T08:25:06.402Z</time>
      </trkpt>
      <trkpt lat="44.19818" lon="0.89878">
        <ele>118</ele>
        <time>2022-07-21T08:25:07.402Z</time>
      </trkpt>
      <trkpt lat="44.19818" lon="0.89879">
        <ele>118</ele>
        <time>2022-07-21T08:25:08.402Z</time>
      </trkpt>
      <trkpt lat="44.19818" lon="0.8988">
        <ele>118</ele>
        <time>2022-07-21T08:25:09.402Z</time>
      </trkpt>
      <trkpt lat="44.19817" lon="0.89882">
        <ele>118</ele>
        <time>2022-07-21T08:25:10.402Z</time>
      </trkpt>
      <trkpt lat="44.19817" lon="0.89884">
        <ele>118</ele>
        <time>2022-07-21T08:25:11.402Z</time>
      </trkpt>
      <trkpt lat="44.19816" lon="0.89885">
        <ele>117</ele>
        <time>2022-07-21T08:25:12.402Z</time>
      </trkpt>
      <trkpt lat="44.19816" lon="0.89886">
        <ele>117</ele>
        <time>2022-07-21T08:25:13.402Z</time>
      </trkpt>
      <trkpt lat="44.19816" lon="0.89888">
        <ele>117</ele>
        <time>2022-07-21T08:25:14.402Z</time>
      </trkpt>
      <trkpt lat="44.19815" lon="0.89889">
        <ele>116</ele>
        <time>2022-07-21T08:25:15.402Z</time>
      </trkpt>
      <trkpt lat="44.19815" lon="0.89891">
        <ele>116</ele>
        <time>2022-07-21T08:25:16.402Z</time>
      </trkpt>
      <trkpt lat="44.19814" lon="0.89892">
        <ele>116</ele>
        <time>2022-07-21T08:25:17.402Z</time>
      </trkpt>
      <trkpt lat="44.19814" lon="0.89894">
        <ele>116</ele>
        <time>2022-07-21T08:25:18.402Z</time>
      </trkpt>
      <trkpt lat="44.19814" lon="0.89896">
        <ele>115</ele>
        <time>2022-07-21T08:25:19.402Z</time>
      </trkpt>
      <trkpt lat="44.19814" lon="0.89897">
        <ele>115</ele>
        <time>2022-07-21T08:25:20.402Z</time>
      </trkpt>
      <trkpt lat="44.19813" lon="0.89899">
        <ele>115</ele>
        <time>2022-07-21T08:25:21.402Z</time>
      </trkpt>
      <trkpt lat="44.19813" lon="0.899">
        <ele>115</ele>
        <time>2022-07-21T08:25:22.402Z</time>
      </trkpt>
      <trkpt lat="44.19813" lon="0.89902">
        <ele>115</ele>
        <time>2022-07-21T08:25:23.402Z</time>
      </trkpt>
      <trkpt lat="44.19813" lon="0.89903">
        <ele>115</ele>
        <time>2022-07-21T08:25:24.402Z</time>
      </trkpt>
      <trkpt lat="44.19813" lon="0.89904">
        <ele>115</ele>
        <time>2022-07-21T08:25:25.402Z</time>
      </trkpt>
      <trkpt lat="44.19813" lon="0.89906">
        <ele>115</ele>
        <time>2022-07-21T08:25:26.402Z</time>
      </trkpt>
      <trkpt lat="44.19812" lon="0.89907">
        <ele>116</ele>
        <time>2022-07-21T08:25:27.402Z</time>
      </trkpt>
      <trkpt lat="44.19812" lon="0.89909">
        <ele>116</ele>
        <time>2022-07-21T08:25:28.402Z</time>
      </trkpt>
      <trkpt lat="44.19812" lon="0.8991">
        <ele>116</ele>
        <time>2022-07-21T08:25:29.402Z</time>
      </trkpt>
      <trkpt lat="44.19812" lon="0.89912">
        <ele>116</ele>
        <time>2022-07-21T08:25:30.402Z</time>
      </trkpt>
      <trkpt lat="44.19812" lon="0.89913">
        <ele>117</ele>
        <time>2022-07-21T08:25:31.402Z</time>
      </trkpt>
      <trkpt lat="44.19812" lon="0.89914">
        <ele>117</ele>
        <time>2022-07-21T08:25:32.402Z</time>
      </trkpt>
      <trkpt lat="44.19812" lon="0.89916">
        <ele>117</ele>
        <time>2022-07-21T08:25:33.402Z</time>
      </trkpt>
      <trkpt lat="44.19812" lon="0.89918">
        <ele>117</ele>
        <time>2022-07-21T08:25:34.402Z</time>
      </trkpt>
      <trkpt lat="44.19812" lon="0.89919">
        <ele>118</ele>
        <time>2022-07-21T08:25:35.402Z</time>
      </trkpt>
      <trkpt lat="44.19812" lon="0.89921">
        <ele>118</ele>
        <time>2022-07-21T08:25:36.402Z</time>
      </trkpt>
      <trkpt lat="44.19812" lon="0.89922">
        <ele>118</ele>
        <time>2022-07-21T08:25:37.402Z</time>
      </trkpt>
      <trkpt lat="44.19812" lon="0.89924">
        <ele>118</ele>
        <time>2022-07-21T08:25:38.402Z</time>
      </trkpt>
      <trkpt lat="44.19812" lon="0.89925">
        <ele>118</ele>
        <time>2022-07-21T08:25:39.402Z</time>
      </trkpt>
      <trkpt lat="44.19812" lon="0.89927">
        <ele>118</ele>
        <time>2022-07-21T08:25:40.402Z</time>
      </trkpt>
      <trkpt lat="44.19812" lon="0.89929">
        <ele>118</ele>
        <time>2022-07-21T08:25:41.402Z</time>
      </trkpt>
      <trkpt lat="44.19812" lon="0.8993">
        <ele>118</ele>
        <time>2022-07-21T08:25:42.402Z</time>
      </trkpt>
      <trkpt lat="44.19812" lon="0.89931">
        <ele>118</ele>
        <time>2022-07-21T08:25:43.402Z</time>
      </trkpt>
      <trkpt lat="44.19812" lon="0.89933">
        <ele>119</ele>
        <time>2022-07-21T08:25:44.402Z</time>
      </trkpt>
      <trkpt lat="44.19812" lon="0.89934">
        <ele>119</ele>
        <time>2022-07-21T08:25:45.402Z</time>
      </trkpt>
      <trkpt lat="44.19812" lon="0.89936">
        <ele>120</ele>
        <time>2022-07-21T08:25:46.402Z</time>
      </trkpt>
      <trkpt lat="44.19812" lon="0.89938">
        <ele>121</ele>
        <time>2022-07-21T08:25:47.402Z</time>
      </trkpt>
      <trkpt lat="44.19812" lon="0.89939">
        <ele>121</ele>
        <time>2022-07-21T08:25:48.402Z</time>
      </trkpt>
      <trkpt lat="44.19812" lon="0.8994">
        <ele>122</ele>
        <time>2022-07-21T08:25:49.402Z</time>
      </trkpt>
      <trkpt lat="44.19813" lon="0.89942">
        <ele>122</ele>
        <time>2022-07-21T08:25:50.402Z</time>
      </trkpt>
      <trkpt lat="44.19813" lon="0.89944">
        <ele>123</ele>
        <time>2022-07-21T08:25:51.402Z</time>
      </trkpt>
      <trkpt lat="44.19813" lon="0.89945">
        <ele>124</ele>
        <time>2022-07-21T08:25:52.402Z</time>
      </trkpt>
      <trkpt lat="44.19814" lon="0.89947">
        <ele>124</ele>
        <time>2022-07-21T08:25:53.402Z</time>
      </trkpt>
      <trkpt lat="44.19814" lon="0.89948">
        <ele>125</ele>
        <time>2022-07-21T08:25:54.402Z</time>
      </trkpt>
      <trkpt lat="44.19814" lon="0.89949">
        <ele>124</ele>
        <time>2022-07-21T08:25:55.402Z</time>
      </trkpt>
      <trkpt lat="44.19814" lon="0.89951">
        <ele>124</ele>
        <time>2022-07-21T08:25:56.402Z</time>
      </trkpt>
      <trkpt lat="44.19814" lon="0.89953">
        <ele>124</ele>
        <time>2022-07-21T08:25:57.402Z</time>
      </trkpt>
      <trkpt lat="44.19814" lon="0.89954">
        <ele>124</ele>
        <time>2022-07-21T08:25:58.402Z</time>
      </trkpt>
      <trkpt lat="44.19814" lon="0.89956">
        <ele>124</ele>
        <time>2022-07-21T08:25:59.402Z</time>
      </trkpt>
      <trkpt lat="44.19814" lon="0.89957">
        <ele>123</ele>
        <time>2022-07-21T08:26:00.402Z</time>
      </trkpt>
      <trkpt lat="44.19814" lon="0.89958">
        <ele>123</ele>
        <time>2022-07-21T08:26:01.402Z</time>
      </trkpt>
      <trkpt lat="44.19814" lon="0.89959">
        <ele>123</ele>
        <time>2022-07-21T08:26:02.402Z</time>
      </trkpt>
      <trkpt lat="44.19815" lon="0.89961">
        <ele>124</ele>
        <time>2022-07-21T08:26:03.402Z</time>
      </trkpt>
      <trkpt lat="44.19815" lon="0.89963">
        <ele>125</ele>
        <time>2022-07-21T08:26:04.402Z</time>
      </trkpt>
      <trkpt lat="44.19815" lon="0.89964">
        <ele>126</ele>
        <time>2022-07-21T08:26:05.402Z</time>
      </trkpt>
      <trkpt lat="44.19815" lon="0.89966">
        <ele>126</ele>
        <time>2022-07-21T08:26:06.402Z</time>
      </trkpt>
      <trkpt lat="44.19815" lon="0.89967">
        <ele>126</ele>
        <time>2022-07-21T08:26:07.402Z</time>
      </trkpt>
      <trkpt lat="44.19815" lon="0.89968">
        <ele>126</ele>
        <time>2022-07-21T08:26:08.402Z</time>
      </trkpt>
      <trkpt lat="44.19815" lon="0.8997">
        <ele>125</ele>
        <time>2022-07-21T08:26:09.402Z</time>
      </trkpt>
      <trkpt lat="44.19815" lon="0.89971">
        <ele>125</ele>
        <time>2022-07-21T08:26:10.402Z</time>
      </trkpt>
      <trkpt lat="44.19815" lon="0.89972">
        <ele>125</ele>
        <time>2022-07-21T08:26:11.402Z</time>
      </trkpt>
      <trkpt lat="44.19815" lon="0.89974">
        <ele>124</ele>
        <time>2022-07-21T08:26:12.402Z</time>
      </trkpt>
      <trkpt lat="44.19815" lon="0.89975">
        <ele>124</ele>
        <time>2022-07-21T08:26:13.402Z</time>
      </trkpt>
      <trkpt lat="44.19815" lon="0.89977">
        <ele>124</ele>
        <time>2022-07-21T08:26:14.402Z</time>
      </trkpt>
      <trkpt lat="44.19816" lon="0.89978">
        <ele>124</ele>
        <time>2022-07-21T08:26:15.402Z</time>
      </trkpt>
      <trkpt lat="44.19816" lon="0.89979">
        <ele>123</ele>
        <time>2022-07-21T08:26:16.402Z</time>
      </trkpt>
      <trkpt lat="44.19815" lon="0.8998">
        <ele>123</ele>
        <time>2022-07-21T08:26:17.402Z</time>
      </trkpt>
      <trkpt lat="44.19815" lon="0.89981">
        <ele>122</ele>
        <time>2022-07-21T08:26:18.402Z</time>
      </trkpt>
      <trkpt lat="44.19815" lon="0.89982">
        <ele>121</ele>
        <time>2022-07-21T08:26:19.402Z</time>
      </trkpt>
      <trkpt lat="44.19815" lon="0.89983">
        <ele>121</ele>
        <time>2022-07-21T08:26:20.402Z</time>
      </trkpt>
      <trkpt lat="44.19815" lon="0.89984">
        <ele>120</ele>
        <time>2022-07-21T08:26:21.402Z</time>
      </trkpt>
      <trkpt lat="44.19815" lon="0.89985">
        <ele>120</ele>
        <time>2022-07-21T08:26:22.402Z</time>
      </trkpt>
      <trkpt lat="44.19816" lon="0.89985">
        <ele>120</ele>
        <time>2022-07-21T08:26:23.402Z</time>
      </trkpt>
      <trkpt lat="44.19816" lon="0.89986">
        <ele>120</ele>
        <time>2022-07-21T08:26:24.402Z</time>
      </trkpt>
      <trkpt lat="44.19816" lon="0.89987">
        <ele>120</ele>
        <time>2022-07-21T08:26:25.402Z</time>
      </trkpt>
      <trkpt lat="44.19816" lon="0.89987">
        <ele>120</ele>
        <time>2022-07-21T08:26:26.402Z</time>
      </trkpt>
      <trkpt lat="44.19816" lon="0.89988">
        <ele>120</ele>
        <time>2022-07-21T08:26:27.402Z</time>
      </trkpt>
      <trkpt lat="44.19817" lon="0.89989">
        <ele>120</ele>
        <time>2022-07-21T08:26:28.402Z</time>
      </trkpt>
      <trkpt lat="44.19817" lon="0.89989">
        <ele>120</ele>
        <time>2022-07-21T08:26:29.402Z</time>
      </trkpt>
      <trkpt lat="44.19817" lon="0.8999">
        <ele>121</ele>
        <time>2022-07-21T08:26:30.402Z</time>
      </trkpt>
      <trkpt lat="44.19818" lon="0.89991">
        <ele>121</ele>
        <time>2022-07-21T08:26:31.402Z</time>
      </trkpt>
      <trkpt lat="44.19818" lon="0.89992">
        <ele>122</ele>
        <time>2022-07-21T08:26:32.402Z</time>
      </trkpt>
      <trkpt lat="44.19819" lon="0.89993">
        <ele>122</ele>
        <time>2022-07-21T08:26:33.402Z</time>
      </trkpt>
      <trkpt lat="44.19819" lon="0.89994">
        <ele>122</ele>
        <time>2022-07-21T08:26:34.402Z</time>
      </trkpt>
      <trkpt lat="44.1982" lon="0.89995">
        <ele>122</ele>
        <time>2022-07-21T08:26:35.402Z</time>
      </trkpt>
      <trkpt lat="44.1982" lon="0.89996">
        <ele>122</ele>
        <time>2022-07-21T08:26:36.402Z</time>
      </trkpt>
      <trkpt lat="44.1982" lon="0.89996">
        <ele>123</ele>
        <time>2022-07-21T08:26:37.402Z</time>
      </trkpt>
      <trkpt lat="44.1982" lon="0.89996">
        <ele>123</ele>
        <time>2022-07-21T08:26:38.402Z</time>
      </trkpt>
      <trkpt lat="44.1982" lon="0.89996">
        <ele>123</ele>
        <time>2022-07-21T08:26:39.402Z</time>
      </trkpt>
      <trkpt lat="44.1982" lon="0.89996">
        <ele>123</ele>
        <time>2022-07-21T08:26:40.402Z</time>
      </trkpt>
      <trkpt lat="44.1982" lon="0.89996">
        <ele>123</ele>
        <time>2022-07-21T08:26:41.402Z</time>
      </trkpt>
      <trkpt lat="44.1982" lon="0.89996">
        <ele>124</ele>
        <time>2022-07-21T08:26:42.402Z</time>
      </trkpt>
      <trkpt lat="44.1982" lon="0.89998">
        <ele>127</ele>
        <time>2022-07-21T08:27:54.406Z</time>
      </trkpt>
      <trkpt lat="44.19821" lon="0.89999">
        <ele>127</ele>
        <time>2022-07-21T08:27:55.406Z</time>
      </trkpt>
      <trkpt lat="44.19821" lon="0.9">
        <ele>126</ele>
        <time>2022-07-21T08:27:56.406Z</time>
      </trkpt>
      <trkpt lat="44.19821" lon="0.9">
        <ele>126</ele>
        <time>2022-07-21T08:27:57.406Z</time>
      </trkpt>
      <trkpt lat="44.19821" lon="0.90001">
        <ele>126</ele>
        <time>2022-07-21T08:27:58.406Z</time>
      </trkpt>
      <trkpt lat="44.19821" lon="0.90002">
        <ele>126</ele>
        <time>2022-07-21T08:27:59.406Z</time>
      </trkpt>
      <trkpt lat="44.19821" lon="0.90003">
        <ele>126</ele>
        <time>2022-07-21T08:28:00.406Z</time>
      </trkpt>
      <trkpt lat="44.19821" lon="0.90004">
        <ele>124</ele>
        <time>2022-07-21T08:28:01.406Z</time>
      </trkpt>
      <trkpt lat="44.19821" lon="0.90006">
        <ele>124</ele>
        <time>2022-07-21T08:28:02.406Z</time>
      </trkpt>
      <trkpt lat="44.19821" lon="0.90007">
        <ele>123</ele>
        <time>2022-07-21T08:28:03.406Z</time>
      </trkpt>
      <trkpt lat="44.19821" lon="0.90008">
        <ele>123</ele>
        <time>2022-07-21T08:28:04.406Z</time>
      </trkpt>
      <trkpt lat="44.19821" lon="0.90009">
        <ele>123</ele>
        <time>2022-07-21T08:28:05.406Z</time>
      </trkpt>
      <trkpt lat="44.19821" lon="0.9001">
        <ele>123</ele>
        <time>2022-07-21T08:28:06.406Z</time>
      </trkpt>
      <trkpt lat="44.1982" lon="0.90011">
        <ele>122</ele>
        <time>2022-07-21T08:28:07.406Z</time>
      </trkpt>
      <trkpt lat="44.1982" lon="0.90012">
        <ele>122</ele>
        <time>2022-07-21T08:28:08.406Z</time>
      </trkpt>
      <trkpt lat="44.1982" lon="0.90013">
        <ele>122</ele>
        <time>2022-07-21T08:28:09.406Z</time>
      </trkpt>
      <trkpt lat="44.19821" lon="0.90014">
        <ele>122</ele>
        <time>2022-07-21T08:28:10.406Z</time>
      </trkpt>
      <trkpt lat="44.19821" lon="0.90015">
        <ele>122</ele>
        <time>2022-07-21T08:28:11.406Z</time>
      </trkpt>
      <trkpt lat="44.19821" lon="0.90016">
        <ele>121</ele>
        <time>2022-07-21T08:28:12.406Z</time>
      </trkpt>
      <trkpt lat="44.19821" lon="0.90016">
        <ele>121</ele>
        <time>2022-07-21T08:28:13.406Z</time>
      </trkpt>
      <trkpt lat="44.19821" lon="0.90017">
        <ele>121</ele>
        <time>2022-07-21T08:28:14.406Z</time>
      </trkpt>
      <trkpt lat="44.19821" lon="0.90018">
        <ele>120</ele>
        <time>2022-07-21T08:28:15.406Z</time>
      </trkpt>
      <trkpt lat="44.19821" lon="0.9002">
        <ele>120</ele>
        <time>2022-07-21T08:28:16.406Z</time>
      </trkpt>
      <trkpt lat="44.19821" lon="0.90021">
        <ele>120</ele>
        <time>2022-07-21T08:28:17.406Z</time>
      </trkpt>
      <trkpt lat="44.1982" lon="0.90022">
        <ele>120</ele>
        <time>2022-07-21T08:28:18.406Z</time>
      </trkpt>
      <trkpt lat="44.1982" lon="0.90023">
        <ele>119</ele>
        <time>2022-07-21T08:28:19.406Z</time>
      </trkpt>
      <trkpt lat="44.1982" lon="0.90024">
        <ele>119</ele>
        <time>2022-07-21T08:28:20.406Z</time>
      </trkpt>
      <trkpt lat="44.1982" lon="0.90025">
        <ele>119</ele>
        <time>2022-07-21T08:28:21.406Z</time>
      </trkpt>
      <trkpt lat="44.1982" lon="0.90026">
        <ele>119</ele>
        <time>2022-07-21T08:28:22.406Z</time>
      </trkpt>
      <trkpt lat="44.1982" lon="0.90028">
        <ele>118</ele>
        <time>2022-07-21T08:28:23.406Z</time>
      </trkpt>
      <trkpt lat="44.1982" lon="0.90029">
        <ele>118</ele>
        <time>2022-07-21T08:28:24.406Z</time>
      </trkpt>
      <trkpt lat="44.1982" lon="0.9003">
        <ele>118</ele>
        <time>2022-07-21T08:28:25.406Z</time>
      </trkpt>
      <trkpt lat="44.1982" lon="0.90031">
        <ele>118</ele>
        <time>2022-07-21T08:28:26.406Z</time>
      </trkpt>
      <trkpt lat="44.1982" lon="0.90032">
        <ele>118</ele>
        <time>2022-07-21T08:28:27.406Z</time>
      </trkpt>
      <trkpt lat="44.1982" lon="0.90033">
        <ele>117</ele>
        <time>2022-07-21T08:28:28.406Z</time>
      </trkpt>
      <trkpt lat="44.1982" lon="0.90034">
        <ele>117</ele>
        <time>2022-07-21T08:28:29.406Z</time>
      </trkpt>
      <trkpt lat="44.1982" lon="0.90035">
        <ele>117</ele>
        <time>2022-07-21T08:28:30.406Z</time>
      </trkpt>
      <trkpt lat="44.1982" lon="0.90035">
        <ele>116</ele>
        <time>2022-07-21T08:28:31.406Z</time>
      </trkpt>
      <trkpt lat="44.19819" lon="0.90037">
        <ele>116</ele>
        <time>2022-07-21T08:28:32.406Z</time>
      </trkpt>
      <trkpt lat="44.19819" lon="0.90037">
        <ele>115</ele>
        <time>2022-07-21T08:28:33.406Z</time>
      </trkpt>
      <trkpt lat="44.19819" lon="0.90038">
        <ele>115</ele>
        <time>2022-07-21T08:28:34.406Z</time>
      </trkpt>
      <trkpt lat="44.19819" lon="0.90039">
        <ele>113</ele>
        <time>2022-07-21T08:28:35.406Z</time>
      </trkpt>
      <trkpt lat="44.19819" lon="0.9004">
        <ele>113</ele>
        <time>2022-07-21T08:28:36.406Z</time>
      </trkpt>
      <trkpt lat="44.19819" lon="0.90041">
        <ele>113</ele>
        <time>2022-07-21T08:28:37.406Z</time>
      </trkpt>
      <trkpt lat="44.19819" lon="0.90042">
        <ele>113</ele>
        <time>2022-07-21T08:28:38.406Z</time>
      </trkpt>
      <trkpt lat="44.19819" lon="0.90043">
        <ele>112</ele>
        <time>2022-07-21T08:28:39.406Z</time>
      </trkpt>
      <trkpt lat="44.19819" lon="0.90044">
        <ele>112</ele>
        <time>2022-07-21T08:28:40.406Z</time>
      </trkpt>
      <trkpt lat="44.19819" lon="0.90046">
        <ele>111</ele>
        <time>2022-07-21T08:28:41.406Z</time>
      </trkpt>
      <trkpt lat="44.19818" lon="0.90047">
        <ele>111</ele>
        <time>2022-07-21T08:28:42.406Z</time>
      </trkpt>
      <trkpt lat="44.19818" lon="0.90049">
        <ele>111</ele>
        <time>2022-07-21T08:28:43.406Z</time>
      </trkpt>
      <trkpt lat="44.19818" lon="0.90051">
        <ele>111</ele>
        <time>2022-07-21T08:28:44.406Z</time>
      </trkpt>
      <trkpt lat="44.19818" lon="0.90052">
        <ele>111</ele>
        <time>2022-07-21T08:28:45.406Z</time>
      </trkpt>
      <trkpt lat="44.19818" lon="0.90054">
        <ele>110</ele>
        <time>2022-07-21T08:28:46.406Z</time>
      </trkpt>
      <trkpt lat="44.19818" lon="0.90056">
        <ele>109</ele>
        <time>2022-07-21T08:28:47.406Z</time>
      </trkpt>
      <trkpt lat="44.19818" lon="0.90058">
        <ele>109</ele>
        <time>2022-07-21T08:28:48.406Z</time>
      </trkpt>
      <trkpt lat="44.19818" lon="0.90059">
        <ele>109</ele>
        <time>2022-07-21T08:28:49.406Z</time>
      </trkpt>
      <trkpt lat="44.19818" lon="0.90061">
        <ele>109</ele>
        <time>2022-07-21T08:28:50.406Z</time>
      </trkpt>
      <trkpt lat="44.19818" lon="0.90062">
        <ele>110</ele>
        <time>2022-07-21T08:28:51.406Z</time>
      </trkpt>
      <trkpt lat="44.19818" lon="0.90064">
        <ele>111</ele>
        <time>2022-07-21T08:28:52.406Z</time>
      </trkpt>
      <trkpt lat="44.19819" lon="0.90066">
        <ele>111</ele>
        <time>2022-07-21T08:28:53.406Z</time>
      </trkpt>
      <trkpt lat="44.19819" lon="0.90069">
        <ele>111</ele>
        <time>2022-07-21T08:28:54.406Z</time>
      </trkpt>
      <trkpt lat="44.19818" lon="0.9007">
        <ele>111</ele>
        <time>2022-07-21T08:28:55.406Z</time>
      </trkpt>
      <trkpt lat="44.19817" lon="0.90072">
        <ele>107</ele>
        <time>2022-07-21T08:28:56.406Z</time>
      </trkpt>
      <trkpt lat="44.19816" lon="0.90074">
        <ele>109</ele>
        <time>2022-07-21T08:28:57.406Z</time>
      </trkpt>
      <trkpt lat="44.19816" lon="0.90076">
        <ele>111</ele>
        <time>2022-07-21T08:28:58.406Z</time>
      </trkpt>
      <trkpt lat="44.19815" lon="0.90079">
        <ele>112</ele>
        <time>2022-07-21T08:28:59.406Z</time>
      </trkpt>
      <trkpt lat="44.19815" lon="0.90081">
        <ele>112</ele>
        <time>2022-07-21T08:29:00.406Z</time>
      </trkpt>
      <trkpt lat="44.19815" lon="0.90083">
        <ele>112</ele>
        <time>2022-07-21T08:29:01.406Z</time>
      </trkpt>
      <trkpt lat="44.19814" lon="0.90084">
        <ele>112</ele>
        <time>2022-07-21T08:29:02.406Z</time>
      </trkpt>
      <trkpt lat="44.19814" lon="0.90086">
        <ele>112</ele>
        <time>2022-07-21T08:29:03.406Z</time>
      </trkpt>
      <trkpt lat="44.19814" lon="0.90088">
        <ele>112</ele>
        <time>2022-07-21T08:29:04.406Z</time>
      </trkpt>
      <trkpt lat="44.19814" lon="0.9009">
        <ele>113</ele>
        <time>2022-07-21T08:29:05.406Z</time>
      </trkpt>
      <trkpt lat="44.19814" lon="0.90092">
        <ele>113</ele>
        <time>2022-07-21T08:29:06.406Z</time>
      </trkpt>
      <trkpt lat="44.19814" lon="0.90093">
        <ele>113</ele>
        <time>2022-07-21T08:29:07.406Z</time>
      </trkpt>
      <trkpt lat="44.19814" lon="0.90095">
        <ele>113</ele>
        <time>2022-07-21T08:29:08.406Z</time>
      </trkpt>
      <trkpt lat="44.19814" lon="0.90097">
        <ele>113</ele>
        <time>2022-07-21T08:29:09.406Z</time>
      </trkpt>
      <trkpt lat="44.19813" lon="0.90099">
        <ele>113</ele>
        <time>2022-07-21T08:29:10.406Z</time>
      </trkpt>
      <trkpt lat="44.19813" lon="0.90101">
        <ele>113</ele>
        <time>2022-07-21T08:29:11.406Z</time>
      </trkpt>
      <trkpt lat="44.19813" lon="0.90102">
        <ele>112</ele>
        <time>2022-07-21T08:29:12.406Z</time>
      </trkpt>
      <trkpt lat="44.19812" lon="0.90104">
        <ele>113</ele>
        <time>2022-07-21T08:29:13.406Z</time>
      </trkpt>
      <trkpt lat="44.19812" lon="0.90106">
        <ele>113</ele>
        <time>2022-07-21T08:29:14.406Z</time>
      </trkpt>
      <trkpt lat="44.19811" lon="0.90107">
        <ele>113</ele>
        <time>2022-07-21T08:29:15.406Z</time>
      </trkpt>
      <trkpt lat="44.19811" lon="0.90108">
        <ele>113</ele>
        <time>2022-07-21T08:29:16.406Z</time>
      </trkpt>
      <trkpt lat="44.1981" lon="0.9011">
        <ele>114</ele>
        <time>2022-07-21T08:29:17.406Z</time>
      </trkpt>
      <trkpt lat="44.1981" lon="0.90112">
        <ele>114</ele>
        <time>2022-07-21T08:29:18.406Z</time>
      </trkpt>
      <trkpt lat="44.19809" lon="0.90113">
        <ele>114</ele>
        <time>2022-07-21T08:29:19.406Z</time>
      </trkpt>
      <trkpt lat="44.19809" lon="0.90114">
        <ele>114</ele>
        <time>2022-07-21T08:29:20.406Z</time>
      </trkpt>
      <trkpt lat="44.19808" lon="0.90115">
        <ele>115</ele>
        <time>2022-07-21T08:29:21.406Z</time>
      </trkpt>
      <trkpt lat="44.19807" lon="0.90117">
        <ele>115</ele>
        <time>2022-07-21T08:29:22.406Z</time>
      </trkpt>
      <trkpt lat="44.19807" lon="0.90118">
        <ele>115</ele>
        <time>2022-07-21T08:29:23.406Z</time>
      </trkpt>
      <trkpt lat="44.19806" lon="0.90119">
        <ele>115</ele>
        <time>2022-07-21T08:29:24.406Z</time>
      </trkpt>
      <trkpt lat="44.19806" lon="0.9012">
        <ele>115</ele>
        <time>2022-07-21T08:29:25.406Z</time>
      </trkpt>
      <trkpt lat="44.19805" lon="0.90121">
        <ele>116</ele>
        <time>2022-07-21T08:29:26.406Z</time>
      </trkpt>
      <trkpt lat="44.19805" lon="0.90122">
        <ele>117</ele>
        <time>2022-07-21T08:29:27.406Z</time>
      </trkpt>
      <trkpt lat="44.19805" lon="0.90123">
        <ele>118</ele>
        <time>2022-07-21T08:29:28.406Z</time>
      </trkpt>
      <trkpt lat="44.19805" lon="0.90125">
        <ele>118</ele>
        <time>2022-07-21T08:29:29.406Z</time>
      </trkpt>
      <trkpt lat="44.19804" lon="0.90127">
        <ele>118</ele>
        <time>2022-07-21T08:29:30.406Z</time>
      </trkpt>
      <trkpt lat="44.19803" lon="0.90128">
        <ele>120</ele>
        <time>2022-07-21T08:29:31.406Z</time>
      </trkpt>
      <trkpt lat="44.19803" lon="0.90129">
        <ele>119</ele>
        <time>2022-07-21T08:29:32.406Z</time>
      </trkpt>
      <trkpt lat="44.19802" lon="0.90131">
        <ele>120</ele>
        <time>2022-07-21T08:29:33.406Z</time>
      </trkpt>
      <trkpt lat="44.19802" lon="0.90132">
        <ele>121</ele>
        <time>2022-07-21T08:29:34.406Z</time>
      </trkpt>
      <trkpt lat="44.19801" lon="0.90134">
        <ele>121</ele>
        <time>2022-07-21T08:29:35.406Z</time>
      </trkpt>
      <trkpt lat="44.19801" lon="0.90135">
        <ele>121</ele>
        <time>2022-07-21T08:29:36.406Z</time>
      </trkpt>
      <trkpt lat="44.198" lon="0.90136">
        <ele>120</ele>
        <time>2022-07-21T08:29:37.406Z</time>
      </trkpt>
      <trkpt lat="44.19799" lon="0.90136">
        <ele>119</ele>
        <time>2022-07-21T08:29:38.406Z</time>
      </trkpt>
      <trkpt lat="44.19798" lon="0.90137">
        <ele>119</ele>
        <time>2022-07-21T08:29:39.406Z</time>
      </trkpt>
      <trkpt lat="44.19796" lon="0.90137">
        <ele>116</ele>
        <time>2022-07-21T08:29:40.406Z</time>
      </trkpt>
      <trkpt lat="44.19795" lon="0.90138">
        <ele>116</ele>
        <time>2022-07-21T08:29:41.406Z</time>
      </trkpt>
      <trkpt lat="44.19794" lon="0.9014">
        <ele>116</ele>
        <time>2022-07-21T08:29:42.406Z</time>
      </trkpt>
      <trkpt lat="44.19794" lon="0.90141">
        <ele>116</ele>
        <time>2022-07-21T08:29:43.406Z</time>
      </trkpt>
      <trkpt lat="44.19793" lon="0.90142">
        <ele>116</ele>
        <time>2022-07-21T08:29:44.406Z</time>
      </trkpt>
      <trkpt lat="44.19792" lon="0.90144">
        <ele>114</ele>
        <time>2022-07-21T08:29:45.406Z</time>
      </trkpt>
      <trkpt lat="44.1979" lon="0.90145">
        <ele>113</ele>
        <time>2022-07-21T08:29:46.406Z</time>
      </trkpt>
      <trkpt lat="44.19789" lon="0.90146">
        <ele>113</ele>
        <time>2022-07-21T08:29:47.406Z</time>
      </trkpt>
      <trkpt lat="44.19788" lon="0.90147">
        <ele>113</ele>
        <time>2022-07-21T08:29:48.406Z</time>
      </trkpt>
      <trkpt lat="44.19787" lon="0.90148">
        <ele>112</ele>
        <time>2022-07-21T08:29:49.406Z</time>
      </trkpt>
      <trkpt lat="44.19786" lon="0.9015">
        <ele>113</ele>
        <time>2022-07-21T08:29:50.406Z</time>
      </trkpt>
      <trkpt lat="44.19785" lon="0.90151">
        <ele>112</ele>
        <time>2022-07-21T08:29:51.406Z</time>
      </trkpt>
      <trkpt lat="44.19784" lon="0.90152">
        <ele>112</ele>
        <time>2022-07-21T08:29:52.406Z</time>
      </trkpt>
      <trkpt lat="44.19783" lon="0.90153">
        <ele>112</ele>
        <time>2022-07-21T08:29:53.406Z</time>
      </trkpt>
      <trkpt lat="44.19782" lon="0.90154">
        <ele>113</ele>
        <time>2022-07-21T08:29:54.406Z</time>
      </trkpt>
      <trkpt lat="44.19781" lon="0.90155">
        <ele>113</ele>
        <time>2022-07-21T08:29:55.406Z</time>
      </trkpt>
      <trkpt lat="44.19781" lon="0.90156">
        <ele>113</ele>
        <time>2022-07-21T08:29:56.406Z</time>
      </trkpt>
      <trkpt lat="44.1978" lon="0.90157">
        <ele>113</ele>
        <time>2022-07-21T08:29:57.406Z</time>
      </trkpt>
      <trkpt lat="44.1978" lon="0.90157">
        <ele>112</ele>
        <time>2022-07-21T08:29:58.406Z</time>
      </trkpt>
      <trkpt lat="44.19779" lon="0.90158">
        <ele>112</ele>
        <time>2022-07-21T08:29:59.406Z</time>
      </trkpt>
      <trkpt lat="44.19779" lon="0.90158">
        <ele>112</ele>
        <time>2022-07-21T08:30:00.406Z</time>
      </trkpt>
      <trkpt lat="44.19779" lon="0.90158">
        <ele>112</ele>
        <time>2022-07-21T08:30:01.406Z</time>
      </trkpt>
      <trkpt lat="44.19779" lon="0.90158">
        <ele>112</ele>
        <time>2022-07-21T08:30:02.406Z</time>
      </trkpt>
      <trkpt lat="44.19779" lon="0.90158">
        <ele>111</ele>
        <time>2022-07-21T08:30:03.406Z</time>
      </trkpt>
      <trkpt lat="44.19779" lon="0.90158">
        <ele>111</ele>
        <time>2022-07-21T08:30:04.406Z</time>
      </trkpt>
      <trkpt lat="44.19779" lon="0.90158">
        <ele>111</ele>
        <time>2022-07-21T08:30:05.406Z</time>
      </trkpt>
      <trkpt lat="44.19776" lon="0.90161">
        <ele>109</ele>
        <time>2022-07-21T08:30:18.304Z</time>
      </trkpt>
      <trkpt lat="44.19775" lon="0.90162">
        <ele>108</ele>
        <time>2022-07-21T08:30:19.304Z</time>
      </trkpt>
      <trkpt lat="44.19774" lon="0.90163">
        <ele>108</ele>
        <time>2022-07-21T08:30:20.304Z</time>
      </trkpt>
      <trkpt lat="44.19774" lon="0.90164">
        <ele>108</ele>
        <time>2022-07-21T08:30:21.304Z</time>
      </trkpt>
      <trkpt lat="44.19773" lon="0.90165">
        <ele>109</ele>
        <time>2022-07-21T08:30:22.304Z</time>
      </trkpt>
      <trkpt lat="44.19773" lon="0.90165">
        <ele>108</ele>
        <time>2022-07-21T08:30:23.304Z</time>
      </trkpt>
      <trkpt lat="44.19773" lon="0.90165">
        <ele>108</ele>
        <time>2022-07-21T08:30:24.304Z</time>
      </trkpt>
      <trkpt lat="44.19772" lon="0.90165">
        <ele>108</ele>
        <time>2022-07-21T08:30:25.304Z</time>
      </trkpt>
      <trkpt lat="44.19772" lon="0.90166">
        <ele>108</ele>
        <time>2022-07-21T08:30:26.304Z</time>
      </trkpt>
      <trkpt lat="44.19772" lon="0.90166">
        <ele>108</ele>
        <time>2022-07-21T08:30:27.304Z</time>
      </trkpt>
      <trkpt lat="44.19771" lon="0.90167">
        <ele>108</ele>
        <time>2022-07-21T08:30:28.304Z</time>
      </trkpt>
      <trkpt lat="44.19771" lon="0.90168">
        <ele>108</ele>
        <time>2022-07-21T08:30:29.304Z</time>
      </trkpt>
      <trkpt lat="44.19771" lon="0.90169">
        <ele>108</ele>
        <time>2022-07-21T08:30:30.304Z</time>
      </trkpt>
      <trkpt lat="44.1977" lon="0.9017">
        <ele>108</ele>
        <time>2022-07-21T08:30:31.304Z</time>
      </trkpt>
      <trkpt lat="44.1977" lon="0.90171">
        <ele>108</ele>
        <time>2022-07-21T08:30:32.304Z</time>
      </trkpt>
      <trkpt lat="44.1977" lon="0.90172">
        <ele>107</ele>
        <time>2022-07-21T08:30:33.304Z</time>
      </trkpt>
      <trkpt lat="44.1977" lon="0.90173">
        <ele>107</ele>
        <time>2022-07-21T08:30:34.304Z</time>
      </trkpt>
      <trkpt lat="44.19769" lon="0.90174">
        <ele>108</ele>
        <time>2022-07-21T08:30:35.304Z</time>
      </trkpt>
      <trkpt lat="44.19768" lon="0.90174">
        <ele>108</ele>
        <time>2022-07-21T08:30:36.304Z</time>
      </trkpt>
      <trkpt lat="44.19768" lon="0.90174">
        <ele>108</ele>
        <time>2022-07-21T08:30:37.304Z</time>
      </trkpt>
      <trkpt lat="44.19768" lon="0.90174">
        <ele>108</ele>
        <time>2022-07-21T08:30:38.304Z</time>
      </trkpt>
      <trkpt lat="44.19768" lon="0.90175">
        <ele>108</ele>
        <time>2022-07-21T08:30:39.304Z</time>
      </trkpt>
      <trkpt lat="44.19768" lon="0.90175">
        <ele>107</ele>
        <time>2022-07-21T08:30:40.304Z</time>
      </trkpt>
      <trkpt lat="44.19768" lon="0.90175">
        <ele>107</ele>
        <time>2022-07-21T08:30:41.304Z</time>
      </trkpt>
      <trkpt lat="44.19768" lon="0.90176">
        <ele>108</ele>
        <time>2022-07-21T08:30:42.304Z</time>
      </trkpt>
      <trkpt lat="44.19767" lon="0.90177">
        <ele>107</ele>
        <time>2022-07-21T08:30:43.304Z</time>
      </trkpt>
      <trkpt lat="44.19767" lon="0.90178">
        <ele>107</ele>
        <time>2022-07-21T08:30:44.304Z</time>
      </trkpt>
      <trkpt lat="44.19767" lon="0.90178">
        <ele>107</ele>
        <time>2022-07-21T08:30:45.304Z</time>
      </trkpt>
      <trkpt lat="44.19767" lon="0.90179">
        <ele>107</ele>
        <time>2022-07-21T08:30:46.304Z</time>
      </trkpt>
      <trkpt lat="44.19766" lon="0.9018">
        <ele>107</ele>
        <time>2022-07-21T08:30:47.304Z</time>
      </trkpt>
      <trkpt lat="44.19766" lon="0.90181">
        <ele>106</ele>
        <time>2022-07-21T08:30:48.304Z</time>
      </trkpt>
      <trkpt lat="44.19766" lon="0.90181">
        <ele>106</ele>
        <time>2022-07-21T08:30:49.304Z</time>
      </trkpt>
      <trkpt lat="44.19766" lon="0.90181">
        <ele>106</ele>
        <time>2022-07-21T08:30:50.304Z</time>
      </trkpt>
      <trkpt lat="44.19766" lon="0.90181">
        <ele>106</ele>
        <time>2022-07-21T08:30:51.304Z</time>
      </trkpt>
      <trkpt lat="44.19765" lon="0.90181">
        <ele>106</ele>
        <time>2022-07-21T08:30:52.304Z</time>
      </trkpt>
      <trkpt lat="44.19765" lon="0.90182">
        <ele>105</ele>
        <time>2022-07-21T08:30:53.304Z</time>
      </trkpt>
      <trkpt lat="44.19765" lon="0.90182">
        <ele>105</ele>
        <time>2022-07-21T08:30:54.304Z</time>
      </trkpt>
      <trkpt lat="44.19765" lon="0.90182">
        <ele>105</ele>
        <time>2022-07-21T08:30:55.304Z</time>
      </trkpt>
      <trkpt lat="44.19763" lon="0.90189">
        <ele>104</ele>
        <time>2022-07-21T08:31:02.308Z</time>
      </trkpt>
      <trkpt lat="44.19762" lon="0.9019">
        <ele>104</ele>
        <time>2022-07-21T08:31:03.308Z</time>
      </trkpt>
      <trkpt lat="44.19762" lon="0.90191">
        <ele>104</ele>
        <time>2022-07-21T08:31:04.308Z</time>
      </trkpt>
      <trkpt lat="44.19761" lon="0.90192">
        <ele>104</ele>
        <time>2022-07-21T08:31:05.308Z</time>
      </trkpt>
      <trkpt lat="44.1976" lon="0.90193">
        <ele>104</ele>
        <time>2022-07-21T08:31:06.308Z</time>
      </trkpt>
      <trkpt lat="44.1976" lon="0.90195">
        <ele>103</ele>
        <time>2022-07-21T08:31:07.308Z</time>
      </trkpt>
      <trkpt lat="44.19759" lon="0.90196">
        <ele>103</ele>
        <time>2022-07-21T08:31:08.308Z</time>
      </trkpt>
      <trkpt lat="44.19759" lon="0.90197">
        <ele>102</ele>
        <time>2022-07-21T08:31:09.308Z</time>
      </trkpt>
      <trkpt lat="44.19758" lon="0.90198">
        <ele>103</ele>
        <time>2022-07-21T08:31:10.308Z</time>
      </trkpt>
      <trkpt lat="44.19757" lon="0.902">
        <ele>102</ele>
        <time>2022-07-21T08:31:11.308Z</time>
      </trkpt>
      <trkpt lat="44.19757" lon="0.90201">
        <ele>103</ele>
        <time>2022-07-21T08:31:12.308Z</time>
      </trkpt>
      <trkpt lat="44.19756" lon="0.90202">
        <ele>103</ele>
        <time>2022-07-21T08:31:13.308Z</time>
      </trkpt>
      <trkpt lat="44.19755" lon="0.90203">
        <ele>103</ele>
        <time>2022-07-21T08:31:14.308Z</time>
      </trkpt>
      <trkpt lat="44.19754" lon="0.90205">
        <ele>103</ele>
        <time>2022-07-21T08:31:15.308Z</time>
      </trkpt>
      <trkpt lat="44.19753" lon="0.90206">
        <ele>102</ele>
        <time>2022-07-21T08:31:16.308Z</time>
      </trkpt>
      <trkpt lat="44.19753" lon="0.90207">
        <ele>102</ele>
        <time>2022-07-21T08:31:17.308Z</time>
      </trkpt>
      <trkpt lat="44.19753" lon="0.90208">
        <ele>102</ele>
        <time>2022-07-21T08:31:18.308Z</time>
      </trkpt>
      <trkpt lat="44.19752" lon="0.90209">
        <ele>102</ele>
        <time>2022-07-21T08:31:19.308Z</time>
      </trkpt>
      <trkpt lat="44.19751" lon="0.90211">
        <ele>102</ele>
        <time>2022-07-21T08:31:20.308Z</time>
      </trkpt>
      <trkpt lat="44.19751" lon="0.90212">
        <ele>103</ele>
        <time>2022-07-21T08:31:21.308Z</time>
      </trkpt>
      <trkpt lat="44.1975" lon="0.90213">
        <ele>103</ele>
        <time>2022-07-21T08:31:22.308Z</time>
      </trkpt>
      <trkpt lat="44.19749" lon="0.90214">
        <ele>103</ele>
        <time>2022-07-21T08:31:23.308Z</time>
      </trkpt>
      <trkpt lat="44.19749" lon="0.90215">
        <ele>103</ele>
        <time>2022-07-21T08:31:24.308Z</time>
      </trkpt>
      <trkpt lat="44.19748" lon="0.90216">
        <ele>103</ele>
        <time>2022-07-21T08:31:25.308Z</time>
      </trkpt>
      <trkpt lat="44.19747" lon="0.90217">
        <ele>103</ele>
        <time>2022-07-21T08:31:26.308Z</time>
      </trkpt>
      <trkpt lat="44.19746" lon="0.90218">
        <ele>103</ele>
        <time>2022-07-21T08:31:27.308Z</time>
      </trkpt>
      <trkpt lat="44.19745" lon="0.9022">
        <ele>102</ele>
        <time>2022-07-21T08:31:28.308Z</time>
      </trkpt>
      <trkpt lat="44.19745" lon="0.90221">
        <ele>103</ele>
        <time>2022-07-21T08:31:29.308Z</time>
      </trkpt>
      <trkpt lat="44.19744" lon="0.90222">
        <ele>103</ele>
        <time>2022-07-21T08:31:30.308Z</time>
      </trkpt>
      <trkpt lat="44.19743" lon="0.90223">
        <ele>102</ele>
        <time>2022-07-21T08:31:31.308Z</time>
      </trkpt>
      <trkpt lat="44.19742" lon="0.90225">
        <ele>102</ele>
        <time>2022-07-21T08:31:32.308Z</time>
      </trkpt>
      <trkpt lat="44.19742" lon="0.90226">
        <ele>102</ele>
        <time>2022-07-21T08:31:33.308Z</time>
      </trkpt>
      <trkpt lat="44.19741" lon="0.90227">
        <ele>102</ele>
        <time>2022-07-21T08:31:34.308Z</time>
      </trkpt>
      <trkpt lat="44.1974" lon="0.90228">
        <ele>103</ele>
        <time>2022-07-21T08:31:35.308Z</time>
      </trkpt>
      <trkpt lat="44.1974" lon="0.90229">
        <ele>103</ele>
        <time>2022-07-21T08:31:36.308Z</time>
      </trkpt>
      <trkpt lat="44.19739" lon="0.90231">
        <ele>102</ele>
        <time>2022-07-21T08:31:37.308Z</time>
      </trkpt>
      <trkpt lat="44.19738" lon="0.90232">
        <ele>102</ele>
        <time>2022-07-21T08:31:38.308Z</time>
      </trkpt>
      <trkpt lat="44.19737" lon="0.90233">
        <ele>102</ele>
        <time>2022-07-21T08:31:39.308Z</time>
      </trkpt>
      <trkpt lat="44.19736" lon="0.90234">
        <ele>102</ele>
        <time>2022-07-21T08:31:40.308Z</time>
      </trkpt>
      <trkpt lat="44.19736" lon="0.90235">
        <ele>102</ele>
        <time>2022-07-21T08:31:41.308Z</time>
      </trkpt>
      <trkpt lat="44.19735" lon="0.90236">
        <ele>102</ele>
        <time>2022-07-21T08:31:42.308Z</time>
      </trkpt>
      <trkpt lat="44.19734" lon="0.90237">
        <ele>102</ele>
        <time>2022-07-21T08:31:43.308Z</time>
      </trkpt>
      <trkpt lat="44.19733" lon="0.90238">
        <ele>102</ele>
        <time>2022-07-21T08:31:44.308Z</time>
      </trkpt>
      <trkpt lat="44.19732" lon="0.9024">
        <ele>103</ele>
        <time>2022-07-21T08:31:45.308Z</time>
      </trkpt>
      <trkpt lat="44.19732" lon="0.90241">
        <ele>102</ele>
        <time>2022-07-21T08:31:46.308Z</time>
      </trkpt>
      <trkpt lat="44.19731" lon="0.90243">
        <ele>102</ele>
        <time>2022-07-21T08:31:47.308Z</time>
      </trkpt>
      <trkpt lat="44.1973" lon="0.90244">
        <ele>101</ele>
        <time>2022-07-21T08:31:48.308Z</time>
      </trkpt>
      <trkpt lat="44.19729" lon="0.90245">
        <ele>101</ele>
        <time>2022-07-21T08:31:49.308Z</time>
      </trkpt>
      <trkpt lat="44.19728" lon="0.90246">
        <ele>101</ele>
        <time>2022-07-21T08:31:50.308Z</time>
      </trkpt>
      <trkpt lat="44.19727" lon="0.90248">
        <ele>100</ele>
        <time>2022-07-21T08:31:51.308Z</time>
      </trkpt>
      <trkpt lat="44.19727" lon="0.90249">
        <ele>100</ele>
        <time>2022-07-21T08:31:52.308Z</time>
      </trkpt>
      <trkpt lat="44.19726" lon="0.9025">
        <ele>100</ele>
        <time>2022-07-21T08:31:53.308Z</time>
      </trkpt>
      <trkpt lat="44.19725" lon="0.90252">
        <ele>100</ele>
        <time>2022-07-21T08:31:54.308Z</time>
      </trkpt>
      <trkpt lat="44.19724" lon="0.90253">
        <ele>100</ele>
        <time>2022-07-21T08:31:55.308Z</time>
      </trkpt>
      <trkpt lat="44.19724" lon="0.90255">
        <ele>100</ele>
        <time>2022-07-21T08:31:56.308Z</time>
      </trkpt>
      <trkpt lat="44.19723" lon="0.90256">
        <ele>100</ele>
        <time>2022-07-21T08:31:57.308Z</time>
      </trkpt>
      <trkpt lat="44.19722" lon="0.90257">
        <ele>100</ele>
        <time>2022-07-21T08:31:58.308Z</time>
      </trkpt>
      <trkpt lat="44.19722" lon="0.90258">
        <ele>100</ele>
        <time>2022-07-21T08:31:59.308Z</time>
      </trkpt>
      <trkpt lat="44.19721" lon="0.9026">
        <ele>101</ele>
        <time>2022-07-21T08:32:00.308Z</time>
      </trkpt>
      <trkpt lat="44.1972" lon="0.90261">
        <ele>101</ele>
        <time>2022-07-21T08:32:01.308Z</time>
      </trkpt>
      <trkpt lat="44.19719" lon="0.90262">
        <ele>100</ele>
        <time>2022-07-21T08:32:02.308Z</time>
      </trkpt>
      <trkpt lat="44.19718" lon="0.90263">
        <ele>101</ele>
        <time>2022-07-21T08:32:03.308Z</time>
      </trkpt>
      <trkpt lat="44.19717" lon="0.90265">
        <ele>101</ele>
        <time>2022-07-21T08:32:04.308Z</time>
      </trkpt>
      <trkpt lat="44.19717" lon="0.90266">
        <ele>101</ele>
        <time>2022-07-21T08:32:05.308Z</time>
      </trkpt>
      <trkpt lat="44.19716" lon="0.90267">
        <ele>101</ele>
        <time>2022-07-21T08:32:06.308Z</time>
      </trkpt>
      <trkpt lat="44.19715" lon="0.90269">
        <ele>102</ele>
        <time>2022-07-21T08:32:07.308Z</time>
      </trkpt>
      <trkpt lat="44.19714" lon="0.9027">
        <ele>101</ele>
        <time>2022-07-21T08:32:08.308Z</time>
      </trkpt>
      <trkpt lat="44.19713" lon="0.90271">
        <ele>101</ele>
        <time>2022-07-21T08:32:09.308Z</time>
      </trkpt>
      <trkpt lat="44.19713" lon="0.90272">
        <ele>101</ele>
        <time>2022-07-21T08:32:10.308Z</time>
      </trkpt>
      <trkpt lat="44.19712" lon="0.90273">
        <ele>101</ele>
        <time>2022-07-21T08:32:11.308Z</time>
      </trkpt>
      <trkpt lat="44.19711" lon="0.90274">
        <ele>100</ele>
        <time>2022-07-21T08:32:12.308Z</time>
      </trkpt>
      <trkpt lat="44.1971" lon="0.90275">
        <ele>100</ele>
        <time>2022-07-21T08:32:13.308Z</time>
      </trkpt>
      <trkpt lat="44.19709" lon="0.90277">
        <ele>100</ele>
        <time>2022-07-21T08:32:14.308Z</time>
      </trkpt>
      <trkpt lat="44.19709" lon="0.90278">
        <ele>100</ele>
        <time>2022-07-21T08:32:15.308Z</time>
      </trkpt>
      <trkpt lat="44.19708" lon="0.90279">
        <ele>100</ele>
        <time>2022-07-21T08:32:16.308Z</time>
      </trkpt>
      <trkpt lat="44.19707" lon="0.9028">
        <ele>100</ele>
        <time>2022-07-21T08:32:17.308Z</time>
      </trkpt>
      <trkpt lat="44.19707" lon="0.90281">
        <ele>100</ele>
        <time>2022-07-21T08:32:18.308Z</time>
      </trkpt>
      <trkpt lat="44.19706" lon="0.90282">
        <ele>99</ele>
        <time>2022-07-21T08:32:19.308Z</time>
      </trkpt>
      <trkpt lat="44.19706" lon="0.90283">
        <ele>99</ele>
        <time>2022-07-21T08:32:20.308Z</time>
      </trkpt>
      <trkpt lat="44.19705" lon="0.90284">
        <ele>99</ele>
        <time>2022-07-21T08:32:21.308Z</time>
      </trkpt>
      <trkpt lat="44.19705" lon="0.90285">
        <ele>99</ele>
        <time>2022-07-21T08:32:22.308Z</time>
      </trkpt>
      <trkpt lat="44.19704" lon="0.90286">
        <ele>99</ele>
        <time>2022-07-21T08:32:23.308Z</time>
      </trkpt>
      <trkpt lat="44.19704" lon="0.90287">
        <ele>99</ele>
        <time>2022-07-21T08:32:24.308Z</time>
      </trkpt>
      <trkpt lat="44.19703" lon="0.90288">
        <ele>99</ele>
        <time>2022-07-21T08:32:25.308Z</time>
      </trkpt>
      <trkpt lat="44.19702" lon="0.90289">
        <ele>99</ele>
        <time>2022-07-21T08:32:26.308Z</time>
      </trkpt>
      <trkpt lat="44.19702" lon="0.90291">
        <ele>99</ele>
        <time>2022-07-21T08:32:27.308Z</time>
      </trkpt>
      <trkpt lat="44.19701" lon="0.90292">
        <ele>99</ele>
        <time>2022-07-21T08:32:28.308Z</time>
      </trkpt>
      <trkpt lat="44.197" lon="0.90293">
        <ele>99</ele>
        <time>2022-07-21T08:32:29.308Z</time>
      </trkpt>
      <trkpt lat="44.197" lon="0.90294">
        <ele>99</ele>
        <time>2022-07-21T08:32:30.308Z</time>
      </trkpt>
      <trkpt lat="44.197" lon="0.90295">
        <ele>99</ele>
        <time>2022-07-21T08:32:31.308Z</time>
      </trkpt>
      <trkpt lat="44.19699" lon="0.90296">
        <ele>98</ele>
        <time>2022-07-21T08:32:32.308Z</time>
      </trkpt>
      <trkpt lat="44.19698" lon="0.90298">
        <ele>98</ele>
        <time>2022-07-21T08:32:33.308Z</time>
      </trkpt>
      <trkpt lat="44.19697" lon="0.90299">
        <ele>98</ele>
        <time>2022-07-21T08:32:34.308Z</time>
      </trkpt>
      <trkpt lat="44.19697" lon="0.903">
        <ele>97</ele>
        <time>2022-07-21T08:32:35.308Z</time>
      </trkpt>
      <trkpt lat="44.19696" lon="0.90302">
        <ele>97</ele>
        <time>2022-07-21T08:32:36.308Z</time>
      </trkpt>
      <trkpt lat="44.19695" lon="0.90303">
        <ele>98</ele>
        <time>2022-07-21T08:32:37.308Z</time>
      </trkpt>
      <trkpt lat="44.19694" lon="0.90304">
        <ele>98</ele>
        <time>2022-07-21T08:32:38.308Z</time>
      </trkpt>
      <trkpt lat="44.19693" lon="0.90305">
        <ele>98</ele>
        <time>2022-07-21T08:32:39.308Z</time>
      </trkpt>
      <trkpt lat="44.19693" lon="0.90306">
        <ele>98</ele>
        <time>2022-07-21T08:32:40.308Z</time>
      </trkpt>
      <trkpt lat="44.19692" lon="0.90308">
        <ele>98</ele>
        <time>2022-07-21T08:32:41.308Z</time>
      </trkpt>
      <trkpt lat="44.19692" lon="0.90309">
        <ele>98</ele>
        <time>2022-07-21T08:32:42.308Z</time>
      </trkpt>
      <trkpt lat="44.19691" lon="0.9031">
        <ele>97</ele>
        <time>2022-07-21T08:32:43.308Z</time>
      </trkpt>
      <trkpt lat="44.19691" lon="0.90311">
        <ele>97</ele>
        <time>2022-07-21T08:32:44.308Z</time>
      </trkpt>
      <trkpt lat="44.1969" lon="0.90312">
        <ele>96</ele>
        <time>2022-07-21T08:32:45.308Z</time>
      </trkpt>
      <trkpt lat="44.19689" lon="0.90314">
        <ele>96</ele>
        <time>2022-07-21T08:32:46.308Z</time>
      </trkpt>
      <trkpt lat="44.19689" lon="0.90315">
        <ele>96</ele>
        <time>2022-07-21T08:32:47.308Z</time>
      </trkpt>
      <trkpt lat="44.19688" lon="0.90316">
        <ele>96</ele>
        <time>2022-07-21T08:32:48.308Z</time>
      </trkpt>
      <trkpt lat="44.19688" lon="0.90318">
        <ele>96</ele>
        <time>2022-07-21T08:32:49.308Z</time>
      </trkpt>
      <trkpt lat="44.19687" lon="0.90319">
        <ele>96</ele>
        <time>2022-07-21T08:32:50.308Z</time>
      </trkpt>
      <trkpt lat="44.19687" lon="0.90321">
        <ele>96</ele>
        <time>2022-07-21T08:32:51.308Z</time>
      </trkpt>
      <trkpt lat="44.19686" lon="0.90322">
        <ele>95</ele>
        <time>2022-07-21T08:32:52.308Z</time>
      </trkpt>
      <trkpt lat="44.19685" lon="0.90323">
        <ele>95</ele>
        <time>2022-07-21T08:32:53.308Z</time>
      </trkpt>
      <trkpt lat="44.19684" lon="0.90325">
        <ele>95</ele>
        <time>2022-07-21T08:32:54.308Z</time>
      </trkpt>
      <trkpt lat="44.19684" lon="0.90326">
        <ele>95</ele>
        <time>2022-07-21T08:32:55.308Z</time>
      </trkpt>
      <trkpt lat="44.19683" lon="0.90327">
        <ele>94</ele>
        <time>2022-07-21T08:32:56.308Z</time>
      </trkpt>
      <trkpt lat="44.19682" lon="0.90329">
        <ele>94</ele>
        <time>2022-07-21T08:32:57.308Z</time>
      </trkpt>
      <trkpt lat="44.19681" lon="0.9033">
        <ele>95</ele>
        <time>2022-07-21T08:32:58.308Z</time>
      </trkpt>
      <trkpt lat="44.19681" lon="0.90332">
        <ele>95</ele>
        <time>2022-07-21T08:32:59.308Z</time>
      </trkpt>
      <trkpt lat="44.1968" lon="0.90333">
        <ele>94</ele>
        <time>2022-07-21T08:33:00.308Z</time>
      </trkpt>
      <trkpt lat="44.1968" lon="0.90335">
        <ele>94</ele>
        <time>2022-07-21T08:33:01.308Z</time>
      </trkpt>
      <trkpt lat="44.19679" lon="0.90336">
        <ele>94</ele>
        <time>2022-07-21T08:33:02.308Z</time>
      </trkpt>
      <trkpt lat="44.19679" lon="0.90337">
        <ele>94</ele>
        <time>2022-07-21T08:33:03.308Z</time>
      </trkpt>
      <trkpt lat="44.19679" lon="0.90339">
        <ele>93</ele>
        <time>2022-07-21T08:33:04.308Z</time>
      </trkpt>
      <trkpt lat="44.19678" lon="0.90341">
        <ele>93</ele>
        <time>2022-07-21T08:33:05.308Z</time>
      </trkpt>
      <trkpt lat="44.19678" lon="0.90343">
        <ele>93</ele>
        <time>2022-07-21T08:33:06.308Z</time>
      </trkpt>
      <trkpt lat="44.19677" lon="0.90344">
        <ele>93</ele>
        <time>2022-07-21T08:33:07.308Z</time>
      </trkpt>
      <trkpt lat="44.19677" lon="0.90346">
        <ele>93</ele>
        <time>2022-07-21T08:33:08.308Z</time>
      </trkpt>
      <trkpt lat="44.19676" lon="0.90348">
        <ele>92</ele>
        <time>2022-07-21T08:33:09.308Z</time>
      </trkpt>
      <trkpt lat="44.19676" lon="0.90349">
        <ele>92</ele>
        <time>2022-07-21T08:33:10.308Z</time>
      </trkpt>
      <trkpt lat="44.19675" lon="0.90351">
        <ele>92</ele>
        <time>2022-07-21T08:33:11.308Z</time>
      </trkpt>
      <trkpt lat="44.19675" lon="0.90352">
        <ele>92</ele>
        <time>2022-07-21T08:33:12.308Z</time>
      </trkpt>
      <trkpt lat="44.19674" lon="0.90353">
        <ele>91</ele>
        <time>2022-07-21T08:33:13.308Z</time>
      </trkpt>
      <trkpt lat="44.19674" lon="0.90355">
        <ele>91</ele>
        <time>2022-07-21T08:33:14.308Z</time>
      </trkpt>
      <trkpt lat="44.19673" lon="0.90356">
        <ele>91</ele>
        <time>2022-07-21T08:33:15.308Z</time>
      </trkpt>
      <trkpt lat="44.19673" lon="0.90358">
        <ele>91</ele>
        <time>2022-07-21T08:33:16.308Z</time>
      </trkpt>
      <trkpt lat="44.19672" lon="0.90359">
        <ele>90</ele>
        <time>2022-07-21T08:33:17.308Z</time>
      </trkpt>
      <trkpt lat="44.19672" lon="0.9036">
        <ele>90</ele>
        <time>2022-07-21T08:33:18.308Z</time>
      </trkpt>
      <trkpt lat="44.19671" lon="0.90361">
        <ele>89</ele>
        <time>2022-07-21T08:33:19.308Z</time>
      </trkpt>
      <trkpt lat="44.19671" lon="0.90362">
        <ele>89</ele>
        <time>2022-07-21T08:33:20.308Z</time>
      </trkpt>
      <trkpt lat="44.19671" lon="0.90364">
        <ele>89</ele>
        <time>2022-07-21T08:33:21.308Z</time>
      </trkpt>
      <trkpt lat="44.1967" lon="0.90365">
        <ele>89</ele>
        <time>2022-07-21T08:33:22.308Z</time>
      </trkpt>
      <trkpt lat="44.1967" lon="0.90366">
        <ele>89</ele>
        <time>2022-07-21T08:33:23.308Z</time>
      </trkpt>
      <trkpt lat="44.19669" lon="0.90367">
        <ele>89</ele>
        <time>2022-07-21T08:33:24.308Z</time>
      </trkpt>
      <trkpt lat="44.19669" lon="0.90369">
        <ele>89</ele>
        <time>2022-07-21T08:33:25.308Z</time>
      </trkpt>
      <trkpt lat="44.19669" lon="0.9037">
        <ele>89</ele>
        <time>2022-07-21T08:33:26.308Z</time>
      </trkpt>
      <trkpt lat="44.19669" lon="0.90371">
        <ele>89</ele>
        <time>2022-07-21T08:33:27.308Z</time>
      </trkpt>
      <trkpt lat="44.19668" lon="0.90372">
        <ele>89</ele>
        <time>2022-07-21T08:33:28.308Z</time>
      </trkpt>
      <trkpt lat="44.19668" lon="0.90374">
        <ele>89</ele>
        <time>2022-07-21T08:33:29.308Z</time>
      </trkpt>
      <trkpt lat="44.19668" lon="0.90375">
        <ele>89</ele>
        <time>2022-07-21T08:33:30.308Z</time>
      </trkpt>
      <trkpt lat="44.19667" lon="0.90377">
        <ele>88</ele>
        <time>2022-07-21T08:33:31.308Z</time>
      </trkpt>
      <trkpt lat="44.19667" lon="0.90379">
        <ele>88</ele>
        <time>2022-07-21T08:33:32.308Z</time>
      </trkpt>
      <trkpt lat="44.19666" lon="0.9038">
        <ele>88</ele>
        <time>2022-07-21T08:33:33.308Z</time>
      </trkpt>
      <trkpt lat="44.19666" lon="0.90382">
        <ele>88</ele>
        <time>2022-07-21T08:33:34.308Z</time>
      </trkpt>
      <trkpt lat="44.19666" lon="0.90384">
        <ele>88</ele>
        <time>2022-07-21T08:33:35.308Z</time>
      </trkpt>
      <trkpt lat="44.19666" lon="0.90385">
        <ele>88</ele>
        <time>2022-07-21T08:33:36.308Z</time>
      </trkpt>
      <trkpt lat="44.19665" lon="0.90387">
        <ele>88</ele>
        <time>2022-07-21T08:33:37.308Z</time>
      </trkpt>
      <trkpt lat="44.19665" lon="0.90389">
        <ele>88</ele>
        <time>2022-07-21T08:33:38.308Z</time>
      </trkpt>
      <trkpt lat="44.19664" lon="0.90391">
        <ele>88</ele>
        <time>2022-07-21T08:33:39.308Z</time>
      </trkpt>
      <trkpt lat="44.19664" lon="0.90392">
        <ele>87</ele>
        <time>2022-07-21T08:33:40.308Z</time>
      </trkpt>
      <trkpt lat="44.19663" lon="0.90394">
        <ele>87</ele>
        <time>2022-07-21T08:33:41.308Z</time>
      </trkpt>
      <trkpt lat="44.19663" lon="0.90396">
        <ele>87</ele>
        <time>2022-07-21T08:33:42.308Z</time>
      </trkpt>
      <trkpt lat="44.19663" lon="0.90397">
        <ele>87</ele>
        <time>2022-07-21T08:33:43.308Z</time>
      </trkpt>
      <trkpt lat="44.19663" lon="0.90399">
        <ele>88</ele>
        <time>2022-07-21T08:33:44.308Z</time>
      </trkpt>
      <trkpt lat="44.19663" lon="0.90401">
        <ele>88</ele>
        <time>2022-07-21T08:33:45.308Z</time>
      </trkpt>
      <trkpt lat="44.19662" lon="0.90402">
        <ele>89</ele>
        <time>2022-07-21T08:33:46.308Z</time>
      </trkpt>
      <trkpt lat="44.19662" lon="0.90404">
        <ele>89</ele>
        <time>2022-07-21T08:33:47.308Z</time>
      </trkpt>
      <trkpt lat="44.19663" lon="0.90406">
        <ele>89</ele>
        <time>2022-07-21T08:33:48.308Z</time>
      </trkpt>
      <trkpt lat="44.19663" lon="0.90407">
        <ele>89</ele>
        <time>2022-07-21T08:33:49.308Z</time>
      </trkpt>
      <trkpt lat="44.19664" lon="0.90408">
        <ele>89</ele>
        <time>2022-07-21T08:33:50.308Z</time>
      </trkpt>
      <trkpt lat="44.19664" lon="0.90409">
        <ele>88</ele>
        <time>2022-07-21T08:33:51.308Z</time>
      </trkpt>
      <trkpt lat="44.19665" lon="0.9041">
        <ele>89</ele>
        <time>2022-07-21T08:33:52.308Z</time>
      </trkpt>
      <trkpt lat="44.19665" lon="0.9041">
        <ele>88</ele>
        <time>2022-07-21T08:33:53.308Z</time>
      </trkpt>
      <trkpt lat="44.19665" lon="0.9041">
        <ele>88</ele>
        <time>2022-07-21T08:33:54.308Z</time>
      </trkpt>
      <trkpt lat="44.19665" lon="0.9041">
        <ele>88</ele>
        <time>2022-07-21T08:33:55.308Z</time>
      </trkpt>
      <trkpt lat="44.19665" lon="0.9041">
        <ele>87</ele>
        <time>2022-07-21T08:33:56.308Z</time>
      </trkpt>
      <trkpt lat="44.19665" lon="0.9041">
        <ele>87</ele>
        <time>2022-07-21T08:33:57.308Z</time>
      </trkpt>
      <trkpt lat="44.19665" lon="0.9041">
        <ele>87</ele>
        <time>2022-07-21T08:33:58.308Z</time>
      </trkpt>
      <trkpt lat="44.19666" lon="0.9041">
        <ele>87</ele>
        <time>2022-07-21T08:33:59.308Z</time>
      </trkpt>
      <trkpt lat="44.19667" lon="0.9041">
        <ele>87</ele>
        <time>2022-07-21T08:34:00.308Z</time>
      </trkpt>
      <trkpt lat="44.19668" lon="0.90411">
        <ele>87</ele>
        <time>2022-07-21T08:34:01.308Z</time>
      </trkpt>
      <trkpt lat="44.19669" lon="0.90411">
        <ele>87</ele>
        <time>2022-07-21T08:34:02.308Z</time>
      </trkpt>
      <trkpt lat="44.1967" lon="0.90411">
        <ele>88</ele>
        <time>2022-07-21T08:34:03.308Z</time>
      </trkpt>
      <trkpt lat="44.19671" lon="0.9041">
        <ele>88</ele>
        <time>2022-07-21T08:34:04.308Z</time>
      </trkpt>
      <trkpt lat="44.19672" lon="0.9041">
        <ele>88</ele>
        <time>2022-07-21T08:34:05.308Z</time>
      </trkpt>
      <trkpt lat="44.19673" lon="0.9041">
        <ele>88</ele>
        <time>2022-07-21T08:34:06.308Z</time>
      </trkpt>
      <trkpt lat="44.19674" lon="0.9041">
        <ele>88</ele>
        <time>2022-07-21T08:34:07.308Z</time>
      </trkpt>
      <trkpt lat="44.19676" lon="0.9041">
        <ele>88</ele>
        <time>2022-07-21T08:34:08.308Z</time>
      </trkpt>
      <trkpt lat="44.19677" lon="0.9041">
        <ele>88</ele>
        <time>2022-07-21T08:34:09.308Z</time>
      </trkpt>
      <trkpt lat="44.19678" lon="0.9041">
        <ele>88</ele>
        <time>2022-07-21T08:34:10.308Z</time>
      </trkpt>
      <trkpt lat="44.19679" lon="0.90409">
        <ele>88</ele>
        <time>2022-07-21T08:34:11.308Z</time>
      </trkpt>
      <trkpt lat="44.1968" lon="0.90409">
        <ele>88</ele>
        <time>2022-07-21T08:34:12.308Z</time>
      </trkpt>
      <trkpt lat="44.19681" lon="0.90409">
        <ele>88</ele>
        <time>2022-07-21T08:34:13.308Z</time>
      </trkpt>
      <trkpt lat="44.19682" lon="0.90409">
        <ele>88</ele>
        <time>2022-07-21T08:34:14.308Z</time>
      </trkpt>
      <trkpt lat="44.19683" lon="0.90409">
        <ele>88</ele>
        <time>2022-07-21T08:34:15.308Z</time>
      </trkpt>
      <trkpt lat="44.19684" lon="0.90409">
        <ele>88</ele>
        <time>2022-07-21T08:34:16.308Z</time>
      </trkpt>
      <trkpt lat="44.19685" lon="0.90408">
        <ele>88</ele>
        <time>2022-07-21T08:34:17.308Z</time>
      </trkpt>
      <trkpt lat="44.19686" lon="0.90408">
        <ele>88</ele>
        <time>2022-07-21T08:34:18.308Z</time>
      </trkpt>
      <trkpt lat="44.19687" lon="0.90408">
        <ele>88</ele>
        <time>2022-07-21T08:34:19.308Z</time>
      </trkpt>
      <trkpt lat="44.19689" lon="0.90407">
        <ele>88</ele>
        <time>2022-07-21T08:34:20.308Z</time>
      </trkpt>
      <trkpt lat="44.1969" lon="0.90407">
        <ele>88</ele>
        <time>2022-07-21T08:34:21.308Z</time>
      </trkpt>
      <trkpt lat="44.19691" lon="0.90407">
        <ele>89</ele>
        <time>2022-07-21T08:34:22.308Z</time>
      </trkpt>
      <trkpt lat="44.19692" lon="0.90407">
        <ele>89</ele>
        <time>2022-07-21T08:34:23.308Z</time>
      </trkpt>
      <trkpt lat="44.19694" lon="0.90407">
        <ele>90</ele>
        <time>2022-07-21T08:34:24.308Z</time>
      </trkpt>
      <trkpt lat="44.19695" lon="0.90407">
        <ele>90</ele>
        <time>2022-07-21T08:34:25.308Z</time>
      </trkpt>
      <trkpt lat="44.19696" lon="0.90406">
        <ele>90</ele>
        <time>2022-07-21T08:34:26.308Z</time>
      </trkpt>
      <trkpt lat="44.19697" lon="0.90406">
        <ele>90</ele>
        <time>2022-07-21T08:34:27.308Z</time>
      </trkpt>
      <trkpt lat="44.19698" lon="0.90406">
        <ele>90</ele>
        <time>2022-07-21T08:34:28.308Z</time>
      </trkpt>
      <trkpt lat="44.19699" lon="0.90406">
        <ele>90</ele>
        <time>2022-07-21T08:34:29.308Z</time>
      </trkpt>
      <trkpt lat="44.197" lon="0.90405">
        <ele>90</ele>
        <time>2022-07-21T08:34:30.308Z</time>
      </trkpt>
      <trkpt lat="44.19701" lon="0.90405">
        <ele>90</ele>
        <time>2022-07-21T08:34:31.308Z</time>
      </trkpt>
      <trkpt lat="44.19702" lon="0.90405">
        <ele>90</ele>
        <time>2022-07-21T08:34:32.308Z</time>
      </trkpt>
      <trkpt lat="44.19703" lon="0.90405">
        <ele>90</ele>
        <time>2022-07-21T08:34:33.308Z</time>
      </trkpt>
      <trkpt lat="44.19704" lon="0.90405">
        <ele>91</ele>
        <time>2022-07-21T08:34:34.308Z</time>
      </trkpt>
      <trkpt lat="44.19705" lon="0.90404">
        <ele>91</ele>
        <time>2022-07-21T08:34:35.308Z</time>
      </trkpt>
      <trkpt lat="44.19706" lon="0.90404">
        <ele>91</ele>
        <time>2022-07-21T08:34:36.308Z</time>
      </trkpt>
      <trkpt lat="44.19707" lon="0.90404">
        <ele>90</ele>
        <time>2022-07-21T08:34:37.308Z</time>
      </trkpt>
      <trkpt lat="44.19709" lon="0.90404">
        <ele>90</ele>
        <time>2022-07-21T08:34:38.308Z</time>
      </trkpt>
      <trkpt lat="44.1971" lon="0.90404">
        <ele>91</ele>
        <time>2022-07-21T08:34:39.308Z</time>
      </trkpt>
      <trkpt lat="44.19711" lon="0.90404">
        <ele>91</ele>
        <time>2022-07-21T08:34:40.308Z</time>
      </trkpt>
      <trkpt lat="44.19712" lon="0.90404">
        <ele>91</ele>
        <time>2022-07-21T08:34:41.308Z</time>
      </trkpt>
      <trkpt lat="44.19713" lon="0.90403">
        <ele>91</ele>
        <time>2022-07-21T08:34:42.308Z</time>
      </trkpt>
      <trkpt lat="44.19714" lon="0.90403">
        <ele>91</ele>
        <time>2022-07-21T08:34:43.308Z</time>
      </trkpt>
      <trkpt lat="44.19715" lon="0.90403">
        <ele>91</ele>
        <time>2022-07-21T08:34:44.308Z</time>
      </trkpt>
      <trkpt lat="44.19716" lon="0.90403">
        <ele>91</ele>
        <time>2022-07-21T08:34:45.308Z</time>
      </trkpt>
      <trkpt lat="44.19717" lon="0.90403">
        <ele>92</ele>
        <time>2022-07-21T08:34:46.308Z</time>
      </trkpt>
      <trkpt lat="44.19718" lon="0.90403">
        <ele>92</ele>
        <time>2022-07-21T08:34:47.308Z</time>
      </trkpt>
      <trkpt lat="44.1972" lon="0.90403">
        <ele>92</ele>
        <time>2022-07-21T08:34:48.308Z</time>
      </trkpt>
      <trkpt lat="44.19721" lon="0.90404">
        <ele>92</ele>
        <time>2022-07-21T08:34:49.308Z</time>
      </trkpt>
      <trkpt lat="44.19722" lon="0.90404">
        <ele>92</ele>
        <time>2022-07-21T08:34:50.308Z</time>
      </trkpt>
      <trkpt lat="44.19723" lon="0.90404">
        <ele>92</ele>
        <time>2022-07-21T08:34:51.308Z</time>
      </trkpt>
      <trkpt lat="44.19725" lon="0.90404">
        <ele>93</ele>
        <time>2022-07-21T08:34:52.308Z</time>
      </trkpt>
      <trkpt lat="44.19726" lon="0.90405">
        <ele>93</ele>
        <time>2022-07-21T08:34:53.308Z</time>
      </trkpt>
      <trkpt lat="44.19727" lon="0.90405">
        <ele>93</ele>
        <time>2022-07-21T08:34:54.308Z</time>
      </trkpt>
      <trkpt lat="44.19728" lon="0.90405">
        <ele>93</ele>
        <time>2022-07-21T08:34:55.308Z</time>
      </trkpt>
      <trkpt lat="44.1973" lon="0.90405">
        <ele>93</ele>
        <time>2022-07-21T08:34:56.308Z</time>
      </trkpt>
      <trkpt lat="44.19731" lon="0.90405">
        <ele>93</ele>
        <time>2022-07-21T08:34:57.308Z</time>
      </trkpt>
      <trkpt lat="44.19732" lon="0.90405">
        <ele>93</ele>
        <time>2022-07-21T08:34:58.308Z</time>
      </trkpt>
      <trkpt lat="44.19733" lon="0.90405">
        <ele>93</ele>
        <time>2022-07-21T08:34:59.308Z</time>
      </trkpt>
      <trkpt lat="44.19734" lon="0.90406">
        <ele>93</ele>
        <time>2022-07-21T08:35:00.308Z</time>
      </trkpt>
      <trkpt lat="44.19735" lon="0.90406">
        <ele>93</ele>
        <time>2022-07-21T08:35:01.308Z</time>
      </trkpt>
      <trkpt lat="44.19736" lon="0.90407">
        <ele>93</ele>
        <time>2022-07-21T08:35:02.308Z</time>
      </trkpt>
      <trkpt lat="44.19737" lon="0.90407">
        <ele>93</ele>
        <time>2022-07-21T08:35:03.308Z</time>
      </trkpt>
      <trkpt lat="44.19738" lon="0.90408">
        <ele>92</ele>
        <time>2022-07-21T08:35:04.308Z</time>
      </trkpt>
      <trkpt lat="44.19739" lon="0.90408">
        <ele>92</ele>
        <time>2022-07-21T08:35:05.308Z</time>
      </trkpt>
      <trkpt lat="44.19741" lon="0.90408">
        <ele>92</ele>
        <time>2022-07-21T08:35:06.308Z</time>
      </trkpt>
      <trkpt lat="44.19742" lon="0.90409">
        <ele>92</ele>
        <time>2022-07-21T08:35:07.308Z</time>
      </trkpt>
      <trkpt lat="44.19743" lon="0.90409">
        <ele>92</ele>
        <time>2022-07-21T08:35:08.308Z</time>
      </trkpt>
      <trkpt lat="44.19744" lon="0.90409">
        <ele>92</ele>
        <time>2022-07-21T08:35:09.308Z</time>
      </trkpt>
      <trkpt lat="44.19745" lon="0.90409">
        <ele>91</ele>
        <time>2022-07-21T08:35:10.308Z</time>
      </trkpt>
      <trkpt lat="44.19747" lon="0.9041">
        <ele>91</ele>
        <time>2022-07-21T08:35:11.308Z</time>
      </trkpt>
      <trkpt lat="44.19748" lon="0.9041">
        <ele>91</ele>
        <time>2022-07-21T08:35:12.308Z</time>
      </trkpt>
      <trkpt lat="44.1975" lon="0.90411">
        <ele>91</ele>
        <time>2022-07-21T08:35:13.308Z</time>
      </trkpt>
      <trkpt lat="44.19751" lon="0.90411">
        <ele>91</ele>
        <time>2022-07-21T08:35:14.308Z</time>
      </trkpt>
      <trkpt lat="44.19752" lon="0.90411">
        <ele>91</ele>
        <time>2022-07-21T08:35:15.308Z</time>
      </trkpt>
      <trkpt lat="44.19753" lon="0.90412">
        <ele>91</ele>
        <time>2022-07-21T08:35:16.308Z</time>
      </trkpt>
      <trkpt lat="44.19754" lon="0.90412">
        <ele>91</ele>
        <time>2022-07-21T08:35:17.308Z</time>
      </trkpt>
      <trkpt lat="44.19755" lon="0.90413">
        <ele>92</ele>
        <time>2022-07-21T08:35:18.308Z</time>
      </trkpt>
      <trkpt lat="44.19756" lon="0.90413">
        <ele>92</ele>
        <time>2022-07-21T08:35:19.308Z</time>
      </trkpt>
      <trkpt lat="44.19757" lon="0.90414">
        <ele>92</ele>
        <time>2022-07-21T08:35:20.308Z</time>
      </trkpt>
      <trkpt lat="44.19758" lon="0.90414">
        <ele>92</ele>
        <time>2022-07-21T08:35:21.308Z</time>
      </trkpt>
      <trkpt lat="44.1976" lon="0.90414">
        <ele>92</ele>
        <time>2022-07-21T08:35:22.308Z</time>
      </trkpt>
      <trkpt lat="44.19761" lon="0.90415">
        <ele>92</ele>
        <time>2022-07-21T08:35:23.308Z</time>
      </trkpt>
      <trkpt lat="44.19762" lon="0.90415">
        <ele>92</ele>
        <time>2022-07-21T08:35:24.308Z</time>
      </trkpt>
      <trkpt lat="44.19763" lon="0.90415">
        <ele>92</ele>
        <time>2022-07-21T08:35:25.308Z</time>
      </trkpt>
      <trkpt lat="44.19764" lon="0.90416">
        <ele>92</ele>
        <time>2022-07-21T08:35:26.308Z</time>
      </trkpt>
      <trkpt lat="44.19765" lon="0.90416">
        <ele>92</ele>
        <time>2022-07-21T08:35:27.308Z</time>
      </trkpt>
      <trkpt lat="44.19766" lon="0.90416">
        <ele>92</ele>
        <time>2022-07-21T08:35:28.308Z</time>
      </trkpt>
      <trkpt lat="44.19768" lon="0.90416">
        <ele>92</ele>
        <time>2022-07-21T08:35:29.308Z</time>
      </trkpt>
      <trkpt lat="44.19769" lon="0.90417">
        <ele>92</ele>
        <time>2022-07-21T08:35:30.308Z</time>
      </trkpt>
      <trkpt lat="44.1977" lon="0.90417">
        <ele>92</ele>
        <time>2022-07-21T08:35:31.308Z</time>
      </trkpt>
      <trkpt lat="44.19771" lon="0.90418">
        <ele>92</ele>
        <time>2022-07-21T08:35:32.308Z</time>
      </trkpt>
      <trkpt lat="44.19772" lon="0.90418">
        <ele>92</ele>
        <time>2022-07-21T08:35:33.308Z</time>
      </trkpt>
      <trkpt lat="44.19773" lon="0.90418">
        <ele>92</ele>
        <time>2022-07-21T08:35:34.308Z</time>
      </trkpt>
      <trkpt lat="44.19775" lon="0.90419">
        <ele>93</ele>
        <time>2022-07-21T08:35:35.308Z</time>
      </trkpt>
      <trkpt lat="44.19776" lon="0.90419">
        <ele>93</ele>
        <time>2022-07-21T08:35:36.308Z</time>
      </trkpt>
      <trkpt lat="44.19778" lon="0.9042">
        <ele>93</ele>
        <time>2022-07-21T08:35:37.308Z</time>
      </trkpt>
      <trkpt lat="44.19779" lon="0.9042">
        <ele>93</ele>
        <time>2022-07-21T08:35:38.308Z</time>
      </trkpt>
      <trkpt lat="44.1978" lon="0.9042">
        <ele>93</ele>
        <time>2022-07-21T08:35:39.308Z</time>
      </trkpt>
      <trkpt lat="44.19781" lon="0.9042">
        <ele>93</ele>
        <time>2022-07-21T08:35:40.308Z</time>
      </trkpt>
      <trkpt lat="44.19782" lon="0.90421">
        <ele>93</ele>
        <time>2022-07-21T08:35:41.308Z</time>
      </trkpt>
      <trkpt lat="44.19784" lon="0.90421">
        <ele>93</ele>
        <time>2022-07-21T08:35:42.308Z</time>
      </trkpt>
      <trkpt lat="44.19785" lon="0.90422">
        <ele>93</ele>
        <time>2022-07-21T08:35:43.308Z</time>
      </trkpt>
      <trkpt lat="44.19786" lon="0.90422">
        <ele>92</ele>
        <time>2022-07-21T08:35:44.308Z</time>
      </trkpt>
      <trkpt lat="44.19787" lon="0.90422">
        <ele>92</ele>
        <time>2022-07-21T08:35:45.308Z</time>
      </trkpt>
      <trkpt lat="44.19788" lon="0.90423">
        <ele>92</ele>
        <time>2022-07-21T08:35:46.308Z</time>
      </trkpt>
      <trkpt lat="44.19789" lon="0.90423">
        <ele>92</ele>
        <time>2022-07-21T08:35:47.308Z</time>
      </trkpt>
      <trkpt lat="44.1979" lon="0.90424">
        <ele>92</ele>
        <time>2022-07-21T08:35:48.308Z</time>
      </trkpt>
      <trkpt lat="44.19792" lon="0.90424">
        <ele>92</ele>
        <time>2022-07-21T08:35:49.308Z</time>
      </trkpt>
      <trkpt lat="44.19792" lon="0.90424">
        <ele>92</ele>
        <time>2022-07-21T08:35:50.308Z</time>
      </trkpt>
      <trkpt lat="44.19793" lon="0.90425">
        <ele>92</ele>
        <time>2022-07-21T08:35:51.308Z</time>
      </trkpt>
      <trkpt lat="44.19794" lon="0.90425">
        <ele>92</ele>
        <time>2022-07-21T08:35:52.308Z</time>
      </trkpt>
      <trkpt lat="44.19796" lon="0.90425">
        <ele>92</ele>
        <time>2022-07-21T08:35:53.308Z</time>
      </trkpt>
      <trkpt lat="44.19797" lon="0.90426">
        <ele>92</ele>
        <time>2022-07-21T08:35:54.308Z</time>
      </trkpt>
      <trkpt lat="44.19798" lon="0.90426">
        <ele>91</ele>
        <time>2022-07-21T08:35:55.308Z</time>
      </trkpt>
      <trkpt lat="44.19799" lon="0.90427">
        <ele>91</ele>
        <time>2022-07-21T08:35:56.308Z</time>
      </trkpt>
      <trkpt lat="44.198" lon="0.90427">
        <ele>91</ele>
        <time>2022-07-21T08:35:57.308Z</time>
      </trkpt>
      <trkpt lat="44.19801" lon="0.90427">
        <ele>91</ele>
        <time>2022-07-21T08:35:58.308Z</time>
      </trkpt>
      <trkpt lat="44.19802" lon="0.90428">
        <ele>91</ele>
        <time>2022-07-21T08:35:59.308Z</time>
      </trkpt>
      <trkpt lat="44.19804" lon="0.90428">
        <ele>90</ele>
        <time>2022-07-21T08:36:00.308Z</time>
      </trkpt>
      <trkpt lat="44.19805" lon="0.90429">
        <ele>90</ele>
        <time>2022-07-21T08:36:01.308Z</time>
      </trkpt>
      <trkpt lat="44.19806" lon="0.90429">
        <ele>89</ele>
        <time>2022-07-21T08:36:02.308Z</time>
      </trkpt>
      <trkpt lat="44.19808" lon="0.9043">
        <ele>89</ele>
        <time>2022-07-21T08:36:03.308Z</time>
      </trkpt>
      <trkpt lat="44.19809" lon="0.9043">
        <ele>90</ele>
        <time>2022-07-21T08:36:04.308Z</time>
      </trkpt>
      <trkpt lat="44.1981" lon="0.9043">
        <ele>91</ele>
        <time>2022-07-21T08:36:05.308Z</time>
      </trkpt>
      <trkpt lat="44.19811" lon="0.9043">
        <ele>91</ele>
        <time>2022-07-21T08:36:06.308Z</time>
      </trkpt>
      <trkpt lat="44.19813" lon="0.9043">
        <ele>91</ele>
        <time>2022-07-21T08:36:07.308Z</time>
      </trkpt>
      <trkpt lat="44.19814" lon="0.90431">
        <ele>91</ele>
        <time>2022-07-21T08:36:08.308Z</time>
      </trkpt>
      <trkpt lat="44.19815" lon="0.90431">
        <ele>91</ele>
        <time>2022-07-21T08:36:09.308Z</time>
      </trkpt>
      <trkpt lat="44.19816" lon="0.90431">
        <ele>91</ele>
        <time>2022-07-21T08:36:10.308Z</time>
      </trkpt>
      <trkpt lat="44.19817" lon="0.90431">
        <ele>91</ele>
        <time>2022-07-21T08:36:11.308Z</time>
      </trkpt>
      <trkpt lat="44.19818" lon="0.90431">
        <ele>91</ele>
        <time>2022-07-21T08:36:12.308Z</time>
      </trkpt>
      <trkpt lat="44.19819" lon="0.90432">
        <ele>90</ele>
        <time>2022-07-21T08:36:13.308Z</time>
      </trkpt>
      <trkpt lat="44.1982" lon="0.90432">
        <ele>90</ele>
        <time>2022-07-21T08:36:14.308Z</time>
      </trkpt>
      <trkpt lat="44.19821" lon="0.90432">
        <ele>91</ele>
        <time>2022-07-21T08:36:15.308Z</time>
      </trkpt>
      <trkpt lat="44.19822" lon="0.90432">
        <ele>91</ele>
        <time>2022-07-21T08:36:16.308Z</time>
      </trkpt>
      <trkpt lat="44.19823" lon="0.90433">
        <ele>91</ele>
        <time>2022-07-21T08:36:17.308Z</time>
      </trkpt>
      <trkpt lat="44.19824" lon="0.90433">
        <ele>91</ele>
        <time>2022-07-21T08:36:18.308Z</time>
      </trkpt>
      <trkpt lat="44.19826" lon="0.90433">
        <ele>91</ele>
        <time>2022-07-21T08:36:19.308Z</time>
      </trkpt>
      <trkpt lat="44.19827" lon="0.90433">
        <ele>90</ele>
        <time>2022-07-21T08:36:20.308Z</time>
      </trkpt>
      <trkpt lat="44.19828" lon="0.90433">
        <ele>90</ele>
        <time>2022-07-21T08:36:21.308Z</time>
      </trkpt>
      <trkpt lat="44.19829" lon="0.90434">
        <ele>90</ele>
        <time>2022-07-21T08:36:22.308Z</time>
      </trkpt>
      <trkpt lat="44.1983" lon="0.90434">
        <ele>90</ele>
        <time>2022-07-21T08:36:23.308Z</time>
      </trkpt>
      <trkpt lat="44.19831" lon="0.90434">
        <ele>90</ele>
        <time>2022-07-21T08:36:24.308Z</time>
      </trkpt>
      <trkpt lat="44.19832" lon="0.90434">
        <ele>90</ele>
        <time>2022-07-21T08:36:25.308Z</time>
      </trkpt>
      <trkpt lat="44.19834" lon="0.90435">
        <ele>91</ele>
        <time>2022-07-21T08:36:26.308Z</time>
      </trkpt>
      <trkpt lat="44.19835" lon="0.90435">
        <ele>91</ele>
        <time>2022-07-21T08:36:27.308Z</time>
      </trkpt>
      <trkpt lat="44.19836" lon="0.90435">
        <ele>91</ele>
        <time>2022-07-21T08:36:28.308Z</time>
      </trkpt>
      <trkpt lat="44.19837" lon="0.90435">
        <ele>91</ele>
        <time>2022-07-21T08:36:29.308Z</time>
      </trkpt>
      <trkpt lat="44.19839" lon="0.90435">
        <ele>91</ele>
        <time>2022-07-21T08:36:30.308Z</time>
      </trkpt>
      <trkpt lat="44.1984" lon="0.90435">
        <ele>91</ele>
        <time>2022-07-21T08:36:31.308Z</time>
      </trkpt>
      <trkpt lat="44.19841" lon="0.90435">
        <ele>91</ele>
        <time>2022-07-21T08:36:32.308Z</time>
      </trkpt>
      <trkpt lat="44.19842" lon="0.90435">
        <ele>92</ele>
        <time>2022-07-21T08:36:33.308Z</time>
      </trkpt>
      <trkpt lat="44.19843" lon="0.90434">
        <ele>92</ele>
        <time>2022-07-21T08:36:34.308Z</time>
      </trkpt>
      <trkpt lat="44.19845" lon="0.90434">
        <ele>92</ele>
        <time>2022-07-21T08:36:35.308Z</time>
      </trkpt>
      <trkpt lat="44.19846" lon="0.90434">
        <ele>93</ele>
        <time>2022-07-21T08:36:36.308Z</time>
      </trkpt>
      <trkpt lat="44.19847" lon="0.90434">
        <ele>93</ele>
        <time>2022-07-21T08:36:37.308Z</time>
      </trkpt>
      <trkpt lat="44.19848" lon="0.90434">
        <ele>93</ele>
        <time>2022-07-21T08:36:38.308Z</time>
      </trkpt>
      <trkpt lat="44.1985" lon="0.90433">
        <ele>93</ele>
        <time>2022-07-21T08:36:39.308Z</time>
      </trkpt>
      <trkpt lat="44.19851" lon="0.90433">
        <ele>94</ele>
        <time>2022-07-21T08:36:40.308Z</time>
      </trkpt>
      <trkpt lat="44.19852" lon="0.90433">
        <ele>94</ele>
        <time>2022-07-21T08:36:41.308Z</time>
      </trkpt>
      <trkpt lat="44.19853" lon="0.90432">
        <ele>94</ele>
        <time>2022-07-21T08:36:42.308Z</time>
      </trkpt>
      <trkpt lat="44.19854" lon="0.90432">
        <ele>94</ele>
        <time>2022-07-21T08:36:43.308Z</time>
      </trkpt>
      <trkpt lat="44.19855" lon="0.90432">
        <ele>94</ele>
        <time>2022-07-21T08:36:44.308Z</time>
      </trkpt>
      <trkpt lat="44.19856" lon="0.90431">
        <ele>94</ele>
        <time>2022-07-21T08:36:45.308Z</time>
      </trkpt>
      <trkpt lat="44.19857" lon="0.90431">
        <ele>95</ele>
        <time>2022-07-21T08:36:46.308Z</time>
      </trkpt>
      <trkpt lat="44.19859" lon="0.90431">
        <ele>95</ele>
        <time>2022-07-21T08:36:47.308Z</time>
      </trkpt>
      <trkpt lat="44.1986" lon="0.9043">
        <ele>95</ele>
        <time>2022-07-21T08:36:48.308Z</time>
      </trkpt>
      <trkpt lat="44.19861" lon="0.9043">
        <ele>95</ele>
        <time>2022-07-21T08:36:49.308Z</time>
      </trkpt>
      <trkpt lat="44.19862" lon="0.9043">
        <ele>95</ele>
        <time>2022-07-21T08:36:50.308Z</time>
      </trkpt>
      <trkpt lat="44.19863" lon="0.9043">
        <ele>94</ele>
        <time>2022-07-21T08:36:51.308Z</time>
      </trkpt>
      <trkpt lat="44.19864" lon="0.9043">
        <ele>94</ele>
        <time>2022-07-21T08:36:52.308Z</time>
      </trkpt>
      <trkpt lat="44.19866" lon="0.9043">
        <ele>94</ele>
        <time>2022-07-21T08:36:53.308Z</time>
      </trkpt>
      <trkpt lat="44.19867" lon="0.90431">
        <ele>94</ele>
        <time>2022-07-21T08:36:54.308Z</time>
      </trkpt>
      <trkpt lat="44.19868" lon="0.90431">
        <ele>94</ele>
        <time>2022-07-21T08:36:55.308Z</time>
      </trkpt>
      <trkpt lat="44.19869" lon="0.90432">
        <ele>95</ele>
        <time>2022-07-21T08:36:56.308Z</time>
      </trkpt>
      <trkpt lat="44.1987" lon="0.90432">
        <ele>95</ele>
        <time>2022-07-21T08:36:57.308Z</time>
      </trkpt>
      <trkpt lat="44.19871" lon="0.90433">
        <ele>95</ele>
        <time>2022-07-21T08:36:58.308Z</time>
      </trkpt>
      <trkpt lat="44.19872" lon="0.90434">
        <ele>95</ele>
        <time>2022-07-21T08:36:59.308Z</time>
      </trkpt>
      <trkpt lat="44.19873" lon="0.90435">
        <ele>95</ele>
        <time>2022-07-21T08:37:00.308Z</time>
      </trkpt>
      <trkpt lat="44.19874" lon="0.90436">
        <ele>95</ele>
        <time>2022-07-21T08:37:01.308Z</time>
      </trkpt>
      <trkpt lat="44.19875" lon="0.90437">
        <ele>95</ele>
        <time>2022-07-21T08:37:02.308Z</time>
      </trkpt>
      <trkpt lat="44.19876" lon="0.90439">
        <ele>95</ele>
        <time>2022-07-21T08:37:03.308Z</time>
      </trkpt>
      <trkpt lat="44.19877" lon="0.9044">
        <ele>95</ele>
        <time>2022-07-21T08:37:04.308Z</time>
      </trkpt>
      <trkpt lat="44.19877" lon="0.90441">
        <ele>95</ele>
        <time>2022-07-21T08:37:05.308Z</time>
      </trkpt>
      <trkpt lat="44.19878" lon="0.90442">
        <ele>95</ele>
        <time>2022-07-21T08:37:06.308Z</time>
      </trkpt>
      <trkpt lat="44.19879" lon="0.90444">
        <ele>95</ele>
        <time>2022-07-21T08:37:07.308Z</time>
      </trkpt>
      <trkpt lat="44.1988" lon="0.90446">
        <ele>95</ele>
        <time>2022-07-21T08:37:08.308Z</time>
      </trkpt>
      <trkpt lat="44.1988" lon="0.90447">
        <ele>95</ele>
        <time>2022-07-21T08:37:09.308Z</time>
      </trkpt>
      <trkpt lat="44.19881" lon="0.90449">
        <ele>95</ele>
        <time>2022-07-21T08:37:10.308Z</time>
      </trkpt>
      <trkpt lat="44.19881" lon="0.9045">
        <ele>95</ele>
        <time>2022-07-21T08:37:11.308Z</time>
      </trkpt>
      <trkpt lat="44.19881" lon="0.90452">
        <ele>94</ele>
        <time>2022-07-21T08:37:12.308Z</time>
      </trkpt>
      <trkpt lat="44.19881" lon="0.90454">
        <ele>94</ele>
        <time>2022-07-21T08:37:13.308Z</time>
      </trkpt>
      <trkpt lat="44.19881" lon="0.90456">
        <ele>94</ele>
        <time>2022-07-21T08:37:14.308Z</time>
      </trkpt>
      <trkpt lat="44.19882" lon="0.90457">
        <ele>94</ele>
        <time>2022-07-21T08:37:15.308Z</time>
      </trkpt>
      <trkpt lat="44.19882" lon="0.90459">
        <ele>94</ele>
        <time>2022-07-21T08:37:16.308Z</time>
      </trkpt>
      <trkpt lat="44.19883" lon="0.9046">
        <ele>93</ele>
        <time>2022-07-21T08:37:17.308Z</time>
      </trkpt>
      <trkpt lat="44.19883" lon="0.90462">
        <ele>94</ele>
        <time>2022-07-21T08:37:18.308Z</time>
      </trkpt>
      <trkpt lat="44.19884" lon="0.90464">
        <ele>93</ele>
        <time>2022-07-21T08:37:19.308Z</time>
      </trkpt>
      <trkpt lat="44.19884" lon="0.90465">
        <ele>93</ele>
        <time>2022-07-21T08:37:20.308Z</time>
      </trkpt>
      <trkpt lat="44.19884" lon="0.90467">
        <ele>93</ele>
        <time>2022-07-21T08:37:21.308Z</time>
      </trkpt>
      <trkpt lat="44.19885" lon="0.90469">
        <ele>94</ele>
        <time>2022-07-21T08:37:22.308Z</time>
      </trkpt>
      <trkpt lat="44.19885" lon="0.9047">
        <ele>94</ele>
        <time>2022-07-21T08:37:23.308Z</time>
      </trkpt>
      <trkpt lat="44.19886" lon="0.90472">
        <ele>94</ele>
        <time>2022-07-21T08:37:24.308Z</time>
      </trkpt>
      <trkpt lat="44.19886" lon="0.90474">
        <ele>93</ele>
        <time>2022-07-21T08:37:25.308Z</time>
      </trkpt>
      <trkpt lat="44.19887" lon="0.90475">
        <ele>93</ele>
        <time>2022-07-21T08:37:26.308Z</time>
      </trkpt>
      <trkpt lat="44.19887" lon="0.90477">
        <ele>93</ele>
        <time>2022-07-21T08:37:27.308Z</time>
      </trkpt>
      <trkpt lat="44.19887" lon="0.90478">
        <ele>93</ele>
        <time>2022-07-21T08:37:28.308Z</time>
      </trkpt>
      <trkpt lat="44.19888" lon="0.9048">
        <ele>93</ele>
        <time>2022-07-21T08:37:29.308Z</time>
      </trkpt>
      <trkpt lat="44.19888" lon="0.90481">
        <ele>92</ele>
        <time>2022-07-21T08:37:30.308Z</time>
      </trkpt>
      <trkpt lat="44.19889" lon="0.90483">
        <ele>92</ele>
        <time>2022-07-21T08:37:31.308Z</time>
      </trkpt>
      <trkpt lat="44.19889" lon="0.90484">
        <ele>93</ele>
        <time>2022-07-21T08:37:32.308Z</time>
      </trkpt>
      <trkpt lat="44.19889" lon="0.90485">
        <ele>93</ele>
        <time>2022-07-21T08:37:33.308Z</time>
      </trkpt>
      <trkpt lat="44.1989" lon="0.90486">
        <ele>93</ele>
        <time>2022-07-21T08:37:34.308Z</time>
      </trkpt>
      <trkpt lat="44.1989" lon="0.90488">
        <ele>93</ele>
        <time>2022-07-21T08:37:35.308Z</time>
      </trkpt>
      <trkpt lat="44.19891" lon="0.90489">
        <ele>93</ele>
        <time>2022-07-21T08:37:36.308Z</time>
      </trkpt>
      <trkpt lat="44.19892" lon="0.9049">
        <ele>93</ele>
        <time>2022-07-21T08:37:37.308Z</time>
      </trkpt>
      <trkpt lat="44.19892" lon="0.90491">
        <ele>93</ele>
        <time>2022-07-21T08:37:38.308Z</time>
      </trkpt>
      <trkpt lat="44.19893" lon="0.90492">
        <ele>93</ele>
        <time>2022-07-21T08:37:39.308Z</time>
      </trkpt>
      <trkpt lat="44.19894" lon="0.90494">
        <ele>93</ele>
        <time>2022-07-21T08:37:40.308Z</time>
      </trkpt>
      <trkpt lat="44.19895" lon="0.90495">
        <ele>93</ele>
        <time>2022-07-21T08:37:41.308Z</time>
      </trkpt>
      <trkpt lat="44.19896" lon="0.90496">
        <ele>94</ele>
        <time>2022-07-21T08:37:42.308Z</time>
      </trkpt>
      <trkpt lat="44.19897" lon="0.90497">
        <ele>94</ele>
        <time>2022-07-21T08:37:43.308Z</time>
      </trkpt>
      <trkpt lat="44.19898" lon="0.90498">
        <ele>94</ele>
        <time>2022-07-21T08:37:44.308Z</time>
      </trkpt>
      <trkpt lat="44.19899" lon="0.90499">
        <ele>94</ele>
        <time>2022-07-21T08:37:45.308Z</time>
      </trkpt>
      <trkpt lat="44.199" lon="0.90499">
        <ele>94</ele>
        <time>2022-07-21T08:37:46.308Z</time>
      </trkpt>
      <trkpt lat="44.19901" lon="0.905">
        <ele>94</ele>
        <time>2022-07-21T08:37:47.308Z</time>
      </trkpt>
      <trkpt lat="44.19902" lon="0.90501">
        <ele>94</ele>
        <time>2022-07-21T08:37:48.308Z</time>
      </trkpt>
      <trkpt lat="44.19903" lon="0.90502">
        <ele>94</ele>
        <time>2022-07-21T08:37:49.308Z</time>
      </trkpt>
      <trkpt lat="44.19904" lon="0.90503">
        <ele>94</ele>
        <time>2022-07-21T08:37:50.308Z</time>
      </trkpt>
      <trkpt lat="44.19905" lon="0.90503">
        <ele>95</ele>
        <time>2022-07-21T08:37:51.308Z</time>
      </trkpt>
      <trkpt lat="44.19906" lon="0.90504">
        <ele>95</ele>
        <time>2022-07-21T08:37:52.308Z</time>
      </trkpt>
      <trkpt lat="44.19907" lon="0.90505">
        <ele>95</ele>
        <time>2022-07-21T08:37:53.308Z</time>
      </trkpt>
      <trkpt lat="44.19909" lon="0.90505">
        <ele>95</ele>
        <time>2022-07-21T08:37:54.308Z</time>
      </trkpt>
      <trkpt lat="44.1991" lon="0.90506">
        <ele>94</ele>
        <time>2022-07-21T08:37:55.308Z</time>
      </trkpt>
      <trkpt lat="44.19911" lon="0.90506">
        <ele>94</ele>
        <time>2022-07-21T08:37:56.308Z</time>
      </trkpt>
      <trkpt lat="44.19912" lon="0.90507">
        <ele>94</ele>
        <time>2022-07-21T08:37:57.308Z</time>
      </trkpt>
      <trkpt lat="44.19913" lon="0.90507">
        <ele>94</ele>
        <time>2022-07-21T08:37:58.308Z</time>
      </trkpt>
      <trkpt lat="44.19914" lon="0.90507">
        <ele>93</ele>
        <time>2022-07-21T08:37:59.308Z</time>
      </trkpt>
      <trkpt lat="44.19915" lon="0.90508">
        <ele>93</ele>
        <time>2022-07-21T08:38:00.308Z</time>
      </trkpt>
      <trkpt lat="44.19917" lon="0.90508">
        <ele>93</ele>
        <time>2022-07-21T08:38:01.308Z</time>
      </trkpt>
      <trkpt lat="44.19918" lon="0.90509">
        <ele>93</ele>
        <time>2022-07-21T08:38:02.308Z</time>
      </trkpt>
      <trkpt lat="44.19919" lon="0.90509">
        <ele>93</ele>
        <time>2022-07-21T08:38:03.308Z</time>
      </trkpt>
      <trkpt lat="44.1992" lon="0.90508">
        <ele>93</ele>
        <time>2022-07-21T08:38:04.308Z</time>
      </trkpt>
      <trkpt lat="44.19921" lon="0.90508">
        <ele>93</ele>
        <time>2022-07-21T08:38:05.308Z</time>
      </trkpt>
      <trkpt lat="44.19922" lon="0.90508">
        <ele>94</ele>
        <time>2022-07-21T08:38:06.308Z</time>
      </trkpt>
      <trkpt lat="44.19923" lon="0.90509">
        <ele>94</ele>
        <time>2022-07-21T08:38:07.308Z</time>
      </trkpt>
      <trkpt lat="44.19924" lon="0.90509">
        <ele>94</ele>
        <time>2022-07-21T08:38:08.308Z</time>
      </trkpt>
      <trkpt lat="44.19925" lon="0.90509">
        <ele>93</ele>
        <time>2022-07-21T08:38:09.308Z</time>
      </trkpt>
      <trkpt lat="44.19926" lon="0.9051">
        <ele>93</ele>
        <time>2022-07-21T08:38:10.308Z</time>
      </trkpt>
      <trkpt lat="44.19928" lon="0.9051">
        <ele>93</ele>
        <time>2022-07-21T08:38:11.308Z</time>
      </trkpt>
      <trkpt lat="44.19929" lon="0.9051">
        <ele>93</ele>
        <time>2022-07-21T08:38:12.308Z</time>
      </trkpt>
      <trkpt lat="44.1993" lon="0.90511">
        <ele>93</ele>
        <time>2022-07-21T08:38:13.308Z</time>
      </trkpt>
      <trkpt lat="44.19931" lon="0.90511">
        <ele>93</ele>
        <time>2022-07-21T08:38:14.308Z</time>
      </trkpt>
      <trkpt lat="44.19932" lon="0.90512">
        <ele>93</ele>
        <time>2022-07-21T08:38:15.308Z</time>
      </trkpt>
      <trkpt lat="44.19934" lon="0.90512">
        <ele>93</ele>
        <time>2022-07-21T08:38:16.308Z</time>
      </trkpt>
      <trkpt lat="44.19935" lon="0.90513">
        <ele>93</ele>
        <time>2022-07-21T08:38:17.308Z</time>
      </trkpt>
      <trkpt lat="44.19936" lon="0.90513">
        <ele>93</ele>
        <time>2022-07-21T08:38:18.308Z</time>
      </trkpt>
      <trkpt lat="44.19937" lon="0.90513">
        <ele>93</ele>
        <time>2022-07-21T08:38:19.308Z</time>
      </trkpt>
      <trkpt lat="44.19938" lon="0.90514">
        <ele>93</ele>
        <time>2022-07-21T08:38:20.308Z</time>
      </trkpt>
      <trkpt lat="44.19939" lon="0.90514">
        <ele>93</ele>
        <time>2022-07-21T08:38:21.308Z</time>
      </trkpt>
      <trkpt lat="44.1994" lon="0.90514">
        <ele>94</ele>
        <time>2022-07-21T08:38:22.308Z</time>
      </trkpt>
      <trkpt lat="44.19941" lon="0.90515">
        <ele>94</ele>
        <time>2022-07-21T08:38:23.308Z</time>
      </trkpt>
      <trkpt lat="44.19942" lon="0.90515">
        <ele>94</ele>
        <time>2022-07-21T08:38:24.308Z</time>
      </trkpt>
      <trkpt lat="44.19943" lon="0.90516">
        <ele>93</ele>
        <time>2022-07-21T08:38:25.308Z</time>
      </trkpt>
      <trkpt lat="44.19944" lon="0.90517">
        <ele>94</ele>
        <time>2022-07-21T08:38:26.308Z</time>
      </trkpt>
      <trkpt lat="44.19945" lon="0.90518">
        <ele>94</ele>
        <time>2022-07-21T08:38:27.308Z</time>
      </trkpt>
      <trkpt lat="44.19946" lon="0.90519">
        <ele>94</ele>
        <time>2022-07-21T08:38:28.308Z</time>
      </trkpt>
      <trkpt lat="44.19947" lon="0.9052">
        <ele>94</ele>
        <time>2022-07-21T08:38:29.308Z</time>
      </trkpt>
      <trkpt lat="44.19948" lon="0.90522">
        <ele>94</ele>
        <time>2022-07-21T08:38:30.308Z</time>
      </trkpt>
      <trkpt lat="44.19949" lon="0.90522">
        <ele>94</ele>
        <time>2022-07-21T08:38:31.308Z</time>
      </trkpt>
      <trkpt lat="44.1995" lon="0.90524">
        <ele>94</ele>
        <time>2022-07-21T08:38:32.308Z</time>
      </trkpt>
      <trkpt lat="44.19951" lon="0.90525">
        <ele>95</ele>
        <time>2022-07-21T08:38:33.308Z</time>
      </trkpt>
      <trkpt lat="44.19952" lon="0.90526">
        <ele>94</ele>
        <time>2022-07-21T08:38:34.308Z</time>
      </trkpt>
      <trkpt lat="44.19953" lon="0.90528">
        <ele>94</ele>
        <time>2022-07-21T08:38:35.308Z</time>
      </trkpt>
      <trkpt lat="44.19954" lon="0.9053">
        <ele>94</ele>
        <time>2022-07-21T08:38:36.308Z</time>
      </trkpt>
      <trkpt lat="44.19955" lon="0.90531">
        <ele>94</ele>
        <time>2022-07-21T08:38:37.308Z</time>
      </trkpt>
      <trkpt lat="44.19956" lon="0.90532">
        <ele>94</ele>
        <time>2022-07-21T08:38:38.308Z</time>
      </trkpt>
      <trkpt lat="44.19956" lon="0.90534">
        <ele>94</ele>
        <time>2022-07-21T08:38:39.308Z</time>
      </trkpt>
      <trkpt lat="44.19957" lon="0.90535">
        <ele>94</ele>
        <time>2022-07-21T08:38:40.308Z</time>
      </trkpt>
      <trkpt lat="44.19958" lon="0.90537">
        <ele>94</ele>
        <time>2022-07-21T08:38:41.308Z</time>
      </trkpt>
      <trkpt lat="44.19958" lon="0.90538">
        <ele>94</ele>
        <time>2022-07-21T08:38:42.308Z</time>
      </trkpt>
      <trkpt lat="44.19959" lon="0.9054">
        <ele>94</ele>
        <time>2022-07-21T08:38:43.308Z</time>
      </trkpt>
      <trkpt lat="44.19959" lon="0.90541">
        <ele>94</ele>
        <time>2022-07-21T08:38:44.308Z</time>
      </trkpt>
      <trkpt lat="44.1996" lon="0.90543">
        <ele>94</ele>
        <time>2022-07-21T08:38:45.308Z</time>
      </trkpt>
      <trkpt lat="44.1996" lon="0.90544">
        <ele>94</ele>
        <time>2022-07-21T08:38:46.308Z</time>
      </trkpt>
      <trkpt lat="44.19961" lon="0.90546">
        <ele>94</ele>
        <time>2022-07-21T08:38:47.308Z</time>
      </trkpt>
      <trkpt lat="44.19962" lon="0.90547">
        <ele>94</ele>
        <time>2022-07-21T08:38:48.308Z</time>
      </trkpt>
      <trkpt lat="44.19963" lon="0.90549">
        <ele>94</ele>
        <time>2022-07-21T08:38:49.308Z</time>
      </trkpt>
      <trkpt lat="44.19963" lon="0.9055">
        <ele>94</ele>
        <time>2022-07-21T08:38:50.308Z</time>
      </trkpt>
      <trkpt lat="44.19964" lon="0.90551">
        <ele>94</ele>
        <time>2022-07-21T08:38:51.308Z</time>
      </trkpt>
      <trkpt lat="44.19964" lon="0.90553">
        <ele>94</ele>
        <time>2022-07-21T08:38:52.308Z</time>
      </trkpt>
      <trkpt lat="44.19965" lon="0.90554">
        <ele>94</ele>
        <time>2022-07-21T08:38:53.308Z</time>
      </trkpt>
      <trkpt lat="44.19966" lon="0.90555">
        <ele>94</ele>
        <time>2022-07-21T08:38:54.308Z</time>
      </trkpt>
      <trkpt lat="44.19967" lon="0.90557">
        <ele>94</ele>
        <time>2022-07-21T08:38:55.308Z</time>
      </trkpt>
      <trkpt lat="44.19967" lon="0.90558">
        <ele>94</ele>
        <time>2022-07-21T08:38:56.308Z</time>
      </trkpt>
      <trkpt lat="44.19968" lon="0.90559">
        <ele>94</ele>
        <time>2022-07-21T08:38:57.308Z</time>
      </trkpt>
      <trkpt lat="44.19968" lon="0.9056">
        <ele>94</ele>
        <time>2022-07-21T08:38:58.308Z</time>
      </trkpt>
      <trkpt lat="44.19969" lon="0.90562">
        <ele>94</ele>
        <time>2022-07-21T08:38:59.308Z</time>
      </trkpt>
      <trkpt lat="44.1997" lon="0.90563">
        <ele>94</ele>
        <time>2022-07-21T08:39:00.308Z</time>
      </trkpt>
      <trkpt lat="44.19971" lon="0.90564">
        <ele>93</ele>
        <time>2022-07-21T08:39:01.308Z</time>
      </trkpt>
      <trkpt lat="44.19972" lon="0.90566">
        <ele>93</ele>
        <time>2022-07-21T08:39:02.308Z</time>
      </trkpt>
      <trkpt lat="44.19973" lon="0.90567">
        <ele>93</ele>
        <time>2022-07-21T08:39:03.308Z</time>
      </trkpt>
      <trkpt lat="44.19974" lon="0.90567">
        <ele>93</ele>
        <time>2022-07-21T08:39:04.308Z</time>
      </trkpt>
      <trkpt lat="44.19975" lon="0.90568">
        <ele>93</ele>
        <time>2022-07-21T08:39:05.308Z</time>
      </trkpt>
      <trkpt lat="44.19976" lon="0.90569">
        <ele>93</ele>
        <time>2022-07-21T08:39:06.308Z</time>
      </trkpt>
      <trkpt lat="44.19977" lon="0.90571">
        <ele>93</ele>
        <time>2022-07-21T08:39:07.308Z</time>
      </trkpt>
      <trkpt lat="44.19978" lon="0.90572">
        <ele>93</ele>
        <time>2022-07-21T08:39:08.308Z</time>
      </trkpt>
      <trkpt lat="44.19979" lon="0.90573">
        <ele>93</ele>
        <time>2022-07-21T08:39:09.308Z</time>
      </trkpt>
      <trkpt lat="44.1998" lon="0.90574">
        <ele>93</ele>
        <time>2022-07-21T08:39:10.308Z</time>
      </trkpt>
      <trkpt lat="44.19981" lon="0.90575">
        <ele>92</ele>
        <time>2022-07-21T08:39:11.308Z</time>
      </trkpt>
      <trkpt lat="44.19982" lon="0.90576">
        <ele>93</ele>
        <time>2022-07-21T08:39:12.308Z</time>
      </trkpt>
      <trkpt lat="44.19982" lon="0.90577">
        <ele>93</ele>
        <time>2022-07-21T08:39:13.308Z</time>
      </trkpt>
      <trkpt lat="44.19983" lon="0.90578">
        <ele>93</ele>
        <time>2022-07-21T08:39:14.308Z</time>
      </trkpt>
      <trkpt lat="44.19984" lon="0.90579">
        <ele>93</ele>
        <time>2022-07-21T08:39:15.308Z</time>
      </trkpt>
      <trkpt lat="44.19985" lon="0.9058">
        <ele>93</ele>
        <time>2022-07-21T08:39:16.308Z</time>
      </trkpt>
      <trkpt lat="44.19986" lon="0.90581">
        <ele>93</ele>
        <time>2022-07-21T08:39:17.308Z</time>
      </trkpt>
      <trkpt lat="44.19987" lon="0.90582">
        <ele>93</ele>
        <time>2022-07-21T08:39:18.308Z</time>
      </trkpt>
      <trkpt lat="44.19988" lon="0.90583">
        <ele>92</ele>
        <time>2022-07-21T08:39:19.308Z</time>
      </trkpt>
      <trkpt lat="44.19989" lon="0.90584">
        <ele>92</ele>
        <time>2022-07-21T08:39:20.308Z</time>
      </trkpt>
      <trkpt lat="44.1999" lon="0.90585">
        <ele>92</ele>
        <time>2022-07-21T08:39:21.308Z</time>
      </trkpt>
      <trkpt lat="44.19991" lon="0.90587">
        <ele>92</ele>
        <time>2022-07-21T08:39:22.308Z</time>
      </trkpt>
      <trkpt lat="44.19992" lon="0.90588">
        <ele>93</ele>
        <time>2022-07-21T08:39:23.308Z</time>
      </trkpt>
      <trkpt lat="44.19993" lon="0.90589">
        <ele>93</ele>
        <time>2022-07-21T08:39:24.308Z</time>
      </trkpt>
      <trkpt lat="44.19993" lon="0.9059">
        <ele>92</ele>
        <time>2022-07-21T08:39:25.308Z</time>
      </trkpt>
      <trkpt lat="44.19994" lon="0.90591">
        <ele>92</ele>
        <time>2022-07-21T08:39:26.308Z</time>
      </trkpt>
      <trkpt lat="44.19995" lon="0.90592">
        <ele>93</ele>
        <time>2022-07-21T08:39:27.308Z</time>
      </trkpt>
      <trkpt lat="44.19996" lon="0.90593">
        <ele>92</ele>
        <time>2022-07-21T08:39:28.308Z</time>
      </trkpt>
      <trkpt lat="44.19997" lon="0.90594">
        <ele>92</ele>
        <time>2022-07-21T08:39:29.308Z</time>
      </trkpt>
      <trkpt lat="44.19998" lon="0.90595">
        <ele>92</ele>
        <time>2022-07-21T08:39:30.308Z</time>
      </trkpt>
      <trkpt lat="44.19999" lon="0.90596">
        <ele>92</ele>
        <time>2022-07-21T08:39:31.308Z</time>
      </trkpt>
      <trkpt lat="44.19999" lon="0.90597">
        <ele>92</ele>
        <time>2022-07-21T08:39:32.308Z</time>
      </trkpt>
      <trkpt lat="44.2" lon="0.90598">
        <ele>93</ele>
        <time>2022-07-21T08:39:33.308Z</time>
      </trkpt>
      <trkpt lat="44.20001" lon="0.90599">
        <ele>92</ele>
        <time>2022-07-21T08:39:34.308Z</time>
      </trkpt>
      <trkpt lat="44.20002" lon="0.906">
        <ele>92</ele>
        <time>2022-07-21T08:39:35.308Z</time>
      </trkpt>
      <trkpt lat="44.20004" lon="0.90601">
        <ele>92</ele>
        <time>2022-07-21T08:39:36.308Z</time>
      </trkpt>
      <trkpt lat="44.20004" lon="0.90603">
        <ele>93</ele>
        <time>2022-07-21T08:39:37.308Z</time>
      </trkpt>
      <trkpt lat="44.20005" lon="0.90604">
        <ele>92</ele>
        <time>2022-07-21T08:39:38.308Z</time>
      </trkpt>
      <trkpt lat="44.20006" lon="0.90605">
        <ele>92</ele>
        <time>2022-07-21T08:39:39.308Z</time>
      </trkpt>
      <trkpt lat="44.20007" lon="0.90606">
        <ele>94</ele>
        <time>2022-07-21T08:39:40.308Z</time>
      </trkpt>
      <trkpt lat="44.20008" lon="0.90607">
        <ele>94</ele>
        <time>2022-07-21T08:39:41.308Z</time>
      </trkpt>
      <trkpt lat="44.20009" lon="0.90608">
        <ele>94</ele>
        <time>2022-07-21T08:39:42.308Z</time>
      </trkpt>
      <trkpt lat="44.20009" lon="0.90609">
        <ele>94</ele>
        <time>2022-07-21T08:39:43.308Z</time>
      </trkpt>
      <trkpt lat="44.2001" lon="0.9061">
        <ele>95</ele>
        <time>2022-07-21T08:39:44.308Z</time>
      </trkpt>
      <trkpt lat="44.2001" lon="0.90611">
        <ele>95</ele>
        <time>2022-07-21T08:39:45.308Z</time>
      </trkpt>
      <trkpt lat="44.20011" lon="0.90613">
        <ele>96</ele>
        <time>2022-07-21T08:39:46.308Z</time>
      </trkpt>
      <trkpt lat="44.20011" lon="0.90614">
        <ele>96</ele>
        <time>2022-07-21T08:39:47.308Z</time>
      </trkpt>
      <trkpt lat="44.20012" lon="0.90615">
        <ele>96</ele>
        <time>2022-07-21T08:39:48.308Z</time>
      </trkpt>
      <trkpt lat="44.20012" lon="0.90616">
        <ele>95</ele>
        <time>2022-07-21T08:39:49.308Z</time>
      </trkpt>
      <trkpt lat="44.20013" lon="0.90618">
        <ele>96</ele>
        <time>2022-07-21T08:39:50.308Z</time>
      </trkpt>
      <trkpt lat="44.20013" lon="0.90619">
        <ele>95</ele>
        <time>2022-07-21T08:39:51.308Z</time>
      </trkpt>
      <trkpt lat="44.20014" lon="0.90621">
        <ele>96</ele>
        <time>2022-07-21T08:39:52.308Z</time>
      </trkpt>
      <trkpt lat="44.20015" lon="0.90622">
        <ele>96</ele>
        <time>2022-07-21T08:39:53.308Z</time>
      </trkpt>
      <trkpt lat="44.20016" lon="0.90624">
        <ele>96</ele>
        <time>2022-07-21T08:39:54.308Z</time>
      </trkpt>
      <trkpt lat="44.20017" lon="0.90625">
        <ele>96</ele>
        <time>2022-07-21T08:39:55.308Z</time>
      </trkpt>
      <trkpt lat="44.20018" lon="0.90626">
        <ele>96</ele>
        <time>2022-07-21T08:39:56.308Z</time>
      </trkpt>
      <trkpt lat="44.20018" lon="0.90627">
        <ele>96</ele>
        <time>2022-07-21T08:39:57.308Z</time>
      </trkpt>
      <trkpt lat="44.20019" lon="0.90628">
        <ele>97</ele>
        <time>2022-07-21T08:39:58.308Z</time>
      </trkpt>
      <trkpt lat="44.2002" lon="0.90629">
        <ele>97</ele>
        <time>2022-07-21T08:39:59.308Z</time>
      </trkpt>
      <trkpt lat="44.20021" lon="0.9063">
        <ele>97</ele>
        <time>2022-07-21T08:40:00.308Z</time>
      </trkpt>
      <trkpt lat="44.20021" lon="0.90632">
        <ele>97</ele>
        <time>2022-07-21T08:40:01.308Z</time>
      </trkpt>
      <trkpt lat="44.20022" lon="0.90633">
        <ele>97</ele>
        <time>2022-07-21T08:40:02.308Z</time>
      </trkpt>
      <trkpt lat="44.20023" lon="0.90634">
        <ele>97</ele>
        <time>2022-07-21T08:40:03.308Z</time>
      </trkpt>
      <trkpt lat="44.20024" lon="0.90635">
        <ele>98</ele>
        <time>2022-07-21T08:40:04.308Z</time>
      </trkpt>
      <trkpt lat="44.20025" lon="0.90637">
        <ele>97</ele>
        <time>2022-07-21T08:40:05.308Z</time>
      </trkpt>
      <trkpt lat="44.20025" lon="0.90638">
        <ele>97</ele>
        <time>2022-07-21T08:40:06.308Z</time>
      </trkpt>
      <trkpt lat="44.20026" lon="0.90639">
        <ele>97</ele>
        <time>2022-07-21T08:40:07.308Z</time>
      </trkpt>
      <trkpt lat="44.20027" lon="0.9064">
        <ele>97</ele>
        <time>2022-07-21T08:40:08.308Z</time>
      </trkpt>
      <trkpt lat="44.20028" lon="0.90641">
        <ele>97</ele>
        <time>2022-07-21T08:40:09.308Z</time>
      </trkpt>
      <trkpt lat="44.20029" lon="0.90642">
        <ele>97</ele>
        <time>2022-07-21T08:40:10.308Z</time>
      </trkpt>
      <trkpt lat="44.2003" lon="0.90644">
        <ele>97</ele>
        <time>2022-07-21T08:40:11.308Z</time>
      </trkpt>
      <trkpt lat="44.20031" lon="0.90645">
        <ele>97</ele>
        <time>2022-07-21T08:40:12.308Z</time>
      </trkpt>
      <trkpt lat="44.20032" lon="0.90646">
        <ele>97</ele>
        <time>2022-07-21T08:40:13.308Z</time>
      </trkpt>
      <trkpt lat="44.20032" lon="0.90647">
        <ele>97</ele>
        <time>2022-07-21T08:40:14.308Z</time>
      </trkpt>
      <trkpt lat="44.20033" lon="0.90648">
        <ele>96</ele>
        <time>2022-07-21T08:40:15.308Z</time>
      </trkpt>
      <trkpt lat="44.20034" lon="0.9065">
        <ele>96</ele>
        <time>2022-07-21T08:40:16.308Z</time>
      </trkpt>
      <trkpt lat="44.20034" lon="0.90651">
        <ele>95</ele>
        <time>2022-07-21T08:40:17.308Z</time>
      </trkpt>
      <trkpt lat="44.20035" lon="0.90652">
        <ele>95</ele>
        <time>2022-07-21T08:40:18.308Z</time>
      </trkpt>
      <trkpt lat="44.20036" lon="0.90654">
        <ele>95</ele>
        <time>2022-07-21T08:40:19.308Z</time>
      </trkpt>
      <trkpt lat="44.20037" lon="0.90655">
        <ele>95</ele>
        <time>2022-07-21T08:40:20.308Z</time>
      </trkpt>
      <trkpt lat="44.20038" lon="0.90656">
        <ele>95</ele>
        <time>2022-07-21T08:40:21.308Z</time>
      </trkpt>
      <trkpt lat="44.20039" lon="0.90657">
        <ele>95</ele>
        <time>2022-07-21T08:40:22.308Z</time>
      </trkpt>
      <trkpt lat="44.20039" lon="0.90659">
        <ele>95</ele>
        <time>2022-07-21T08:40:23.308Z</time>
      </trkpt>
      <trkpt lat="44.2004" lon="0.90659">
        <ele>96</ele>
        <time>2022-07-21T08:40:24.308Z</time>
      </trkpt>
      <trkpt lat="44.20041" lon="0.9066">
        <ele>96</ele>
        <time>2022-07-21T08:40:25.308Z</time>
      </trkpt>
      <trkpt lat="44.20042" lon="0.90661">
        <ele>96</ele>
        <time>2022-07-21T08:40:26.308Z</time>
      </trkpt>
      <trkpt lat="44.20042" lon="0.90662">
        <ele>96</ele>
        <time>2022-07-21T08:40:27.308Z</time>
      </trkpt>
      <trkpt lat="44.20043" lon="0.90663">
        <ele>97</ele>
        <time>2022-07-21T08:40:28.308Z</time>
      </trkpt>
      <trkpt lat="44.20044" lon="0.90664">
        <ele>97</ele>
        <time>2022-07-21T08:40:29.308Z</time>
      </trkpt>
      <trkpt lat="44.20045" lon="0.90665">
        <ele>98</ele>
        <time>2022-07-21T08:40:30.308Z</time>
      </trkpt>
      <trkpt lat="44.20045" lon="0.90666">
        <ele>98</ele>
        <time>2022-07-21T08:40:31.308Z</time>
      </trkpt>
      <trkpt lat="44.20046" lon="0.90667">
        <ele>98</ele>
        <time>2022-07-21T08:40:32.308Z</time>
      </trkpt>
      <trkpt lat="44.20047" lon="0.90668">
        <ele>97</ele>
        <time>2022-07-21T08:40:33.308Z</time>
      </trkpt>
      <trkpt lat="44.20048" lon="0.90669">
        <ele>98</ele>
        <time>2022-07-21T08:40:34.308Z</time>
      </trkpt>
      <trkpt lat="44.20048" lon="0.9067">
        <ele>98</ele>
        <time>2022-07-21T08:40:35.308Z</time>
      </trkpt>
      <trkpt lat="44.20049" lon="0.90671">
        <ele>98</ele>
        <time>2022-07-21T08:40:36.308Z</time>
      </trkpt>
      <trkpt lat="44.2005" lon="0.90672">
        <ele>98</ele>
        <time>2022-07-21T08:40:37.308Z</time>
      </trkpt>
      <trkpt lat="44.2005" lon="0.90673">
        <ele>98</ele>
        <time>2022-07-21T08:40:38.308Z</time>
      </trkpt>
      <trkpt lat="44.20051" lon="0.90675">
        <ele>97</ele>
        <time>2022-07-21T08:40:39.308Z</time>
      </trkpt>
      <trkpt lat="44.20052" lon="0.90676">
        <ele>97</ele>
        <time>2022-07-21T08:40:40.308Z</time>
      </trkpt>
      <trkpt lat="44.20052" lon="0.90677">
        <ele>98</ele>
        <time>2022-07-21T08:40:41.308Z</time>
      </trkpt>
      <trkpt lat="44.20053" lon="0.90679">
        <ele>98</ele>
        <time>2022-07-21T08:40:42.308Z</time>
      </trkpt>
      <trkpt lat="44.20054" lon="0.90681">
        <ele>97</ele>
        <time>2022-07-21T08:40:43.308Z</time>
      </trkpt>
      <trkpt lat="44.20055" lon="0.90682">
        <ele>97</ele>
        <time>2022-07-21T08:40:44.308Z</time>
      </trkpt>
      <trkpt lat="44.20056" lon="0.90684">
        <ele>98</ele>
        <time>2022-07-21T08:40:45.308Z</time>
      </trkpt>
      <trkpt lat="44.20057" lon="0.90685">
        <ele>97</ele>
        <time>2022-07-21T08:40:46.308Z</time>
      </trkpt>
      <trkpt lat="44.20058" lon="0.90686">
        <ele>97</ele>
        <time>2022-07-21T08:40:47.308Z</time>
      </trkpt>
      <trkpt lat="44.20058" lon="0.90688">
        <ele>98</ele>
        <time>2022-07-21T08:40:48.308Z</time>
      </trkpt>
      <trkpt lat="44.20059" lon="0.90689">
        <ele>97</ele>
        <time>2022-07-21T08:40:49.308Z</time>
      </trkpt>
      <trkpt lat="44.20059" lon="0.90691">
        <ele>97</ele>
        <time>2022-07-21T08:40:50.308Z</time>
      </trkpt>
      <trkpt lat="44.2006" lon="0.90692">
        <ele>97</ele>
        <time>2022-07-21T08:40:51.308Z</time>
      </trkpt>
      <trkpt lat="44.2006" lon="0.90694">
        <ele>98</ele>
        <time>2022-07-21T08:40:52.308Z</time>
      </trkpt>
      <trkpt lat="44.20061" lon="0.90695">
        <ele>98</ele>
        <time>2022-07-21T08:40:53.308Z</time>
      </trkpt>
      <trkpt lat="44.20062" lon="0.90696">
        <ele>97</ele>
        <time>2022-07-21T08:40:54.308Z</time>
      </trkpt>
      <trkpt lat="44.20062" lon="0.90698">
        <ele>97</ele>
        <time>2022-07-21T08:40:55.308Z</time>
      </trkpt>
      <trkpt lat="44.20063" lon="0.90699">
        <ele>97</ele>
        <time>2022-07-21T08:40:56.308Z</time>
      </trkpt>
      <trkpt lat="44.20063" lon="0.90701">
        <ele>98</ele>
        <time>2022-07-21T08:40:57.308Z</time>
      </trkpt>
      <trkpt lat="44.20064" lon="0.90702">
        <ele>98</ele>
        <time>2022-07-21T08:40:58.308Z</time>
      </trkpt>
      <trkpt lat="44.20064" lon="0.90704">
        <ele>98</ele>
        <time>2022-07-21T08:40:59.308Z</time>
      </trkpt>
      <trkpt lat="44.20065" lon="0.90705">
        <ele>99</ele>
        <time>2022-07-21T08:41:00.308Z</time>
      </trkpt>
      <trkpt lat="44.20065" lon="0.90706">
        <ele>99</ele>
        <time>2022-07-21T08:41:01.308Z</time>
      </trkpt>
      <trkpt lat="44.20066" lon="0.90707">
        <ele>98</ele>
        <time>2022-07-21T08:41:02.308Z</time>
      </trkpt>
      <trkpt lat="44.20066" lon="0.90709">
        <ele>98</ele>
        <time>2022-07-21T08:41:03.308Z</time>
      </trkpt>
      <trkpt lat="44.20067" lon="0.9071">
        <ele>98</ele>
        <time>2022-07-21T08:41:04.308Z</time>
      </trkpt>
      <trkpt lat="44.20067" lon="0.90712">
        <ele>97</ele>
        <time>2022-07-21T08:41:05.308Z</time>
      </trkpt>
      <trkpt lat="44.20068" lon="0.90713">
        <ele>98</ele>
        <time>2022-07-21T08:41:06.308Z</time>
      </trkpt>
      <trkpt lat="44.20068" lon="0.90715">
        <ele>98</ele>
        <time>2022-07-21T08:41:07.308Z</time>
      </trkpt>
      <trkpt lat="44.20069" lon="0.90716">
        <ele>97</ele>
        <time>2022-07-21T08:41:08.308Z</time>
      </trkpt>
      <trkpt lat="44.2007" lon="0.90718">
        <ele>98</ele>
        <time>2022-07-21T08:41:09.308Z</time>
      </trkpt>
      <trkpt lat="44.2007" lon="0.9072">
        <ele>98</ele>
        <time>2022-07-21T08:41:10.308Z</time>
      </trkpt>
      <trkpt lat="44.20071" lon="0.90722">
        <ele>98</ele>
        <time>2022-07-21T08:41:11.308Z</time>
      </trkpt>
      <trkpt lat="44.20071" lon="0.90724">
        <ele>98</ele>
        <time>2022-07-21T08:41:12.308Z</time>
      </trkpt>
      <trkpt lat="44.20072" lon="0.90725">
        <ele>97</ele>
        <time>2022-07-21T08:41:13.308Z</time>
      </trkpt>
      <trkpt lat="44.20072" lon="0.90727">
        <ele>97</ele>
        <time>2022-07-21T08:41:14.308Z</time>
      </trkpt>
      <trkpt lat="44.20073" lon="0.90728">
        <ele>97</ele>
        <time>2022-07-21T08:41:15.308Z</time>
      </trkpt>
      <trkpt lat="44.20073" lon="0.90729">
        <ele>97</ele>
        <time>2022-07-21T08:41:16.308Z</time>
      </trkpt>
      <trkpt lat="44.20074" lon="0.9073">
        <ele>97</ele>
        <time>2022-07-21T08:41:17.308Z</time>
      </trkpt>
      <trkpt lat="44.20074" lon="0.90732">
        <ele>97</ele>
        <time>2022-07-21T08:41:18.308Z</time>
      </trkpt>
      <trkpt lat="44.20075" lon="0.90734">
        <ele>98</ele>
        <time>2022-07-21T08:41:19.308Z</time>
      </trkpt>
      <trkpt lat="44.20076" lon="0.90735">
        <ele>99</ele>
        <time>2022-07-21T08:41:20.308Z</time>
      </trkpt>
      <trkpt lat="44.20076" lon="0.90737">
        <ele>98</ele>
        <time>2022-07-21T08:41:21.308Z</time>
      </trkpt>
      <trkpt lat="44.20077" lon="0.90738">
        <ele>98</ele>
        <time>2022-07-21T08:41:22.308Z</time>
      </trkpt>
      <trkpt lat="44.20077" lon="0.9074">
        <ele>98</ele>
        <time>2022-07-21T08:41:23.308Z</time>
      </trkpt>
      <trkpt lat="44.20078" lon="0.90741">
        <ele>97</ele>
        <time>2022-07-21T08:41:24.308Z</time>
      </trkpt>
      <trkpt lat="44.20079" lon="0.90743">
        <ele>97</ele>
        <time>2022-07-21T08:41:25.308Z</time>
      </trkpt>
      <trkpt lat="44.2008" lon="0.90744">
        <ele>97</ele>
        <time>2022-07-21T08:41:26.308Z</time>
      </trkpt>
      <trkpt lat="44.2008" lon="0.90746">
        <ele>97</ele>
        <time>2022-07-21T08:41:27.308Z</time>
      </trkpt>
      <trkpt lat="44.20081" lon="0.90747">
        <ele>98</ele>
        <time>2022-07-21T08:41:28.308Z</time>
      </trkpt>
      <trkpt lat="44.20082" lon="0.90748">
        <ele>97</ele>
        <time>2022-07-21T08:41:29.308Z</time>
      </trkpt>
      <trkpt lat="44.20083" lon="0.90749">
        <ele>97</ele>
        <time>2022-07-21T08:41:30.308Z</time>
      </trkpt>
      <trkpt lat="44.20083" lon="0.9075">
        <ele>97</ele>
        <time>2022-07-21T08:41:31.308Z</time>
      </trkpt>
      <trkpt lat="44.20084" lon="0.90752">
        <ele>97</ele>
        <time>2022-07-21T08:41:32.308Z</time>
      </trkpt>
      <trkpt lat="44.20085" lon="0.90753">
        <ele>97</ele>
        <time>2022-07-21T08:41:33.308Z</time>
      </trkpt>
      <trkpt lat="44.20086" lon="0.90754">
        <ele>97</ele>
        <time>2022-07-21T08:41:34.308Z</time>
      </trkpt>
      <trkpt lat="44.20087" lon="0.90755">
        <ele>97</ele>
        <time>2022-07-21T08:41:35.308Z</time>
      </trkpt>
      <trkpt lat="44.20087" lon="0.90756">
        <ele>97</ele>
        <time>2022-07-21T08:41:36.308Z</time>
      </trkpt>
      <trkpt lat="44.20088" lon="0.90757">
        <ele>96</ele>
        <time>2022-07-21T08:41:37.308Z</time>
      </trkpt>
      <trkpt lat="44.20088" lon="0.90758">
        <ele>97</ele>
        <time>2022-07-21T08:41:38.308Z</time>
      </trkpt>
      <trkpt lat="44.20089" lon="0.90759">
        <ele>96</ele>
        <time>2022-07-21T08:41:39.308Z</time>
      </trkpt>
      <trkpt lat="44.2009" lon="0.9076">
        <ele>97</ele>
        <time>2022-07-21T08:41:40.308Z</time>
      </trkpt>
      <trkpt lat="44.20091" lon="0.90761">
        <ele>97</ele>
        <time>2022-07-21T08:41:41.308Z</time>
      </trkpt>
      <trkpt lat="44.20092" lon="0.90761">
        <ele>97</ele>
        <time>2022-07-21T08:41:42.308Z</time>
      </trkpt>
      <trkpt lat="44.20093" lon="0.90762">
        <ele>97</ele>
        <time>2022-07-21T08:41:43.308Z</time>
      </trkpt>
      <trkpt lat="44.20094" lon="0.90762">
        <ele>97</ele>
        <time>2022-07-21T08:41:44.308Z</time>
      </trkpt>
      <trkpt lat="44.20095" lon="0.90762">
        <ele>97</ele>
        <time>2022-07-21T08:41:45.308Z</time>
      </trkpt>
      <trkpt lat="44.20096" lon="0.90762">
        <ele>97</ele>
        <time>2022-07-21T08:41:46.308Z</time>
      </trkpt>
      <trkpt lat="44.20097" lon="0.90763">
        <ele>97</ele>
        <time>2022-07-21T08:41:47.308Z</time>
      </trkpt>
      <trkpt lat="44.20098" lon="0.90763">
        <ele>97</ele>
        <time>2022-07-21T08:41:48.308Z</time>
      </trkpt>
      <trkpt lat="44.20099" lon="0.90763">
        <ele>97</ele>
        <time>2022-07-21T08:41:49.308Z</time>
      </trkpt>
      <trkpt lat="44.20101" lon="0.90763">
        <ele>98</ele>
        <time>2022-07-21T08:41:50.308Z</time>
      </trkpt>
      <trkpt lat="44.20102" lon="0.90762">
        <ele>98</ele>
        <time>2022-07-21T08:41:51.308Z</time>
      </trkpt>
      <trkpt lat="44.20103" lon="0.90762">
        <ele>97</ele>
        <time>2022-07-21T08:41:52.308Z</time>
      </trkpt>
      <trkpt lat="44.20104" lon="0.90761">
        <ele>97</ele>
        <time>2022-07-21T08:41:53.308Z</time>
      </trkpt>
      <trkpt lat="44.20106" lon="0.90761">
        <ele>98</ele>
        <time>2022-07-21T08:41:54.308Z</time>
      </trkpt>
      <trkpt lat="44.20107" lon="0.90761">
        <ele>97</ele>
        <time>2022-07-21T08:41:55.308Z</time>
      </trkpt>
      <trkpt lat="44.20108" lon="0.9076">
        <ele>97</ele>
        <time>2022-07-21T08:41:56.308Z</time>
      </trkpt>
      <trkpt lat="44.20109" lon="0.90759">
        <ele>98</ele>
        <time>2022-07-21T08:41:57.308Z</time>
      </trkpt>
      <trkpt lat="44.2011" lon="0.90758">
        <ele>97</ele>
        <time>2022-07-21T08:41:58.308Z</time>
      </trkpt>
      <trkpt lat="44.20111" lon="0.90758">
        <ele>97</ele>
        <time>2022-07-21T08:41:59.308Z</time>
      </trkpt>
      <trkpt lat="44.20112" lon="0.90757">
        <ele>97</ele>
        <time>2022-07-21T08:42:00.308Z</time>
      </trkpt>
      <trkpt lat="44.20113" lon="0.90756">
        <ele>97</ele>
        <time>2022-07-21T08:42:01.308Z</time>
      </trkpt>
      <trkpt lat="44.20114" lon="0.90756">
        <ele>97</ele>
        <time>2022-07-21T08:42:02.308Z</time>
      </trkpt>
      <trkpt lat="44.20115" lon="0.90755">
        <ele>97</ele>
        <time>2022-07-21T08:42:03.308Z</time>
      </trkpt>
      <trkpt lat="44.20116" lon="0.90754">
        <ele>97</ele>
        <time>2022-07-21T08:42:04.308Z</time>
      </trkpt>
      <trkpt lat="44.20117" lon="0.90754">
        <ele>97</ele>
        <time>2022-07-21T08:42:05.308Z</time>
      </trkpt>
      <trkpt lat="44.20118" lon="0.90754">
        <ele>96</ele>
        <time>2022-07-21T08:42:06.308Z</time>
      </trkpt>
      <trkpt lat="44.20119" lon="0.90753">
        <ele>95</ele>
        <time>2022-07-21T08:42:07.308Z</time>
      </trkpt>
      <trkpt lat="44.2012" lon="0.90752">
        <ele>96</ele>
        <time>2022-07-21T08:42:08.308Z</time>
      </trkpt>
      <trkpt lat="44.20121" lon="0.90752">
        <ele>96</ele>
        <time>2022-07-21T08:42:09.308Z</time>
      </trkpt>
      <trkpt lat="44.20122" lon="0.90751">
        <ele>96</ele>
        <time>2022-07-21T08:42:10.308Z</time>
      </trkpt>
      <trkpt lat="44.20123" lon="0.90751">
        <ele>96</ele>
        <time>2022-07-21T08:42:11.308Z</time>
      </trkpt>
      <trkpt lat="44.20124" lon="0.9075">
        <ele>96</ele>
        <time>2022-07-21T08:42:12.308Z</time>
      </trkpt>
      <trkpt lat="44.20125" lon="0.90749">
        <ele>96</ele>
        <time>2022-07-21T08:42:13.308Z</time>
      </trkpt>
      <trkpt lat="44.20126" lon="0.90749">
        <ele>96</ele>
        <time>2022-07-21T08:42:14.308Z</time>
      </trkpt>
      <trkpt lat="44.20127" lon="0.90748">
        <ele>96</ele>
        <time>2022-07-21T08:42:15.308Z</time>
      </trkpt>
      <trkpt lat="44.20128" lon="0.90748">
        <ele>97</ele>
        <time>2022-07-21T08:42:16.308Z</time>
      </trkpt>
      <trkpt lat="44.20129" lon="0.90747">
        <ele>97</ele>
        <time>2022-07-21T08:42:17.308Z</time>
      </trkpt>
      <trkpt lat="44.20131" lon="0.90746">
        <ele>97</ele>
        <time>2022-07-21T08:42:18.308Z</time>
      </trkpt>
      <trkpt lat="44.20131" lon="0.90746">
        <ele>97</ele>
        <time>2022-07-21T08:42:19.308Z</time>
      </trkpt>
      <trkpt lat="44.20132" lon="0.90745">
        <ele>97</ele>
        <time>2022-07-21T08:42:20.308Z</time>
      </trkpt>
      <trkpt lat="44.20133" lon="0.90744">
        <ele>97</ele>
        <time>2022-07-21T08:42:21.308Z</time>
      </trkpt>
      <trkpt lat="44.20134" lon="0.90744">
        <ele>97</ele>
        <time>2022-07-21T08:42:22.308Z</time>
      </trkpt>
      <trkpt lat="44.20136" lon="0.90744">
        <ele>97</ele>
        <time>2022-07-21T08:42:23.308Z</time>
      </trkpt>
      <trkpt lat="44.20136" lon="0.90743">
        <ele>97</ele>
        <time>2022-07-21T08:42:24.308Z</time>
      </trkpt>
      <trkpt lat="44.20137" lon="0.90742">
        <ele>97</ele>
        <time>2022-07-21T08:42:25.308Z</time>
      </trkpt>
      <trkpt lat="44.20139" lon="0.90742">
        <ele>97</ele>
        <time>2022-07-21T08:42:26.308Z</time>
      </trkpt>
      <trkpt lat="44.2014" lon="0.90742">
        <ele>97</ele>
        <time>2022-07-21T08:42:27.308Z</time>
      </trkpt>
      <trkpt lat="44.20141" lon="0.90741">
        <ele>97</ele>
        <time>2022-07-21T08:42:28.308Z</time>
      </trkpt>
      <trkpt lat="44.20142" lon="0.90741">
        <ele>97</ele>
        <time>2022-07-21T08:42:29.308Z</time>
      </trkpt>
      <trkpt lat="44.20143" lon="0.9074">
        <ele>98</ele>
        <time>2022-07-21T08:42:30.308Z</time>
      </trkpt>
      <trkpt lat="44.20144" lon="0.9074">
        <ele>98</ele>
        <time>2022-07-21T08:42:31.308Z</time>
      </trkpt>
      <trkpt lat="44.20145" lon="0.9074">
        <ele>98</ele>
        <time>2022-07-21T08:42:32.308Z</time>
      </trkpt>
      <trkpt lat="44.20146" lon="0.9074">
        <ele>98</ele>
        <time>2022-07-21T08:42:33.308Z</time>
      </trkpt>
      <trkpt lat="44.20147" lon="0.90739">
        <ele>98</ele>
        <time>2022-07-21T08:42:34.308Z</time>
      </trkpt>
      <trkpt lat="44.20148" lon="0.90739">
        <ele>98</ele>
        <time>2022-07-21T08:42:35.308Z</time>
      </trkpt>
      <trkpt lat="44.20149" lon="0.90739">
        <ele>99</ele>
        <time>2022-07-21T08:42:36.308Z</time>
      </trkpt>
      <trkpt lat="44.2015" lon="0.90738">
        <ele>99</ele>
        <time>2022-07-21T08:42:37.308Z</time>
      </trkpt>
      <trkpt lat="44.20151" lon="0.90738">
        <ele>99</ele>
        <time>2022-07-21T08:42:38.308Z</time>
      </trkpt>
      <trkpt lat="44.20152" lon="0.90738">
        <ele>99</ele>
        <time>2022-07-21T08:42:39.308Z</time>
      </trkpt>
      <trkpt lat="44.20153" lon="0.90738">
        <ele>99</ele>
        <time>2022-07-21T08:42:40.308Z</time>
      </trkpt>
      <trkpt lat="44.20154" lon="0.90739">
        <ele>99</ele>
        <time>2022-07-21T08:42:41.308Z</time>
      </trkpt>
      <trkpt lat="44.20155" lon="0.90739">
        <ele>99</ele>
        <time>2022-07-21T08:42:42.308Z</time>
      </trkpt>
      <trkpt lat="44.20156" lon="0.90739">
        <ele>100</ele>
        <time>2022-07-21T08:42:43.308Z</time>
      </trkpt>
      <trkpt lat="44.20157" lon="0.90739">
        <ele>100</ele>
        <time>2022-07-21T08:42:44.308Z</time>
      </trkpt>
      <trkpt lat="44.20158" lon="0.9074">
        <ele>100</ele>
        <time>2022-07-21T08:42:45.308Z</time>
      </trkpt>
      <trkpt lat="44.20159" lon="0.9074">
        <ele>100</ele>
        <time>2022-07-21T08:42:46.308Z</time>
      </trkpt>
      <trkpt lat="44.2016" lon="0.90741">
        <ele>101</ele>
        <time>2022-07-21T08:42:47.308Z</time>
      </trkpt>
      <trkpt lat="44.20162" lon="0.90742">
        <ele>100</ele>
        <time>2022-07-21T08:42:48.308Z</time>
      </trkpt>
      <trkpt lat="44.20163" lon="0.90742">
        <ele>101</ele>
        <time>2022-07-21T08:42:49.308Z</time>
      </trkpt>
      <trkpt lat="44.20164" lon="0.90743">
        <ele>101</ele>
        <time>2022-07-21T08:42:50.308Z</time>
      </trkpt>
      <trkpt lat="44.20165" lon="0.90743">
        <ele>101</ele>
        <time>2022-07-21T08:42:51.308Z</time>
      </trkpt>
      <trkpt lat="44.20166" lon="0.90744">
        <ele>101</ele>
        <time>2022-07-21T08:42:52.308Z</time>
      </trkpt>
      <trkpt lat="44.20167" lon="0.90744">
        <ele>102</ele>
        <time>2022-07-21T08:42:53.308Z</time>
      </trkpt>
      <trkpt lat="44.20168" lon="0.90744">
        <ele>102</ele>
        <time>2022-07-21T08:42:54.308Z</time>
      </trkpt>
      <trkpt lat="44.20169" lon="0.90745">
        <ele>103</ele>
        <time>2022-07-21T08:42:55.308Z</time>
      </trkpt>
      <trkpt lat="44.2017" lon="0.90745">
        <ele>102</ele>
        <time>2022-07-21T08:42:56.308Z</time>
      </trkpt>
      <trkpt lat="44.20171" lon="0.90746">
        <ele>103</ele>
        <time>2022-07-21T08:42:57.308Z</time>
      </trkpt>
      <trkpt lat="44.20172" lon="0.90746">
        <ele>103</ele>
        <time>2022-07-21T08:42:58.308Z</time>
      </trkpt>
      <trkpt lat="44.20173" lon="0.90747">
        <ele>103</ele>
        <time>2022-07-21T08:42:59.308Z</time>
      </trkpt>
      <trkpt lat="44.20174" lon="0.90748">
        <ele>104</ele>
        <time>2022-07-21T08:43:00.308Z</time>
      </trkpt>
      <trkpt lat="44.20175" lon="0.90748">
        <ele>103</ele>
        <time>2022-07-21T08:43:01.308Z</time>
      </trkpt>
      <trkpt lat="44.20176" lon="0.90749">
        <ele>103</ele>
        <time>2022-07-21T08:43:02.308Z</time>
      </trkpt>
      <trkpt lat="44.20177" lon="0.90749">
        <ele>103</ele>
        <time>2022-07-21T08:43:03.308Z</time>
      </trkpt>
      <trkpt lat="44.20178" lon="0.9075">
        <ele>104</ele>
        <time>2022-07-21T08:43:04.308Z</time>
      </trkpt>
      <trkpt lat="44.20178" lon="0.9075">
        <ele>103</ele>
        <time>2022-07-21T08:43:05.308Z</time>
      </trkpt>
      <trkpt lat="44.20179" lon="0.90751">
        <ele>103</ele>
        <time>2022-07-21T08:43:06.308Z</time>
      </trkpt>
      <trkpt lat="44.2018" lon="0.90752">
        <ele>104</ele>
        <time>2022-07-21T08:43:07.308Z</time>
      </trkpt>
      <trkpt lat="44.20181" lon="0.90753">
        <ele>104</ele>
        <time>2022-07-21T08:43:08.308Z</time>
      </trkpt>
      <trkpt lat="44.20182" lon="0.90753">
        <ele>104</ele>
        <time>2022-07-21T08:43:09.308Z</time>
      </trkpt>
      <trkpt lat="44.20183" lon="0.90754">
        <ele>104</ele>
        <time>2022-07-21T08:43:10.308Z</time>
      </trkpt>
      <trkpt lat="44.20183" lon="0.90755">
        <ele>103</ele>
        <time>2022-07-21T08:43:11.308Z</time>
      </trkpt>
      <trkpt lat="44.20184" lon="0.90755">
        <ele>103</ele>
        <time>2022-07-21T08:43:12.308Z</time>
      </trkpt>
      <trkpt lat="44.20185" lon="0.90756">
        <ele>103</ele>
        <time>2022-07-21T08:43:13.308Z</time>
      </trkpt>
      <trkpt lat="44.20186" lon="0.90756">
        <ele>103</ele>
        <time>2022-07-21T08:43:14.308Z</time>
      </trkpt>
      <trkpt lat="44.20187" lon="0.90757">
        <ele>103</ele>
        <time>2022-07-21T08:43:15.308Z</time>
      </trkpt>
      <trkpt lat="44.20188" lon="0.90758">
        <ele>103</ele>
        <time>2022-07-21T08:43:16.308Z</time>
      </trkpt>
      <trkpt lat="44.20189" lon="0.90758">
        <ele>102</ele>
        <time>2022-07-21T08:43:17.308Z</time>
      </trkpt>
      <trkpt lat="44.20189" lon="0.90759">
        <ele>102</ele>
        <time>2022-07-21T08:43:18.308Z</time>
      </trkpt>
      <trkpt lat="44.2019" lon="0.9076">
        <ele>102</ele>
        <time>2022-07-21T08:43:19.308Z</time>
      </trkpt>
      <trkpt lat="44.20191" lon="0.90761">
        <ele>102</ele>
        <time>2022-07-21T08:43:20.308Z</time>
      </trkpt>
      <trkpt lat="44.20192" lon="0.90761">
        <ele>101</ele>
        <time>2022-07-21T08:43:21.308Z</time>
      </trkpt>
      <trkpt lat="44.20193" lon="0.90762">
        <ele>101</ele>
        <time>2022-07-21T08:43:22.308Z</time>
      </trkpt>
      <trkpt lat="44.20193" lon="0.90763">
        <ele>101</ele>
        <time>2022-07-21T08:43:23.308Z</time>
      </trkpt>
      <trkpt lat="44.20194" lon="0.90763">
        <ele>101</ele>
        <time>2022-07-21T08:43:24.308Z</time>
      </trkpt>
      <trkpt lat="44.20195" lon="0.90764">
        <ele>101</ele>
        <time>2022-07-21T08:43:25.308Z</time>
      </trkpt>
      <trkpt lat="44.20196" lon="0.90765">
        <ele>101</ele>
        <time>2022-07-21T08:43:26.308Z</time>
      </trkpt>
      <trkpt lat="44.20197" lon="0.90765">
        <ele>101</ele>
        <time>2022-07-21T08:43:27.308Z</time>
      </trkpt>
      <trkpt lat="44.20198" lon="0.90766">
        <ele>102</ele>
        <time>2022-07-21T08:43:28.308Z</time>
      </trkpt>
      <trkpt lat="44.20199" lon="0.90767">
        <ele>102</ele>
        <time>2022-07-21T08:43:29.308Z</time>
      </trkpt>
      <trkpt lat="44.202" lon="0.90767">
        <ele>101</ele>
        <time>2022-07-21T08:43:30.308Z</time>
      </trkpt>
      <trkpt lat="44.20201" lon="0.90768">
        <ele>101</ele>
        <time>2022-07-21T08:43:31.308Z</time>
      </trkpt>
      <trkpt lat="44.20201" lon="0.90769">
        <ele>101</ele>
        <time>2022-07-21T08:43:32.308Z</time>
      </trkpt>
      <trkpt lat="44.20202" lon="0.9077">
        <ele>101</ele>
        <time>2022-07-21T08:43:33.308Z</time>
      </trkpt>
      <trkpt lat="44.20203" lon="0.90771">
        <ele>101</ele>
        <time>2022-07-21T08:43:34.308Z</time>
      </trkpt>
      <trkpt lat="44.20204" lon="0.90771">
        <ele>101</ele>
        <time>2022-07-21T08:43:35.308Z</time>
      </trkpt>
      <trkpt lat="44.20205" lon="0.90772">
        <ele>101</ele>
        <time>2022-07-21T08:43:36.308Z</time>
      </trkpt>
      <trkpt lat="44.20206" lon="0.90773">
        <ele>102</ele>
        <time>2022-07-21T08:43:37.308Z</time>
      </trkpt>
      <trkpt lat="44.20206" lon="0.90774">
        <ele>102</ele>
        <time>2022-07-21T08:43:38.308Z</time>
      </trkpt>
      <trkpt lat="44.20207" lon="0.90774">
        <ele>102</ele>
        <time>2022-07-21T08:43:39.308Z</time>
      </trkpt>
      <trkpt lat="44.20208" lon="0.90775">
        <ele>102</ele>
        <time>2022-07-21T08:43:40.308Z</time>
      </trkpt>
      <trkpt lat="44.20209" lon="0.90776">
        <ele>102</ele>
        <time>2022-07-21T08:43:41.308Z</time>
      </trkpt>
      <trkpt lat="44.20209" lon="0.90777">
        <ele>102</ele>
        <time>2022-07-21T08:43:42.308Z</time>
      </trkpt>
      <trkpt lat="44.2021" lon="0.90778">
        <ele>101</ele>
        <time>2022-07-21T08:43:43.308Z</time>
      </trkpt>
      <trkpt lat="44.20211" lon="0.90779">
        <ele>102</ele>
        <time>2022-07-21T08:43:44.308Z</time>
      </trkpt>
      <trkpt lat="44.20212" lon="0.9078">
        <ele>102</ele>
        <time>2022-07-21T08:43:45.308Z</time>
      </trkpt>
      <trkpt lat="44.20212" lon="0.9078">
        <ele>101</ele>
        <time>2022-07-21T08:43:46.308Z</time>
      </trkpt>
      <trkpt lat="44.20213" lon="0.90781">
        <ele>101</ele>
        <time>2022-07-21T08:43:47.308Z</time>
      </trkpt>
      <trkpt lat="44.20214" lon="0.90782">
        <ele>101</ele>
        <time>2022-07-21T08:43:48.308Z</time>
      </trkpt>
      <trkpt lat="44.20215" lon="0.90783">
        <ele>100</ele>
        <time>2022-07-21T08:43:49.308Z</time>
      </trkpt>
      <trkpt lat="44.20216" lon="0.90784">
        <ele>100</ele>
        <time>2022-07-21T08:43:50.308Z</time>
      </trkpt>
      <trkpt lat="44.20217" lon="0.90785">
        <ele>100</ele>
        <time>2022-07-21T08:43:51.308Z</time>
      </trkpt>
      <trkpt lat="44.20218" lon="0.90786">
        <ele>100</ele>
        <time>2022-07-21T08:43:52.308Z</time>
      </trkpt>
      <trkpt lat="44.20218" lon="0.90787">
        <ele>100</ele>
        <time>2022-07-21T08:43:53.308Z</time>
      </trkpt>
      <trkpt lat="44.20219" lon="0.90787">
        <ele>100</ele>
        <time>2022-07-21T08:43:54.308Z</time>
      </trkpt>
      <trkpt lat="44.20221" lon="0.90788">
        <ele>100</ele>
        <time>2022-07-21T08:43:55.308Z</time>
      </trkpt>
      <trkpt lat="44.20222" lon="0.90789">
        <ele>100</ele>
        <time>2022-07-21T08:43:56.308Z</time>
      </trkpt>
      <trkpt lat="44.20222" lon="0.9079">
        <ele>99</ele>
        <time>2022-07-21T08:43:57.308Z</time>
      </trkpt>
      <trkpt lat="44.20223" lon="0.9079">
        <ele>99</ele>
        <time>2022-07-21T08:43:58.308Z</time>
      </trkpt>
      <trkpt lat="44.20224" lon="0.90791">
        <ele>99</ele>
        <time>2022-07-21T08:43:59.308Z</time>
      </trkpt>
      <trkpt lat="44.20224" lon="0.90792">
        <ele>99</ele>
        <time>2022-07-21T08:44:00.308Z</time>
      </trkpt>
      <trkpt lat="44.20225" lon="0.90793">
        <ele>99</ele>
        <time>2022-07-21T08:44:01.308Z</time>
      </trkpt>
      <trkpt lat="44.20226" lon="0.90794">
        <ele>98</ele>
        <time>2022-07-21T08:44:02.308Z</time>
      </trkpt>
      <trkpt lat="44.20227" lon="0.90795">
        <ele>98</ele>
        <time>2022-07-21T08:44:03.308Z</time>
      </trkpt>
      <trkpt lat="44.20228" lon="0.90795">
        <ele>99</ele>
        <time>2022-07-21T08:44:04.308Z</time>
      </trkpt>
      <trkpt lat="44.20229" lon="0.90796">
        <ele>98</ele>
        <time>2022-07-21T08:44:05.308Z</time>
      </trkpt>
      <trkpt lat="44.2023" lon="0.90797">
        <ele>98</ele>
        <time>2022-07-21T08:44:06.308Z</time>
      </trkpt>
      <trkpt lat="44.2023" lon="0.90797">
        <ele>97</ele>
        <time>2022-07-21T08:44:07.308Z</time>
      </trkpt>
      <trkpt lat="44.20231" lon="0.90798">
        <ele>97</ele>
        <time>2022-07-21T08:44:08.308Z</time>
      </trkpt>
      <trkpt lat="44.20232" lon="0.90799">
        <ele>97</ele>
        <time>2022-07-21T08:44:09.308Z</time>
      </trkpt>
      <trkpt lat="44.20233" lon="0.90799">
        <ele>97</ele>
        <time>2022-07-21T08:44:10.308Z</time>
      </trkpt>
      <trkpt lat="44.20234" lon="0.908">
        <ele>97</ele>
        <time>2022-07-21T08:44:11.308Z</time>
      </trkpt>
      <trkpt lat="44.20235" lon="0.908">
        <ele>97</ele>
        <time>2022-07-21T08:44:12.308Z</time>
      </trkpt>
      <trkpt lat="44.20235" lon="0.90801">
        <ele>97</ele>
        <time>2022-07-21T08:44:13.308Z</time>
      </trkpt>
      <trkpt lat="44.20236" lon="0.90802">
        <ele>98</ele>
        <time>2022-07-21T08:44:14.308Z</time>
      </trkpt>
      <trkpt lat="44.20237" lon="0.90802">
        <ele>99</ele>
        <time>2022-07-21T08:44:15.308Z</time>
      </trkpt>
      <trkpt lat="44.20238" lon="0.90803">
        <ele>99</ele>
        <time>2022-07-21T08:44:16.308Z</time>
      </trkpt>
      <trkpt lat="44.20239" lon="0.90803">
        <ele>99</ele>
        <time>2022-07-21T08:44:17.308Z</time>
      </trkpt>
      <trkpt lat="44.2024" lon="0.90804">
        <ele>99</ele>
        <time>2022-07-21T08:44:18.308Z</time>
      </trkpt>
      <trkpt lat="44.20241" lon="0.90805">
        <ele>100</ele>
        <time>2022-07-21T08:44:19.308Z</time>
      </trkpt>
      <trkpt lat="44.20242" lon="0.90805">
        <ele>100</ele>
        <time>2022-07-21T08:44:20.308Z</time>
      </trkpt>
      <trkpt lat="44.20243" lon="0.90805">
        <ele>101</ele>
        <time>2022-07-21T08:44:21.308Z</time>
      </trkpt>
      <trkpt lat="44.20243" lon="0.90806">
        <ele>100</ele>
        <time>2022-07-21T08:44:22.308Z</time>
      </trkpt>
      <trkpt lat="44.20244" lon="0.90806">
        <ele>100</ele>
        <time>2022-07-21T08:44:23.308Z</time>
      </trkpt>
      <trkpt lat="44.20245" lon="0.90806">
        <ele>100</ele>
        <time>2022-07-21T08:44:24.308Z</time>
      </trkpt>
      <trkpt lat="44.20246" lon="0.90807">
        <ele>101</ele>
        <time>2022-07-21T08:44:25.308Z</time>
      </trkpt>
      <trkpt lat="44.20247" lon="0.90808">
        <ele>101</ele>
        <time>2022-07-21T08:44:26.308Z</time>
      </trkpt>
      <trkpt lat="44.20248" lon="0.90808">
        <ele>101</ele>
        <time>2022-07-21T08:44:27.308Z</time>
      </trkpt>
      <trkpt lat="44.20249" lon="0.90808">
        <ele>101</ele>
        <time>2022-07-21T08:44:28.308Z</time>
      </trkpt>
      <trkpt lat="44.2025" lon="0.90809">
        <ele>101</ele>
        <time>2022-07-21T08:44:29.308Z</time>
      </trkpt>
      <trkpt lat="44.20251" lon="0.90809">
        <ele>101</ele>
        <time>2022-07-21T08:44:30.308Z</time>
      </trkpt>
      <trkpt lat="44.20252" lon="0.9081">
        <ele>102</ele>
        <time>2022-07-21T08:44:31.308Z</time>
      </trkpt>
      <trkpt lat="44.20253" lon="0.90811">
        <ele>102</ele>
        <time>2022-07-21T08:44:32.308Z</time>
      </trkpt>
      <trkpt lat="44.20254" lon="0.90811">
        <ele>101</ele>
        <time>2022-07-21T08:44:33.308Z</time>
      </trkpt>
      <trkpt lat="44.20255" lon="0.90812">
        <ele>101</ele>
        <time>2022-07-21T08:44:34.308Z</time>
      </trkpt>
      <trkpt lat="44.20256" lon="0.90812">
        <ele>101</ele>
        <time>2022-07-21T08:44:35.308Z</time>
      </trkpt>
      <trkpt lat="44.20257" lon="0.90813">
        <ele>101</ele>
        <time>2022-07-21T08:44:36.308Z</time>
      </trkpt>
      <trkpt lat="44.20258" lon="0.90814">
        <ele>102</ele>
        <time>2022-07-21T08:44:37.308Z</time>
      </trkpt>
      <trkpt lat="44.2026" lon="0.90814">
        <ele>102</ele>
        <time>2022-07-21T08:44:38.308Z</time>
      </trkpt>
      <trkpt lat="44.20261" lon="0.90815">
        <ele>102</ele>
        <time>2022-07-21T08:44:39.308Z</time>
      </trkpt>
      <trkpt lat="44.20262" lon="0.90816">
        <ele>102</ele>
        <time>2022-07-21T08:44:40.308Z</time>
      </trkpt>
      <trkpt lat="44.20263" lon="0.90816">
        <ele>101</ele>
        <time>2022-07-21T08:44:41.308Z</time>
      </trkpt>
      <trkpt lat="44.20265" lon="0.90817">
        <ele>103</ele>
        <time>2022-07-21T08:44:42.308Z</time>
      </trkpt>
      <trkpt lat="44.20266" lon="0.90817">
        <ele>103</ele>
        <time>2022-07-21T08:44:43.308Z</time>
      </trkpt>
      <trkpt lat="44.20267" lon="0.90818">
        <ele>102</ele>
        <time>2022-07-21T08:44:44.308Z</time>
      </trkpt>
      <trkpt lat="44.20269" lon="0.90818">
        <ele>102</ele>
        <time>2022-07-21T08:44:45.308Z</time>
      </trkpt>
      <trkpt lat="44.2027" lon="0.90819">
        <ele>102</ele>
        <time>2022-07-21T08:44:46.308Z</time>
      </trkpt>
      <trkpt lat="44.20271" lon="0.90819">
        <ele>102</ele>
        <time>2022-07-21T08:44:47.308Z</time>
      </trkpt>
      <trkpt lat="44.20272" lon="0.90819">
        <ele>102</ele>
        <time>2022-07-21T08:44:48.308Z</time>
      </trkpt>
      <trkpt lat="44.20272" lon="0.9082">
        <ele>102</ele>
        <time>2022-07-21T08:44:49.308Z</time>
      </trkpt>
      <trkpt lat="44.20273" lon="0.9082">
        <ele>102</ele>
        <time>2022-07-21T08:44:50.308Z</time>
      </trkpt>
      <trkpt lat="44.20274" lon="0.9082">
        <ele>102</ele>
        <time>2022-07-21T08:44:51.308Z</time>
      </trkpt>
      <trkpt lat="44.20275" lon="0.90821">
        <ele>102</ele>
        <time>2022-07-21T08:44:52.308Z</time>
      </trkpt>
      <trkpt lat="44.20276" lon="0.90821">
        <ele>102</ele>
        <time>2022-07-21T08:44:53.308Z</time>
      </trkpt>
      <trkpt lat="44.20277" lon="0.90822">
        <ele>103</ele>
        <time>2022-07-21T08:44:54.308Z</time>
      </trkpt>
      <trkpt lat="44.20278" lon="0.90822">
        <ele>103</ele>
        <time>2022-07-21T08:44:55.308Z</time>
      </trkpt>
      <trkpt lat="44.20279" lon="0.90822">
        <ele>103</ele>
        <time>2022-07-21T08:44:56.308Z</time>
      </trkpt>
      <trkpt lat="44.2028" lon="0.90823">
        <ele>103</ele>
        <time>2022-07-21T08:44:57.308Z</time>
      </trkpt>
      <trkpt lat="44.20281" lon="0.90823">
        <ele>103</ele>
        <time>2022-07-21T08:44:58.308Z</time>
      </trkpt>
      <trkpt lat="44.20282" lon="0.90824">
        <ele>103</ele>
        <time>2022-07-21T08:44:59.308Z</time>
      </trkpt>
      <trkpt lat="44.20283" lon="0.90825">
        <ele>104</ele>
        <time>2022-07-21T08:45:00.308Z</time>
      </trkpt>
      <trkpt lat="44.20284" lon="0.90825">
        <ele>104</ele>
        <time>2022-07-21T08:45:01.308Z</time>
      </trkpt>
      <trkpt lat="44.20285" lon="0.90826">
        <ele>104</ele>
        <time>2022-07-21T08:45:02.308Z</time>
      </trkpt>
      <trkpt lat="44.20286" lon="0.90827">
        <ele>104</ele>
        <time>2022-07-21T08:45:03.308Z</time>
      </trkpt>
      <trkpt lat="44.20287" lon="0.90828">
        <ele>104</ele>
        <time>2022-07-21T08:45:04.308Z</time>
      </trkpt>
      <trkpt lat="44.20288" lon="0.90828">
        <ele>104</ele>
        <time>2022-07-21T08:45:05.308Z</time>
      </trkpt>
      <trkpt lat="44.20288" lon="0.90829">
        <ele>104</ele>
        <time>2022-07-21T08:45:06.308Z</time>
      </trkpt>
      <trkpt lat="44.20289" lon="0.9083">
        <ele>103</ele>
        <time>2022-07-21T08:45:07.308Z</time>
      </trkpt>
      <trkpt lat="44.2029" lon="0.90831">
        <ele>103</ele>
        <time>2022-07-21T08:45:08.308Z</time>
      </trkpt>
      <trkpt lat="44.20291" lon="0.90832">
        <ele>103</ele>
        <time>2022-07-21T08:45:09.308Z</time>
      </trkpt>
      <trkpt lat="44.20292" lon="0.90833">
        <ele>103</ele>
        <time>2022-07-21T08:45:10.308Z</time>
      </trkpt>
      <trkpt lat="44.20293" lon="0.90835">
        <ele>103</ele>
        <time>2022-07-21T08:45:11.308Z</time>
      </trkpt>
      <trkpt lat="44.20294" lon="0.90836">
        <ele>103</ele>
        <time>2022-07-21T08:45:12.308Z</time>
      </trkpt>
      <trkpt lat="44.20295" lon="0.90837">
        <ele>103</ele>
        <time>2022-07-21T08:45:13.308Z</time>
      </trkpt>
      <trkpt lat="44.20297" lon="0.90838">
        <ele>103</ele>
        <time>2022-07-21T08:45:14.308Z</time>
      </trkpt>
      <trkpt lat="44.20298" lon="0.90839">
        <ele>103</ele>
        <time>2022-07-21T08:45:15.308Z</time>
      </trkpt>
      <trkpt lat="44.20299" lon="0.90841">
        <ele>103</ele>
        <time>2022-07-21T08:45:16.308Z</time>
      </trkpt>
      <trkpt lat="44.203" lon="0.90842">
        <ele>103</ele>
        <time>2022-07-21T08:45:17.308Z</time>
      </trkpt>
      <trkpt lat="44.203" lon="0.90843">
        <ele>103</ele>
        <time>2022-07-21T08:45:18.308Z</time>
      </trkpt>
      <trkpt lat="44.20301" lon="0.90844">
        <ele>103</ele>
        <time>2022-07-21T08:45:19.308Z</time>
      </trkpt>
      <trkpt lat="44.20302" lon="0.90845">
        <ele>102</ele>
        <time>2022-07-21T08:45:20.308Z</time>
      </trkpt>
      <trkpt lat="44.20303" lon="0.90846">
        <ele>102</ele>
        <time>2022-07-21T08:45:21.308Z</time>
      </trkpt>
      <trkpt lat="44.20303" lon="0.90847">
        <ele>102</ele>
        <time>2022-07-21T08:45:22.308Z</time>
      </trkpt>
      <trkpt lat="44.20304" lon="0.90847">
        <ele>101</ele>
        <time>2022-07-21T08:45:23.308Z</time>
      </trkpt>
      <trkpt lat="44.20304" lon="0.90848">
        <ele>101</ele>
        <time>2022-07-21T08:45:24.308Z</time>
      </trkpt>
      <trkpt lat="44.20305" lon="0.90849">
        <ele>101</ele>
        <time>2022-07-21T08:45:25.308Z</time>
      </trkpt>
      <trkpt lat="44.20305" lon="0.9085">
        <ele>101</ele>
        <time>2022-07-21T08:45:26.308Z</time>
      </trkpt>
      <trkpt lat="44.20306" lon="0.90852">
        <ele>101</ele>
        <time>2022-07-21T08:45:27.308Z</time>
      </trkpt>
      <trkpt lat="44.20307" lon="0.90853">
        <ele>100</ele>
        <time>2022-07-21T08:45:28.308Z</time>
      </trkpt>
      <trkpt lat="44.20307" lon="0.90854">
        <ele>100</ele>
        <time>2022-07-21T08:45:29.308Z</time>
      </trkpt>
      <trkpt lat="44.20308" lon="0.90855">
        <ele>101</ele>
        <time>2022-07-21T08:45:30.308Z</time>
      </trkpt>
      <trkpt lat="44.20308" lon="0.90856">
        <ele>101</ele>
        <time>2022-07-21T08:45:31.308Z</time>
      </trkpt>
      <trkpt lat="44.20309" lon="0.90858">
        <ele>102</ele>
        <time>2022-07-21T08:45:32.308Z</time>
      </trkpt>
      <trkpt lat="44.2031" lon="0.90859">
        <ele>102</ele>
        <time>2022-07-21T08:45:33.308Z</time>
      </trkpt>
      <trkpt lat="44.20311" lon="0.9086">
        <ele>102</ele>
        <time>2022-07-21T08:45:34.308Z</time>
      </trkpt>
      <trkpt lat="44.20312" lon="0.90861">
        <ele>102</ele>
        <time>2022-07-21T08:45:35.308Z</time>
      </trkpt>
      <trkpt lat="44.20312" lon="0.90863">
        <ele>101</ele>
        <time>2022-07-21T08:45:36.308Z</time>
      </trkpt>
      <trkpt lat="44.20313" lon="0.90864">
        <ele>101</ele>
        <time>2022-07-21T08:45:37.308Z</time>
      </trkpt>
      <trkpt lat="44.20314" lon="0.90865">
        <ele>100</ele>
        <time>2022-07-21T08:45:38.308Z</time>
      </trkpt>
      <trkpt lat="44.20315" lon="0.90867">
        <ele>100</ele>
        <time>2022-07-21T08:45:39.308Z</time>
      </trkpt>
      <trkpt lat="44.20316" lon="0.90868">
        <ele>100</ele>
        <time>2022-07-21T08:45:40.308Z</time>
      </trkpt>
      <trkpt lat="44.20317" lon="0.90869">
        <ele>100</ele>
        <time>2022-07-21T08:45:41.308Z</time>
      </trkpt>
      <trkpt lat="44.20318" lon="0.9087">
        <ele>100</ele>
        <time>2022-07-21T08:45:42.308Z</time>
      </trkpt>
      <trkpt lat="44.20318" lon="0.9087">
        <ele>100</ele>
        <time>2022-07-21T08:45:43.308Z</time>
      </trkpt>
      <trkpt lat="44.20319" lon="0.90871">
        <ele>99</ele>
        <time>2022-07-21T08:45:44.308Z</time>
      </trkpt>
      <trkpt lat="44.2032" lon="0.90872">
        <ele>100</ele>
        <time>2022-07-21T08:45:45.308Z</time>
      </trkpt>
      <trkpt lat="44.20321" lon="0.90873">
        <ele>100</ele>
        <time>2022-07-21T08:45:46.308Z</time>
      </trkpt>
      <trkpt lat="44.20322" lon="0.90874">
        <ele>101</ele>
        <time>2022-07-21T08:45:47.308Z</time>
      </trkpt>
      <trkpt lat="44.20323" lon="0.90875">
        <ele>101</ele>
        <time>2022-07-21T08:45:48.308Z</time>
      </trkpt>
      <trkpt lat="44.20323" lon="0.90876">
        <ele>101</ele>
        <time>2022-07-21T08:45:49.308Z</time>
      </trkpt>
      <trkpt lat="44.20323" lon="0.90877">
        <ele>101</ele>
        <time>2022-07-21T08:45:50.308Z</time>
      </trkpt>
      <trkpt lat="44.20323" lon="0.90877">
        <ele>102</ele>
        <time>2022-07-21T08:45:51.308Z</time>
      </trkpt>
      <trkpt lat="44.20323" lon="0.90878">
        <ele>101</ele>
        <time>2022-07-21T08:45:52.308Z</time>
      </trkpt>
      <trkpt lat="44.20323" lon="0.90878">
        <ele>101</ele>
        <time>2022-07-21T08:45:53.308Z</time>
      </trkpt>
      <trkpt lat="44.20324" lon="0.90879">
        <ele>101</ele>
        <time>2022-07-21T08:45:54.308Z</time>
      </trkpt>
      <trkpt lat="44.20324" lon="0.9088">
        <ele>101</ele>
        <time>2022-07-21T08:45:55.308Z</time>
      </trkpt>
      <trkpt lat="44.20325" lon="0.90881">
        <ele>100</ele>
        <time>2022-07-21T08:45:56.308Z</time>
      </trkpt>
      <trkpt lat="44.20326" lon="0.90882">
        <ele>100</ele>
        <time>2022-07-21T08:45:57.308Z</time>
      </trkpt>
      <trkpt lat="44.20327" lon="0.90883">
        <ele>100</ele>
        <time>2022-07-21T08:45:58.308Z</time>
      </trkpt>
      <trkpt lat="44.20328" lon="0.90884">
        <ele>100</ele>
        <time>2022-07-21T08:45:59.308Z</time>
      </trkpt>
      <trkpt lat="44.20328" lon="0.90885">
        <ele>99</ele>
        <time>2022-07-21T08:46:00.308Z</time>
      </trkpt>
      <trkpt lat="44.20329" lon="0.90886">
        <ele>99</ele>
        <time>2022-07-21T08:46:01.308Z</time>
      </trkpt>
      <trkpt lat="44.20329" lon="0.90887">
        <ele>99</ele>
        <time>2022-07-21T08:46:02.308Z</time>
      </trkpt>
      <trkpt lat="44.2033" lon="0.90888">
        <ele>98</ele>
        <time>2022-07-21T08:46:03.308Z</time>
      </trkpt>
      <trkpt lat="44.2033" lon="0.90889">
        <ele>98</ele>
        <time>2022-07-21T08:46:04.308Z</time>
      </trkpt>
      <trkpt lat="44.20331" lon="0.90891">
        <ele>98</ele>
        <time>2022-07-21T08:46:05.308Z</time>
      </trkpt>
      <trkpt lat="44.20332" lon="0.90892">
        <ele>97</ele>
        <time>2022-07-21T08:46:06.308Z</time>
      </trkpt>
      <trkpt lat="44.20332" lon="0.90893">
        <ele>97</ele>
        <time>2022-07-21T08:46:07.308Z</time>
      </trkpt>
      <trkpt lat="44.20333" lon="0.90894">
        <ele>97</ele>
        <time>2022-07-21T08:46:08.308Z</time>
      </trkpt>
      <trkpt lat="44.20333" lon="0.90895">
        <ele>97</ele>
        <time>2022-07-21T08:46:09.308Z</time>
      </trkpt>
      <trkpt lat="44.20334" lon="0.90896">
        <ele>98</ele>
        <time>2022-07-21T08:46:10.308Z</time>
      </trkpt>
      <trkpt lat="44.20335" lon="0.90897">
        <ele>97</ele>
        <time>2022-07-21T08:46:11.308Z</time>
      </trkpt>
      <trkpt lat="44.20335" lon="0.90898">
        <ele>97</ele>
        <time>2022-07-21T08:46:12.308Z</time>
      </trkpt>
      <trkpt lat="44.20336" lon="0.90899">
        <ele>96</ele>
        <time>2022-07-21T08:46:13.308Z</time>
      </trkpt>
      <trkpt lat="44.20336" lon="0.90899">
        <ele>96</ele>
        <time>2022-07-21T08:46:14.308Z</time>
      </trkpt>
      <trkpt lat="44.20336" lon="0.909">
        <ele>96</ele>
        <time>2022-07-21T08:46:15.308Z</time>
      </trkpt>
      <trkpt lat="44.20336" lon="0.90901">
        <ele>96</ele>
        <time>2022-07-21T08:46:16.308Z</time>
      </trkpt>
      <trkpt lat="44.20335" lon="0.90902">
        <ele>97</ele>
        <time>2022-07-21T08:46:17.308Z</time>
      </trkpt>
      <trkpt lat="44.20334" lon="0.90902">
        <ele>96</ele>
        <time>2022-07-21T08:46:18.308Z</time>
      </trkpt>
      <trkpt lat="44.20334" lon="0.90902">
        <ele>97</ele>
        <time>2022-07-21T08:46:19.308Z</time>
      </trkpt>
      <trkpt lat="44.20334" lon="0.90902">
        <ele>97</ele>
        <time>2022-07-21T08:46:20.308Z</time>
      </trkpt>
      <trkpt lat="44.20334" lon="0.90902">
        <ele>98</ele>
        <time>2022-07-21T08:46:21.308Z</time>
      </trkpt>
      <trkpt lat="44.20334" lon="0.90902">
        <ele>98</ele>
        <time>2022-07-21T08:46:22.308Z</time>
      </trkpt>
      <trkpt lat="44.20334" lon="0.90902">
        <ele>99</ele>
        <time>2022-07-21T08:46:23.308Z</time>
      </trkpt>
      <trkpt lat="44.20333" lon="0.90901">
        <ele>107</ele>
        <time>2022-07-21T08:47:16.309Z</time>
      </trkpt>
      <trkpt lat="44.20332" lon="0.90901">
        <ele>107</ele>
        <time>2022-07-21T08:47:17.309Z</time>
      </trkpt>
      <trkpt lat="44.20332" lon="0.909">
        <ele>107</ele>
        <time>2022-07-21T08:47:18.309Z</time>
      </trkpt>
      <trkpt lat="44.20331" lon="0.90899">
        <ele>107</ele>
        <time>2022-07-21T08:47:19.309Z</time>
      </trkpt>
      <trkpt lat="44.2033" lon="0.90899">
        <ele>107</ele>
        <time>2022-07-21T08:47:20.309Z</time>
      </trkpt>
      <trkpt lat="44.2033" lon="0.90898">
        <ele>108</ele>
        <time>2022-07-21T08:47:21.309Z</time>
      </trkpt>
      <trkpt lat="44.20329" lon="0.90897">
        <ele>108</ele>
        <time>2022-07-21T08:47:22.309Z</time>
      </trkpt>
      <trkpt lat="44.20329" lon="0.90896">
        <ele>109</ele>
        <time>2022-07-21T08:47:23.309Z</time>
      </trkpt>
      <trkpt lat="44.20328" lon="0.90895">
        <ele>108</ele>
        <time>2022-07-21T08:47:24.309Z</time>
      </trkpt>
      <trkpt lat="44.20328" lon="0.90895">
        <ele>109</ele>
        <time>2022-07-21T08:47:25.309Z</time>
      </trkpt>
      <trkpt lat="44.20328" lon="0.90895">
        <ele>109</ele>
        <time>2022-07-21T08:47:26.309Z</time>
      </trkpt>
      <trkpt lat="44.20328" lon="0.90895">
        <ele>109</ele>
        <time>2022-07-21T08:47:27.309Z</time>
      </trkpt>
      <trkpt lat="44.20328" lon="0.90895">
        <ele>108</ele>
        <time>2022-07-21T08:47:28.309Z</time>
      </trkpt>
      <trkpt lat="44.20328" lon="0.90895">
        <ele>108</ele>
        <time>2022-07-21T08:47:29.309Z</time>
      </trkpt>
      <trkpt lat="44.20328" lon="0.90895">
        <ele>108</ele>
        <time>2022-07-21T08:47:30.309Z</time>
      </trkpt>
      <trkpt lat="44.20327" lon="0.90895">
        <ele>109</ele>
        <time>2022-07-21T08:47:31.309Z</time>
      </trkpt>
      <trkpt lat="44.20324" lon="0.90893">
        <ele>111</ele>
        <time>2022-07-21T08:47:40.325Z</time>
      </trkpt>
      <trkpt lat="44.20324" lon="0.90892">
        <ele>111</ele>
        <time>2022-07-21T08:47:41.325Z</time>
      </trkpt>
      <trkpt lat="44.20323" lon="0.90892">
        <ele>111</ele>
        <time>2022-07-21T08:47:42.325Z</time>
      </trkpt>
      <trkpt lat="44.20323" lon="0.90892">
        <ele>112</ele>
        <time>2022-07-21T08:47:43.325Z</time>
      </trkpt>
      <trkpt lat="44.20323" lon="0.90892">
        <ele>112</ele>
        <time>2022-07-21T08:47:44.325Z</time>
      </trkpt>
      <trkpt lat="44.20321" lon="0.90891">
        <ele>112</ele>
        <time>2022-07-21T08:48:00.337Z</time>
      </trkpt>
      <trkpt lat="44.2032" lon="0.90891">
        <ele>112</ele>
        <time>2022-07-21T08:48:01.337Z</time>
      </trkpt>
      <trkpt lat="44.2032" lon="0.9089">
        <ele>112</ele>
        <time>2022-07-21T08:48:02.337Z</time>
      </trkpt>
      <trkpt lat="44.2032" lon="0.9089">
        <ele>111</ele>
        <time>2022-07-21T08:48:03.337Z</time>
      </trkpt>
      <trkpt lat="44.2032" lon="0.90889">
        <ele>111</ele>
        <time>2022-07-21T08:48:04.337Z</time>
      </trkpt>
      <trkpt lat="44.2032" lon="0.90889">
        <ele>112</ele>
        <time>2022-07-21T08:48:05.337Z</time>
      </trkpt>
      <trkpt lat="44.2032" lon="0.90889">
        <ele>112</ele>
        <time>2022-07-21T08:48:06.337Z</time>
      </trkpt>
      <trkpt lat="44.2032" lon="0.90889">
        <ele>112</ele>
        <time>2022-07-21T08:48:07.337Z</time>
      </trkpt>
      <trkpt lat="44.2032" lon="0.90889">
        <ele>112</ele>
        <time>2022-07-21T08:48:08.337Z</time>
      </trkpt>
      <trkpt lat="44.20323" lon="0.90885">
        <ele>108</ele>
        <time>2022-07-21T08:49:47.356Z</time>
      </trkpt>
      <trkpt lat="44.20325" lon="0.90886">
        <ele>108</ele>
        <time>2022-07-21T08:49:48.356Z</time>
      </trkpt>
      <trkpt lat="44.20326" lon="0.90886">
        <ele>108</ele>
        <time>2022-07-21T08:49:49.356Z</time>
      </trkpt>
      <trkpt lat="44.20327" lon="0.90887">
        <ele>108</ele>
        <time>2022-07-21T08:49:50.356Z</time>
      </trkpt>
      <trkpt lat="44.20328" lon="0.90887">
        <ele>108</ele>
        <time>2022-07-21T08:49:51.356Z</time>
      </trkpt>
      <trkpt lat="44.20329" lon="0.90887">
        <ele>108</ele>
        <time>2022-07-21T08:49:52.356Z</time>
      </trkpt>
      <trkpt lat="44.2033" lon="0.90888">
        <ele>107</ele>
        <time>2022-07-21T08:49:53.356Z</time>
      </trkpt>
      <trkpt lat="44.20331" lon="0.90888">
        <ele>107</ele>
        <time>2022-07-21T08:49:54.356Z</time>
      </trkpt>
      <trkpt lat="44.20332" lon="0.90888">
        <ele>107</ele>
        <time>2022-07-21T08:49:55.356Z</time>
      </trkpt>
      <trkpt lat="44.20333" lon="0.90888">
        <ele>107</ele>
        <time>2022-07-21T08:49:56.356Z</time>
      </trkpt>
      <trkpt lat="44.20334" lon="0.90889">
        <ele>107</ele>
        <time>2022-07-21T08:49:57.356Z</time>
      </trkpt>
      <trkpt lat="44.20335" lon="0.90889">
        <ele>107</ele>
        <time>2022-07-21T08:49:58.356Z</time>
      </trkpt>
      <trkpt lat="44.20336" lon="0.9089">
        <ele>106</ele>
        <time>2022-07-21T08:49:59.356Z</time>
      </trkpt>
      <trkpt lat="44.20337" lon="0.90891">
        <ele>106</ele>
        <time>2022-07-21T08:50:00.356Z</time>
      </trkpt>
      <trkpt lat="44.20339" lon="0.90892">
        <ele>106</ele>
        <time>2022-07-21T08:50:01.356Z</time>
      </trkpt>
      <trkpt lat="44.2034" lon="0.90892">
        <ele>106</ele>
        <time>2022-07-21T08:50:02.356Z</time>
      </trkpt>
      <trkpt lat="44.20341" lon="0.90892">
        <ele>106</ele>
        <time>2022-07-21T08:50:03.356Z</time>
      </trkpt>
      <trkpt lat="44.20343" lon="0.90893">
        <ele>107</ele>
        <time>2022-07-21T08:50:04.356Z</time>
      </trkpt>
      <trkpt lat="44.20344" lon="0.90893">
        <ele>106</ele>
        <time>2022-07-21T08:50:05.356Z</time>
      </trkpt>
      <trkpt lat="44.20345" lon="0.90893">
        <ele>106</ele>
        <time>2022-07-21T08:50:06.356Z</time>
      </trkpt>
      <trkpt lat="44.20346" lon="0.90894">
        <ele>106</ele>
        <time>2022-07-21T08:50:07.356Z</time>
      </trkpt>
      <trkpt lat="44.20348" lon="0.90894">
        <ele>106</ele>
        <time>2022-07-21T08:50:08.356Z</time>
      </trkpt>
      <trkpt lat="44.20349" lon="0.90894">
        <ele>107</ele>
        <time>2022-07-21T08:50:09.356Z</time>
      </trkpt>
      <trkpt lat="44.2035" lon="0.90895">
        <ele>106</ele>
        <time>2022-07-21T08:50:10.356Z</time>
      </trkpt>
      <trkpt lat="44.20351" lon="0.90895">
        <ele>106</ele>
        <time>2022-07-21T08:50:11.356Z</time>
      </trkpt>
      <trkpt lat="44.20352" lon="0.90896">
        <ele>107</ele>
        <time>2022-07-21T08:50:12.356Z</time>
      </trkpt>
      <trkpt lat="44.20353" lon="0.90896">
        <ele>107</ele>
        <time>2022-07-21T08:50:13.356Z</time>
      </trkpt>
      <trkpt lat="44.20354" lon="0.90897">
        <ele>107</ele>
        <time>2022-07-21T08:50:14.356Z</time>
      </trkpt>
      <trkpt lat="44.20355" lon="0.90897">
        <ele>107</ele>
        <time>2022-07-21T08:50:15.356Z</time>
      </trkpt>
      <trkpt lat="44.20356" lon="0.90898">
        <ele>108</ele>
        <time>2022-07-21T08:50:16.356Z</time>
      </trkpt>
      <trkpt lat="44.20357" lon="0.90898">
        <ele>108</ele>
        <time>2022-07-21T08:50:17.356Z</time>
      </trkpt>
      <trkpt lat="44.20359" lon="0.90899">
        <ele>107</ele>
        <time>2022-07-21T08:50:18.356Z</time>
      </trkpt>
      <trkpt lat="44.2036" lon="0.90899">
        <ele>108</ele>
        <time>2022-07-21T08:50:19.356Z</time>
      </trkpt>
      <trkpt lat="44.20361" lon="0.90899">
        <ele>108</ele>
        <time>2022-07-21T08:50:20.356Z</time>
      </trkpt>
      <trkpt lat="44.20362" lon="0.909">
        <ele>108</ele>
        <time>2022-07-21T08:50:21.356Z</time>
      </trkpt>
      <trkpt lat="44.20363" lon="0.909">
        <ele>109</ele>
        <time>2022-07-21T08:50:22.356Z</time>
      </trkpt>
      <trkpt lat="44.20364" lon="0.90901">
        <ele>108</ele>
        <time>2022-07-21T08:50:23.356Z</time>
      </trkpt>
      <trkpt lat="44.20364" lon="0.90901">
        <ele>108</ele>
        <time>2022-07-21T08:50:24.356Z</time>
      </trkpt>
      <trkpt lat="44.20365" lon="0.90902">
        <ele>107</ele>
        <time>2022-07-21T08:50:25.356Z</time>
      </trkpt>
      <trkpt lat="44.20366" lon="0.90903">
        <ele>106</ele>
        <time>2022-07-21T08:50:26.356Z</time>
      </trkpt>
      <trkpt lat="44.20367" lon="0.90905">
        <ele>106</ele>
        <time>2022-07-21T08:50:27.356Z</time>
      </trkpt>
      <trkpt lat="44.20367" lon="0.90906">
        <ele>106</ele>
        <time>2022-07-21T08:50:28.356Z</time>
      </trkpt>
      <trkpt lat="44.20368" lon="0.90908">
        <ele>106</ele>
        <time>2022-07-21T08:50:29.356Z</time>
      </trkpt>
      <trkpt lat="44.20368" lon="0.90909">
        <ele>105</ele>
        <time>2022-07-21T08:50:30.356Z</time>
      </trkpt>
      <trkpt lat="44.20369" lon="0.90911">
        <ele>105</ele>
        <time>2022-07-21T08:50:31.356Z</time>
      </trkpt>
      <trkpt lat="44.20369" lon="0.90912">
        <ele>105</ele>
        <time>2022-07-21T08:50:32.356Z</time>
      </trkpt>
      <trkpt lat="44.20369" lon="0.90913">
        <ele>105</ele>
        <time>2022-07-21T08:50:33.356Z</time>
      </trkpt>
      <trkpt lat="44.20369" lon="0.90914">
        <ele>105</ele>
        <time>2022-07-21T08:50:34.356Z</time>
      </trkpt>
      <trkpt lat="44.20369" lon="0.90914">
        <ele>105</ele>
        <time>2022-07-21T08:50:35.356Z</time>
      </trkpt>
      <trkpt lat="44.20369" lon="0.90914">
        <ele>105</ele>
        <time>2022-07-21T08:50:36.356Z</time>
      </trkpt>
      <trkpt lat="44.2037" lon="0.90914">
        <ele>105</ele>
        <time>2022-07-21T08:50:37.356Z</time>
      </trkpt>
      <trkpt lat="44.2037" lon="0.90914">
        <ele>105</ele>
        <time>2022-07-21T08:50:38.356Z</time>
      </trkpt>
      <trkpt lat="44.2037" lon="0.90914">
        <ele>105</ele>
        <time>2022-07-21T08:50:39.356Z</time>
      </trkpt>
      <trkpt lat="44.2037" lon="0.90914">
        <ele>105</ele>
        <time>2022-07-21T08:50:40.356Z</time>
      </trkpt>
      <trkpt lat="44.20371" lon="0.90918">
        <ele>107</ele>
        <time>2022-07-21T08:51:02.375Z</time>
      </trkpt>
      <trkpt lat="44.20372" lon="0.90918">
        <ele>107</ele>
        <time>2022-07-21T08:51:03.375Z</time>
      </trkpt>
      <trkpt lat="44.20373" lon="0.90917">
        <ele>107</ele>
        <time>2022-07-21T08:51:04.375Z</time>
      </trkpt>
      <trkpt lat="44.20374" lon="0.90917">
        <ele>107</ele>
        <time>2022-07-21T08:51:05.375Z</time>
      </trkpt>
      <trkpt lat="44.20375" lon="0.90916">
        <ele>107</ele>
        <time>2022-07-21T08:51:06.375Z</time>
      </trkpt>
      <trkpt lat="44.20376" lon="0.90916">
        <ele>107</ele>
        <time>2022-07-21T08:51:07.375Z</time>
      </trkpt>
      <trkpt lat="44.20377" lon="0.90916">
        <ele>107</ele>
        <time>2022-07-21T08:51:08.375Z</time>
      </trkpt>
      <trkpt lat="44.20378" lon="0.90916">
        <ele>107</ele>
        <time>2022-07-21T08:51:09.375Z</time>
      </trkpt>
      <trkpt lat="44.20379" lon="0.90916">
        <ele>107</ele>
        <time>2022-07-21T08:51:10.375Z</time>
      </trkpt>
      <trkpt lat="44.2038" lon="0.90916">
        <ele>107</ele>
        <time>2022-07-21T08:51:11.375Z</time>
      </trkpt>
      <trkpt lat="44.20381" lon="0.90916">
        <ele>107</ele>
        <time>2022-07-21T08:51:12.375Z</time>
      </trkpt>
      <trkpt lat="44.20382" lon="0.90917">
        <ele>107</ele>
        <time>2022-07-21T08:51:13.375Z</time>
      </trkpt>
      <trkpt lat="44.20383" lon="0.90917">
        <ele>107</ele>
        <time>2022-07-21T08:51:14.375Z</time>
      </trkpt>
      <trkpt lat="44.20384" lon="0.90917">
        <ele>106</ele>
        <time>2022-07-21T08:51:15.375Z</time>
      </trkpt>
      <trkpt lat="44.20385" lon="0.90918">
        <ele>106</ele>
        <time>2022-07-21T08:51:16.375Z</time>
      </trkpt>
      <trkpt lat="44.20386" lon="0.90918">
        <ele>107</ele>
        <time>2022-07-21T08:51:17.375Z</time>
      </trkpt>
      <trkpt lat="44.20387" lon="0.90918">
        <ele>107</ele>
        <time>2022-07-21T08:51:18.375Z</time>
      </trkpt>
      <trkpt lat="44.20388" lon="0.90919">
        <ele>107</ele>
        <time>2022-07-21T08:51:19.375Z</time>
      </trkpt>
      <trkpt lat="44.20389" lon="0.90919">
        <ele>107</ele>
        <time>2022-07-21T08:51:20.375Z</time>
      </trkpt>
      <trkpt lat="44.20389" lon="0.90919">
        <ele>106</ele>
        <time>2022-07-21T08:51:21.375Z</time>
      </trkpt>
      <trkpt lat="44.2039" lon="0.9092">
        <ele>106</ele>
        <time>2022-07-21T08:51:22.375Z</time>
      </trkpt>
      <trkpt lat="44.20391" lon="0.9092">
        <ele>106</ele>
        <time>2022-07-21T08:51:23.375Z</time>
      </trkpt>
      <trkpt lat="44.20392" lon="0.90921">
        <ele>107</ele>
        <time>2022-07-21T08:51:24.375Z</time>
      </trkpt>
      <trkpt lat="44.20393" lon="0.90922">
        <ele>108</ele>
        <time>2022-07-21T08:51:25.375Z</time>
      </trkpt>
      <trkpt lat="44.20394" lon="0.90923">
        <ele>108</ele>
        <time>2022-07-21T08:51:26.375Z</time>
      </trkpt>
      <trkpt lat="44.20395" lon="0.90923">
        <ele>109</ele>
        <time>2022-07-21T08:51:27.375Z</time>
      </trkpt>
      <trkpt lat="44.20396" lon="0.90924">
        <ele>108</ele>
        <time>2022-07-21T08:51:28.375Z</time>
      </trkpt>
      <trkpt lat="44.20397" lon="0.90924">
        <ele>109</ele>
        <time>2022-07-21T08:51:29.375Z</time>
      </trkpt>
      <trkpt lat="44.20398" lon="0.90924">
        <ele>109</ele>
        <time>2022-07-21T08:51:30.375Z</time>
      </trkpt>
      <trkpt lat="44.20399" lon="0.90925">
        <ele>109</ele>
        <time>2022-07-21T08:51:31.375Z</time>
      </trkpt>
      <trkpt lat="44.204" lon="0.90925">
        <ele>109</ele>
        <time>2022-07-21T08:51:32.375Z</time>
      </trkpt>
      <trkpt lat="44.20401" lon="0.90925">
        <ele>109</ele>
        <time>2022-07-21T08:51:33.375Z</time>
      </trkpt>
      <trkpt lat="44.20402" lon="0.90926">
        <ele>108</ele>
        <time>2022-07-21T08:51:34.375Z</time>
      </trkpt>
      <trkpt lat="44.20403" lon="0.90926">
        <ele>108</ele>
        <time>2022-07-21T08:51:35.375Z</time>
      </trkpt>
      <trkpt lat="44.20404" lon="0.90927">
        <ele>108</ele>
        <time>2022-07-21T08:51:36.375Z</time>
      </trkpt>
      <trkpt lat="44.20405" lon="0.90927">
        <ele>108</ele>
        <time>2022-07-21T08:51:37.375Z</time>
      </trkpt>
      <trkpt lat="44.20405" lon="0.90927">
        <ele>107</ele>
        <time>2022-07-21T08:51:38.375Z</time>
      </trkpt>
      <trkpt lat="44.20406" lon="0.90927">
        <ele>107</ele>
        <time>2022-07-21T08:51:39.375Z</time>
      </trkpt>
      <trkpt lat="44.20407" lon="0.90927">
        <ele>107</ele>
        <time>2022-07-21T08:51:40.375Z</time>
      </trkpt>
      <trkpt lat="44.20408" lon="0.90927">
        <ele>106</ele>
        <time>2022-07-21T08:51:41.375Z</time>
      </trkpt>
      <trkpt lat="44.20409" lon="0.90927">
        <ele>106</ele>
        <time>2022-07-21T08:51:42.375Z</time>
      </trkpt>
      <trkpt lat="44.2041" lon="0.90927">
        <ele>106</ele>
        <time>2022-07-21T08:51:43.375Z</time>
      </trkpt>
      <trkpt lat="44.20411" lon="0.90927">
        <ele>105</ele>
        <time>2022-07-21T08:51:44.375Z</time>
      </trkpt>
      <trkpt lat="44.20412" lon="0.90927">
        <ele>105</ele>
        <time>2022-07-21T08:51:45.375Z</time>
      </trkpt>
      <trkpt lat="44.20413" lon="0.90927">
        <ele>105</ele>
        <time>2022-07-21T08:51:46.375Z</time>
      </trkpt>
      <trkpt lat="44.20413" lon="0.90927">
        <ele>104</ele>
        <time>2022-07-21T08:51:47.375Z</time>
      </trkpt>
      <trkpt lat="44.20414" lon="0.90927">
        <ele>104</ele>
        <time>2022-07-21T08:51:48.375Z</time>
      </trkpt>
      <trkpt lat="44.20415" lon="0.90927">
        <ele>103</ele>
        <time>2022-07-21T08:51:49.375Z</time>
      </trkpt>
      <trkpt lat="44.20416" lon="0.90927">
        <ele>104</ele>
        <time>2022-07-21T08:51:50.375Z</time>
      </trkpt>
      <trkpt lat="44.20417" lon="0.90927">
        <ele>104</ele>
        <time>2022-07-21T08:51:51.375Z</time>
      </trkpt>
      <trkpt lat="44.20418" lon="0.90927">
        <ele>104</ele>
        <time>2022-07-21T08:51:52.375Z</time>
      </trkpt>
      <trkpt lat="44.20419" lon="0.90927">
        <ele>104</ele>
        <time>2022-07-21T08:51:53.375Z</time>
      </trkpt>
      <trkpt lat="44.2042" lon="0.90927">
        <ele>104</ele>
        <time>2022-07-21T08:51:54.375Z</time>
      </trkpt>
      <trkpt lat="44.20421" lon="0.90926">
        <ele>103</ele>
        <time>2022-07-21T08:51:55.375Z</time>
      </trkpt>
      <trkpt lat="44.20422" lon="0.90926">
        <ele>103</ele>
        <time>2022-07-21T08:51:56.375Z</time>
      </trkpt>
      <trkpt lat="44.20423" lon="0.90926">
        <ele>103</ele>
        <time>2022-07-21T08:51:57.375Z</time>
      </trkpt>
      <trkpt lat="44.20425" lon="0.90926">
        <ele>104</ele>
        <time>2022-07-21T08:51:58.375Z</time>
      </trkpt>
      <trkpt lat="44.20425" lon="0.90926">
        <ele>104</ele>
        <time>2022-07-21T08:51:59.375Z</time>
      </trkpt>
      <trkpt lat="44.20427" lon="0.90925">
        <ele>104</ele>
        <time>2022-07-21T08:52:00.375Z</time>
      </trkpt>
      <trkpt lat="44.20428" lon="0.90925">
        <ele>105</ele>
        <time>2022-07-21T08:52:01.375Z</time>
      </trkpt>
      <trkpt lat="44.20429" lon="0.90925">
        <ele>105</ele>
        <time>2022-07-21T08:52:02.375Z</time>
      </trkpt>
      <trkpt lat="44.2043" lon="0.90925">
        <ele>106</ele>
        <time>2022-07-21T08:52:03.375Z</time>
      </trkpt>
      <trkpt lat="44.20431" lon="0.90925">
        <ele>106</ele>
        <time>2022-07-21T08:52:04.375Z</time>
      </trkpt>
      <trkpt lat="44.20432" lon="0.90926">
        <ele>106</ele>
        <time>2022-07-21T08:52:05.375Z</time>
      </trkpt>
      <trkpt lat="44.20433" lon="0.90926">
        <ele>107</ele>
        <time>2022-07-21T08:52:06.375Z</time>
      </trkpt>
      <trkpt lat="44.20434" lon="0.90926">
        <ele>108</ele>
        <time>2022-07-21T08:52:07.375Z</time>
      </trkpt>
      <trkpt lat="44.20435" lon="0.90927">
        <ele>108</ele>
        <time>2022-07-21T08:52:08.375Z</time>
      </trkpt>
      <trkpt lat="44.20436" lon="0.90927">
        <ele>107</ele>
        <time>2022-07-21T08:52:09.375Z</time>
      </trkpt>
      <trkpt lat="44.20437" lon="0.90927">
        <ele>108</ele>
        <time>2022-07-21T08:52:10.375Z</time>
      </trkpt>
      <trkpt lat="44.20438" lon="0.90927">
        <ele>108</ele>
        <time>2022-07-21T08:52:11.375Z</time>
      </trkpt>
      <trkpt lat="44.20439" lon="0.90928">
        <ele>108</ele>
        <time>2022-07-21T08:52:12.375Z</time>
      </trkpt>
      <trkpt lat="44.2044" lon="0.90929">
        <ele>107</ele>
        <time>2022-07-21T08:52:13.375Z</time>
      </trkpt>
      <trkpt lat="44.20441" lon="0.9093">
        <ele>106</ele>
        <time>2022-07-21T08:52:14.375Z</time>
      </trkpt>
      <trkpt lat="44.20443" lon="0.90931">
        <ele>104</ele>
        <time>2022-07-21T08:52:15.375Z</time>
      </trkpt>
      <trkpt lat="44.20445" lon="0.90932">
        <ele>105</ele>
        <time>2022-07-21T08:52:16.375Z</time>
      </trkpt>
      <trkpt lat="44.20446" lon="0.90933">
        <ele>105</ele>
        <time>2022-07-21T08:52:17.375Z</time>
      </trkpt>
      <trkpt lat="44.20447" lon="0.90934">
        <ele>104</ele>
        <time>2022-07-21T08:52:18.375Z</time>
      </trkpt>
      <trkpt lat="44.20448" lon="0.90935">
        <ele>104</ele>
        <time>2022-07-21T08:52:19.375Z</time>
      </trkpt>
      <trkpt lat="44.20449" lon="0.90935">
        <ele>104</ele>
        <time>2022-07-21T08:52:20.375Z</time>
      </trkpt>
      <trkpt lat="44.2045" lon="0.90936">
        <ele>104</ele>
        <time>2022-07-21T08:52:21.375Z</time>
      </trkpt>
      <trkpt lat="44.20451" lon="0.90936">
        <ele>103</ele>
        <time>2022-07-21T08:52:22.375Z</time>
      </trkpt>
      <trkpt lat="44.20452" lon="0.90937">
        <ele>104</ele>
        <time>2022-07-21T08:52:23.375Z</time>
      </trkpt>
      <trkpt lat="44.20453" lon="0.90937">
        <ele>104</ele>
        <time>2022-07-21T08:52:24.375Z</time>
      </trkpt>
      <trkpt lat="44.20454" lon="0.90938">
        <ele>105</ele>
        <time>2022-07-21T08:52:25.375Z</time>
      </trkpt>
      <trkpt lat="44.20455" lon="0.90938">
        <ele>105</ele>
        <time>2022-07-21T08:52:26.375Z</time>
      </trkpt>
      <trkpt lat="44.20456" lon="0.90939">
        <ele>105</ele>
        <time>2022-07-21T08:52:27.375Z</time>
      </trkpt>
      <trkpt lat="44.20457" lon="0.90939">
        <ele>104</ele>
        <time>2022-07-21T08:52:28.375Z</time>
      </trkpt>
      <trkpt lat="44.20458" lon="0.9094">
        <ele>104</ele>
        <time>2022-07-21T08:52:29.375Z</time>
      </trkpt>
      <trkpt lat="44.20459" lon="0.90941">
        <ele>104</ele>
        <time>2022-07-21T08:52:30.375Z</time>
      </trkpt>
      <trkpt lat="44.2046" lon="0.90942">
        <ele>104</ele>
        <time>2022-07-21T08:52:31.375Z</time>
      </trkpt>
      <trkpt lat="44.20461" lon="0.90943">
        <ele>104</ele>
        <time>2022-07-21T08:52:32.375Z</time>
      </trkpt>
      <trkpt lat="44.20462" lon="0.90944">
        <ele>105</ele>
        <time>2022-07-21T08:52:33.375Z</time>
      </trkpt>
      <trkpt lat="44.20463" lon="0.90945">
        <ele>105</ele>
        <time>2022-07-21T08:52:34.375Z</time>
      </trkpt>
      <trkpt lat="44.20464" lon="0.90946">
        <ele>105</ele>
        <time>2022-07-21T08:52:35.375Z</time>
      </trkpt>
      <trkpt lat="44.20465" lon="0.90946">
        <ele>106</ele>
        <time>2022-07-21T08:52:36.375Z</time>
      </trkpt>
      <trkpt lat="44.20466" lon="0.90947">
        <ele>107</ele>
        <time>2022-07-21T08:52:37.375Z</time>
      </trkpt>
      <trkpt lat="44.20467" lon="0.90948">
        <ele>106</ele>
        <time>2022-07-21T08:52:38.375Z</time>
      </trkpt>
      <trkpt lat="44.20468" lon="0.90949">
        <ele>107</ele>
        <time>2022-07-21T08:52:39.375Z</time>
      </trkpt>
      <trkpt lat="44.20469" lon="0.9095">
        <ele>106</ele>
        <time>2022-07-21T08:52:40.375Z</time>
      </trkpt>
      <trkpt lat="44.2047" lon="0.9095">
        <ele>106</ele>
        <time>2022-07-21T08:52:41.375Z</time>
      </trkpt>
      <trkpt lat="44.20472" lon="0.90951">
        <ele>106</ele>
        <time>2022-07-21T08:52:42.375Z</time>
      </trkpt>
      <trkpt lat="44.20473" lon="0.90952">
        <ele>106</ele>
        <time>2022-07-21T08:52:43.375Z</time>
      </trkpt>
      <trkpt lat="44.20474" lon="0.90953">
        <ele>106</ele>
        <time>2022-07-21T08:52:44.375Z</time>
      </trkpt>
      <trkpt lat="44.20475" lon="0.90954">
        <ele>105</ele>
        <time>2022-07-21T08:52:45.375Z</time>
      </trkpt>
      <trkpt lat="44.20476" lon="0.90955">
        <ele>106</ele>
        <time>2022-07-21T08:52:46.375Z</time>
      </trkpt>
      <trkpt lat="44.20477" lon="0.90956">
        <ele>105</ele>
        <time>2022-07-21T08:52:47.375Z</time>
      </trkpt>
      <trkpt lat="44.20478" lon="0.90957">
        <ele>105</ele>
        <time>2022-07-21T08:52:48.375Z</time>
      </trkpt>
      <trkpt lat="44.20479" lon="0.90958">
        <ele>105</ele>
        <time>2022-07-21T08:52:49.375Z</time>
      </trkpt>
      <trkpt lat="44.2048" lon="0.90959">
        <ele>105</ele>
        <time>2022-07-21T08:52:50.375Z</time>
      </trkpt>
      <trkpt lat="44.20481" lon="0.9096">
        <ele>104</ele>
        <time>2022-07-21T08:52:51.375Z</time>
      </trkpt>
      <trkpt lat="44.20482" lon="0.90961">
        <ele>104</ele>
        <time>2022-07-21T08:52:52.375Z</time>
      </trkpt>
      <trkpt lat="44.20483" lon="0.90962">
        <ele>104</ele>
        <time>2022-07-21T08:52:53.375Z</time>
      </trkpt>
      <trkpt lat="44.20483" lon="0.90962">
        <ele>105</ele>
        <time>2022-07-21T08:52:54.375Z</time>
      </trkpt>
      <trkpt lat="44.20484" lon="0.90963">
        <ele>105</ele>
        <time>2022-07-21T08:52:55.375Z</time>
      </trkpt>
      <trkpt lat="44.20485" lon="0.90964">
        <ele>105</ele>
        <time>2022-07-21T08:52:56.375Z</time>
      </trkpt>
      <trkpt lat="44.20485" lon="0.90965">
        <ele>105</ele>
        <time>2022-07-21T08:52:57.375Z</time>
      </trkpt>
      <trkpt lat="44.20487" lon="0.90966">
        <ele>105</ele>
        <time>2022-07-21T08:52:58.375Z</time>
      </trkpt>
      <trkpt lat="44.20488" lon="0.90966">
        <ele>105</ele>
        <time>2022-07-21T08:52:59.375Z</time>
      </trkpt>
      <trkpt lat="44.20489" lon="0.90967">
        <ele>105</ele>
        <time>2022-07-21T08:53:00.375Z</time>
      </trkpt>
      <trkpt lat="44.20489" lon="0.90968">
        <ele>105</ele>
        <time>2022-07-21T08:53:01.375Z</time>
      </trkpt>
      <trkpt lat="44.2049" lon="0.90969">
        <ele>104</ele>
        <time>2022-07-21T08:53:02.375Z</time>
      </trkpt>
      <trkpt lat="44.20491" lon="0.9097">
        <ele>104</ele>
        <time>2022-07-21T08:53:03.375Z</time>
      </trkpt>
      <trkpt lat="44.20491" lon="0.90971">
        <ele>104</ele>
        <time>2022-07-21T08:53:04.375Z</time>
      </trkpt>
      <trkpt lat="44.20492" lon="0.90972">
        <ele>103</ele>
        <time>2022-07-21T08:53:05.375Z</time>
      </trkpt>
      <trkpt lat="44.20493" lon="0.90972">
        <ele>104</ele>
        <time>2022-07-21T08:53:06.375Z</time>
      </trkpt>
      <trkpt lat="44.20494" lon="0.90973">
        <ele>104</ele>
        <time>2022-07-21T08:53:07.375Z</time>
      </trkpt>
      <trkpt lat="44.20495" lon="0.90973">
        <ele>105</ele>
        <time>2022-07-21T08:53:08.375Z</time>
      </trkpt>
      <trkpt lat="44.20495" lon="0.90974">
        <ele>105</ele>
        <time>2022-07-21T08:53:09.375Z</time>
      </trkpt>
      <trkpt lat="44.20496" lon="0.90975">
        <ele>105</ele>
        <time>2022-07-21T08:53:10.375Z</time>
      </trkpt>
      <trkpt lat="44.20497" lon="0.90975">
        <ele>104</ele>
        <time>2022-07-21T08:53:11.375Z</time>
      </trkpt>
      <trkpt lat="44.20498" lon="0.90976">
        <ele>104</ele>
        <time>2022-07-21T08:53:12.375Z</time>
      </trkpt>
      <trkpt lat="44.20499" lon="0.90977">
        <ele>103</ele>
        <time>2022-07-21T08:53:13.375Z</time>
      </trkpt>
      <trkpt lat="44.205" lon="0.90978">
        <ele>102</ele>
        <time>2022-07-21T08:53:14.375Z</time>
      </trkpt>
      <trkpt lat="44.205" lon="0.90978">
        <ele>102</ele>
        <time>2022-07-21T08:53:15.375Z</time>
      </trkpt>
      <trkpt lat="44.20501" lon="0.90979">
        <ele>102</ele>
        <time>2022-07-21T08:53:16.375Z</time>
      </trkpt>
      <trkpt lat="44.20502" lon="0.9098">
        <ele>102</ele>
        <time>2022-07-21T08:53:17.375Z</time>
      </trkpt>
      <trkpt lat="44.20503" lon="0.90981">
        <ele>102</ele>
        <time>2022-07-21T08:53:18.375Z</time>
      </trkpt>
      <trkpt lat="44.20504" lon="0.90981">
        <ele>103</ele>
        <time>2022-07-21T08:53:19.375Z</time>
      </trkpt>
      <trkpt lat="44.20505" lon="0.90982">
        <ele>103</ele>
        <time>2022-07-21T08:53:20.375Z</time>
      </trkpt>
      <trkpt lat="44.20506" lon="0.90982">
        <ele>103</ele>
        <time>2022-07-21T08:53:21.375Z</time>
      </trkpt>
      <trkpt lat="44.20507" lon="0.90983">
        <ele>103</ele>
        <time>2022-07-21T08:53:22.375Z</time>
      </trkpt>
      <trkpt lat="44.20509" lon="0.90984">
        <ele>104</ele>
        <time>2022-07-21T08:53:23.375Z</time>
      </trkpt>
      <trkpt lat="44.2051" lon="0.90984">
        <ele>104</ele>
        <time>2022-07-21T08:53:24.375Z</time>
      </trkpt>
      <trkpt lat="44.20511" lon="0.90985">
        <ele>104</ele>
        <time>2022-07-21T08:53:25.375Z</time>
      </trkpt>
      <trkpt lat="44.20512" lon="0.90985">
        <ele>105</ele>
        <time>2022-07-21T08:53:26.375Z</time>
      </trkpt>
      <trkpt lat="44.20513" lon="0.90986">
        <ele>105</ele>
        <time>2022-07-21T08:53:27.375Z</time>
      </trkpt>
      <trkpt lat="44.20514" lon="0.90987">
        <ele>105</ele>
        <time>2022-07-21T08:53:28.375Z</time>
      </trkpt>
      <trkpt lat="44.20515" lon="0.90987">
        <ele>106</ele>
        <time>2022-07-21T08:53:29.375Z</time>
      </trkpt>
      <trkpt lat="44.20516" lon="0.90988">
        <ele>105</ele>
        <time>2022-07-21T08:53:30.375Z</time>
      </trkpt>
      <trkpt lat="44.20517" lon="0.90988">
        <ele>105</ele>
        <time>2022-07-21T08:53:31.375Z</time>
      </trkpt>
      <trkpt lat="44.20518" lon="0.90989">
        <ele>105</ele>
        <time>2022-07-21T08:53:32.375Z</time>
      </trkpt>
      <trkpt lat="44.2052" lon="0.9099">
        <ele>105</ele>
        <time>2022-07-21T08:53:33.375Z</time>
      </trkpt>
      <trkpt lat="44.20521" lon="0.9099">
        <ele>106</ele>
        <time>2022-07-21T08:53:34.375Z</time>
      </trkpt>
      <trkpt lat="44.20522" lon="0.90991">
        <ele>107</ele>
        <time>2022-07-21T08:53:35.375Z</time>
      </trkpt>
      <trkpt lat="44.20523" lon="0.90991">
        <ele>107</ele>
        <time>2022-07-21T08:53:36.375Z</time>
      </trkpt>
      <trkpt lat="44.20524" lon="0.90992">
        <ele>107</ele>
        <time>2022-07-21T08:53:37.375Z</time>
      </trkpt>
      <trkpt lat="44.20526" lon="0.90992">
        <ele>107</ele>
        <time>2022-07-21T08:53:38.375Z</time>
      </trkpt>
      <trkpt lat="44.20527" lon="0.90993">
        <ele>108</ele>
        <time>2022-07-21T08:53:39.375Z</time>
      </trkpt>
      <trkpt lat="44.20528" lon="0.90993">
        <ele>108</ele>
        <time>2022-07-21T08:53:40.375Z</time>
      </trkpt>
      <trkpt lat="44.20529" lon="0.90994">
        <ele>108</ele>
        <time>2022-07-21T08:53:41.375Z</time>
      </trkpt>
      <trkpt lat="44.2053" lon="0.90994">
        <ele>109</ele>
        <time>2022-07-21T08:53:42.375Z</time>
      </trkpt>
      <trkpt lat="44.20531" lon="0.90994">
        <ele>109</ele>
        <time>2022-07-21T08:53:43.375Z</time>
      </trkpt>
      <trkpt lat="44.20533" lon="0.90995">
        <ele>110</ele>
        <time>2022-07-21T08:53:44.375Z</time>
      </trkpt>
      <trkpt lat="44.20534" lon="0.90995">
        <ele>110</ele>
        <time>2022-07-21T08:53:45.375Z</time>
      </trkpt>
      <trkpt lat="44.20535" lon="0.90995">
        <ele>110</ele>
        <time>2022-07-21T08:53:46.375Z</time>
      </trkpt>
      <trkpt lat="44.20536" lon="0.90995">
        <ele>110</ele>
        <time>2022-07-21T08:53:47.375Z</time>
      </trkpt>
      <trkpt lat="44.20537" lon="0.90995">
        <ele>111</ele>
        <time>2022-07-21T08:53:48.375Z</time>
      </trkpt>
      <trkpt lat="44.20539" lon="0.90995">
        <ele>111</ele>
        <time>2022-07-21T08:53:49.375Z</time>
      </trkpt>
      <trkpt lat="44.2054" lon="0.90996">
        <ele>111</ele>
        <time>2022-07-21T08:53:50.375Z</time>
      </trkpt>
      <trkpt lat="44.20541" lon="0.90996">
        <ele>111</ele>
        <time>2022-07-21T08:53:51.375Z</time>
      </trkpt>
      <trkpt lat="44.20542" lon="0.90996">
        <ele>111</ele>
        <time>2022-07-21T08:53:52.375Z</time>
      </trkpt>
      <trkpt lat="44.20543" lon="0.90996">
        <ele>111</ele>
        <time>2022-07-21T08:53:53.375Z</time>
      </trkpt>
      <trkpt lat="44.20544" lon="0.90996">
        <ele>110</ele>
        <time>2022-07-21T08:53:54.375Z</time>
      </trkpt>
      <trkpt lat="44.20545" lon="0.90996">
        <ele>110</ele>
        <time>2022-07-21T08:53:55.375Z</time>
      </trkpt>
      <trkpt lat="44.20546" lon="0.90996">
        <ele>111</ele>
        <time>2022-07-21T08:53:56.375Z</time>
      </trkpt>
      <trkpt lat="44.20547" lon="0.90996">
        <ele>110</ele>
        <time>2022-07-21T08:53:57.375Z</time>
      </trkpt>
      <trkpt lat="44.20548" lon="0.90996">
        <ele>111</ele>
        <time>2022-07-21T08:53:58.375Z</time>
      </trkpt>
      <trkpt lat="44.20549" lon="0.90997">
        <ele>111</ele>
        <time>2022-07-21T08:53:59.375Z</time>
      </trkpt>
      <trkpt lat="44.2055" lon="0.90997">
        <ele>110</ele>
        <time>2022-07-21T08:54:00.375Z</time>
      </trkpt>
      <trkpt lat="44.2055" lon="0.90997">
        <ele>110</ele>
        <time>2022-07-21T08:54:01.375Z</time>
      </trkpt>
      <trkpt lat="44.20551" lon="0.90997">
        <ele>110</ele>
        <time>2022-07-21T08:54:02.375Z</time>
      </trkpt>
      <trkpt lat="44.20551" lon="0.90997">
        <ele>111</ele>
        <time>2022-07-21T08:54:03.375Z</time>
      </trkpt>
      <trkpt lat="44.20551" lon="0.90997">
        <ele>110</ele>
        <time>2022-07-21T08:54:04.375Z</time>
      </trkpt>
      <trkpt lat="44.20551" lon="0.90997">
        <ele>110</ele>
        <time>2022-07-21T08:54:05.375Z</time>
      </trkpt>
      <trkpt lat="44.20551" lon="0.90997">
        <ele>110</ele>
        <time>2022-07-21T08:54:06.375Z</time>
      </trkpt>
      <trkpt lat="44.20551" lon="0.90997">
        <ele>110</ele>
        <time>2022-07-21T08:54:07.375Z</time>
      </trkpt>
      <trkpt lat="44.20551" lon="0.90997">
        <ele>110</ele>
        <time>2022-07-21T08:54:08.375Z</time>
      </trkpt>
      <trkpt lat="44.20555" lon="0.90995">
        <ele>112</ele>
        <time>2022-07-21T08:54:15.391Z</time>
      </trkpt>
      <trkpt lat="44.20555" lon="0.90994">
        <ele>112</ele>
        <time>2022-07-21T08:54:16.391Z</time>
      </trkpt>
      <trkpt lat="44.20556" lon="0.90993">
        <ele>112</ele>
        <time>2022-07-21T08:54:17.391Z</time>
      </trkpt>
      <trkpt lat="44.20557" lon="0.90992">
        <ele>112</ele>
        <time>2022-07-21T08:54:18.391Z</time>
      </trkpt>
      <trkpt lat="44.20558" lon="0.90992">
        <ele>112</ele>
        <time>2022-07-21T08:54:19.391Z</time>
      </trkpt>
      <trkpt lat="44.20559" lon="0.90992">
        <ele>112</ele>
        <time>2022-07-21T08:54:20.391Z</time>
      </trkpt>
      <trkpt lat="44.2056" lon="0.90992">
        <ele>111</ele>
        <time>2022-07-21T08:54:21.391Z</time>
      </trkpt>
      <trkpt lat="44.20561" lon="0.90992">
        <ele>111</ele>
        <time>2022-07-21T08:54:22.391Z</time>
      </trkpt>
      <trkpt lat="44.20562" lon="0.90991">
        <ele>111</ele>
        <time>2022-07-21T08:54:23.391Z</time>
      </trkpt>
      <trkpt lat="44.20563" lon="0.90991">
        <ele>111</ele>
        <time>2022-07-21T08:54:24.391Z</time>
      </trkpt>
      <trkpt lat="44.20563" lon="0.90991">
        <ele>110</ele>
        <time>2022-07-21T08:54:25.391Z</time>
      </trkpt>
      <trkpt lat="44.20565" lon="0.90991">
        <ele>110</ele>
        <time>2022-07-21T08:54:26.391Z</time>
      </trkpt>
      <trkpt lat="44.20566" lon="0.9099">
        <ele>111</ele>
        <time>2022-07-21T08:54:27.391Z</time>
      </trkpt>
      <trkpt lat="44.20567" lon="0.9099">
        <ele>111</ele>
        <time>2022-07-21T08:54:28.391Z</time>
      </trkpt>
      <trkpt lat="44.20568" lon="0.9099">
        <ele>111</ele>
        <time>2022-07-21T08:54:29.391Z</time>
      </trkpt>
      <trkpt lat="44.20569" lon="0.9099">
        <ele>111</ele>
        <time>2022-07-21T08:54:30.391Z</time>
      </trkpt>
      <trkpt lat="44.2057" lon="0.90989">
        <ele>111</ele>
        <time>2022-07-21T08:54:31.391Z</time>
      </trkpt>
      <trkpt lat="44.20571" lon="0.90989">
        <ele>111</ele>
        <time>2022-07-21T08:54:32.391Z</time>
      </trkpt>
      <trkpt lat="44.20572" lon="0.90989">
        <ele>111</ele>
        <time>2022-07-21T08:54:33.391Z</time>
      </trkpt>
      <trkpt lat="44.20573" lon="0.90989">
        <ele>111</ele>
        <time>2022-07-21T08:54:34.391Z</time>
      </trkpt>
      <trkpt lat="44.20574" lon="0.9099">
        <ele>111</ele>
        <time>2022-07-21T08:54:35.391Z</time>
      </trkpt>
      <trkpt lat="44.20575" lon="0.90989">
        <ele>111</ele>
        <time>2022-07-21T08:54:36.391Z</time>
      </trkpt>
      <trkpt lat="44.20576" lon="0.90989">
        <ele>111</ele>
        <time>2022-07-21T08:54:37.391Z</time>
      </trkpt>
      <trkpt lat="44.20577" lon="0.90989">
        <ele>112</ele>
        <time>2022-07-21T08:54:38.391Z</time>
      </trkpt>
      <trkpt lat="44.20578" lon="0.90989">
        <ele>112</ele>
        <time>2022-07-21T08:54:39.391Z</time>
      </trkpt>
      <trkpt lat="44.20579" lon="0.90989">
        <ele>112</ele>
        <time>2022-07-21T08:54:40.391Z</time>
      </trkpt>
      <trkpt lat="44.2058" lon="0.90989">
        <ele>113</ele>
        <time>2022-07-21T08:54:41.391Z</time>
      </trkpt>
      <trkpt lat="44.20581" lon="0.90989">
        <ele>113</ele>
        <time>2022-07-21T08:54:42.391Z</time>
      </trkpt>
      <trkpt lat="44.20582" lon="0.90988">
        <ele>113</ele>
        <time>2022-07-21T08:54:43.391Z</time>
      </trkpt>
      <trkpt lat="44.20582" lon="0.90988">
        <ele>113</ele>
        <time>2022-07-21T08:54:44.391Z</time>
      </trkpt>
      <trkpt lat="44.20583" lon="0.90988">
        <ele>114</ele>
        <time>2022-07-21T08:54:45.391Z</time>
      </trkpt>
      <trkpt lat="44.20584" lon="0.90987">
        <ele>114</ele>
        <time>2022-07-21T08:54:46.391Z</time>
      </trkpt>
      <trkpt lat="44.20585" lon="0.90987">
        <ele>114</ele>
        <time>2022-07-21T08:54:47.391Z</time>
      </trkpt>
      <trkpt lat="44.20586" lon="0.90987">
        <ele>114</ele>
        <time>2022-07-21T08:54:48.391Z</time>
      </trkpt>
      <trkpt lat="44.20587" lon="0.90987">
        <ele>114</ele>
        <time>2022-07-21T08:54:49.391Z</time>
      </trkpt>
      <trkpt lat="44.20588" lon="0.90987">
        <ele>115</ele>
        <time>2022-07-21T08:54:50.391Z</time>
      </trkpt>
      <trkpt lat="44.20589" lon="0.90987">
        <ele>115</ele>
        <time>2022-07-21T08:54:51.391Z</time>
      </trkpt>
      <trkpt lat="44.2059" lon="0.90986">
        <ele>115</ele>
        <time>2022-07-21T08:54:52.391Z</time>
      </trkpt>
      <trkpt lat="44.2059" lon="0.90986">
        <ele>116</ele>
        <time>2022-07-21T08:54:53.391Z</time>
      </trkpt>
      <trkpt lat="44.20591" lon="0.90986">
        <ele>116</ele>
        <time>2022-07-21T08:54:54.391Z</time>
      </trkpt>
      <trkpt lat="44.20592" lon="0.90985">
        <ele>117</ele>
        <time>2022-07-21T08:54:55.391Z</time>
      </trkpt>
      <trkpt lat="44.20593" lon="0.90985">
        <ele>117</ele>
        <time>2022-07-21T08:54:56.391Z</time>
      </trkpt>
      <trkpt lat="44.20593" lon="0.90984">
        <ele>117</ele>
        <time>2022-07-21T08:54:57.391Z</time>
      </trkpt>
      <trkpt lat="44.20594" lon="0.90984">
        <ele>117</ele>
        <time>2022-07-21T08:54:58.391Z</time>
      </trkpt>
      <trkpt lat="44.20595" lon="0.90983">
        <ele>117</ele>
        <time>2022-07-21T08:54:59.391Z</time>
      </trkpt>
      <trkpt lat="44.20596" lon="0.90983">
        <ele>118</ele>
        <time>2022-07-21T08:55:00.391Z</time>
      </trkpt>
      <trkpt lat="44.20597" lon="0.90983">
        <ele>118</ele>
        <time>2022-07-21T08:55:01.391Z</time>
      </trkpt>
      <trkpt lat="44.20597" lon="0.90982">
        <ele>118</ele>
        <time>2022-07-21T08:55:02.391Z</time>
      </trkpt>
      <trkpt lat="44.20598" lon="0.90982">
        <ele>119</ele>
        <time>2022-07-21T08:55:03.391Z</time>
      </trkpt>
      <trkpt lat="44.20599" lon="0.90981">
        <ele>119</ele>
        <time>2022-07-21T08:55:04.391Z</time>
      </trkpt>
      <trkpt lat="44.20599" lon="0.9098">
        <ele>120</ele>
        <time>2022-07-21T08:55:05.391Z</time>
      </trkpt>
      <trkpt lat="44.206" lon="0.9098">
        <ele>120</ele>
        <time>2022-07-21T08:55:06.391Z</time>
      </trkpt>
      <trkpt lat="44.20601" lon="0.90979">
        <ele>121</ele>
        <time>2022-07-21T08:55:07.391Z</time>
      </trkpt>
      <trkpt lat="44.20601" lon="0.90978">
        <ele>121</ele>
        <time>2022-07-21T08:55:08.391Z</time>
      </trkpt>
      <trkpt lat="44.20602" lon="0.90978">
        <ele>121</ele>
        <time>2022-07-21T08:55:09.391Z</time>
      </trkpt>
      <trkpt lat="44.20603" lon="0.90977">
        <ele>122</ele>
        <time>2022-07-21T08:55:10.391Z</time>
      </trkpt>
      <trkpt lat="44.20604" lon="0.90977">
        <ele>122</ele>
        <time>2022-07-21T08:55:11.391Z</time>
      </trkpt>
      <trkpt lat="44.20604" lon="0.90976">
        <ele>122</ele>
        <time>2022-07-21T08:55:12.391Z</time>
      </trkpt>
      <trkpt lat="44.20605" lon="0.90975">
        <ele>123</ele>
        <time>2022-07-21T08:55:13.391Z</time>
      </trkpt>
      <trkpt lat="44.20606" lon="0.90974">
        <ele>123</ele>
        <time>2022-07-21T08:55:14.391Z</time>
      </trkpt>
      <trkpt lat="44.20606" lon="0.90974">
        <ele>124</ele>
        <time>2022-07-21T08:55:15.391Z</time>
      </trkpt>
      <trkpt lat="44.20607" lon="0.90973">
        <ele>123</ele>
        <time>2022-07-21T08:55:16.391Z</time>
      </trkpt>
      <trkpt lat="44.20608" lon="0.90972">
        <ele>124</ele>
        <time>2022-07-21T08:55:17.391Z</time>
      </trkpt>
      <trkpt lat="44.20608" lon="0.90972">
        <ele>123</ele>
        <time>2022-07-21T08:55:18.391Z</time>
      </trkpt>
      <trkpt lat="44.20609" lon="0.90972">
        <ele>122</ele>
        <time>2022-07-21T08:55:19.391Z</time>
      </trkpt>
      <trkpt lat="44.20609" lon="0.90971">
        <ele>122</ele>
        <time>2022-07-21T08:55:20.391Z</time>
      </trkpt>
      <trkpt lat="44.2061" lon="0.9097">
        <ele>121</ele>
        <time>2022-07-21T08:55:21.391Z</time>
      </trkpt>
      <trkpt lat="44.20611" lon="0.9097">
        <ele>121</ele>
        <time>2022-07-21T08:55:22.391Z</time>
      </trkpt>
      <trkpt lat="44.20611" lon="0.90969">
        <ele>121</ele>
        <time>2022-07-21T08:55:23.391Z</time>
      </trkpt>
      <trkpt lat="44.20611" lon="0.90968">
        <ele>121</ele>
        <time>2022-07-21T08:55:24.391Z</time>
      </trkpt>
      <trkpt lat="44.20612" lon="0.90967">
        <ele>121</ele>
        <time>2022-07-21T08:55:25.391Z</time>
      </trkpt>
      <trkpt lat="44.20612" lon="0.90965">
        <ele>122</ele>
        <time>2022-07-21T08:55:26.391Z</time>
      </trkpt>
      <trkpt lat="44.20613" lon="0.90964">
        <ele>122</ele>
        <time>2022-07-21T08:55:27.391Z</time>
      </trkpt>
      <trkpt lat="44.20613" lon="0.90963">
        <ele>122</ele>
        <time>2022-07-21T08:55:28.391Z</time>
      </trkpt>
      <trkpt lat="44.20613" lon="0.90962">
        <ele>122</ele>
        <time>2022-07-21T08:55:29.391Z</time>
      </trkpt>
      <trkpt lat="44.20614" lon="0.90961">
        <ele>121</ele>
        <time>2022-07-21T08:55:30.391Z</time>
      </trkpt>
      <trkpt lat="44.20614" lon="0.9096">
        <ele>121</ele>
        <time>2022-07-21T08:55:31.391Z</time>
      </trkpt>
      <trkpt lat="44.20615" lon="0.90959">
        <ele>120</ele>
        <time>2022-07-21T08:55:32.391Z</time>
      </trkpt>
      <trkpt lat="44.20615" lon="0.90958">
        <ele>120</ele>
        <time>2022-07-21T08:55:33.391Z</time>
      </trkpt>
      <trkpt lat="44.20616" lon="0.90957">
        <ele>120</ele>
        <time>2022-07-21T08:55:34.391Z</time>
      </trkpt>
      <trkpt lat="44.20617" lon="0.90956">
        <ele>120</ele>
        <time>2022-07-21T08:55:35.391Z</time>
      </trkpt>
      <trkpt lat="44.20617" lon="0.90956">
        <ele>120</ele>
        <time>2022-07-21T08:55:36.391Z</time>
      </trkpt>
      <trkpt lat="44.20617" lon="0.90955">
        <ele>119</ele>
        <time>2022-07-21T08:55:37.391Z</time>
      </trkpt>
      <trkpt lat="44.20618" lon="0.90954">
        <ele>119</ele>
        <time>2022-07-21T08:55:38.391Z</time>
      </trkpt>
      <trkpt lat="44.20619" lon="0.90953">
        <ele>119</ele>
        <time>2022-07-21T08:55:39.391Z</time>
      </trkpt>
      <trkpt lat="44.20619" lon="0.90952">
        <ele>118</ele>
        <time>2022-07-21T08:55:40.391Z</time>
      </trkpt>
      <trkpt lat="44.2062" lon="0.90952">
        <ele>118</ele>
        <time>2022-07-21T08:55:41.391Z</time>
      </trkpt>
      <trkpt lat="44.2062" lon="0.9095">
        <ele>119</ele>
        <time>2022-07-21T08:55:42.391Z</time>
      </trkpt>
      <trkpt lat="44.20621" lon="0.90949">
        <ele>118</ele>
        <time>2022-07-21T08:55:43.391Z</time>
      </trkpt>
      <trkpt lat="44.20621" lon="0.90948">
        <ele>119</ele>
        <time>2022-07-21T08:55:44.391Z</time>
      </trkpt>
      <trkpt lat="44.20622" lon="0.90947">
        <ele>118</ele>
        <time>2022-07-21T08:55:45.391Z</time>
      </trkpt>
      <trkpt lat="44.20623" lon="0.90946">
        <ele>118</ele>
        <time>2022-07-21T08:55:46.391Z</time>
      </trkpt>
      <trkpt lat="44.20623" lon="0.90945">
        <ele>118</ele>
        <time>2022-07-21T08:55:47.391Z</time>
      </trkpt>
      <trkpt lat="44.20624" lon="0.90944">
        <ele>118</ele>
        <time>2022-07-21T08:55:48.391Z</time>
      </trkpt>
      <trkpt lat="44.20625" lon="0.90943">
        <ele>118</ele>
        <time>2022-07-21T08:55:49.391Z</time>
      </trkpt>
      <trkpt lat="44.20625" lon="0.90942">
        <ele>118</ele>
        <time>2022-07-21T08:55:50.391Z</time>
      </trkpt>
      <trkpt lat="44.20625" lon="0.90941">
        <ele>118</ele>
        <time>2022-07-21T08:55:51.391Z</time>
      </trkpt>
      <trkpt lat="44.20626" lon="0.9094">
        <ele>118</ele>
        <time>2022-07-21T08:55:52.391Z</time>
      </trkpt>
      <trkpt lat="44.20626" lon="0.90939">
        <ele>118</ele>
        <time>2022-07-21T08:55:53.391Z</time>
      </trkpt>
      <trkpt lat="44.20626" lon="0.90938">
        <ele>117</ele>
        <time>2022-07-21T08:55:54.391Z</time>
      </trkpt>
      <trkpt lat="44.20626" lon="0.90938">
        <ele>117</ele>
        <time>2022-07-21T08:55:55.391Z</time>
      </trkpt>
      <trkpt lat="44.20627" lon="0.90937">
        <ele>116</ele>
        <time>2022-07-21T08:55:56.391Z</time>
      </trkpt>
      <trkpt lat="44.20627" lon="0.90936">
        <ele>117</ele>
        <time>2022-07-21T08:55:57.391Z</time>
      </trkpt>
      <trkpt lat="44.20627" lon="0.90935">
        <ele>117</ele>
        <time>2022-07-21T08:55:58.391Z</time>
      </trkpt>
      <trkpt lat="44.20628" lon="0.90934">
        <ele>117</ele>
        <time>2022-07-21T08:55:59.391Z</time>
      </trkpt>
      <trkpt lat="44.20628" lon="0.90933">
        <ele>117</ele>
        <time>2022-07-21T08:56:00.391Z</time>
      </trkpt>
      <trkpt lat="44.20629" lon="0.90931">
        <ele>118</ele>
        <time>2022-07-21T08:56:01.391Z</time>
      </trkpt>
      <trkpt lat="44.20629" lon="0.9093">
        <ele>119</ele>
        <time>2022-07-21T08:56:02.391Z</time>
      </trkpt>
      <trkpt lat="44.20629" lon="0.90928">
        <ele>119</ele>
        <time>2022-07-21T08:56:03.391Z</time>
      </trkpt>
      <trkpt lat="44.2063" lon="0.90927">
        <ele>120</ele>
        <time>2022-07-21T08:56:04.391Z</time>
      </trkpt>
      <trkpt lat="44.2063" lon="0.90925">
        <ele>120</ele>
        <time>2022-07-21T08:56:05.391Z</time>
      </trkpt>
      <trkpt lat="44.20631" lon="0.90924">
        <ele>120</ele>
        <time>2022-07-21T08:56:06.391Z</time>
      </trkpt>
      <trkpt lat="44.20631" lon="0.90923">
        <ele>120</ele>
        <time>2022-07-21T08:56:07.391Z</time>
      </trkpt>
      <trkpt lat="44.20631" lon="0.90922">
        <ele>119</ele>
        <time>2022-07-21T08:56:08.391Z</time>
      </trkpt>
      <trkpt lat="44.20631" lon="0.90921">
        <ele>119</ele>
        <time>2022-07-21T08:56:09.391Z</time>
      </trkpt>
      <trkpt lat="44.20631" lon="0.90919">
        <ele>119</ele>
        <time>2022-07-21T08:56:10.391Z</time>
      </trkpt>
      <trkpt lat="44.20632" lon="0.90918">
        <ele>119</ele>
        <time>2022-07-21T08:56:11.391Z</time>
      </trkpt>
      <trkpt lat="44.20632" lon="0.90917">
        <ele>119</ele>
        <time>2022-07-21T08:56:12.391Z</time>
      </trkpt>
      <trkpt lat="44.20633" lon="0.90916">
        <ele>119</ele>
        <time>2022-07-21T08:56:13.391Z</time>
      </trkpt>
      <trkpt lat="44.20633" lon="0.90914">
        <ele>119</ele>
        <time>2022-07-21T08:56:14.391Z</time>
      </trkpt>
      <trkpt lat="44.20633" lon="0.90913">
        <ele>120</ele>
        <time>2022-07-21T08:56:15.391Z</time>
      </trkpt>
      <trkpt lat="44.20634" lon="0.90911">
        <ele>120</ele>
        <time>2022-07-21T08:56:16.391Z</time>
      </trkpt>
      <trkpt lat="44.20634" lon="0.90909">
        <ele>120</ele>
        <time>2022-07-21T08:56:17.391Z</time>
      </trkpt>
      <trkpt lat="44.20634" lon="0.90908">
        <ele>120</ele>
        <time>2022-07-21T08:56:18.391Z</time>
      </trkpt>
      <trkpt lat="44.20635" lon="0.90907">
        <ele>119</ele>
        <time>2022-07-21T08:56:19.391Z</time>
      </trkpt>
      <trkpt lat="44.20635" lon="0.90906">
        <ele>119</ele>
        <time>2022-07-21T08:56:20.391Z</time>
      </trkpt>
      <trkpt lat="44.20636" lon="0.90904">
        <ele>120</ele>
        <time>2022-07-21T08:56:21.391Z</time>
      </trkpt>
      <trkpt lat="44.20637" lon="0.90903">
        <ele>119</ele>
        <time>2022-07-21T08:56:22.391Z</time>
      </trkpt>
      <trkpt lat="44.20637" lon="0.90902">
        <ele>119</ele>
        <time>2022-07-21T08:56:23.391Z</time>
      </trkpt>
      <trkpt lat="44.20638" lon="0.909">
        <ele>120</ele>
        <time>2022-07-21T08:56:24.391Z</time>
      </trkpt>
      <trkpt lat="44.20639" lon="0.90899">
        <ele>120</ele>
        <time>2022-07-21T08:56:25.391Z</time>
      </trkpt>
      <trkpt lat="44.20639" lon="0.90898">
        <ele>120</ele>
        <time>2022-07-21T08:56:26.391Z</time>
      </trkpt>
      <trkpt lat="44.2064" lon="0.90897">
        <ele>119</ele>
        <time>2022-07-21T08:56:27.391Z</time>
      </trkpt>
      <trkpt lat="44.2064" lon="0.90895">
        <ele>119</ele>
        <time>2022-07-21T08:56:28.391Z</time>
      </trkpt>
      <trkpt lat="44.2064" lon="0.90894">
        <ele>119</ele>
        <time>2022-07-21T08:56:29.391Z</time>
      </trkpt>
      <trkpt lat="44.20641" lon="0.90893">
        <ele>118</ele>
        <time>2022-07-21T08:56:30.391Z</time>
      </trkpt>
      <trkpt lat="44.20641" lon="0.90892">
        <ele>120</ele>
        <time>2022-07-21T08:56:31.391Z</time>
      </trkpt>
      <trkpt lat="44.20642" lon="0.90891">
        <ele>120</ele>
        <time>2022-07-21T08:56:32.391Z</time>
      </trkpt>
      <trkpt lat="44.20642" lon="0.90889">
        <ele>120</ele>
        <time>2022-07-21T08:56:33.391Z</time>
      </trkpt>
      <trkpt lat="44.20643" lon="0.90888">
        <ele>119</ele>
        <time>2022-07-21T08:56:34.391Z</time>
      </trkpt>
      <trkpt lat="44.20643" lon="0.90887">
        <ele>120</ele>
        <time>2022-07-21T08:56:35.391Z</time>
      </trkpt>
      <trkpt lat="44.20643" lon="0.90886">
        <ele>121</ele>
        <time>2022-07-21T08:56:36.391Z</time>
      </trkpt>
      <trkpt lat="44.20643" lon="0.90884">
        <ele>121</ele>
        <time>2022-07-21T08:56:37.391Z</time>
      </trkpt>
      <trkpt lat="44.20643" lon="0.90883">
        <ele>122</ele>
        <time>2022-07-21T08:56:38.391Z</time>
      </trkpt>
      <trkpt lat="44.20643" lon="0.90881">
        <ele>123</ele>
        <time>2022-07-21T08:56:39.391Z</time>
      </trkpt>
      <trkpt lat="44.20643" lon="0.9088">
        <ele>123</ele>
        <time>2022-07-21T08:56:40.391Z</time>
      </trkpt>
      <trkpt lat="44.20644" lon="0.90878">
        <ele>123</ele>
        <time>2022-07-21T08:56:41.391Z</time>
      </trkpt>
      <trkpt lat="44.20644" lon="0.90877">
        <ele>123</ele>
        <time>2022-07-21T08:56:42.391Z</time>
      </trkpt>
      <trkpt lat="44.20644" lon="0.90875">
        <ele>124</ele>
        <time>2022-07-21T08:56:43.391Z</time>
      </trkpt>
      <trkpt lat="44.20644" lon="0.90873">
        <ele>124</ele>
        <time>2022-07-21T08:56:44.391Z</time>
      </trkpt>
      <trkpt lat="44.20644" lon="0.90872">
        <ele>125</ele>
        <time>2022-07-21T08:56:45.391Z</time>
      </trkpt>
      <trkpt lat="44.20645" lon="0.9087">
        <ele>125</ele>
        <time>2022-07-21T08:56:46.391Z</time>
      </trkpt>
      <trkpt lat="44.20645" lon="0.90869">
        <ele>125</ele>
        <time>2022-07-21T08:56:47.391Z</time>
      </trkpt>
      <trkpt lat="44.20645" lon="0.90868">
        <ele>125</ele>
        <time>2022-07-21T08:56:48.391Z</time>
      </trkpt>
      <trkpt lat="44.20646" lon="0.90867">
        <ele>124</ele>
        <time>2022-07-21T08:56:49.391Z</time>
      </trkpt>
      <trkpt lat="44.20646" lon="0.90866">
        <ele>124</ele>
        <time>2022-07-21T08:56:50.391Z</time>
      </trkpt>
      <trkpt lat="44.20646" lon="0.90865">
        <ele>124</ele>
        <time>2022-07-21T08:56:51.391Z</time>
      </trkpt>
      <trkpt lat="44.20647" lon="0.90864">
        <ele>124</ele>
        <time>2022-07-21T08:56:52.391Z</time>
      </trkpt>
      <trkpt lat="44.20647" lon="0.90863">
        <ele>124</ele>
        <time>2022-07-21T08:56:53.391Z</time>
      </trkpt>
      <trkpt lat="44.20647" lon="0.90861">
        <ele>124</ele>
        <time>2022-07-21T08:56:54.391Z</time>
      </trkpt>
      <trkpt lat="44.20648" lon="0.9086">
        <ele>124</ele>
        <time>2022-07-21T08:56:55.391Z</time>
      </trkpt>
      <trkpt lat="44.20648" lon="0.90859">
        <ele>123</ele>
        <time>2022-07-21T08:56:56.391Z</time>
      </trkpt>
      <trkpt lat="44.20649" lon="0.90858">
        <ele>123</ele>
        <time>2022-07-21T08:56:57.391Z</time>
      </trkpt>
      <trkpt lat="44.20649" lon="0.90856">
        <ele>122</ele>
        <time>2022-07-21T08:56:58.391Z</time>
      </trkpt>
      <trkpt lat="44.20649" lon="0.90855">
        <ele>122</ele>
        <time>2022-07-21T08:56:59.391Z</time>
      </trkpt>
      <trkpt lat="44.2065" lon="0.90853">
        <ele>122</ele>
        <time>2022-07-21T08:57:00.391Z</time>
      </trkpt>
      <trkpt lat="44.2065" lon="0.90852">
        <ele>123</ele>
        <time>2022-07-21T08:57:01.391Z</time>
      </trkpt>
      <trkpt lat="44.2065" lon="0.9085">
        <ele>123</ele>
        <time>2022-07-21T08:57:02.391Z</time>
      </trkpt>
      <trkpt lat="44.2065" lon="0.90849">
        <ele>122</ele>
        <time>2022-07-21T08:57:03.391Z</time>
      </trkpt>
      <trkpt lat="44.20651" lon="0.90847">
        <ele>122</ele>
        <time>2022-07-21T08:57:04.391Z</time>
      </trkpt>
      <trkpt lat="44.20651" lon="0.90846">
        <ele>122</ele>
        <time>2022-07-21T08:57:05.391Z</time>
      </trkpt>
      <trkpt lat="44.20651" lon="0.90845">
        <ele>123</ele>
        <time>2022-07-21T08:57:06.391Z</time>
      </trkpt>
      <trkpt lat="44.20651" lon="0.90843">
        <ele>123</ele>
        <time>2022-07-21T08:57:07.391Z</time>
      </trkpt>
      <trkpt lat="44.20651" lon="0.90842">
        <ele>122</ele>
        <time>2022-07-21T08:57:08.391Z</time>
      </trkpt>
      <trkpt lat="44.20651" lon="0.90841">
        <ele>123</ele>
        <time>2022-07-21T08:57:09.391Z</time>
      </trkpt>
      <trkpt lat="44.20651" lon="0.90839">
        <ele>123</ele>
        <time>2022-07-21T08:57:10.391Z</time>
      </trkpt>
      <trkpt lat="44.20651" lon="0.90838">
        <ele>123</ele>
        <time>2022-07-21T08:57:11.391Z</time>
      </trkpt>
      <trkpt lat="44.20651" lon="0.90836">
        <ele>123</ele>
        <time>2022-07-21T08:57:12.391Z</time>
      </trkpt>
      <trkpt lat="44.20652" lon="0.90835">
        <ele>122</ele>
        <time>2022-07-21T08:57:13.391Z</time>
      </trkpt>
      <trkpt lat="44.20652" lon="0.90834">
        <ele>122</ele>
        <time>2022-07-21T08:57:14.391Z</time>
      </trkpt>
      <trkpt lat="44.20652" lon="0.90832">
        <ele>122</ele>
        <time>2022-07-21T08:57:15.391Z</time>
      </trkpt>
      <trkpt lat="44.20653" lon="0.90831">
        <ele>121</ele>
        <time>2022-07-21T08:57:16.391Z</time>
      </trkpt>
      <trkpt lat="44.20653" lon="0.9083">
        <ele>121</ele>
        <time>2022-07-21T08:57:17.391Z</time>
      </trkpt>
      <trkpt lat="44.20653" lon="0.90828">
        <ele>121</ele>
        <time>2022-07-21T08:57:18.391Z</time>
      </trkpt>
      <trkpt lat="44.20653" lon="0.90827">
        <ele>121</ele>
        <time>2022-07-21T08:57:19.391Z</time>
      </trkpt>
      <trkpt lat="44.20653" lon="0.90826">
        <ele>121</ele>
        <time>2022-07-21T08:57:20.391Z</time>
      </trkpt>
      <trkpt lat="44.20654" lon="0.90824">
        <ele>122</ele>
        <time>2022-07-21T08:57:21.391Z</time>
      </trkpt>
      <trkpt lat="44.20654" lon="0.90823">
        <ele>122</ele>
        <time>2022-07-21T08:57:22.391Z</time>
      </trkpt>
      <trkpt lat="44.20654" lon="0.90822">
        <ele>121</ele>
        <time>2022-07-21T08:57:23.391Z</time>
      </trkpt>
      <trkpt lat="44.20655" lon="0.9082">
        <ele>122</ele>
        <time>2022-07-21T08:57:24.391Z</time>
      </trkpt>
      <trkpt lat="44.20655" lon="0.90819">
        <ele>122</ele>
        <time>2022-07-21T08:57:25.391Z</time>
      </trkpt>
      <trkpt lat="44.20655" lon="0.90818">
        <ele>122</ele>
        <time>2022-07-21T08:57:26.391Z</time>
      </trkpt>
      <trkpt lat="44.20656" lon="0.90817">
        <ele>122</ele>
        <time>2022-07-21T08:57:27.391Z</time>
      </trkpt>
      <trkpt lat="44.20656" lon="0.90815">
        <ele>121</ele>
        <time>2022-07-21T08:57:28.391Z</time>
      </trkpt>
      <trkpt lat="44.20657" lon="0.90814">
        <ele>122</ele>
        <time>2022-07-21T08:57:29.391Z</time>
      </trkpt>
      <trkpt lat="44.20657" lon="0.90813">
        <ele>122</ele>
        <time>2022-07-21T08:57:30.391Z</time>
      </trkpt>
      <trkpt lat="44.20657" lon="0.90812">
        <ele>122</ele>
        <time>2022-07-21T08:57:31.391Z</time>
      </trkpt>
      <trkpt lat="44.20657" lon="0.90811">
        <ele>122</ele>
        <time>2022-07-21T08:57:32.391Z</time>
      </trkpt>
      <trkpt lat="44.20658" lon="0.9081">
        <ele>121</ele>
        <time>2022-07-21T08:57:33.391Z</time>
      </trkpt>
      <trkpt lat="44.20658" lon="0.90809">
        <ele>121</ele>
        <time>2022-07-21T08:57:34.391Z</time>
      </trkpt>
      <trkpt lat="44.20657" lon="0.90808">
        <ele>121</ele>
        <time>2022-07-21T08:57:35.391Z</time>
      </trkpt>
      <trkpt lat="44.20657" lon="0.90806">
        <ele>121</ele>
        <time>2022-07-21T08:57:36.391Z</time>
      </trkpt>
      <trkpt lat="44.20657" lon="0.90805">
        <ele>122</ele>
        <time>2022-07-21T08:57:37.391Z</time>
      </trkpt>
      <trkpt lat="44.20657" lon="0.90803">
        <ele>123</ele>
        <time>2022-07-21T08:57:38.391Z</time>
      </trkpt>
      <trkpt lat="44.20657" lon="0.90802">
        <ele>123</ele>
        <time>2022-07-21T08:57:39.391Z</time>
      </trkpt>
      <trkpt lat="44.20657" lon="0.908">
        <ele>123</ele>
        <time>2022-07-21T08:57:40.391Z</time>
      </trkpt>
      <trkpt lat="44.20657" lon="0.90799">
        <ele>123</ele>
        <time>2022-07-21T08:57:41.391Z</time>
      </trkpt>
      <trkpt lat="44.20657" lon="0.90798">
        <ele>123</ele>
        <time>2022-07-21T08:57:42.391Z</time>
      </trkpt>
      <trkpt lat="44.20657" lon="0.90797">
        <ele>123</ele>
        <time>2022-07-21T08:57:43.391Z</time>
      </trkpt>
      <trkpt lat="44.20656" lon="0.90796">
        <ele>124</ele>
        <time>2022-07-21T08:57:44.391Z</time>
      </trkpt>
      <trkpt lat="44.20656" lon="0.90794">
        <ele>124</ele>
        <time>2022-07-21T08:57:45.391Z</time>
      </trkpt>
      <trkpt lat="44.20656" lon="0.90793">
        <ele>124</ele>
        <time>2022-07-21T08:57:46.391Z</time>
      </trkpt>
      <trkpt lat="44.20656" lon="0.90791">
        <ele>125</ele>
        <time>2022-07-21T08:57:47.391Z</time>
      </trkpt>
      <trkpt lat="44.20656" lon="0.9079">
        <ele>125</ele>
        <time>2022-07-21T08:57:48.391Z</time>
      </trkpt>
      <trkpt lat="44.20656" lon="0.90788">
        <ele>125</ele>
        <time>2022-07-21T08:57:49.391Z</time>
      </trkpt>
      <trkpt lat="44.20656" lon="0.90787">
        <ele>125</ele>
        <time>2022-07-21T08:57:50.391Z</time>
      </trkpt>
      <trkpt lat="44.20656" lon="0.90786">
        <ele>125</ele>
        <time>2022-07-21T08:57:51.391Z</time>
      </trkpt>
      <trkpt lat="44.20656" lon="0.90785">
        <ele>125</ele>
        <time>2022-07-21T08:57:52.391Z</time>
      </trkpt>
      <trkpt lat="44.20656" lon="0.90784">
        <ele>125</ele>
        <time>2022-07-21T08:57:53.391Z</time>
      </trkpt>
      <trkpt lat="44.20656" lon="0.90783">
        <ele>125</ele>
        <time>2022-07-21T08:57:54.391Z</time>
      </trkpt>
      <trkpt lat="44.20656" lon="0.90781">
        <ele>126</ele>
        <time>2022-07-21T08:57:55.391Z</time>
      </trkpt>
      <trkpt lat="44.20656" lon="0.9078">
        <ele>126</ele>
        <time>2022-07-21T08:57:56.391Z</time>
      </trkpt>
      <trkpt lat="44.20656" lon="0.90779">
        <ele>126</ele>
        <time>2022-07-21T08:57:57.391Z</time>
      </trkpt>
      <trkpt lat="44.20656" lon="0.90777">
        <ele>126</ele>
        <time>2022-07-21T08:57:58.391Z</time>
      </trkpt>
      <trkpt lat="44.20656" lon="0.90776">
        <ele>126</ele>
        <time>2022-07-21T08:57:59.391Z</time>
      </trkpt>
      <trkpt lat="44.20656" lon="0.90775">
        <ele>127</ele>
        <time>2022-07-21T08:58:00.391Z</time>
      </trkpt>
      <trkpt lat="44.20656" lon="0.90774">
        <ele>127</ele>
        <time>2022-07-21T08:58:01.391Z</time>
      </trkpt>
      <trkpt lat="44.20656" lon="0.90773">
        <ele>127</ele>
        <time>2022-07-21T08:58:02.391Z</time>
      </trkpt>
      <trkpt lat="44.20656" lon="0.90772">
        <ele>127</ele>
        <time>2022-07-21T08:58:03.391Z</time>
      </trkpt>
      <trkpt lat="44.20657" lon="0.9077">
        <ele>127</ele>
        <time>2022-07-21T08:58:04.391Z</time>
      </trkpt>
      <trkpt lat="44.20657" lon="0.90769">
        <ele>128</ele>
        <time>2022-07-21T08:58:05.391Z</time>
      </trkpt>
      <trkpt lat="44.20657" lon="0.90768">
        <ele>129</ele>
        <time>2022-07-21T08:58:06.391Z</time>
      </trkpt>
      <trkpt lat="44.20657" lon="0.90767">
        <ele>129</ele>
        <time>2022-07-21T08:58:07.391Z</time>
      </trkpt>
      <trkpt lat="44.20657" lon="0.90766">
        <ele>130</ele>
        <time>2022-07-21T08:58:08.391Z</time>
      </trkpt>
      <trkpt lat="44.20658" lon="0.90765">
        <ele>130</ele>
        <time>2022-07-21T08:58:09.391Z</time>
      </trkpt>
      <trkpt lat="44.20658" lon="0.90763">
        <ele>131</ele>
        <time>2022-07-21T08:58:10.391Z</time>
      </trkpt>
      <trkpt lat="44.20658" lon="0.90762">
        <ele>130</ele>
        <time>2022-07-21T08:58:11.391Z</time>
      </trkpt>
      <trkpt lat="44.20658" lon="0.90761">
        <ele>130</ele>
        <time>2022-07-21T08:58:12.391Z</time>
      </trkpt>
      <trkpt lat="44.20658" lon="0.9076">
        <ele>130</ele>
        <time>2022-07-21T08:58:13.391Z</time>
      </trkpt>
      <trkpt lat="44.20659" lon="0.90759">
        <ele>130</ele>
        <time>2022-07-21T08:58:14.391Z</time>
      </trkpt>
      <trkpt lat="44.20659" lon="0.90758">
        <ele>130</ele>
        <time>2022-07-21T08:58:15.391Z</time>
      </trkpt>
      <trkpt lat="44.20659" lon="0.90757">
        <ele>131</ele>
        <time>2022-07-21T08:58:16.391Z</time>
      </trkpt>
      <trkpt lat="44.20659" lon="0.90755">
        <ele>130</ele>
        <time>2022-07-21T08:58:17.391Z</time>
      </trkpt>
      <trkpt lat="44.2066" lon="0.90754">
        <ele>130</ele>
        <time>2022-07-21T08:58:18.391Z</time>
      </trkpt>
      <trkpt lat="44.2066" lon="0.90753">
        <ele>130</ele>
        <time>2022-07-21T08:58:19.391Z</time>
      </trkpt>
      <trkpt lat="44.2066" lon="0.90752">
        <ele>129</ele>
        <time>2022-07-21T08:58:20.391Z</time>
      </trkpt>
      <trkpt lat="44.2066" lon="0.90751">
        <ele>129</ele>
        <time>2022-07-21T08:58:21.391Z</time>
      </trkpt>
      <trkpt lat="44.20661" lon="0.90749">
        <ele>130</ele>
        <time>2022-07-21T08:58:22.391Z</time>
      </trkpt>
      <trkpt lat="44.20661" lon="0.90748">
        <ele>130</ele>
        <time>2022-07-21T08:58:23.391Z</time>
      </trkpt>
      <trkpt lat="44.20662" lon="0.90747">
        <ele>130</ele>
        <time>2022-07-21T08:58:24.391Z</time>
      </trkpt>
      <trkpt lat="44.20663" lon="0.90746">
        <ele>130</ele>
        <time>2022-07-21T08:58:25.391Z</time>
      </trkpt>
      <trkpt lat="44.20663" lon="0.90746">
        <ele>130</ele>
        <time>2022-07-21T08:58:26.391Z</time>
      </trkpt>
      <trkpt lat="44.20664" lon="0.90745">
        <ele>130</ele>
        <time>2022-07-21T08:58:27.391Z</time>
      </trkpt>
      <trkpt lat="44.20664" lon="0.90744">
        <ele>130</ele>
        <time>2022-07-21T08:58:28.391Z</time>
      </trkpt>
      <trkpt lat="44.20664" lon="0.90743">
        <ele>130</ele>
        <time>2022-07-21T08:58:29.391Z</time>
      </trkpt>
      <trkpt lat="44.20665" lon="0.90742">
        <ele>130</ele>
        <time>2022-07-21T08:58:30.391Z</time>
      </trkpt>
      <trkpt lat="44.20665" lon="0.90741">
        <ele>130</ele>
        <time>2022-07-21T08:58:31.391Z</time>
      </trkpt>
      <trkpt lat="44.20665" lon="0.9074">
        <ele>130</ele>
        <time>2022-07-21T08:58:32.391Z</time>
      </trkpt>
      <trkpt lat="44.20666" lon="0.90739">
        <ele>131</ele>
        <time>2022-07-21T08:58:33.391Z</time>
      </trkpt>
      <trkpt lat="44.20666" lon="0.90739">
        <ele>131</ele>
        <time>2022-07-21T08:58:34.391Z</time>
      </trkpt>
      <trkpt lat="44.20666" lon="0.90738">
        <ele>132</ele>
        <time>2022-07-21T08:58:35.391Z</time>
      </trkpt>
      <trkpt lat="44.20666" lon="0.90737">
        <ele>132</ele>
        <time>2022-07-21T08:58:36.391Z</time>
      </trkpt>
      <trkpt lat="44.20667" lon="0.90736">
        <ele>132</ele>
        <time>2022-07-21T08:58:37.391Z</time>
      </trkpt>
      <trkpt lat="44.20667" lon="0.90735">
        <ele>132</ele>
        <time>2022-07-21T08:58:38.391Z</time>
      </trkpt>
      <trkpt lat="44.20668" lon="0.90734">
        <ele>132</ele>
        <time>2022-07-21T08:58:39.391Z</time>
      </trkpt>
      <trkpt lat="44.20669" lon="0.90733">
        <ele>132</ele>
        <time>2022-07-21T08:58:40.391Z</time>
      </trkpt>
      <trkpt lat="44.20669" lon="0.90732">
        <ele>132</ele>
        <time>2022-07-21T08:58:41.391Z</time>
      </trkpt>
      <trkpt lat="44.2067" lon="0.90732">
        <ele>133</ele>
        <time>2022-07-21T08:58:42.391Z</time>
      </trkpt>
      <trkpt lat="44.2067" lon="0.90731">
        <ele>133</ele>
        <time>2022-07-21T08:58:43.391Z</time>
      </trkpt>
      <trkpt lat="44.20671" lon="0.9073">
        <ele>133</ele>
        <time>2022-07-21T08:58:44.391Z</time>
      </trkpt>
      <trkpt lat="44.20671" lon="0.90729">
        <ele>134</ele>
        <time>2022-07-21T08:58:45.391Z</time>
      </trkpt>
      <trkpt lat="44.20671" lon="0.90727">
        <ele>134</ele>
        <time>2022-07-21T08:58:46.391Z</time>
      </trkpt>
      <trkpt lat="44.20672" lon="0.90726">
        <ele>134</ele>
        <time>2022-07-21T08:58:47.391Z</time>
      </trkpt>
      <trkpt lat="44.20672" lon="0.90724">
        <ele>135</ele>
        <time>2022-07-21T08:58:48.391Z</time>
      </trkpt>
      <trkpt lat="44.20673" lon="0.90723">
        <ele>135</ele>
        <time>2022-07-21T08:58:49.391Z</time>
      </trkpt>
      <trkpt lat="44.20674" lon="0.90722">
        <ele>135</ele>
        <time>2022-07-21T08:58:50.391Z</time>
      </trkpt>
      <trkpt lat="44.20674" lon="0.90721">
        <ele>135</ele>
        <time>2022-07-21T08:58:51.391Z</time>
      </trkpt>
      <trkpt lat="44.20675" lon="0.9072">
        <ele>135</ele>
        <time>2022-07-21T08:58:52.391Z</time>
      </trkpt>
      <trkpt lat="44.20675" lon="0.90719">
        <ele>135</ele>
        <time>2022-07-21T08:58:53.391Z</time>
      </trkpt>
      <trkpt lat="44.20676" lon="0.90718">
        <ele>135</ele>
        <time>2022-07-21T08:58:54.391Z</time>
      </trkpt>
      <trkpt lat="44.20676" lon="0.90717">
        <ele>136</ele>
        <time>2022-07-21T08:58:55.391Z</time>
      </trkpt>
      <trkpt lat="44.20677" lon="0.90716">
        <ele>136</ele>
        <time>2022-07-21T08:58:56.391Z</time>
      </trkpt>
      <trkpt lat="44.20677" lon="0.90714">
        <ele>136</ele>
        <time>2022-07-21T08:58:57.391Z</time>
      </trkpt>
      <trkpt lat="44.20678" lon="0.90713">
        <ele>136</ele>
        <time>2022-07-21T08:58:58.391Z</time>
      </trkpt>
      <trkpt lat="44.20679" lon="0.90712">
        <ele>136</ele>
        <time>2022-07-21T08:58:59.391Z</time>
      </trkpt>
      <trkpt lat="44.20679" lon="0.9071">
        <ele>136</ele>
        <time>2022-07-21T08:59:00.391Z</time>
      </trkpt>
      <trkpt lat="44.2068" lon="0.90709">
        <ele>137</ele>
        <time>2022-07-21T08:59:01.391Z</time>
      </trkpt>
      <trkpt lat="44.2068" lon="0.90708">
        <ele>136</ele>
        <time>2022-07-21T08:59:02.391Z</time>
      </trkpt>
      <trkpt lat="44.20681" lon="0.90707">
        <ele>136</ele>
        <time>2022-07-21T08:59:03.391Z</time>
      </trkpt>
      <trkpt lat="44.20681" lon="0.90706">
        <ele>136</ele>
        <time>2022-07-21T08:59:04.391Z</time>
      </trkpt>
      <trkpt lat="44.20682" lon="0.90705">
        <ele>137</ele>
        <time>2022-07-21T08:59:05.391Z</time>
      </trkpt>
      <trkpt lat="44.20682" lon="0.90704">
        <ele>137</ele>
        <time>2022-07-21T08:59:06.391Z</time>
      </trkpt>
      <trkpt lat="44.20683" lon="0.90703">
        <ele>137</ele>
        <time>2022-07-21T08:59:07.391Z</time>
      </trkpt>
      <trkpt lat="44.20683" lon="0.90702">
        <ele>137</ele>
        <time>2022-07-21T08:59:08.391Z</time>
      </trkpt>
      <trkpt lat="44.20683" lon="0.90701">
        <ele>138</ele>
        <time>2022-07-21T08:59:09.391Z</time>
      </trkpt>
      <trkpt lat="44.20684" lon="0.907">
        <ele>138</ele>
        <time>2022-07-21T08:59:10.391Z</time>
      </trkpt>
      <trkpt lat="44.20685" lon="0.90699">
        <ele>138</ele>
        <time>2022-07-21T08:59:11.391Z</time>
      </trkpt>
      <trkpt lat="44.20685" lon="0.90698">
        <ele>139</ele>
        <time>2022-07-21T08:59:12.391Z</time>
      </trkpt>
      <trkpt lat="44.20686" lon="0.90697">
        <ele>139</ele>
        <time>2022-07-21T08:59:13.391Z</time>
      </trkpt>
      <trkpt lat="44.20686" lon="0.90697">
        <ele>139</ele>
        <time>2022-07-21T08:59:14.391Z</time>
      </trkpt>
      <trkpt lat="44.20687" lon="0.90696">
        <ele>140</ele>
        <time>2022-07-21T08:59:15.391Z</time>
      </trkpt>
      <trkpt lat="44.20687" lon="0.90695">
        <ele>140</ele>
        <time>2022-07-21T08:59:16.391Z</time>
      </trkpt>
      <trkpt lat="44.20688" lon="0.90694">
        <ele>141</ele>
        <time>2022-07-21T08:59:17.391Z</time>
      </trkpt>
      <trkpt lat="44.20688" lon="0.90693">
        <ele>141</ele>
        <time>2022-07-21T08:59:18.391Z</time>
      </trkpt>
      <trkpt lat="44.20689" lon="0.90692">
        <ele>141</ele>
        <time>2022-07-21T08:59:19.391Z</time>
      </trkpt>
      <trkpt lat="44.20689" lon="0.90691">
        <ele>141</ele>
        <time>2022-07-21T08:59:20.391Z</time>
      </trkpt>
      <trkpt lat="44.20689" lon="0.90689">
        <ele>142</ele>
        <time>2022-07-21T08:59:21.391Z</time>
      </trkpt>
      <trkpt lat="44.2069" lon="0.90688">
        <ele>142</ele>
        <time>2022-07-21T08:59:22.391Z</time>
      </trkpt>
      <trkpt lat="44.2069" lon="0.90687">
        <ele>142</ele>
        <time>2022-07-21T08:59:23.391Z</time>
      </trkpt>
      <trkpt lat="44.2069" lon="0.90686">
        <ele>143</ele>
        <time>2022-07-21T08:59:24.391Z</time>
      </trkpt>
      <trkpt lat="44.2069" lon="0.90684">
        <ele>142</ele>
        <time>2022-07-21T08:59:25.391Z</time>
      </trkpt>
      <trkpt lat="44.20691" lon="0.90683">
        <ele>142</ele>
        <time>2022-07-21T08:59:26.391Z</time>
      </trkpt>
      <trkpt lat="44.20691" lon="0.90682">
        <ele>142</ele>
        <time>2022-07-21T08:59:27.391Z</time>
      </trkpt>
      <trkpt lat="44.20692" lon="0.90681">
        <ele>142</ele>
        <time>2022-07-21T08:59:28.391Z</time>
      </trkpt>
      <trkpt lat="44.20692" lon="0.9068">
        <ele>142</ele>
        <time>2022-07-21T08:59:29.391Z</time>
      </trkpt>
      <trkpt lat="44.20692" lon="0.90679">
        <ele>142</ele>
        <time>2022-07-21T08:59:30.391Z</time>
      </trkpt>
      <trkpt lat="44.20693" lon="0.90678">
        <ele>142</ele>
        <time>2022-07-21T08:59:31.391Z</time>
      </trkpt>
      <trkpt lat="44.20693" lon="0.90677">
        <ele>142</ele>
        <time>2022-07-21T08:59:32.391Z</time>
      </trkpt>
      <trkpt lat="44.20693" lon="0.90677">
        <ele>142</ele>
        <time>2022-07-21T08:59:33.391Z</time>
      </trkpt>
      <trkpt lat="44.20694" lon="0.90676">
        <ele>142</ele>
        <time>2022-07-21T08:59:34.391Z</time>
      </trkpt>
      <trkpt lat="44.20694" lon="0.90675">
        <ele>142</ele>
        <time>2022-07-21T08:59:35.391Z</time>
      </trkpt>
      <trkpt lat="44.20694" lon="0.90674">
        <ele>142</ele>
        <time>2022-07-21T08:59:36.391Z</time>
      </trkpt>
      <trkpt lat="44.20694" lon="0.90673">
        <ele>142</ele>
        <time>2022-07-21T08:59:37.391Z</time>
      </trkpt>
      <trkpt lat="44.20694" lon="0.90673">
        <ele>142</ele>
        <time>2022-07-21T08:59:38.391Z</time>
      </trkpt>
      <trkpt lat="44.20694" lon="0.90672">
        <ele>142</ele>
        <time>2022-07-21T08:59:39.391Z</time>
      </trkpt>
      <trkpt lat="44.20694" lon="0.90671">
        <ele>142</ele>
        <time>2022-07-21T08:59:40.391Z</time>
      </trkpt>
      <trkpt lat="44.20694" lon="0.9067">
        <ele>142</ele>
        <time>2022-07-21T08:59:41.391Z</time>
      </trkpt>
      <trkpt lat="44.20695" lon="0.90669">
        <ele>142</ele>
        <time>2022-07-21T08:59:42.391Z</time>
      </trkpt>
      <trkpt lat="44.20695" lon="0.90668">
        <ele>143</ele>
        <time>2022-07-21T08:59:43.391Z</time>
      </trkpt>
      <trkpt lat="44.20695" lon="0.90667">
        <ele>143</ele>
        <time>2022-07-21T08:59:44.391Z</time>
      </trkpt>
      <trkpt lat="44.20696" lon="0.90667">
        <ele>143</ele>
        <time>2022-07-21T08:59:45.391Z</time>
      </trkpt>
      <trkpt lat="44.20697" lon="0.90666">
        <ele>143</ele>
        <time>2022-07-21T08:59:46.391Z</time>
      </trkpt>
      <trkpt lat="44.20697" lon="0.90665">
        <ele>143</ele>
        <time>2022-07-21T08:59:47.391Z</time>
      </trkpt>
      <trkpt lat="44.20697" lon="0.90663">
        <ele>143</ele>
        <time>2022-07-21T08:59:48.391Z</time>
      </trkpt>
      <trkpt lat="44.20698" lon="0.90662">
        <ele>144</ele>
        <time>2022-07-21T08:59:49.391Z</time>
      </trkpt>
      <trkpt lat="44.20698" lon="0.90661">
        <ele>144</ele>
        <time>2022-07-21T08:59:50.391Z</time>
      </trkpt>
      <trkpt lat="44.20698" lon="0.9066">
        <ele>144</ele>
        <time>2022-07-21T08:59:51.391Z</time>
      </trkpt>
      <trkpt lat="44.20698" lon="0.90658">
        <ele>144</ele>
        <time>2022-07-21T08:59:52.391Z</time>
      </trkpt>
      <trkpt lat="44.20699" lon="0.90657">
        <ele>145</ele>
        <time>2022-07-21T08:59:53.391Z</time>
      </trkpt>
      <trkpt lat="44.20699" lon="0.90656">
        <ele>145</ele>
        <time>2022-07-21T08:59:54.391Z</time>
      </trkpt>
      <trkpt lat="44.20699" lon="0.90655">
        <ele>146</ele>
        <time>2022-07-21T08:59:55.391Z</time>
      </trkpt>
      <trkpt lat="44.207" lon="0.90654">
        <ele>146</ele>
        <time>2022-07-21T08:59:56.391Z</time>
      </trkpt>
      <trkpt lat="44.207" lon="0.90653">
        <ele>146</ele>
        <time>2022-07-21T08:59:57.391Z</time>
      </trkpt>
      <trkpt lat="44.207" lon="0.90652">
        <ele>146</ele>
        <time>2022-07-21T08:59:58.391Z</time>
      </trkpt>
      <trkpt lat="44.207" lon="0.9065">
        <ele>147</ele>
        <time>2022-07-21T08:59:59.391Z</time>
      </trkpt>
      <trkpt lat="44.207" lon="0.90649">
        <ele>148</ele>
        <time>2022-07-21T09:00:00.391Z</time>
      </trkpt>
      <trkpt lat="44.207" lon="0.90649">
        <ele>148</ele>
        <time>2022-07-21T09:00:01.391Z</time>
      </trkpt>
      <trkpt lat="44.207" lon="0.90648">
        <ele>148</ele>
        <time>2022-07-21T09:00:02.391Z</time>
      </trkpt>
      <trkpt lat="44.20701" lon="0.90647">
        <ele>148</ele>
        <time>2022-07-21T09:00:03.391Z</time>
      </trkpt>
      <trkpt lat="44.20701" lon="0.90646">
        <ele>148</ele>
        <time>2022-07-21T09:00:04.391Z</time>
      </trkpt>
      <trkpt lat="44.20701" lon="0.90645">
        <ele>148</ele>
        <time>2022-07-21T09:00:05.391Z</time>
      </trkpt>
      <trkpt lat="44.20701" lon="0.90644">
        <ele>149</ele>
        <time>2022-07-21T09:00:06.391Z</time>
      </trkpt>
      <trkpt lat="44.20702" lon="0.90643">
        <ele>149</ele>
        <time>2022-07-21T09:00:07.391Z</time>
      </trkpt>
      <trkpt lat="44.20702" lon="0.90642">
        <ele>149</ele>
        <time>2022-07-21T09:00:08.391Z</time>
      </trkpt>
      <trkpt lat="44.20702" lon="0.90641">
        <ele>150</ele>
        <time>2022-07-21T09:00:09.391Z</time>
      </trkpt>
      <trkpt lat="44.20702" lon="0.9064">
        <ele>151</ele>
        <time>2022-07-21T09:00:10.391Z</time>
      </trkpt>
      <trkpt lat="44.20703" lon="0.90639">
        <ele>151</ele>
        <time>2022-07-21T09:00:11.391Z</time>
      </trkpt>
      <trkpt lat="44.20703" lon="0.90638">
        <ele>151</ele>
        <time>2022-07-21T09:00:12.391Z</time>
      </trkpt>
      <trkpt lat="44.20704" lon="0.90636">
        <ele>151</ele>
        <time>2022-07-21T09:00:13.391Z</time>
      </trkpt>
      <trkpt lat="44.20705" lon="0.90634">
        <ele>151</ele>
        <time>2022-07-21T09:00:14.391Z</time>
      </trkpt>
      <trkpt lat="44.20705" lon="0.90633">
        <ele>151</ele>
        <time>2022-07-21T09:00:15.391Z</time>
      </trkpt>
      <trkpt lat="44.20705" lon="0.90631">
        <ele>152</ele>
        <time>2022-07-21T09:00:16.391Z</time>
      </trkpt>
      <trkpt lat="44.20706" lon="0.9063">
        <ele>152</ele>
        <time>2022-07-21T09:00:17.391Z</time>
      </trkpt>
      <trkpt lat="44.20706" lon="0.90629">
        <ele>152</ele>
        <time>2022-07-21T09:00:18.391Z</time>
      </trkpt>
      <trkpt lat="44.20706" lon="0.90628">
        <ele>152</ele>
        <time>2022-07-21T09:00:19.391Z</time>
      </trkpt>
      <trkpt lat="44.20706" lon="0.90627">
        <ele>153</ele>
        <time>2022-07-21T09:00:20.391Z</time>
      </trkpt>
      <trkpt lat="44.20706" lon="0.90625">
        <ele>153</ele>
        <time>2022-07-21T09:00:21.391Z</time>
      </trkpt>
      <trkpt lat="44.20706" lon="0.90624">
        <ele>153</ele>
        <time>2022-07-21T09:00:22.391Z</time>
      </trkpt>
      <trkpt lat="44.20706" lon="0.90622">
        <ele>153</ele>
        <time>2022-07-21T09:00:23.391Z</time>
      </trkpt>
      <trkpt lat="44.20706" lon="0.90621">
        <ele>154</ele>
        <time>2022-07-21T09:00:24.391Z</time>
      </trkpt>
      <trkpt lat="44.20706" lon="0.90619">
        <ele>154</ele>
        <time>2022-07-21T09:00:25.391Z</time>
      </trkpt>
      <trkpt lat="44.20706" lon="0.90618">
        <ele>154</ele>
        <time>2022-07-21T09:00:26.391Z</time>
      </trkpt>
      <trkpt lat="44.20706" lon="0.90617">
        <ele>155</ele>
        <time>2022-07-21T09:00:27.391Z</time>
      </trkpt>
      <trkpt lat="44.20707" lon="0.90616">
        <ele>154</ele>
        <time>2022-07-21T09:00:28.391Z</time>
      </trkpt>
      <trkpt lat="44.20707" lon="0.90615">
        <ele>154</ele>
        <time>2022-07-21T09:00:29.391Z</time>
      </trkpt>
      <trkpt lat="44.20707" lon="0.90614">
        <ele>154</ele>
        <time>2022-07-21T09:00:30.391Z</time>
      </trkpt>
      <trkpt lat="44.20707" lon="0.90612">
        <ele>155</ele>
        <time>2022-07-21T09:00:31.391Z</time>
      </trkpt>
      <trkpt lat="44.20707" lon="0.90612">
        <ele>155</ele>
        <time>2022-07-21T09:00:32.391Z</time>
      </trkpt>
      <trkpt lat="44.20707" lon="0.90611">
        <ele>155</ele>
        <time>2022-07-21T09:00:33.391Z</time>
      </trkpt>
      <trkpt lat="44.20707" lon="0.9061">
        <ele>155</ele>
        <time>2022-07-21T09:00:34.391Z</time>
      </trkpt>
      <trkpt lat="44.20707" lon="0.9061">
        <ele>155</ele>
        <time>2022-07-21T09:00:35.391Z</time>
      </trkpt>
      <trkpt lat="44.20707" lon="0.9061">
        <ele>155</ele>
        <time>2022-07-21T09:00:36.391Z</time>
      </trkpt>
      <trkpt lat="44.20707" lon="0.9061">
        <ele>155</ele>
        <time>2022-07-21T09:00:37.391Z</time>
      </trkpt>
      <trkpt lat="44.20707" lon="0.90609">
        <ele>156</ele>
        <time>2022-07-21T09:00:38.391Z</time>
      </trkpt>
      <trkpt lat="44.20706" lon="0.90609">
        <ele>158</ele>
        <time>2022-07-21T09:00:39.391Z</time>
      </trkpt>
      <trkpt lat="44.20711" lon="0.90599">
        <ele>158</ele>
        <time>2022-07-21T09:01:22.399Z</time>
      </trkpt>
      <trkpt lat="44.20711" lon="0.90598">
        <ele>158</ele>
        <time>2022-07-21T09:01:23.399Z</time>
      </trkpt>
      <trkpt lat="44.20711" lon="0.90597">
        <ele>158</ele>
        <time>2022-07-21T09:01:24.399Z</time>
      </trkpt>
      <trkpt lat="44.20711" lon="0.90596">
        <ele>159</ele>
        <time>2022-07-21T09:01:25.399Z</time>
      </trkpt>
      <trkpt lat="44.20711" lon="0.90595">
        <ele>159</ele>
        <time>2022-07-21T09:01:26.399Z</time>
      </trkpt>
      <trkpt lat="44.20712" lon="0.90594">
        <ele>159</ele>
        <time>2022-07-21T09:01:27.399Z</time>
      </trkpt>
      <trkpt lat="44.20712" lon="0.90593">
        <ele>159</ele>
        <time>2022-07-21T09:01:28.399Z</time>
      </trkpt>
      <trkpt lat="44.20713" lon="0.90592">
        <ele>158</ele>
        <time>2022-07-21T09:01:29.399Z</time>
      </trkpt>
      <trkpt lat="44.20713" lon="0.90591">
        <ele>159</ele>
        <time>2022-07-21T09:01:30.399Z</time>
      </trkpt>
      <trkpt lat="44.20714" lon="0.90591">
        <ele>159</ele>
        <time>2022-07-21T09:01:31.399Z</time>
      </trkpt>
      <trkpt lat="44.20714" lon="0.9059">
        <ele>159</ele>
        <time>2022-07-21T09:01:32.399Z</time>
      </trkpt>
      <trkpt lat="44.20715" lon="0.9059">
        <ele>159</ele>
        <time>2022-07-21T09:01:33.399Z</time>
      </trkpt>
      <trkpt lat="44.20715" lon="0.90589">
        <ele>159</ele>
        <time>2022-07-21T09:01:34.399Z</time>
      </trkpt>
      <trkpt lat="44.20716" lon="0.90589">
        <ele>159</ele>
        <time>2022-07-21T09:01:35.399Z</time>
      </trkpt>
      <trkpt lat="44.20716" lon="0.90588">
        <ele>159</ele>
        <time>2022-07-21T09:01:36.399Z</time>
      </trkpt>
      <trkpt lat="44.20717" lon="0.90588">
        <ele>160</ele>
        <time>2022-07-21T09:01:37.399Z</time>
      </trkpt>
      <trkpt lat="44.20718" lon="0.90588">
        <ele>160</ele>
        <time>2022-07-21T09:01:38.399Z</time>
      </trkpt>
      <trkpt lat="44.20718" lon="0.90588">
        <ele>160</ele>
        <time>2022-07-21T09:01:39.399Z</time>
      </trkpt>
      <trkpt lat="44.20719" lon="0.90589">
        <ele>159</ele>
        <time>2022-07-21T09:01:40.399Z</time>
      </trkpt>
      <trkpt lat="44.20719" lon="0.90589">
        <ele>158</ele>
        <time>2022-07-21T09:01:41.399Z</time>
      </trkpt>
      <trkpt lat="44.2072" lon="0.9059">
        <ele>158</ele>
        <time>2022-07-21T09:01:42.399Z</time>
      </trkpt>
      <trkpt lat="44.2072" lon="0.90591">
        <ele>159</ele>
        <time>2022-07-21T09:01:43.399Z</time>
      </trkpt>
      <trkpt lat="44.20721" lon="0.90592">
        <ele>159</ele>
        <time>2022-07-21T09:01:44.399Z</time>
      </trkpt>
      <trkpt lat="44.20721" lon="0.90593">
        <ele>159</ele>
        <time>2022-07-21T09:01:45.399Z</time>
      </trkpt>
      <trkpt lat="44.20722" lon="0.90594">
        <ele>159</ele>
        <time>2022-07-21T09:01:46.399Z</time>
      </trkpt>
      <trkpt lat="44.20722" lon="0.90595">
        <ele>159</ele>
        <time>2022-07-21T09:01:47.399Z</time>
      </trkpt>
      <trkpt lat="44.20723" lon="0.90596">
        <ele>159</ele>
        <time>2022-07-21T09:01:48.399Z</time>
      </trkpt>
      <trkpt lat="44.20724" lon="0.90597">
        <ele>160</ele>
        <time>2022-07-21T09:01:49.399Z</time>
      </trkpt>
      <trkpt lat="44.20724" lon="0.90598">
        <ele>160</ele>
        <time>2022-07-21T09:01:50.399Z</time>
      </trkpt>
      <trkpt lat="44.20724" lon="0.90599">
        <ele>160</ele>
        <time>2022-07-21T09:01:51.399Z</time>
      </trkpt>
      <trkpt lat="44.20725" lon="0.90601">
        <ele>160</ele>
        <time>2022-07-21T09:01:52.399Z</time>
      </trkpt>
      <trkpt lat="44.20725" lon="0.90602">
        <ele>159</ele>
        <time>2022-07-21T09:01:53.399Z</time>
      </trkpt>
      <trkpt lat="44.20725" lon="0.90603">
        <ele>159</ele>
        <time>2022-07-21T09:01:54.399Z</time>
      </trkpt>
      <trkpt lat="44.20724" lon="0.90604">
        <ele>159</ele>
        <time>2022-07-21T09:01:55.399Z</time>
      </trkpt>
      <trkpt lat="44.20724" lon="0.90605">
        <ele>159</ele>
        <time>2022-07-21T09:01:56.399Z</time>
      </trkpt>
      <trkpt lat="44.20725" lon="0.90606">
        <ele>159</ele>
        <time>2022-07-21T09:01:57.399Z</time>
      </trkpt>
      <trkpt lat="44.20725" lon="0.90608">
        <ele>160</ele>
        <time>2022-07-21T09:01:58.399Z</time>
      </trkpt>
      <trkpt lat="44.20725" lon="0.90609">
        <ele>160</ele>
        <time>2022-07-21T09:01:59.399Z</time>
      </trkpt>
      <trkpt lat="44.20725" lon="0.9061">
        <ele>160</ele>
        <time>2022-07-21T09:02:00.399Z</time>
      </trkpt>
      <trkpt lat="44.20725" lon="0.90611">
        <ele>160</ele>
        <time>2022-07-21T09:02:01.399Z</time>
      </trkpt>
      <trkpt lat="44.20725" lon="0.90613">
        <ele>160</ele>
        <time>2022-07-21T09:02:02.399Z</time>
      </trkpt>
      <trkpt lat="44.20725" lon="0.90614">
        <ele>160</ele>
        <time>2022-07-21T09:02:03.399Z</time>
      </trkpt>
      <trkpt lat="44.20725" lon="0.90615">
        <ele>159</ele>
        <time>2022-07-21T09:02:04.399Z</time>
      </trkpt>
      <trkpt lat="44.20725" lon="0.90616">
        <ele>160</ele>
        <time>2022-07-21T09:02:05.399Z</time>
      </trkpt>
      <trkpt lat="44.20724" lon="0.90617">
        <ele>161</ele>
        <time>2022-07-21T09:02:06.399Z</time>
      </trkpt>
      <trkpt lat="44.20724" lon="0.90618">
        <ele>159</ele>
        <time>2022-07-21T09:02:07.399Z</time>
      </trkpt>
      <trkpt lat="44.20724" lon="0.90619">
        <ele>158</ele>
        <time>2022-07-21T09:02:08.399Z</time>
      </trkpt>
      <trkpt lat="44.20724" lon="0.9062">
        <ele>157</ele>
        <time>2022-07-21T09:02:09.399Z</time>
      </trkpt>
      <trkpt lat="44.20724" lon="0.90622">
        <ele>157</ele>
        <time>2022-07-21T09:02:10.399Z</time>
      </trkpt>
      <trkpt lat="44.20724" lon="0.90623">
        <ele>158</ele>
        <time>2022-07-21T09:02:11.399Z</time>
      </trkpt>
      <trkpt lat="44.20724" lon="0.90624">
        <ele>158</ele>
        <time>2022-07-21T09:02:12.399Z</time>
      </trkpt>
      <trkpt lat="44.20724" lon="0.90626">
        <ele>158</ele>
        <time>2022-07-21T09:02:13.399Z</time>
      </trkpt>
      <trkpt lat="44.20724" lon="0.90627">
        <ele>159</ele>
        <time>2022-07-21T09:02:14.399Z</time>
      </trkpt>
      <trkpt lat="44.20724" lon="0.90628">
        <ele>158</ele>
        <time>2022-07-21T09:02:15.399Z</time>
      </trkpt>
      <trkpt lat="44.20725" lon="0.90629">
        <ele>158</ele>
        <time>2022-07-21T09:02:16.399Z</time>
      </trkpt>
      <trkpt lat="44.20725" lon="0.9063">
        <ele>159</ele>
        <time>2022-07-21T09:02:17.399Z</time>
      </trkpt>
      <trkpt lat="44.20725" lon="0.90631">
        <ele>158</ele>
        <time>2022-07-21T09:02:18.399Z</time>
      </trkpt>
      <trkpt lat="44.20725" lon="0.90632">
        <ele>158</ele>
        <time>2022-07-21T09:02:19.399Z</time>
      </trkpt>
      <trkpt lat="44.20725" lon="0.90633">
        <ele>158</ele>
        <time>2022-07-21T09:02:20.399Z</time>
      </trkpt>
      <trkpt lat="44.20725" lon="0.90634">
        <ele>159</ele>
        <time>2022-07-21T09:02:21.399Z</time>
      </trkpt>
      <trkpt lat="44.20725" lon="0.90635">
        <ele>158</ele>
        <time>2022-07-21T09:02:22.399Z</time>
      </trkpt>
      <trkpt lat="44.20725" lon="0.90636">
        <ele>158</ele>
        <time>2022-07-21T09:02:23.399Z</time>
      </trkpt>
      <trkpt lat="44.20725" lon="0.90637">
        <ele>159</ele>
        <time>2022-07-21T09:02:24.399Z</time>
      </trkpt>
      <trkpt lat="44.20725" lon="0.90637">
        <ele>159</ele>
        <time>2022-07-21T09:02:25.399Z</time>
      </trkpt>
      <trkpt lat="44.20725" lon="0.90638">
        <ele>159</ele>
        <time>2022-07-21T09:02:26.399Z</time>
      </trkpt>
      <trkpt lat="44.20724" lon="0.90639">
        <ele>159</ele>
        <time>2022-07-21T09:02:27.399Z</time>
      </trkpt>
      <trkpt lat="44.20724" lon="0.90639">
        <ele>160</ele>
        <time>2022-07-21T09:02:28.399Z</time>
      </trkpt>
      <trkpt lat="44.20724" lon="0.90639">
        <ele>160</ele>
        <time>2022-07-21T09:02:29.399Z</time>
      </trkpt>
      <trkpt lat="44.20724" lon="0.90639">
        <ele>160</ele>
        <time>2022-07-21T09:02:30.399Z</time>
      </trkpt>
      <trkpt lat="44.20724" lon="0.90639">
        <ele>160</ele>
        <time>2022-07-21T09:02:31.399Z</time>
      </trkpt>
      <trkpt lat="44.20724" lon="0.90639">
        <ele>161</ele>
        <time>2022-07-21T09:02:32.399Z</time>
      </trkpt>
      <trkpt lat="44.20724" lon="0.90639">
        <ele>161</ele>
        <time>2022-07-21T09:02:33.399Z</time>
      </trkpt>
      <trkpt lat="44.20721" lon="0.90637">
        <ele>162</ele>
        <time>2022-07-21T09:05:03.423Z</time>
      </trkpt>
      <trkpt lat="44.20722" lon="0.90637">
        <ele>162</ele>
        <time>2022-07-21T09:05:04.423Z</time>
      </trkpt>
      <trkpt lat="44.20722" lon="0.90637">
        <ele>162</ele>
        <time>2022-07-21T09:05:05.423Z</time>
      </trkpt>
      <trkpt lat="44.20722" lon="0.90637">
        <ele>162</ele>
        <time>2022-07-21T09:05:06.423Z</time>
      </trkpt>
      <trkpt lat="44.20722" lon="0.90637">
        <ele>162</ele>
        <time>2022-07-21T09:05:07.423Z</time>
      </trkpt>
      <trkpt lat="44.20722" lon="0.90637">
        <ele>161</ele>
        <time>2022-07-21T09:05:08.423Z</time>
      </trkpt>
      <trkpt lat="44.20722" lon="0.90636">
        <ele>162</ele>
        <time>2022-07-21T09:05:09.423Z</time>
      </trkpt>
      <trkpt lat="44.20722" lon="0.9064">
        <ele>163</ele>
        <time>2022-07-21T09:07:32.435Z</time>
      </trkpt>
      <trkpt lat="44.20722" lon="0.90641">
        <ele>163</ele>
        <time>2022-07-21T09:07:33.435Z</time>
      </trkpt>
      <trkpt lat="44.20723" lon="0.90643">
        <ele>163</ele>
        <time>2022-07-21T09:07:34.435Z</time>
      </trkpt>
      <trkpt lat="44.20723" lon="0.90644">
        <ele>163</ele>
        <time>2022-07-21T09:07:35.435Z</time>
      </trkpt>
      <trkpt lat="44.20723" lon="0.90645">
        <ele>164</ele>
        <time>2022-07-21T09:07:36.435Z</time>
      </trkpt>
      <trkpt lat="44.20724" lon="0.90646">
        <ele>164</ele>
        <time>2022-07-21T09:07:37.435Z</time>
      </trkpt>
      <trkpt lat="44.20724" lon="0.90647">
        <ele>163</ele>
        <time>2022-07-21T09:07:38.435Z</time>
      </trkpt>
      <trkpt lat="44.20725" lon="0.90649">
        <ele>164</ele>
        <time>2022-07-21T09:07:39.435Z</time>
      </trkpt>
      <trkpt lat="44.20725" lon="0.9065">
        <ele>163</ele>
        <time>2022-07-21T09:07:40.435Z</time>
      </trkpt>
      <trkpt lat="44.20726" lon="0.90651">
        <ele>164</ele>
        <time>2022-07-21T09:07:41.435Z</time>
      </trkpt>
      <trkpt lat="44.20727" lon="0.90652">
        <ele>164</ele>
        <time>2022-07-21T09:07:42.435Z</time>
      </trkpt>
      <trkpt lat="44.20727" lon="0.90652">
        <ele>164</ele>
        <time>2022-07-21T09:07:43.435Z</time>
      </trkpt>
      <trkpt lat="44.20728" lon="0.90653">
        <ele>164</ele>
        <time>2022-07-21T09:07:44.435Z</time>
      </trkpt>
      <trkpt lat="44.20728" lon="0.90653">
        <ele>164</ele>
        <time>2022-07-21T09:07:45.435Z</time>
      </trkpt>
      <trkpt lat="44.20729" lon="0.90654">
        <ele>164</ele>
        <time>2022-07-21T09:07:46.435Z</time>
      </trkpt>
      <trkpt lat="44.2073" lon="0.90654">
        <ele>164</ele>
        <time>2022-07-21T09:07:47.435Z</time>
      </trkpt>
      <trkpt lat="44.20731" lon="0.90654">
        <ele>164</ele>
        <time>2022-07-21T09:07:48.435Z</time>
      </trkpt>
      <trkpt lat="44.20731" lon="0.90654">
        <ele>165</ele>
        <time>2022-07-21T09:07:49.435Z</time>
      </trkpt>
      <trkpt lat="44.20732" lon="0.90655">
        <ele>164</ele>
        <time>2022-07-21T09:07:50.435Z</time>
      </trkpt>
      <trkpt lat="44.20733" lon="0.90655">
        <ele>165</ele>
        <time>2022-07-21T09:07:51.435Z</time>
      </trkpt>
      <trkpt lat="44.20734" lon="0.90656">
        <ele>164</ele>
        <time>2022-07-21T09:07:52.435Z</time>
      </trkpt>
      <trkpt lat="44.20735" lon="0.90656">
        <ele>165</ele>
        <time>2022-07-21T09:07:53.435Z</time>
      </trkpt>
      <trkpt lat="44.20736" lon="0.90657">
        <ele>164</ele>
        <time>2022-07-21T09:07:54.435Z</time>
      </trkpt>
      <trkpt lat="44.20737" lon="0.90657">
        <ele>165</ele>
        <time>2022-07-21T09:07:55.435Z</time>
      </trkpt>
      <trkpt lat="44.20738" lon="0.90656">
        <ele>165</ele>
        <time>2022-07-21T09:07:56.435Z</time>
      </trkpt>
      <trkpt lat="44.20738" lon="0.90656">
        <ele>165</ele>
        <time>2022-07-21T09:07:57.435Z</time>
      </trkpt>
      <trkpt lat="44.20739" lon="0.90655">
        <ele>165</ele>
        <time>2022-07-21T09:07:58.435Z</time>
      </trkpt>
      <trkpt lat="44.20739" lon="0.90656">
        <ele>165</ele>
        <time>2022-07-21T09:07:59.435Z</time>
      </trkpt>
      <trkpt lat="44.20739" lon="0.90656">
        <ele>165</ele>
        <time>2022-07-21T09:08:00.435Z</time>
      </trkpt>
      <trkpt lat="44.20739" lon="0.90656">
        <ele>165</ele>
        <time>2022-07-21T09:08:01.435Z</time>
      </trkpt>
      <trkpt lat="44.20739" lon="0.90656">
        <ele>165</ele>
        <time>2022-07-21T09:08:02.435Z</time>
      </trkpt>
      <trkpt lat="44.2074" lon="0.90657">
        <ele>165</ele>
        <time>2022-07-21T09:08:03.435Z</time>
      </trkpt>
      <trkpt lat="44.2074" lon="0.90657">
        <ele>165</ele>
        <time>2022-07-21T09:08:04.435Z</time>
      </trkpt>
      <trkpt lat="44.2074" lon="0.90657">
        <ele>165</ele>
        <time>2022-07-21T09:08:05.435Z</time>
      </trkpt>
      <trkpt lat="44.20743" lon="0.90661">
        <ele>164</ele>
        <time>2022-07-21T09:08:38.451Z</time>
      </trkpt>
      <trkpt lat="44.20744" lon="0.90661">
        <ele>164</ele>
        <time>2022-07-21T09:08:39.451Z</time>
      </trkpt>
      <trkpt lat="44.20745" lon="0.90662">
        <ele>165</ele>
        <time>2022-07-21T09:08:40.451Z</time>
      </trkpt>
      <trkpt lat="44.20746" lon="0.90662">
        <ele>165</ele>
        <time>2022-07-21T09:08:41.451Z</time>
      </trkpt>
      <trkpt lat="44.20747" lon="0.90662">
        <ele>165</ele>
        <time>2022-07-21T09:08:42.451Z</time>
      </trkpt>
      <trkpt lat="44.20748" lon="0.90662">
        <ele>165</ele>
        <time>2022-07-21T09:08:43.451Z</time>
      </trkpt>
      <trkpt lat="44.20749" lon="0.90662">
        <ele>165</ele>
        <time>2022-07-21T09:08:44.451Z</time>
      </trkpt>
      <trkpt lat="44.20751" lon="0.90662">
        <ele>166</ele>
        <time>2022-07-21T09:08:45.451Z</time>
      </trkpt>
      <trkpt lat="44.20752" lon="0.90662">
        <ele>166</ele>
        <time>2022-07-21T09:08:46.451Z</time>
      </trkpt>
      <trkpt lat="44.20753" lon="0.90662">
        <ele>166</ele>
        <time>2022-07-21T09:08:47.451Z</time>
      </trkpt>
      <trkpt lat="44.20754" lon="0.90663">
        <ele>166</ele>
        <time>2022-07-21T09:08:48.451Z</time>
      </trkpt>
      <trkpt lat="44.20755" lon="0.90663">
        <ele>166</ele>
        <time>2022-07-21T09:08:49.451Z</time>
      </trkpt>
      <trkpt lat="44.20756" lon="0.90663">
        <ele>166</ele>
        <time>2022-07-21T09:08:50.451Z</time>
      </trkpt>
      <trkpt lat="44.20757" lon="0.90664">
        <ele>167</ele>
        <time>2022-07-21T09:08:51.451Z</time>
      </trkpt>
      <trkpt lat="44.20758" lon="0.90664">
        <ele>167</ele>
        <time>2022-07-21T09:08:52.451Z</time>
      </trkpt>
      <trkpt lat="44.20759" lon="0.90664">
        <ele>167</ele>
        <time>2022-07-21T09:08:53.451Z</time>
      </trkpt>
      <trkpt lat="44.2076" lon="0.90665">
        <ele>167</ele>
        <time>2022-07-21T09:08:54.451Z</time>
      </trkpt>
      <trkpt lat="44.20761" lon="0.90665">
        <ele>167</ele>
        <time>2022-07-21T09:08:55.451Z</time>
      </trkpt>
      <trkpt lat="44.20762" lon="0.90665">
        <ele>167</ele>
        <time>2022-07-21T09:08:56.451Z</time>
      </trkpt>
      <trkpt lat="44.20763" lon="0.90665">
        <ele>168</ele>
        <time>2022-07-21T09:08:57.451Z</time>
      </trkpt>
      <trkpt lat="44.20764" lon="0.90665">
        <ele>168</ele>
        <time>2022-07-21T09:08:58.451Z</time>
      </trkpt>
      <trkpt lat="44.20765" lon="0.90665">
        <ele>168</ele>
        <time>2022-07-21T09:08:59.451Z</time>
      </trkpt>
      <trkpt lat="44.20766" lon="0.90666">
        <ele>168</ele>
        <time>2022-07-21T09:09:00.451Z</time>
      </trkpt>
      <trkpt lat="44.20767" lon="0.90666">
        <ele>169</ele>
        <time>2022-07-21T09:09:01.451Z</time>
      </trkpt>
      <trkpt lat="44.20768" lon="0.90666">
        <ele>169</ele>
        <time>2022-07-21T09:09:02.451Z</time>
      </trkpt>
      <trkpt lat="44.20768" lon="0.90666">
        <ele>169</ele>
        <time>2022-07-21T09:09:03.451Z</time>
      </trkpt>
      <trkpt lat="44.2077" lon="0.90666">
        <ele>169</ele>
        <time>2022-07-21T09:09:04.451Z</time>
      </trkpt>
      <trkpt lat="44.20771" lon="0.90667">
        <ele>169</ele>
        <time>2022-07-21T09:09:05.451Z</time>
      </trkpt>
      <trkpt lat="44.20772" lon="0.90667">
        <ele>170</ele>
        <time>2022-07-21T09:09:06.451Z</time>
      </trkpt>
      <trkpt lat="44.20773" lon="0.90668">
        <ele>170</ele>
        <time>2022-07-21T09:09:07.451Z</time>
      </trkpt>
      <trkpt lat="44.20773" lon="0.90668">
        <ele>170</ele>
        <time>2022-07-21T09:09:08.451Z</time>
      </trkpt>
      <trkpt lat="44.20774" lon="0.90669">
        <ele>170</ele>
        <time>2022-07-21T09:09:09.451Z</time>
      </trkpt>
      <trkpt lat="44.20775" lon="0.90669">
        <ele>170</ele>
        <time>2022-07-21T09:09:10.451Z</time>
      </trkpt>
      <trkpt lat="44.20776" lon="0.9067">
        <ele>170</ele>
        <time>2022-07-21T09:09:11.451Z</time>
      </trkpt>
      <trkpt lat="44.20777" lon="0.9067">
        <ele>171</ele>
        <time>2022-07-21T09:09:12.451Z</time>
      </trkpt>
      <trkpt lat="44.20778" lon="0.90671">
        <ele>171</ele>
        <time>2022-07-21T09:09:13.451Z</time>
      </trkpt>
      <trkpt lat="44.20779" lon="0.90672">
        <ele>170</ele>
        <time>2022-07-21T09:09:14.451Z</time>
      </trkpt>
      <trkpt lat="44.20779" lon="0.90672">
        <ele>171</ele>
        <time>2022-07-21T09:09:15.451Z</time>
      </trkpt>
      <trkpt lat="44.2078" lon="0.90673">
        <ele>171</ele>
        <time>2022-07-21T09:09:16.451Z</time>
      </trkpt>
      <trkpt lat="44.20781" lon="0.90674">
        <ele>170</ele>
        <time>2022-07-21T09:09:17.451Z</time>
      </trkpt>
      <trkpt lat="44.20781" lon="0.90675">
        <ele>171</ele>
        <time>2022-07-21T09:09:18.451Z</time>
      </trkpt>
      <trkpt lat="44.20782" lon="0.90677">
        <ele>171</ele>
        <time>2022-07-21T09:09:19.451Z</time>
      </trkpt>
      <trkpt lat="44.20782" lon="0.90678">
        <ele>170</ele>
        <time>2022-07-21T09:09:20.451Z</time>
      </trkpt>
      <trkpt lat="44.20783" lon="0.9068">
        <ele>171</ele>
        <time>2022-07-21T09:09:21.451Z</time>
      </trkpt>
      <trkpt lat="44.20783" lon="0.90682">
        <ele>170</ele>
        <time>2022-07-21T09:09:22.451Z</time>
      </trkpt>
      <trkpt lat="44.20783" lon="0.90684">
        <ele>170</ele>
        <time>2022-07-21T09:09:23.451Z</time>
      </trkpt>
      <trkpt lat="44.20783" lon="0.90686">
        <ele>170</ele>
        <time>2022-07-21T09:09:24.451Z</time>
      </trkpt>
      <trkpt lat="44.20783" lon="0.90688">
        <ele>169</ele>
        <time>2022-07-21T09:09:25.451Z</time>
      </trkpt>
      <trkpt lat="44.20783" lon="0.90689">
        <ele>170</ele>
        <time>2022-07-21T09:09:26.451Z</time>
      </trkpt>
      <trkpt lat="44.20782" lon="0.90691">
        <ele>169</ele>
        <time>2022-07-21T09:09:27.451Z</time>
      </trkpt>
      <trkpt lat="44.20782" lon="0.90692">
        <ele>169</ele>
        <time>2022-07-21T09:09:28.451Z</time>
      </trkpt>
      <trkpt lat="44.20782" lon="0.90694">
        <ele>169</ele>
        <time>2022-07-21T09:09:29.451Z</time>
      </trkpt>
      <trkpt lat="44.20782" lon="0.90695">
        <ele>168</ele>
        <time>2022-07-21T09:09:30.451Z</time>
      </trkpt>
      <trkpt lat="44.20781" lon="0.90697">
        <ele>168</ele>
        <time>2022-07-21T09:09:31.451Z</time>
      </trkpt>
      <trkpt lat="44.20781" lon="0.90698">
        <ele>168</ele>
        <time>2022-07-21T09:09:32.451Z</time>
      </trkpt>
      <trkpt lat="44.20781" lon="0.907">
        <ele>168</ele>
        <time>2022-07-21T09:09:33.451Z</time>
      </trkpt>
      <trkpt lat="44.2078" lon="0.90701">
        <ele>168</ele>
        <time>2022-07-21T09:09:34.451Z</time>
      </trkpt>
      <trkpt lat="44.2078" lon="0.90703">
        <ele>168</ele>
        <time>2022-07-21T09:09:35.451Z</time>
      </trkpt>
      <trkpt lat="44.2078" lon="0.90704">
        <ele>167</ele>
        <time>2022-07-21T09:09:36.451Z</time>
      </trkpt>
      <trkpt lat="44.20779" lon="0.90706">
        <ele>168</ele>
        <time>2022-07-21T09:09:37.451Z</time>
      </trkpt>
      <trkpt lat="44.20779" lon="0.90708">
        <ele>167</ele>
        <time>2022-07-21T09:09:38.451Z</time>
      </trkpt>
      <trkpt lat="44.20779" lon="0.90709">
        <ele>167</ele>
        <time>2022-07-21T09:09:39.451Z</time>
      </trkpt>
      <trkpt lat="44.20778" lon="0.9071">
        <ele>167</ele>
        <time>2022-07-21T09:09:40.451Z</time>
      </trkpt>
      <trkpt lat="44.20778" lon="0.90712">
        <ele>167</ele>
        <time>2022-07-21T09:09:41.451Z</time>
      </trkpt>
      <trkpt lat="44.20778" lon="0.90713">
        <ele>167</ele>
        <time>2022-07-21T09:09:42.451Z</time>
      </trkpt>
      <trkpt lat="44.20777" lon="0.90714">
        <ele>166</ele>
        <time>2022-07-21T09:09:43.451Z</time>
      </trkpt>
      <trkpt lat="44.20777" lon="0.90716">
        <ele>166</ele>
        <time>2022-07-21T09:09:44.451Z</time>
      </trkpt>
      <trkpt lat="44.20776" lon="0.90718">
        <ele>166</ele>
        <time>2022-07-21T09:09:45.451Z</time>
      </trkpt>
      <trkpt lat="44.20776" lon="0.90719">
        <ele>166</ele>
        <time>2022-07-21T09:09:46.451Z</time>
      </trkpt>
      <trkpt lat="44.20775" lon="0.90721">
        <ele>166</ele>
        <time>2022-07-21T09:09:47.451Z</time>
      </trkpt>
      <trkpt lat="44.20775" lon="0.90722">
        <ele>166</ele>
        <time>2022-07-21T09:09:48.451Z</time>
      </trkpt>
      <trkpt lat="44.20775" lon="0.90724">
        <ele>166</ele>
        <time>2022-07-21T09:09:49.451Z</time>
      </trkpt>
      <trkpt lat="44.20775" lon="0.90725">
        <ele>166</ele>
        <time>2022-07-21T09:09:50.451Z</time>
      </trkpt>
      <trkpt lat="44.20775" lon="0.90727">
        <ele>165</ele>
        <time>2022-07-21T09:09:51.451Z</time>
      </trkpt>
      <trkpt lat="44.20775" lon="0.90728">
        <ele>166</ele>
        <time>2022-07-21T09:09:52.451Z</time>
      </trkpt>
      <trkpt lat="44.20775" lon="0.9073">
        <ele>166</ele>
        <time>2022-07-21T09:09:53.451Z</time>
      </trkpt>
      <trkpt lat="44.20775" lon="0.90732">
        <ele>166</ele>
        <time>2022-07-21T09:09:54.451Z</time>
      </trkpt>
      <trkpt lat="44.20776" lon="0.90733">
        <ele>166</ele>
        <time>2022-07-21T09:09:55.451Z</time>
      </trkpt>
      <trkpt lat="44.20776" lon="0.90734">
        <ele>166</ele>
        <time>2022-07-21T09:09:56.451Z</time>
      </trkpt>
      <trkpt lat="44.20777" lon="0.90736">
        <ele>166</ele>
        <time>2022-07-21T09:09:57.451Z</time>
      </trkpt>
      <trkpt lat="44.20777" lon="0.90737">
        <ele>166</ele>
        <time>2022-07-21T09:09:58.451Z</time>
      </trkpt>
      <trkpt lat="44.20777" lon="0.90738">
        <ele>166</ele>
        <time>2022-07-21T09:09:59.451Z</time>
      </trkpt>
      <trkpt lat="44.20778" lon="0.90739">
        <ele>166</ele>
        <time>2022-07-21T09:10:00.451Z</time>
      </trkpt>
      <trkpt lat="44.20779" lon="0.90741">
        <ele>165</ele>
        <time>2022-07-21T09:10:01.451Z</time>
      </trkpt>
      <trkpt lat="44.20779" lon="0.90742">
        <ele>165</ele>
        <time>2022-07-21T09:10:02.451Z</time>
      </trkpt>
      <trkpt lat="44.20779" lon="0.90743">
        <ele>166</ele>
        <time>2022-07-21T09:10:03.451Z</time>
      </trkpt>
      <trkpt lat="44.2078" lon="0.90744">
        <ele>166</ele>
        <time>2022-07-21T09:10:04.451Z</time>
      </trkpt>
      <trkpt lat="44.2078" lon="0.90746">
        <ele>166</ele>
        <time>2022-07-21T09:10:05.451Z</time>
      </trkpt>
      <trkpt lat="44.2078" lon="0.90747">
        <ele>166</ele>
        <time>2022-07-21T09:10:06.451Z</time>
      </trkpt>
      <trkpt lat="44.2078" lon="0.90748">
        <ele>166</ele>
        <time>2022-07-21T09:10:07.451Z</time>
      </trkpt>
      <trkpt lat="44.2078" lon="0.90748">
        <ele>166</ele>
        <time>2022-07-21T09:10:08.451Z</time>
      </trkpt>
      <trkpt lat="44.2078" lon="0.90748">
        <ele>166</ele>
        <time>2022-07-21T09:10:09.451Z</time>
      </trkpt>
      <trkpt lat="44.2078" lon="0.90748">
        <ele>166</ele>
        <time>2022-07-21T09:10:10.451Z</time>
      </trkpt>
      <trkpt lat="44.2078" lon="0.90748">
        <ele>166</ele>
        <time>2022-07-21T09:10:11.451Z</time>
      </trkpt>
      <trkpt lat="44.2078" lon="0.90748">
        <ele>166</ele>
        <time>2022-07-21T09:10:12.451Z</time>
      </trkpt>
      <trkpt lat="44.2078" lon="0.90748">
        <ele>166</ele>
        <time>2022-07-21T09:10:13.451Z</time>
      </trkpt>
      <trkpt lat="44.20784" lon="0.9075">
        <ele>167</ele>
        <time>2022-07-21T09:10:23.475Z</time>
      </trkpt>
      <trkpt lat="44.20785" lon="0.9075">
        <ele>167</ele>
        <time>2022-07-21T09:10:24.475Z</time>
      </trkpt>
      <trkpt lat="44.20787" lon="0.90752">
        <ele>166</ele>
        <time>2022-07-21T09:10:25.475Z</time>
      </trkpt>
      <trkpt lat="44.20788" lon="0.90753">
        <ele>167</ele>
        <time>2022-07-21T09:10:26.475Z</time>
      </trkpt>
      <trkpt lat="44.20789" lon="0.90754">
        <ele>167</ele>
        <time>2022-07-21T09:10:27.475Z</time>
      </trkpt>
      <trkpt lat="44.2079" lon="0.90756">
        <ele>168</ele>
        <time>2022-07-21T09:10:28.475Z</time>
      </trkpt>
      <trkpt lat="44.2079" lon="0.90757">
        <ele>168</ele>
        <time>2022-07-21T09:10:29.475Z</time>
      </trkpt>
      <trkpt lat="44.20791" lon="0.90758">
        <ele>168</ele>
        <time>2022-07-21T09:10:30.475Z</time>
      </trkpt>
      <trkpt lat="44.20792" lon="0.9076">
        <ele>168</ele>
        <time>2022-07-21T09:10:31.475Z</time>
      </trkpt>
      <trkpt lat="44.20793" lon="0.90761">
        <ele>169</ele>
        <time>2022-07-21T09:10:32.475Z</time>
      </trkpt>
      <trkpt lat="44.20793" lon="0.90763">
        <ele>168</ele>
        <time>2022-07-21T09:10:33.475Z</time>
      </trkpt>
      <trkpt lat="44.20794" lon="0.90764">
        <ele>169</ele>
        <time>2022-07-21T09:10:34.475Z</time>
      </trkpt>
      <trkpt lat="44.20795" lon="0.90765">
        <ele>168</ele>
        <time>2022-07-21T09:10:35.475Z</time>
      </trkpt>
      <trkpt lat="44.20795" lon="0.90766">
        <ele>169</ele>
        <time>2022-07-21T09:10:36.475Z</time>
      </trkpt>
      <trkpt lat="44.20796" lon="0.90767">
        <ele>168</ele>
        <time>2022-07-21T09:10:37.475Z</time>
      </trkpt>
      <trkpt lat="44.20796" lon="0.90769">
        <ele>169</ele>
        <time>2022-07-21T09:10:38.475Z</time>
      </trkpt>
      <trkpt lat="44.20797" lon="0.9077">
        <ele>169</ele>
        <time>2022-07-21T09:10:39.475Z</time>
      </trkpt>
      <trkpt lat="44.20797" lon="0.90771">
        <ele>169</ele>
        <time>2022-07-21T09:10:40.475Z</time>
      </trkpt>
      <trkpt lat="44.20798" lon="0.90772">
        <ele>169</ele>
        <time>2022-07-21T09:10:41.475Z</time>
      </trkpt>
      <trkpt lat="44.20798" lon="0.90774">
        <ele>170</ele>
        <time>2022-07-21T09:10:42.475Z</time>
      </trkpt>
      <trkpt lat="44.20799" lon="0.90775">
        <ele>170</ele>
        <time>2022-07-21T09:10:43.475Z</time>
      </trkpt>
      <trkpt lat="44.208" lon="0.90776">
        <ele>170</ele>
        <time>2022-07-21T09:10:44.475Z</time>
      </trkpt>
      <trkpt lat="44.208" lon="0.90777">
        <ele>170</ele>
        <time>2022-07-21T09:10:45.475Z</time>
      </trkpt>
      <trkpt lat="44.20801" lon="0.90778">
        <ele>171</ele>
        <time>2022-07-21T09:10:46.475Z</time>
      </trkpt>
      <trkpt lat="44.20801" lon="0.90779">
        <ele>171</ele>
        <time>2022-07-21T09:10:47.475Z</time>
      </trkpt>
      <trkpt lat="44.20802" lon="0.9078">
        <ele>171</ele>
        <time>2022-07-21T09:10:48.475Z</time>
      </trkpt>
      <trkpt lat="44.20803" lon="0.9078">
        <ele>171</ele>
        <time>2022-07-21T09:10:49.475Z</time>
      </trkpt>
      <trkpt lat="44.20804" lon="0.90781">
        <ele>171</ele>
        <time>2022-07-21T09:10:50.475Z</time>
      </trkpt>
      <trkpt lat="44.20805" lon="0.90781">
        <ele>171</ele>
        <time>2022-07-21T09:10:51.475Z</time>
      </trkpt>
      <trkpt lat="44.20806" lon="0.90781">
        <ele>172</ele>
        <time>2022-07-21T09:10:52.475Z</time>
      </trkpt>
      <trkpt lat="44.20807" lon="0.90781">
        <ele>172</ele>
        <time>2022-07-21T09:10:53.475Z</time>
      </trkpt>
      <trkpt lat="44.20808" lon="0.90781">
        <ele>172</ele>
        <time>2022-07-21T09:10:54.475Z</time>
      </trkpt>
      <trkpt lat="44.20809" lon="0.90782">
        <ele>171</ele>
        <time>2022-07-21T09:10:55.475Z</time>
      </trkpt>
      <trkpt lat="44.2081" lon="0.90782">
        <ele>172</ele>
        <time>2022-07-21T09:10:56.475Z</time>
      </trkpt>
      <trkpt lat="44.20811" lon="0.90782">
        <ele>172</ele>
        <time>2022-07-21T09:10:57.475Z</time>
      </trkpt>
      <trkpt lat="44.20812" lon="0.90783">
        <ele>173</ele>
        <time>2022-07-21T09:10:58.475Z</time>
      </trkpt>
      <trkpt lat="44.20814" lon="0.90783">
        <ele>173</ele>
        <time>2022-07-21T09:10:59.475Z</time>
      </trkpt>
      <trkpt lat="44.20815" lon="0.90784">
        <ele>173</ele>
        <time>2022-07-21T09:11:00.475Z</time>
      </trkpt>
      <trkpt lat="44.20816" lon="0.90784">
        <ele>174</ele>
        <time>2022-07-21T09:11:01.475Z</time>
      </trkpt>
      <trkpt lat="44.20817" lon="0.90784">
        <ele>174</ele>
        <time>2022-07-21T09:11:02.475Z</time>
      </trkpt>
      <trkpt lat="44.20818" lon="0.90785">
        <ele>173</ele>
        <time>2022-07-21T09:11:03.475Z</time>
      </trkpt>
      <trkpt lat="44.20819" lon="0.90785">
        <ele>173</ele>
        <time>2022-07-21T09:11:04.475Z</time>
      </trkpt>
      <trkpt lat="44.2082" lon="0.90786">
        <ele>174</ele>
        <time>2022-07-21T09:11:05.475Z</time>
      </trkpt>
      <trkpt lat="44.20821" lon="0.90786">
        <ele>174</ele>
        <time>2022-07-21T09:11:06.475Z</time>
      </trkpt>
      <trkpt lat="44.20822" lon="0.90787">
        <ele>174</ele>
        <time>2022-07-21T09:11:07.475Z</time>
      </trkpt>
      <trkpt lat="44.20823" lon="0.90787">
        <ele>174</ele>
        <time>2022-07-21T09:11:08.475Z</time>
      </trkpt>
      <trkpt lat="44.20824" lon="0.90788">
        <ele>174</ele>
        <time>2022-07-21T09:11:09.475Z</time>
      </trkpt>
      <trkpt lat="44.20825" lon="0.90788">
        <ele>174</ele>
        <time>2022-07-21T09:11:10.475Z</time>
      </trkpt>
      <trkpt lat="44.20826" lon="0.90788">
        <ele>174</ele>
        <time>2022-07-21T09:11:11.475Z</time>
      </trkpt>
      <trkpt lat="44.20828" lon="0.90789">
        <ele>174</ele>
        <time>2022-07-21T09:11:12.475Z</time>
      </trkpt>
      <trkpt lat="44.20829" lon="0.9079">
        <ele>174</ele>
        <time>2022-07-21T09:11:13.475Z</time>
      </trkpt>
      <trkpt lat="44.2083" lon="0.9079">
        <ele>174</ele>
        <time>2022-07-21T09:11:14.475Z</time>
      </trkpt>
      <trkpt lat="44.20831" lon="0.90791">
        <ele>174</ele>
        <time>2022-07-21T09:11:15.475Z</time>
      </trkpt>
      <trkpt lat="44.20832" lon="0.90791">
        <ele>174</ele>
        <time>2022-07-21T09:11:16.475Z</time>
      </trkpt>
      <trkpt lat="44.20833" lon="0.90791">
        <ele>174</ele>
        <time>2022-07-21T09:11:17.475Z</time>
      </trkpt>
      <trkpt lat="44.20834" lon="0.90792">
        <ele>174</ele>
        <time>2022-07-21T09:11:18.475Z</time>
      </trkpt>
      <trkpt lat="44.20835" lon="0.90792">
        <ele>174</ele>
        <time>2022-07-21T09:11:19.475Z</time>
      </trkpt>
      <trkpt lat="44.20836" lon="0.90792">
        <ele>174</ele>
        <time>2022-07-21T09:11:20.475Z</time>
      </trkpt>
      <trkpt lat="44.20837" lon="0.90792">
        <ele>174</ele>
        <time>2022-07-21T09:11:21.475Z</time>
      </trkpt>
      <trkpt lat="44.20839" lon="0.90792">
        <ele>173</ele>
        <time>2022-07-21T09:11:22.475Z</time>
      </trkpt>
      <trkpt lat="44.2084" lon="0.90793">
        <ele>174</ele>
        <time>2022-07-21T09:11:23.475Z</time>
      </trkpt>
      <trkpt lat="44.20841" lon="0.90793">
        <ele>174</ele>
        <time>2022-07-21T09:11:24.475Z</time>
      </trkpt>
      <trkpt lat="44.20842" lon="0.90794">
        <ele>174</ele>
        <time>2022-07-21T09:11:25.475Z</time>
      </trkpt>
      <trkpt lat="44.20843" lon="0.90795">
        <ele>173</ele>
        <time>2022-07-21T09:11:26.475Z</time>
      </trkpt>
      <trkpt lat="44.20844" lon="0.90795">
        <ele>173</ele>
        <time>2022-07-21T09:11:27.475Z</time>
      </trkpt>
      <trkpt lat="44.20845" lon="0.90796">
        <ele>173</ele>
        <time>2022-07-21T09:11:28.475Z</time>
      </trkpt>
      <trkpt lat="44.20846" lon="0.90796">
        <ele>173</ele>
        <time>2022-07-21T09:11:29.475Z</time>
      </trkpt>
      <trkpt lat="44.20847" lon="0.90797">
        <ele>173</ele>
        <time>2022-07-21T09:11:30.475Z</time>
      </trkpt>
      <trkpt lat="44.20848" lon="0.90797">
        <ele>173</ele>
        <time>2022-07-21T09:11:31.475Z</time>
      </trkpt>
      <trkpt lat="44.20849" lon="0.90797">
        <ele>173</ele>
        <time>2022-07-21T09:11:32.475Z</time>
      </trkpt>
      <trkpt lat="44.2085" lon="0.90798">
        <ele>173</ele>
        <time>2022-07-21T09:11:33.475Z</time>
      </trkpt>
      <trkpt lat="44.20851" lon="0.90798">
        <ele>173</ele>
        <time>2022-07-21T09:11:34.475Z</time>
      </trkpt>
      <trkpt lat="44.20853" lon="0.90798">
        <ele>173</ele>
        <time>2022-07-21T09:11:35.475Z</time>
      </trkpt>
      <trkpt lat="44.20854" lon="0.90798">
        <ele>174</ele>
        <time>2022-07-21T09:11:36.475Z</time>
      </trkpt>
      <trkpt lat="44.20855" lon="0.90798">
        <ele>174</ele>
        <time>2022-07-21T09:11:37.475Z</time>
      </trkpt>
      <trkpt lat="44.20855" lon="0.90798">
        <ele>174</ele>
        <time>2022-07-21T09:11:38.475Z</time>
      </trkpt>
      <trkpt lat="44.20856" lon="0.90799">
        <ele>174</ele>
        <time>2022-07-21T09:11:39.475Z</time>
      </trkpt>
      <trkpt lat="44.20857" lon="0.90799">
        <ele>174</ele>
        <time>2022-07-21T09:11:40.475Z</time>
      </trkpt>
      <trkpt lat="44.20858" lon="0.90799">
        <ele>174</ele>
        <time>2022-07-21T09:11:41.475Z</time>
      </trkpt>
      <trkpt lat="44.20859" lon="0.90798">
        <ele>175</ele>
        <time>2022-07-21T09:11:42.475Z</time>
      </trkpt>
      <trkpt lat="44.20859" lon="0.90798">
        <ele>174</ele>
        <time>2022-07-21T09:11:43.475Z</time>
      </trkpt>
      <trkpt lat="44.20859" lon="0.90798">
        <ele>174</ele>
        <time>2022-07-21T09:11:44.475Z</time>
      </trkpt>
      <trkpt lat="44.20859" lon="0.90798">
        <ele>174</ele>
        <time>2022-07-21T09:11:45.475Z</time>
      </trkpt>
      <trkpt lat="44.20859" lon="0.90798">
        <ele>173</ele>
        <time>2022-07-21T09:11:46.475Z</time>
      </trkpt>
      <trkpt lat="44.20859" lon="0.90799">
        <ele>173</ele>
        <time>2022-07-21T09:11:47.475Z</time>
      </trkpt>
      <trkpt lat="44.20859" lon="0.90799">
        <ele>173</ele>
        <time>2022-07-21T09:11:48.475Z</time>
      </trkpt>
      <trkpt lat="44.20859" lon="0.90799">
        <ele>174</ele>
        <time>2022-07-21T09:11:49.475Z</time>
      </trkpt>
      <trkpt lat="44.20859" lon="0.90799">
        <ele>174</ele>
        <time>2022-07-21T09:11:50.475Z</time>
      </trkpt>
      <trkpt lat="44.20859" lon="0.90799">
        <ele>174</ele>
        <time>2022-07-21T09:11:51.475Z</time>
      </trkpt>
      <trkpt lat="44.20859" lon="0.90799">
        <ele>174</ele>
        <time>2022-07-21T09:11:52.475Z</time>
      </trkpt>
      <trkpt lat="44.20861" lon="0.90802">
        <ele>174</ele>
        <time>2022-07-21T09:12:08.483Z</time>
      </trkpt>
      <trkpt lat="44.20861" lon="0.90801">
        <ele>174</ele>
        <time>2022-07-21T09:12:09.483Z</time>
      </trkpt>
      <trkpt lat="44.20862" lon="0.90801">
        <ele>174</ele>
        <time>2022-07-21T09:12:10.483Z</time>
      </trkpt>
      <trkpt lat="44.20862" lon="0.90801">
        <ele>173</ele>
        <time>2022-07-21T09:12:11.483Z</time>
      </trkpt>
      <trkpt lat="44.20862" lon="0.90801">
        <ele>174</ele>
        <time>2022-07-21T09:12:12.483Z</time>
      </trkpt>
      <trkpt lat="44.20862" lon="0.90801">
        <ele>173</ele>
        <time>2022-07-21T09:12:13.483Z</time>
      </trkpt>
      <trkpt lat="44.20862" lon="0.90801">
        <ele>173</ele>
        <time>2022-07-21T09:12:14.483Z</time>
      </trkpt>
      <trkpt lat="44.20862" lon="0.90801">
        <ele>173</ele>
        <time>2022-07-21T09:12:15.483Z</time>
      </trkpt>
      <trkpt lat="44.20863" lon="0.90801">
        <ele>174</ele>
        <time>2022-07-21T09:12:16.483Z</time>
      </trkpt>
      <trkpt lat="44.20863" lon="0.908">
        <ele>173</ele>
        <time>2022-07-21T09:12:17.483Z</time>
      </trkpt>
      <trkpt lat="44.20864" lon="0.908">
        <ele>173</ele>
        <time>2022-07-21T09:12:18.483Z</time>
      </trkpt>
      <trkpt lat="44.20864" lon="0.908">
        <ele>173</ele>
        <time>2022-07-21T09:12:19.483Z</time>
      </trkpt>
      <trkpt lat="44.20864" lon="0.908">
        <ele>173</ele>
        <time>2022-07-21T09:12:20.483Z</time>
      </trkpt>
      <trkpt lat="44.20864" lon="0.908">
        <ele>173</ele>
        <time>2022-07-21T09:12:21.483Z</time>
      </trkpt>
      <trkpt lat="44.20864" lon="0.90801">
        <ele>173</ele>
        <time>2022-07-21T09:12:22.483Z</time>
      </trkpt>
      <trkpt lat="44.20864" lon="0.90801">
        <ele>173</ele>
        <time>2022-07-21T09:12:23.483Z</time>
      </trkpt>
      <trkpt lat="44.20864" lon="0.90801">
        <ele>172</ele>
        <time>2022-07-21T09:12:24.483Z</time>
      </trkpt>
      <trkpt lat="44.20863" lon="0.90802">
        <ele>172</ele>
        <time>2022-07-21T09:12:25.483Z</time>
      </trkpt>
      <trkpt lat="44.20863" lon="0.90802">
        <ele>172</ele>
        <time>2022-07-21T09:12:26.483Z</time>
      </trkpt>
      <trkpt lat="44.20862" lon="0.90802">
        <ele>171</ele>
        <time>2022-07-21T09:12:27.483Z</time>
      </trkpt>
      <trkpt lat="44.20862" lon="0.90802">
        <ele>171</ele>
        <time>2022-07-21T09:12:28.483Z</time>
      </trkpt>
      <trkpt lat="44.20861" lon="0.90802">
        <ele>171</ele>
        <time>2022-07-21T09:12:29.483Z</time>
      </trkpt>
      <trkpt lat="44.20861" lon="0.90802">
        <ele>171</ele>
        <time>2022-07-21T09:12:30.483Z</time>
      </trkpt>
      <trkpt lat="44.20861" lon="0.90802">
        <ele>171</ele>
        <time>2022-07-21T09:12:31.483Z</time>
      </trkpt>
      <trkpt lat="44.2086" lon="0.90802">
        <ele>171</ele>
        <time>2022-07-21T09:12:32.483Z</time>
      </trkpt>
      <trkpt lat="44.2086" lon="0.90802">
        <ele>171</ele>
        <time>2022-07-21T09:12:33.483Z</time>
      </trkpt>
      <trkpt lat="44.2086" lon="0.90802">
        <ele>171</ele>
        <time>2022-07-21T09:12:34.483Z</time>
      </trkpt>
      <trkpt lat="44.2086" lon="0.90802">
        <ele>170</ele>
        <time>2022-07-21T09:12:35.483Z</time>
      </trkpt>
      <trkpt lat="44.20862" lon="0.90797">
        <ele>174</ele>
        <time>2022-07-21T09:13:04.487Z</time>
      </trkpt>
      <trkpt lat="44.20862" lon="0.90796">
        <ele>174</ele>
        <time>2022-07-21T09:13:05.487Z</time>
      </trkpt>
      <trkpt lat="44.20863" lon="0.90796">
        <ele>174</ele>
        <time>2022-07-21T09:13:06.487Z</time>
      </trkpt>
      <trkpt lat="44.20863" lon="0.90795">
        <ele>174</ele>
        <time>2022-07-21T09:13:07.487Z</time>
      </trkpt>
      <trkpt lat="44.20864" lon="0.90795">
        <ele>174</ele>
        <time>2022-07-21T09:13:08.487Z</time>
      </trkpt>
      <trkpt lat="44.20865" lon="0.90794">
        <ele>174</ele>
        <time>2022-07-21T09:13:09.487Z</time>
      </trkpt>
      <trkpt lat="44.20865" lon="0.90793">
        <ele>174</ele>
        <time>2022-07-21T09:13:10.487Z</time>
      </trkpt>
      <trkpt lat="44.20866" lon="0.90792">
        <ele>174</ele>
        <time>2022-07-21T09:13:11.487Z</time>
      </trkpt>
      <trkpt lat="44.20866" lon="0.90791">
        <ele>174</ele>
        <time>2022-07-21T09:13:12.487Z</time>
      </trkpt>
      <trkpt lat="44.20866" lon="0.9079">
        <ele>174</ele>
        <time>2022-07-21T09:13:13.487Z</time>
      </trkpt>
      <trkpt lat="44.20867" lon="0.90789">
        <ele>174</ele>
        <time>2022-07-21T09:13:14.487Z</time>
      </trkpt>
      <trkpt lat="44.20867" lon="0.90788">
        <ele>174</ele>
        <time>2022-07-21T09:13:15.487Z</time>
      </trkpt>
      <trkpt lat="44.20868" lon="0.90787">
        <ele>174</ele>
        <time>2022-07-21T09:13:16.487Z</time>
      </trkpt>
      <trkpt lat="44.20868" lon="0.90786">
        <ele>174</ele>
        <time>2022-07-21T09:13:17.487Z</time>
      </trkpt>
      <trkpt lat="44.20869" lon="0.90785">
        <ele>174</ele>
        <time>2022-07-21T09:13:18.487Z</time>
      </trkpt>
      <trkpt lat="44.20869" lon="0.90784">
        <ele>174</ele>
        <time>2022-07-21T09:13:19.487Z</time>
      </trkpt>
      <trkpt lat="44.2087" lon="0.90783">
        <ele>174</ele>
        <time>2022-07-21T09:13:20.487Z</time>
      </trkpt>
      <trkpt lat="44.2087" lon="0.90782">
        <ele>174</ele>
        <time>2022-07-21T09:13:21.487Z</time>
      </trkpt>
      <trkpt lat="44.20871" lon="0.90781">
        <ele>173</ele>
        <time>2022-07-21T09:13:22.487Z</time>
      </trkpt>
      <trkpt lat="44.20871" lon="0.9078">
        <ele>173</ele>
        <time>2022-07-21T09:13:23.487Z</time>
      </trkpt>
      <trkpt lat="44.20871" lon="0.9078">
        <ele>173</ele>
        <time>2022-07-21T09:13:24.487Z</time>
      </trkpt>
      <trkpt lat="44.20871" lon="0.9078">
        <ele>173</ele>
        <time>2022-07-21T09:13:25.487Z</time>
      </trkpt>
      <trkpt lat="44.20872" lon="0.9078">
        <ele>172</ele>
        <time>2022-07-21T09:13:26.487Z</time>
      </trkpt>
      <trkpt lat="44.20872" lon="0.9078">
        <ele>171</ele>
        <time>2022-07-21T09:13:27.487Z</time>
      </trkpt>
      <trkpt lat="44.20872" lon="0.90779">
        <ele>171</ele>
        <time>2022-07-21T09:13:28.487Z</time>
      </trkpt>
      <trkpt lat="44.20873" lon="0.90779">
        <ele>171</ele>
        <time>2022-07-21T09:13:29.487Z</time>
      </trkpt>
      <trkpt lat="44.20874" lon="0.90778">
        <ele>170</ele>
        <time>2022-07-21T09:13:30.487Z</time>
      </trkpt>
      <trkpt lat="44.20874" lon="0.90777">
        <ele>170</ele>
        <time>2022-07-21T09:13:31.487Z</time>
      </trkpt>
      <trkpt lat="44.20875" lon="0.90775">
        <ele>171</ele>
        <time>2022-07-21T09:13:32.487Z</time>
      </trkpt>
      <trkpt lat="44.20876" lon="0.90774">
        <ele>171</ele>
        <time>2022-07-21T09:13:33.487Z</time>
      </trkpt>
      <trkpt lat="44.20876" lon="0.90772">
        <ele>171</ele>
        <time>2022-07-21T09:13:34.487Z</time>
      </trkpt>
      <trkpt lat="44.20877" lon="0.90771">
        <ele>171</ele>
        <time>2022-07-21T09:13:35.487Z</time>
      </trkpt>
      <trkpt lat="44.20878" lon="0.90769">
        <ele>171</ele>
        <time>2022-07-21T09:13:36.487Z</time>
      </trkpt>
      <trkpt lat="44.20878" lon="0.90768">
        <ele>170</ele>
        <time>2022-07-21T09:13:37.487Z</time>
      </trkpt>
      <trkpt lat="44.20879" lon="0.90767">
        <ele>170</ele>
        <time>2022-07-21T09:13:38.487Z</time>
      </trkpt>
      <trkpt lat="44.2088" lon="0.90766">
        <ele>171</ele>
        <time>2022-07-21T09:13:39.487Z</time>
      </trkpt>
      <trkpt lat="44.2088" lon="0.90765">
        <ele>170</ele>
        <time>2022-07-21T09:13:40.487Z</time>
      </trkpt>
      <trkpt lat="44.20881" lon="0.90763">
        <ele>171</ele>
        <time>2022-07-21T09:13:41.487Z</time>
      </trkpt>
      <trkpt lat="44.20882" lon="0.90761">
        <ele>171</ele>
        <time>2022-07-21T09:13:42.487Z</time>
      </trkpt>
      <trkpt lat="44.20883" lon="0.9076">
        <ele>171</ele>
        <time>2022-07-21T09:13:43.487Z</time>
      </trkpt>
      <trkpt lat="44.20884" lon="0.90758">
        <ele>171</ele>
        <time>2022-07-21T09:13:44.487Z</time>
      </trkpt>
      <trkpt lat="44.20884" lon="0.90757">
        <ele>171</ele>
        <time>2022-07-21T09:13:45.487Z</time>
      </trkpt>
      <trkpt lat="44.20885" lon="0.90755">
        <ele>172</ele>
        <time>2022-07-21T09:13:46.487Z</time>
      </trkpt>
      <trkpt lat="44.20886" lon="0.90754">
        <ele>173</ele>
        <time>2022-07-21T09:13:47.487Z</time>
      </trkpt>
      <trkpt lat="44.20887" lon="0.90752">
        <ele>173</ele>
        <time>2022-07-21T09:13:48.487Z</time>
      </trkpt>
      <trkpt lat="44.20888" lon="0.90751">
        <ele>172</ele>
        <time>2022-07-21T09:13:49.487Z</time>
      </trkpt>
      <trkpt lat="44.20888" lon="0.9075">
        <ele>172</ele>
        <time>2022-07-21T09:13:50.487Z</time>
      </trkpt>
      <trkpt lat="44.20889" lon="0.90748">
        <ele>172</ele>
        <time>2022-07-21T09:13:51.487Z</time>
      </trkpt>
      <trkpt lat="44.2089" lon="0.90747">
        <ele>172</ele>
        <time>2022-07-21T09:13:52.487Z</time>
      </trkpt>
      <trkpt lat="44.2089" lon="0.90746">
        <ele>172</ele>
        <time>2022-07-21T09:13:53.487Z</time>
      </trkpt>
      <trkpt lat="44.20891" lon="0.90745">
        <ele>172</ele>
        <time>2022-07-21T09:13:54.487Z</time>
      </trkpt>
      <trkpt lat="44.20892" lon="0.90744">
        <ele>172</ele>
        <time>2022-07-21T09:13:55.487Z</time>
      </trkpt>
      <trkpt lat="44.20893" lon="0.90742">
        <ele>171</ele>
        <time>2022-07-21T09:13:56.487Z</time>
      </trkpt>
      <trkpt lat="44.20893" lon="0.90741">
        <ele>172</ele>
        <time>2022-07-21T09:13:57.487Z</time>
      </trkpt>
      <trkpt lat="44.20894" lon="0.9074">
        <ele>172</ele>
        <time>2022-07-21T09:13:58.487Z</time>
      </trkpt>
      <trkpt lat="44.20895" lon="0.90739">
        <ele>171</ele>
        <time>2022-07-21T09:13:59.487Z</time>
      </trkpt>
      <trkpt lat="44.20896" lon="0.90737">
        <ele>172</ele>
        <time>2022-07-21T09:14:00.487Z</time>
      </trkpt>
      <trkpt lat="44.20896" lon="0.90736">
        <ele>171</ele>
        <time>2022-07-21T09:14:01.487Z</time>
      </trkpt>
      <trkpt lat="44.20897" lon="0.90734">
        <ele>171</ele>
        <time>2022-07-21T09:14:02.487Z</time>
      </trkpt>
      <trkpt lat="44.20898" lon="0.90733">
        <ele>171</ele>
        <time>2022-07-21T09:14:03.487Z</time>
      </trkpt>
      <trkpt lat="44.20898" lon="0.90732">
        <ele>171</ele>
        <time>2022-07-21T09:14:04.487Z</time>
      </trkpt>
      <trkpt lat="44.20899" lon="0.90731">
        <ele>171</ele>
        <time>2022-07-21T09:14:05.487Z</time>
      </trkpt>
      <trkpt lat="44.209" lon="0.9073">
        <ele>172</ele>
        <time>2022-07-21T09:14:06.487Z</time>
      </trkpt>
      <trkpt lat="44.20901" lon="0.90728">
        <ele>172</ele>
        <time>2022-07-21T09:14:07.487Z</time>
      </trkpt>
      <trkpt lat="44.20902" lon="0.90727">
        <ele>172</ele>
        <time>2022-07-21T09:14:08.487Z</time>
      </trkpt>
      <trkpt lat="44.20903" lon="0.90725">
        <ele>172</ele>
        <time>2022-07-21T09:14:09.487Z</time>
      </trkpt>
      <trkpt lat="44.20903" lon="0.90724">
        <ele>172</ele>
        <time>2022-07-21T09:14:10.487Z</time>
      </trkpt>
      <trkpt lat="44.20904" lon="0.90722">
        <ele>171</ele>
        <time>2022-07-21T09:14:11.487Z</time>
      </trkpt>
      <trkpt lat="44.20905" lon="0.90721">
        <ele>172</ele>
        <time>2022-07-21T09:14:12.487Z</time>
      </trkpt>
      <trkpt lat="44.20906" lon="0.9072">
        <ele>172</ele>
        <time>2022-07-21T09:14:13.487Z</time>
      </trkpt>
      <trkpt lat="44.20907" lon="0.90718">
        <ele>172</ele>
        <time>2022-07-21T09:14:14.487Z</time>
      </trkpt>
      <trkpt lat="44.20907" lon="0.90717">
        <ele>172</ele>
        <time>2022-07-21T09:14:15.487Z</time>
      </trkpt>
      <trkpt lat="44.20908" lon="0.90716">
        <ele>172</ele>
        <time>2022-07-21T09:14:16.487Z</time>
      </trkpt>
      <trkpt lat="44.20909" lon="0.90714">
        <ele>172</ele>
        <time>2022-07-21T09:14:17.487Z</time>
      </trkpt>
      <trkpt lat="44.2091" lon="0.90713">
        <ele>172</ele>
        <time>2022-07-21T09:14:18.487Z</time>
      </trkpt>
      <trkpt lat="44.2091" lon="0.90712">
        <ele>172</ele>
        <time>2022-07-21T09:14:19.487Z</time>
      </trkpt>
      <trkpt lat="44.20911" lon="0.90711">
        <ele>172</ele>
        <time>2022-07-21T09:14:20.487Z</time>
      </trkpt>
      <trkpt lat="44.20912" lon="0.9071">
        <ele>172</ele>
        <time>2022-07-21T09:14:21.487Z</time>
      </trkpt>
      <trkpt lat="44.20913" lon="0.90708">
        <ele>172</ele>
        <time>2022-07-21T09:14:22.487Z</time>
      </trkpt>
      <trkpt lat="44.20913" lon="0.90707">
        <ele>172</ele>
        <time>2022-07-21T09:14:23.487Z</time>
      </trkpt>
      <trkpt lat="44.20914" lon="0.90706">
        <ele>172</ele>
        <time>2022-07-21T09:14:24.487Z</time>
      </trkpt>
      <trkpt lat="44.20915" lon="0.90704">
        <ele>172</ele>
        <time>2022-07-21T09:14:25.487Z</time>
      </trkpt>
      <trkpt lat="44.20916" lon="0.90703">
        <ele>172</ele>
        <time>2022-07-21T09:14:26.487Z</time>
      </trkpt>
      <trkpt lat="44.20916" lon="0.90702">
        <ele>172</ele>
        <time>2022-07-21T09:14:27.487Z</time>
      </trkpt>
      <trkpt lat="44.20917" lon="0.90701">
        <ele>172</ele>
        <time>2022-07-21T09:14:28.487Z</time>
      </trkpt>
      <trkpt lat="44.20918" lon="0.907">
        <ele>173</ele>
        <time>2022-07-21T09:14:29.487Z</time>
      </trkpt>
      <trkpt lat="44.20919" lon="0.90699">
        <ele>172</ele>
        <time>2022-07-21T09:14:30.487Z</time>
      </trkpt>
      <trkpt lat="44.2092" lon="0.90697">
        <ele>172</ele>
        <time>2022-07-21T09:14:31.487Z</time>
      </trkpt>
      <trkpt lat="44.2092" lon="0.90696">
        <ele>172</ele>
        <time>2022-07-21T09:14:32.487Z</time>
      </trkpt>
      <trkpt lat="44.20921" lon="0.90695">
        <ele>172</ele>
        <time>2022-07-21T09:14:33.487Z</time>
      </trkpt>
      <trkpt lat="44.20921" lon="0.90694">
        <ele>172</ele>
        <time>2022-07-21T09:14:34.487Z</time>
      </trkpt>
      <trkpt lat="44.20922" lon="0.90692">
        <ele>172</ele>
        <time>2022-07-21T09:14:35.487Z</time>
      </trkpt>
      <trkpt lat="44.20923" lon="0.90691">
        <ele>172</ele>
        <time>2022-07-21T09:14:36.487Z</time>
      </trkpt>
      <trkpt lat="44.20923" lon="0.90689">
        <ele>172</ele>
        <time>2022-07-21T09:14:37.487Z</time>
      </trkpt>
      <trkpt lat="44.20924" lon="0.90688">
        <ele>172</ele>
        <time>2022-07-21T09:14:38.487Z</time>
      </trkpt>
      <trkpt lat="44.20925" lon="0.90687">
        <ele>172</ele>
        <time>2022-07-21T09:14:39.487Z</time>
      </trkpt>
      <trkpt lat="44.20926" lon="0.90685">
        <ele>172</ele>
        <time>2022-07-21T09:14:40.487Z</time>
      </trkpt>
      <trkpt lat="44.20927" lon="0.90684">
        <ele>172</ele>
        <time>2022-07-21T09:14:41.487Z</time>
      </trkpt>
      <trkpt lat="44.20927" lon="0.90683">
        <ele>172</ele>
        <time>2022-07-21T09:14:42.487Z</time>
      </trkpt>
      <trkpt lat="44.20928" lon="0.90682">
        <ele>172</ele>
        <time>2022-07-21T09:14:43.487Z</time>
      </trkpt>
      <trkpt lat="44.20929" lon="0.90681">
        <ele>172</ele>
        <time>2022-07-21T09:14:44.487Z</time>
      </trkpt>
      <trkpt lat="44.20929" lon="0.9068">
        <ele>171</ele>
        <time>2022-07-21T09:14:45.487Z</time>
      </trkpt>
      <trkpt lat="44.2093" lon="0.90679">
        <ele>171</ele>
        <time>2022-07-21T09:14:46.487Z</time>
      </trkpt>
      <trkpt lat="44.20931" lon="0.90678">
        <ele>171</ele>
        <time>2022-07-21T09:14:47.487Z</time>
      </trkpt>
      <trkpt lat="44.20931" lon="0.90677">
        <ele>171</ele>
        <time>2022-07-21T09:14:48.487Z</time>
      </trkpt>
      <trkpt lat="44.20932" lon="0.90676">
        <ele>171</ele>
        <time>2022-07-21T09:14:49.487Z</time>
      </trkpt>
      <trkpt lat="44.20932" lon="0.90674">
        <ele>171</ele>
        <time>2022-07-21T09:14:50.487Z</time>
      </trkpt>
      <trkpt lat="44.20933" lon="0.90673">
        <ele>170</ele>
        <time>2022-07-21T09:14:51.487Z</time>
      </trkpt>
      <trkpt lat="44.20934" lon="0.90672">
        <ele>170</ele>
        <time>2022-07-21T09:14:52.487Z</time>
      </trkpt>
      <trkpt lat="44.20934" lon="0.90671">
        <ele>170</ele>
        <time>2022-07-21T09:14:53.487Z</time>
      </trkpt>
      <trkpt lat="44.20935" lon="0.9067">
        <ele>170</ele>
        <time>2022-07-21T09:14:54.487Z</time>
      </trkpt>
      <trkpt lat="44.20936" lon="0.90669">
        <ele>170</ele>
        <time>2022-07-21T09:14:55.487Z</time>
      </trkpt>
      <trkpt lat="44.20936" lon="0.90668">
        <ele>169</ele>
        <time>2022-07-21T09:14:56.487Z</time>
      </trkpt>
      <trkpt lat="44.20936" lon="0.90668">
        <ele>169</ele>
        <time>2022-07-21T09:14:57.487Z</time>
      </trkpt>
      <trkpt lat="44.20937" lon="0.90667">
        <ele>169</ele>
        <time>2022-07-21T09:14:58.487Z</time>
      </trkpt>
      <trkpt lat="44.20938" lon="0.90665">
        <ele>170</ele>
        <time>2022-07-21T09:14:59.487Z</time>
      </trkpt>
      <trkpt lat="44.20939" lon="0.90664">
        <ele>169</ele>
        <time>2022-07-21T09:15:00.487Z</time>
      </trkpt>
      <trkpt lat="44.20939" lon="0.90663">
        <ele>169</ele>
        <time>2022-07-21T09:15:01.487Z</time>
      </trkpt>
      <trkpt lat="44.2094" lon="0.90662">
        <ele>169</ele>
        <time>2022-07-21T09:15:02.487Z</time>
      </trkpt>
      <trkpt lat="44.20941" lon="0.90661">
        <ele>169</ele>
        <time>2022-07-21T09:15:03.487Z</time>
      </trkpt>
      <trkpt lat="44.20941" lon="0.90659">
        <ele>169</ele>
        <time>2022-07-21T09:15:04.487Z</time>
      </trkpt>
      <trkpt lat="44.20942" lon="0.90658">
        <ele>169</ele>
        <time>2022-07-21T09:15:05.487Z</time>
      </trkpt>
      <trkpt lat="44.20943" lon="0.90656">
        <ele>170</ele>
        <time>2022-07-21T09:15:06.487Z</time>
      </trkpt>
      <trkpt lat="44.20944" lon="0.90655">
        <ele>170</ele>
        <time>2022-07-21T09:15:07.487Z</time>
      </trkpt>
      <trkpt lat="44.20945" lon="0.90654">
        <ele>169</ele>
        <time>2022-07-21T09:15:08.487Z</time>
      </trkpt>
      <trkpt lat="44.20945" lon="0.90653">
        <ele>169</ele>
        <time>2022-07-21T09:15:09.487Z</time>
      </trkpt>
      <trkpt lat="44.20946" lon="0.90652">
        <ele>169</ele>
        <time>2022-07-21T09:15:10.487Z</time>
      </trkpt>
      <trkpt lat="44.20946" lon="0.9065">
        <ele>169</ele>
        <time>2022-07-21T09:15:11.487Z</time>
      </trkpt>
      <trkpt lat="44.20947" lon="0.90649">
        <ele>169</ele>
        <time>2022-07-21T09:15:12.487Z</time>
      </trkpt>
      <trkpt lat="44.20948" lon="0.90647">
        <ele>169</ele>
        <time>2022-07-21T09:15:13.487Z</time>
      </trkpt>
      <trkpt lat="44.20949" lon="0.90646">
        <ele>169</ele>
        <time>2022-07-21T09:15:14.487Z</time>
      </trkpt>
      <trkpt lat="44.20949" lon="0.90645">
        <ele>169</ele>
        <time>2022-07-21T09:15:15.487Z</time>
      </trkpt>
      <trkpt lat="44.2095" lon="0.90644">
        <ele>169</ele>
        <time>2022-07-21T09:15:16.487Z</time>
      </trkpt>
      <trkpt lat="44.20951" lon="0.90642">
        <ele>169</ele>
        <time>2022-07-21T09:15:17.487Z</time>
      </trkpt>
      <trkpt lat="44.20951" lon="0.90641">
        <ele>169</ele>
        <time>2022-07-21T09:15:18.487Z</time>
      </trkpt>
      <trkpt lat="44.20952" lon="0.9064">
        <ele>169</ele>
        <time>2022-07-21T09:15:19.487Z</time>
      </trkpt>
      <trkpt lat="44.20953" lon="0.90639">
        <ele>169</ele>
        <time>2022-07-21T09:15:20.487Z</time>
      </trkpt>
      <trkpt lat="44.20953" lon="0.90637">
        <ele>169</ele>
        <time>2022-07-21T09:15:21.487Z</time>
      </trkpt>
      <trkpt lat="44.20954" lon="0.90636">
        <ele>169</ele>
        <time>2022-07-21T09:15:22.487Z</time>
      </trkpt>
      <trkpt lat="44.20954" lon="0.90636">
        <ele>169</ele>
        <time>2022-07-21T09:15:23.487Z</time>
      </trkpt>
      <trkpt lat="44.20955" lon="0.90635">
        <ele>169</ele>
        <time>2022-07-21T09:15:24.487Z</time>
      </trkpt>
      <trkpt lat="44.20956" lon="0.90634">
        <ele>168</ele>
        <time>2022-07-21T09:15:25.487Z</time>
      </trkpt>
      <trkpt lat="44.20956" lon="0.90633">
        <ele>167</ele>
        <time>2022-07-21T09:15:26.487Z</time>
      </trkpt>
      <trkpt lat="44.20957" lon="0.90632">
        <ele>166</ele>
        <time>2022-07-21T09:15:27.487Z</time>
      </trkpt>
      <trkpt lat="44.20957" lon="0.90632">
        <ele>167</ele>
        <time>2022-07-21T09:15:28.487Z</time>
      </trkpt>
      <trkpt lat="44.20957" lon="0.90632">
        <ele>166</ele>
        <time>2022-07-21T09:15:29.487Z</time>
      </trkpt>
      <trkpt lat="44.20958" lon="0.90631">
        <ele>166</ele>
        <time>2022-07-21T09:15:30.487Z</time>
      </trkpt>
      <trkpt lat="44.20958" lon="0.9063">
        <ele>166</ele>
        <time>2022-07-21T09:15:31.487Z</time>
      </trkpt>
      <trkpt lat="44.20959" lon="0.90629">
        <ele>166</ele>
        <time>2022-07-21T09:15:32.487Z</time>
      </trkpt>
      <trkpt lat="44.2096" lon="0.90628">
        <ele>166</ele>
        <time>2022-07-21T09:15:33.487Z</time>
      </trkpt>
      <trkpt lat="44.2096" lon="0.90627">
        <ele>166</ele>
        <time>2022-07-21T09:15:34.487Z</time>
      </trkpt>
      <trkpt lat="44.20961" lon="0.90626">
        <ele>166</ele>
        <time>2022-07-21T09:15:35.487Z</time>
      </trkpt>
      <trkpt lat="44.20961" lon="0.90625">
        <ele>166</ele>
        <time>2022-07-21T09:15:36.487Z</time>
      </trkpt>
      <trkpt lat="44.20962" lon="0.90624">
        <ele>166</ele>
        <time>2022-07-21T09:15:37.487Z</time>
      </trkpt>
      <trkpt lat="44.20963" lon="0.90623">
        <ele>166</ele>
        <time>2022-07-21T09:15:38.487Z</time>
      </trkpt>
      <trkpt lat="44.20963" lon="0.90622">
        <ele>166</ele>
        <time>2022-07-21T09:15:39.487Z</time>
      </trkpt>
      <trkpt lat="44.20964" lon="0.90621">
        <ele>165</ele>
        <time>2022-07-21T09:15:40.487Z</time>
      </trkpt>
      <trkpt lat="44.20964" lon="0.90619">
        <ele>165</ele>
        <time>2022-07-21T09:15:41.487Z</time>
      </trkpt>
      <trkpt lat="44.20964" lon="0.90617">
        <ele>165</ele>
        <time>2022-07-21T09:15:42.487Z</time>
      </trkpt>
      <trkpt lat="44.20964" lon="0.90616">
        <ele>165</ele>
        <time>2022-07-21T09:15:43.487Z</time>
      </trkpt>
      <trkpt lat="44.20965" lon="0.90614">
        <ele>165</ele>
        <time>2022-07-21T09:15:44.487Z</time>
      </trkpt>
      <trkpt lat="44.20966" lon="0.90613">
        <ele>165</ele>
        <time>2022-07-21T09:15:45.487Z</time>
      </trkpt>
      <trkpt lat="44.20966" lon="0.90612">
        <ele>165</ele>
        <time>2022-07-21T09:15:46.487Z</time>
      </trkpt>
      <trkpt lat="44.20967" lon="0.9061">
        <ele>164</ele>
        <time>2022-07-21T09:15:47.487Z</time>
      </trkpt>
      <trkpt lat="44.20968" lon="0.90609">
        <ele>165</ele>
        <time>2022-07-21T09:15:48.487Z</time>
      </trkpt>
      <trkpt lat="44.20969" lon="0.90608">
        <ele>164</ele>
        <time>2022-07-21T09:15:49.487Z</time>
      </trkpt>
      <trkpt lat="44.20969" lon="0.90606">
        <ele>164</ele>
        <time>2022-07-21T09:15:50.487Z</time>
      </trkpt>
      <trkpt lat="44.2097" lon="0.90604">
        <ele>164</ele>
        <time>2022-07-21T09:15:51.487Z</time>
      </trkpt>
      <trkpt lat="44.20971" lon="0.90603">
        <ele>165</ele>
        <time>2022-07-21T09:15:52.487Z</time>
      </trkpt>
      <trkpt lat="44.20972" lon="0.90602">
        <ele>164</ele>
        <time>2022-07-21T09:15:53.487Z</time>
      </trkpt>
      <trkpt lat="44.20972" lon="0.906">
        <ele>164</ele>
        <time>2022-07-21T09:15:54.487Z</time>
      </trkpt>
      <trkpt lat="44.20973" lon="0.90599">
        <ele>164</ele>
        <time>2022-07-21T09:15:55.487Z</time>
      </trkpt>
      <trkpt lat="44.20974" lon="0.90598">
        <ele>163</ele>
        <time>2022-07-21T09:15:56.487Z</time>
      </trkpt>
      <trkpt lat="44.20975" lon="0.90596">
        <ele>164</ele>
        <time>2022-07-21T09:15:57.487Z</time>
      </trkpt>
      <trkpt lat="44.20975" lon="0.90595">
        <ele>164</ele>
        <time>2022-07-21T09:15:58.487Z</time>
      </trkpt>
      <trkpt lat="44.20976" lon="0.90593">
        <ele>164</ele>
        <time>2022-07-21T09:15:59.487Z</time>
      </trkpt>
      <trkpt lat="44.20977" lon="0.90591">
        <ele>164</ele>
        <time>2022-07-21T09:16:00.487Z</time>
      </trkpt>
      <trkpt lat="44.20978" lon="0.9059">
        <ele>164</ele>
        <time>2022-07-21T09:16:01.487Z</time>
      </trkpt>
      <trkpt lat="44.20978" lon="0.90588">
        <ele>164</ele>
        <time>2022-07-21T09:16:02.487Z</time>
      </trkpt>
      <trkpt lat="44.20979" lon="0.90587">
        <ele>164</ele>
        <time>2022-07-21T09:16:03.487Z</time>
      </trkpt>
      <trkpt lat="44.2098" lon="0.90585">
        <ele>164</ele>
        <time>2022-07-21T09:16:04.487Z</time>
      </trkpt>
      <trkpt lat="44.2098" lon="0.90584">
        <ele>164</ele>
        <time>2022-07-21T09:16:05.487Z</time>
      </trkpt>
      <trkpt lat="44.20981" lon="0.90583">
        <ele>164</ele>
        <time>2022-07-21T09:16:06.487Z</time>
      </trkpt>
      <trkpt lat="44.20982" lon="0.90581">
        <ele>164</ele>
        <time>2022-07-21T09:16:07.487Z</time>
      </trkpt>
      <trkpt lat="44.20982" lon="0.9058">
        <ele>165</ele>
        <time>2022-07-21T09:16:08.487Z</time>
      </trkpt>
      <trkpt lat="44.20983" lon="0.90578">
        <ele>165</ele>
        <time>2022-07-21T09:16:09.487Z</time>
      </trkpt>
      <trkpt lat="44.20984" lon="0.90577">
        <ele>165</ele>
        <time>2022-07-21T09:16:10.487Z</time>
      </trkpt>
      <trkpt lat="44.20984" lon="0.90575">
        <ele>165</ele>
        <time>2022-07-21T09:16:11.487Z</time>
      </trkpt>
      <trkpt lat="44.20985" lon="0.90573">
        <ele>165</ele>
        <time>2022-07-21T09:16:12.487Z</time>
      </trkpt>
      <trkpt lat="44.20986" lon="0.90572">
        <ele>165</ele>
        <time>2022-07-21T09:16:13.487Z</time>
      </trkpt>
      <trkpt lat="44.20986" lon="0.9057">
        <ele>165</ele>
        <time>2022-07-21T09:16:14.487Z</time>
      </trkpt>
      <trkpt lat="44.20987" lon="0.90569">
        <ele>165</ele>
        <time>2022-07-21T09:16:15.487Z</time>
      </trkpt>
      <trkpt lat="44.20988" lon="0.90567">
        <ele>165</ele>
        <time>2022-07-21T09:16:16.487Z</time>
      </trkpt>
      <trkpt lat="44.20988" lon="0.90566">
        <ele>165</ele>
        <time>2022-07-21T09:16:17.487Z</time>
      </trkpt>
      <trkpt lat="44.20989" lon="0.90564">
        <ele>165</ele>
        <time>2022-07-21T09:16:18.487Z</time>
      </trkpt>
      <trkpt lat="44.2099" lon="0.90563">
        <ele>165</ele>
        <time>2022-07-21T09:16:19.487Z</time>
      </trkpt>
      <trkpt lat="44.20991" lon="0.90561">
        <ele>165</ele>
        <time>2022-07-21T09:16:20.487Z</time>
      </trkpt>
      <trkpt lat="44.20991" lon="0.9056">
        <ele>165</ele>
        <time>2022-07-21T09:16:21.487Z</time>
      </trkpt>
      <trkpt lat="44.20992" lon="0.90559">
        <ele>165</ele>
        <time>2022-07-21T09:16:22.487Z</time>
      </trkpt>
      <trkpt lat="44.20993" lon="0.90557">
        <ele>165</ele>
        <time>2022-07-21T09:16:23.487Z</time>
      </trkpt>
      <trkpt lat="44.20993" lon="0.90556">
        <ele>165</ele>
        <time>2022-07-21T09:16:24.487Z</time>
      </trkpt>
      <trkpt lat="44.20994" lon="0.90555">
        <ele>165</ele>
        <time>2022-07-21T09:16:25.487Z</time>
      </trkpt>
      <trkpt lat="44.20994" lon="0.90554">
        <ele>165</ele>
        <time>2022-07-21T09:16:26.487Z</time>
      </trkpt>
      <trkpt lat="44.20995" lon="0.90552">
        <ele>165</ele>
        <time>2022-07-21T09:16:27.487Z</time>
      </trkpt>
      <trkpt lat="44.20996" lon="0.90551">
        <ele>165</ele>
        <time>2022-07-21T09:16:28.487Z</time>
      </trkpt>
      <trkpt lat="44.20997" lon="0.90549">
        <ele>165</ele>
        <time>2022-07-21T09:16:29.487Z</time>
      </trkpt>
      <trkpt lat="44.20997" lon="0.90547">
        <ele>164</ele>
        <time>2022-07-21T09:16:30.487Z</time>
      </trkpt>
      <trkpt lat="44.20998" lon="0.90546">
        <ele>164</ele>
        <time>2022-07-21T09:16:31.487Z</time>
      </trkpt>
      <trkpt lat="44.20999" lon="0.90544">
        <ele>163</ele>
        <time>2022-07-21T09:16:32.487Z</time>
      </trkpt>
      <trkpt lat="44.20999" lon="0.90543">
        <ele>163</ele>
        <time>2022-07-21T09:16:33.487Z</time>
      </trkpt>
      <trkpt lat="44.21" lon="0.90542">
        <ele>163</ele>
        <time>2022-07-21T09:16:34.487Z</time>
      </trkpt>
      <trkpt lat="44.21001" lon="0.9054">
        <ele>164</ele>
        <time>2022-07-21T09:16:35.487Z</time>
      </trkpt>
      <trkpt lat="44.21001" lon="0.90539">
        <ele>164</ele>
        <time>2022-07-21T09:16:36.487Z</time>
      </trkpt>
      <trkpt lat="44.21002" lon="0.90537">
        <ele>164</ele>
        <time>2022-07-21T09:16:37.487Z</time>
      </trkpt>
      <trkpt lat="44.21003" lon="0.90536">
        <ele>163</ele>
        <time>2022-07-21T09:16:38.487Z</time>
      </trkpt>
      <trkpt lat="44.21003" lon="0.90534">
        <ele>163</ele>
        <time>2022-07-21T09:16:39.487Z</time>
      </trkpt>
      <trkpt lat="44.21004" lon="0.90533">
        <ele>163</ele>
        <time>2022-07-21T09:16:40.487Z</time>
      </trkpt>
      <trkpt lat="44.21005" lon="0.90531">
        <ele>163</ele>
        <time>2022-07-21T09:16:41.487Z</time>
      </trkpt>
      <trkpt lat="44.21006" lon="0.9053">
        <ele>163</ele>
        <time>2022-07-21T09:16:42.487Z</time>
      </trkpt>
      <trkpt lat="44.21006" lon="0.90528">
        <ele>163</ele>
        <time>2022-07-21T09:16:43.487Z</time>
      </trkpt>
      <trkpt lat="44.21007" lon="0.90527">
        <ele>163</ele>
        <time>2022-07-21T09:16:44.487Z</time>
      </trkpt>
      <trkpt lat="44.21007" lon="0.90525">
        <ele>163</ele>
        <time>2022-07-21T09:16:45.487Z</time>
      </trkpt>
      <trkpt lat="44.21008" lon="0.90524">
        <ele>163</ele>
        <time>2022-07-21T09:16:46.487Z</time>
      </trkpt>
      <trkpt lat="44.21009" lon="0.90522">
        <ele>163</ele>
        <time>2022-07-21T09:16:47.487Z</time>
      </trkpt>
      <trkpt lat="44.21009" lon="0.90521">
        <ele>163</ele>
        <time>2022-07-21T09:16:48.487Z</time>
      </trkpt>
      <trkpt lat="44.2101" lon="0.90519">
        <ele>163</ele>
        <time>2022-07-21T09:16:49.487Z</time>
      </trkpt>
      <trkpt lat="44.21011" lon="0.90517">
        <ele>163</ele>
        <time>2022-07-21T09:16:50.487Z</time>
      </trkpt>
      <trkpt lat="44.21011" lon="0.90515">
        <ele>163</ele>
        <time>2022-07-21T09:16:51.487Z</time>
      </trkpt>
      <trkpt lat="44.21012" lon="0.90514">
        <ele>163</ele>
        <time>2022-07-21T09:16:52.487Z</time>
      </trkpt>
      <trkpt lat="44.21013" lon="0.90512">
        <ele>163</ele>
        <time>2022-07-21T09:16:53.487Z</time>
      </trkpt>
      <trkpt lat="44.21014" lon="0.90511">
        <ele>163</ele>
        <time>2022-07-21T09:16:54.487Z</time>
      </trkpt>
      <trkpt lat="44.21014" lon="0.9051">
        <ele>163</ele>
        <time>2022-07-21T09:16:55.487Z</time>
      </trkpt>
      <trkpt lat="44.21015" lon="0.90508">
        <ele>163</ele>
        <time>2022-07-21T09:16:56.487Z</time>
      </trkpt>
      <trkpt lat="44.21015" lon="0.90507">
        <ele>163</ele>
        <time>2022-07-21T09:16:57.487Z</time>
      </trkpt>
      <trkpt lat="44.21016" lon="0.90505">
        <ele>163</ele>
        <time>2022-07-21T09:16:58.487Z</time>
      </trkpt>
      <trkpt lat="44.21017" lon="0.90504">
        <ele>163</ele>
        <time>2022-07-21T09:16:59.487Z</time>
      </trkpt>
      <trkpt lat="44.21017" lon="0.90503">
        <ele>163</ele>
        <time>2022-07-21T09:17:00.487Z</time>
      </trkpt>
      <trkpt lat="44.21018" lon="0.90501">
        <ele>163</ele>
        <time>2022-07-21T09:17:01.487Z</time>
      </trkpt>
      <trkpt lat="44.21018" lon="0.905">
        <ele>162</ele>
        <time>2022-07-21T09:17:02.487Z</time>
      </trkpt>
      <trkpt lat="44.21019" lon="0.90498">
        <ele>162</ele>
        <time>2022-07-21T09:17:03.487Z</time>
      </trkpt>
      <trkpt lat="44.21019" lon="0.90497">
        <ele>162</ele>
        <time>2022-07-21T09:17:04.487Z</time>
      </trkpt>
      <trkpt lat="44.2102" lon="0.90496">
        <ele>162</ele>
        <time>2022-07-21T09:17:05.487Z</time>
      </trkpt>
      <trkpt lat="44.21021" lon="0.90494">
        <ele>162</ele>
        <time>2022-07-21T09:17:06.487Z</time>
      </trkpt>
      <trkpt lat="44.21021" lon="0.90493">
        <ele>162</ele>
        <time>2022-07-21T09:17:07.487Z</time>
      </trkpt>
      <trkpt lat="44.21022" lon="0.90492">
        <ele>162</ele>
        <time>2022-07-21T09:17:08.487Z</time>
      </trkpt>
      <trkpt lat="44.21022" lon="0.9049">
        <ele>162</ele>
        <time>2022-07-21T09:17:09.487Z</time>
      </trkpt>
      <trkpt lat="44.21023" lon="0.90489">
        <ele>162</ele>
        <time>2022-07-21T09:17:10.487Z</time>
      </trkpt>
      <trkpt lat="44.21023" lon="0.90488">
        <ele>162</ele>
        <time>2022-07-21T09:17:11.487Z</time>
      </trkpt>
      <trkpt lat="44.21024" lon="0.90486">
        <ele>161</ele>
        <time>2022-07-21T09:17:12.487Z</time>
      </trkpt>
      <trkpt lat="44.21025" lon="0.90485">
        <ele>161</ele>
        <time>2022-07-21T09:17:13.487Z</time>
      </trkpt>
      <trkpt lat="44.21025" lon="0.90484">
        <ele>161</ele>
        <time>2022-07-21T09:17:14.487Z</time>
      </trkpt>
      <trkpt lat="44.21026" lon="0.90483">
        <ele>161</ele>
        <time>2022-07-21T09:17:15.487Z</time>
      </trkpt>
      <trkpt lat="44.21026" lon="0.90481">
        <ele>161</ele>
        <time>2022-07-21T09:17:16.487Z</time>
      </trkpt>
      <trkpt lat="44.21027" lon="0.9048">
        <ele>161</ele>
        <time>2022-07-21T09:17:17.487Z</time>
      </trkpt>
      <trkpt lat="44.21027" lon="0.90478">
        <ele>161</ele>
        <time>2022-07-21T09:17:18.487Z</time>
      </trkpt>
      <trkpt lat="44.21028" lon="0.90477">
        <ele>161</ele>
        <time>2022-07-21T09:17:19.487Z</time>
      </trkpt>
      <trkpt lat="44.21028" lon="0.90475">
        <ele>161</ele>
        <time>2022-07-21T09:17:20.487Z</time>
      </trkpt>
      <trkpt lat="44.21029" lon="0.90474">
        <ele>161</ele>
        <time>2022-07-21T09:17:21.487Z</time>
      </trkpt>
      <trkpt lat="44.21029" lon="0.90472">
        <ele>161</ele>
        <time>2022-07-21T09:17:22.487Z</time>
      </trkpt>
      <trkpt lat="44.2103" lon="0.90471">
        <ele>161</ele>
        <time>2022-07-21T09:17:23.487Z</time>
      </trkpt>
      <trkpt lat="44.2103" lon="0.90469">
        <ele>161</ele>
        <time>2022-07-21T09:17:24.487Z</time>
      </trkpt>
      <trkpt lat="44.21031" lon="0.90468">
        <ele>161</ele>
        <time>2022-07-21T09:17:25.487Z</time>
      </trkpt>
      <trkpt lat="44.21031" lon="0.90466">
        <ele>160</ele>
        <time>2022-07-21T09:17:26.487Z</time>
      </trkpt>
      <trkpt lat="44.21032" lon="0.90464">
        <ele>160</ele>
        <time>2022-07-21T09:17:27.487Z</time>
      </trkpt>
      <trkpt lat="44.21032" lon="0.90462">
        <ele>160</ele>
        <time>2022-07-21T09:17:28.487Z</time>
      </trkpt>
      <trkpt lat="44.21033" lon="0.90461">
        <ele>160</ele>
        <time>2022-07-21T09:17:29.487Z</time>
      </trkpt>
      <trkpt lat="44.21034" lon="0.9046">
        <ele>160</ele>
        <time>2022-07-21T09:17:30.487Z</time>
      </trkpt>
      <trkpt lat="44.21034" lon="0.90458">
        <ele>159</ele>
        <time>2022-07-21T09:17:31.487Z</time>
      </trkpt>
      <trkpt lat="44.21035" lon="0.90457">
        <ele>160</ele>
        <time>2022-07-21T09:17:32.487Z</time>
      </trkpt>
      <trkpt lat="44.21035" lon="0.90455">
        <ele>159</ele>
        <time>2022-07-21T09:17:33.487Z</time>
      </trkpt>
      <trkpt lat="44.21036" lon="0.90454">
        <ele>159</ele>
        <time>2022-07-21T09:17:34.487Z</time>
      </trkpt>
      <trkpt lat="44.21036" lon="0.90452">
        <ele>159</ele>
        <time>2022-07-21T09:17:35.487Z</time>
      </trkpt>
      <trkpt lat="44.21037" lon="0.9045">
        <ele>159</ele>
        <time>2022-07-21T09:17:36.487Z</time>
      </trkpt>
      <trkpt lat="44.21037" lon="0.90448">
        <ele>159</ele>
        <time>2022-07-21T09:17:37.487Z</time>
      </trkpt>
      <trkpt lat="44.21038" lon="0.90447">
        <ele>159</ele>
        <time>2022-07-21T09:17:38.487Z</time>
      </trkpt>
      <trkpt lat="44.21038" lon="0.90445">
        <ele>159</ele>
        <time>2022-07-21T09:17:39.487Z</time>
      </trkpt>
      <trkpt lat="44.21039" lon="0.90444">
        <ele>159</ele>
        <time>2022-07-21T09:17:40.487Z</time>
      </trkpt>
      <trkpt lat="44.21039" lon="0.90442">
        <ele>159</ele>
        <time>2022-07-21T09:17:41.487Z</time>
      </trkpt>
      <trkpt lat="44.2104" lon="0.90441">
        <ele>159</ele>
        <time>2022-07-21T09:17:42.487Z</time>
      </trkpt>
      <trkpt lat="44.2104" lon="0.9044">
        <ele>159</ele>
        <time>2022-07-21T09:17:43.487Z</time>
      </trkpt>
      <trkpt lat="44.21041" lon="0.90438">
        <ele>159</ele>
        <time>2022-07-21T09:17:44.487Z</time>
      </trkpt>
      <trkpt lat="44.21041" lon="0.90436">
        <ele>159</ele>
        <time>2022-07-21T09:17:45.487Z</time>
      </trkpt>
      <trkpt lat="44.21042" lon="0.90434">
        <ele>159</ele>
        <time>2022-07-21T09:17:46.487Z</time>
      </trkpt>
      <trkpt lat="44.21042" lon="0.90433">
        <ele>159</ele>
        <time>2022-07-21T09:17:47.487Z</time>
      </trkpt>
      <trkpt lat="44.21043" lon="0.90432">
        <ele>159</ele>
        <time>2022-07-21T09:17:48.487Z</time>
      </trkpt>
      <trkpt lat="44.21043" lon="0.9043">
        <ele>159</ele>
        <time>2022-07-21T09:17:49.487Z</time>
      </trkpt>
      <trkpt lat="44.21044" lon="0.90429">
        <ele>158</ele>
        <time>2022-07-21T09:17:50.487Z</time>
      </trkpt>
      <trkpt lat="44.21044" lon="0.90428">
        <ele>158</ele>
        <time>2022-07-21T09:17:51.487Z</time>
      </trkpt>
      <trkpt lat="44.21045" lon="0.90426">
        <ele>158</ele>
        <time>2022-07-21T09:17:52.487Z</time>
      </trkpt>
      <trkpt lat="44.21045" lon="0.90425">
        <ele>158</ele>
        <time>2022-07-21T09:17:53.487Z</time>
      </trkpt>
      <trkpt lat="44.21046" lon="0.90423">
        <ele>158</ele>
        <time>2022-07-21T09:17:54.487Z</time>
      </trkpt>
      <trkpt lat="44.21046" lon="0.90422">
        <ele>158</ele>
        <time>2022-07-21T09:17:55.487Z</time>
      </trkpt>
      <trkpt lat="44.21046" lon="0.9042">
        <ele>158</ele>
        <time>2022-07-21T09:17:56.487Z</time>
      </trkpt>
      <trkpt lat="44.21047" lon="0.90419">
        <ele>158</ele>
        <time>2022-07-21T09:17:57.487Z</time>
      </trkpt>
      <trkpt lat="44.21047" lon="0.90418">
        <ele>158</ele>
        <time>2022-07-21T09:17:58.487Z</time>
      </trkpt>
      <trkpt lat="44.21047" lon="0.90417">
        <ele>158</ele>
        <time>2022-07-21T09:17:59.487Z</time>
      </trkpt>
      <trkpt lat="44.21047" lon="0.90415">
        <ele>158</ele>
        <time>2022-07-21T09:18:00.487Z</time>
      </trkpt>
      <trkpt lat="44.21047" lon="0.90414">
        <ele>157</ele>
        <time>2022-07-21T09:18:01.487Z</time>
      </trkpt>
      <trkpt lat="44.21047" lon="0.90412">
        <ele>157</ele>
        <time>2022-07-21T09:18:02.487Z</time>
      </trkpt>
      <trkpt lat="44.21047" lon="0.90411">
        <ele>157</ele>
        <time>2022-07-21T09:18:03.487Z</time>
      </trkpt>
      <trkpt lat="44.21048" lon="0.9041">
        <ele>157</ele>
        <time>2022-07-21T09:18:04.487Z</time>
      </trkpt>
      <trkpt lat="44.21048" lon="0.90408">
        <ele>157</ele>
        <time>2022-07-21T09:18:05.487Z</time>
      </trkpt>
      <trkpt lat="44.21048" lon="0.90407">
        <ele>156</ele>
        <time>2022-07-21T09:18:06.487Z</time>
      </trkpt>
      <trkpt lat="44.21047" lon="0.90405">
        <ele>156</ele>
        <time>2022-07-21T09:18:07.487Z</time>
      </trkpt>
      <trkpt lat="44.21047" lon="0.90404">
        <ele>156</ele>
        <time>2022-07-21T09:18:08.487Z</time>
      </trkpt>
      <trkpt lat="44.21047" lon="0.90402">
        <ele>156</ele>
        <time>2022-07-21T09:18:09.487Z</time>
      </trkpt>
      <trkpt lat="44.21047" lon="0.90401">
        <ele>156</ele>
        <time>2022-07-21T09:18:10.487Z</time>
      </trkpt>
      <trkpt lat="44.21046" lon="0.90399">
        <ele>156</ele>
        <time>2022-07-21T09:18:11.487Z</time>
      </trkpt>
      <trkpt lat="44.21046" lon="0.90398">
        <ele>155</ele>
        <time>2022-07-21T09:18:12.487Z</time>
      </trkpt>
      <trkpt lat="44.21046" lon="0.90397">
        <ele>156</ele>
        <time>2022-07-21T09:18:13.487Z</time>
      </trkpt>
      <trkpt lat="44.21045" lon="0.90395">
        <ele>155</ele>
        <time>2022-07-21T09:18:14.487Z</time>
      </trkpt>
      <trkpt lat="44.21045" lon="0.90394">
        <ele>155</ele>
        <time>2022-07-21T09:18:15.487Z</time>
      </trkpt>
      <trkpt lat="44.21044" lon="0.90392">
        <ele>155</ele>
        <time>2022-07-21T09:18:16.487Z</time>
      </trkpt>
      <trkpt lat="44.21044" lon="0.90391">
        <ele>155</ele>
        <time>2022-07-21T09:18:17.487Z</time>
      </trkpt>
      <trkpt lat="44.21044" lon="0.90389">
        <ele>155</ele>
        <time>2022-07-21T09:18:18.487Z</time>
      </trkpt>
      <trkpt lat="44.21044" lon="0.90388">
        <ele>154</ele>
        <time>2022-07-21T09:18:19.487Z</time>
      </trkpt>
      <trkpt lat="44.21043" lon="0.90387">
        <ele>154</ele>
        <time>2022-07-21T09:18:20.487Z</time>
      </trkpt>
      <trkpt lat="44.21043" lon="0.90386">
        <ele>155</ele>
        <time>2022-07-21T09:18:21.487Z</time>
      </trkpt>
      <trkpt lat="44.21043" lon="0.90385">
        <ele>155</ele>
        <time>2022-07-21T09:18:22.487Z</time>
      </trkpt>
      <trkpt lat="44.21042" lon="0.90383">
        <ele>155</ele>
        <time>2022-07-21T09:18:23.487Z</time>
      </trkpt>
      <trkpt lat="44.21042" lon="0.90383">
        <ele>155</ele>
        <time>2022-07-21T09:18:24.487Z</time>
      </trkpt>
      <trkpt lat="44.21042" lon="0.90382">
        <ele>155</ele>
        <time>2022-07-21T09:18:25.487Z</time>
      </trkpt>
      <trkpt lat="44.21042" lon="0.90382">
        <ele>155</ele>
        <time>2022-07-21T09:18:26.487Z</time>
      </trkpt>
      <trkpt lat="44.21042" lon="0.90382">
        <ele>155</ele>
        <time>2022-07-21T09:18:27.487Z</time>
      </trkpt>
      <trkpt lat="44.21042" lon="0.90382">
        <ele>154</ele>
        <time>2022-07-21T09:18:28.487Z</time>
      </trkpt>
      <trkpt lat="44.21042" lon="0.90382">
        <ele>155</ele>
        <time>2022-07-21T09:18:29.487Z</time>
      </trkpt>
      <trkpt lat="44.21042" lon="0.90382">
        <ele>154</ele>
        <time>2022-07-21T09:18:30.487Z</time>
      </trkpt>
      <trkpt lat="44.21042" lon="0.90382">
        <ele>155</ele>
        <time>2022-07-21T09:18:31.487Z</time>
      </trkpt>
      <trkpt lat="44.21042" lon="0.90377">
        <ele>153</ele>
        <time>2022-07-21T09:18:40.503Z</time>
      </trkpt>
      <trkpt lat="44.21042" lon="0.90376">
        <ele>153</ele>
        <time>2022-07-21T09:18:41.503Z</time>
      </trkpt>
      <trkpt lat="44.21042" lon="0.90375">
        <ele>153</ele>
        <time>2022-07-21T09:18:42.503Z</time>
      </trkpt>
      <trkpt lat="44.21042" lon="0.90373">
        <ele>153</ele>
        <time>2022-07-21T09:18:43.503Z</time>
      </trkpt>
      <trkpt lat="44.21042" lon="0.90372">
        <ele>153</ele>
        <time>2022-07-21T09:18:44.503Z</time>
      </trkpt>
      <trkpt lat="44.21043" lon="0.90371">
        <ele>153</ele>
        <time>2022-07-21T09:18:45.503Z</time>
      </trkpt>
      <trkpt lat="44.21043" lon="0.9037">
        <ele>152</ele>
        <time>2022-07-21T09:18:46.503Z</time>
      </trkpt>
      <trkpt lat="44.21043" lon="0.90368">
        <ele>153</ele>
        <time>2022-07-21T09:18:47.503Z</time>
      </trkpt>
      <trkpt lat="44.21044" lon="0.90367">
        <ele>153</ele>
        <time>2022-07-21T09:18:48.503Z</time>
      </trkpt>
      <trkpt lat="44.21045" lon="0.90367">
        <ele>153</ele>
        <time>2022-07-21T09:18:49.503Z</time>
      </trkpt>
      <trkpt lat="44.21046" lon="0.90366">
        <ele>153</ele>
        <time>2022-07-21T09:18:50.503Z</time>
      </trkpt>
      <trkpt lat="44.21047" lon="0.90365">
        <ele>153</ele>
        <time>2022-07-21T09:18:51.503Z</time>
      </trkpt>
      <trkpt lat="44.21048" lon="0.90364">
        <ele>153</ele>
        <time>2022-07-21T09:18:52.503Z</time>
      </trkpt>
      <trkpt lat="44.21049" lon="0.90363">
        <ele>153</ele>
        <time>2022-07-21T09:18:53.503Z</time>
      </trkpt>
      <trkpt lat="44.2105" lon="0.90362">
        <ele>153</ele>
        <time>2022-07-21T09:18:54.503Z</time>
      </trkpt>
      <trkpt lat="44.21051" lon="0.90362">
        <ele>153</ele>
        <time>2022-07-21T09:18:55.503Z</time>
      </trkpt>
      <trkpt lat="44.21051" lon="0.90361">
        <ele>153</ele>
        <time>2022-07-21T09:18:56.503Z</time>
      </trkpt>
      <trkpt lat="44.21052" lon="0.9036">
        <ele>153</ele>
        <time>2022-07-21T09:18:57.503Z</time>
      </trkpt>
      <trkpt lat="44.21053" lon="0.90359">
        <ele>153</ele>
        <time>2022-07-21T09:18:58.503Z</time>
      </trkpt>
      <trkpt lat="44.21054" lon="0.90358">
        <ele>153</ele>
        <time>2022-07-21T09:18:59.503Z</time>
      </trkpt>
      <trkpt lat="44.21055" lon="0.90357">
        <ele>153</ele>
        <time>2022-07-21T09:19:00.503Z</time>
      </trkpt>
      <trkpt lat="44.21055" lon="0.90356">
        <ele>153</ele>
        <time>2022-07-21T09:19:01.503Z</time>
      </trkpt>
      <trkpt lat="44.21056" lon="0.90355">
        <ele>153</ele>
        <time>2022-07-21T09:19:02.503Z</time>
      </trkpt>
      <trkpt lat="44.21057" lon="0.90354">
        <ele>153</ele>
        <time>2022-07-21T09:19:03.503Z</time>
      </trkpt>
      <trkpt lat="44.21058" lon="0.90353">
        <ele>153</ele>
        <time>2022-07-21T09:19:04.503Z</time>
      </trkpt>
      <trkpt lat="44.21059" lon="0.90352">
        <ele>154</ele>
        <time>2022-07-21T09:19:05.503Z</time>
      </trkpt>
      <trkpt lat="44.2106" lon="0.90351">
        <ele>153</ele>
        <time>2022-07-21T09:19:06.503Z</time>
      </trkpt>
      <trkpt lat="44.21061" lon="0.90351">
        <ele>153</ele>
        <time>2022-07-21T09:19:07.503Z</time>
      </trkpt>
      <trkpt lat="44.21062" lon="0.9035">
        <ele>153</ele>
        <time>2022-07-21T09:19:08.503Z</time>
      </trkpt>
      <trkpt lat="44.21062" lon="0.90349">
        <ele>153</ele>
        <time>2022-07-21T09:19:09.503Z</time>
      </trkpt>
      <trkpt lat="44.21063" lon="0.90348">
        <ele>153</ele>
        <time>2022-07-21T09:19:10.503Z</time>
      </trkpt>
      <trkpt lat="44.21064" lon="0.90348">
        <ele>153</ele>
        <time>2022-07-21T09:19:11.503Z</time>
      </trkpt>
      <trkpt lat="44.21065" lon="0.90347">
        <ele>153</ele>
        <time>2022-07-21T09:19:12.503Z</time>
      </trkpt>
      <trkpt lat="44.21066" lon="0.90347">
        <ele>153</ele>
        <time>2022-07-21T09:19:13.503Z</time>
      </trkpt>
      <trkpt lat="44.21067" lon="0.90346">
        <ele>153</ele>
        <time>2022-07-21T09:19:14.503Z</time>
      </trkpt>
      <trkpt lat="44.21068" lon="0.90345">
        <ele>153</ele>
        <time>2022-07-21T09:19:15.503Z</time>
      </trkpt>
      <trkpt lat="44.21069" lon="0.90344">
        <ele>153</ele>
        <time>2022-07-21T09:19:16.503Z</time>
      </trkpt>
      <trkpt lat="44.2107" lon="0.90343">
        <ele>152</ele>
        <time>2022-07-21T09:19:17.503Z</time>
      </trkpt>
      <trkpt lat="44.21071" lon="0.90342">
        <ele>152</ele>
        <time>2022-07-21T09:19:18.503Z</time>
      </trkpt>
      <trkpt lat="44.21072" lon="0.90342">
        <ele>152</ele>
        <time>2022-07-21T09:19:19.503Z</time>
      </trkpt>
      <trkpt lat="44.21073" lon="0.90341">
        <ele>153</ele>
        <time>2022-07-21T09:19:20.503Z</time>
      </trkpt>
      <trkpt lat="44.21074" lon="0.9034">
        <ele>153</ele>
        <time>2022-07-21T09:19:21.503Z</time>
      </trkpt>
      <trkpt lat="44.21075" lon="0.90339">
        <ele>153</ele>
        <time>2022-07-21T09:19:22.503Z</time>
      </trkpt>
      <trkpt lat="44.21076" lon="0.90338">
        <ele>153</ele>
        <time>2022-07-21T09:19:23.503Z</time>
      </trkpt>
      <trkpt lat="44.21077" lon="0.90337">
        <ele>152</ele>
        <time>2022-07-21T09:19:24.503Z</time>
      </trkpt>
      <trkpt lat="44.21078" lon="0.90336">
        <ele>152</ele>
        <time>2022-07-21T09:19:25.503Z</time>
      </trkpt>
      <trkpt lat="44.21079" lon="0.90335">
        <ele>152</ele>
        <time>2022-07-21T09:19:26.503Z</time>
      </trkpt>
      <trkpt lat="44.2108" lon="0.90334">
        <ele>152</ele>
        <time>2022-07-21T09:19:27.503Z</time>
      </trkpt>
      <trkpt lat="44.21081" lon="0.90334">
        <ele>152</ele>
        <time>2022-07-21T09:19:28.503Z</time>
      </trkpt>
      <trkpt lat="44.21082" lon="0.90333">
        <ele>152</ele>
        <time>2022-07-21T09:19:29.503Z</time>
      </trkpt>
      <trkpt lat="44.21084" lon="0.90332">
        <ele>152</ele>
        <time>2022-07-21T09:19:30.503Z</time>
      </trkpt>
      <trkpt lat="44.21085" lon="0.90331">
        <ele>152</ele>
        <time>2022-07-21T09:19:31.503Z</time>
      </trkpt>
      <trkpt lat="44.21086" lon="0.9033">
        <ele>152</ele>
        <time>2022-07-21T09:19:32.503Z</time>
      </trkpt>
      <trkpt lat="44.21087" lon="0.9033">
        <ele>153</ele>
        <time>2022-07-21T09:19:33.503Z</time>
      </trkpt>
      <trkpt lat="44.21088" lon="0.90329">
        <ele>153</ele>
        <time>2022-07-21T09:19:34.503Z</time>
      </trkpt>
      <trkpt lat="44.21089" lon="0.90328">
        <ele>152</ele>
        <time>2022-07-21T09:19:35.503Z</time>
      </trkpt>
      <trkpt lat="44.2109" lon="0.90327">
        <ele>152</ele>
        <time>2022-07-21T09:19:36.503Z</time>
      </trkpt>
      <trkpt lat="44.21091" lon="0.90326">
        <ele>152</ele>
        <time>2022-07-21T09:19:37.503Z</time>
      </trkpt>
      <trkpt lat="44.21092" lon="0.90325">
        <ele>152</ele>
        <time>2022-07-21T09:19:38.503Z</time>
      </trkpt>
      <trkpt lat="44.21093" lon="0.90324">
        <ele>153</ele>
        <time>2022-07-21T09:19:39.503Z</time>
      </trkpt>
      <trkpt lat="44.21094" lon="0.90323">
        <ele>153</ele>
        <time>2022-07-21T09:19:40.503Z</time>
      </trkpt>
      <trkpt lat="44.21095" lon="0.90322">
        <ele>152</ele>
        <time>2022-07-21T09:19:41.503Z</time>
      </trkpt>
      <trkpt lat="44.21096" lon="0.90321">
        <ele>152</ele>
        <time>2022-07-21T09:19:42.503Z</time>
      </trkpt>
      <trkpt lat="44.21097" lon="0.9032">
        <ele>152</ele>
        <time>2022-07-21T09:19:43.503Z</time>
      </trkpt>
      <trkpt lat="44.21098" lon="0.90319">
        <ele>152</ele>
        <time>2022-07-21T09:19:44.503Z</time>
      </trkpt>
      <trkpt lat="44.21099" lon="0.90318">
        <ele>152</ele>
        <time>2022-07-21T09:19:45.503Z</time>
      </trkpt>
      <trkpt lat="44.211" lon="0.90317">
        <ele>151</ele>
        <time>2022-07-21T09:19:46.503Z</time>
      </trkpt>
      <trkpt lat="44.21101" lon="0.90317">
        <ele>151</ele>
        <time>2022-07-21T09:19:47.503Z</time>
      </trkpt>
      <trkpt lat="44.21102" lon="0.90316">
        <ele>152</ele>
        <time>2022-07-21T09:19:48.503Z</time>
      </trkpt>
      <trkpt lat="44.21103" lon="0.90315">
        <ele>152</ele>
        <time>2022-07-21T09:19:49.503Z</time>
      </trkpt>
      <trkpt lat="44.21104" lon="0.90313">
        <ele>152</ele>
        <time>2022-07-21T09:19:50.503Z</time>
      </trkpt>
      <trkpt lat="44.21105" lon="0.90312">
        <ele>153</ele>
        <time>2022-07-21T09:19:51.503Z</time>
      </trkpt>
      <trkpt lat="44.21106" lon="0.90311">
        <ele>152</ele>
        <time>2022-07-21T09:19:52.503Z</time>
      </trkpt>
      <trkpt lat="44.21106" lon="0.90309">
        <ele>152</ele>
        <time>2022-07-21T09:19:53.503Z</time>
      </trkpt>
      <trkpt lat="44.21107" lon="0.90308">
        <ele>152</ele>
        <time>2022-07-21T09:19:54.503Z</time>
      </trkpt>
      <trkpt lat="44.21108" lon="0.90307">
        <ele>153</ele>
        <time>2022-07-21T09:19:55.503Z</time>
      </trkpt>
      <trkpt lat="44.21109" lon="0.90306">
        <ele>153</ele>
        <time>2022-07-21T09:19:56.503Z</time>
      </trkpt>
      <trkpt lat="44.2111" lon="0.90304">
        <ele>153</ele>
        <time>2022-07-21T09:19:57.503Z</time>
      </trkpt>
      <trkpt lat="44.2111" lon="0.90303">
        <ele>153</ele>
        <time>2022-07-21T09:19:58.503Z</time>
      </trkpt>
      <trkpt lat="44.21111" lon="0.90301">
        <ele>153</ele>
        <time>2022-07-21T09:19:59.503Z</time>
      </trkpt>
      <trkpt lat="44.21112" lon="0.903">
        <ele>153</ele>
        <time>2022-07-21T09:20:00.503Z</time>
      </trkpt>
      <trkpt lat="44.21112" lon="0.90299">
        <ele>153</ele>
        <time>2022-07-21T09:20:01.503Z</time>
      </trkpt>
      <trkpt lat="44.21113" lon="0.90298">
        <ele>153</ele>
        <time>2022-07-21T09:20:02.503Z</time>
      </trkpt>
      <trkpt lat="44.21114" lon="0.90297">
        <ele>153</ele>
        <time>2022-07-21T09:20:03.503Z</time>
      </trkpt>
      <trkpt lat="44.21114" lon="0.90296">
        <ele>153</ele>
        <time>2022-07-21T09:20:04.503Z</time>
      </trkpt>
      <trkpt lat="44.21115" lon="0.90294">
        <ele>152</ele>
        <time>2022-07-21T09:20:05.503Z</time>
      </trkpt>
      <trkpt lat="44.21116" lon="0.90293">
        <ele>152</ele>
        <time>2022-07-21T09:20:06.503Z</time>
      </trkpt>
      <trkpt lat="44.21116" lon="0.90292">
        <ele>151</ele>
        <time>2022-07-21T09:20:07.503Z</time>
      </trkpt>
      <trkpt lat="44.21117" lon="0.90291">
        <ele>151</ele>
        <time>2022-07-21T09:20:08.503Z</time>
      </trkpt>
      <trkpt lat="44.21118" lon="0.9029">
        <ele>152</ele>
        <time>2022-07-21T09:20:09.503Z</time>
      </trkpt>
      <trkpt lat="44.21118" lon="0.90288">
        <ele>151</ele>
        <time>2022-07-21T09:20:10.503Z</time>
      </trkpt>
      <trkpt lat="44.21119" lon="0.90287">
        <ele>151</ele>
        <time>2022-07-21T09:20:11.503Z</time>
      </trkpt>
      <trkpt lat="44.2112" lon="0.90286">
        <ele>151</ele>
        <time>2022-07-21T09:20:12.503Z</time>
      </trkpt>
      <trkpt lat="44.2112" lon="0.90285">
        <ele>151</ele>
        <time>2022-07-21T09:20:13.503Z</time>
      </trkpt>
      <trkpt lat="44.21121" lon="0.90283">
        <ele>151</ele>
        <time>2022-07-21T09:20:14.503Z</time>
      </trkpt>
      <trkpt lat="44.21121" lon="0.90282">
        <ele>151</ele>
        <time>2022-07-21T09:20:15.503Z</time>
      </trkpt>
      <trkpt lat="44.21122" lon="0.90281">
        <ele>151</ele>
        <time>2022-07-21T09:20:16.503Z</time>
      </trkpt>
      <trkpt lat="44.21122" lon="0.90279">
        <ele>151</ele>
        <time>2022-07-21T09:20:17.503Z</time>
      </trkpt>
      <trkpt lat="44.21123" lon="0.90278">
        <ele>151</ele>
        <time>2022-07-21T09:20:18.503Z</time>
      </trkpt>
      <trkpt lat="44.21123" lon="0.90276">
        <ele>151</ele>
        <time>2022-07-21T09:20:19.503Z</time>
      </trkpt>
      <trkpt lat="44.21124" lon="0.90275">
        <ele>151</ele>
        <time>2022-07-21T09:20:20.503Z</time>
      </trkpt>
      <trkpt lat="44.21124" lon="0.90273">
        <ele>151</ele>
        <time>2022-07-21T09:20:21.503Z</time>
      </trkpt>
      <trkpt lat="44.21125" lon="0.90271">
        <ele>150</ele>
        <time>2022-07-21T09:20:22.503Z</time>
      </trkpt>
      <trkpt lat="44.21125" lon="0.9027">
        <ele>150</ele>
        <time>2022-07-21T09:20:23.503Z</time>
      </trkpt>
      <trkpt lat="44.21125" lon="0.90268">
        <ele>149</ele>
        <time>2022-07-21T09:20:24.503Z</time>
      </trkpt>
      <trkpt lat="44.21126" lon="0.90267">
        <ele>149</ele>
        <time>2022-07-21T09:20:25.503Z</time>
      </trkpt>
      <trkpt lat="44.21126" lon="0.90266">
        <ele>149</ele>
        <time>2022-07-21T09:20:26.503Z</time>
      </trkpt>
      <trkpt lat="44.21126" lon="0.90264">
        <ele>149</ele>
        <time>2022-07-21T09:20:27.503Z</time>
      </trkpt>
      <trkpt lat="44.21127" lon="0.90263">
        <ele>148</ele>
        <time>2022-07-21T09:20:28.503Z</time>
      </trkpt>
      <trkpt lat="44.21128" lon="0.90261">
        <ele>147</ele>
        <time>2022-07-21T09:20:29.503Z</time>
      </trkpt>
      <trkpt lat="44.21128" lon="0.9026">
        <ele>146</ele>
        <time>2022-07-21T09:20:30.503Z</time>
      </trkpt>
      <trkpt lat="44.21129" lon="0.90259">
        <ele>146</ele>
        <time>2022-07-21T09:20:31.503Z</time>
      </trkpt>
      <trkpt lat="44.2113" lon="0.90257">
        <ele>146</ele>
        <time>2022-07-21T09:20:32.503Z</time>
      </trkpt>
      <trkpt lat="44.2113" lon="0.90256">
        <ele>146</ele>
        <time>2022-07-21T09:20:33.503Z</time>
      </trkpt>
      <trkpt lat="44.21131" lon="0.90255">
        <ele>146</ele>
        <time>2022-07-21T09:20:34.503Z</time>
      </trkpt>
      <trkpt lat="44.21131" lon="0.90254">
        <ele>146</ele>
        <time>2022-07-21T09:20:35.503Z</time>
      </trkpt>
      <trkpt lat="44.21132" lon="0.90253">
        <ele>146</ele>
        <time>2022-07-21T09:20:36.503Z</time>
      </trkpt>
      <trkpt lat="44.21132" lon="0.90252">
        <ele>145</ele>
        <time>2022-07-21T09:20:37.503Z</time>
      </trkpt>
      <trkpt lat="44.21132" lon="0.90251">
        <ele>146</ele>
        <time>2022-07-21T09:20:38.503Z</time>
      </trkpt>
      <trkpt lat="44.21133" lon="0.9025">
        <ele>145</ele>
        <time>2022-07-21T09:20:39.503Z</time>
      </trkpt>
      <trkpt lat="44.21133" lon="0.90249">
        <ele>144</ele>
        <time>2022-07-21T09:20:40.503Z</time>
      </trkpt>
      <trkpt lat="44.21133" lon="0.90248">
        <ele>144</ele>
        <time>2022-07-21T09:20:41.503Z</time>
      </trkpt>
      <trkpt lat="44.21133" lon="0.90247">
        <ele>145</ele>
        <time>2022-07-21T09:20:42.503Z</time>
      </trkpt>
      <trkpt lat="44.21134" lon="0.90245">
        <ele>145</ele>
        <time>2022-07-21T09:20:43.503Z</time>
      </trkpt>
      <trkpt lat="44.21134" lon="0.90244">
        <ele>145</ele>
        <time>2022-07-21T09:20:44.503Z</time>
      </trkpt>
      <trkpt lat="44.21134" lon="0.90243">
        <ele>145</ele>
        <time>2022-07-21T09:20:45.503Z</time>
      </trkpt>
      <trkpt lat="44.21135" lon="0.90241">
        <ele>145</ele>
        <time>2022-07-21T09:20:46.503Z</time>
      </trkpt>
      <trkpt lat="44.21135" lon="0.9024">
        <ele>144</ele>
        <time>2022-07-21T09:20:47.503Z</time>
      </trkpt>
      <trkpt lat="44.21135" lon="0.90238">
        <ele>144</ele>
        <time>2022-07-21T09:20:48.503Z</time>
      </trkpt>
      <trkpt lat="44.21136" lon="0.90237">
        <ele>144</ele>
        <time>2022-07-21T09:20:49.503Z</time>
      </trkpt>
      <trkpt lat="44.21136" lon="0.90235">
        <ele>144</ele>
        <time>2022-07-21T09:20:50.503Z</time>
      </trkpt>
      <trkpt lat="44.21136" lon="0.90234">
        <ele>143</ele>
        <time>2022-07-21T09:20:51.503Z</time>
      </trkpt>
      <trkpt lat="44.21136" lon="0.90233">
        <ele>143</ele>
        <time>2022-07-21T09:20:52.503Z</time>
      </trkpt>
      <trkpt lat="44.21136" lon="0.90231">
        <ele>143</ele>
        <time>2022-07-21T09:20:53.503Z</time>
      </trkpt>
      <trkpt lat="44.21137" lon="0.9023">
        <ele>142</ele>
        <time>2022-07-21T09:20:54.503Z</time>
      </trkpt>
      <trkpt lat="44.21137" lon="0.90229">
        <ele>142</ele>
        <time>2022-07-21T09:20:55.503Z</time>
      </trkpt>
      <trkpt lat="44.21138" lon="0.90227">
        <ele>142</ele>
        <time>2022-07-21T09:20:56.503Z</time>
      </trkpt>
      <trkpt lat="44.21138" lon="0.90226">
        <ele>142</ele>
        <time>2022-07-21T09:20:57.503Z</time>
      </trkpt>
      <trkpt lat="44.21138" lon="0.90224">
        <ele>142</ele>
        <time>2022-07-21T09:20:58.503Z</time>
      </trkpt>
      <trkpt lat="44.21139" lon="0.90223">
        <ele>141</ele>
        <time>2022-07-21T09:20:59.503Z</time>
      </trkpt>
      <trkpt lat="44.21139" lon="0.90222">
        <ele>142</ele>
        <time>2022-07-21T09:21:00.503Z</time>
      </trkpt>
      <trkpt lat="44.21139" lon="0.9022">
        <ele>142</ele>
        <time>2022-07-21T09:21:01.503Z</time>
      </trkpt>
      <trkpt lat="44.21139" lon="0.90219">
        <ele>142</ele>
        <time>2022-07-21T09:21:02.503Z</time>
      </trkpt>
      <trkpt lat="44.21139" lon="0.90218">
        <ele>142</ele>
        <time>2022-07-21T09:21:03.503Z</time>
      </trkpt>
      <trkpt lat="44.2114" lon="0.90217">
        <ele>141</ele>
        <time>2022-07-21T09:21:04.503Z</time>
      </trkpt>
      <trkpt lat="44.2114" lon="0.90215">
        <ele>141</ele>
        <time>2022-07-21T09:21:05.503Z</time>
      </trkpt>
      <trkpt lat="44.21141" lon="0.90214">
        <ele>140</ele>
        <time>2022-07-21T09:21:06.503Z</time>
      </trkpt>
      <trkpt lat="44.21141" lon="0.90213">
        <ele>140</ele>
        <time>2022-07-21T09:21:07.503Z</time>
      </trkpt>
      <trkpt lat="44.21141" lon="0.90212">
        <ele>140</ele>
        <time>2022-07-21T09:21:08.503Z</time>
      </trkpt>
      <trkpt lat="44.21141" lon="0.9021">
        <ele>140</ele>
        <time>2022-07-21T09:21:09.503Z</time>
      </trkpt>
      <trkpt lat="44.21141" lon="0.90208">
        <ele>140</ele>
        <time>2022-07-21T09:21:10.503Z</time>
      </trkpt>
      <trkpt lat="44.21141" lon="0.90206">
        <ele>140</ele>
        <time>2022-07-21T09:21:11.503Z</time>
      </trkpt>
      <trkpt lat="44.21141" lon="0.90204">
        <ele>140</ele>
        <time>2022-07-21T09:21:12.503Z</time>
      </trkpt>
      <trkpt lat="44.21141" lon="0.90202">
        <ele>140</ele>
        <time>2022-07-21T09:21:13.503Z</time>
      </trkpt>
      <trkpt lat="44.21141" lon="0.90201">
        <ele>140</ele>
        <time>2022-07-21T09:21:14.503Z</time>
      </trkpt>
      <trkpt lat="44.21141" lon="0.902">
        <ele>139</ele>
        <time>2022-07-21T09:21:15.503Z</time>
      </trkpt>
      <trkpt lat="44.21141" lon="0.90198">
        <ele>139</ele>
        <time>2022-07-21T09:21:16.503Z</time>
      </trkpt>
      <trkpt lat="44.21141" lon="0.90197">
        <ele>138</ele>
        <time>2022-07-21T09:21:17.503Z</time>
      </trkpt>
      <trkpt lat="44.2114" lon="0.90195">
        <ele>138</ele>
        <time>2022-07-21T09:21:18.503Z</time>
      </trkpt>
      <trkpt lat="44.2114" lon="0.90193">
        <ele>137</ele>
        <time>2022-07-21T09:21:19.503Z</time>
      </trkpt>
      <trkpt lat="44.2114" lon="0.90192">
        <ele>138</ele>
        <time>2022-07-21T09:21:20.503Z</time>
      </trkpt>
      <trkpt lat="44.2114" lon="0.90191">
        <ele>137</ele>
        <time>2022-07-21T09:21:21.503Z</time>
      </trkpt>
      <trkpt lat="44.2114" lon="0.90189">
        <ele>137</ele>
        <time>2022-07-21T09:21:22.503Z</time>
      </trkpt>
      <trkpt lat="44.2114" lon="0.90187">
        <ele>138</ele>
        <time>2022-07-21T09:21:23.503Z</time>
      </trkpt>
      <trkpt lat="44.21139" lon="0.90186">
        <ele>138</ele>
        <time>2022-07-21T09:21:24.503Z</time>
      </trkpt>
      <trkpt lat="44.21139" lon="0.90184">
        <ele>138</ele>
        <time>2022-07-21T09:21:25.503Z</time>
      </trkpt>
      <trkpt lat="44.21139" lon="0.90183">
        <ele>137</ele>
        <time>2022-07-21T09:21:26.503Z</time>
      </trkpt>
      <trkpt lat="44.2114" lon="0.90181">
        <ele>137</ele>
        <time>2022-07-21T09:21:27.503Z</time>
      </trkpt>
      <trkpt lat="44.2114" lon="0.9018">
        <ele>137</ele>
        <time>2022-07-21T09:21:28.503Z</time>
      </trkpt>
      <trkpt lat="44.2114" lon="0.90178">
        <ele>137</ele>
        <time>2022-07-21T09:21:29.503Z</time>
      </trkpt>
      <trkpt lat="44.21141" lon="0.90176">
        <ele>137</ele>
        <time>2022-07-21T09:21:30.503Z</time>
      </trkpt>
      <trkpt lat="44.21141" lon="0.90175">
        <ele>137</ele>
        <time>2022-07-21T09:21:31.503Z</time>
      </trkpt>
      <trkpt lat="44.21141" lon="0.90174">
        <ele>136</ele>
        <time>2022-07-21T09:21:32.503Z</time>
      </trkpt>
      <trkpt lat="44.21141" lon="0.90172">
        <ele>136</ele>
        <time>2022-07-21T09:21:33.503Z</time>
      </trkpt>
      <trkpt lat="44.21141" lon="0.90171">
        <ele>135</ele>
        <time>2022-07-21T09:21:34.503Z</time>
      </trkpt>
      <trkpt lat="44.21141" lon="0.9017">
        <ele>134</ele>
        <time>2022-07-21T09:21:35.503Z</time>
      </trkpt>
      <trkpt lat="44.21141" lon="0.90169">
        <ele>133</ele>
        <time>2022-07-21T09:21:36.503Z</time>
      </trkpt>
      <trkpt lat="44.21141" lon="0.90167">
        <ele>133</ele>
        <time>2022-07-21T09:21:37.503Z</time>
      </trkpt>
      <trkpt lat="44.2114" lon="0.90166">
        <ele>133</ele>
        <time>2022-07-21T09:21:38.503Z</time>
      </trkpt>
      <trkpt lat="44.2114" lon="0.90164">
        <ele>133</ele>
        <time>2022-07-21T09:21:39.503Z</time>
      </trkpt>
      <trkpt lat="44.2114" lon="0.90163">
        <ele>133</ele>
        <time>2022-07-21T09:21:40.503Z</time>
      </trkpt>
      <trkpt lat="44.2114" lon="0.90162">
        <ele>133</ele>
        <time>2022-07-21T09:21:41.503Z</time>
      </trkpt>
      <trkpt lat="44.2114" lon="0.9016">
        <ele>132</ele>
        <time>2022-07-21T09:21:42.503Z</time>
      </trkpt>
      <trkpt lat="44.2114" lon="0.90159">
        <ele>133</ele>
        <time>2022-07-21T09:21:43.503Z</time>
      </trkpt>
      <trkpt lat="44.2114" lon="0.90158">
        <ele>135</ele>
        <time>2022-07-21T09:21:44.503Z</time>
      </trkpt>
      <trkpt lat="44.2114" lon="0.90156">
        <ele>135</ele>
        <time>2022-07-21T09:21:45.503Z</time>
      </trkpt>
      <trkpt lat="44.21139" lon="0.90154">
        <ele>134</ele>
        <time>2022-07-21T09:21:46.503Z</time>
      </trkpt>
      <trkpt lat="44.21139" lon="0.90152">
        <ele>134</ele>
        <time>2022-07-21T09:21:47.503Z</time>
      </trkpt>
      <trkpt lat="44.21139" lon="0.9015">
        <ele>134</ele>
        <time>2022-07-21T09:21:48.503Z</time>
      </trkpt>
      <trkpt lat="44.21138" lon="0.90148">
        <ele>134</ele>
        <time>2022-07-21T09:21:49.503Z</time>
      </trkpt>
      <trkpt lat="44.21138" lon="0.90146">
        <ele>135</ele>
        <time>2022-07-21T09:21:50.503Z</time>
      </trkpt>
      <trkpt lat="44.21137" lon="0.90145">
        <ele>135</ele>
        <time>2022-07-21T09:21:51.503Z</time>
      </trkpt>
      <trkpt lat="44.21137" lon="0.90143">
        <ele>135</ele>
        <time>2022-07-21T09:21:52.503Z</time>
      </trkpt>
      <trkpt lat="44.21137" lon="0.90141">
        <ele>135</ele>
        <time>2022-07-21T09:21:53.503Z</time>
      </trkpt>
      <trkpt lat="44.21136" lon="0.9014">
        <ele>134</ele>
        <time>2022-07-21T09:21:54.503Z</time>
      </trkpt>
      <trkpt lat="44.21136" lon="0.90138">
        <ele>135</ele>
        <time>2022-07-21T09:21:55.503Z</time>
      </trkpt>
      <trkpt lat="44.21136" lon="0.90137">
        <ele>134</ele>
        <time>2022-07-21T09:21:56.503Z</time>
      </trkpt>
      <trkpt lat="44.21136" lon="0.90136">
        <ele>133</ele>
        <time>2022-07-21T09:21:57.503Z</time>
      </trkpt>
      <trkpt lat="44.21137" lon="0.90135">
        <ele>133</ele>
        <time>2022-07-21T09:21:58.503Z</time>
      </trkpt>
      <trkpt lat="44.21137" lon="0.90133">
        <ele>133</ele>
        <time>2022-07-21T09:21:59.503Z</time>
      </trkpt>
      <trkpt lat="44.21137" lon="0.90131">
        <ele>133</ele>
        <time>2022-07-21T09:22:00.503Z</time>
      </trkpt>
      <trkpt lat="44.21136" lon="0.90129">
        <ele>132</ele>
        <time>2022-07-21T09:22:01.503Z</time>
      </trkpt>
      <trkpt lat="44.21136" lon="0.90127">
        <ele>132</ele>
        <time>2022-07-21T09:22:02.503Z</time>
      </trkpt>
      <trkpt lat="44.21136" lon="0.90125">
        <ele>131</ele>
        <time>2022-07-21T09:22:03.503Z</time>
      </trkpt>
      <trkpt lat="44.21135" lon="0.90124">
        <ele>131</ele>
        <time>2022-07-21T09:22:04.503Z</time>
      </trkpt>
      <trkpt lat="44.21135" lon="0.90123">
        <ele>130</ele>
        <time>2022-07-21T09:22:05.503Z</time>
      </trkpt>
      <trkpt lat="44.21134" lon="0.90121">
        <ele>131</ele>
        <time>2022-07-21T09:22:06.503Z</time>
      </trkpt>
      <trkpt lat="44.21134" lon="0.90119">
        <ele>131</ele>
        <time>2022-07-21T09:22:07.503Z</time>
      </trkpt>
      <trkpt lat="44.21133" lon="0.90117">
        <ele>130</ele>
        <time>2022-07-21T09:22:08.503Z</time>
      </trkpt>
      <trkpt lat="44.21133" lon="0.90115">
        <ele>130</ele>
        <time>2022-07-21T09:22:09.503Z</time>
      </trkpt>
      <trkpt lat="44.21133" lon="0.90114">
        <ele>130</ele>
        <time>2022-07-21T09:22:10.503Z</time>
      </trkpt>
      <trkpt lat="44.21133" lon="0.90112">
        <ele>130</ele>
        <time>2022-07-21T09:22:11.503Z</time>
      </trkpt>
      <trkpt lat="44.21133" lon="0.9011">
        <ele>130</ele>
        <time>2022-07-21T09:22:12.503Z</time>
      </trkpt>
      <trkpt lat="44.21132" lon="0.90109">
        <ele>130</ele>
        <time>2022-07-21T09:22:13.503Z</time>
      </trkpt>
      <trkpt lat="44.21132" lon="0.90107">
        <ele>130</ele>
        <time>2022-07-21T09:22:14.503Z</time>
      </trkpt>
      <trkpt lat="44.21132" lon="0.90105">
        <ele>129</ele>
        <time>2022-07-21T09:22:15.503Z</time>
      </trkpt>
      <trkpt lat="44.21132" lon="0.90104">
        <ele>129</ele>
        <time>2022-07-21T09:22:16.503Z</time>
      </trkpt>
      <trkpt lat="44.21131" lon="0.90102">
        <ele>129</ele>
        <time>2022-07-21T09:22:17.503Z</time>
      </trkpt>
      <trkpt lat="44.21131" lon="0.901">
        <ele>129</ele>
        <time>2022-07-21T09:22:18.503Z</time>
      </trkpt>
      <trkpt lat="44.21131" lon="0.90098">
        <ele>129</ele>
        <time>2022-07-21T09:22:19.503Z</time>
      </trkpt>
      <trkpt lat="44.2113" lon="0.90097">
        <ele>129</ele>
        <time>2022-07-21T09:22:20.503Z</time>
      </trkpt>
      <trkpt lat="44.2113" lon="0.90095">
        <ele>129</ele>
        <time>2022-07-21T09:22:21.503Z</time>
      </trkpt>
      <trkpt lat="44.21129" lon="0.90094">
        <ele>130</ele>
        <time>2022-07-21T09:22:22.503Z</time>
      </trkpt>
      <trkpt lat="44.21129" lon="0.90092">
        <ele>130</ele>
        <time>2022-07-21T09:22:23.503Z</time>
      </trkpt>
      <trkpt lat="44.21129" lon="0.9009">
        <ele>129</ele>
        <time>2022-07-21T09:22:24.503Z</time>
      </trkpt>
      <trkpt lat="44.21128" lon="0.90088">
        <ele>129</ele>
        <time>2022-07-21T09:22:25.503Z</time>
      </trkpt>
      <trkpt lat="44.21128" lon="0.90087">
        <ele>129</ele>
        <time>2022-07-21T09:22:26.503Z</time>
      </trkpt>
      <trkpt lat="44.21128" lon="0.90086">
        <ele>129</ele>
        <time>2022-07-21T09:22:27.503Z</time>
      </trkpt>
      <trkpt lat="44.21128" lon="0.90084">
        <ele>130</ele>
        <time>2022-07-21T09:22:28.503Z</time>
      </trkpt>
      <trkpt lat="44.21128" lon="0.90083">
        <ele>130</ele>
        <time>2022-07-21T09:22:29.503Z</time>
      </trkpt>
      <trkpt lat="44.21127" lon="0.90082">
        <ele>130</ele>
        <time>2022-07-21T09:22:30.503Z</time>
      </trkpt>
      <trkpt lat="44.21127" lon="0.9008">
        <ele>130</ele>
        <time>2022-07-21T09:22:31.503Z</time>
      </trkpt>
      <trkpt lat="44.21127" lon="0.90079">
        <ele>130</ele>
        <time>2022-07-21T09:22:32.503Z</time>
      </trkpt>
      <trkpt lat="44.21127" lon="0.90077">
        <ele>129</ele>
        <time>2022-07-21T09:22:33.503Z</time>
      </trkpt>
      <trkpt lat="44.21127" lon="0.90076">
        <ele>130</ele>
        <time>2022-07-21T09:22:34.503Z</time>
      </trkpt>
      <trkpt lat="44.21127" lon="0.90075">
        <ele>130</ele>
        <time>2022-07-21T09:22:35.503Z</time>
      </trkpt>
      <trkpt lat="44.21127" lon="0.90073">
        <ele>131</ele>
        <time>2022-07-21T09:22:36.503Z</time>
      </trkpt>
      <trkpt lat="44.21127" lon="0.90071">
        <ele>133</ele>
        <time>2022-07-21T09:22:37.503Z</time>
      </trkpt>
      <trkpt lat="44.21127" lon="0.90069">
        <ele>132</ele>
        <time>2022-07-21T09:22:38.503Z</time>
      </trkpt>
      <trkpt lat="44.21127" lon="0.90067">
        <ele>132</ele>
        <time>2022-07-21T09:22:39.503Z</time>
      </trkpt>
      <trkpt lat="44.21127" lon="0.90065">
        <ele>132</ele>
        <time>2022-07-21T09:22:40.503Z</time>
      </trkpt>
      <trkpt lat="44.21127" lon="0.90063">
        <ele>132</ele>
        <time>2022-07-21T09:22:41.503Z</time>
      </trkpt>
      <trkpt lat="44.21127" lon="0.90061">
        <ele>132</ele>
        <time>2022-07-21T09:22:42.503Z</time>
      </trkpt>
      <trkpt lat="44.21127" lon="0.9006">
        <ele>133</ele>
        <time>2022-07-21T09:22:43.503Z</time>
      </trkpt>
      <trkpt lat="44.21126" lon="0.90058">
        <ele>133</ele>
        <time>2022-07-21T09:22:44.503Z</time>
      </trkpt>
      <trkpt lat="44.21126" lon="0.90057">
        <ele>133</ele>
        <time>2022-07-21T09:22:45.503Z</time>
      </trkpt>
      <trkpt lat="44.21126" lon="0.90055">
        <ele>134</ele>
        <time>2022-07-21T09:22:46.503Z</time>
      </trkpt>
      <trkpt lat="44.21126" lon="0.90053">
        <ele>134</ele>
        <time>2022-07-21T09:22:47.503Z</time>
      </trkpt>
      <trkpt lat="44.21126" lon="0.90051">
        <ele>135</ele>
        <time>2022-07-21T09:22:48.503Z</time>
      </trkpt>
      <trkpt lat="44.21126" lon="0.90049">
        <ele>136</ele>
        <time>2022-07-21T09:22:49.503Z</time>
      </trkpt>
      <trkpt lat="44.21126" lon="0.90047">
        <ele>134</ele>
        <time>2022-07-21T09:22:50.503Z</time>
      </trkpt>
      <trkpt lat="44.21126" lon="0.90045">
        <ele>134</ele>
        <time>2022-07-21T09:22:51.503Z</time>
      </trkpt>
      <trkpt lat="44.21126" lon="0.90043">
        <ele>134</ele>
        <time>2022-07-21T09:22:52.503Z</time>
      </trkpt>
      <trkpt lat="44.21126" lon="0.90042">
        <ele>135</ele>
        <time>2022-07-21T09:22:53.503Z</time>
      </trkpt>
      <trkpt lat="44.21126" lon="0.9004">
        <ele>135</ele>
        <time>2022-07-21T09:22:54.503Z</time>
      </trkpt>
      <trkpt lat="44.21126" lon="0.90038">
        <ele>135</ele>
        <time>2022-07-21T09:22:55.503Z</time>
      </trkpt>
      <trkpt lat="44.21126" lon="0.90037">
        <ele>135</ele>
        <time>2022-07-21T09:22:56.503Z</time>
      </trkpt>
      <trkpt lat="44.21126" lon="0.90036">
        <ele>134</ele>
        <time>2022-07-21T09:22:57.503Z</time>
      </trkpt>
      <trkpt lat="44.21126" lon="0.90034">
        <ele>134</ele>
        <time>2022-07-21T09:22:58.503Z</time>
      </trkpt>
      <trkpt lat="44.21126" lon="0.90033">
        <ele>134</ele>
        <time>2022-07-21T09:22:59.503Z</time>
      </trkpt>
      <trkpt lat="44.21126" lon="0.90032">
        <ele>134</ele>
        <time>2022-07-21T09:23:00.503Z</time>
      </trkpt>
      <trkpt lat="44.21126" lon="0.90031">
        <ele>135</ele>
        <time>2022-07-21T09:23:01.503Z</time>
      </trkpt>
      <trkpt lat="44.21126" lon="0.90029">
        <ele>135</ele>
        <time>2022-07-21T09:23:02.503Z</time>
      </trkpt>
      <trkpt lat="44.21126" lon="0.90028">
        <ele>136</ele>
        <time>2022-07-21T09:23:03.503Z</time>
      </trkpt>
      <trkpt lat="44.21126" lon="0.90027">
        <ele>136</ele>
        <time>2022-07-21T09:23:04.503Z</time>
      </trkpt>
      <trkpt lat="44.21126" lon="0.90025">
        <ele>136</ele>
        <time>2022-07-21T09:23:05.503Z</time>
      </trkpt>
      <trkpt lat="44.21126" lon="0.90024">
        <ele>136</ele>
        <time>2022-07-21T09:23:06.503Z</time>
      </trkpt>
      <trkpt lat="44.21126" lon="0.90022">
        <ele>136</ele>
        <time>2022-07-21T09:23:07.503Z</time>
      </trkpt>
      <trkpt lat="44.21126" lon="0.90021">
        <ele>135</ele>
        <time>2022-07-21T09:23:08.503Z</time>
      </trkpt>
      <trkpt lat="44.21126" lon="0.90019">
        <ele>135</ele>
        <time>2022-07-21T09:23:09.503Z</time>
      </trkpt>
      <trkpt lat="44.21126" lon="0.90018">
        <ele>135</ele>
        <time>2022-07-21T09:23:10.503Z</time>
      </trkpt>
      <trkpt lat="44.21126" lon="0.90016">
        <ele>135</ele>
        <time>2022-07-21T09:23:11.503Z</time>
      </trkpt>
      <trkpt lat="44.21126" lon="0.90015">
        <ele>134</ele>
        <time>2022-07-21T09:23:12.503Z</time>
      </trkpt>
      <trkpt lat="44.21127" lon="0.90014">
        <ele>134</ele>
        <time>2022-07-21T09:23:13.503Z</time>
      </trkpt>
      <trkpt lat="44.21127" lon="0.90012">
        <ele>134</ele>
        <time>2022-07-21T09:23:14.503Z</time>
      </trkpt>
      <trkpt lat="44.21128" lon="0.90011">
        <ele>134</ele>
        <time>2022-07-21T09:23:15.503Z</time>
      </trkpt>
      <trkpt lat="44.21128" lon="0.90008">
        <ele>133</ele>
        <time>2022-07-21T09:23:16.503Z</time>
      </trkpt>
      <trkpt lat="44.21129" lon="0.90007">
        <ele>133</ele>
        <time>2022-07-21T09:23:17.503Z</time>
      </trkpt>
      <trkpt lat="44.2113" lon="0.90005">
        <ele>133</ele>
        <time>2022-07-21T09:23:18.503Z</time>
      </trkpt>
      <trkpt lat="44.2113" lon="0.90004">
        <ele>133</ele>
        <time>2022-07-21T09:23:19.503Z</time>
      </trkpt>
      <trkpt lat="44.2113" lon="0.90002">
        <ele>133</ele>
        <time>2022-07-21T09:23:20.503Z</time>
      </trkpt>
      <trkpt lat="44.21131" lon="0.90001">
        <ele>133</ele>
        <time>2022-07-21T09:23:21.503Z</time>
      </trkpt>
      <trkpt lat="44.21132" lon="0.89999">
        <ele>133</ele>
        <time>2022-07-21T09:23:22.503Z</time>
      </trkpt>
      <trkpt lat="44.21132" lon="0.89997">
        <ele>133</ele>
        <time>2022-07-21T09:23:23.503Z</time>
      </trkpt>
      <trkpt lat="44.21133" lon="0.89996">
        <ele>133</ele>
        <time>2022-07-21T09:23:24.503Z</time>
      </trkpt>
      <trkpt lat="44.21133" lon="0.89994">
        <ele>132</ele>
        <time>2022-07-21T09:23:25.503Z</time>
      </trkpt>
      <trkpt lat="44.21133" lon="0.89993">
        <ele>132</ele>
        <time>2022-07-21T09:23:26.503Z</time>
      </trkpt>
      <trkpt lat="44.21134" lon="0.89992">
        <ele>131</ele>
        <time>2022-07-21T09:23:27.503Z</time>
      </trkpt>
      <trkpt lat="44.21134" lon="0.89991">
        <ele>131</ele>
        <time>2022-07-21T09:23:28.503Z</time>
      </trkpt>
      <trkpt lat="44.21134" lon="0.89989">
        <ele>131</ele>
        <time>2022-07-21T09:23:29.503Z</time>
      </trkpt>
      <trkpt lat="44.21135" lon="0.89988">
        <ele>130</ele>
        <time>2022-07-21T09:23:30.503Z</time>
      </trkpt>
      <trkpt lat="44.21135" lon="0.89986">
        <ele>130</ele>
        <time>2022-07-21T09:23:31.503Z</time>
      </trkpt>
      <trkpt lat="44.21135" lon="0.89985">
        <ele>130</ele>
        <time>2022-07-21T09:23:32.503Z</time>
      </trkpt>
      <trkpt lat="44.21136" lon="0.89983">
        <ele>129</ele>
        <time>2022-07-21T09:23:33.503Z</time>
      </trkpt>
      <trkpt lat="44.21136" lon="0.89982">
        <ele>130</ele>
        <time>2022-07-21T09:23:34.503Z</time>
      </trkpt>
      <trkpt lat="44.21137" lon="0.89981">
        <ele>129</ele>
        <time>2022-07-21T09:23:35.503Z</time>
      </trkpt>
      <trkpt lat="44.21137" lon="0.89979">
        <ele>129</ele>
        <time>2022-07-21T09:23:36.503Z</time>
      </trkpt>
      <trkpt lat="44.21137" lon="0.89977">
        <ele>129</ele>
        <time>2022-07-21T09:23:37.503Z</time>
      </trkpt>
      <trkpt lat="44.21138" lon="0.89974">
        <ele>130</ele>
        <time>2022-07-21T09:23:38.503Z</time>
      </trkpt>
      <trkpt lat="44.21138" lon="0.89973">
        <ele>129</ele>
        <time>2022-07-21T09:23:39.503Z</time>
      </trkpt>
      <trkpt lat="44.21139" lon="0.89971">
        <ele>129</ele>
        <time>2022-07-21T09:23:40.503Z</time>
      </trkpt>
      <trkpt lat="44.21139" lon="0.89969">
        <ele>128</ele>
        <time>2022-07-21T09:23:41.503Z</time>
      </trkpt>
      <trkpt lat="44.21139" lon="0.89967">
        <ele>128</ele>
        <time>2022-07-21T09:23:42.503Z</time>
      </trkpt>
      <trkpt lat="44.21139" lon="0.89964">
        <ele>128</ele>
        <time>2022-07-21T09:23:43.503Z</time>
      </trkpt>
      <trkpt lat="44.21139" lon="0.89963">
        <ele>128</ele>
        <time>2022-07-21T09:23:44.503Z</time>
      </trkpt>
      <trkpt lat="44.2114" lon="0.89961">
        <ele>129</ele>
        <time>2022-07-21T09:23:45.503Z</time>
      </trkpt>
      <trkpt lat="44.2114" lon="0.89959">
        <ele>130</ele>
        <time>2022-07-21T09:23:46.503Z</time>
      </trkpt>
      <trkpt lat="44.2114" lon="0.89958">
        <ele>129</ele>
        <time>2022-07-21T09:23:47.503Z</time>
      </trkpt>
      <trkpt lat="44.2114" lon="0.89956">
        <ele>130</ele>
        <time>2022-07-21T09:23:48.503Z</time>
      </trkpt>
      <trkpt lat="44.2114" lon="0.89954">
        <ele>130</ele>
        <time>2022-07-21T09:23:49.503Z</time>
      </trkpt>
      <trkpt lat="44.2114" lon="0.89952">
        <ele>130</ele>
        <time>2022-07-21T09:23:50.503Z</time>
      </trkpt>
      <trkpt lat="44.2114" lon="0.89951">
        <ele>129</ele>
        <time>2022-07-21T09:23:51.503Z</time>
      </trkpt>
      <trkpt lat="44.2114" lon="0.89949">
        <ele>130</ele>
        <time>2022-07-21T09:23:52.503Z</time>
      </trkpt>
      <trkpt lat="44.2114" lon="0.89947">
        <ele>129</ele>
        <time>2022-07-21T09:23:53.503Z</time>
      </trkpt>
      <trkpt lat="44.2114" lon="0.89946">
        <ele>129</ele>
        <time>2022-07-21T09:23:54.503Z</time>
      </trkpt>
      <trkpt lat="44.2114" lon="0.89945">
        <ele>129</ele>
        <time>2022-07-21T09:23:55.503Z</time>
      </trkpt>
      <trkpt lat="44.2114" lon="0.89943">
        <ele>129</ele>
        <time>2022-07-21T09:23:56.503Z</time>
      </trkpt>
      <trkpt lat="44.2114" lon="0.89942">
        <ele>129</ele>
        <time>2022-07-21T09:23:57.503Z</time>
      </trkpt>
      <trkpt lat="44.21139" lon="0.89941">
        <ele>130</ele>
        <time>2022-07-21T09:23:58.503Z</time>
      </trkpt>
      <trkpt lat="44.21138" lon="0.89939">
        <ele>129</ele>
        <time>2022-07-21T09:23:59.503Z</time>
      </trkpt>
      <trkpt lat="44.21137" lon="0.89938">
        <ele>129</ele>
        <time>2022-07-21T09:24:00.503Z</time>
      </trkpt>
      <trkpt lat="44.21137" lon="0.89937">
        <ele>128</ele>
        <time>2022-07-21T09:24:01.503Z</time>
      </trkpt>
      <trkpt lat="44.21136" lon="0.89937">
        <ele>128</ele>
        <time>2022-07-21T09:24:02.503Z</time>
      </trkpt>
      <trkpt lat="44.21135" lon="0.89936">
        <ele>127</ele>
        <time>2022-07-21T09:24:03.503Z</time>
      </trkpt>
      <trkpt lat="44.21134" lon="0.89936">
        <ele>127</ele>
        <time>2022-07-21T09:24:04.503Z</time>
      </trkpt>
      <trkpt lat="44.21133" lon="0.89936">
        <ele>125</ele>
        <time>2022-07-21T09:24:05.503Z</time>
      </trkpt>
      <trkpt lat="44.21132" lon="0.89935">
        <ele>126</ele>
        <time>2022-07-21T09:24:06.503Z</time>
      </trkpt>
      <trkpt lat="44.2113" lon="0.89935">
        <ele>125</ele>
        <time>2022-07-21T09:24:07.503Z</time>
      </trkpt>
      <trkpt lat="44.21129" lon="0.89934">
        <ele>125</ele>
        <time>2022-07-21T09:24:08.503Z</time>
      </trkpt>
      <trkpt lat="44.21128" lon="0.89934">
        <ele>125</ele>
        <time>2022-07-21T09:24:09.503Z</time>
      </trkpt>
      <trkpt lat="44.21127" lon="0.89934">
        <ele>127</ele>
        <time>2022-07-21T09:24:10.503Z</time>
      </trkpt>
      <trkpt lat="44.21126" lon="0.89935">
        <ele>127</ele>
        <time>2022-07-21T09:24:11.503Z</time>
      </trkpt>
      <trkpt lat="44.21125" lon="0.89935">
        <ele>127</ele>
        <time>2022-07-21T09:24:12.503Z</time>
      </trkpt>
      <trkpt lat="44.21124" lon="0.89935">
        <ele>127</ele>
        <time>2022-07-21T09:24:13.503Z</time>
      </trkpt>
      <trkpt lat="44.21124" lon="0.89936">
        <ele>127</ele>
        <time>2022-07-21T09:24:14.503Z</time>
      </trkpt>
      <trkpt lat="44.21123" lon="0.89936">
        <ele>126</ele>
        <time>2022-07-21T09:24:15.503Z</time>
      </trkpt>
      <trkpt lat="44.21122" lon="0.89937">
        <ele>126</ele>
        <time>2022-07-21T09:24:16.503Z</time>
      </trkpt>
      <trkpt lat="44.21122" lon="0.89937">
        <ele>125</ele>
        <time>2022-07-21T09:24:17.503Z</time>
      </trkpt>
      <trkpt lat="44.21121" lon="0.89938">
        <ele>124</ele>
        <time>2022-07-21T09:24:18.503Z</time>
      </trkpt>
      <trkpt lat="44.21121" lon="0.89939">
        <ele>124</ele>
        <time>2022-07-21T09:24:19.503Z</time>
      </trkpt>
      <trkpt lat="44.2112" lon="0.89939">
        <ele>123</ele>
        <time>2022-07-21T09:24:20.503Z</time>
      </trkpt>
      <trkpt lat="44.2112" lon="0.89939">
        <ele>123</ele>
        <time>2022-07-21T09:24:21.503Z</time>
      </trkpt>
      <trkpt lat="44.2112" lon="0.89939">
        <ele>123</ele>
        <time>2022-07-21T09:24:22.503Z</time>
      </trkpt>
      <trkpt lat="44.2112" lon="0.8994">
        <ele>123</ele>
        <time>2022-07-21T09:24:23.503Z</time>
      </trkpt>
      <trkpt lat="44.21119" lon="0.89941">
        <ele>123</ele>
        <time>2022-07-21T09:24:24.503Z</time>
      </trkpt>
      <trkpt lat="44.21118" lon="0.89942">
        <ele>123</ele>
        <time>2022-07-21T09:24:25.503Z</time>
      </trkpt>
      <trkpt lat="44.21118" lon="0.89944">
        <ele>123</ele>
        <time>2022-07-21T09:24:26.503Z</time>
      </trkpt>
      <trkpt lat="44.21117" lon="0.89945">
        <ele>123</ele>
        <time>2022-07-21T09:24:27.503Z</time>
      </trkpt>
      <trkpt lat="44.21116" lon="0.89946">
        <ele>123</ele>
        <time>2022-07-21T09:24:28.503Z</time>
      </trkpt>
      <trkpt lat="44.21116" lon="0.89947">
        <ele>123</ele>
        <time>2022-07-21T09:24:29.503Z</time>
      </trkpt>
      <trkpt lat="44.21115" lon="0.89948">
        <ele>123</ele>
        <time>2022-07-21T09:24:30.503Z</time>
      </trkpt>
      <trkpt lat="44.21115" lon="0.8995">
        <ele>123</ele>
        <time>2022-07-21T09:24:31.503Z</time>
      </trkpt>
      <trkpt lat="44.21114" lon="0.89952">
        <ele>122</ele>
        <time>2022-07-21T09:24:32.503Z</time>
      </trkpt>
      <trkpt lat="44.21114" lon="0.89953">
        <ele>121</ele>
        <time>2022-07-21T09:24:33.503Z</time>
      </trkpt>
      <trkpt lat="44.21113" lon="0.89955">
        <ele>121</ele>
        <time>2022-07-21T09:24:34.503Z</time>
      </trkpt>
      <trkpt lat="44.21112" lon="0.89957">
        <ele>121</ele>
        <time>2022-07-21T09:24:35.503Z</time>
      </trkpt>
      <trkpt lat="44.21112" lon="0.89958">
        <ele>122</ele>
        <time>2022-07-21T09:24:36.503Z</time>
      </trkpt>
      <trkpt lat="44.21111" lon="0.89959">
        <ele>122</ele>
        <time>2022-07-21T09:24:37.503Z</time>
      </trkpt>
      <trkpt lat="44.21111" lon="0.89961">
        <ele>122</ele>
        <time>2022-07-21T09:24:38.503Z</time>
      </trkpt>
      <trkpt lat="44.2111" lon="0.89962">
        <ele>123</ele>
        <time>2022-07-21T09:24:39.503Z</time>
      </trkpt>
      <trkpt lat="44.21109" lon="0.89964">
        <ele>122</ele>
        <time>2022-07-21T09:24:40.503Z</time>
      </trkpt>
      <trkpt lat="44.21109" lon="0.89965">
        <ele>122</ele>
        <time>2022-07-21T09:24:41.503Z</time>
      </trkpt>
      <trkpt lat="44.21108" lon="0.89967">
        <ele>122</ele>
        <time>2022-07-21T09:24:42.503Z</time>
      </trkpt>
      <trkpt lat="44.21107" lon="0.89968">
        <ele>121</ele>
        <time>2022-07-21T09:24:43.503Z</time>
      </trkpt>
      <trkpt lat="44.21107" lon="0.8997">
        <ele>122</ele>
        <time>2022-07-21T09:24:44.503Z</time>
      </trkpt>
      <trkpt lat="44.21106" lon="0.89971">
        <ele>120</ele>
        <time>2022-07-21T09:24:45.503Z</time>
      </trkpt>
      <trkpt lat="44.21106" lon="0.89973">
        <ele>120</ele>
        <time>2022-07-21T09:24:46.503Z</time>
      </trkpt>
      <trkpt lat="44.21106" lon="0.89974">
        <ele>120</ele>
        <time>2022-07-21T09:24:47.503Z</time>
      </trkpt>
      <trkpt lat="44.21105" lon="0.89975">
        <ele>120</ele>
        <time>2022-07-21T09:24:48.503Z</time>
      </trkpt>
      <trkpt lat="44.21105" lon="0.89977">
        <ele>119</ele>
        <time>2022-07-21T09:24:49.503Z</time>
      </trkpt>
      <trkpt lat="44.21105" lon="0.89979">
        <ele>119</ele>
        <time>2022-07-21T09:24:50.503Z</time>
      </trkpt>
      <trkpt lat="44.21104" lon="0.8998">
        <ele>119</ele>
        <time>2022-07-21T09:24:51.503Z</time>
      </trkpt>
      <trkpt lat="44.21103" lon="0.89982">
        <ele>119</ele>
        <time>2022-07-21T09:24:52.503Z</time>
      </trkpt>
      <trkpt lat="44.21103" lon="0.89984">
        <ele>119</ele>
        <time>2022-07-21T09:24:53.503Z</time>
      </trkpt>
      <trkpt lat="44.21103" lon="0.89985">
        <ele>119</ele>
        <time>2022-07-21T09:24:54.503Z</time>
      </trkpt>
      <trkpt lat="44.21102" lon="0.89986">
        <ele>119</ele>
        <time>2022-07-21T09:24:55.503Z</time>
      </trkpt>
      <trkpt lat="44.21102" lon="0.89988">
        <ele>118</ele>
        <time>2022-07-21T09:24:56.503Z</time>
      </trkpt>
      <trkpt lat="44.21101" lon="0.89989">
        <ele>118</ele>
        <time>2022-07-21T09:24:57.503Z</time>
      </trkpt>
      <trkpt lat="44.21101" lon="0.89991">
        <ele>118</ele>
        <time>2022-07-21T09:24:58.503Z</time>
      </trkpt>
      <trkpt lat="44.211" lon="0.89993">
        <ele>118</ele>
        <time>2022-07-21T09:24:59.503Z</time>
      </trkpt>
      <trkpt lat="44.211" lon="0.89994">
        <ele>119</ele>
        <time>2022-07-21T09:25:00.503Z</time>
      </trkpt>
      <trkpt lat="44.21099" lon="0.89996">
        <ele>119</ele>
        <time>2022-07-21T09:25:01.503Z</time>
      </trkpt>
      <trkpt lat="44.21098" lon="0.89997">
        <ele>119</ele>
        <time>2022-07-21T09:25:02.503Z</time>
      </trkpt>
      <trkpt lat="44.21098" lon="0.89998">
        <ele>119</ele>
        <time>2022-07-21T09:25:03.503Z</time>
      </trkpt>
      <trkpt lat="44.21097" lon="0.89999">
        <ele>119</ele>
        <time>2022-07-21T09:25:04.503Z</time>
      </trkpt>
      <trkpt lat="44.21096" lon="0.90001">
        <ele>119</ele>
        <time>2022-07-21T09:25:05.503Z</time>
      </trkpt>
      <trkpt lat="44.21096" lon="0.90002">
        <ele>119</ele>
        <time>2022-07-21T09:25:06.503Z</time>
      </trkpt>
      <trkpt lat="44.21095" lon="0.90003">
        <ele>119</ele>
        <time>2022-07-21T09:25:07.503Z</time>
      </trkpt>
      <trkpt lat="44.21094" lon="0.90004">
        <ele>119</ele>
        <time>2022-07-21T09:25:08.503Z</time>
      </trkpt>
      <trkpt lat="44.21093" lon="0.90006">
        <ele>118</ele>
        <time>2022-07-21T09:25:09.503Z</time>
      </trkpt>
      <trkpt lat="44.21093" lon="0.90007">
        <ele>118</ele>
        <time>2022-07-21T09:25:10.503Z</time>
      </trkpt>
      <trkpt lat="44.21092" lon="0.90008">
        <ele>118</ele>
        <time>2022-07-21T09:25:11.503Z</time>
      </trkpt>
      <trkpt lat="44.21091" lon="0.90009">
        <ele>117</ele>
        <time>2022-07-21T09:25:12.503Z</time>
      </trkpt>
      <trkpt lat="44.21091" lon="0.9001">
        <ele>117</ele>
        <time>2022-07-21T09:25:13.503Z</time>
      </trkpt>
      <trkpt lat="44.2109" lon="0.90011">
        <ele>116</ele>
        <time>2022-07-21T09:25:14.503Z</time>
      </trkpt>
      <trkpt lat="44.21089" lon="0.90012">
        <ele>116</ele>
        <time>2022-07-21T09:25:15.503Z</time>
      </trkpt>
      <trkpt lat="44.21088" lon="0.90013">
        <ele>115</ele>
        <time>2022-07-21T09:25:16.503Z</time>
      </trkpt>
      <trkpt lat="44.21087" lon="0.90014">
        <ele>115</ele>
        <time>2022-07-21T09:25:17.503Z</time>
      </trkpt>
      <trkpt lat="44.21086" lon="0.90015">
        <ele>115</ele>
        <time>2022-07-21T09:25:18.503Z</time>
      </trkpt>
      <trkpt lat="44.21085" lon="0.90016">
        <ele>115</ele>
        <time>2022-07-21T09:25:19.503Z</time>
      </trkpt>
      <trkpt lat="44.21083" lon="0.90017">
        <ele>115</ele>
        <time>2022-07-21T09:25:20.503Z</time>
      </trkpt>
      <trkpt lat="44.21082" lon="0.90018">
        <ele>115</ele>
        <time>2022-07-21T09:25:21.503Z</time>
      </trkpt>
      <trkpt lat="44.21081" lon="0.90019">
        <ele>114</ele>
        <time>2022-07-21T09:25:22.503Z</time>
      </trkpt>
      <trkpt lat="44.2108" lon="0.90019">
        <ele>114</ele>
        <time>2022-07-21T09:25:23.503Z</time>
      </trkpt>
      <trkpt lat="44.21078" lon="0.9002">
        <ele>114</ele>
        <time>2022-07-21T09:25:24.503Z</time>
      </trkpt>
      <trkpt lat="44.21077" lon="0.9002">
        <ele>114</ele>
        <time>2022-07-21T09:25:25.503Z</time>
      </trkpt>
      <trkpt lat="44.21076" lon="0.9002">
        <ele>114</ele>
        <time>2022-07-21T09:25:26.503Z</time>
      </trkpt>
      <trkpt lat="44.21074" lon="0.9002">
        <ele>114</ele>
        <time>2022-07-21T09:25:27.503Z</time>
      </trkpt>
      <trkpt lat="44.21073" lon="0.9002">
        <ele>114</ele>
        <time>2022-07-21T09:25:28.503Z</time>
      </trkpt>
      <trkpt lat="44.21071" lon="0.9002">
        <ele>114</ele>
        <time>2022-07-21T09:25:29.503Z</time>
      </trkpt>
      <trkpt lat="44.2107" lon="0.90019">
        <ele>113</ele>
        <time>2022-07-21T09:25:30.503Z</time>
      </trkpt>
      <trkpt lat="44.21068" lon="0.90019">
        <ele>113</ele>
        <time>2022-07-21T09:25:31.503Z</time>
      </trkpt>
      <trkpt lat="44.21067" lon="0.90018">
        <ele>113</ele>
        <time>2022-07-21T09:25:32.503Z</time>
      </trkpt>
      <trkpt lat="44.21066" lon="0.90018">
        <ele>113</ele>
        <time>2022-07-21T09:25:33.503Z</time>
      </trkpt>
      <trkpt lat="44.21065" lon="0.90017">
        <ele>113</ele>
        <time>2022-07-21T09:25:34.503Z</time>
      </trkpt>
      <trkpt lat="44.21064" lon="0.90016">
        <ele>113</ele>
        <time>2022-07-21T09:25:35.503Z</time>
      </trkpt>
      <trkpt lat="44.21063" lon="0.90015">
        <ele>113</ele>
        <time>2022-07-21T09:25:36.503Z</time>
      </trkpt>
      <trkpt lat="44.21062" lon="0.90013">
        <ele>113</ele>
        <time>2022-07-21T09:25:37.503Z</time>
      </trkpt>
      <trkpt lat="44.21061" lon="0.90012">
        <ele>113</ele>
        <time>2022-07-21T09:25:38.503Z</time>
      </trkpt>
      <trkpt lat="44.2106" lon="0.9001">
        <ele>113</ele>
        <time>2022-07-21T09:25:39.503Z</time>
      </trkpt>
      <trkpt lat="44.21059" lon="0.90008">
        <ele>112</ele>
        <time>2022-07-21T09:25:40.503Z</time>
      </trkpt>
      <trkpt lat="44.21058" lon="0.90007">
        <ele>112</ele>
        <time>2022-07-21T09:25:41.503Z</time>
      </trkpt>
      <trkpt lat="44.21058" lon="0.90005">
        <ele>112</ele>
        <time>2022-07-21T09:25:42.503Z</time>
      </trkpt>
      <trkpt lat="44.21057" lon="0.90003">
        <ele>112</ele>
        <time>2022-07-21T09:25:43.503Z</time>
      </trkpt>
      <trkpt lat="44.21056" lon="0.90002">
        <ele>111</ele>
        <time>2022-07-21T09:25:44.503Z</time>
      </trkpt>
      <trkpt lat="44.21056" lon="0.9">
        <ele>111</ele>
        <time>2022-07-21T09:25:45.503Z</time>
      </trkpt>
      <trkpt lat="44.21056" lon="0.89998">
        <ele>111</ele>
        <time>2022-07-21T09:25:46.503Z</time>
      </trkpt>
      <trkpt lat="44.21055" lon="0.89997">
        <ele>110</ele>
        <time>2022-07-21T09:25:47.503Z</time>
      </trkpt>
      <trkpt lat="44.21055" lon="0.89995">
        <ele>110</ele>
        <time>2022-07-21T09:25:48.503Z</time>
      </trkpt>
      <trkpt lat="44.21055" lon="0.89994">
        <ele>110</ele>
        <time>2022-07-21T09:25:49.503Z</time>
      </trkpt>
      <trkpt lat="44.21054" lon="0.89992">
        <ele>110</ele>
        <time>2022-07-21T09:25:50.503Z</time>
      </trkpt>
      <trkpt lat="44.21054" lon="0.8999">
        <ele>110</ele>
        <time>2022-07-21T09:25:51.503Z</time>
      </trkpt>
      <trkpt lat="44.21054" lon="0.89989">
        <ele>110</ele>
        <time>2022-07-21T09:25:52.503Z</time>
      </trkpt>
      <trkpt lat="44.21054" lon="0.89987">
        <ele>110</ele>
        <time>2022-07-21T09:25:53.503Z</time>
      </trkpt>
      <trkpt lat="44.21054" lon="0.89985">
        <ele>111</ele>
        <time>2022-07-21T09:25:54.503Z</time>
      </trkpt>
      <trkpt lat="44.21054" lon="0.89983">
        <ele>111</ele>
        <time>2022-07-21T09:25:55.503Z</time>
      </trkpt>
      <trkpt lat="44.21054" lon="0.89982">
        <ele>111</ele>
        <time>2022-07-21T09:25:56.503Z</time>
      </trkpt>
      <trkpt lat="44.21054" lon="0.89981">
        <ele>111</ele>
        <time>2022-07-21T09:25:57.503Z</time>
      </trkpt>
      <trkpt lat="44.21054" lon="0.89979">
        <ele>111</ele>
        <time>2022-07-21T09:25:58.503Z</time>
      </trkpt>
      <trkpt lat="44.21054" lon="0.89978">
        <ele>110</ele>
        <time>2022-07-21T09:25:59.503Z</time>
      </trkpt>
      <trkpt lat="44.21054" lon="0.89976">
        <ele>110</ele>
        <time>2022-07-21T09:26:00.503Z</time>
      </trkpt>
      <trkpt lat="44.21054" lon="0.89975">
        <ele>110</ele>
        <time>2022-07-21T09:26:01.503Z</time>
      </trkpt>
      <trkpt lat="44.21054" lon="0.89973">
        <ele>110</ele>
        <time>2022-07-21T09:26:02.503Z</time>
      </trkpt>
      <trkpt lat="44.21054" lon="0.89971">
        <ele>110</ele>
        <time>2022-07-21T09:26:03.503Z</time>
      </trkpt>
      <trkpt lat="44.21054" lon="0.89969">
        <ele>110</ele>
        <time>2022-07-21T09:26:04.503Z</time>
      </trkpt>
      <trkpt lat="44.21054" lon="0.89968">
        <ele>109</ele>
        <time>2022-07-21T09:26:05.503Z</time>
      </trkpt>
      <trkpt lat="44.21054" lon="0.89966">
        <ele>110</ele>
        <time>2022-07-21T09:26:06.503Z</time>
      </trkpt>
      <trkpt lat="44.21054" lon="0.89965">
        <ele>109</ele>
        <time>2022-07-21T09:26:07.503Z</time>
      </trkpt>
      <trkpt lat="44.21054" lon="0.89963">
        <ele>109</ele>
        <time>2022-07-21T09:26:08.503Z</time>
      </trkpt>
      <trkpt lat="44.21054" lon="0.89961">
        <ele>109</ele>
        <time>2022-07-21T09:26:09.503Z</time>
      </trkpt>
      <trkpt lat="44.21054" lon="0.89959">
        <ele>109</ele>
        <time>2022-07-21T09:26:10.503Z</time>
      </trkpt>
      <trkpt lat="44.21053" lon="0.89958">
        <ele>109</ele>
        <time>2022-07-21T09:26:11.503Z</time>
      </trkpt>
      <trkpt lat="44.21053" lon="0.89956">
        <ele>109</ele>
        <time>2022-07-21T09:26:12.503Z</time>
      </trkpt>
      <trkpt lat="44.21053" lon="0.89954">
        <ele>109</ele>
        <time>2022-07-21T09:26:13.503Z</time>
      </trkpt>
      <trkpt lat="44.21053" lon="0.89952">
        <ele>109</ele>
        <time>2022-07-21T09:26:14.503Z</time>
      </trkpt>
      <trkpt lat="44.21052" lon="0.89951">
        <ele>109</ele>
        <time>2022-07-21T09:26:15.503Z</time>
      </trkpt>
      <trkpt lat="44.21052" lon="0.89949">
        <ele>109</ele>
        <time>2022-07-21T09:26:16.503Z</time>
      </trkpt>
      <trkpt lat="44.21052" lon="0.89947">
        <ele>108</ele>
        <time>2022-07-21T09:26:17.503Z</time>
      </trkpt>
      <trkpt lat="44.21052" lon="0.89946">
        <ele>108</ele>
        <time>2022-07-21T09:26:18.503Z</time>
      </trkpt>
      <trkpt lat="44.21052" lon="0.89944">
        <ele>108</ele>
        <time>2022-07-21T09:26:19.503Z</time>
      </trkpt>
      <trkpt lat="44.21052" lon="0.89942">
        <ele>108</ele>
        <time>2022-07-21T09:26:20.503Z</time>
      </trkpt>
      <trkpt lat="44.21052" lon="0.8994">
        <ele>108</ele>
        <time>2022-07-21T09:26:21.503Z</time>
      </trkpt>
      <trkpt lat="44.21052" lon="0.89938">
        <ele>108</ele>
        <time>2022-07-21T09:26:22.503Z</time>
      </trkpt>
      <trkpt lat="44.21052" lon="0.89936">
        <ele>107</ele>
        <time>2022-07-21T09:26:23.503Z</time>
      </trkpt>
      <trkpt lat="44.21052" lon="0.89934">
        <ele>107</ele>
        <time>2022-07-21T09:26:24.503Z</time>
      </trkpt>
      <trkpt lat="44.21052" lon="0.89933">
        <ele>107</ele>
        <time>2022-07-21T09:26:25.503Z</time>
      </trkpt>
      <trkpt lat="44.21052" lon="0.89931">
        <ele>107</ele>
        <time>2022-07-21T09:26:26.503Z</time>
      </trkpt>
      <trkpt lat="44.21051" lon="0.8993">
        <ele>106</ele>
        <time>2022-07-21T09:26:27.503Z</time>
      </trkpt>
      <trkpt lat="44.21051" lon="0.89928">
        <ele>106</ele>
        <time>2022-07-21T09:26:28.503Z</time>
      </trkpt>
      <trkpt lat="44.21051" lon="0.89926">
        <ele>106</ele>
        <time>2022-07-21T09:26:29.503Z</time>
      </trkpt>
      <trkpt lat="44.21051" lon="0.89925">
        <ele>106</ele>
        <time>2022-07-21T09:26:30.503Z</time>
      </trkpt>
      <trkpt lat="44.21051" lon="0.89923">
        <ele>106</ele>
        <time>2022-07-21T09:26:31.503Z</time>
      </trkpt>
      <trkpt lat="44.21051" lon="0.89921">
        <ele>106</ele>
        <time>2022-07-21T09:26:32.503Z</time>
      </trkpt>
      <trkpt lat="44.21051" lon="0.89919">
        <ele>106</ele>
        <time>2022-07-21T09:26:33.503Z</time>
      </trkpt>
      <trkpt lat="44.21051" lon="0.89917">
        <ele>105</ele>
        <time>2022-07-21T09:26:34.503Z</time>
      </trkpt>
      <trkpt lat="44.21051" lon="0.89916">
        <ele>105</ele>
        <time>2022-07-21T09:26:35.503Z</time>
      </trkpt>
      <trkpt lat="44.2105" lon="0.89914">
        <ele>105</ele>
        <time>2022-07-21T09:26:36.503Z</time>
      </trkpt>
      <trkpt lat="44.2105" lon="0.89913">
        <ele>105</ele>
        <time>2022-07-21T09:26:37.503Z</time>
      </trkpt>
      <trkpt lat="44.2105" lon="0.89911">
        <ele>104</ele>
        <time>2022-07-21T09:26:38.503Z</time>
      </trkpt>
      <trkpt lat="44.2105" lon="0.8991">
        <ele>104</ele>
        <time>2022-07-21T09:26:39.503Z</time>
      </trkpt>
      <trkpt lat="44.2105" lon="0.89908">
        <ele>104</ele>
        <time>2022-07-21T09:26:40.503Z</time>
      </trkpt>
      <trkpt lat="44.2105" lon="0.89906">
        <ele>103</ele>
        <time>2022-07-21T09:26:41.503Z</time>
      </trkpt>
      <trkpt lat="44.2105" lon="0.89904">
        <ele>103</ele>
        <time>2022-07-21T09:26:42.503Z</time>
      </trkpt>
      <trkpt lat="44.2105" lon="0.89902">
        <ele>103</ele>
        <time>2022-07-21T09:26:43.503Z</time>
      </trkpt>
      <trkpt lat="44.2105" lon="0.89901">
        <ele>103</ele>
        <time>2022-07-21T09:26:44.503Z</time>
      </trkpt>
      <trkpt lat="44.2105" lon="0.89899">
        <ele>103</ele>
        <time>2022-07-21T09:26:45.503Z</time>
      </trkpt>
      <trkpt lat="44.2105" lon="0.89898">
        <ele>103</ele>
        <time>2022-07-21T09:26:46.503Z</time>
      </trkpt>
      <trkpt lat="44.21049" lon="0.89896">
        <ele>103</ele>
        <time>2022-07-21T09:26:47.503Z</time>
      </trkpt>
      <trkpt lat="44.21049" lon="0.89895">
        <ele>102</ele>
        <time>2022-07-21T09:26:48.503Z</time>
      </trkpt>
      <trkpt lat="44.21049" lon="0.89893">
        <ele>102</ele>
        <time>2022-07-21T09:26:49.503Z</time>
      </trkpt>
      <trkpt lat="44.21049" lon="0.89892">
        <ele>102</ele>
        <time>2022-07-21T09:26:50.503Z</time>
      </trkpt>
      <trkpt lat="44.21048" lon="0.8989">
        <ele>102</ele>
        <time>2022-07-21T09:26:51.503Z</time>
      </trkpt>
      <trkpt lat="44.21048" lon="0.89888">
        <ele>102</ele>
        <time>2022-07-21T09:26:52.503Z</time>
      </trkpt>
      <trkpt lat="44.21048" lon="0.89887">
        <ele>102</ele>
        <time>2022-07-21T09:26:53.503Z</time>
      </trkpt>
      <trkpt lat="44.21048" lon="0.89885">
        <ele>102</ele>
        <time>2022-07-21T09:26:54.503Z</time>
      </trkpt>
      <trkpt lat="44.21048" lon="0.89883">
        <ele>101</ele>
        <time>2022-07-21T09:26:55.503Z</time>
      </trkpt>
      <trkpt lat="44.21047" lon="0.89881">
        <ele>101</ele>
        <time>2022-07-21T09:26:56.503Z</time>
      </trkpt>
      <trkpt lat="44.21047" lon="0.8988">
        <ele>101</ele>
        <time>2022-07-21T09:26:57.503Z</time>
      </trkpt>
      <trkpt lat="44.21047" lon="0.89878">
        <ele>101</ele>
        <time>2022-07-21T09:26:58.503Z</time>
      </trkpt>
      <trkpt lat="44.21047" lon="0.89876">
        <ele>101</ele>
        <time>2022-07-21T09:26:59.503Z</time>
      </trkpt>
      <trkpt lat="44.21046" lon="0.89875">
        <ele>101</ele>
        <time>2022-07-21T09:27:00.503Z</time>
      </trkpt>
      <trkpt lat="44.21046" lon="0.89873">
        <ele>100</ele>
        <time>2022-07-21T09:27:01.503Z</time>
      </trkpt>
      <trkpt lat="44.21046" lon="0.89872">
        <ele>101</ele>
        <time>2022-07-21T09:27:02.503Z</time>
      </trkpt>
      <trkpt lat="44.21046" lon="0.8987">
        <ele>100</ele>
        <time>2022-07-21T09:27:03.503Z</time>
      </trkpt>
      <trkpt lat="44.21045" lon="0.89868">
        <ele>101</ele>
        <time>2022-07-21T09:27:04.503Z</time>
      </trkpt>
      <trkpt lat="44.21045" lon="0.89866">
        <ele>100</ele>
        <time>2022-07-21T09:27:05.503Z</time>
      </trkpt>
      <trkpt lat="44.21044" lon="0.89865">
        <ele>101</ele>
        <time>2022-07-21T09:27:06.503Z</time>
      </trkpt>
      <trkpt lat="44.21044" lon="0.89864">
        <ele>101</ele>
        <time>2022-07-21T09:27:07.503Z</time>
      </trkpt>
      <trkpt lat="44.21044" lon="0.89862">
        <ele>101</ele>
        <time>2022-07-21T09:27:08.503Z</time>
      </trkpt>
      <trkpt lat="44.21043" lon="0.89861">
        <ele>101</ele>
        <time>2022-07-21T09:27:09.503Z</time>
      </trkpt>
      <trkpt lat="44.21043" lon="0.89859">
        <ele>102</ele>
        <time>2022-07-21T09:27:10.503Z</time>
      </trkpt>
      <trkpt lat="44.21042" lon="0.89857">
        <ele>101</ele>
        <time>2022-07-21T09:27:11.503Z</time>
      </trkpt>
      <trkpt lat="44.21042" lon="0.89856">
        <ele>101</ele>
        <time>2022-07-21T09:27:12.503Z</time>
      </trkpt>
      <trkpt lat="44.21041" lon="0.89854">
        <ele>101</ele>
        <time>2022-07-21T09:27:13.503Z</time>
      </trkpt>
      <trkpt lat="44.21041" lon="0.89853">
        <ele>101</ele>
        <time>2022-07-21T09:27:14.503Z</time>
      </trkpt>
      <trkpt lat="44.2104" lon="0.89851">
        <ele>101</ele>
        <time>2022-07-21T09:27:15.503Z</time>
      </trkpt>
      <trkpt lat="44.2104" lon="0.8985">
        <ele>101</ele>
        <time>2022-07-21T09:27:16.503Z</time>
      </trkpt>
      <trkpt lat="44.21039" lon="0.89848">
        <ele>101</ele>
        <time>2022-07-21T09:27:17.503Z</time>
      </trkpt>
      <trkpt lat="44.21039" lon="0.89847">
        <ele>101</ele>
        <time>2022-07-21T09:27:18.503Z</time>
      </trkpt>
      <trkpt lat="44.21038" lon="0.89846">
        <ele>101</ele>
        <time>2022-07-21T09:27:19.503Z</time>
      </trkpt>
      <trkpt lat="44.21037" lon="0.89844">
        <ele>102</ele>
        <time>2022-07-21T09:27:20.503Z</time>
      </trkpt>
      <trkpt lat="44.21036" lon="0.89843">
        <ele>103</ele>
        <time>2022-07-21T09:27:21.503Z</time>
      </trkpt>
      <trkpt lat="44.21036" lon="0.89841">
        <ele>102</ele>
        <time>2022-07-21T09:27:22.503Z</time>
      </trkpt>
      <trkpt lat="44.21035" lon="0.8984">
        <ele>102</ele>
        <time>2022-07-21T09:27:23.503Z</time>
      </trkpt>
      <trkpt lat="44.21034" lon="0.89839">
        <ele>101</ele>
        <time>2022-07-21T09:27:24.503Z</time>
      </trkpt>
      <trkpt lat="44.21034" lon="0.89837">
        <ele>100</ele>
        <time>2022-07-21T09:27:25.503Z</time>
      </trkpt>
      <trkpt lat="44.21033" lon="0.89836">
        <ele>100</ele>
        <time>2022-07-21T09:27:26.503Z</time>
      </trkpt>
      <trkpt lat="44.21033" lon="0.89835">
        <ele>101</ele>
        <time>2022-07-21T09:27:27.503Z</time>
      </trkpt>
      <trkpt lat="44.21032" lon="0.89833">
        <ele>102</ele>
        <time>2022-07-21T09:27:28.503Z</time>
      </trkpt>
      <trkpt lat="44.21031" lon="0.89832">
        <ele>102</ele>
        <time>2022-07-21T09:27:29.503Z</time>
      </trkpt>
      <trkpt lat="44.2103" lon="0.8983">
        <ele>102</ele>
        <time>2022-07-21T09:27:30.503Z</time>
      </trkpt>
      <trkpt lat="44.21029" lon="0.89828">
        <ele>102</ele>
        <time>2022-07-21T09:27:31.503Z</time>
      </trkpt>
      <trkpt lat="44.21029" lon="0.89827">
        <ele>101</ele>
        <time>2022-07-21T09:27:32.503Z</time>
      </trkpt>
      <trkpt lat="44.21028" lon="0.89825">
        <ele>101</ele>
        <time>2022-07-21T09:27:33.503Z</time>
      </trkpt>
      <trkpt lat="44.21027" lon="0.89824">
        <ele>101</ele>
        <time>2022-07-21T09:27:34.503Z</time>
      </trkpt>
      <trkpt lat="44.21027" lon="0.89822">
        <ele>102</ele>
        <time>2022-07-21T09:27:35.503Z</time>
      </trkpt>
      <trkpt lat="44.21026" lon="0.89821">
        <ele>101</ele>
        <time>2022-07-21T09:27:36.503Z</time>
      </trkpt>
      <trkpt lat="44.21026" lon="0.89819">
        <ele>101</ele>
        <time>2022-07-21T09:27:37.503Z</time>
      </trkpt>
      <trkpt lat="44.21025" lon="0.89818">
        <ele>101</ele>
        <time>2022-07-21T09:27:38.503Z</time>
      </trkpt>
      <trkpt lat="44.21024" lon="0.89817">
        <ele>101</ele>
        <time>2022-07-21T09:27:39.503Z</time>
      </trkpt>
      <trkpt lat="44.21023" lon="0.89815">
        <ele>101</ele>
        <time>2022-07-21T09:27:40.503Z</time>
      </trkpt>
      <trkpt lat="44.21023" lon="0.89814">
        <ele>101</ele>
        <time>2022-07-21T09:27:41.503Z</time>
      </trkpt>
      <trkpt lat="44.21022" lon="0.89813">
        <ele>101</ele>
        <time>2022-07-21T09:27:42.503Z</time>
      </trkpt>
      <trkpt lat="44.21022" lon="0.89812">
        <ele>101</ele>
        <time>2022-07-21T09:27:43.503Z</time>
      </trkpt>
      <trkpt lat="44.21021" lon="0.89811">
        <ele>101</ele>
        <time>2022-07-21T09:27:44.503Z</time>
      </trkpt>
      <trkpt lat="44.21021" lon="0.8981">
        <ele>101</ele>
        <time>2022-07-21T09:27:45.503Z</time>
      </trkpt>
      <trkpt lat="44.2102" lon="0.89809">
        <ele>100</ele>
        <time>2022-07-21T09:27:46.503Z</time>
      </trkpt>
      <trkpt lat="44.2102" lon="0.89808">
        <ele>101</ele>
        <time>2022-07-21T09:27:47.503Z</time>
      </trkpt>
      <trkpt lat="44.21019" lon="0.89806">
        <ele>100</ele>
        <time>2022-07-21T09:27:48.503Z</time>
      </trkpt>
      <trkpt lat="44.21018" lon="0.89805">
        <ele>100</ele>
        <time>2022-07-21T09:27:49.503Z</time>
      </trkpt>
      <trkpt lat="44.21017" lon="0.89804">
        <ele>101</ele>
        <time>2022-07-21T09:27:50.503Z</time>
      </trkpt>
      <trkpt lat="44.21017" lon="0.89803">
        <ele>101</ele>
        <time>2022-07-21T09:27:51.503Z</time>
      </trkpt>
      <trkpt lat="44.21016" lon="0.89802">
        <ele>101</ele>
        <time>2022-07-21T09:27:52.503Z</time>
      </trkpt>
      <trkpt lat="44.21015" lon="0.89801">
        <ele>102</ele>
        <time>2022-07-21T09:27:53.503Z</time>
      </trkpt>
      <trkpt lat="44.21014" lon="0.89801">
        <ele>101</ele>
        <time>2022-07-21T09:27:54.503Z</time>
      </trkpt>
      <trkpt lat="44.21014" lon="0.898">
        <ele>102</ele>
        <time>2022-07-21T09:27:55.503Z</time>
      </trkpt>
      <trkpt lat="44.21013" lon="0.89799">
        <ele>101</ele>
        <time>2022-07-21T09:27:56.503Z</time>
      </trkpt>
      <trkpt lat="44.21012" lon="0.89797">
        <ele>102</ele>
        <time>2022-07-21T09:27:57.503Z</time>
      </trkpt>
      <trkpt lat="44.2101" lon="0.89796">
        <ele>101</ele>
        <time>2022-07-21T09:27:58.503Z</time>
      </trkpt>
      <trkpt lat="44.21009" lon="0.89795">
        <ele>102</ele>
        <time>2022-07-21T09:27:59.503Z</time>
      </trkpt>
      <trkpt lat="44.21008" lon="0.89794">
        <ele>102</ele>
        <time>2022-07-21T09:28:00.503Z</time>
      </trkpt>
      <trkpt lat="44.21007" lon="0.89793">
        <ele>102</ele>
        <time>2022-07-21T09:28:01.503Z</time>
      </trkpt>
      <trkpt lat="44.21006" lon="0.89792">
        <ele>102</ele>
        <time>2022-07-21T09:28:02.503Z</time>
      </trkpt>
      <trkpt lat="44.21005" lon="0.8979">
        <ele>101</ele>
        <time>2022-07-21T09:28:03.503Z</time>
      </trkpt>
      <trkpt lat="44.21004" lon="0.89789">
        <ele>101</ele>
        <time>2022-07-21T09:28:04.503Z</time>
      </trkpt>
      <trkpt lat="44.21003" lon="0.89788">
        <ele>100</ele>
        <time>2022-07-21T09:28:05.503Z</time>
      </trkpt>
      <trkpt lat="44.21002" lon="0.89787">
        <ele>101</ele>
        <time>2022-07-21T09:28:06.503Z</time>
      </trkpt>
      <trkpt lat="44.21001" lon="0.89786">
        <ele>101</ele>
        <time>2022-07-21T09:28:07.503Z</time>
      </trkpt>
      <trkpt lat="44.21" lon="0.89784">
        <ele>100</ele>
        <time>2022-07-21T09:28:08.503Z</time>
      </trkpt>
      <trkpt lat="44.20999" lon="0.89783">
        <ele>101</ele>
        <time>2022-07-21T09:28:09.503Z</time>
      </trkpt>
      <trkpt lat="44.20999" lon="0.89782">
        <ele>101</ele>
        <time>2022-07-21T09:28:10.503Z</time>
      </trkpt>
      <trkpt lat="44.20998" lon="0.89781">
        <ele>102</ele>
        <time>2022-07-21T09:28:11.503Z</time>
      </trkpt>
      <trkpt lat="44.20997" lon="0.8978">
        <ele>102</ele>
        <time>2022-07-21T09:28:12.503Z</time>
      </trkpt>
      <trkpt lat="44.20996" lon="0.89779">
        <ele>102</ele>
        <time>2022-07-21T09:28:13.503Z</time>
      </trkpt>
      <trkpt lat="44.20996" lon="0.89778">
        <ele>102</ele>
        <time>2022-07-21T09:28:14.503Z</time>
      </trkpt>
      <trkpt lat="44.20995" lon="0.89777">
        <ele>103</ele>
        <time>2022-07-21T09:28:15.503Z</time>
      </trkpt>
      <trkpt lat="44.20994" lon="0.89776">
        <ele>103</ele>
        <time>2022-07-21T09:28:16.503Z</time>
      </trkpt>
      <trkpt lat="44.20992" lon="0.89774">
        <ele>102</ele>
        <time>2022-07-21T09:28:17.503Z</time>
      </trkpt>
      <trkpt lat="44.20991" lon="0.89774">
        <ele>103</ele>
        <time>2022-07-21T09:28:18.503Z</time>
      </trkpt>
      <trkpt lat="44.2099" lon="0.89773">
        <ele>104</ele>
        <time>2022-07-21T09:28:19.503Z</time>
      </trkpt>
      <trkpt lat="44.20989" lon="0.89771">
        <ele>104</ele>
        <time>2022-07-21T09:28:20.503Z</time>
      </trkpt>
      <trkpt lat="44.20989" lon="0.8977">
        <ele>103</ele>
        <time>2022-07-21T09:28:21.503Z</time>
      </trkpt>
      <trkpt lat="44.20988" lon="0.89769">
        <ele>102</ele>
        <time>2022-07-21T09:28:22.503Z</time>
      </trkpt>
      <trkpt lat="44.20987" lon="0.89768">
        <ele>102</ele>
        <time>2022-07-21T09:28:23.503Z</time>
      </trkpt>
      <trkpt lat="44.20986" lon="0.89767">
        <ele>102</ele>
        <time>2022-07-21T09:28:24.503Z</time>
      </trkpt>
      <trkpt lat="44.20985" lon="0.89766">
        <ele>102</ele>
        <time>2022-07-21T09:28:25.503Z</time>
      </trkpt>
      <trkpt lat="44.20984" lon="0.89765">
        <ele>102</ele>
        <time>2022-07-21T09:28:26.503Z</time>
      </trkpt>
      <trkpt lat="44.20983" lon="0.89763">
        <ele>102</ele>
        <time>2022-07-21T09:28:27.503Z</time>
      </trkpt>
      <trkpt lat="44.20982" lon="0.89762">
        <ele>102</ele>
        <time>2022-07-21T09:28:28.503Z</time>
      </trkpt>
      <trkpt lat="44.20981" lon="0.89761">
        <ele>102</ele>
        <time>2022-07-21T09:28:29.503Z</time>
      </trkpt>
      <trkpt lat="44.20981" lon="0.8976">
        <ele>102</ele>
        <time>2022-07-21T09:28:30.503Z</time>
      </trkpt>
      <trkpt lat="44.2098" lon="0.89759">
        <ele>101</ele>
        <time>2022-07-21T09:28:31.503Z</time>
      </trkpt>
      <trkpt lat="44.20979" lon="0.89758">
        <ele>101</ele>
        <time>2022-07-21T09:28:32.503Z</time>
      </trkpt>
      <trkpt lat="44.20978" lon="0.89757">
        <ele>102</ele>
        <time>2022-07-21T09:28:33.503Z</time>
      </trkpt>
      <trkpt lat="44.20978" lon="0.89756">
        <ele>101</ele>
        <time>2022-07-21T09:28:34.503Z</time>
      </trkpt>
      <trkpt lat="44.20977" lon="0.89755">
        <ele>102</ele>
        <time>2022-07-21T09:28:35.503Z</time>
      </trkpt>
      <trkpt lat="44.20976" lon="0.89754">
        <ele>102</ele>
        <time>2022-07-21T09:28:36.503Z</time>
      </trkpt>
      <trkpt lat="44.20975" lon="0.89753">
        <ele>102</ele>
        <time>2022-07-21T09:28:37.503Z</time>
      </trkpt>
      <trkpt lat="44.20974" lon="0.89752">
        <ele>102</ele>
        <time>2022-07-21T09:28:38.503Z</time>
      </trkpt>
      <trkpt lat="44.20974" lon="0.89751">
        <ele>103</ele>
        <time>2022-07-21T09:28:39.503Z</time>
      </trkpt>
      <trkpt lat="44.20973" lon="0.8975">
        <ele>103</ele>
        <time>2022-07-21T09:28:40.503Z</time>
      </trkpt>
      <trkpt lat="44.20972" lon="0.89749">
        <ele>104</ele>
        <time>2022-07-21T09:28:41.503Z</time>
      </trkpt>
      <trkpt lat="44.20971" lon="0.89748">
        <ele>104</ele>
        <time>2022-07-21T09:28:42.503Z</time>
      </trkpt>
      <trkpt lat="44.2097" lon="0.89747">
        <ele>105</ele>
        <time>2022-07-21T09:28:43.503Z</time>
      </trkpt>
      <trkpt lat="44.2097" lon="0.89746">
        <ele>104</ele>
        <time>2022-07-21T09:28:44.503Z</time>
      </trkpt>
      <trkpt lat="44.20969" lon="0.89746">
        <ele>104</ele>
        <time>2022-07-21T09:28:45.503Z</time>
      </trkpt>
      <trkpt lat="44.20968" lon="0.89745">
        <ele>104</ele>
        <time>2022-07-21T09:28:46.503Z</time>
      </trkpt>
      <trkpt lat="44.20967" lon="0.89744">
        <ele>104</ele>
        <time>2022-07-21T09:28:47.503Z</time>
      </trkpt>
      <trkpt lat="44.20966" lon="0.89743">
        <ele>104</ele>
        <time>2022-07-21T09:28:48.503Z</time>
      </trkpt>
      <trkpt lat="44.20965" lon="0.89743">
        <ele>103</ele>
        <time>2022-07-21T09:28:49.503Z</time>
      </trkpt>
      <trkpt lat="44.20964" lon="0.89743">
        <ele>103</ele>
        <time>2022-07-21T09:28:50.503Z</time>
      </trkpt>
      <trkpt lat="44.20963" lon="0.89742">
        <ele>101</ele>
        <time>2022-07-21T09:28:51.503Z</time>
      </trkpt>
      <trkpt lat="44.20963" lon="0.89742">
        <ele>101</ele>
        <time>2022-07-21T09:28:52.503Z</time>
      </trkpt>
      <trkpt lat="44.20962" lon="0.89741">
        <ele>101</ele>
        <time>2022-07-21T09:28:53.503Z</time>
      </trkpt>
      <trkpt lat="44.20961" lon="0.8974">
        <ele>101</ele>
        <time>2022-07-21T09:28:54.503Z</time>
      </trkpt>
      <trkpt lat="44.2096" lon="0.89739">
        <ele>99</ele>
        <time>2022-07-21T09:28:55.503Z</time>
      </trkpt>
      <trkpt lat="44.20959" lon="0.89738">
        <ele>99</ele>
        <time>2022-07-21T09:28:56.503Z</time>
      </trkpt>
      <trkpt lat="44.20959" lon="0.89736">
        <ele>99</ele>
        <time>2022-07-21T09:28:57.503Z</time>
      </trkpt>
      <trkpt lat="44.20958" lon="0.89735">
        <ele>100</ele>
        <time>2022-07-21T09:28:58.503Z</time>
      </trkpt>
      <trkpt lat="44.20956" lon="0.89733">
        <ele>100</ele>
        <time>2022-07-21T09:28:59.503Z</time>
      </trkpt>
      <trkpt lat="44.20955" lon="0.89732">
        <ele>100</ele>
        <time>2022-07-21T09:29:00.503Z</time>
      </trkpt>
      <trkpt lat="44.20955" lon="0.8973">
        <ele>100</ele>
        <time>2022-07-21T09:29:01.503Z</time>
      </trkpt>
      <trkpt lat="44.20954" lon="0.89729">
        <ele>99</ele>
        <time>2022-07-21T09:29:02.503Z</time>
      </trkpt>
      <trkpt lat="44.20953" lon="0.89728">
        <ele>99</ele>
        <time>2022-07-21T09:29:03.503Z</time>
      </trkpt>
      <trkpt lat="44.20951" lon="0.89727">
        <ele>98</ele>
        <time>2022-07-21T09:29:04.503Z</time>
      </trkpt>
      <trkpt lat="44.2095" lon="0.89727">
        <ele>98</ele>
        <time>2022-07-21T09:29:05.503Z</time>
      </trkpt>
      <trkpt lat="44.20949" lon="0.89726">
        <ele>97</ele>
        <time>2022-07-21T09:29:06.503Z</time>
      </trkpt>
      <trkpt lat="44.20948" lon="0.89726">
        <ele>97</ele>
        <time>2022-07-21T09:29:07.503Z</time>
      </trkpt>
      <trkpt lat="44.20947" lon="0.89725">
        <ele>96</ele>
        <time>2022-07-21T09:29:08.503Z</time>
      </trkpt>
      <trkpt lat="44.20946" lon="0.89724">
        <ele>96</ele>
        <time>2022-07-21T09:29:09.503Z</time>
      </trkpt>
      <trkpt lat="44.20945" lon="0.89724">
        <ele>95</ele>
        <time>2022-07-21T09:29:10.503Z</time>
      </trkpt>
      <trkpt lat="44.20944" lon="0.89723">
        <ele>95</ele>
        <time>2022-07-21T09:29:11.503Z</time>
      </trkpt>
      <trkpt lat="44.20943" lon="0.89723">
        <ele>94</ele>
        <time>2022-07-21T09:29:12.503Z</time>
      </trkpt>
      <trkpt lat="44.20942" lon="0.89722">
        <ele>94</ele>
        <time>2022-07-21T09:29:13.503Z</time>
      </trkpt>
      <trkpt lat="44.20941" lon="0.8972">
        <ele>94</ele>
        <time>2022-07-21T09:29:14.503Z</time>
      </trkpt>
      <trkpt lat="44.20941" lon="0.89719">
        <ele>94</ele>
        <time>2022-07-21T09:29:15.503Z</time>
      </trkpt>
      <trkpt lat="44.2094" lon="0.89718">
        <ele>93</ele>
        <time>2022-07-21T09:29:16.503Z</time>
      </trkpt>
      <trkpt lat="44.20939" lon="0.89717">
        <ele>93</ele>
        <time>2022-07-21T09:29:17.503Z</time>
      </trkpt>
      <trkpt lat="44.20938" lon="0.89716">
        <ele>93</ele>
        <time>2022-07-21T09:29:18.503Z</time>
      </trkpt>
      <trkpt lat="44.20938" lon="0.89715">
        <ele>93</ele>
        <time>2022-07-21T09:29:19.503Z</time>
      </trkpt>
      <trkpt lat="44.20937" lon="0.89715">
        <ele>93</ele>
        <time>2022-07-21T09:29:20.503Z</time>
      </trkpt>
      <trkpt lat="44.20936" lon="0.89713">
        <ele>92</ele>
        <time>2022-07-21T09:29:21.503Z</time>
      </trkpt>
      <trkpt lat="44.20935" lon="0.89712">
        <ele>92</ele>
        <time>2022-07-21T09:29:22.503Z</time>
      </trkpt>
      <trkpt lat="44.20934" lon="0.89711">
        <ele>92</ele>
        <time>2022-07-21T09:29:23.503Z</time>
      </trkpt>
      <trkpt lat="44.20933" lon="0.89709">
        <ele>91</ele>
        <time>2022-07-21T09:29:24.503Z</time>
      </trkpt>
      <trkpt lat="44.20932" lon="0.89707">
        <ele>93</ele>
        <time>2022-07-21T09:29:25.503Z</time>
      </trkpt>
      <trkpt lat="44.20931" lon="0.89706">
        <ele>92</ele>
        <time>2022-07-21T09:29:26.503Z</time>
      </trkpt>
      <trkpt lat="44.20931" lon="0.89705">
        <ele>93</ele>
        <time>2022-07-21T09:29:27.503Z</time>
      </trkpt>
      <trkpt lat="44.2093" lon="0.89703">
        <ele>93</ele>
        <time>2022-07-21T09:29:28.503Z</time>
      </trkpt>
      <trkpt lat="44.20929" lon="0.89702">
        <ele>93</ele>
        <time>2022-07-21T09:29:29.503Z</time>
      </trkpt>
      <trkpt lat="44.20928" lon="0.89701">
        <ele>92</ele>
        <time>2022-07-21T09:29:30.503Z</time>
      </trkpt>
      <trkpt lat="44.20927" lon="0.897">
        <ele>92</ele>
        <time>2022-07-21T09:29:31.503Z</time>
      </trkpt>
      <trkpt lat="44.20926" lon="0.89699">
        <ele>92</ele>
        <time>2022-07-21T09:29:32.503Z</time>
      </trkpt>
      <trkpt lat="44.20925" lon="0.89697">
        <ele>92</ele>
        <time>2022-07-21T09:29:33.503Z</time>
      </trkpt>
      <trkpt lat="44.20924" lon="0.89696">
        <ele>92</ele>
        <time>2022-07-21T09:29:34.503Z</time>
      </trkpt>
      <trkpt lat="44.20923" lon="0.89695">
        <ele>92</ele>
        <time>2022-07-21T09:29:35.503Z</time>
      </trkpt>
      <trkpt lat="44.20922" lon="0.89694">
        <ele>92</ele>
        <time>2022-07-21T09:29:36.503Z</time>
      </trkpt>
      <trkpt lat="44.20922" lon="0.89693">
        <ele>92</ele>
        <time>2022-07-21T09:29:37.503Z</time>
      </trkpt>
      <trkpt lat="44.20921" lon="0.89691">
        <ele>92</ele>
        <time>2022-07-21T09:29:38.503Z</time>
      </trkpt>
      <trkpt lat="44.2092" lon="0.8969">
        <ele>92</ele>
        <time>2022-07-21T09:29:39.503Z</time>
      </trkpt>
      <trkpt lat="44.20919" lon="0.89689">
        <ele>92</ele>
        <time>2022-07-21T09:29:40.503Z</time>
      </trkpt>
      <trkpt lat="44.20918" lon="0.89687">
        <ele>91</ele>
        <time>2022-07-21T09:29:41.503Z</time>
      </trkpt>
      <trkpt lat="44.20917" lon="0.89685">
        <ele>91</ele>
        <time>2022-07-21T09:29:42.503Z</time>
      </trkpt>
      <trkpt lat="44.20916" lon="0.89684">
        <ele>91</ele>
        <time>2022-07-21T09:29:43.503Z</time>
      </trkpt>
      <trkpt lat="44.20915" lon="0.89682">
        <ele>91</ele>
        <time>2022-07-21T09:29:44.503Z</time>
      </trkpt>
      <trkpt lat="44.20914" lon="0.8968">
        <ele>91</ele>
        <time>2022-07-21T09:29:45.503Z</time>
      </trkpt>
      <trkpt lat="44.20914" lon="0.89679">
        <ele>91</ele>
        <time>2022-07-21T09:29:46.503Z</time>
      </trkpt>
      <trkpt lat="44.20913" lon="0.89678">
        <ele>92</ele>
        <time>2022-07-21T09:29:47.503Z</time>
      </trkpt>
      <trkpt lat="44.20912" lon="0.89676">
        <ele>91</ele>
        <time>2022-07-21T09:29:48.503Z</time>
      </trkpt>
      <trkpt lat="44.20911" lon="0.89675">
        <ele>92</ele>
        <time>2022-07-21T09:29:49.503Z</time>
      </trkpt>
      <trkpt lat="44.2091" lon="0.89674">
        <ele>92</ele>
        <time>2022-07-21T09:29:50.503Z</time>
      </trkpt>
      <trkpt lat="44.20909" lon="0.89672">
        <ele>92</ele>
        <time>2022-07-21T09:29:51.503Z</time>
      </trkpt>
      <trkpt lat="44.20908" lon="0.89671">
        <ele>93</ele>
        <time>2022-07-21T09:29:52.503Z</time>
      </trkpt>
      <trkpt lat="44.20907" lon="0.8967">
        <ele>93</ele>
        <time>2022-07-21T09:29:53.503Z</time>
      </trkpt>
      <trkpt lat="44.20907" lon="0.89669">
        <ele>93</ele>
        <time>2022-07-21T09:29:54.503Z</time>
      </trkpt>
      <trkpt lat="44.20906" lon="0.89668">
        <ele>93</ele>
        <time>2022-07-21T09:29:55.503Z</time>
      </trkpt>
      <trkpt lat="44.20905" lon="0.89667">
        <ele>93</ele>
        <time>2022-07-21T09:29:56.503Z</time>
      </trkpt>
      <trkpt lat="44.20904" lon="0.89666">
        <ele>93</ele>
        <time>2022-07-21T09:29:57.503Z</time>
      </trkpt>
      <trkpt lat="44.20904" lon="0.89664">
        <ele>93</ele>
        <time>2022-07-21T09:29:58.503Z</time>
      </trkpt>
      <trkpt lat="44.20903" lon="0.89663">
        <ele>94</ele>
        <time>2022-07-21T09:29:59.503Z</time>
      </trkpt>
      <trkpt lat="44.20902" lon="0.89661">
        <ele>94</ele>
        <time>2022-07-21T09:30:00.503Z</time>
      </trkpt>
      <trkpt lat="44.20901" lon="0.8966">
        <ele>93</ele>
        <time>2022-07-21T09:30:01.503Z</time>
      </trkpt>
      <trkpt lat="44.20901" lon="0.89659">
        <ele>93</ele>
        <time>2022-07-21T09:30:02.503Z</time>
      </trkpt>
      <trkpt lat="44.209" lon="0.89657">
        <ele>94</ele>
        <time>2022-07-21T09:30:03.503Z</time>
      </trkpt>
      <trkpt lat="44.209" lon="0.89656">
        <ele>95</ele>
        <time>2022-07-21T09:30:04.503Z</time>
      </trkpt>
      <trkpt lat="44.20899" lon="0.89654">
        <ele>95</ele>
        <time>2022-07-21T09:30:05.503Z</time>
      </trkpt>
      <trkpt lat="44.20898" lon="0.89652">
        <ele>95</ele>
        <time>2022-07-21T09:30:06.503Z</time>
      </trkpt>
      <trkpt lat="44.20898" lon="0.8965">
        <ele>94</ele>
        <time>2022-07-21T09:30:07.503Z</time>
      </trkpt>
      <trkpt lat="44.20897" lon="0.89649">
        <ele>94</ele>
        <time>2022-07-21T09:30:08.503Z</time>
      </trkpt>
      <trkpt lat="44.20897" lon="0.89647">
        <ele>94</ele>
        <time>2022-07-21T09:30:09.503Z</time>
      </trkpt>
      <trkpt lat="44.20897" lon="0.89646">
        <ele>94</ele>
        <time>2022-07-21T09:30:10.503Z</time>
      </trkpt>
      <trkpt lat="44.20897" lon="0.89644">
        <ele>93</ele>
        <time>2022-07-21T09:30:11.503Z</time>
      </trkpt>
      <trkpt lat="44.20896" lon="0.89643">
        <ele>92</ele>
        <time>2022-07-21T09:30:12.503Z</time>
      </trkpt>
      <trkpt lat="44.20896" lon="0.89641">
        <ele>92</ele>
        <time>2022-07-21T09:30:13.503Z</time>
      </trkpt>
      <trkpt lat="44.20896" lon="0.8964">
        <ele>92</ele>
        <time>2022-07-21T09:30:14.503Z</time>
      </trkpt>
      <trkpt lat="44.20896" lon="0.89638">
        <ele>93</ele>
        <time>2022-07-21T09:30:15.503Z</time>
      </trkpt>
      <trkpt lat="44.20896" lon="0.89637">
        <ele>93</ele>
        <time>2022-07-21T09:30:16.503Z</time>
      </trkpt>
      <trkpt lat="44.20895" lon="0.89635">
        <ele>93</ele>
        <time>2022-07-21T09:30:17.503Z</time>
      </trkpt>
      <trkpt lat="44.20895" lon="0.89633">
        <ele>93</ele>
        <time>2022-07-21T09:30:18.503Z</time>
      </trkpt>
      <trkpt lat="44.20895" lon="0.89632">
        <ele>94</ele>
        <time>2022-07-21T09:30:19.503Z</time>
      </trkpt>
      <trkpt lat="44.20895" lon="0.8963">
        <ele>94</ele>
        <time>2022-07-21T09:30:20.503Z</time>
      </trkpt>
      <trkpt lat="44.20895" lon="0.89629">
        <ele>94</ele>
        <time>2022-07-21T09:30:21.503Z</time>
      </trkpt>
      <trkpt lat="44.20895" lon="0.89627">
        <ele>93</ele>
        <time>2022-07-21T09:30:22.503Z</time>
      </trkpt>
      <trkpt lat="44.20894" lon="0.89625">
        <ele>95</ele>
        <time>2022-07-21T09:30:23.503Z</time>
      </trkpt>
      <trkpt lat="44.20894" lon="0.89624">
        <ele>96</ele>
        <time>2022-07-21T09:30:24.503Z</time>
      </trkpt>
      <trkpt lat="44.20893" lon="0.89622">
        <ele>96</ele>
        <time>2022-07-21T09:30:25.503Z</time>
      </trkpt>
      <trkpt lat="44.20893" lon="0.89621">
        <ele>96</ele>
        <time>2022-07-21T09:30:26.503Z</time>
      </trkpt>
      <trkpt lat="44.20893" lon="0.89619">
        <ele>97</ele>
        <time>2022-07-21T09:30:27.503Z</time>
      </trkpt>
      <trkpt lat="44.20892" lon="0.89618">
        <ele>97</ele>
        <time>2022-07-21T09:30:28.503Z</time>
      </trkpt>
      <trkpt lat="44.20892" lon="0.89616">
        <ele>97</ele>
        <time>2022-07-21T09:30:29.503Z</time>
      </trkpt>
      <trkpt lat="44.20891" lon="0.89614">
        <ele>97</ele>
        <time>2022-07-21T09:30:30.503Z</time>
      </trkpt>
      <trkpt lat="44.20891" lon="0.89612">
        <ele>96</ele>
        <time>2022-07-21T09:30:31.503Z</time>
      </trkpt>
      <trkpt lat="44.20891" lon="0.89611">
        <ele>96</ele>
        <time>2022-07-21T09:30:32.503Z</time>
      </trkpt>
      <trkpt lat="44.2089" lon="0.89609">
        <ele>96</ele>
        <time>2022-07-21T09:30:33.503Z</time>
      </trkpt>
      <trkpt lat="44.2089" lon="0.89608">
        <ele>96</ele>
        <time>2022-07-21T09:30:34.503Z</time>
      </trkpt>
      <trkpt lat="44.2089" lon="0.89607">
        <ele>97</ele>
        <time>2022-07-21T09:30:35.503Z</time>
      </trkpt>
      <trkpt lat="44.20889" lon="0.89605">
        <ele>97</ele>
        <time>2022-07-21T09:30:36.503Z</time>
      </trkpt>
      <trkpt lat="44.20889" lon="0.89603">
        <ele>97</ele>
        <time>2022-07-21T09:30:37.503Z</time>
      </trkpt>
      <trkpt lat="44.20888" lon="0.89602">
        <ele>97</ele>
        <time>2022-07-21T09:30:38.503Z</time>
      </trkpt>
      <trkpt lat="44.20888" lon="0.896">
        <ele>96</ele>
        <time>2022-07-21T09:30:39.503Z</time>
      </trkpt>
      <trkpt lat="44.20888" lon="0.89599">
        <ele>96</ele>
        <time>2022-07-21T09:30:40.503Z</time>
      </trkpt>
      <trkpt lat="44.20887" lon="0.89597">
        <ele>95</ele>
        <time>2022-07-21T09:30:41.503Z</time>
      </trkpt>
      <trkpt lat="44.20887" lon="0.89596">
        <ele>94</ele>
        <time>2022-07-21T09:30:42.503Z</time>
      </trkpt>
      <trkpt lat="44.20887" lon="0.89594">
        <ele>93</ele>
        <time>2022-07-21T09:30:43.503Z</time>
      </trkpt>
      <trkpt lat="44.20887" lon="0.89593">
        <ele>92</ele>
        <time>2022-07-21T09:30:44.503Z</time>
      </trkpt>
      <trkpt lat="44.20887" lon="0.89592">
        <ele>90</ele>
        <time>2022-07-21T09:30:45.503Z</time>
      </trkpt>
      <trkpt lat="44.20888" lon="0.89591">
        <ele>89</ele>
        <time>2022-07-21T09:30:46.503Z</time>
      </trkpt>
      <trkpt lat="44.20888" lon="0.89591">
        <ele>88</ele>
        <time>2022-07-21T09:30:47.503Z</time>
      </trkpt>
      <trkpt lat="44.20888" lon="0.8959">
        <ele>88</ele>
        <time>2022-07-21T09:30:48.503Z</time>
      </trkpt>
      <trkpt lat="44.20888" lon="0.89589">
        <ele>87</ele>
        <time>2022-07-21T09:30:49.503Z</time>
      </trkpt>
      <trkpt lat="44.20888" lon="0.89588">
        <ele>88</ele>
        <time>2022-07-21T09:30:50.503Z</time>
      </trkpt>
      <trkpt lat="44.20887" lon="0.89586">
        <ele>87</ele>
        <time>2022-07-21T09:30:51.503Z</time>
      </trkpt>
      <trkpt lat="44.20887" lon="0.89585">
        <ele>87</ele>
        <time>2022-07-21T09:30:52.503Z</time>
      </trkpt>
      <trkpt lat="44.20887" lon="0.89584">
        <ele>86</ele>
        <time>2022-07-21T09:30:53.503Z</time>
      </trkpt>
      <trkpt lat="44.20887" lon="0.89583">
        <ele>86</ele>
        <time>2022-07-21T09:30:54.503Z</time>
      </trkpt>
      <trkpt lat="44.20887" lon="0.89582">
        <ele>86</ele>
        <time>2022-07-21T09:30:55.503Z</time>
      </trkpt>
      <trkpt lat="44.20886" lon="0.8958">
        <ele>84</ele>
        <time>2022-07-21T09:30:56.503Z</time>
      </trkpt>
      <trkpt lat="44.20886" lon="0.89578">
        <ele>85</ele>
        <time>2022-07-21T09:30:57.503Z</time>
      </trkpt>
      <trkpt lat="44.20885" lon="0.89577">
        <ele>86</ele>
        <time>2022-07-21T09:30:58.503Z</time>
      </trkpt>
      <trkpt lat="44.20884" lon="0.89574">
        <ele>86</ele>
        <time>2022-07-21T09:30:59.503Z</time>
      </trkpt>
      <trkpt lat="44.20883" lon="0.89572">
        <ele>86</ele>
        <time>2022-07-21T09:31:00.503Z</time>
      </trkpt>
      <trkpt lat="44.20882" lon="0.8957">
        <ele>87</ele>
        <time>2022-07-21T09:31:01.503Z</time>
      </trkpt>
      <trkpt lat="44.20881" lon="0.89568">
        <ele>87</ele>
        <time>2022-07-21T09:31:02.503Z</time>
      </trkpt>
      <trkpt lat="44.2088" lon="0.89567">
        <ele>87</ele>
        <time>2022-07-21T09:31:03.503Z</time>
      </trkpt>
      <trkpt lat="44.20879" lon="0.89565">
        <ele>87</ele>
        <time>2022-07-21T09:31:04.503Z</time>
      </trkpt>
      <trkpt lat="44.20878" lon="0.89564">
        <ele>87</ele>
        <time>2022-07-21T09:31:05.503Z</time>
      </trkpt>
      <trkpt lat="44.20878" lon="0.89562">
        <ele>87</ele>
        <time>2022-07-21T09:31:06.503Z</time>
      </trkpt>
      <trkpt lat="44.20877" lon="0.8956">
        <ele>87</ele>
        <time>2022-07-21T09:31:07.503Z</time>
      </trkpt>
      <trkpt lat="44.20877" lon="0.89559">
        <ele>87</ele>
        <time>2022-07-21T09:31:08.503Z</time>
      </trkpt>
      <trkpt lat="44.20876" lon="0.89557">
        <ele>87</ele>
        <time>2022-07-21T09:31:09.503Z</time>
      </trkpt>
      <trkpt lat="44.20875" lon="0.89555">
        <ele>88</ele>
        <time>2022-07-21T09:31:10.503Z</time>
      </trkpt>
      <trkpt lat="44.20874" lon="0.89553">
        <ele>87</ele>
        <time>2022-07-21T09:31:11.503Z</time>
      </trkpt>
      <trkpt lat="44.20873" lon="0.89552">
        <ele>87</ele>
        <time>2022-07-21T09:31:12.503Z</time>
      </trkpt>
      <trkpt lat="44.20873" lon="0.89551">
        <ele>87</ele>
        <time>2022-07-21T09:31:13.503Z</time>
      </trkpt>
      <trkpt lat="44.20872" lon="0.8955">
        <ele>87</ele>
        <time>2022-07-21T09:31:14.503Z</time>
      </trkpt>
      <trkpt lat="44.20872" lon="0.89548">
        <ele>87</ele>
        <time>2022-07-21T09:31:15.503Z</time>
      </trkpt>
      <trkpt lat="44.20871" lon="0.89547">
        <ele>87</ele>
        <time>2022-07-21T09:31:16.503Z</time>
      </trkpt>
      <trkpt lat="44.20871" lon="0.89546">
        <ele>87</ele>
        <time>2022-07-21T09:31:17.503Z</time>
      </trkpt>
      <trkpt lat="44.2087" lon="0.89545">
        <ele>86</ele>
        <time>2022-07-21T09:31:18.503Z</time>
      </trkpt>
      <trkpt lat="44.2087" lon="0.89544">
        <ele>86</ele>
        <time>2022-07-21T09:31:19.503Z</time>
      </trkpt>
      <trkpt lat="44.20869" lon="0.89542">
        <ele>86</ele>
        <time>2022-07-21T09:31:20.503Z</time>
      </trkpt>
      <trkpt lat="44.20868" lon="0.89541">
        <ele>86</ele>
        <time>2022-07-21T09:31:21.503Z</time>
      </trkpt>
      <trkpt lat="44.20868" lon="0.8954">
        <ele>86</ele>
        <time>2022-07-21T09:31:22.503Z</time>
      </trkpt>
      <trkpt lat="44.20867" lon="0.89539">
        <ele>86</ele>
        <time>2022-07-21T09:31:23.503Z</time>
      </trkpt>
      <trkpt lat="44.20866" lon="0.89538">
        <ele>85</ele>
        <time>2022-07-21T09:31:24.503Z</time>
      </trkpt>
      <trkpt lat="44.20864" lon="0.89537">
        <ele>85</ele>
        <time>2022-07-21T09:31:25.503Z</time>
      </trkpt>
      <trkpt lat="44.20863" lon="0.89536">
        <ele>85</ele>
        <time>2022-07-21T09:31:26.503Z</time>
      </trkpt>
      <trkpt lat="44.20863" lon="0.89534">
        <ele>85</ele>
        <time>2022-07-21T09:31:27.503Z</time>
      </trkpt>
      <trkpt lat="44.20862" lon="0.89532">
        <ele>85</ele>
        <time>2022-07-21T09:31:28.503Z</time>
      </trkpt>
      <trkpt lat="44.20861" lon="0.89531">
        <ele>85</ele>
        <time>2022-07-21T09:31:29.503Z</time>
      </trkpt>
      <trkpt lat="44.2086" lon="0.89529">
        <ele>85</ele>
        <time>2022-07-21T09:31:30.503Z</time>
      </trkpt>
      <trkpt lat="44.2086" lon="0.89527">
        <ele>86</ele>
        <time>2022-07-21T09:31:31.503Z</time>
      </trkpt>
      <trkpt lat="44.20859" lon="0.89526">
        <ele>85</ele>
        <time>2022-07-21T09:31:32.503Z</time>
      </trkpt>
      <trkpt lat="44.20858" lon="0.89525">
        <ele>85</ele>
        <time>2022-07-21T09:31:33.503Z</time>
      </trkpt>
      <trkpt lat="44.20857" lon="0.89524">
        <ele>84</ele>
        <time>2022-07-21T09:31:34.503Z</time>
      </trkpt>
      <trkpt lat="44.20857" lon="0.89522">
        <ele>85</ele>
        <time>2022-07-21T09:31:35.503Z</time>
      </trkpt>
      <trkpt lat="44.20856" lon="0.89521">
        <ele>85</ele>
        <time>2022-07-21T09:31:36.503Z</time>
      </trkpt>
      <trkpt lat="44.20856" lon="0.89519">
        <ele>86</ele>
        <time>2022-07-21T09:31:37.503Z</time>
      </trkpt>
      <trkpt lat="44.20855" lon="0.89518">
        <ele>86</ele>
        <time>2022-07-21T09:31:38.503Z</time>
      </trkpt>
      <trkpt lat="44.20855" lon="0.89516">
        <ele>87</ele>
        <time>2022-07-21T09:31:39.503Z</time>
      </trkpt>
      <trkpt lat="44.20854" lon="0.89514">
        <ele>87</ele>
        <time>2022-07-21T09:31:40.503Z</time>
      </trkpt>
      <trkpt lat="44.20854" lon="0.89513">
        <ele>87</ele>
        <time>2022-07-21T09:31:41.503Z</time>
      </trkpt>
      <trkpt lat="44.20854" lon="0.89511">
        <ele>86</ele>
        <time>2022-07-21T09:31:42.503Z</time>
      </trkpt>
      <trkpt lat="44.20854" lon="0.89509">
        <ele>85</ele>
        <time>2022-07-21T09:31:43.503Z</time>
      </trkpt>
      <trkpt lat="44.20854" lon="0.89508">
        <ele>85</ele>
        <time>2022-07-21T09:31:44.503Z</time>
      </trkpt>
      <trkpt lat="44.20855" lon="0.89506">
        <ele>86</ele>
        <time>2022-07-21T09:31:45.503Z</time>
      </trkpt>
      <trkpt lat="44.20854" lon="0.89504">
        <ele>86</ele>
        <time>2022-07-21T09:31:46.503Z</time>
      </trkpt>
      <trkpt lat="44.20854" lon="0.89502">
        <ele>86</ele>
        <time>2022-07-21T09:31:47.503Z</time>
      </trkpt>
      <trkpt lat="44.20854" lon="0.895">
        <ele>86</ele>
        <time>2022-07-21T09:31:48.503Z</time>
      </trkpt>
      <trkpt lat="44.20854" lon="0.89498">
        <ele>86</ele>
        <time>2022-07-21T09:31:49.503Z</time>
      </trkpt>
      <trkpt lat="44.20855" lon="0.89497">
        <ele>87</ele>
        <time>2022-07-21T09:31:50.503Z</time>
      </trkpt>
      <trkpt lat="44.20855" lon="0.89495">
        <ele>87</ele>
        <time>2022-07-21T09:31:51.503Z</time>
      </trkpt>
      <trkpt lat="44.20855" lon="0.89494">
        <ele>87</ele>
        <time>2022-07-21T09:31:52.503Z</time>
      </trkpt>
      <trkpt lat="44.20854" lon="0.89493">
        <ele>88</ele>
        <time>2022-07-21T09:31:53.503Z</time>
      </trkpt>
      <trkpt lat="44.20853" lon="0.89492">
        <ele>88</ele>
        <time>2022-07-21T09:31:54.503Z</time>
      </trkpt>
      <trkpt lat="44.20853" lon="0.89492">
        <ele>87</ele>
        <time>2022-07-21T09:31:55.503Z</time>
      </trkpt>
      <trkpt lat="44.20853" lon="0.89492">
        <ele>87</ele>
        <time>2022-07-21T09:31:56.503Z</time>
      </trkpt>
      <trkpt lat="44.20853" lon="0.89492">
        <ele>87</ele>
        <time>2022-07-21T09:31:57.503Z</time>
      </trkpt>
      <trkpt lat="44.20853" lon="0.89492">
        <ele>87</ele>
        <time>2022-07-21T09:31:58.503Z</time>
      </trkpt>
      <trkpt lat="44.20853" lon="0.89491">
        <ele>87</ele>
        <time>2022-07-21T09:31:59.503Z</time>
      </trkpt>
      <trkpt lat="44.20853" lon="0.89491">
        <ele>87</ele>
        <time>2022-07-21T09:32:00.503Z</time>
      </trkpt>
      <trkpt lat="44.20856" lon="0.89486">
        <ele>87</ele>
        <time>2022-07-21T09:32:18.507Z</time>
      </trkpt>
      <trkpt lat="44.20857" lon="0.89484">
        <ele>87</ele>
        <time>2022-07-21T09:32:19.507Z</time>
      </trkpt>
      <trkpt lat="44.20857" lon="0.89482">
        <ele>87</ele>
        <time>2022-07-21T09:32:20.507Z</time>
      </trkpt>
      <trkpt lat="44.20857" lon="0.8948">
        <ele>87</ele>
        <time>2022-07-21T09:32:21.507Z</time>
      </trkpt>
      <trkpt lat="44.20857" lon="0.89478">
        <ele>87</ele>
        <time>2022-07-21T09:32:22.507Z</time>
      </trkpt>
      <trkpt lat="44.20857" lon="0.89476">
        <ele>87</ele>
        <time>2022-07-21T09:32:23.507Z</time>
      </trkpt>
      <trkpt lat="44.20858" lon="0.89474">
        <ele>87</ele>
        <time>2022-07-21T09:32:24.507Z</time>
      </trkpt>
      <trkpt lat="44.20858" lon="0.89473">
        <ele>87</ele>
        <time>2022-07-21T09:32:25.507Z</time>
      </trkpt>
      <trkpt lat="44.20859" lon="0.89471">
        <ele>87</ele>
        <time>2022-07-21T09:32:26.507Z</time>
      </trkpt>
      <trkpt lat="44.20859" lon="0.89469">
        <ele>87</ele>
        <time>2022-07-21T09:32:27.507Z</time>
      </trkpt>
      <trkpt lat="44.20859" lon="0.89467">
        <ele>87</ele>
        <time>2022-07-21T09:32:28.507Z</time>
      </trkpt>
      <trkpt lat="44.2086" lon="0.89465">
        <ele>87</ele>
        <time>2022-07-21T09:32:29.507Z</time>
      </trkpt>
      <trkpt lat="44.2086" lon="0.89464">
        <ele>87</ele>
        <time>2022-07-21T09:32:30.507Z</time>
      </trkpt>
      <trkpt lat="44.2086" lon="0.89462">
        <ele>88</ele>
        <time>2022-07-21T09:32:31.507Z</time>
      </trkpt>
      <trkpt lat="44.2086" lon="0.8946">
        <ele>88</ele>
        <time>2022-07-21T09:32:32.507Z</time>
      </trkpt>
      <trkpt lat="44.20861" lon="0.89458">
        <ele>88</ele>
        <time>2022-07-21T09:32:33.507Z</time>
      </trkpt>
      <trkpt lat="44.20861" lon="0.89456">
        <ele>88</ele>
        <time>2022-07-21T09:32:34.507Z</time>
      </trkpt>
      <trkpt lat="44.20861" lon="0.89454">
        <ele>88</ele>
        <time>2022-07-21T09:32:35.507Z</time>
      </trkpt>
      <trkpt lat="44.20861" lon="0.89452">
        <ele>89</ele>
        <time>2022-07-21T09:32:36.507Z</time>
      </trkpt>
      <trkpt lat="44.20861" lon="0.8945">
        <ele>89</ele>
        <time>2022-07-21T09:32:37.507Z</time>
      </trkpt>
      <trkpt lat="44.20862" lon="0.89448">
        <ele>89</ele>
        <time>2022-07-21T09:32:38.507Z</time>
      </trkpt>
      <trkpt lat="44.20862" lon="0.89446">
        <ele>89</ele>
        <time>2022-07-21T09:32:39.507Z</time>
      </trkpt>
      <trkpt lat="44.20862" lon="0.89444">
        <ele>90</ele>
        <time>2022-07-21T09:32:40.507Z</time>
      </trkpt>
      <trkpt lat="44.20863" lon="0.89442">
        <ele>90</ele>
        <time>2022-07-21T09:32:41.507Z</time>
      </trkpt>
      <trkpt lat="44.20863" lon="0.8944">
        <ele>91</ele>
        <time>2022-07-21T09:32:42.507Z</time>
      </trkpt>
      <trkpt lat="44.20863" lon="0.89438">
        <ele>91</ele>
        <time>2022-07-21T09:32:43.507Z</time>
      </trkpt>
      <trkpt lat="44.20863" lon="0.89436">
        <ele>91</ele>
        <time>2022-07-21T09:32:44.507Z</time>
      </trkpt>
      <trkpt lat="44.20863" lon="0.89434">
        <ele>91</ele>
        <time>2022-07-21T09:32:45.507Z</time>
      </trkpt>
      <trkpt lat="44.20863" lon="0.89432">
        <ele>91</ele>
        <time>2022-07-21T09:32:46.507Z</time>
      </trkpt>
      <trkpt lat="44.20864" lon="0.8943">
        <ele>92</ele>
        <time>2022-07-21T09:32:47.507Z</time>
      </trkpt>
      <trkpt lat="44.20864" lon="0.89428">
        <ele>92</ele>
        <time>2022-07-21T09:32:48.507Z</time>
      </trkpt>
      <trkpt lat="44.20864" lon="0.89426">
        <ele>92</ele>
        <time>2022-07-21T09:32:49.507Z</time>
      </trkpt>
      <trkpt lat="44.20864" lon="0.89424">
        <ele>92</ele>
        <time>2022-07-21T09:32:50.507Z</time>
      </trkpt>
      <trkpt lat="44.20864" lon="0.89422">
        <ele>92</ele>
        <time>2022-07-21T09:32:51.507Z</time>
      </trkpt>
      <trkpt lat="44.20865" lon="0.89421">
        <ele>92</ele>
        <time>2022-07-21T09:32:52.507Z</time>
      </trkpt>
      <trkpt lat="44.20865" lon="0.89419">
        <ele>92</ele>
        <time>2022-07-21T09:32:53.507Z</time>
      </trkpt>
      <trkpt lat="44.20865" lon="0.89418">
        <ele>92</ele>
        <time>2022-07-21T09:32:54.507Z</time>
      </trkpt>
      <trkpt lat="44.20864" lon="0.89416">
        <ele>92</ele>
        <time>2022-07-21T09:32:55.507Z</time>
      </trkpt>
      <trkpt lat="44.20864" lon="0.89415">
        <ele>92</ele>
        <time>2022-07-21T09:32:56.507Z</time>
      </trkpt>
      <trkpt lat="44.20863" lon="0.89413">
        <ele>92</ele>
        <time>2022-07-21T09:32:57.507Z</time>
      </trkpt>
      <trkpt lat="44.20862" lon="0.89412">
        <ele>91</ele>
        <time>2022-07-21T09:32:58.507Z</time>
      </trkpt>
      <trkpt lat="44.20862" lon="0.89411">
        <ele>91</ele>
        <time>2022-07-21T09:32:59.507Z</time>
      </trkpt>
      <trkpt lat="44.20862" lon="0.8941">
        <ele>91</ele>
        <time>2022-07-21T09:33:00.507Z</time>
      </trkpt>
      <trkpt lat="44.20861" lon="0.89409">
        <ele>90</ele>
        <time>2022-07-21T09:33:01.507Z</time>
      </trkpt>
      <trkpt lat="44.2086" lon="0.89408">
        <ele>90</ele>
        <time>2022-07-21T09:33:02.507Z</time>
      </trkpt>
      <trkpt lat="44.2086" lon="0.89407">
        <ele>90</ele>
        <time>2022-07-21T09:33:03.507Z</time>
      </trkpt>
      <trkpt lat="44.20859" lon="0.89406">
        <ele>90</ele>
        <time>2022-07-21T09:33:04.507Z</time>
      </trkpt>
      <trkpt lat="44.20858" lon="0.89405">
        <ele>90</ele>
        <time>2022-07-21T09:33:05.507Z</time>
      </trkpt>
      <trkpt lat="44.20858" lon="0.89404">
        <ele>90</ele>
        <time>2022-07-21T09:33:06.507Z</time>
      </trkpt>
      <trkpt lat="44.20857" lon="0.89403">
        <ele>90</ele>
        <time>2022-07-21T09:33:07.507Z</time>
      </trkpt>
      <trkpt lat="44.20857" lon="0.89402">
        <ele>91</ele>
        <time>2022-07-21T09:33:08.507Z</time>
      </trkpt>
      <trkpt lat="44.20856" lon="0.89401">
        <ele>91</ele>
        <time>2022-07-21T09:33:09.507Z</time>
      </trkpt>
      <trkpt lat="44.20856" lon="0.894">
        <ele>91</ele>
        <time>2022-07-21T09:33:10.507Z</time>
      </trkpt>
      <trkpt lat="44.20856" lon="0.894">
        <ele>91</ele>
        <time>2022-07-21T09:33:11.507Z</time>
      </trkpt>
      <trkpt lat="44.20856" lon="0.894">
        <ele>91</ele>
        <time>2022-07-21T09:33:12.507Z</time>
      </trkpt>
      <trkpt lat="44.20856" lon="0.894">
        <ele>90</ele>
        <time>2022-07-21T09:33:13.507Z</time>
      </trkpt>
      <trkpt lat="44.20856" lon="0.894">
        <ele>90</ele>
        <time>2022-07-21T09:33:14.507Z</time>
      </trkpt>
      <trkpt lat="44.20856" lon="0.894">
        <ele>91</ele>
        <time>2022-07-21T09:33:15.507Z</time>
      </trkpt>
      <trkpt lat="44.20856" lon="0.894">
        <ele>91</ele>
        <time>2022-07-21T09:33:16.507Z</time>
      </trkpt>
      <trkpt lat="44.20857" lon="0.89396">
        <ele>89</ele>
        <time>2022-07-21T09:33:40.523Z</time>
      </trkpt>
      <trkpt lat="44.20857" lon="0.89396">
        <ele>90</ele>
        <time>2022-07-21T09:33:41.523Z</time>
      </trkpt>
      <trkpt lat="44.20857" lon="0.89396">
        <ele>90</ele>
        <time>2022-07-21T09:33:42.523Z</time>
      </trkpt>
      <trkpt lat="44.20857" lon="0.89396">
        <ele>90</ele>
        <time>2022-07-21T09:33:43.523Z</time>
      </trkpt>
      <trkpt lat="44.20857" lon="0.89396">
        <ele>90</ele>
        <time>2022-07-21T09:33:44.523Z</time>
      </trkpt>
      <trkpt lat="44.20851" lon="0.89399">
        <ele>90</ele>
        <time>2022-07-21T09:34:17.410Z</time>
      </trkpt>
      <trkpt lat="44.20851" lon="0.894">
        <ele>90</ele>
        <time>2022-07-21T09:34:18.410Z</time>
      </trkpt>
      <trkpt lat="44.2085" lon="0.894">
        <ele>90</ele>
        <time>2022-07-21T09:34:19.410Z</time>
      </trkpt>
      <trkpt lat="44.20849" lon="0.894">
        <ele>90</ele>
        <time>2022-07-21T09:34:20.410Z</time>
      </trkpt>
      <trkpt lat="44.20848" lon="0.89401">
        <ele>90</ele>
        <time>2022-07-21T09:34:21.410Z</time>
      </trkpt>
      <trkpt lat="44.20846" lon="0.89401">
        <ele>90</ele>
        <time>2022-07-21T09:34:22.410Z</time>
      </trkpt>
      <trkpt lat="44.20845" lon="0.89401">
        <ele>90</ele>
        <time>2022-07-21T09:34:23.410Z</time>
      </trkpt>
      <trkpt lat="44.20843" lon="0.89401">
        <ele>90</ele>
        <time>2022-07-21T09:34:24.410Z</time>
      </trkpt>
      <trkpt lat="44.20842" lon="0.89401">
        <ele>91</ele>
        <time>2022-07-21T09:34:25.410Z</time>
      </trkpt>
      <trkpt lat="44.20841" lon="0.894">
        <ele>91</ele>
        <time>2022-07-21T09:34:26.410Z</time>
      </trkpt>
      <trkpt lat="44.20839" lon="0.894">
        <ele>91</ele>
        <time>2022-07-21T09:34:27.410Z</time>
      </trkpt>
      <trkpt lat="44.20838" lon="0.894">
        <ele>91</ele>
        <time>2022-07-21T09:34:28.410Z</time>
      </trkpt>
      <trkpt lat="44.20837" lon="0.894">
        <ele>91</ele>
        <time>2022-07-21T09:34:29.410Z</time>
      </trkpt>
      <trkpt lat="44.20836" lon="0.89399">
        <ele>90</ele>
        <time>2022-07-21T09:34:30.410Z</time>
      </trkpt>
      <trkpt lat="44.20835" lon="0.89399">
        <ele>90</ele>
        <time>2022-07-21T09:34:31.410Z</time>
      </trkpt>
      <trkpt lat="44.20833" lon="0.89399">
        <ele>90</ele>
        <time>2022-07-21T09:34:32.410Z</time>
      </trkpt>
      <trkpt lat="44.20832" lon="0.89399">
        <ele>90</ele>
        <time>2022-07-21T09:34:33.410Z</time>
      </trkpt>
      <trkpt lat="44.20831" lon="0.89398">
        <ele>90</ele>
        <time>2022-07-21T09:34:34.410Z</time>
      </trkpt>
      <trkpt lat="44.20829" lon="0.89398">
        <ele>90</ele>
        <time>2022-07-21T09:34:35.410Z</time>
      </trkpt>
      <trkpt lat="44.20828" lon="0.89398">
        <ele>89</ele>
        <time>2022-07-21T09:34:36.410Z</time>
      </trkpt>
      <trkpt lat="44.20827" lon="0.89398">
        <ele>89</ele>
        <time>2022-07-21T09:34:37.410Z</time>
      </trkpt>
      <trkpt lat="44.20826" lon="0.89397">
        <ele>90</ele>
        <time>2022-07-21T09:34:38.410Z</time>
      </trkpt>
      <trkpt lat="44.20824" lon="0.89397">
        <ele>90</ele>
        <time>2022-07-21T09:34:39.410Z</time>
      </trkpt>
      <trkpt lat="44.20823" lon="0.89397">
        <ele>90</ele>
        <time>2022-07-21T09:34:40.410Z</time>
      </trkpt>
      <trkpt lat="44.20822" lon="0.89397">
        <ele>90</ele>
        <time>2022-07-21T09:34:41.410Z</time>
      </trkpt>
      <trkpt lat="44.2082" lon="0.89397">
        <ele>90</ele>
        <time>2022-07-21T09:34:42.410Z</time>
      </trkpt>
      <trkpt lat="44.20819" lon="0.89397">
        <ele>90</ele>
        <time>2022-07-21T09:34:43.410Z</time>
      </trkpt>
      <trkpt lat="44.20818" lon="0.89396">
        <ele>90</ele>
        <time>2022-07-21T09:34:44.410Z</time>
      </trkpt>
      <trkpt lat="44.20817" lon="0.89395">
        <ele>89</ele>
        <time>2022-07-21T09:34:45.410Z</time>
      </trkpt>
      <trkpt lat="44.20816" lon="0.89395">
        <ele>90</ele>
        <time>2022-07-21T09:34:46.410Z</time>
      </trkpt>
      <trkpt lat="44.20814" lon="0.89395">
        <ele>89</ele>
        <time>2022-07-21T09:34:47.410Z</time>
      </trkpt>
      <trkpt lat="44.20813" lon="0.89394">
        <ele>90</ele>
        <time>2022-07-21T09:34:48.410Z</time>
      </trkpt>
      <trkpt lat="44.20812" lon="0.89394">
        <ele>89</ele>
        <time>2022-07-21T09:34:49.410Z</time>
      </trkpt>
      <trkpt lat="44.20811" lon="0.89394">
        <ele>90</ele>
        <time>2022-07-21T09:34:50.410Z</time>
      </trkpt>
      <trkpt lat="44.2081" lon="0.89394">
        <ele>90</ele>
        <time>2022-07-21T09:34:51.410Z</time>
      </trkpt>
      <trkpt lat="44.20809" lon="0.89393">
        <ele>90</ele>
        <time>2022-07-21T09:34:52.410Z</time>
      </trkpt>
      <trkpt lat="44.20808" lon="0.89393">
        <ele>91</ele>
        <time>2022-07-21T09:34:53.410Z</time>
      </trkpt>
      <trkpt lat="44.20807" lon="0.89393">
        <ele>91</ele>
        <time>2022-07-21T09:34:54.410Z</time>
      </trkpt>
      <trkpt lat="44.20806" lon="0.89392">
        <ele>90</ele>
        <time>2022-07-21T09:34:55.410Z</time>
      </trkpt>
      <trkpt lat="44.20805" lon="0.89392">
        <ele>91</ele>
        <time>2022-07-21T09:34:56.410Z</time>
      </trkpt>
      <trkpt lat="44.20804" lon="0.89391">
        <ele>91</ele>
        <time>2022-07-21T09:34:57.410Z</time>
      </trkpt>
      <trkpt lat="44.20802" lon="0.8939">
        <ele>91</ele>
        <time>2022-07-21T09:34:58.410Z</time>
      </trkpt>
      <trkpt lat="44.20801" lon="0.8939">
        <ele>91</ele>
        <time>2022-07-21T09:34:59.410Z</time>
      </trkpt>
      <trkpt lat="44.208" lon="0.89389">
        <ele>91</ele>
        <time>2022-07-21T09:35:00.410Z</time>
      </trkpt>
      <trkpt lat="44.20799" lon="0.89389">
        <ele>91</ele>
        <time>2022-07-21T09:35:01.410Z</time>
      </trkpt>
      <trkpt lat="44.20797" lon="0.89389">
        <ele>91</ele>
        <time>2022-07-21T09:35:02.410Z</time>
      </trkpt>
      <trkpt lat="44.20796" lon="0.89388">
        <ele>92</ele>
        <time>2022-07-21T09:35:03.410Z</time>
      </trkpt>
      <trkpt lat="44.20795" lon="0.89388">
        <ele>92</ele>
        <time>2022-07-21T09:35:04.410Z</time>
      </trkpt>
      <trkpt lat="44.20794" lon="0.89387">
        <ele>92</ele>
        <time>2022-07-21T09:35:05.410Z</time>
      </trkpt>
      <trkpt lat="44.20793" lon="0.89387">
        <ele>92</ele>
        <time>2022-07-21T09:35:06.410Z</time>
      </trkpt>
      <trkpt lat="44.20791" lon="0.89386">
        <ele>92</ele>
        <time>2022-07-21T09:35:07.410Z</time>
      </trkpt>
      <trkpt lat="44.2079" lon="0.89385">
        <ele>92</ele>
        <time>2022-07-21T09:35:08.410Z</time>
      </trkpt>
      <trkpt lat="44.20789" lon="0.89384">
        <ele>92</ele>
        <time>2022-07-21T09:35:09.410Z</time>
      </trkpt>
      <trkpt lat="44.20788" lon="0.89383">
        <ele>92</ele>
        <time>2022-07-21T09:35:10.410Z</time>
      </trkpt>
      <trkpt lat="44.20787" lon="0.89382">
        <ele>92</ele>
        <time>2022-07-21T09:35:11.410Z</time>
      </trkpt>
      <trkpt lat="44.20786" lon="0.89381">
        <ele>91</ele>
        <time>2022-07-21T09:35:12.410Z</time>
      </trkpt>
      <trkpt lat="44.20785" lon="0.8938">
        <ele>91</ele>
        <time>2022-07-21T09:35:13.410Z</time>
      </trkpt>
      <trkpt lat="44.20784" lon="0.89379">
        <ele>91</ele>
        <time>2022-07-21T09:35:14.410Z</time>
      </trkpt>
      <trkpt lat="44.20783" lon="0.89377">
        <ele>91</ele>
        <time>2022-07-21T09:35:15.410Z</time>
      </trkpt>
      <trkpt lat="44.20782" lon="0.89376">
        <ele>91</ele>
        <time>2022-07-21T09:35:16.410Z</time>
      </trkpt>
      <trkpt lat="44.20781" lon="0.89375">
        <ele>90</ele>
        <time>2022-07-21T09:35:17.410Z</time>
      </trkpt>
      <trkpt lat="44.2078" lon="0.89373">
        <ele>90</ele>
        <time>2022-07-21T09:35:18.410Z</time>
      </trkpt>
      <trkpt lat="44.20779" lon="0.89372">
        <ele>90</ele>
        <time>2022-07-21T09:35:19.410Z</time>
      </trkpt>
      <trkpt lat="44.20778" lon="0.8937">
        <ele>90</ele>
        <time>2022-07-21T09:35:20.410Z</time>
      </trkpt>
      <trkpt lat="44.20778" lon="0.89369">
        <ele>90</ele>
        <time>2022-07-21T09:35:21.410Z</time>
      </trkpt>
      <trkpt lat="44.20777" lon="0.89367">
        <ele>90</ele>
        <time>2022-07-21T09:35:22.410Z</time>
      </trkpt>
      <trkpt lat="44.20777" lon="0.89365">
        <ele>89</ele>
        <time>2022-07-21T09:35:23.410Z</time>
      </trkpt>
      <trkpt lat="44.20776" lon="0.89364">
        <ele>89</ele>
        <time>2022-07-21T09:35:24.410Z</time>
      </trkpt>
      <trkpt lat="44.20776" lon="0.89363">
        <ele>89</ele>
        <time>2022-07-21T09:35:25.410Z</time>
      </trkpt>
      <trkpt lat="44.20775" lon="0.89361">
        <ele>88</ele>
        <time>2022-07-21T09:35:26.410Z</time>
      </trkpt>
      <trkpt lat="44.20775" lon="0.8936">
        <ele>88</ele>
        <time>2022-07-21T09:35:27.410Z</time>
      </trkpt>
      <trkpt lat="44.20774" lon="0.89359">
        <ele>88</ele>
        <time>2022-07-21T09:35:28.410Z</time>
      </trkpt>
      <trkpt lat="44.20775" lon="0.89358">
        <ele>88</ele>
        <time>2022-07-21T09:35:29.410Z</time>
      </trkpt>
      <trkpt lat="44.20775" lon="0.89357">
        <ele>88</ele>
        <time>2022-07-21T09:35:30.410Z</time>
      </trkpt>
      <trkpt lat="44.20775" lon="0.89356">
        <ele>88</ele>
        <time>2022-07-21T09:35:31.410Z</time>
      </trkpt>
      <trkpt lat="44.20775" lon="0.89355">
        <ele>88</ele>
        <time>2022-07-21T09:35:32.410Z</time>
      </trkpt>
      <trkpt lat="44.20775" lon="0.89354">
        <ele>89</ele>
        <time>2022-07-21T09:35:33.410Z</time>
      </trkpt>
      <trkpt lat="44.20775" lon="0.89353">
        <ele>89</ele>
        <time>2022-07-21T09:35:34.410Z</time>
      </trkpt>
      <trkpt lat="44.20775" lon="0.89351">
        <ele>90</ele>
        <time>2022-07-21T09:35:35.410Z</time>
      </trkpt>
      <trkpt lat="44.20775" lon="0.8935">
        <ele>89</ele>
        <time>2022-07-21T09:35:36.410Z</time>
      </trkpt>
      <trkpt lat="44.20775" lon="0.89349">
        <ele>89</ele>
        <time>2022-07-21T09:35:37.410Z</time>
      </trkpt>
      <trkpt lat="44.20775" lon="0.89347">
        <ele>89</ele>
        <time>2022-07-21T09:35:38.410Z</time>
      </trkpt>
      <trkpt lat="44.20775" lon="0.89346">
        <ele>89</ele>
        <time>2022-07-21T09:35:39.410Z</time>
      </trkpt>
      <trkpt lat="44.20775" lon="0.89344">
        <ele>89</ele>
        <time>2022-07-21T09:35:40.410Z</time>
      </trkpt>
      <trkpt lat="44.20775" lon="0.89343">
        <ele>90</ele>
        <time>2022-07-21T09:35:41.410Z</time>
      </trkpt>
      <trkpt lat="44.20775" lon="0.89342">
        <ele>90</ele>
        <time>2022-07-21T09:35:42.410Z</time>
      </trkpt>
      <trkpt lat="44.20775" lon="0.8934">
        <ele>90</ele>
        <time>2022-07-21T09:35:43.410Z</time>
      </trkpt>
      <trkpt lat="44.20775" lon="0.89339">
        <ele>90</ele>
        <time>2022-07-21T09:35:44.410Z</time>
      </trkpt>
      <trkpt lat="44.20775" lon="0.89337">
        <ele>90</ele>
        <time>2022-07-21T09:35:45.410Z</time>
      </trkpt>
      <trkpt lat="44.20776" lon="0.89336">
        <ele>90</ele>
        <time>2022-07-21T09:35:46.410Z</time>
      </trkpt>
      <trkpt lat="44.20776" lon="0.89334">
        <ele>90</ele>
        <time>2022-07-21T09:35:47.410Z</time>
      </trkpt>
      <trkpt lat="44.20776" lon="0.89333">
        <ele>90</ele>
        <time>2022-07-21T09:35:48.410Z</time>
      </trkpt>
      <trkpt lat="44.20776" lon="0.89331">
        <ele>90</ele>
        <time>2022-07-21T09:35:49.410Z</time>
      </trkpt>
      <trkpt lat="44.20776" lon="0.8933">
        <ele>90</ele>
        <time>2022-07-21T09:35:50.410Z</time>
      </trkpt>
      <trkpt lat="44.20776" lon="0.89328">
        <ele>91</ele>
        <time>2022-07-21T09:35:51.410Z</time>
      </trkpt>
      <trkpt lat="44.20776" lon="0.89326">
        <ele>92</ele>
        <time>2022-07-21T09:35:52.410Z</time>
      </trkpt>
      <trkpt lat="44.20776" lon="0.89325">
        <ele>93</ele>
        <time>2022-07-21T09:35:53.410Z</time>
      </trkpt>
      <trkpt lat="44.20776" lon="0.89323">
        <ele>93</ele>
        <time>2022-07-21T09:35:54.410Z</time>
      </trkpt>
      <trkpt lat="44.20776" lon="0.89322">
        <ele>93</ele>
        <time>2022-07-21T09:35:55.410Z</time>
      </trkpt>
      <trkpt lat="44.20777" lon="0.8932">
        <ele>93</ele>
        <time>2022-07-21T09:35:56.410Z</time>
      </trkpt>
      <trkpt lat="44.20777" lon="0.89318">
        <ele>93</ele>
        <time>2022-07-21T09:35:57.410Z</time>
      </trkpt>
      <trkpt lat="44.20777" lon="0.89317">
        <ele>94</ele>
        <time>2022-07-21T09:35:58.410Z</time>
      </trkpt>
      <trkpt lat="44.20777" lon="0.89315">
        <ele>95</ele>
        <time>2022-07-21T09:35:59.410Z</time>
      </trkpt>
      <trkpt lat="44.20777" lon="0.89314">
        <ele>95</ele>
        <time>2022-07-21T09:36:00.410Z</time>
      </trkpt>
      <trkpt lat="44.20778" lon="0.89312">
        <ele>96</ele>
        <time>2022-07-21T09:36:01.410Z</time>
      </trkpt>
      <trkpt lat="44.20778" lon="0.8931">
        <ele>96</ele>
        <time>2022-07-21T09:36:02.410Z</time>
      </trkpt>
      <trkpt lat="44.20779" lon="0.89308">
        <ele>95</ele>
        <time>2022-07-21T09:36:03.410Z</time>
      </trkpt>
      <trkpt lat="44.20779" lon="0.89306">
        <ele>96</ele>
        <time>2022-07-21T09:36:04.410Z</time>
      </trkpt>
      <trkpt lat="44.20779" lon="0.89304">
        <ele>96</ele>
        <time>2022-07-21T09:36:05.410Z</time>
      </trkpt>
      <trkpt lat="44.2078" lon="0.89303">
        <ele>97</ele>
        <time>2022-07-21T09:36:06.410Z</time>
      </trkpt>
      <trkpt lat="44.2078" lon="0.89301">
        <ele>97</ele>
        <time>2022-07-21T09:36:07.410Z</time>
      </trkpt>
      <trkpt lat="44.20781" lon="0.893">
        <ele>98</ele>
        <time>2022-07-21T09:36:08.410Z</time>
      </trkpt>
      <trkpt lat="44.20782" lon="0.89299">
        <ele>99</ele>
        <time>2022-07-21T09:36:09.410Z</time>
      </trkpt>
      <trkpt lat="44.20784" lon="0.89297">
        <ele>99</ele>
        <time>2022-07-21T09:36:10.410Z</time>
      </trkpt>
      <trkpt lat="44.20785" lon="0.89297">
        <ele>100</ele>
        <time>2022-07-21T09:36:11.410Z</time>
      </trkpt>
      <trkpt lat="44.20785" lon="0.89296">
        <ele>101</ele>
        <time>2022-07-21T09:36:12.410Z</time>
      </trkpt>
      <trkpt lat="44.20786" lon="0.89295">
        <ele>101</ele>
        <time>2022-07-21T09:36:13.410Z</time>
      </trkpt>
      <trkpt lat="44.20787" lon="0.89294">
        <ele>102</ele>
        <time>2022-07-21T09:36:14.410Z</time>
      </trkpt>
      <trkpt lat="44.20788" lon="0.89293">
        <ele>103</ele>
        <time>2022-07-21T09:36:15.410Z</time>
      </trkpt>
      <trkpt lat="44.20789" lon="0.89292">
        <ele>103</ele>
        <time>2022-07-21T09:36:16.410Z</time>
      </trkpt>
      <trkpt lat="44.2079" lon="0.89292">
        <ele>104</ele>
        <time>2022-07-21T09:36:17.410Z</time>
      </trkpt>
      <trkpt lat="44.20791" lon="0.89291">
        <ele>104</ele>
        <time>2022-07-21T09:36:18.410Z</time>
      </trkpt>
      <trkpt lat="44.20792" lon="0.8929">
        <ele>105</ele>
        <time>2022-07-21T09:36:19.410Z</time>
      </trkpt>
      <trkpt lat="44.20792" lon="0.89289">
        <ele>105</ele>
        <time>2022-07-21T09:36:20.410Z</time>
      </trkpt>
      <trkpt lat="44.20793" lon="0.89288">
        <ele>105</ele>
        <time>2022-07-21T09:36:21.410Z</time>
      </trkpt>
      <trkpt lat="44.20794" lon="0.89287">
        <ele>106</ele>
        <time>2022-07-21T09:36:22.410Z</time>
      </trkpt>
      <trkpt lat="44.20795" lon="0.89286">
        <ele>106</ele>
        <time>2022-07-21T09:36:23.410Z</time>
      </trkpt>
      <trkpt lat="44.20796" lon="0.89286">
        <ele>105</ele>
        <time>2022-07-21T09:36:24.410Z</time>
      </trkpt>
      <trkpt lat="44.20797" lon="0.89285">
        <ele>105</ele>
        <time>2022-07-21T09:36:25.410Z</time>
      </trkpt>
      <trkpt lat="44.20798" lon="0.89284">
        <ele>105</ele>
        <time>2022-07-21T09:36:26.410Z</time>
      </trkpt>
      <trkpt lat="44.20799" lon="0.89284">
        <ele>103</ele>
        <time>2022-07-21T09:36:27.410Z</time>
      </trkpt>
      <trkpt lat="44.20799" lon="0.89284">
        <ele>102</ele>
        <time>2022-07-21T09:36:28.410Z</time>
      </trkpt>
      <trkpt lat="44.20799" lon="0.89285">
        <ele>102</ele>
        <time>2022-07-21T09:36:29.410Z</time>
      </trkpt>
      <trkpt lat="44.20799" lon="0.89285">
        <ele>101</ele>
        <time>2022-07-21T09:36:30.410Z</time>
      </trkpt>
      <trkpt lat="44.20799" lon="0.89285">
        <ele>101</ele>
        <time>2022-07-21T09:36:31.410Z</time>
      </trkpt>
      <trkpt lat="44.208" lon="0.89285">
        <ele>101</ele>
        <time>2022-07-21T09:36:32.410Z</time>
      </trkpt>
      <trkpt lat="44.208" lon="0.89285">
        <ele>101</ele>
        <time>2022-07-21T09:36:33.410Z</time>
      </trkpt>
      <trkpt lat="44.208" lon="0.89286">
        <ele>101</ele>
        <time>2022-07-21T09:36:34.410Z</time>
      </trkpt>
      <trkpt lat="44.208" lon="0.89286">
        <ele>101</ele>
        <time>2022-07-21T09:36:35.410Z</time>
      </trkpt>
      <trkpt lat="44.20796" lon="0.89288">
        <ele>101</ele>
        <time>2022-07-21T09:36:43.418Z</time>
      </trkpt>
      <trkpt lat="44.20795" lon="0.89288">
        <ele>101</ele>
        <time>2022-07-21T09:36:44.418Z</time>
      </trkpt>
      <trkpt lat="44.20794" lon="0.89288">
        <ele>101</ele>
        <time>2022-07-21T09:36:45.418Z</time>
      </trkpt>
      <trkpt lat="44.20793" lon="0.89288">
        <ele>101</ele>
        <time>2022-07-21T09:36:46.418Z</time>
      </trkpt>
      <trkpt lat="44.20792" lon="0.89288">
        <ele>101</ele>
        <time>2022-07-21T09:36:47.418Z</time>
      </trkpt>
      <trkpt lat="44.20792" lon="0.89288">
        <ele>101</ele>
        <time>2022-07-21T09:36:48.418Z</time>
      </trkpt>
      <trkpt lat="44.20791" lon="0.89288">
        <ele>101</ele>
        <time>2022-07-21T09:36:49.418Z</time>
      </trkpt>
      <trkpt lat="44.20791" lon="0.89288">
        <ele>101</ele>
        <time>2022-07-21T09:36:50.418Z</time>
      </trkpt>
      <trkpt lat="44.20791" lon="0.89288">
        <ele>102</ele>
        <time>2022-07-21T09:36:51.418Z</time>
      </trkpt>
      <trkpt lat="44.20791" lon="0.89288">
        <ele>102</ele>
        <time>2022-07-21T09:36:52.418Z</time>
      </trkpt>
      <trkpt lat="44.20791" lon="0.89289">
        <ele>102</ele>
        <time>2022-07-21T09:36:53.418Z</time>
      </trkpt>
      <trkpt lat="44.2079" lon="0.89289">
        <ele>102</ele>
        <time>2022-07-21T09:36:54.418Z</time>
      </trkpt>
      <trkpt lat="44.2079" lon="0.89289">
        <ele>102</ele>
        <time>2022-07-21T09:36:55.418Z</time>
      </trkpt>
      <trkpt lat="44.2079" lon="0.89289">
        <ele>102</ele>
        <time>2022-07-21T09:36:56.418Z</time>
      </trkpt>
      <trkpt lat="44.2079" lon="0.89289">
        <ele>101</ele>
        <time>2022-07-21T09:36:57.418Z</time>
      </trkpt>
      <trkpt lat="44.20789" lon="0.89289">
        <ele>101</ele>
        <time>2022-07-21T09:36:58.418Z</time>
      </trkpt>
      <trkpt lat="44.20789" lon="0.89289">
        <ele>101</ele>
        <time>2022-07-21T09:36:59.418Z</time>
      </trkpt>
      <trkpt lat="44.20789" lon="0.89289">
        <ele>101</ele>
        <time>2022-07-21T09:37:00.418Z</time>
      </trkpt>
      <trkpt lat="44.20789" lon="0.89289">
        <ele>101</ele>
        <time>2022-07-21T09:37:01.418Z</time>
      </trkpt>
      <trkpt lat="44.20789" lon="0.89289">
        <ele>101</ele>
        <time>2022-07-21T09:37:02.418Z</time>
      </trkpt>
    </trkseg>
  </trk>
</gpx>